<?xml version='1.0' encoding='UTF-8'?><gpx version="1.1" creator="JPX - https://github.com/jenetics/jpx" xmlns="http://www.topografix.com/GPX/1/1"><trk><trkseg><trkpt lat="43.7454663" lon="11.3386794"><ele>176.0</ele><time>2026-05-03T06:33:14.993Z</time></trkpt><trkpt lat="43.745388" lon="11.3387766"><ele>176.0</ele><time>2026-05-03T06:33:16.993Z</time></trkpt><trkpt lat="43.7453374" lon="11.338834"><ele>176.0</ele><time>2026-05-03T06:33:17.994Z</time></trkpt><trkpt lat="43.7452851" lon="11.3388987"><ele>176.0</ele><time>2026-05-03T06:33:18.994Z</time></trkpt><trkpt lat="43.7452245" lon="11.3389717"><ele>176.0</ele><time>2026-05-03T06:33:19.994Z</time></trkpt><trkpt lat="43.7451624" lon="11.3390475"><ele>176.0</ele><time>2026-05-03T06:33:20.993Z</time></trkpt><trkpt lat="43.7450947" lon="11.3391309"><ele>177.4</ele><time>2026-05-03T06:33:21.994Z</time></trkpt><trkpt lat="43.7450196" lon="11.3392185"><ele>178.8</ele><time>2026-05-03T06:33:22.994Z</time></trkpt><trkpt lat="43.7449431" lon="11.3392982"><ele>180.20000000000002</ele><time>2026-05-03T06:33:23.994Z</time></trkpt><trkpt lat="43.744869" lon="11.3393774"><ele>181.60000000000002</ele><time>2026-05-03T06:33:24.994Z</time></trkpt><trkpt lat="43.7447966" lon="11.3394555"><ele>183.0</ele><time>2026-05-03T06:33:25.994Z</time></trkpt><trkpt lat="43.7447277" lon="11.3395273"><ele>183.0</ele><time>2026-05-03T06:33:26.994Z</time></trkpt><trkpt lat="43.7446732" lon="11.3395872"><ele>183.0</ele><time>2026-05-03T06:33:27.992Z</time></trkpt><trkpt lat="43.7446094" lon="11.3396825"><ele>183.0</ele><time>2026-05-03T06:33:29.993Z</time></trkpt><trkpt lat="43.7446068" lon="11.3398382"><ele>183.0</ele><time>2026-05-03T06:33:31.994Z</time></trkpt><trkpt lat="43.7447009" lon="11.3399426"><ele>183.0</ele><time>2026-05-03T06:33:32.993Z</time></trkpt><trkpt lat="43.7447465" lon="11.3400312"><ele>183.33333333333334</ele><time>2026-05-03T06:33:33.994Z</time></trkpt><trkpt lat="43.7448024" lon="11.3401314"><ele>183.66666666666666</ele><time>2026-05-03T06:33:34.993Z</time></trkpt><trkpt lat="43.7448479" lon="11.3402357"><ele>184.0</ele><time>2026-05-03T06:33:35.993Z</time></trkpt><trkpt lat="43.744879" lon="11.340344"><ele>184.33333333333331</ele><time>2026-05-03T06:33:36.993Z</time></trkpt><trkpt lat="43.7449166" lon="11.3404572"><ele>184.66666666666666</ele><time>2026-05-03T06:33:37.994Z</time></trkpt><trkpt lat="43.7449474" lon="11.3405753"><ele>185.0</ele><time>2026-05-03T06:33:38.994Z</time></trkpt><trkpt lat="43.744976" lon="11.3406935"><ele>185.5</ele><time>2026-05-03T06:33:39.994Z</time></trkpt><trkpt lat="43.7450091" lon="11.3408423"><ele>186.0</ele><time>2026-05-03T06:33:40.994Z</time></trkpt><trkpt lat="43.7450321" lon="11.340982"><ele>186.5</ele><time>2026-05-03T06:33:41.993Z</time></trkpt><trkpt lat="43.7450576" lon="11.3411474"><ele>187.0</ele><time>2026-05-03T06:33:42.993Z</time></trkpt><trkpt lat="43.7450826" lon="11.3413118"><ele>187.75</ele><time>2026-05-03T06:33:43.993Z</time></trkpt><trkpt lat="43.7451106" lon="11.341479"><ele>188.5</ele><time>2026-05-03T06:33:44.993Z</time></trkpt><trkpt lat="43.7451359" lon="11.3416474"><ele>189.25</ele><time>2026-05-03T06:33:45.994Z</time></trkpt><trkpt lat="43.7451484" lon="11.3418156"><ele>190.0</ele><time>2026-05-03T06:33:46.994Z</time></trkpt><trkpt lat="43.7451626" lon="11.3419821"><ele>190.0</ele><time>2026-05-03T06:33:47.994Z</time></trkpt><trkpt lat="43.7451749" lon="11.3421467"><ele>190.0</ele><time>2026-05-03T06:33:48.993Z</time></trkpt><trkpt lat="43.7451891" lon="11.3423113"><ele>190.0</ele><time>2026-05-03T06:33:49.994Z</time></trkpt><trkpt lat="43.7452037" lon="11.3424658"><ele>190.0</ele><time>2026-05-03T06:33:50.994Z</time></trkpt><trkpt lat="43.7451956" lon="11.342612"><ele>190.75</ele><time>2026-05-03T06:33:51.993Z</time></trkpt><trkpt lat="43.7451739" lon="11.3427895"><ele>191.5</ele><time>2026-05-03T06:33:52.993Z</time></trkpt><trkpt lat="43.7451468" lon="11.3429633"><ele>192.25</ele><time>2026-05-03T06:33:53.993Z</time></trkpt><trkpt lat="43.745122" lon="11.3431383"><ele>193.0</ele><time>2026-05-03T06:33:54.994Z</time></trkpt><trkpt lat="43.7450909" lon="11.3433109"><ele>193.5</ele><time>2026-05-03T06:33:55.994Z</time></trkpt><trkpt lat="43.7450539" lon="11.3434794"><ele>194.0</ele><time>2026-05-03T06:33:56.992Z</time></trkpt><trkpt lat="43.7450132" lon="11.343642"><ele>194.5</ele><time>2026-05-03T06:33:57.993Z</time></trkpt><trkpt lat="43.7449694" lon="11.3438055"><ele>195.0</ele><time>2026-05-03T06:33:58.993Z</time></trkpt><trkpt lat="43.7449276" lon="11.3439637"><ele>196.0</ele><time>2026-05-03T06:33:59.994Z</time></trkpt><trkpt lat="43.7448898" lon="11.3441182"><ele>197.0</ele><time>2026-05-03T06:34:00.993Z</time></trkpt><trkpt lat="43.7448659" lon="11.3442721"><ele>198.0</ele><time>2026-05-03T06:34:01.993Z</time></trkpt><trkpt lat="43.744841" lon="11.3444251"><ele>199.0</ele><time>2026-05-03T06:34:02.994Z</time></trkpt><trkpt lat="43.7448202" lon="11.3445799"><ele>199.79999999999998</ele><time>2026-05-03T06:34:03.993Z</time></trkpt><trkpt lat="43.7447956" lon="11.3447329"><ele>200.6</ele><time>2026-05-03T06:34:04.993Z</time></trkpt><trkpt lat="43.7447687" lon="11.3448865"><ele>201.4</ele><time>2026-05-03T06:34:05.993Z</time></trkpt><trkpt lat="43.7447382" lon="11.3450339"><ele>202.2</ele><time>2026-05-03T06:34:06.994Z</time></trkpt><trkpt lat="43.7447063" lon="11.3451795"><ele>203.0</ele><time>2026-05-03T06:34:07.993Z</time></trkpt><trkpt lat="43.7446767" lon="11.345327"><ele>203.0</ele><time>2026-05-03T06:34:08.994Z</time></trkpt><trkpt lat="43.7446485" lon="11.3454774"><ele>203.0</ele><time>2026-05-03T06:34:09.993Z</time></trkpt><trkpt lat="43.7446063" lon="11.3456338"><ele>203.0</ele><time>2026-05-03T06:34:10.993Z</time></trkpt><trkpt lat="43.7445717" lon="11.3457972"><ele>203.0</ele><time>2026-05-03T06:34:11.993Z</time></trkpt><trkpt lat="43.744551" lon="11.3459728"><ele>203.5</ele><time>2026-05-03T06:34:12.993Z</time></trkpt><trkpt lat="43.7445405" lon="11.3461486"><ele>204.0</ele><time>2026-05-03T06:34:13.993Z</time></trkpt><trkpt lat="43.7445298" lon="11.3463212"><ele>204.5</ele><time>2026-05-03T06:34:14.992Z</time></trkpt><trkpt lat="43.7445261" lon="11.3464829"><ele>205.0</ele><time>2026-05-03T06:34:15.993Z</time></trkpt><trkpt lat="43.7445357" lon="11.3466298"><ele>204.99999999999997</ele><time>2026-05-03T06:34:16.994Z</time></trkpt><trkpt lat="43.7445452" lon="11.3467469"><ele>205.0</ele><time>2026-05-03T06:34:17.994Z</time></trkpt><trkpt lat="43.7445415" lon="11.3468555"><ele>205.0</ele><time>2026-05-03T06:34:18.993Z</time></trkpt><trkpt lat="43.7445249" lon="11.3469586"><ele>205.0</ele><time>2026-05-03T06:34:19.992Z</time></trkpt><trkpt lat="43.7444804" lon="11.3470668"><ele>204.99999999999997</ele><time>2026-05-03T06:34:20.994Z</time></trkpt><trkpt lat="43.7444163" lon="11.3471733"><ele>205.0</ele><time>2026-05-03T06:34:21.994Z</time></trkpt><trkpt lat="43.7443515" lon="11.3472897"><ele>209.75</ele><time>2026-05-03T06:34:22.994Z</time></trkpt><trkpt lat="43.7442852" lon="11.3474106"><ele>214.5</ele><time>2026-05-03T06:34:23.994Z</time></trkpt><trkpt lat="43.7442233" lon="11.3475366"><ele>219.25</ele><time>2026-05-03T06:34:24.993Z</time></trkpt><trkpt lat="43.7441135" lon="11.3477891"><ele>224.0</ele><time>2026-05-03T06:34:26.993Z</time></trkpt><trkpt lat="43.7440625" lon="11.3479173"><ele>224.0</ele><time>2026-05-03T06:34:27.993Z</time></trkpt><trkpt lat="43.7440123" lon="11.3480407"><ele>223.99999999999997</ele><time>2026-05-03T06:34:28.994Z</time></trkpt><trkpt lat="43.7439566" lon="11.3481649"><ele>223.99999999999997</ele><time>2026-05-03T06:34:29.993Z</time></trkpt><trkpt lat="43.7438984" lon="11.3482853"><ele>224.0</ele><time>2026-05-03T06:34:30.993Z</time></trkpt><trkpt lat="43.7438505" lon="11.3484241"><ele>224.0</ele><time>2026-05-03T06:34:31.994Z</time></trkpt><trkpt lat="43.7438189" lon="11.3485708"><ele>224.25</ele><time>2026-05-03T06:34:32.993Z</time></trkpt><trkpt lat="43.7437971" lon="11.3487299"><ele>224.5</ele><time>2026-05-03T06:34:33.993Z</time></trkpt><trkpt lat="43.7437781" lon="11.3488896"><ele>224.75</ele><time>2026-05-03T06:34:34.994Z</time></trkpt><trkpt lat="43.7437765" lon="11.3490625"><ele>225.0</ele><time>2026-05-03T06:34:35.992Z</time></trkpt><trkpt lat="43.7437951" lon="11.3492727"><ele>225.25</ele><time>2026-05-03T06:34:36.994Z</time></trkpt><trkpt lat="43.7438341" lon="11.3494737"><ele>225.5</ele><time>2026-05-03T06:34:37.994Z</time></trkpt><trkpt lat="43.743886" lon="11.3496643"><ele>225.75</ele><time>2026-05-03T06:34:38.993Z</time></trkpt><trkpt lat="43.7439389" lon="11.349841"><ele>226.0</ele><time>2026-05-03T06:34:39.993Z</time></trkpt><trkpt lat="43.7439972" lon="11.3500025"><ele>226.0</ele><time>2026-05-03T06:34:40.994Z</time></trkpt><trkpt lat="43.7440739" lon="11.3501386"><ele>226.00000000000003</ele><time>2026-05-03T06:34:41.994Z</time></trkpt><trkpt lat="43.7441584" lon="11.3502436"><ele>226.00000000000003</ele><time>2026-05-03T06:34:42.994Z</time></trkpt><trkpt lat="43.7442305" lon="11.3503384"><ele>226.0</ele><time>2026-05-03T06:34:43.993Z</time></trkpt><trkpt lat="43.7442937" lon="11.3504359"><ele>226.0</ele><time>2026-05-03T06:34:44.994Z</time></trkpt><trkpt lat="43.7443322" lon="11.3505501"><ele>226.0</ele><time>2026-05-03T06:34:45.993Z</time></trkpt><trkpt lat="43.7443592" lon="11.3506737"><ele>226.00000000000003</ele><time>2026-05-03T06:34:46.994Z</time></trkpt><trkpt lat="43.7443827" lon="11.3507995"><ele>226.00000000000003</ele><time>2026-05-03T06:34:47.994Z</time></trkpt><trkpt lat="43.7443865" lon="11.3509227"><ele>226.0</ele><time>2026-05-03T06:34:48.993Z</time></trkpt><trkpt lat="43.7443701" lon="11.3510546"><ele>226.0</ele><time>2026-05-03T06:34:49.993Z</time></trkpt><trkpt lat="43.7443479" lon="11.3511876"><ele>228.0</ele><time>2026-05-03T06:34:50.994Z</time></trkpt><trkpt lat="43.744316" lon="11.351317"><ele>230.00000000000003</ele><time>2026-05-03T06:34:51.994Z</time></trkpt><trkpt lat="43.7442686" lon="11.3514301"><ele>232.00000000000003</ele><time>2026-05-03T06:34:52.994Z</time></trkpt><trkpt lat="43.7441974" lon="11.3515105"><ele>234.0</ele><time>2026-05-03T06:34:53.993Z</time></trkpt><trkpt lat="43.7441092" lon="11.3515596"><ele>236.0</ele><time>2026-05-03T06:34:54.994Z</time></trkpt><trkpt lat="43.7440168" lon="11.3516172"><ele>238.0</ele><time>2026-05-03T06:34:55.992Z</time></trkpt><trkpt lat="43.74393" lon="11.351704"><ele>240.00000000000003</ele><time>2026-05-03T06:34:56.994Z</time></trkpt><trkpt lat="43.7438412" lon="11.3517959"><ele>242.00000000000003</ele><time>2026-05-03T06:34:57.994Z</time></trkpt><trkpt lat="43.7437622" lon="11.3519062"><ele>244.0</ele><time>2026-05-03T06:34:58.993Z</time></trkpt><trkpt lat="43.7437082" lon="11.3520341"><ele>246.0</ele><time>2026-05-03T06:34:59.994Z</time></trkpt><trkpt lat="43.7436215" lon="11.3523164"><ele>247.20000000000002</ele><time>2026-05-03T06:35:01.993Z</time></trkpt><trkpt lat="43.7435877" lon="11.3524489"><ele>248.40000000000003</ele><time>2026-05-03T06:35:02.994Z</time></trkpt><trkpt lat="43.7435528" lon="11.3525755"><ele>249.6</ele><time>2026-05-03T06:35:03.993Z</time></trkpt><trkpt lat="43.7435138" lon="11.3527041"><ele>250.8</ele><time>2026-05-03T06:35:04.994Z</time></trkpt><trkpt lat="43.7434688" lon="11.3528242"><ele>252.0</ele><time>2026-05-03T06:35:05.994Z</time></trkpt><trkpt lat="43.7434084" lon="11.3529205"><ele>254.2</ele><time>2026-05-03T06:35:06.994Z</time></trkpt><trkpt lat="43.7433407" lon="11.3530175"><ele>256.4</ele><time>2026-05-03T06:35:07.994Z</time></trkpt><trkpt lat="43.7432576" lon="11.3531377"><ele>258.6</ele><time>2026-05-03T06:35:08.994Z</time></trkpt><trkpt lat="43.7431788" lon="11.3532467"><ele>260.8</ele><time>2026-05-03T06:35:09.994Z</time></trkpt><trkpt lat="43.7431141" lon="11.3533546"><ele>263.0</ele><time>2026-05-03T06:35:10.993Z</time></trkpt><trkpt lat="43.7430783" lon="11.3534655"><ele>265.5</ele><time>2026-05-03T06:35:11.994Z</time></trkpt><trkpt lat="43.7430723" lon="11.3535803"><ele>268.0</ele><time>2026-05-03T06:35:12.993Z</time></trkpt><trkpt lat="43.7430893" lon="11.3537016"><ele>270.5</ele><time>2026-05-03T06:35:13.993Z</time></trkpt><trkpt lat="43.7431625" lon="11.3539602"><ele>273.0</ele><time>2026-05-03T06:35:15.994Z</time></trkpt><trkpt lat="43.7432621" lon="11.3542233"><ele>276.0</ele><time>2026-05-03T06:35:17.993Z</time></trkpt><trkpt lat="43.7433307" lon="11.3543537"><ele>279.0</ele><time>2026-05-03T06:35:18.994Z</time></trkpt><trkpt lat="43.7433998" lon="11.3544914"><ele>282.0</ele><time>2026-05-03T06:35:19.994Z</time></trkpt><trkpt lat="43.7434675" lon="11.3546333"><ele>285.0</ele><time>2026-05-03T06:35:20.993Z</time></trkpt><trkpt lat="43.7435288" lon="11.3547785"><ele>282.5</ele><time>2026-05-03T06:35:21.993Z</time></trkpt><trkpt lat="43.7435811" lon="11.3549267"><ele>280.0</ele><time>2026-05-03T06:35:22.994Z</time></trkpt><trkpt lat="43.7436292" lon="11.3550721"><ele>277.5</ele><time>2026-05-03T06:35:23.994Z</time></trkpt><trkpt lat="43.7436706" lon="11.3552156"><ele>275.0</ele><time>2026-05-03T06:35:24.993Z</time></trkpt><trkpt lat="43.7437051" lon="11.3553624"><ele>275.0</ele><time>2026-05-03T06:35:25.994Z</time></trkpt><trkpt lat="43.7437356" lon="11.3555052"><ele>275.0</ele><time>2026-05-03T06:35:26.994Z</time></trkpt><trkpt lat="43.7437625" lon="11.3556502"><ele>275.0</ele><time>2026-05-03T06:35:27.994Z</time></trkpt><trkpt lat="43.7437814" lon="11.3557936"><ele>275.0</ele><time>2026-05-03T06:35:28.993Z</time></trkpt><trkpt lat="43.7437991" lon="11.3559324"><ele>275.0</ele><time>2026-05-03T06:35:29.994Z</time></trkpt><trkpt lat="43.7438362" lon="11.3562287"><ele>281.25</ele><time>2026-05-03T06:35:31.993Z</time></trkpt><trkpt lat="43.743863" lon="11.3563779"><ele>287.5</ele><time>2026-05-03T06:35:32.994Z</time></trkpt><trkpt lat="43.7439102" lon="11.3565222"><ele>293.75</ele><time>2026-05-03T06:35:33.994Z</time></trkpt><trkpt lat="43.7439504" lon="11.356669"><ele>300.0</ele><time>2026-05-03T06:35:34.994Z</time></trkpt><trkpt lat="43.7440086" lon="11.3568057"><ele>300.0</ele><time>2026-05-03T06:35:35.994Z</time></trkpt><trkpt lat="43.744052" lon="11.3569328"><ele>300.0</ele><time>2026-05-03T06:35:36.994Z</time></trkpt><trkpt lat="43.7440815" lon="11.3570609"><ele>300.0</ele><time>2026-05-03T06:35:37.994Z</time></trkpt><trkpt lat="43.7441" lon="11.3572007"><ele>300.0</ele><time>2026-05-03T06:35:38.994Z</time></trkpt><trkpt lat="43.7441182" lon="11.3573542"><ele>300.0</ele><time>2026-05-03T06:35:39.994Z</time></trkpt><trkpt lat="43.7441396" lon="11.3575121"><ele>302.0</ele><time>2026-05-03T06:35:40.993Z</time></trkpt><trkpt lat="43.7441683" lon="11.3576747"><ele>304.0</ele><time>2026-05-03T06:35:41.994Z</time></trkpt><trkpt lat="43.7442065" lon="11.3578308"><ele>306.0</ele><time>2026-05-03T06:35:42.993Z</time></trkpt><trkpt lat="43.7442283" lon="11.3579704"><ele>308.0</ele><time>2026-05-03T06:35:43.993Z</time></trkpt><trkpt lat="43.7442353" lon="11.3581064"><ele>310.0</ele><time>2026-05-03T06:35:44.994Z</time></trkpt><trkpt lat="43.7442181" lon="11.35824"><ele>310.0</ele><time>2026-05-03T06:35:45.993Z</time></trkpt><trkpt lat="43.7442055" lon="11.3583841"><ele>310.0</ele><time>2026-05-03T06:35:46.992Z</time></trkpt><trkpt lat="43.7441928" lon="11.3585379"><ele>310.0</ele><time>2026-05-03T06:35:47.993Z</time></trkpt><trkpt lat="43.7441825" lon="11.3586983"><ele>310.0</ele><time>2026-05-03T06:35:48.993Z</time></trkpt><trkpt lat="43.7441733" lon="11.3588629"><ele>309.75</ele><time>2026-05-03T06:35:49.993Z</time></trkpt><trkpt lat="43.7441603" lon="11.3590296"><ele>309.5</ele><time>2026-05-03T06:35:50.993Z</time></trkpt><trkpt lat="43.7441385" lon="11.3592005"><ele>309.25</ele><time>2026-05-03T06:35:51.994Z</time></trkpt><trkpt lat="43.7441116" lon="11.3593598"><ele>309.0</ele><time>2026-05-03T06:35:52.993Z</time></trkpt><trkpt lat="43.7440874" lon="11.35954"><ele>308.3333333333333</ele><time>2026-05-03T06:35:53.994Z</time></trkpt><trkpt lat="43.7440617" lon="11.3597273"><ele>307.66666666666663</ele><time>2026-05-03T06:35:54.994Z</time></trkpt><trkpt lat="43.7440716" lon="11.3599713"><ele>307.0</ele><time>2026-05-03T06:35:55.993Z</time></trkpt><trkpt lat="43.7440795" lon="11.3601876"><ele>307.0</ele><time>2026-05-03T06:35:56.994Z</time></trkpt><trkpt lat="43.7440917" lon="11.3604138"><ele>307.0</ele><time>2026-05-03T06:35:57.994Z</time></trkpt><trkpt lat="43.7441042" lon="11.3606212"><ele>307.0</ele><time>2026-05-03T06:35:58.994Z</time></trkpt><trkpt lat="43.7441191" lon="11.3608061"><ele>307.0</ele><time>2026-05-03T06:35:59.993Z</time></trkpt><trkpt lat="43.7441392" lon="11.3609755"><ele>308.25</ele><time>2026-05-03T06:36:00.994Z</time></trkpt><trkpt lat="43.744162" lon="11.3611362"><ele>309.5</ele><time>2026-05-03T06:36:01.994Z</time></trkpt><trkpt lat="43.7441859" lon="11.3613022"><ele>310.75</ele><time>2026-05-03T06:36:02.993Z</time></trkpt><trkpt lat="43.7442151" lon="11.3614741"><ele>312.0</ele><time>2026-05-03T06:36:03.994Z</time></trkpt><trkpt lat="43.7442459" lon="11.3616488"><ele>314.25</ele><time>2026-05-03T06:36:04.994Z</time></trkpt><trkpt lat="43.7442646" lon="11.3618193"><ele>316.5</ele><time>2026-05-03T06:36:05.994Z</time></trkpt><trkpt lat="43.7442577" lon="11.3619894"><ele>318.75</ele><time>2026-05-03T06:36:06.994Z</time></trkpt><trkpt lat="43.7442441" lon="11.3621618"><ele>321.0</ele><time>2026-05-03T06:36:07.994Z</time></trkpt><trkpt lat="43.7442336" lon="11.3623255"><ele>321.8</ele><time>2026-05-03T06:36:08.993Z</time></trkpt><trkpt lat="43.7442138" lon="11.3624697"><ele>322.6</ele><time>2026-05-03T06:36:09.993Z</time></trkpt><trkpt lat="43.744172" lon="11.3625819"><ele>323.4</ele><time>2026-05-03T06:36:10.994Z</time></trkpt><trkpt lat="43.7441155" lon="11.3626986"><ele>324.2</ele><time>2026-05-03T06:36:11.993Z</time></trkpt><trkpt lat="43.7440518" lon="11.3628156"><ele>325.0</ele><time>2026-05-03T06:36:12.994Z</time></trkpt><trkpt lat="43.743937" lon="11.3629065"><ele>325.0</ele><time>2026-05-03T06:36:13.994Z</time></trkpt><trkpt lat="43.7438646" lon="11.3630284"><ele>325.0</ele><time>2026-05-03T06:36:14.992Z</time></trkpt><trkpt lat="43.7438147" lon="11.3631392"><ele>325.0</ele><time>2026-05-03T06:36:15.994Z</time></trkpt><trkpt lat="43.7437662" lon="11.3632202"><ele>325.0</ele><time>2026-05-03T06:36:16.993Z</time></trkpt><trkpt lat="43.7437937" lon="11.3633011"><ele>325.0</ele><time>2026-05-03T06:36:17.994Z</time></trkpt><trkpt lat="43.7439394" lon="11.3634115"><ele>325.0</ele><time>2026-05-03T06:36:18.993Z</time></trkpt><trkpt lat="43.7439724" lon="11.3634905"><ele>325.0</ele><time>2026-05-03T06:36:19.992Z</time></trkpt><trkpt lat="43.7439966" lon="11.3636179"><ele>325.0</ele><time>2026-05-03T06:36:20.994Z</time></trkpt><trkpt lat="43.7440327" lon="11.3637544"><ele>325.0</ele><time>2026-05-03T06:36:21.993Z</time></trkpt><trkpt lat="43.7440635" lon="11.3638917"><ele>325.0</ele><time>2026-05-03T06:36:22.993Z</time></trkpt><trkpt lat="43.7439686" lon="11.3641156"><ele>324.75</ele><time>2026-05-03T06:36:23.994Z</time></trkpt><trkpt lat="43.7439434" lon="11.364294"><ele>324.5</ele><time>2026-05-03T06:36:24.994Z</time></trkpt><trkpt lat="43.7439043" lon="11.3644898"><ele>324.25</ele><time>2026-05-03T06:36:25.993Z</time></trkpt><trkpt lat="43.7438693" lon="11.3646479"><ele>324.0</ele><time>2026-05-03T06:36:26.993Z</time></trkpt><trkpt lat="43.7438338" lon="11.3647876"><ele>324.4</ele><time>2026-05-03T06:36:27.994Z</time></trkpt><trkpt lat="43.7438069" lon="11.364943"><ele>324.79999999999995</ele><time>2026-05-03T06:36:28.994Z</time></trkpt><trkpt lat="43.7437826" lon="11.36508"><ele>325.20000000000005</ele><time>2026-05-03T06:36:29.994Z</time></trkpt><trkpt lat="43.7437583" lon="11.3652301"><ele>325.6</ele><time>2026-05-03T06:36:30.994Z</time></trkpt><trkpt lat="43.7437273" lon="11.3653642"><ele>326.0</ele><time>2026-05-03T06:36:31.994Z</time></trkpt><trkpt lat="43.7437013" lon="11.3655067"><ele>325.20000000000005</ele><time>2026-05-03T06:36:32.993Z</time></trkpt><trkpt lat="43.743648" lon="11.365623"><ele>324.40000000000003</ele><time>2026-05-03T06:36:33.994Z</time></trkpt><trkpt lat="43.7435884" lon="11.3657142"><ele>323.6</ele><time>2026-05-03T06:36:34.994Z</time></trkpt><trkpt lat="43.7435259" lon="11.3658204"><ele>322.8</ele><time>2026-05-03T06:36:35.994Z</time></trkpt><trkpt lat="43.7434147" lon="11.3658875"><ele>322.0</ele><time>2026-05-03T06:36:36.993Z</time></trkpt><trkpt lat="43.7433107" lon="11.3659656"><ele>327.75</ele><time>2026-05-03T06:36:37.993Z</time></trkpt><trkpt lat="43.7432059" lon="11.3660251"><ele>333.5</ele><time>2026-05-03T06:36:38.993Z</time></trkpt><trkpt lat="43.7430985" lon="11.3660789"><ele>339.25</ele><time>2026-05-03T06:36:39.994Z</time></trkpt><trkpt lat="43.7429857" lon="11.3661497"><ele>345.0</ele><time>2026-05-03T06:36:40.993Z</time></trkpt><trkpt lat="43.7428819" lon="11.3662491"><ele>348.75</ele><time>2026-05-03T06:36:41.993Z</time></trkpt><trkpt lat="43.7427882" lon="11.3663793"><ele>352.5</ele><time>2026-05-03T06:36:42.994Z</time></trkpt><trkpt lat="43.7427081" lon="11.3665371"><ele>356.25</ele><time>2026-05-03T06:36:43.994Z</time></trkpt><trkpt lat="43.7426438" lon="11.3667125"><ele>360.0</ele><time>2026-05-03T06:36:44.994Z</time></trkpt><trkpt lat="43.7426022" lon="11.3668915"><ele>360.0</ele><time>2026-05-03T06:36:45.994Z</time></trkpt><trkpt lat="43.7425842" lon="11.367061"><ele>360.0</ele><time>2026-05-03T06:36:46.993Z</time></trkpt><trkpt lat="43.7425863" lon="11.3672399"><ele>360.0</ele><time>2026-05-03T06:36:47.993Z</time></trkpt><trkpt lat="43.7426101" lon="11.3674229"><ele>360.0</ele><time>2026-05-03T06:36:48.994Z</time></trkpt><trkpt lat="43.7426645" lon="11.3676062"><ele>354.5</ele><time>2026-05-03T06:36:49.993Z</time></trkpt><trkpt lat="43.7427373" lon="11.367777"><ele>349.0</ele><time>2026-05-03T06:36:50.994Z</time></trkpt><trkpt lat="43.7428195" lon="11.3679388"><ele>343.5</ele><time>2026-05-03T06:36:51.994Z</time></trkpt><trkpt lat="43.7428975" lon="11.3680962"><ele>338.0</ele><time>2026-05-03T06:36:52.994Z</time></trkpt><trkpt lat="43.7429758" lon="11.368259"><ele>338.0</ele><time>2026-05-03T06:36:53.994Z</time></trkpt><trkpt lat="43.7430521" lon="11.3684264"><ele>338.0</ele><time>2026-05-03T06:36:54.993Z</time></trkpt><trkpt lat="43.743127" lon="11.3685909"><ele>338.0</ele><time>2026-05-03T06:36:55.993Z</time></trkpt><trkpt lat="43.743203" lon="11.3687474"><ele>338.0</ele><time>2026-05-03T06:36:56.992Z</time></trkpt><trkpt lat="43.7432748" lon="11.3689003"><ele>340.75</ele><time>2026-05-03T06:36:57.994Z</time></trkpt><trkpt lat="43.7433376" lon="11.3690353"><ele>343.5</ele><time>2026-05-03T06:36:58.994Z</time></trkpt><trkpt lat="43.7433879" lon="11.3691689"><ele>346.25</ele><time>2026-05-03T06:36:59.994Z</time></trkpt><trkpt lat="43.7434238" lon="11.3693223"><ele>349.0</ele><time>2026-05-03T06:37:00.993Z</time></trkpt><trkpt lat="43.7434646" lon="11.369484"><ele>349.0</ele><time>2026-05-03T06:37:01.994Z</time></trkpt><trkpt lat="43.7435399" lon="11.3696486"><ele>349.0</ele><time>2026-05-03T06:37:02.993Z</time></trkpt><trkpt lat="43.7436" lon="11.3697864"><ele>349.0</ele><time>2026-05-03T06:37:03.993Z</time></trkpt><trkpt lat="43.7436406" lon="11.3699261"><ele>349.0</ele><time>2026-05-03T06:37:04.994Z</time></trkpt><trkpt lat="43.7436654" lon="11.3700749"><ele>345.0</ele><time>2026-05-03T06:37:05.994Z</time></trkpt><trkpt lat="43.7436563" lon="11.3702296"><ele>341.0</ele><time>2026-05-03T06:37:06.993Z</time></trkpt><trkpt lat="43.7436501" lon="11.3703933"><ele>337.0</ele><time>2026-05-03T06:37:07.993Z</time></trkpt><trkpt lat="43.7436402" lon="11.3705438"><ele>333.0</ele><time>2026-05-03T06:37:08.994Z</time></trkpt><trkpt lat="43.7436278" lon="11.3706938"><ele>329.0</ele><time>2026-05-03T06:37:09.993Z</time></trkpt><trkpt lat="43.7435768" lon="11.3708999"><ele>333.0</ele><time>2026-05-03T06:37:10.993Z</time></trkpt><trkpt lat="43.7435422" lon="11.3711015"><ele>337.0</ele><time>2026-05-03T06:37:11.994Z</time></trkpt><trkpt lat="43.7434797" lon="11.371274"><ele>341.0</ele><time>2026-05-03T06:37:12.994Z</time></trkpt><trkpt lat="43.7434297" lon="11.3714583"><ele>345.0</ele><time>2026-05-03T06:37:13.993Z</time></trkpt><trkpt lat="43.7433817" lon="11.3716742"><ele>345.0</ele><time>2026-05-03T06:37:14.994Z</time></trkpt><trkpt lat="43.7433465" lon="11.3718735"><ele>345.0</ele><time>2026-05-03T06:37:15.993Z</time></trkpt><trkpt lat="43.7433128" lon="11.3720678"><ele>345.0</ele><time>2026-05-03T06:37:16.993Z</time></trkpt><trkpt lat="43.7432763" lon="11.3722445"><ele>345.0</ele><time>2026-05-03T06:37:17.994Z</time></trkpt><trkpt lat="43.7432308" lon="11.3724018"><ele>344.5</ele><time>2026-05-03T06:37:18.994Z</time></trkpt><trkpt lat="43.7431826" lon="11.3725697"><ele>344.0</ele><time>2026-05-03T06:37:19.994Z</time></trkpt><trkpt lat="43.7431536" lon="11.372747"><ele>343.5</ele><time>2026-05-03T06:37:20.994Z</time></trkpt><trkpt lat="43.7431381" lon="11.3729216"><ele>343.0</ele><time>2026-05-03T06:37:21.993Z</time></trkpt><trkpt lat="43.7431404" lon="11.3730927"><ele>343.0</ele><time>2026-05-03T06:37:22.994Z</time></trkpt><trkpt lat="43.743143" lon="11.3732566"><ele>343.0</ele><time>2026-05-03T06:37:23.994Z</time></trkpt><trkpt lat="43.7431303" lon="11.3734151"><ele>343.0</ele><time>2026-05-03T06:37:24.994Z</time></trkpt><trkpt lat="43.7430995" lon="11.3735645"><ele>343.0</ele><time>2026-05-03T06:37:25.994Z</time></trkpt><trkpt lat="43.7430631" lon="11.373688"><ele>343.0</ele><time>2026-05-03T06:37:26.994Z</time></trkpt><trkpt lat="43.7430336" lon="11.373804"><ele>344.66666666666663</ele><time>2026-05-03T06:37:27.994Z</time></trkpt><trkpt lat="43.7430268" lon="11.3739315"><ele>346.3333333333333</ele><time>2026-05-03T06:37:28.994Z</time></trkpt><trkpt lat="43.7430357" lon="11.3740582"><ele>348.0</ele><time>2026-05-03T06:37:29.993Z</time></trkpt><trkpt lat="43.743049" lon="11.3741802"><ele>349.6666666666667</ele><time>2026-05-03T06:37:30.994Z</time></trkpt><trkpt lat="43.7430811" lon="11.374293"><ele>351.33333333333337</ele><time>2026-05-03T06:37:31.993Z</time></trkpt><trkpt lat="43.7431221" lon="11.3743938"><ele>353.0</ele><time>2026-05-03T06:37:32.994Z</time></trkpt><trkpt lat="43.7431653" lon="11.3744888"><ele>353.0</ele><time>2026-05-03T06:37:33.993Z</time></trkpt><trkpt lat="43.7432177" lon="11.3745654"><ele>353.0</ele><time>2026-05-03T06:37:34.994Z</time></trkpt><trkpt lat="43.7432862" lon="11.3746458"><ele>353.0</ele><time>2026-05-03T06:37:35.994Z</time></trkpt><trkpt lat="43.7433718" lon="11.3747156"><ele>353.0</ele><time>2026-05-03T06:37:36.994Z</time></trkpt><trkpt lat="43.7434692" lon="11.3748028"><ele>353.0</ele><time>2026-05-03T06:37:37.994Z</time></trkpt><trkpt lat="43.7435687" lon="11.3748871"><ele>351.6666666666667</ele><time>2026-05-03T06:37:38.994Z</time></trkpt><trkpt lat="43.7436578" lon="11.3749663"><ele>350.33333333333337</ele><time>2026-05-03T06:37:39.994Z</time></trkpt><trkpt lat="43.7437362" lon="11.3750445"><ele>349.0</ele><time>2026-05-03T06:37:40.994Z</time></trkpt><trkpt lat="43.7437895" lon="11.3751363"><ele>347.6666666666667</ele><time>2026-05-03T06:37:41.994Z</time></trkpt><trkpt lat="43.7438154" lon="11.3752354"><ele>346.3333333333333</ele><time>2026-05-03T06:37:42.994Z</time></trkpt><trkpt lat="43.7438451" lon="11.3753282"><ele>345.0</ele><time>2026-05-03T06:37:43.994Z</time></trkpt><trkpt lat="43.7439382" lon="11.3753946"><ele>345.0</ele><time>2026-05-03T06:37:45.993Z</time></trkpt><trkpt lat="43.7440036" lon="11.3753599"><ele>345.0</ele><time>2026-05-03T06:37:46.993Z</time></trkpt><trkpt lat="43.7440855" lon="11.3753173"><ele>345.0</ele><time>2026-05-03T06:37:47.994Z</time></trkpt><trkpt lat="43.7441709" lon="11.375302"><ele>345.0</ele><time>2026-05-03T06:37:48.993Z</time></trkpt><trkpt lat="43.7442639" lon="11.375318"><ele>345.0</ele><time>2026-05-03T06:37:49.994Z</time></trkpt><trkpt lat="43.7443671" lon="11.3753385"><ele>345.0</ele><time>2026-05-03T06:37:50.994Z</time></trkpt><trkpt lat="43.7444788" lon="11.3753603"><ele>344.25</ele><time>2026-05-03T06:37:51.992Z</time></trkpt><trkpt lat="43.7445992" lon="11.3753854"><ele>343.5</ele><time>2026-05-03T06:37:52.993Z</time></trkpt><trkpt lat="43.7447183" lon="11.3754073"><ele>342.75</ele><time>2026-05-03T06:37:53.994Z</time></trkpt><trkpt lat="43.7448212" lon="11.3754326"><ele>342.0</ele><time>2026-05-03T06:37:54.993Z</time></trkpt><trkpt lat="43.7449254" lon="11.3754656"><ele>344.40000000000003</ele><time>2026-05-03T06:37:55.993Z</time></trkpt><trkpt lat="43.7450072" lon="11.3755232"><ele>346.8</ele><time>2026-05-03T06:37:56.994Z</time></trkpt><trkpt lat="43.7450745" lon="11.3755979"><ele>349.2</ele><time>2026-05-03T06:37:57.993Z</time></trkpt><trkpt lat="43.7451259" lon="11.3756969"><ele>351.6</ele><time>2026-05-03T06:37:58.994Z</time></trkpt><trkpt lat="43.7451764" lon="11.3758262"><ele>354.0</ele><time>2026-05-03T06:37:59.994Z</time></trkpt><trkpt lat="43.7452191" lon="11.3759717"><ele>354.5</ele><time>2026-05-03T06:38:00.994Z</time></trkpt><trkpt lat="43.745266" lon="11.3761281"><ele>355.0</ele><time>2026-05-03T06:38:01.993Z</time></trkpt><trkpt lat="43.7453111" lon="11.3762835"><ele>355.5</ele><time>2026-05-03T06:38:02.993Z</time></trkpt><trkpt lat="43.7453563" lon="11.376441"><ele>356.0</ele><time>2026-05-03T06:38:03.993Z</time></trkpt><trkpt lat="43.745398" lon="11.3766039"><ele>357.0</ele><time>2026-05-03T06:38:04.993Z</time></trkpt><trkpt lat="43.7454307" lon="11.3767629"><ele>358.0</ele><time>2026-05-03T06:38:05.994Z</time></trkpt><trkpt lat="43.7454493" lon="11.3769264"><ele>359.0</ele><time>2026-05-03T06:38:06.994Z</time></trkpt><trkpt lat="43.7454721" lon="11.3770861"><ele>360.0</ele><time>2026-05-03T06:38:07.993Z</time></trkpt><trkpt lat="43.7454926" lon="11.3772474"><ele>361.2</ele><time>2026-05-03T06:38:08.993Z</time></trkpt><trkpt lat="43.7455163" lon="11.3773988"><ele>362.4</ele><time>2026-05-03T06:38:09.993Z</time></trkpt><trkpt lat="43.7455386" lon="11.3775442"><ele>363.6</ele><time>2026-05-03T06:38:10.993Z</time></trkpt><trkpt lat="43.7455655" lon="11.3776776"><ele>364.8</ele><time>2026-05-03T06:38:11.994Z</time></trkpt><trkpt lat="43.7456078" lon="11.3777895"><ele>366.0</ele><time>2026-05-03T06:38:12.993Z</time></trkpt><trkpt lat="43.7456626" lon="11.3778749"><ele>366.0</ele><time>2026-05-03T06:38:13.994Z</time></trkpt><trkpt lat="43.7457172" lon="11.3779436"><ele>366.0</ele><time>2026-05-03T06:38:14.993Z</time></trkpt><trkpt lat="43.7457764" lon="11.3779961"><ele>366.0</ele><time>2026-05-03T06:38:15.993Z</time></trkpt><trkpt lat="43.7458862" lon="11.3778724"><ele>366.0</ele><time>2026-05-03T06:38:16.993Z</time></trkpt><trkpt lat="43.7459663" lon="11.377825"><ele>366.0</ele><time>2026-05-03T06:38:17.993Z</time></trkpt><trkpt lat="43.7460361" lon="11.377747"><ele>369.0</ele><time>2026-05-03T06:38:18.994Z</time></trkpt><trkpt lat="43.746112" lon="11.3776681"><ele>372.0</ele><time>2026-05-03T06:38:19.994Z</time></trkpt><trkpt lat="43.7461823" lon="11.3775928"><ele>375.0</ele><time>2026-05-03T06:38:20.994Z</time></trkpt><trkpt lat="43.7462437" lon="11.377553"><ele>378.0</ele><time>2026-05-03T06:38:21.994Z</time></trkpt><trkpt lat="43.746341" lon="11.3775906"><ele>381.0</ele><time>2026-05-03T06:38:23.994Z</time></trkpt><trkpt lat="43.7463918" lon="11.3776443"><ele>384.0</ele><time>2026-05-03T06:38:24.994Z</time></trkpt><trkpt lat="43.7464449" lon="11.3777138"><ele>384.0</ele><time>2026-05-03T06:38:25.993Z</time></trkpt><trkpt lat="43.7465014" lon="11.3777942"><ele>384.0</ele><time>2026-05-03T06:38:26.994Z</time></trkpt><trkpt lat="43.7465335" lon="11.3778901"><ele>384.0</ele><time>2026-05-03T06:38:27.992Z</time></trkpt><trkpt lat="43.746581" lon="11.3781211"><ele>384.0</ele><time>2026-05-03T06:38:29.994Z</time></trkpt><trkpt lat="43.7466153" lon="11.3782513"><ele>384.0</ele><time>2026-05-03T06:38:30.994Z</time></trkpt><trkpt lat="43.7466587" lon="11.3783807"><ele>384.4</ele><time>2026-05-03T06:38:31.994Z</time></trkpt><trkpt lat="43.746715" lon="11.378491"><ele>384.79999999999995</ele><time>2026-05-03T06:38:32.994Z</time></trkpt><trkpt lat="43.7467644" lon="11.3785948"><ele>385.20000000000005</ele><time>2026-05-03T06:38:33.993Z</time></trkpt><trkpt lat="43.7467906" lon="11.3787104"><ele>385.6</ele><time>2026-05-03T06:38:34.994Z</time></trkpt><trkpt lat="43.7468199" lon="11.378838"><ele>386.0</ele><time>2026-05-03T06:38:35.994Z</time></trkpt><trkpt lat="43.7468345" lon="11.3789634"><ele>386.20000000000005</ele><time>2026-05-03T06:38:36.994Z</time></trkpt><trkpt lat="43.7468444" lon="11.3790967"><ele>386.40000000000003</ele><time>2026-05-03T06:38:37.992Z</time></trkpt><trkpt lat="43.746855" lon="11.3792358"><ele>386.6</ele><time>2026-05-03T06:38:38.993Z</time></trkpt><trkpt lat="43.7468631" lon="11.3793794"><ele>386.8</ele><time>2026-05-03T06:38:39.994Z</time></trkpt><trkpt lat="43.7468675" lon="11.379519"><ele>387.0</ele><time>2026-05-03T06:38:40.993Z</time></trkpt><trkpt lat="43.7468737" lon="11.3796545"><ele>392.40000000000003</ele><time>2026-05-03T06:38:41.993Z</time></trkpt><trkpt lat="43.746879" lon="11.3798001"><ele>397.8</ele><time>2026-05-03T06:38:42.994Z</time></trkpt><trkpt lat="43.7468829" lon="11.3799439"><ele>403.2</ele><time>2026-05-03T06:38:43.994Z</time></trkpt><trkpt lat="43.7468901" lon="11.3800936"><ele>408.6</ele><time>2026-05-03T06:38:44.993Z</time></trkpt><trkpt lat="43.7468944" lon="11.3802532"><ele>414.0</ele><time>2026-05-03T06:38:45.994Z</time></trkpt><trkpt lat="43.7469052" lon="11.3804185"><ele>414.0</ele><time>2026-05-03T06:38:46.994Z</time></trkpt><trkpt lat="43.7469187" lon="11.3805909"><ele>414.0</ele><time>2026-05-03T06:38:47.994Z</time></trkpt><trkpt lat="43.7469402" lon="11.3807621"><ele>414.0</ele><time>2026-05-03T06:38:48.994Z</time></trkpt><trkpt lat="43.7469685" lon="11.3809287"><ele>414.0</ele><time>2026-05-03T06:38:49.994Z</time></trkpt><trkpt lat="43.7470161" lon="11.3811078"><ele>414.33333333333337</ele><time>2026-05-03T06:38:50.994Z</time></trkpt><trkpt lat="43.7470939" lon="11.3813518"><ele>414.6666666666667</ele><time>2026-05-03T06:38:51.994Z</time></trkpt><trkpt lat="43.7471384" lon="11.3815302"><ele>415.0</ele><time>2026-05-03T06:38:52.994Z</time></trkpt><trkpt lat="43.7471699" lon="11.3817002"><ele>415.0</ele><time>2026-05-03T06:38:53.994Z</time></trkpt><trkpt lat="43.7472044" lon="11.3818635"><ele>415.0</ele><time>2026-05-03T06:38:54.994Z</time></trkpt><trkpt lat="43.7472264" lon="11.3820229"><ele>415.0</ele><time>2026-05-03T06:38:55.993Z</time></trkpt><trkpt lat="43.7472384" lon="11.3821833"><ele>415.0</ele><time>2026-05-03T06:38:56.993Z</time></trkpt><trkpt lat="43.7472579" lon="11.3823406"><ele>415.75</ele><time>2026-05-03T06:38:57.994Z</time></trkpt><trkpt lat="43.7472742" lon="11.3824954"><ele>416.5</ele><time>2026-05-03T06:38:58.993Z</time></trkpt><trkpt lat="43.747307" lon="11.3826621"><ele>417.25</ele><time>2026-05-03T06:38:59.994Z</time></trkpt><trkpt lat="43.7473304" lon="11.3828173"><ele>418.0</ele><time>2026-05-03T06:39:00.993Z</time></trkpt><trkpt lat="43.747351" lon="11.3829566"><ele>418.75</ele><time>2026-05-03T06:39:01.994Z</time></trkpt><trkpt lat="43.7473673" lon="11.3831171"><ele>419.5</ele><time>2026-05-03T06:39:02.994Z</time></trkpt><trkpt lat="43.7473646" lon="11.3832754"><ele>420.25</ele><time>2026-05-03T06:39:03.994Z</time></trkpt><trkpt lat="43.7473715" lon="11.3834243"><ele>421.0</ele><time>2026-05-03T06:39:04.993Z</time></trkpt><trkpt lat="43.7473682" lon="11.3835785"><ele>421.0</ele><time>2026-05-03T06:39:05.994Z</time></trkpt><trkpt lat="43.7474185" lon="11.3837204"><ele>421.0</ele><time>2026-05-03T06:39:06.994Z</time></trkpt><trkpt lat="43.747403" lon="11.3838538"><ele>421.0</ele><time>2026-05-03T06:39:07.994Z</time></trkpt><trkpt lat="43.7474028" lon="11.383977"><ele>421.0</ele><time>2026-05-03T06:39:08.994Z</time></trkpt><trkpt lat="43.7474097" lon="11.3840856"><ele>421.0</ele><time>2026-05-03T06:39:09.994Z</time></trkpt><trkpt lat="43.7474062" lon="11.3841947"><ele>421.0</ele><time>2026-05-03T06:39:10.992Z</time></trkpt><trkpt lat="43.7474105" lon="11.3842892"><ele>421.0</ele><time>2026-05-03T06:39:11.994Z</time></trkpt><trkpt lat="43.7474669" lon="11.3844812"><ele>421.0</ele><time>2026-05-03T06:39:13.993Z</time></trkpt><trkpt lat="43.7475219" lon="11.3845836"><ele>421.0</ele><time>2026-05-03T06:39:14.994Z</time></trkpt><trkpt lat="43.7475777" lon="11.3846853"><ele>421.0</ele><time>2026-05-03T06:39:15.994Z</time></trkpt><trkpt lat="43.7476557" lon="11.384739"><ele>424.0</ele><time>2026-05-03T06:39:16.994Z</time></trkpt><trkpt lat="43.7477359" lon="11.3848207"><ele>427.0</ele><time>2026-05-03T06:39:17.993Z</time></trkpt><trkpt lat="43.7478483" lon="11.3849301"><ele>430.0</ele><time>2026-05-03T06:39:18.993Z</time></trkpt><trkpt lat="43.7479643" lon="11.3850014"><ele>433.0</ele><time>2026-05-03T06:39:19.993Z</time></trkpt><trkpt lat="43.7480701" lon="11.3850664"><ele>433.0</ele><time>2026-05-03T06:39:20.992Z</time></trkpt><trkpt lat="43.7481747" lon="11.3851283"><ele>433.0</ele><time>2026-05-03T06:39:21.993Z</time></trkpt><trkpt lat="43.7482774" lon="11.3851819"><ele>433.0</ele><time>2026-05-03T06:39:22.994Z</time></trkpt><trkpt lat="43.7484015" lon="11.3852452"><ele>433.0</ele><time>2026-05-03T06:39:23.993Z</time></trkpt><trkpt lat="43.7485183" lon="11.3853212"><ele>432.2</ele><time>2026-05-03T06:39:24.992Z</time></trkpt><trkpt lat="43.7486109" lon="11.3853962"><ele>431.4</ele><time>2026-05-03T06:39:25.994Z</time></trkpt><trkpt lat="43.748698" lon="11.3854538"><ele>430.59999999999997</ele><time>2026-05-03T06:39:26.994Z</time></trkpt><trkpt lat="43.7487887" lon="11.385507"><ele>429.79999999999995</ele><time>2026-05-03T06:39:27.994Z</time></trkpt><trkpt lat="43.7488807" lon="11.3855158"><ele>429.0</ele><time>2026-05-03T06:39:28.994Z</time></trkpt><trkpt lat="43.7489617" lon="11.3855169"><ele>432.75</ele><time>2026-05-03T06:39:29.993Z</time></trkpt><trkpt lat="43.7490821" lon="11.3855113"><ele>436.5</ele><time>2026-05-03T06:39:30.994Z</time></trkpt><trkpt lat="43.7491998" lon="11.3854945"><ele>440.25</ele><time>2026-05-03T06:39:31.993Z</time></trkpt><trkpt lat="43.7493213" lon="11.3854588"><ele>444.0</ele><time>2026-05-03T06:39:32.994Z</time></trkpt><trkpt lat="43.749449" lon="11.3854264"><ele>444.0</ele><time>2026-05-03T06:39:33.993Z</time></trkpt><trkpt lat="43.7495753" lon="11.3854015"><ele>444.0</ele><time>2026-05-03T06:39:34.993Z</time></trkpt><trkpt lat="43.74969" lon="11.3853848"><ele>444.0</ele><time>2026-05-03T06:39:35.994Z</time></trkpt><trkpt lat="43.74978" lon="11.3853594"><ele>444.0</ele><time>2026-05-03T06:39:36.994Z</time></trkpt><trkpt lat="43.749866" lon="11.3853122"><ele>444.0</ele><time>2026-05-03T06:39:37.994Z</time></trkpt><trkpt lat="43.7499441" lon="11.3852399"><ele>444.0</ele><time>2026-05-03T06:39:38.994Z</time></trkpt><trkpt lat="43.7500244" lon="11.3851243"><ele>444.0</ele><time>2026-05-03T06:39:39.994Z</time></trkpt><trkpt lat="43.7501103" lon="11.3850026"><ele>444.0</ele><time>2026-05-03T06:39:40.993Z</time></trkpt><trkpt lat="43.7502052" lon="11.384896"><ele>444.0</ele><time>2026-05-03T06:39:41.993Z</time></trkpt><trkpt lat="43.7503062" lon="11.3848003"><ele>442.0</ele><time>2026-05-03T06:39:42.992Z</time></trkpt><trkpt lat="43.7504077" lon="11.3847337"><ele>440.0</ele><time>2026-05-03T06:39:43.994Z</time></trkpt><trkpt lat="43.7505087" lon="11.3846817"><ele>438.0</ele><time>2026-05-03T06:39:44.993Z</time></trkpt><trkpt lat="43.7506136" lon="11.3846131"><ele>436.0</ele><time>2026-05-03T06:39:45.994Z</time></trkpt><trkpt lat="43.7507136" lon="11.3845336"><ele>439.75</ele><time>2026-05-03T06:39:46.993Z</time></trkpt><trkpt lat="43.7508146" lon="11.3844358"><ele>443.5</ele><time>2026-05-03T06:39:47.994Z</time></trkpt><trkpt lat="43.7509129" lon="11.3843437"><ele>447.25</ele><time>2026-05-03T06:39:48.994Z</time></trkpt><trkpt lat="43.751017" lon="11.3842789"><ele>451.0</ele><time>2026-05-03T06:39:49.994Z</time></trkpt><trkpt lat="43.751124" lon="11.3842234"><ele>451.0</ele><time>2026-05-03T06:39:50.994Z</time></trkpt><trkpt lat="43.7512369" lon="11.3841926"><ele>451.0</ele><time>2026-05-03T06:39:51.994Z</time></trkpt><trkpt lat="43.751371" lon="11.3841683"><ele>451.0</ele><time>2026-05-03T06:39:52.993Z</time></trkpt><trkpt lat="43.7514869" lon="11.3841451"><ele>451.0</ele><time>2026-05-03T06:39:53.992Z</time></trkpt><trkpt lat="43.7515965" lon="11.3841108"><ele>451.0</ele><time>2026-05-03T06:39:54.993Z</time></trkpt><trkpt lat="43.7517036" lon="11.3840651"><ele>451.0</ele><time>2026-05-03T06:39:55.993Z</time></trkpt><trkpt lat="43.7518118" lon="11.3839879"><ele>451.0</ele><time>2026-05-03T06:39:56.994Z</time></trkpt><trkpt lat="43.7519246" lon="11.3839086"><ele>451.0</ele><time>2026-05-03T06:39:57.993Z</time></trkpt><trkpt lat="43.7520432" lon="11.38384"><ele>454.0</ele><time>2026-05-03T06:39:58.993Z</time></trkpt><trkpt lat="43.7521568" lon="11.3837867"><ele>457.0</ele><time>2026-05-03T06:39:59.993Z</time></trkpt><trkpt lat="43.7522649" lon="11.3837524"><ele>460.0</ele><time>2026-05-03T06:40:00.994Z</time></trkpt><trkpt lat="43.7523771" lon="11.3837186"><ele>463.0</ele><time>2026-05-03T06:40:01.994Z</time></trkpt><trkpt lat="43.7524905" lon="11.3836892"><ele>463.0</ele><time>2026-05-03T06:40:02.994Z</time></trkpt><trkpt lat="43.7525977" lon="11.3836675"><ele>462.99999999999994</ele><time>2026-05-03T06:40:03.994Z</time></trkpt><trkpt lat="43.7527054" lon="11.3836402"><ele>462.99999999999994</ele><time>2026-05-03T06:40:04.993Z</time></trkpt><trkpt lat="43.7528114" lon="11.3835977"><ele>463.0</ele><time>2026-05-03T06:40:05.992Z</time></trkpt><trkpt lat="43.7529136" lon="11.3835345"><ele>463.0</ele><time>2026-05-03T06:40:06.994Z</time></trkpt><trkpt lat="43.7530189" lon="11.3834471"><ele>462.33333333333337</ele><time>2026-05-03T06:40:07.994Z</time></trkpt><trkpt lat="43.7531038" lon="11.3833707"><ele>461.6666666666667</ele><time>2026-05-03T06:40:08.993Z</time></trkpt><trkpt lat="43.7531711" lon="11.38332"><ele>461.0</ele><time>2026-05-03T06:40:09.994Z</time></trkpt><trkpt lat="43.7532311" lon="11.3832674"><ele>460.33333333333337</ele><time>2026-05-03T06:40:10.993Z</time></trkpt><trkpt lat="43.7533019" lon="11.383293"><ele>459.6666666666667</ele><time>2026-05-03T06:40:11.993Z</time></trkpt><trkpt lat="43.7533733" lon="11.3833675"><ele>459.0</ele><time>2026-05-03T06:40:12.993Z</time></trkpt><trkpt lat="43.7534457" lon="11.3834752"><ele>459.0</ele><time>2026-05-03T06:40:13.993Z</time></trkpt><trkpt lat="43.7535255" lon="11.3836051"><ele>459.0</ele><time>2026-05-03T06:40:14.993Z</time></trkpt><trkpt lat="43.7536088" lon="11.3837421"><ele>459.0</ele><time>2026-05-03T06:40:15.994Z</time></trkpt><trkpt lat="43.7536861" lon="11.3838876"><ele>459.0</ele><time>2026-05-03T06:40:16.994Z</time></trkpt><trkpt lat="43.7537509" lon="11.384042"><ele>459.75</ele><time>2026-05-03T06:40:17.993Z</time></trkpt><trkpt lat="43.7538173" lon="11.3841907"><ele>460.5</ele><time>2026-05-03T06:40:18.993Z</time></trkpt><trkpt lat="43.7538867" lon="11.3843323"><ele>461.25</ele><time>2026-05-03T06:40:19.992Z</time></trkpt><trkpt lat="43.7539371" lon="11.3844716"><ele>462.0</ele><time>2026-05-03T06:40:20.993Z</time></trkpt><trkpt lat="43.7539838" lon="11.3846098"><ele>460.0</ele><time>2026-05-03T06:40:21.994Z</time></trkpt><trkpt lat="43.7540339" lon="11.384748"><ele>458.0</ele><time>2026-05-03T06:40:22.993Z</time></trkpt><trkpt lat="43.754087" lon="11.3848949"><ele>456.0</ele><time>2026-05-03T06:40:23.994Z</time></trkpt><trkpt lat="43.7541334" lon="11.3850425"><ele>454.0</ele><time>2026-05-03T06:40:24.994Z</time></trkpt><trkpt lat="43.7541707" lon="11.3851804"><ele>454.00000000000006</ele><time>2026-05-03T06:40:25.993Z</time></trkpt><trkpt lat="43.7542124" lon="11.3852934"><ele>454.0</ele><time>2026-05-03T06:40:26.994Z</time></trkpt><trkpt lat="43.7542668" lon="11.3853816"><ele>454.0</ele><time>2026-05-03T06:40:27.993Z</time></trkpt><trkpt lat="43.7543318" lon="11.3854259"><ele>454.0</ele><time>2026-05-03T06:40:28.993Z</time></trkpt><trkpt lat="43.7543963" lon="11.3854607"><ele>454.00000000000006</ele><time>2026-05-03T06:40:29.994Z</time></trkpt><trkpt lat="43.7544774" lon="11.3854172"><ele>454.0</ele><time>2026-05-03T06:40:31.994Z</time></trkpt><trkpt lat="43.7545364" lon="11.3853751"><ele>451.79999999999995</ele><time>2026-05-03T06:40:49.994Z</time></trkpt><trkpt lat="43.7546049" lon="11.3853706"><ele>449.59999999999997</ele><time>2026-05-03T06:40:51.993Z</time></trkpt><trkpt lat="43.754733" lon="11.3853399"><ele>447.4</ele><time>2026-05-03T06:40:54.994Z</time></trkpt><trkpt lat="43.7548295" lon="11.3853092"><ele>445.2</ele><time>2026-05-03T06:40:56.994Z</time></trkpt><trkpt lat="43.7549148" lon="11.3853637"><ele>443.0</ele><time>2026-05-03T06:40:58.994Z</time></trkpt><trkpt lat="43.7549673" lon="11.3854378"><ele>443.0</ele><time>2026-05-03T06:40:59.994Z</time></trkpt><trkpt lat="43.7550158" lon="11.3854946"><ele>442.99999999999994</ele><time>2026-05-03T06:41:00.994Z</time></trkpt><trkpt lat="43.7550744" lon="11.3855493"><ele>442.99999999999994</ele><time>2026-05-03T06:41:01.993Z</time></trkpt><trkpt lat="43.7551749" lon="11.3856557"><ele>443.0</ele><time>2026-05-03T06:41:03.993Z</time></trkpt><trkpt lat="43.7552909" lon="11.3857308"><ele>443.0</ele><time>2026-05-03T06:41:05.994Z</time></trkpt><trkpt lat="43.7554092" lon="11.3857338"><ele>439.2</ele><time>2026-05-03T06:41:07.994Z</time></trkpt><trkpt lat="43.7555073" lon="11.3857483"><ele>435.4</ele><time>2026-05-03T06:41:09.994Z</time></trkpt><trkpt lat="43.7556112" lon="11.3857413"><ele>431.59999999999997</ele><time>2026-05-03T06:41:11.993Z</time></trkpt><trkpt lat="43.7557419" lon="11.3857652"><ele>427.79999999999995</ele><time>2026-05-03T06:41:13.994Z</time></trkpt><trkpt lat="43.7558312" lon="11.3857976"><ele>424.0</ele><time>2026-05-03T06:41:14.994Z</time></trkpt><trkpt lat="43.7559128" lon="11.3858218"><ele>424.0</ele><time>2026-05-03T06:41:15.994Z</time></trkpt><trkpt lat="43.7559816" lon="11.3858679"><ele>424.0</ele><time>2026-05-03T06:41:16.993Z</time></trkpt><trkpt lat="43.7560924" lon="11.385927"><ele>424.0</ele><time>2026-05-03T06:41:18.994Z</time></trkpt><trkpt lat="43.7561824" lon="11.3859596"><ele>424.0</ele><time>2026-05-03T06:41:20.993Z</time></trkpt><trkpt lat="43.7562687" lon="11.3860334"><ele>424.0</ele><time>2026-05-03T06:41:22.993Z</time></trkpt><trkpt lat="43.7563547" lon="11.386171"><ele>423.83333333333337</ele><time>2026-05-03T06:41:24.994Z</time></trkpt><trkpt lat="43.7564111" lon="11.3862693"><ele>423.6666666666667</ele><time>2026-05-03T06:41:25.993Z</time></trkpt><trkpt lat="43.7564771" lon="11.386324"><ele>423.5</ele><time>2026-05-03T06:41:26.994Z</time></trkpt><trkpt lat="43.7565187" lon="11.3863978"><ele>423.33333333333337</ele><time>2026-05-03T06:41:27.993Z</time></trkpt><trkpt lat="43.7565878" lon="11.3864683"><ele>423.1666666666667</ele><time>2026-05-03T06:41:28.994Z</time></trkpt><trkpt lat="43.7566581" lon="11.3865522"><ele>423.0</ele><time>2026-05-03T06:41:29.993Z</time></trkpt><trkpt lat="43.7567311" lon="11.3866283"><ele>421.7142857142857</ele><time>2026-05-03T06:41:30.993Z</time></trkpt><trkpt lat="43.7567863" lon="11.3867071"><ele>420.42857142857144</ele><time>2026-05-03T06:41:31.993Z</time></trkpt><trkpt lat="43.7568229" lon="11.3868038"><ele>419.14285714285717</ele><time>2026-05-03T06:41:32.994Z</time></trkpt><trkpt lat="43.7568681" lon="11.3868671"><ele>417.8571428571429</ele><time>2026-05-03T06:41:33.994Z</time></trkpt><trkpt lat="43.7569024" lon="11.3869458"><ele>416.57142857142856</ele><time>2026-05-03T06:41:34.993Z</time></trkpt><trkpt lat="43.756928" lon="11.3870316"><ele>415.28571428571433</ele><time>2026-05-03T06:41:35.994Z</time></trkpt><trkpt lat="43.7569758" lon="11.3871193"><ele>414.0</ele><time>2026-05-03T06:41:36.994Z</time></trkpt><trkpt lat="43.7570147" lon="11.3872158"><ele>412.3333333333333</ele><time>2026-05-03T06:41:37.993Z</time></trkpt><trkpt lat="43.7570488" lon="11.3873149"><ele>410.66666666666663</ele><time>2026-05-03T06:41:38.993Z</time></trkpt><trkpt lat="43.7570631" lon="11.3874155"><ele>409.0</ele><time>2026-05-03T06:41:39.994Z</time></trkpt><trkpt lat="43.7570738" lon="11.3875226"><ele>407.3333333333333</ele><time>2026-05-03T06:41:40.993Z</time></trkpt><trkpt lat="43.7570921" lon="11.3876396"><ele>405.66666666666663</ele><time>2026-05-03T06:41:41.994Z</time></trkpt><trkpt lat="43.7571146" lon="11.3877625"><ele>404.0</ele><time>2026-05-03T06:41:42.994Z</time></trkpt><trkpt lat="43.7571476" lon="11.3878917"><ele>405.0</ele><time>2026-05-03T06:41:43.994Z</time></trkpt><trkpt lat="43.7571779" lon="11.3880342"><ele>406.0</ele><time>2026-05-03T06:41:44.993Z</time></trkpt><trkpt lat="43.7572075" lon="11.3881774"><ele>407.0</ele><time>2026-05-03T06:41:45.994Z</time></trkpt><trkpt lat="43.7572354" lon="11.3883168"><ele>408.0</ele><time>2026-05-03T06:41:46.993Z</time></trkpt><trkpt lat="43.7572685" lon="11.3884659"><ele>409.0</ele><time>2026-05-03T06:41:47.993Z</time></trkpt><trkpt lat="43.7573039" lon="11.3886198"><ele>409.0</ele><time>2026-05-03T06:41:48.994Z</time></trkpt><trkpt lat="43.7573373" lon="11.3887747"><ele>409.0</ele><time>2026-05-03T06:41:49.993Z</time></trkpt><trkpt lat="43.7573724" lon="11.3889296"><ele>409.0</ele><time>2026-05-03T06:41:50.994Z</time></trkpt><trkpt lat="43.7574084" lon="11.389086"><ele>409.0</ele><time>2026-05-03T06:41:51.994Z</time></trkpt><trkpt lat="43.7574423" lon="11.389244"><ele>409.0</ele><time>2026-05-03T06:41:52.993Z</time></trkpt><trkpt lat="43.7574766" lon="11.3894129"><ele>409.0</ele><time>2026-05-03T06:41:53.993Z</time></trkpt><trkpt lat="43.7575139" lon="11.3895874"><ele>409.0</ele><time>2026-05-03T06:41:54.994Z</time></trkpt><trkpt lat="43.7575519" lon="11.3897577"><ele>409.0</ele><time>2026-05-03T06:41:55.993Z</time></trkpt><trkpt lat="43.7575852" lon="11.3899156"><ele>409.0</ele><time>2026-05-03T06:41:56.993Z</time></trkpt><trkpt lat="43.7576191" lon="11.3900673"><ele>409.0</ele><time>2026-05-03T06:41:57.993Z</time></trkpt><trkpt lat="43.7576515" lon="11.3902131"><ele>409.0</ele><time>2026-05-03T06:41:58.993Z</time></trkpt><trkpt lat="43.7576832" lon="11.3903494"><ele>409.0</ele><time>2026-05-03T06:41:59.993Z</time></trkpt><trkpt lat="43.7577237" lon="11.3904826"><ele>409.0</ele><time>2026-05-03T06:42:00.993Z</time></trkpt><trkpt lat="43.7577699" lon="11.3906109"><ele>409.5</ele><time>2026-05-03T06:42:01.992Z</time></trkpt><trkpt lat="43.7578245" lon="11.3907382"><ele>410.0</ele><time>2026-05-03T06:42:02.995Z</time></trkpt><trkpt lat="43.757885" lon="11.3908827"><ele>410.5</ele><time>2026-05-03T06:42:03.995Z</time></trkpt><trkpt lat="43.7579473" lon="11.3910233"><ele>411.0</ele><time>2026-05-03T06:42:04.995Z</time></trkpt><trkpt lat="43.7580034" lon="11.3911706"><ele>411.0</ele><time>2026-05-03T06:42:05.994Z</time></trkpt><trkpt lat="43.7580465" lon="11.3913205"><ele>411.0</ele><time>2026-05-03T06:42:06.994Z</time></trkpt><trkpt lat="43.7580705" lon="11.3914728"><ele>411.0</ele><time>2026-05-03T06:42:07.995Z</time></trkpt><trkpt lat="43.7580733" lon="11.3916288"><ele>411.0</ele><time>2026-05-03T06:42:08.995Z</time></trkpt><trkpt lat="43.7580683" lon="11.3917833"><ele>410.8</ele><time>2026-05-03T06:42:09.993Z</time></trkpt><trkpt lat="43.758057" lon="11.3919434"><ele>410.6</ele><time>2026-05-03T06:42:10.995Z</time></trkpt><trkpt lat="43.7580409" lon="11.3920949"><ele>410.4</ele><time>2026-05-03T06:42:11.993Z</time></trkpt><trkpt lat="43.758021" lon="11.3922402"><ele>410.2</ele><time>2026-05-03T06:42:12.995Z</time></trkpt><trkpt lat="43.7579928" lon="11.3923631"><ele>410.0</ele><time>2026-05-03T06:42:13.994Z</time></trkpt><trkpt lat="43.7579394" lon="11.3924627"><ele>410.0</ele><time>2026-05-03T06:42:14.995Z</time></trkpt><trkpt lat="43.7578845" lon="11.3925654"><ele>410.0</ele><time>2026-05-03T06:42:15.995Z</time></trkpt><trkpt lat="43.7578411" lon="11.3926649"><ele>410.0</ele><time>2026-05-03T06:42:16.995Z</time></trkpt><trkpt lat="43.7578303" lon="11.3928048"><ele>410.0</ele><time>2026-05-03T06:42:17.995Z</time></trkpt><trkpt lat="43.7578398" lon="11.3929251"><ele>410.0</ele><time>2026-05-03T06:42:18.995Z</time></trkpt><trkpt lat="43.7578705" lon="11.3930403"><ele>410.99999999999994</ele><time>2026-05-03T06:42:19.995Z</time></trkpt><trkpt lat="43.7579039" lon="11.3931313"><ele>412.0</ele><time>2026-05-03T06:42:20.994Z</time></trkpt><trkpt lat="43.7579283" lon="11.3932368"><ele>413.0</ele><time>2026-05-03T06:42:21.994Z</time></trkpt><trkpt lat="43.7579637" lon="11.3933346"><ele>414.0</ele><time>2026-05-03T06:42:22.994Z</time></trkpt><trkpt lat="43.7580006" lon="11.3934296"><ele>414.99999999999994</ele><time>2026-05-03T06:42:23.994Z</time></trkpt><trkpt lat="43.7580451" lon="11.3935345"><ele>416.0</ele><time>2026-05-03T06:42:24.995Z</time></trkpt><trkpt lat="43.7581548" lon="11.3936552"><ele>415.99999999999994</ele><time>2026-05-03T06:42:25.994Z</time></trkpt><trkpt lat="43.7582209" lon="11.3937541"><ele>416.0</ele><time>2026-05-03T06:42:26.995Z</time></trkpt><trkpt lat="43.7582759" lon="11.3938614"><ele>416.0</ele><time>2026-05-03T06:42:27.995Z</time></trkpt><trkpt lat="43.7583303" lon="11.3939386"><ele>416.0</ele><time>2026-05-03T06:42:28.995Z</time></trkpt><trkpt lat="43.7583721" lon="11.3940173"><ele>415.99999999999994</ele><time>2026-05-03T06:42:29.995Z</time></trkpt><trkpt lat="43.7584233" lon="11.3940739"><ele>416.0</ele><time>2026-05-03T06:42:30.995Z</time></trkpt><trkpt lat="43.7585064" lon="11.3942113"><ele>415.4</ele><time>2026-05-03T06:42:32.993Z</time></trkpt><trkpt lat="43.7585717" lon="11.3942777"><ele>414.8</ele><time>2026-05-03T06:42:33.995Z</time></trkpt><trkpt lat="43.7585398" lon="11.3943851"><ele>414.2</ele><time>2026-05-03T06:42:34.995Z</time></trkpt><trkpt lat="43.7586341" lon="11.3944796"><ele>413.59999999999997</ele><time>2026-05-03T06:42:36.993Z</time></trkpt><trkpt lat="43.7587476" lon="11.3945523"><ele>413.0</ele><time>2026-05-03T06:42:37.995Z</time></trkpt><trkpt lat="43.7588485" lon="11.3946042"><ele>413.0</ele><time>2026-05-03T06:42:38.994Z</time></trkpt><trkpt lat="43.7589509" lon="11.3946576"><ele>413.0</ele><time>2026-05-03T06:42:39.995Z</time></trkpt><trkpt lat="43.7590536" lon="11.3947034"><ele>413.0</ele><time>2026-05-03T06:42:40.995Z</time></trkpt><trkpt lat="43.7591546" lon="11.3947491"><ele>413.0</ele><time>2026-05-03T06:42:41.994Z</time></trkpt><trkpt lat="43.7592525" lon="11.3947859"><ele>413.0</ele><time>2026-05-03T06:42:42.995Z</time></trkpt><trkpt lat="43.7593454" lon="11.3948238"><ele>415.8333333333333</ele><time>2026-05-03T06:42:43.995Z</time></trkpt><trkpt lat="43.7594273" lon="11.3948694"><ele>418.66666666666663</ele><time>2026-05-03T06:42:44.995Z</time></trkpt><trkpt lat="43.7594871" lon="11.3949276"><ele>421.5</ele><time>2026-05-03T06:42:45.995Z</time></trkpt><trkpt lat="43.7595326" lon="11.3949953"><ele>424.33333333333337</ele><time>2026-05-03T06:42:46.995Z</time></trkpt><trkpt lat="43.7595675" lon="11.3950726"><ele>427.1666666666667</ele><time>2026-05-03T06:42:47.994Z</time></trkpt><trkpt lat="43.7595575" lon="11.3951844"><ele>430.0</ele><time>2026-05-03T06:42:48.994Z</time></trkpt><trkpt lat="43.7595557" lon="11.3952872"><ele>430.0</ele><time>2026-05-03T06:42:49.994Z</time></trkpt><trkpt lat="43.7595673" lon="11.3953894"><ele>430.0</ele><time>2026-05-03T06:42:50.995Z</time></trkpt><trkpt lat="43.7595771" lon="11.3954924"><ele>430.0</ele><time>2026-05-03T06:42:51.995Z</time></trkpt><trkpt lat="43.7595864" lon="11.3955967"><ele>430.0</ele><time>2026-05-03T06:42:52.995Z</time></trkpt><trkpt lat="43.7595981" lon="11.3956945"><ele>430.0</ele><time>2026-05-03T06:42:53.994Z</time></trkpt><trkpt lat="43.7596042" lon="11.3957875"><ele>430.0</ele><time>2026-05-03T06:42:54.995Z</time></trkpt><trkpt lat="43.7596075" lon="11.395884"><ele>430.0</ele><time>2026-05-03T06:42:55.995Z</time></trkpt><trkpt lat="43.7596136" lon="11.3959881"><ele>432.0</ele><time>2026-05-03T06:42:56.994Z</time></trkpt><trkpt lat="43.759621" lon="11.3960849"><ele>434.0</ele><time>2026-05-03T06:42:57.995Z</time></trkpt><trkpt lat="43.7596333" lon="11.3961762"><ele>436.0</ele><time>2026-05-03T06:42:58.995Z</time></trkpt><trkpt lat="43.7596435" lon="11.3962671"><ele>438.0</ele><time>2026-05-03T06:42:59.995Z</time></trkpt><trkpt lat="43.7596526" lon="11.3963632"><ele>440.0</ele><time>2026-05-03T06:43:00.994Z</time></trkpt><trkpt lat="43.7596613" lon="11.3964608"><ele>442.0</ele><time>2026-05-03T06:43:01.995Z</time></trkpt><trkpt lat="43.7596697" lon="11.3965589"><ele>444.0</ele><time>2026-05-03T06:43:02.994Z</time></trkpt><trkpt lat="43.7596772" lon="11.3966635"><ele>445.3333333333333</ele><time>2026-05-03T06:43:03.994Z</time></trkpt><trkpt lat="43.759688" lon="11.3967666"><ele>446.66666666666663</ele><time>2026-05-03T06:43:04.995Z</time></trkpt><trkpt lat="43.7596976" lon="11.3968687"><ele>448.0</ele><time>2026-05-03T06:43:05.995Z</time></trkpt><trkpt lat="43.7597023" lon="11.3969696"><ele>449.3333333333333</ele><time>2026-05-03T06:43:06.995Z</time></trkpt><trkpt lat="43.7597073" lon="11.3970669"><ele>450.66666666666663</ele><time>2026-05-03T06:43:07.994Z</time></trkpt><trkpt lat="43.759719" lon="11.3972237"><ele>452.0</ele><time>2026-05-03T06:43:09.995Z</time></trkpt><trkpt lat="43.7597135" lon="11.3973576"><ele>452.49999999999994</ele><time>2026-05-03T06:43:11.995Z</time></trkpt><trkpt lat="43.7597149" lon="11.3975209"><ele>453.0</ele><time>2026-05-03T06:43:13.995Z</time></trkpt><trkpt lat="43.7597127" lon="11.3976135"><ele>453.5</ele><time>2026-05-03T06:43:14.994Z</time></trkpt><trkpt lat="43.7597156" lon="11.397724"><ele>454.0</ele><time>2026-05-03T06:43:15.995Z</time></trkpt><trkpt lat="43.759737" lon="11.3978375"><ele>454.49999999999994</ele><time>2026-05-03T06:43:16.994Z</time></trkpt><trkpt lat="43.7597727" lon="11.3979388"><ele>455.0</ele><time>2026-05-03T06:43:17.993Z</time></trkpt><trkpt lat="43.7598393" lon="11.3980234"><ele>453.0</ele><time>2026-05-03T06:43:18.994Z</time></trkpt><trkpt lat="43.7599158" lon="11.39811"><ele>451.0</ele><time>2026-05-03T06:43:19.995Z</time></trkpt><trkpt lat="43.7599955" lon="11.3982108"><ele>449.0</ele><time>2026-05-03T06:43:20.995Z</time></trkpt><trkpt lat="43.7600767" lon="11.3983184"><ele>447.0</ele><time>2026-05-03T06:43:21.995Z</time></trkpt><trkpt lat="43.7602291" lon="11.3985312"><ele>449.20000000000005</ele><time>2026-05-03T06:43:23.994Z</time></trkpt><trkpt lat="43.7602978" lon="11.3986389"><ele>451.40000000000003</ele><time>2026-05-03T06:43:24.995Z</time></trkpt><trkpt lat="43.7603587" lon="11.3987338"><ele>453.59999999999997</ele><time>2026-05-03T06:43:25.993Z</time></trkpt><trkpt lat="43.7604097" lon="11.3988186"><ele>455.79999999999995</ele><time>2026-05-03T06:43:26.995Z</time></trkpt><trkpt lat="43.7604554" lon="11.398921"><ele>458.0</ele><time>2026-05-03T06:43:27.994Z</time></trkpt><trkpt lat="43.7604849" lon="11.3990575"><ele>458.0</ele><time>2026-05-03T06:43:28.994Z</time></trkpt><trkpt lat="43.7605129" lon="11.3991944"><ele>457.99999999999994</ele><time>2026-05-03T06:43:29.994Z</time></trkpt><trkpt lat="43.7605386" lon="11.399333"><ele>457.99999999999994</ele><time>2026-05-03T06:43:30.995Z</time></trkpt><trkpt lat="43.7605677" lon="11.3994584"><ele>458.0</ele><time>2026-05-03T06:43:31.994Z</time></trkpt><trkpt lat="43.7605887" lon="11.3995842"><ele>458.0</ele><time>2026-05-03T06:43:32.995Z</time></trkpt><trkpt lat="43.7606068" lon="11.3997113"><ele>456.66666666666663</ele><time>2026-05-03T06:43:33.994Z</time></trkpt><trkpt lat="43.7606203" lon="11.3998406"><ele>455.3333333333333</ele><time>2026-05-03T06:43:34.994Z</time></trkpt><trkpt lat="43.7606401" lon="11.3999532"><ele>454.0</ele><time>2026-05-03T06:43:35.994Z</time></trkpt><trkpt lat="43.7606666" lon="11.4000515"><ele>452.66666666666663</ele><time>2026-05-03T06:43:36.995Z</time></trkpt><trkpt lat="43.7606973" lon="11.400157"><ele>451.3333333333333</ele><time>2026-05-03T06:43:37.995Z</time></trkpt><trkpt lat="43.7607234" lon="11.4002615"><ele>450.0</ele><time>2026-05-03T06:43:38.993Z</time></trkpt><trkpt lat="43.7607385" lon="11.400357"><ele>450.0</ele><time>2026-05-03T06:43:39.995Z</time></trkpt><trkpt lat="43.7607349" lon="11.4004508"><ele>450.0</ele><time>2026-05-03T06:43:40.995Z</time></trkpt><trkpt lat="43.7607072" lon="11.400546"><ele>450.0</ele><time>2026-05-03T06:43:41.994Z</time></trkpt><trkpt lat="43.7606665" lon="11.4006333"><ele>450.0</ele><time>2026-05-03T06:43:42.994Z</time></trkpt><trkpt lat="43.760607" lon="11.4007061"><ele>450.0</ele><time>2026-05-03T06:43:43.995Z</time></trkpt><trkpt lat="43.7605221" lon="11.4007592"><ele>450.0</ele><time>2026-05-03T06:43:44.994Z</time></trkpt><trkpt lat="43.760435" lon="11.4007984"><ele>448.4</ele><time>2026-05-03T06:43:45.994Z</time></trkpt><trkpt lat="43.7603663" lon="11.4008283"><ele>446.8</ele><time>2026-05-03T06:43:46.995Z</time></trkpt><trkpt lat="43.7602819" lon="11.4009374"><ele>445.20000000000005</ele><time>2026-05-03T06:43:48.994Z</time></trkpt><trkpt lat="43.7602407" lon="11.4011283"><ele>443.6</ele><time>2026-05-03T06:43:50.994Z</time></trkpt><trkpt lat="43.7601966" lon="11.4012149"><ele>442.0</ele><time>2026-05-03T06:43:51.995Z</time></trkpt><trkpt lat="43.7601384" lon="11.4012961"><ele>440.40000000000003</ele><time>2026-05-03T06:43:52.995Z</time></trkpt><trkpt lat="43.760077" lon="11.4013784"><ele>438.80000000000007</ele><time>2026-05-03T06:43:53.995Z</time></trkpt><trkpt lat="43.7600344" lon="11.401465"><ele>437.2</ele><time>2026-05-03T06:43:54.994Z</time></trkpt><trkpt lat="43.7599418" lon="11.4016039"><ele>435.6</ele><time>2026-05-03T06:43:56.995Z</time></trkpt><trkpt lat="43.7598661" lon="11.4016644"><ele>434.0</ele><time>2026-05-03T06:43:57.994Z</time></trkpt><trkpt lat="43.7598047" lon="11.4017291"><ele>434.0</ele><time>2026-05-03T06:43:58.995Z</time></trkpt><trkpt lat="43.7597315" lon="11.4018084"><ele>434.0</ele><time>2026-05-03T06:43:59.995Z</time></trkpt><trkpt lat="43.7596624" lon="11.4018872"><ele>434.0</ele><time>2026-05-03T06:44:00.995Z</time></trkpt><trkpt lat="43.7595822" lon="11.4019378"><ele>434.0</ele><time>2026-05-03T06:44:01.994Z</time></trkpt><trkpt lat="43.7595039" lon="11.4020002"><ele>434.0</ele><time>2026-05-03T06:44:02.995Z</time></trkpt><trkpt lat="43.7594255" lon="11.4020748"><ele>432.66666666666663</ele><time>2026-05-03T06:44:03.995Z</time></trkpt><trkpt lat="43.7593539" lon="11.4021462"><ele>431.3333333333333</ele><time>2026-05-03T06:44:04.995Z</time></trkpt><trkpt lat="43.7592918" lon="11.402225"><ele>430.0</ele><time>2026-05-03T06:44:05.995Z</time></trkpt><trkpt lat="43.7592204" lon="11.4022766"><ele>428.66666666666663</ele><time>2026-05-03T06:44:06.994Z</time></trkpt><trkpt lat="43.7591485" lon="11.4023158"><ele>427.3333333333333</ele><time>2026-05-03T06:44:07.994Z</time></trkpt><trkpt lat="43.7590672" lon="11.4023563"><ele>426.0</ele><time>2026-05-03T06:44:08.995Z</time></trkpt><trkpt lat="43.7589699" lon="11.4023944"><ele>426.0</ele><time>2026-05-03T06:44:09.994Z</time></trkpt><trkpt lat="43.7588779" lon="11.4024384"><ele>426.0</ele><time>2026-05-03T06:44:10.994Z</time></trkpt><trkpt lat="43.7587876" lon="11.4024873"><ele>426.0</ele><time>2026-05-03T06:44:11.995Z</time></trkpt><trkpt lat="43.7586943" lon="11.4025454"><ele>426.0</ele><time>2026-05-03T06:44:12.994Z</time></trkpt><trkpt lat="43.7586016" lon="11.4026007"><ele>426.0</ele><time>2026-05-03T06:44:13.995Z</time></trkpt><trkpt lat="43.7585219" lon="11.4026843"><ele>425.8</ele><time>2026-05-03T06:44:14.995Z</time></trkpt><trkpt lat="43.7584341" lon="11.4027876"><ele>425.6</ele><time>2026-05-03T06:44:15.995Z</time></trkpt><trkpt lat="43.7583598" lon="11.4028677"><ele>425.4</ele><time>2026-05-03T06:44:16.994Z</time></trkpt><trkpt lat="43.7582929" lon="11.4029587"><ele>425.2</ele><time>2026-05-03T06:44:17.994Z</time></trkpt><trkpt lat="43.7582527" lon="11.4030379"><ele>425.0</ele><time>2026-05-03T06:44:18.995Z</time></trkpt><trkpt lat="43.7582051" lon="11.4031443"><ele>425.0</ele><time>2026-05-03T06:44:19.994Z</time></trkpt><trkpt lat="43.7581677" lon="11.4032315"><ele>425.0</ele><time>2026-05-03T06:44:20.995Z</time></trkpt><trkpt lat="43.7581286" lon="11.4033413"><ele>425.0</ele><time>2026-05-03T06:44:21.995Z</time></trkpt><trkpt lat="43.7581009" lon="11.4034882"><ele>425.0</ele><time>2026-05-03T06:44:22.995Z</time></trkpt><trkpt lat="43.7580712" lon="11.4036335"><ele>425.0</ele><time>2026-05-03T06:44:23.993Z</time></trkpt><trkpt lat="43.758058" lon="11.4037812"><ele>424.75</ele><time>2026-05-03T06:44:24.995Z</time></trkpt><trkpt lat="43.7580475" lon="11.403948"><ele>424.5</ele><time>2026-05-03T06:44:25.995Z</time></trkpt><trkpt lat="43.7580289" lon="11.4041468"><ele>424.25</ele><time>2026-05-03T06:44:26.995Z</time></trkpt><trkpt lat="43.7580189" lon="11.4043387"><ele>424.0</ele><time>2026-05-03T06:44:27.995Z</time></trkpt><trkpt lat="43.7580116" lon="11.4045439"><ele>423.0</ele><time>2026-05-03T06:44:28.994Z</time></trkpt><trkpt lat="43.7579994" lon="11.4047446"><ele>422.0</ele><time>2026-05-03T06:44:29.995Z</time></trkpt><trkpt lat="43.7579863" lon="11.4049451"><ele>421.0</ele><time>2026-05-03T06:44:30.995Z</time></trkpt><trkpt lat="43.7579764" lon="11.4051295"><ele>420.0</ele><time>2026-05-03T06:44:31.995Z</time></trkpt><trkpt lat="43.7579658" lon="11.4053097"><ele>420.0</ele><time>2026-05-03T06:44:32.994Z</time></trkpt><trkpt lat="43.7579549" lon="11.405489"><ele>420.0</ele><time>2026-05-03T06:44:33.995Z</time></trkpt><trkpt lat="43.7579577" lon="11.4056681"><ele>420.0</ele><time>2026-05-03T06:44:34.994Z</time></trkpt><trkpt lat="43.7579581" lon="11.4058395"><ele>420.0</ele><time>2026-05-03T06:44:35.995Z</time></trkpt><trkpt lat="43.7579588" lon="11.405995"><ele>420.3333333333333</ele><time>2026-05-03T06:44:36.995Z</time></trkpt><trkpt lat="43.757947" lon="11.4061475"><ele>420.66666666666663</ele><time>2026-05-03T06:44:37.994Z</time></trkpt><trkpt lat="43.7579347" lon="11.4062772"><ele>421.0</ele><time>2026-05-03T06:44:38.995Z</time></trkpt><trkpt lat="43.7579233" lon="11.4063856"><ele>421.3333333333333</ele><time>2026-05-03T06:44:39.995Z</time></trkpt><trkpt lat="43.7579146" lon="11.4064736"><ele>421.66666666666663</ele><time>2026-05-03T06:44:40.995Z</time></trkpt><trkpt lat="43.7578664" lon="11.4065956"><ele>422.0</ele><time>2026-05-03T06:44:42.994Z</time></trkpt><trkpt lat="43.7577849" lon="11.4066164"><ele>421.40000000000003</ele><time>2026-05-03T06:44:44.994Z</time></trkpt><trkpt lat="43.7576775" lon="11.4066296"><ele>420.8</ele><time>2026-05-03T06:44:46.995Z</time></trkpt><trkpt lat="43.7575726" lon="11.4067368"><ele>420.2</ele><time>2026-05-03T06:44:48.995Z</time></trkpt><trkpt lat="43.7575103" lon="11.4067917"><ele>419.6</ele><time>2026-05-03T06:44:49.995Z</time></trkpt><trkpt lat="43.7574543" lon="11.4068535"><ele>419.0</ele><time>2026-05-03T06:44:50.994Z</time></trkpt><trkpt lat="43.757397" lon="11.4069291"><ele>418.99999999999994</ele><time>2026-05-03T06:44:51.995Z</time></trkpt><trkpt lat="43.7573534" lon="11.4070232"><ele>419.0</ele><time>2026-05-03T06:44:52.994Z</time></trkpt><trkpt lat="43.7573111" lon="11.4071083"><ele>419.0</ele><time>2026-05-03T06:44:53.995Z</time></trkpt><trkpt lat="43.757249" lon="11.4071718"><ele>419.0</ele><time>2026-05-03T06:44:54.994Z</time></trkpt><trkpt lat="43.7571901" lon="11.407217"><ele>418.99999999999994</ele><time>2026-05-03T06:44:55.995Z</time></trkpt><trkpt lat="43.7571251" lon="11.4072764"><ele>419.0</ele><time>2026-05-03T06:44:56.994Z</time></trkpt><trkpt lat="43.7570495" lon="11.4073682"><ele>419.79999999999995</ele><time>2026-05-03T06:44:57.995Z</time></trkpt><trkpt lat="43.7569786" lon="11.4074577"><ele>420.59999999999997</ele><time>2026-05-03T06:44:58.995Z</time></trkpt><trkpt lat="43.7568889" lon="11.4075459"><ele>421.4</ele><time>2026-05-03T06:44:59.995Z</time></trkpt><trkpt lat="43.7568011" lon="11.4076296"><ele>422.2</ele><time>2026-05-03T06:45:00.995Z</time></trkpt><trkpt lat="43.7566885" lon="11.4077206"><ele>423.0</ele><time>2026-05-03T06:45:01.995Z</time></trkpt><trkpt lat="43.7565961" lon="11.4078072"><ele>420.2</ele><time>2026-05-03T06:45:02.995Z</time></trkpt><trkpt lat="43.7565108" lon="11.4078431"><ele>417.4</ele><time>2026-05-03T06:45:03.993Z</time></trkpt><trkpt lat="43.7564245" lon="11.4079034"><ele>414.59999999999997</ele><time>2026-05-03T06:45:04.995Z</time></trkpt><trkpt lat="43.756302" lon="11.4079275"><ele>411.79999999999995</ele><time>2026-05-03T06:45:05.995Z</time></trkpt><trkpt lat="43.7561987" lon="11.4079488"><ele>409.0</ele><time>2026-05-03T06:45:06.993Z</time></trkpt><trkpt lat="43.7561002" lon="11.4079812"><ele>409.1666666666667</ele><time>2026-05-03T06:45:07.994Z</time></trkpt><trkpt lat="43.7560275" lon="11.4080198"><ele>409.33333333333337</ele><time>2026-05-03T06:45:08.995Z</time></trkpt><trkpt lat="43.7559505" lon="11.4080495"><ele>409.5</ele><time>2026-05-03T06:45:09.994Z</time></trkpt><trkpt lat="43.7559206" lon="11.4081495"><ele>409.66666666666663</ele><time>2026-05-03T06:45:11.995Z</time></trkpt><trkpt lat="43.7559999" lon="11.4081929"><ele>409.8333333333333</ele><time>2026-05-03T06:45:14.995Z</time></trkpt><trkpt lat="43.7560852" lon="11.4082237"><ele>410.0</ele><time>2026-05-03T06:45:18.995Z</time></trkpt><trkpt lat="43.7561361" lon="11.4082804"><ele>411.8333333333333</ele><time>2026-05-03T06:45:32.995Z</time></trkpt><trkpt lat="43.7561755" lon="11.4083607"><ele>413.66666666666663</ele><time>2026-05-03T06:45:34.995Z</time></trkpt><trkpt lat="43.7562125" lon="11.4084696"><ele>415.5</ele><time>2026-05-03T06:45:36.995Z</time></trkpt><trkpt lat="43.7562928" lon="11.4085577"><ele>417.33333333333337</ele><time>2026-05-03T06:45:37.995Z</time></trkpt><trkpt lat="43.7563419" lon="11.4086408"><ele>419.1666666666667</ele><time>2026-05-03T06:45:38.995Z</time></trkpt><trkpt lat="43.7563795" lon="11.4087205"><ele>421.0</ele><time>2026-05-03T06:45:39.994Z</time></trkpt><trkpt lat="43.7563977" lon="11.4088124"><ele>421.4</ele><time>2026-05-03T06:45:40.995Z</time></trkpt><trkpt lat="43.7564199" lon="11.4089003"><ele>421.8</ele><time>2026-05-03T06:45:41.994Z</time></trkpt><trkpt lat="43.7564752" lon="11.4090124"><ele>422.2</ele><time>2026-05-03T06:45:42.994Z</time></trkpt><trkpt lat="43.7565245" lon="11.409167"><ele>422.59999999999997</ele><time>2026-05-03T06:45:43.995Z</time></trkpt><trkpt lat="43.7565694" lon="11.4092901"><ele>423.0</ele><time>2026-05-03T06:45:44.995Z</time></trkpt><trkpt lat="43.7566097" lon="11.4094119"><ele>423.0</ele><time>2026-05-03T06:45:45.995Z</time></trkpt><trkpt lat="43.7566634" lon="11.4095245"><ele>423.0</ele><time>2026-05-03T06:45:46.995Z</time></trkpt><trkpt lat="43.7567275" lon="11.4096163"><ele>423.0</ele><time>2026-05-03T06:45:47.995Z</time></trkpt><trkpt lat="43.7567989" lon="11.4097174"><ele>423.0</ele><time>2026-05-03T06:45:48.995Z</time></trkpt><trkpt lat="43.7568589" lon="11.4098162"><ele>423.0</ele><time>2026-05-03T06:45:49.995Z</time></trkpt><trkpt lat="43.7569396" lon="11.4098881"><ele>423.3333333333333</ele><time>2026-05-03T06:45:50.994Z</time></trkpt><trkpt lat="43.7569673" lon="11.4099799"><ele>423.66666666666663</ele><time>2026-05-03T06:45:51.994Z</time></trkpt><trkpt lat="43.7569975" lon="11.4101147"><ele>424.0</ele><time>2026-05-03T06:45:52.995Z</time></trkpt><trkpt lat="43.7570465" lon="11.4102277"><ele>424.3333333333333</ele><time>2026-05-03T06:45:53.995Z</time></trkpt><trkpt lat="43.7570908" lon="11.4103455"><ele>424.66666666666663</ele><time>2026-05-03T06:45:54.995Z</time></trkpt><trkpt lat="43.7571271" lon="11.4104505"><ele>425.0</ele><time>2026-05-03T06:45:55.995Z</time></trkpt><trkpt lat="43.7570657" lon="11.4105603"><ele>422.66666666666663</ele><time>2026-05-03T06:45:57.994Z</time></trkpt><trkpt lat="43.7569392" lon="11.4105613"><ele>420.3333333333333</ele><time>2026-05-03T06:45:59.994Z</time></trkpt><trkpt lat="43.7568735" lon="11.4105789"><ele>418.0</ele><time>2026-05-03T06:46:00.994Z</time></trkpt><trkpt lat="43.7568172" lon="11.4106377"><ele>415.66666666666663</ele><time>2026-05-03T06:46:01.995Z</time></trkpt><trkpt lat="43.7567763" lon="11.410725"><ele>413.3333333333333</ele><time>2026-05-03T06:46:02.994Z</time></trkpt><trkpt lat="43.756734" lon="11.4108223"><ele>411.0</ele><time>2026-05-03T06:46:03.995Z</time></trkpt><trkpt lat="43.7566727" lon="11.4109083"><ele>409.8333333333333</ele><time>2026-05-03T06:46:04.994Z</time></trkpt><trkpt lat="43.7566016" lon="11.4109717"><ele>408.66666666666663</ele><time>2026-05-03T06:46:05.995Z</time></trkpt><trkpt lat="43.7565534" lon="11.4110382"><ele>407.5</ele><time>2026-05-03T06:46:06.995Z</time></trkpt><trkpt lat="43.7565549" lon="11.411181"><ele>406.3333333333333</ele><time>2026-05-03T06:46:08.995Z</time></trkpt><trkpt lat="43.756562" lon="11.4113039"><ele>405.16666666666663</ele><time>2026-05-03T06:46:09.993Z</time></trkpt><trkpt lat="43.7565387" lon="11.4114256"><ele>404.0</ele><time>2026-05-03T06:46:10.995Z</time></trkpt><trkpt lat="43.7565004" lon="11.4115421"><ele>402.99999999999994</ele><time>2026-05-03T06:46:11.994Z</time></trkpt><trkpt lat="43.7564572" lon="11.411673"><ele>402.0</ele><time>2026-05-03T06:46:12.993Z</time></trkpt><trkpt lat="43.756406" lon="11.4117683"><ele>401.0</ele><time>2026-05-03T06:46:13.995Z</time></trkpt><trkpt lat="43.7563628" lon="11.411857"><ele>400.0</ele><time>2026-05-03T06:46:14.995Z</time></trkpt><trkpt lat="43.7563413" lon="11.41196"><ele>398.99999999999994</ele><time>2026-05-03T06:46:15.995Z</time></trkpt><trkpt lat="43.7563149" lon="11.412056"><ele>398.0</ele><time>2026-05-03T06:46:16.995Z</time></trkpt><trkpt lat="43.7563558" lon="11.4122439"><ele>395.79999999999995</ele><time>2026-05-03T06:46:18.994Z</time></trkpt><trkpt lat="43.7563437" lon="11.4123478"><ele>393.6</ele><time>2026-05-03T06:46:19.995Z</time></trkpt><trkpt lat="43.7563247" lon="11.412467"><ele>391.4</ele><time>2026-05-03T06:46:20.994Z</time></trkpt><trkpt lat="43.7563055" lon="11.4126199"><ele>389.20000000000005</ele><time>2026-05-03T06:46:21.995Z</time></trkpt><trkpt lat="43.7562826" lon="11.4127807"><ele>387.0</ele><time>2026-05-03T06:46:22.995Z</time></trkpt><trkpt lat="43.7562658" lon="11.4129241"><ele>385.20000000000005</ele><time>2026-05-03T06:46:23.995Z</time></trkpt><trkpt lat="43.7562592" lon="11.4130613"><ele>383.4</ele><time>2026-05-03T06:46:24.994Z</time></trkpt><trkpt lat="43.7562677" lon="11.4132109"><ele>381.6</ele><time>2026-05-03T06:46:25.994Z</time></trkpt><trkpt lat="43.7563242" lon="11.413344"><ele>379.79999999999995</ele><time>2026-05-03T06:46:26.995Z</time></trkpt><trkpt lat="43.7563556" lon="11.4134592"><ele>378.0</ele><time>2026-05-03T06:46:27.995Z</time></trkpt><trkpt lat="43.7563844" lon="11.4135761"><ele>378.0</ele><time>2026-05-03T06:46:28.994Z</time></trkpt><trkpt lat="43.7564009" lon="11.4137359"><ele>378.0</ele><time>2026-05-03T06:46:30.995Z</time></trkpt><trkpt lat="43.7563835" lon="11.4138317"><ele>378.0</ele><time>2026-05-03T06:46:31.995Z</time></trkpt><trkpt lat="43.7563439" lon="11.4139185"><ele>378.0</ele><time>2026-05-03T06:46:32.994Z</time></trkpt><trkpt lat="43.7563001" lon="11.4139846"><ele>378.0</ele><time>2026-05-03T06:46:33.994Z</time></trkpt><trkpt lat="43.7562532" lon="11.4140651"><ele>378.0</ele><time>2026-05-03T06:46:34.994Z</time></trkpt><trkpt lat="43.756224" lon="11.4141549"><ele>375.75</ele><time>2026-05-03T06:46:35.994Z</time></trkpt><trkpt lat="43.7561938" lon="11.4142645"><ele>373.5</ele><time>2026-05-03T06:46:36.994Z</time></trkpt><trkpt lat="43.7560698" lon="11.4144898"><ele>371.25</ele><time>2026-05-03T06:46:38.995Z</time></trkpt><trkpt lat="43.7559838" lon="11.4145626"><ele>369.0</ele><time>2026-05-03T06:46:39.995Z</time></trkpt><trkpt lat="43.7559074" lon="11.4146641"><ele>366.5</ele><time>2026-05-03T06:46:40.995Z</time></trkpt><trkpt lat="43.7558524" lon="11.4147443"><ele>364.0</ele><time>2026-05-03T06:46:41.994Z</time></trkpt><trkpt lat="43.7557538" lon="11.414848"><ele>361.5</ele><time>2026-05-03T06:46:42.995Z</time></trkpt><trkpt lat="43.7556476" lon="11.4149645"><ele>359.0</ele><time>2026-05-03T06:46:43.994Z</time></trkpt><trkpt lat="43.7555475" lon="11.4151181"><ele>359.0</ele><time>2026-05-03T06:46:44.995Z</time></trkpt><trkpt lat="43.7554448" lon="11.415274"><ele>359.0</ele><time>2026-05-03T06:46:45.995Z</time></trkpt><trkpt lat="43.7553455" lon="11.4154183"><ele>359.0</ele><time>2026-05-03T06:46:46.994Z</time></trkpt><trkpt lat="43.7552522" lon="11.4155727"><ele>359.0</ele><time>2026-05-03T06:46:47.995Z</time></trkpt><trkpt lat="43.7551609" lon="11.4157034"><ele>355.0</ele><time>2026-05-03T06:46:48.995Z</time></trkpt><trkpt lat="43.7550738" lon="11.4158235"><ele>351.0</ele><time>2026-05-03T06:46:49.995Z</time></trkpt><trkpt lat="43.7549823" lon="11.4159509"><ele>347.0</ele><time>2026-05-03T06:46:50.995Z</time></trkpt><trkpt lat="43.7548938" lon="11.4160721"><ele>343.0</ele><time>2026-05-03T06:46:51.995Z</time></trkpt><trkpt lat="43.7548073" lon="11.4161868"><ele>343.0</ele><time>2026-05-03T06:46:52.994Z</time></trkpt><trkpt lat="43.7547291" lon="11.4162888"><ele>343.0</ele><time>2026-05-03T06:46:53.995Z</time></trkpt><trkpt lat="43.7546664" lon="11.4163763"><ele>343.0</ele><time>2026-05-03T06:46:54.995Z</time></trkpt><trkpt lat="43.7546274" lon="11.416466"><ele>343.0</ele><time>2026-05-03T06:46:55.994Z</time></trkpt><trkpt lat="43.7546177" lon="11.4165688"><ele>343.0</ele><time>2026-05-03T06:46:56.994Z</time></trkpt><trkpt lat="43.7546299" lon="11.416667"><ele>343.0</ele><time>2026-05-03T06:46:57.995Z</time></trkpt><trkpt lat="43.7546482" lon="11.4167683"><ele>342.66666666666663</ele><time>2026-05-03T06:46:58.995Z</time></trkpt><trkpt lat="43.754669" lon="11.4168758"><ele>342.3333333333333</ele><time>2026-05-03T06:46:59.995Z</time></trkpt><trkpt lat="43.7546894" lon="11.4169632"><ele>342.0</ele><time>2026-05-03T06:47:00.995Z</time></trkpt><trkpt lat="43.7547062" lon="11.4170609"><ele>341.6666666666667</ele><time>2026-05-03T06:47:01.995Z</time></trkpt><trkpt lat="43.7547141" lon="11.417149"><ele>341.33333333333337</ele><time>2026-05-03T06:47:02.995Z</time></trkpt><trkpt lat="43.7547304" lon="11.4173044"><ele>341.0</ele><time>2026-05-03T06:47:04.995Z</time></trkpt><trkpt lat="43.7547576" lon="11.4174123"><ele>339.8</ele><time>2026-05-03T06:47:06.995Z</time></trkpt><trkpt lat="43.7548006" lon="11.4174828"><ele>338.6</ele><time>2026-05-03T06:47:09.994Z</time></trkpt><trkpt lat="43.7548822" lon="11.4174982"><ele>337.4</ele><time>2026-05-03T06:47:18.995Z</time></trkpt><trkpt lat="43.7549645" lon="11.417521"><ele>336.2</ele><time>2026-05-03T06:47:20.994Z</time></trkpt><trkpt lat="43.7550762" lon="11.4176482"><ele>335.0</ele><time>2026-05-03T06:47:22.994Z</time></trkpt><trkpt lat="43.7551293" lon="11.417724"><ele>334.8</ele><time>2026-05-03T06:47:23.995Z</time></trkpt><trkpt lat="43.7552338" lon="11.4178554"><ele>334.6</ele><time>2026-05-03T06:47:25.995Z</time></trkpt><trkpt lat="43.755353" lon="11.4179108"><ele>334.4</ele><time>2026-05-03T06:47:27.995Z</time></trkpt><trkpt lat="43.7554165" lon="11.4178942"><ele>334.2</ele><time>2026-05-03T06:47:28.994Z</time></trkpt><trkpt lat="43.7554997" lon="11.4178811"><ele>334.0</ele><time>2026-05-03T06:47:29.995Z</time></trkpt><trkpt lat="43.7556074" lon="11.4178434"><ele>334.0</ele><time>2026-05-03T06:47:30.995Z</time></trkpt><trkpt lat="43.7557055" lon="11.4178221"><ele>334.0</ele><time>2026-05-03T06:47:31.993Z</time></trkpt><trkpt lat="43.7558001" lon="11.4178085"><ele>334.0</ele><time>2026-05-03T06:47:32.995Z</time></trkpt><trkpt lat="43.7559076" lon="11.4178162"><ele>334.0</ele><time>2026-05-03T06:47:33.995Z</time></trkpt><trkpt lat="43.755978" lon="11.4178379"><ele>334.0</ele><time>2026-05-03T06:47:34.994Z</time></trkpt><trkpt lat="43.7560783" lon="11.4178575"><ele>330.8333333333333</ele><time>2026-05-03T06:47:35.994Z</time></trkpt><trkpt lat="43.7561799" lon="11.4178621"><ele>327.66666666666663</ele><time>2026-05-03T06:47:36.994Z</time></trkpt><trkpt lat="43.756257" lon="11.4178444"><ele>324.5</ele><time>2026-05-03T06:47:37.995Z</time></trkpt><trkpt lat="43.7563558" lon="11.417813"><ele>321.3333333333333</ele><time>2026-05-03T06:47:38.995Z</time></trkpt><trkpt lat="43.7564521" lon="11.417778"><ele>318.1666666666667</ele><time>2026-05-03T06:47:39.994Z</time></trkpt><trkpt lat="43.7564444" lon="11.4176883"><ele>315.0</ele><time>2026-05-03T06:47:40.995Z</time></trkpt><trkpt lat="43.7565101" lon="11.4175885"><ele>315.0</ele><time>2026-05-03T06:47:41.995Z</time></trkpt><trkpt lat="43.7565616" lon="11.4174864"><ele>315.0</ele><time>2026-05-03T06:47:42.994Z</time></trkpt><trkpt lat="43.7565984" lon="11.4173482"><ele>315.0</ele><time>2026-05-03T06:47:43.995Z</time></trkpt><trkpt lat="43.7566151" lon="11.4172344"><ele>315.0</ele><time>2026-05-03T06:47:44.995Z</time></trkpt><trkpt lat="43.7566039" lon="11.4170614"><ele>315.0</ele><time>2026-05-03T06:47:45.995Z</time></trkpt><trkpt lat="43.7566189" lon="11.4169239"><ele>316.6</ele><time>2026-05-03T06:47:46.994Z</time></trkpt><trkpt lat="43.7566502" lon="11.4167795"><ele>318.2</ele><time>2026-05-03T06:47:47.995Z</time></trkpt><trkpt lat="43.7566608" lon="11.4166455"><ele>319.79999999999995</ele><time>2026-05-03T06:47:48.995Z</time></trkpt><trkpt lat="43.756671" lon="11.4165148"><ele>321.4</ele><time>2026-05-03T06:47:49.994Z</time></trkpt><trkpt lat="43.7566859" lon="11.416394"><ele>323.0</ele><time>2026-05-03T06:47:50.995Z</time></trkpt><trkpt lat="43.7567115" lon="11.4162153"><ele>323.0</ele><time>2026-05-03T06:47:52.994Z</time></trkpt><trkpt lat="43.7567816" lon="11.4163018"><ele>323.0</ele><time>2026-05-03T06:47:54.994Z</time></trkpt><trkpt lat="43.756819" lon="11.4164458"><ele>323.0</ele><time>2026-05-03T06:47:56.995Z</time></trkpt><trkpt lat="43.756832" lon="11.4166267"><ele>323.0</ele><time>2026-05-03T06:47:58.994Z</time></trkpt><trkpt lat="43.7568353" lon="11.416735"><ele>323.0</ele><time>2026-05-03T06:47:59.993Z</time></trkpt><trkpt lat="43.7568351" lon="11.4168443"><ele>319.1666666666667</ele><time>2026-05-03T06:48:00.994Z</time></trkpt><trkpt lat="43.7568801" lon="11.4169499"><ele>315.33333333333337</ele><time>2026-05-03T06:48:01.994Z</time></trkpt><trkpt lat="43.7569059" lon="11.4171222"><ele>311.5</ele><time>2026-05-03T06:48:03.995Z</time></trkpt><trkpt lat="43.7569252" lon="11.417224"><ele>307.6666666666667</ele><time>2026-05-03T06:48:04.995Z</time></trkpt><trkpt lat="43.7569247" lon="11.4173162"><ele>303.8333333333333</ele><time>2026-05-03T06:48:05.995Z</time></trkpt><trkpt lat="43.7569385" lon="11.4174392"><ele>300.0</ele><time>2026-05-03T06:48:06.994Z</time></trkpt><trkpt lat="43.7569478" lon="11.4175531"><ele>296.8333333333333</ele><time>2026-05-03T06:48:07.995Z</time></trkpt><trkpt lat="43.7569795" lon="11.4176852"><ele>293.6666666666667</ele><time>2026-05-03T06:48:08.995Z</time></trkpt><trkpt lat="43.757023" lon="11.417793"><ele>290.5</ele><time>2026-05-03T06:48:09.995Z</time></trkpt><trkpt lat="43.7570643" lon="11.4178928"><ele>287.33333333333337</ele><time>2026-05-03T06:48:10.995Z</time></trkpt><trkpt lat="43.7571082" lon="11.4179843"><ele>284.1666666666667</ele><time>2026-05-03T06:48:11.995Z</time></trkpt><trkpt lat="43.7571258" lon="11.4180955"><ele>281.0</ele><time>2026-05-03T06:48:12.993Z</time></trkpt><trkpt lat="43.7571432" lon="11.4181843"><ele>279.1666666666667</ele><time>2026-05-03T06:48:13.994Z</time></trkpt><trkpt lat="43.7571385" lon="11.4182894"><ele>277.33333333333337</ele><time>2026-05-03T06:48:14.994Z</time></trkpt><trkpt lat="43.7570944" lon="11.4183757"><ele>275.5</ele><time>2026-05-03T06:48:15.995Z</time></trkpt><trkpt lat="43.7570726" lon="11.4184717"><ele>273.6666666666667</ele><time>2026-05-03T06:48:16.995Z</time></trkpt><trkpt lat="43.7570302" lon="11.4185798"><ele>271.8333333333333</ele><time>2026-05-03T06:48:17.994Z</time></trkpt><trkpt lat="43.7569511" lon="11.4186935"><ele>270.0</ele><time>2026-05-03T06:48:18.994Z</time></trkpt><trkpt lat="43.7568974" lon="11.418803"><ele>270.0</ele><time>2026-05-03T06:48:19.995Z</time></trkpt><trkpt lat="43.7568249" lon="11.4188814"><ele>270.0</ele><time>2026-05-03T06:48:20.995Z</time></trkpt><trkpt lat="43.7567681" lon="11.4189736"><ele>270.0</ele><time>2026-05-03T06:48:21.994Z</time></trkpt><trkpt lat="43.7567006" lon="11.4190706"><ele>270.0</ele><time>2026-05-03T06:48:22.994Z</time></trkpt><trkpt lat="43.7566362" lon="11.4191268"><ele>270.0</ele><time>2026-05-03T06:48:23.995Z</time></trkpt><trkpt lat="43.7565521" lon="11.4191873"><ele>270.0</ele><time>2026-05-03T06:48:24.995Z</time></trkpt><trkpt lat="43.7564973" lon="11.4192678"><ele>270.0</ele><time>2026-05-03T06:48:25.995Z</time></trkpt><trkpt lat="43.7564236" lon="11.4193402"><ele>270.0</ele><time>2026-05-03T06:48:26.994Z</time></trkpt><trkpt lat="43.7563687" lon="11.4193941"><ele>270.0</ele><time>2026-05-03T06:48:27.995Z</time></trkpt><trkpt lat="43.7563009" lon="11.4193872"><ele>270.0</ele><time>2026-05-03T06:48:28.995Z</time></trkpt><trkpt lat="43.7562404" lon="11.4194731"><ele>270.0</ele><time>2026-05-03T06:48:29.995Z</time></trkpt><trkpt lat="43.756167" lon="11.4196303"><ele>270.0</ele><time>2026-05-03T06:48:31.994Z</time></trkpt><trkpt lat="43.7561326" lon="11.419718"><ele>263.6</ele><time>2026-05-03T06:48:32.995Z</time></trkpt><trkpt lat="43.7561076" lon="11.4198008"><ele>257.2</ele><time>2026-05-03T06:48:33.993Z</time></trkpt><trkpt lat="43.7560883" lon="11.4199404"><ele>250.8</ele><time>2026-05-03T06:48:35.994Z</time></trkpt><trkpt lat="43.7561244" lon="11.4201026"><ele>244.4</ele><time>2026-05-03T06:48:37.994Z</time></trkpt><trkpt lat="43.7561235" lon="11.4202002"><ele>238.0</ele><time>2026-05-03T06:48:38.995Z</time></trkpt><trkpt lat="43.7561519" lon="11.4203628"><ele>237.99999999999997</ele><time>2026-05-03T06:48:40.995Z</time></trkpt><trkpt lat="43.7561762" lon="11.420496"><ele>238.0</ele><time>2026-05-03T06:48:42.996Z</time></trkpt><trkpt lat="43.7561355" lon="11.4205794"><ele>238.0</ele><time>2026-05-03T06:48:44.996Z</time></trkpt><trkpt lat="43.7561976" lon="11.4205445"><ele>238.0</ele><time>2026-05-03T06:49:19.995Z</time></trkpt><trkpt lat="43.75626" lon="11.4204097"><ele>237.99999999999997</ele><time>2026-05-03T06:49:22.995Z</time></trkpt><trkpt lat="43.7563148" lon="11.4203395"><ele>238.0</ele><time>2026-05-03T06:49:23.995Z</time></trkpt><trkpt lat="43.756366" lon="11.4202618"><ele>237.99999999999997</ele><time>2026-05-03T06:49:24.996Z</time></trkpt><trkpt lat="43.7564109" lon="11.4201867"><ele>238.0</ele><time>2026-05-03T06:49:25.996Z</time></trkpt><trkpt lat="43.7564666" lon="11.4201109"><ele>238.0</ele><time>2026-05-03T06:49:26.996Z</time></trkpt><trkpt lat="43.7565445" lon="11.4200468"><ele>238.0</ele><time>2026-05-03T06:49:27.994Z</time></trkpt><trkpt lat="43.7566149" lon="11.4199892"><ele>237.99999999999997</ele><time>2026-05-03T06:49:28.994Z</time></trkpt><trkpt lat="43.7567072" lon="11.4199462"><ele>238.0</ele><time>2026-05-03T06:49:29.994Z</time></trkpt><trkpt lat="43.7567885" lon="11.4199066"><ele>232.2</ele><time>2026-05-03T06:49:30.996Z</time></trkpt><trkpt lat="43.7568861" lon="11.4198522"><ele>226.4</ele><time>2026-05-03T06:49:31.996Z</time></trkpt><trkpt lat="43.7569945" lon="11.4198247"><ele>220.6</ele><time>2026-05-03T06:49:32.996Z</time></trkpt><trkpt lat="43.7570917" lon="11.4197907"><ele>214.79999999999998</ele><time>2026-05-03T06:49:33.996Z</time></trkpt><trkpt lat="43.7571961" lon="11.4197497"><ele>209.0</ele><time>2026-05-03T06:49:34.996Z</time></trkpt><trkpt lat="43.7572961" lon="11.4197235"><ele>209.0</ele><time>2026-05-03T06:49:35.996Z</time></trkpt><trkpt lat="43.7574044" lon="11.4196813"><ele>209.0</ele><time>2026-05-03T06:49:36.996Z</time></trkpt><trkpt lat="43.7575133" lon="11.4196283"><ele>209.0</ele><time>2026-05-03T06:49:37.995Z</time></trkpt><trkpt lat="43.7576297" lon="11.4195862"><ele>209.0</ele><time>2026-05-03T06:49:38.996Z</time></trkpt><trkpt lat="43.7577292" lon="11.4195227"><ele>209.5</ele><time>2026-05-03T06:49:39.996Z</time></trkpt><trkpt lat="43.7578366" lon="11.4194679"><ele>210.0</ele><time>2026-05-03T06:49:40.996Z</time></trkpt><trkpt lat="43.7579562" lon="11.4193977"><ele>210.5</ele><time>2026-05-03T06:49:41.995Z</time></trkpt><trkpt lat="43.7580762" lon="11.4192899"><ele>211.0</ele><time>2026-05-03T06:49:42.995Z</time></trkpt><trkpt lat="43.7581956" lon="11.4192147"><ele>211.0</ele><time>2026-05-03T06:49:43.995Z</time></trkpt><trkpt lat="43.7583169" lon="11.41914"><ele>211.0</ele><time>2026-05-03T06:49:44.996Z</time></trkpt><trkpt lat="43.7584334" lon="11.419051"><ele>211.0</ele><time>2026-05-03T06:49:45.995Z</time></trkpt><trkpt lat="43.7585391" lon="11.4189746"><ele>211.0</ele><time>2026-05-03T06:49:46.994Z</time></trkpt><trkpt lat="43.7586512" lon="11.4189006"><ele>212.0</ele><time>2026-05-03T06:49:47.995Z</time></trkpt><trkpt lat="43.7587537" lon="11.418806"><ele>213.0</ele><time>2026-05-03T06:49:48.995Z</time></trkpt><trkpt lat="43.7588174" lon="11.4186848"><ele>214.00000000000003</ele><time>2026-05-03T06:49:49.995Z</time></trkpt><trkpt lat="43.7587992" lon="11.4185285"><ele>215.0</ele><time>2026-05-03T06:49:50.996Z</time></trkpt><trkpt lat="43.7588317" lon="11.4184094"><ele>216.0</ele><time>2026-05-03T06:49:51.995Z</time></trkpt><trkpt lat="43.7588773" lon="11.4182921"><ele>216.0</ele><time>2026-05-03T06:49:52.995Z</time></trkpt><trkpt lat="43.7589683" lon="11.418264"><ele>216.00000000000003</ele><time>2026-05-03T06:49:53.995Z</time></trkpt><trkpt lat="43.7590535" lon="11.4182232"><ele>216.00000000000003</ele><time>2026-05-03T06:49:54.994Z</time></trkpt><trkpt lat="43.7591593" lon="11.4182636"><ele>216.0</ele><time>2026-05-03T06:49:56.996Z</time></trkpt><trkpt lat="43.759238" lon="11.4182972"><ele>216.0</ele><time>2026-05-03T06:49:57.996Z</time></trkpt><trkpt lat="43.7592907" lon="11.4184153"><ele>216.0</ele><time>2026-05-03T06:49:58.996Z</time></trkpt><trkpt lat="43.7593468" lon="11.4184972"><ele>216.00000000000003</ele><time>2026-05-03T06:49:59.996Z</time></trkpt><trkpt lat="43.7594082" lon="11.4186324"><ele>216.00000000000003</ele><time>2026-05-03T06:50:00.996Z</time></trkpt><trkpt lat="43.7594875" lon="11.41875"><ele>216.0</ele><time>2026-05-03T06:50:01.996Z</time></trkpt><trkpt lat="43.759584" lon="11.4188796"><ele>216.0</ele><time>2026-05-03T06:50:02.996Z</time></trkpt><trkpt lat="43.7596712" lon="11.418997"><ele>215.20000000000002</ele><time>2026-05-03T06:50:03.996Z</time></trkpt><trkpt lat="43.7597571" lon="11.4191278"><ele>214.40000000000003</ele><time>2026-05-03T06:50:04.995Z</time></trkpt><trkpt lat="43.7598354" lon="11.4192422"><ele>213.6</ele><time>2026-05-03T06:50:05.996Z</time></trkpt><trkpt lat="43.7599098" lon="11.4193482"><ele>212.8</ele><time>2026-05-03T06:50:06.996Z</time></trkpt><trkpt lat="43.7599725" lon="11.419448"><ele>212.0</ele><time>2026-05-03T06:50:07.995Z</time></trkpt><trkpt lat="43.7600362" lon="11.4195291"><ele>212.00000000000003</ele><time>2026-05-03T06:50:08.996Z</time></trkpt><trkpt lat="43.7601047" lon="11.4195739"><ele>212.0</ele><time>2026-05-03T06:50:09.996Z</time></trkpt><trkpt lat="43.7601737" lon="11.4195916"><ele>212.0</ele><time>2026-05-03T06:50:10.995Z</time></trkpt><trkpt lat="43.7602477" lon="11.4195881"><ele>212.0</ele><time>2026-05-03T06:50:11.995Z</time></trkpt><trkpt lat="43.7603265" lon="11.4195892"><ele>212.00000000000003</ele><time>2026-05-03T06:50:12.995Z</time></trkpt><trkpt lat="43.7604124" lon="11.4195636"><ele>212.0</ele><time>2026-05-03T06:50:13.996Z</time></trkpt><trkpt lat="43.7604937" lon="11.4195427"><ele>212.6</ele><time>2026-05-03T06:50:14.996Z</time></trkpt><trkpt lat="43.7605859" lon="11.4195132"><ele>213.2</ele><time>2026-05-03T06:50:15.996Z</time></trkpt><trkpt lat="43.7606849" lon="11.4194657"><ele>213.8</ele><time>2026-05-03T06:50:16.996Z</time></trkpt><trkpt lat="43.7607916" lon="11.4194171"><ele>214.4</ele><time>2026-05-03T06:50:17.995Z</time></trkpt><trkpt lat="43.7609006" lon="11.4193655"><ele>215.0</ele><time>2026-05-03T06:50:18.995Z</time></trkpt><trkpt lat="43.7610101" lon="11.4193221"><ele>215.0</ele><time>2026-05-03T06:50:19.996Z</time></trkpt><trkpt lat="43.7611198" lon="11.4192748"><ele>215.0</ele><time>2026-05-03T06:50:20.995Z</time></trkpt><trkpt lat="43.7612294" lon="11.4192237"><ele>215.0</ele><time>2026-05-03T06:50:21.996Z</time></trkpt><trkpt lat="43.7613382" lon="11.4191813"><ele>215.0</ele><time>2026-05-03T06:50:22.995Z</time></trkpt><trkpt lat="43.7614395" lon="11.4191365"><ele>215.0</ele><time>2026-05-03T06:50:23.996Z</time></trkpt><trkpt lat="43.7615383" lon="11.4190976"><ele>215.0</ele><time>2026-05-03T06:50:24.996Z</time></trkpt><trkpt lat="43.7616269" lon="11.419065"><ele>215.0</ele><time>2026-05-03T06:50:25.996Z</time></trkpt><trkpt lat="43.7617124" lon="11.4190211"><ele>215.0</ele><time>2026-05-03T06:50:26.996Z</time></trkpt><trkpt lat="43.7617868" lon="11.418993"><ele>215.0</ele><time>2026-05-03T06:50:27.995Z</time></trkpt><trkpt lat="43.7618918" lon="11.4190472"><ele>213.83333333333334</ele><time>2026-05-03T06:50:29.996Z</time></trkpt><trkpt lat="43.7619325" lon="11.4191208"><ele>212.66666666666669</ele><time>2026-05-03T06:50:30.996Z</time></trkpt><trkpt lat="43.7619796" lon="11.4192095"><ele>211.5</ele><time>2026-05-03T06:50:31.996Z</time></trkpt><trkpt lat="43.7620187" lon="11.4193091"><ele>210.33333333333331</ele><time>2026-05-03T06:50:32.996Z</time></trkpt><trkpt lat="43.7620883" lon="11.4193907"><ele>209.16666666666666</ele><time>2026-05-03T06:50:33.996Z</time></trkpt><trkpt lat="43.762146" lon="11.4194933"><ele>208.0</ele><time>2026-05-03T06:50:34.995Z</time></trkpt><trkpt lat="43.7622002" lon="11.4195919"><ele>208.66666666666666</ele><time>2026-05-03T06:50:35.995Z</time></trkpt><trkpt lat="43.7622501" lon="11.4196921"><ele>209.33333333333331</ele><time>2026-05-03T06:50:36.995Z</time></trkpt><trkpt lat="43.7623061" lon="11.4197913"><ele>210.0</ele><time>2026-05-03T06:50:37.996Z</time></trkpt><trkpt lat="43.7623382" lon="11.4199016"><ele>210.66666666666669</ele><time>2026-05-03T06:50:38.996Z</time></trkpt><trkpt lat="43.7623607" lon="11.4200098"><ele>211.33333333333334</ele><time>2026-05-03T06:50:39.996Z</time></trkpt><trkpt lat="43.7623773" lon="11.4201088"><ele>212.0</ele><time>2026-05-03T06:50:40.994Z</time></trkpt><trkpt lat="43.7623937" lon="11.4202595"><ele>212.00000000000003</ele><time>2026-05-03T06:50:42.995Z</time></trkpt><trkpt lat="43.7624482" lon="11.4203595"><ele>212.0</ele><time>2026-05-03T06:50:44.996Z</time></trkpt><trkpt lat="43.7625058" lon="11.4203229"><ele>212.0</ele><time>2026-05-03T06:50:45.996Z</time></trkpt><trkpt lat="43.7625961" lon="11.4203309"><ele>212.0</ele><time>2026-05-03T06:50:47.996Z</time></trkpt><trkpt lat="43.7626516" lon="11.4204209"><ele>212.00000000000003</ele><time>2026-05-03T06:50:49.996Z</time></trkpt><trkpt lat="43.7626967" lon="11.4205617"><ele>212.0</ele><time>2026-05-03T06:50:51.996Z</time></trkpt><trkpt lat="43.7627592" lon="11.4207057"><ele>210.42857142857144</ele><time>2026-05-03T06:50:53.996Z</time></trkpt><trkpt lat="43.7627961" lon="11.4207796"><ele>208.85714285714283</ele><time>2026-05-03T06:50:54.996Z</time></trkpt><trkpt lat="43.7628263" lon="11.4208594"><ele>207.28571428571428</ele><time>2026-05-03T06:50:55.996Z</time></trkpt><trkpt lat="43.762865" lon="11.4209351"><ele>205.71428571428572</ele><time>2026-05-03T06:50:56.994Z</time></trkpt><trkpt lat="43.7628997" lon="11.4210135"><ele>204.14285714285717</ele><time>2026-05-03T06:50:57.995Z</time></trkpt><trkpt lat="43.7629389" lon="11.4210888"><ele>202.57142857142856</ele><time>2026-05-03T06:50:58.995Z</time></trkpt><trkpt lat="43.7629736" lon="11.4211658"><ele>201.0</ele><time>2026-05-03T06:50:59.995Z</time></trkpt><trkpt lat="43.7630044" lon="11.4212426"><ele>201.7142857142857</ele><time>2026-05-03T06:51:00.996Z</time></trkpt><trkpt lat="43.7630617" lon="11.421372"><ele>202.42857142857144</ele><time>2026-05-03T06:51:02.996Z</time></trkpt><trkpt lat="43.7630943" lon="11.4214549"><ele>203.14285714285714</ele><time>2026-05-03T06:51:03.996Z</time></trkpt><trkpt lat="43.7631284" lon="11.421531"><ele>203.85714285714283</ele><time>2026-05-03T06:51:04.996Z</time></trkpt><trkpt lat="43.7631655" lon="11.4216038"><ele>204.57142857142856</ele><time>2026-05-03T06:51:05.996Z</time></trkpt><trkpt lat="43.7632083" lon="11.4216752"><ele>205.28571428571428</ele><time>2026-05-03T06:51:06.995Z</time></trkpt><trkpt lat="43.7632546" lon="11.4217445"><ele>206.0</ele><time>2026-05-03T06:51:07.996Z</time></trkpt><trkpt lat="43.763298" lon="11.4218201"><ele>206.00000000000003</ele><time>2026-05-03T06:51:08.995Z</time></trkpt><trkpt lat="43.7633453" lon="11.4218876"><ele>206.0</ele><time>2026-05-03T06:51:09.996Z</time></trkpt><trkpt lat="43.7633943" lon="11.4219581"><ele>206.0</ele><time>2026-05-03T06:51:10.995Z</time></trkpt><trkpt lat="43.7634473" lon="11.4220223"><ele>206.0</ele><time>2026-05-03T06:51:11.995Z</time></trkpt><trkpt lat="43.7635036" lon="11.4220798"><ele>206.00000000000003</ele><time>2026-05-03T06:51:12.995Z</time></trkpt><trkpt lat="43.7635584" lon="11.422136"><ele>206.0</ele><time>2026-05-03T06:51:13.996Z</time></trkpt><trkpt lat="43.7636597" lon="11.4222086"><ele>204.33333333333334</ele><time>2026-05-03T06:51:15.996Z</time></trkpt><trkpt lat="43.7637228" lon="11.4222718"><ele>202.66666666666669</ele><time>2026-05-03T06:51:17.996Z</time></trkpt><trkpt lat="43.7636938" lon="11.4223606"><ele>201.0</ele><time>2026-05-03T06:51:19.996Z</time></trkpt><trkpt lat="43.7636055" lon="11.4224443"><ele>199.33333333333331</ele><time>2026-05-03T06:51:21.996Z</time></trkpt><trkpt lat="43.7635396" lon="11.4224976"><ele>197.66666666666666</ele><time>2026-05-03T06:51:22.996Z</time></trkpt><trkpt lat="43.7634789" lon="11.4225249"><ele>196.0</ele><time>2026-05-03T06:51:23.996Z</time></trkpt><trkpt lat="43.7634045" lon="11.4225398"><ele>195.99999999999997</ele><time>2026-05-03T06:51:24.994Z</time></trkpt><trkpt lat="43.7633296" lon="11.4225371"><ele>196.0</ele><time>2026-05-03T06:51:25.996Z</time></trkpt><trkpt lat="43.7632599" lon="11.4225205"><ele>196.0</ele><time>2026-05-03T06:51:26.996Z</time></trkpt><trkpt lat="43.7631876" lon="11.4225012"><ele>196.0</ele><time>2026-05-03T06:51:27.996Z</time></trkpt><trkpt lat="43.7631235" lon="11.4224842"><ele>195.99999999999997</ele><time>2026-05-03T06:51:28.996Z</time></trkpt><trkpt lat="43.7630107" lon="11.4224393"><ele>196.0</ele><time>2026-05-03T06:51:30.996Z</time></trkpt><trkpt lat="43.7629745" lon="11.4225356"><ele>195.99999999999997</ele><time>2026-05-03T06:51:33.995Z</time></trkpt><trkpt lat="43.7630507" lon="11.4226456"><ele>196.0</ele><time>2026-05-03T06:51:35.996Z</time></trkpt><trkpt lat="43.7631019" lon="11.4227295"><ele>196.0</ele><time>2026-05-03T06:51:36.994Z</time></trkpt><trkpt lat="43.7631477" lon="11.4228145"><ele>196.0</ele><time>2026-05-03T06:51:37.996Z</time></trkpt><trkpt lat="43.7632013" lon="11.4228866"><ele>195.99999999999997</ele><time>2026-05-03T06:51:38.996Z</time></trkpt><trkpt lat="43.7632601" lon="11.422961"><ele>196.0</ele><time>2026-05-03T06:51:39.996Z</time></trkpt><trkpt lat="43.7633229" lon="11.4230366"><ele>192.49999999999997</ele><time>2026-05-03T06:51:40.996Z</time></trkpt><trkpt lat="43.7633867" lon="11.423114"><ele>189.0</ele><time>2026-05-03T06:51:41.996Z</time></trkpt><trkpt lat="43.7634502" lon="11.4231774"><ele>185.5</ele><time>2026-05-03T06:51:42.996Z</time></trkpt><trkpt lat="43.7635073" lon="11.4232398"><ele>182.0</ele><time>2026-05-03T06:51:43.995Z</time></trkpt><trkpt lat="43.7635967" lon="11.4233365"><ele>178.5</ele><time>2026-05-03T06:51:45.996Z</time></trkpt><trkpt lat="43.7636011" lon="11.4234346"><ele>175.0</ele><time>2026-05-03T06:51:47.996Z</time></trkpt><trkpt lat="43.7634961" lon="11.4234545"><ele>175.0</ele><time>2026-05-03T06:51:49.996Z</time></trkpt><trkpt lat="43.7634003" lon="11.4234424"><ele>175.0</ele><time>2026-05-03T06:51:50.995Z</time></trkpt><trkpt lat="43.763304" lon="11.4234181"><ele>175.0</ele><time>2026-05-03T06:51:51.995Z</time></trkpt><trkpt lat="43.7632004" lon="11.4233819"><ele>175.0</ele><time>2026-05-03T06:51:52.995Z</time></trkpt><trkpt lat="43.7630989" lon="11.4233452"><ele>175.0</ele><time>2026-05-03T06:51:53.996Z</time></trkpt><trkpt lat="43.7630127" lon="11.4233164"><ele>175.0</ele><time>2026-05-03T06:51:54.995Z</time></trkpt><trkpt lat="43.762938" lon="11.4232936"><ele>175.0</ele><time>2026-05-03T06:51:55.995Z</time></trkpt><trkpt lat="43.7628134" lon="11.4232902"><ele>175.0</ele><time>2026-05-03T06:51:57.995Z</time></trkpt><trkpt lat="43.7628116" lon="11.4234086"><ele>175.0</ele><time>2026-05-03T06:51:59.995Z</time></trkpt><trkpt lat="43.7628954" lon="11.4235102"><ele>175.0</ele><time>2026-05-03T06:52:02.995Z</time></trkpt><trkpt lat="43.7630338" lon="11.4236335"><ele>175.0</ele><time>2026-05-03T06:52:03.996Z</time></trkpt><trkpt lat="43.7631294" lon="11.4237076"><ele>175.0</ele><time>2026-05-03T06:52:04.995Z</time></trkpt><trkpt lat="43.7632227" lon="11.4237838"><ele>175.0</ele><time>2026-05-03T06:52:05.996Z</time></trkpt><trkpt lat="43.7633234" lon="11.4238528"><ele>175.0</ele><time>2026-05-03T06:52:06.996Z</time></trkpt><trkpt lat="43.7634076" lon="11.4238991"><ele>175.0</ele><time>2026-05-03T06:52:07.996Z</time></trkpt><trkpt lat="43.7634977" lon="11.4239497"><ele>167.4</ele><time>2026-05-03T06:52:08.995Z</time></trkpt><trkpt lat="43.7635951" lon="11.4239555"><ele>159.8</ele><time>2026-05-03T06:52:09.995Z</time></trkpt><trkpt lat="43.7636799" lon="11.4239901"><ele>152.2</ele><time>2026-05-03T06:52:10.995Z</time></trkpt><trkpt lat="43.7637632" lon="11.4239603"><ele>144.6</ele><time>2026-05-03T06:52:11.996Z</time></trkpt><trkpt lat="43.7638252" lon="11.4239035"><ele>137.0</ele><time>2026-05-03T06:52:12.995Z</time></trkpt><trkpt lat="43.7639191" lon="11.4238426"><ele>143.25</ele><time>2026-05-03T06:52:13.996Z</time></trkpt><trkpt lat="43.7640088" lon="11.4237256"><ele>149.5</ele><time>2026-05-03T06:52:14.996Z</time></trkpt><trkpt lat="43.764101" lon="11.4236189"><ele>155.75</ele><time>2026-05-03T06:52:15.996Z</time></trkpt><trkpt lat="43.7641646" lon="11.4235041"><ele>162.0</ele><time>2026-05-03T06:52:16.996Z</time></trkpt><trkpt lat="43.7642437" lon="11.4234035"><ele>162.0</ele><time>2026-05-03T06:52:17.995Z</time></trkpt><trkpt lat="43.7643141" lon="11.4233149"><ele>162.0</ele><time>2026-05-03T06:52:18.995Z</time></trkpt><trkpt lat="43.7643782" lon="11.4232839"><ele>162.0</ele><time>2026-05-03T06:52:19.995Z</time></trkpt><trkpt lat="43.7644666" lon="11.4232311"><ele>162.0</ele><time>2026-05-03T06:52:20.996Z</time></trkpt><trkpt lat="43.7645597" lon="11.4231681"><ele>162.0</ele><time>2026-05-03T06:52:21.994Z</time></trkpt><trkpt lat="43.7646482" lon="11.4231386"><ele>158.2</ele><time>2026-05-03T06:52:22.996Z</time></trkpt><trkpt lat="43.7647371" lon="11.423086"><ele>154.39999999999998</ele><time>2026-05-03T06:52:23.996Z</time></trkpt><trkpt lat="43.7648232" lon="11.4230452"><ele>150.60000000000002</ele><time>2026-05-03T06:52:24.996Z</time></trkpt><trkpt lat="43.7648972" lon="11.4230236"><ele>146.8</ele><time>2026-05-03T06:52:25.996Z</time></trkpt><trkpt lat="43.7649884" lon="11.4230486"><ele>143.0</ele><time>2026-05-03T06:52:26.995Z</time></trkpt><trkpt lat="43.7650842" lon="11.4230597"><ele>143.0</ele><time>2026-05-03T06:52:27.996Z</time></trkpt><trkpt lat="43.7651755" lon="11.4230613"><ele>143.0</ele><time>2026-05-03T06:52:28.996Z</time></trkpt><trkpt lat="43.7652541" lon="11.4230948"><ele>143.0</ele><time>2026-05-03T06:52:29.995Z</time></trkpt><trkpt lat="43.7653137" lon="11.4231516"><ele>143.0</ele><time>2026-05-03T06:52:30.995Z</time></trkpt><trkpt lat="43.765363" lon="11.4232201"><ele>143.0</ele><time>2026-05-03T06:52:31.996Z</time></trkpt><trkpt lat="43.7654135" lon="11.4233124"><ele>143.0</ele><time>2026-05-03T06:52:32.996Z</time></trkpt><trkpt lat="43.7654605" lon="11.4234086"><ele>141.8</ele><time>2026-05-03T06:52:33.994Z</time></trkpt><trkpt lat="43.765504" lon="11.4234989"><ele>140.60000000000002</ele><time>2026-05-03T06:52:34.995Z</time></trkpt><trkpt lat="43.7655425" lon="11.4235851"><ele>139.39999999999998</ele><time>2026-05-03T06:52:35.995Z</time></trkpt><trkpt lat="43.7655763" lon="11.4236727"><ele>138.2</ele><time>2026-05-03T06:52:36.996Z</time></trkpt><trkpt lat="43.7656564" lon="11.4237797"><ele>137.0</ele><time>2026-05-03T06:52:38.996Z</time></trkpt><trkpt lat="43.7657765" lon="11.4237737"><ele>137.0</ele><time>2026-05-03T06:52:40.995Z</time></trkpt><trkpt lat="43.7658652" lon="11.4237605"><ele>137.0</ele><time>2026-05-03T06:52:41.995Z</time></trkpt><trkpt lat="43.7659507" lon="11.4237193"><ele>137.0</ele><time>2026-05-03T06:52:42.996Z</time></trkpt><trkpt lat="43.766048" lon="11.4236708"><ele>137.0</ele><time>2026-05-03T06:52:43.996Z</time></trkpt><trkpt lat="43.7661493" lon="11.4235966"><ele>137.0</ele><time>2026-05-03T06:52:44.995Z</time></trkpt><trkpt lat="43.7662435" lon="11.4235491"><ele>133.0</ele><time>2026-05-03T06:52:45.996Z</time></trkpt><trkpt lat="43.7663334" lon="11.4234982"><ele>129.0</ele><time>2026-05-03T06:52:46.996Z</time></trkpt><trkpt lat="43.7664067" lon="11.4234271"><ele>124.99999999999999</ele><time>2026-05-03T06:52:47.995Z</time></trkpt><trkpt lat="43.7664911" lon="11.4233572"><ele>121.0</ele><time>2026-05-03T06:52:48.996Z</time></trkpt><trkpt lat="43.7665673" lon="11.4232804"><ele>117.0</ele><time>2026-05-03T06:52:49.996Z</time></trkpt><trkpt lat="43.7666343" lon="11.4231812"><ele>117.0</ele><time>2026-05-03T06:52:50.995Z</time></trkpt><trkpt lat="43.7666913" lon="11.4230656"><ele>116.99999999999999</ele><time>2026-05-03T06:52:51.996Z</time></trkpt><trkpt lat="43.7667521" lon="11.4229554"><ele>116.99999999999999</ele><time>2026-05-03T06:52:52.995Z</time></trkpt><trkpt lat="43.7668023" lon="11.4228509"><ele>117.0</ele><time>2026-05-03T06:52:53.994Z</time></trkpt><trkpt lat="43.766862" lon="11.422746"><ele>117.0</ele><time>2026-05-03T06:52:54.996Z</time></trkpt><trkpt lat="43.7669289" lon="11.4226428"><ele>116.83333333333333</ele><time>2026-05-03T06:52:55.996Z</time></trkpt><trkpt lat="43.7669913" lon="11.4225427"><ele>116.66666666666666</ele><time>2026-05-03T06:52:56.995Z</time></trkpt><trkpt lat="43.7670518" lon="11.4224458"><ele>116.5</ele><time>2026-05-03T06:52:57.996Z</time></trkpt><trkpt lat="43.767108" lon="11.4223691"><ele>116.33333333333333</ele><time>2026-05-03T06:52:58.996Z</time></trkpt><trkpt lat="43.7671675" lon="11.4222897"><ele>116.16666666666666</ele><time>2026-05-03T06:52:59.996Z</time></trkpt><trkpt lat="43.7672309" lon="11.4222136"><ele>116.0</ele><time>2026-05-03T06:53:00.996Z</time></trkpt><trkpt lat="43.7673007" lon="11.4221326"><ele>115.99999999999999</ele><time>2026-05-03T06:53:01.996Z</time></trkpt><trkpt lat="43.7673694" lon="11.422059"><ele>116.0</ele><time>2026-05-03T06:53:02.996Z</time></trkpt><trkpt lat="43.7674335" lon="11.422012"><ele>116.0</ele><time>2026-05-03T06:53:03.995Z</time></trkpt><trkpt lat="43.767538" lon="11.4219705"><ele>116.0</ele><time>2026-05-03T06:53:04.995Z</time></trkpt><trkpt lat="43.7676144" lon="11.4219329"><ele>115.99999999999999</ele><time>2026-05-03T06:53:05.996Z</time></trkpt><trkpt lat="43.7676853" lon="11.4218384"><ele>116.0</ele><time>2026-05-03T06:53:06.996Z</time></trkpt><trkpt lat="43.7677571" lon="11.4217971"><ele>112.71428571428574</ele><time>2026-05-03T06:53:07.995Z</time></trkpt><trkpt lat="43.7678192" lon="11.4217561"><ele>109.42857142857143</ele><time>2026-05-03T06:53:08.995Z</time></trkpt><trkpt lat="43.7678857" lon="11.4217532"><ele>106.14285714285715</ele><time>2026-05-03T06:53:09.994Z</time></trkpt><trkpt lat="43.7679615" lon="11.4217602"><ele>102.85714285714286</ele><time>2026-05-03T06:53:10.996Z</time></trkpt><trkpt lat="43.7680317" lon="11.4217751"><ele>99.57142857142858</ele><time>2026-05-03T06:53:11.995Z</time></trkpt><trkpt lat="43.768107" lon="11.4218028"><ele>96.28571428571429</ele><time>2026-05-03T06:53:12.994Z</time></trkpt><trkpt lat="43.7681731" lon="11.4218259"><ele>93.0</ele><time>2026-05-03T06:53:13.996Z</time></trkpt><trkpt lat="43.7682436" lon="11.4218164"><ele>93.00000000000001</ele><time>2026-05-03T06:53:14.995Z</time></trkpt><trkpt lat="43.7683188" lon="11.4217909"><ele>93.0</ele><time>2026-05-03T06:53:15.995Z</time></trkpt><trkpt lat="43.7683823" lon="11.4217412"><ele>93.0</ele><time>2026-05-03T06:53:16.996Z</time></trkpt><trkpt lat="43.7684413" lon="11.4216952"><ele>93.0</ele><time>2026-05-03T06:53:17.995Z</time></trkpt><trkpt lat="43.7685081" lon="11.4216645"><ele>93.0</ele><time>2026-05-03T06:53:18.995Z</time></trkpt><trkpt lat="43.7685752" lon="11.421608"><ele>93.00000000000001</ele><time>2026-05-03T06:53:19.996Z</time></trkpt><trkpt lat="43.7686367" lon="11.4215611"><ele>93.0</ele><time>2026-05-03T06:53:20.996Z</time></trkpt><trkpt lat="43.7687456" lon="11.4215014"><ele>91.4</ele><time>2026-05-03T06:53:22.995Z</time></trkpt><trkpt lat="43.7688631" lon="11.4215119"><ele>89.80000000000001</ele><time>2026-05-03T06:53:24.995Z</time></trkpt><trkpt lat="43.7689299" lon="11.4215579"><ele>88.2</ele><time>2026-05-03T06:53:25.995Z</time></trkpt><trkpt lat="43.7690075" lon="11.4216078"><ele>86.6</ele><time>2026-05-03T06:53:26.996Z</time></trkpt><trkpt lat="43.7690955" lon="11.4216509"><ele>85.0</ele><time>2026-05-03T06:53:27.995Z</time></trkpt><trkpt lat="43.7691791" lon="11.4217032"><ele>85.0</ele><time>2026-05-03T06:53:28.995Z</time></trkpt><trkpt lat="43.7692728" lon="11.4217415"><ele>85.0</ele><time>2026-05-03T06:53:29.996Z</time></trkpt><trkpt lat="43.7693627" lon="11.4217869"><ele>85.0</ele><time>2026-05-03T06:53:30.995Z</time></trkpt><trkpt lat="43.7694553" lon="11.4218266"><ele>85.0</ele><time>2026-05-03T06:53:31.994Z</time></trkpt><trkpt lat="43.7695381" lon="11.421856"><ele>85.0</ele><time>2026-05-03T06:53:32.995Z</time></trkpt><trkpt lat="43.7696127" lon="11.4218879"><ele>84.71428571428572</ele><time>2026-05-03T06:53:33.996Z</time></trkpt><trkpt lat="43.769679" lon="11.4219238"><ele>84.42857142857142</ele><time>2026-05-03T06:53:34.995Z</time></trkpt><trkpt lat="43.7697419" lon="11.4219778"><ele>84.14285714285714</ele><time>2026-05-03T06:53:35.996Z</time></trkpt><trkpt lat="43.7697912" lon="11.4220336"><ele>83.85714285714286</ele><time>2026-05-03T06:53:36.995Z</time></trkpt><trkpt lat="43.7698512" lon="11.4220731"><ele>83.57142857142858</ele><time>2026-05-03T06:53:37.996Z</time></trkpt><trkpt lat="43.7699201" lon="11.4221206"><ele>83.28571428571428</ele><time>2026-05-03T06:53:38.996Z</time></trkpt><trkpt lat="43.7700025" lon="11.4221535"><ele>83.0</ele><time>2026-05-03T06:53:39.996Z</time></trkpt><trkpt lat="43.7700791" lon="11.4221842"><ele>83.0</ele><time>2026-05-03T06:53:40.996Z</time></trkpt><trkpt lat="43.7701521" lon="11.4222061"><ele>83.0</ele><time>2026-05-03T06:53:41.994Z</time></trkpt><trkpt lat="43.770222" lon="11.422218"><ele>83.0</ele><time>2026-05-03T06:53:42.995Z</time></trkpt><trkpt lat="43.7703124" lon="11.4222472"><ele>83.0</ele><time>2026-05-03T06:53:44.996Z</time></trkpt><trkpt lat="43.7703253" lon="11.422401"><ele>83.0</ele><time>2026-05-03T06:53:47.996Z</time></trkpt><trkpt lat="43.7702871" lon="11.4224985"><ele>83.0</ele><time>2026-05-03T06:53:48.995Z</time></trkpt><trkpt lat="43.7702292" lon="11.4226309"><ele>83.0</ele><time>2026-05-03T06:53:49.995Z</time></trkpt><trkpt lat="43.770156" lon="11.4228086"><ele>83.0</ele><time>2026-05-03T06:53:50.995Z</time></trkpt><trkpt lat="43.7700927" lon="11.4229886"><ele>83.0</ele><time>2026-05-03T06:53:51.995Z</time></trkpt><trkpt lat="43.7700447" lon="11.4231352"><ele>83.0</ele><time>2026-05-03T06:53:52.996Z</time></trkpt><trkpt lat="43.7700193" lon="11.4232582"><ele>82.80000000000001</ele><time>2026-05-03T06:53:53.995Z</time></trkpt><trkpt lat="43.7700171" lon="11.4233559"><ele>82.6</ele><time>2026-05-03T06:53:54.996Z</time></trkpt><trkpt lat="43.7700886" lon="11.4234561"><ele>82.4</ele><time>2026-05-03T06:53:56.996Z</time></trkpt><trkpt lat="43.7701636" lon="11.4234831"><ele>82.19999999999999</ele><time>2026-05-03T06:53:57.996Z</time></trkpt><trkpt lat="43.7702622" lon="11.4235184"><ele>82.0</ele><time>2026-05-03T06:53:58.994Z</time></trkpt><trkpt lat="43.7703812" lon="11.4235623"><ele>81.0</ele><time>2026-05-03T06:53:59.995Z</time></trkpt><trkpt lat="43.7704876" lon="11.4235982"><ele>80.0</ele><time>2026-05-03T06:54:00.995Z</time></trkpt><trkpt lat="43.7706041" lon="11.4236399"><ele>79.0</ele><time>2026-05-03T06:54:01.996Z</time></trkpt><trkpt lat="43.770721" lon="11.4236936"><ele>78.0</ele><time>2026-05-03T06:54:02.995Z</time></trkpt><trkpt lat="43.7708445" lon="11.4237527"><ele>78.0</ele><time>2026-05-03T06:54:03.996Z</time></trkpt><trkpt lat="43.7709651" lon="11.4238038"><ele>78.0</ele><time>2026-05-03T06:54:04.996Z</time></trkpt><trkpt lat="43.7710778" lon="11.423849"><ele>78.0</ele><time>2026-05-03T06:54:05.995Z</time></trkpt><trkpt lat="43.7711859" lon="11.4239044"><ele>78.0</ele><time>2026-05-03T06:54:06.995Z</time></trkpt><trkpt lat="43.7712752" lon="11.423965"><ele>78.6</ele><time>2026-05-03T06:54:07.995Z</time></trkpt><trkpt lat="43.771338" lon="11.4240507"><ele>79.19999999999999</ele><time>2026-05-03T06:54:08.995Z</time></trkpt><trkpt lat="43.7713705" lon="11.4241633"><ele>79.8</ele><time>2026-05-03T06:54:09.995Z</time></trkpt><trkpt lat="43.7713722" lon="11.4242813"><ele>80.39999999999999</ele><time>2026-05-03T06:54:10.996Z</time></trkpt><trkpt lat="43.7713513" lon="11.4243993"><ele>81.0</ele><time>2026-05-03T06:54:11.996Z</time></trkpt><trkpt lat="43.7713169" lon="11.4245329"><ele>81.0</ele><time>2026-05-03T06:54:12.995Z</time></trkpt><trkpt lat="43.7712753" lon="11.4246767"><ele>81.0</ele><time>2026-05-03T06:54:13.996Z</time></trkpt><trkpt lat="43.771229" lon="11.4248362"><ele>81.0</ele><time>2026-05-03T06:54:14.996Z</time></trkpt><trkpt lat="43.7711774" lon="11.4250099"><ele>81.0</ele><time>2026-05-03T06:54:15.996Z</time></trkpt><trkpt lat="43.77112" lon="11.425201"><ele>81.0</ele><time>2026-05-03T06:54:16.995Z</time></trkpt><trkpt lat="43.7710586" lon="11.4254051"><ele>81.0</ele><time>2026-05-03T06:54:17.995Z</time></trkpt><trkpt lat="43.7709968" lon="11.425616"><ele>81.0</ele><time>2026-05-03T06:54:18.995Z</time></trkpt><trkpt lat="43.7709343" lon="11.4258323"><ele>80.33333333333333</ele><time>2026-05-03T06:54:19.996Z</time></trkpt><trkpt lat="43.7708713" lon="11.42605"><ele>79.66666666666666</ele><time>2026-05-03T06:54:20.996Z</time></trkpt><trkpt lat="43.7708098" lon="11.4262639"><ele>79.0</ele><time>2026-05-03T06:54:21.996Z</time></trkpt><trkpt lat="43.7707525" lon="11.4264648"><ele>79.0</ele><time>2026-05-03T06:54:22.995Z</time></trkpt><trkpt lat="43.7706964" lon="11.4266569"><ele>79.0</ele><time>2026-05-03T06:54:23.996Z</time></trkpt><trkpt lat="43.7706443" lon="11.4268345"><ele>79.0</ele><time>2026-05-03T06:54:24.995Z</time></trkpt><trkpt lat="43.7706033" lon="11.4270014"><ele>79.0</ele><time>2026-05-03T06:54:25.996Z</time></trkpt><trkpt lat="43.7705774" lon="11.4271727"><ele>79.4</ele><time>2026-05-03T06:54:26.996Z</time></trkpt><trkpt lat="43.7705766" lon="11.427328"><ele>79.80000000000001</ele><time>2026-05-03T06:54:27.996Z</time></trkpt><trkpt lat="43.7706052" lon="11.4274526"><ele>80.19999999999999</ele><time>2026-05-03T06:54:28.995Z</time></trkpt><trkpt lat="43.7706601" lon="11.4275578"><ele>80.6</ele><time>2026-05-03T06:54:29.996Z</time></trkpt><trkpt lat="43.7707479" lon="11.4276367"><ele>81.0</ele><time>2026-05-03T06:54:30.996Z</time></trkpt><trkpt lat="43.7708613" lon="11.4276975"><ele>81.0</ele><time>2026-05-03T06:54:31.996Z</time></trkpt><trkpt lat="43.7709958" lon="11.4277557"><ele>81.0</ele><time>2026-05-03T06:54:32.996Z</time></trkpt><trkpt lat="43.7711259" lon="11.4278111"><ele>81.0</ele><time>2026-05-03T06:54:33.995Z</time></trkpt><trkpt lat="43.7712264" lon="11.4278734"><ele>81.0</ele><time>2026-05-03T06:54:34.996Z</time></trkpt><trkpt lat="43.7713069" lon="11.4279517"><ele>81.4</ele><time>2026-05-03T06:54:35.996Z</time></trkpt><trkpt lat="43.771354" lon="11.428052"><ele>81.8</ele><time>2026-05-03T06:54:36.996Z</time></trkpt><trkpt lat="43.7713594" lon="11.4281636"><ele>82.2</ele><time>2026-05-03T06:54:37.996Z</time></trkpt><trkpt lat="43.7713349" lon="11.4282904"><ele>82.60000000000001</ele><time>2026-05-03T06:54:38.997Z</time></trkpt><trkpt lat="43.7712944" lon="11.4284322"><ele>83.0</ele><time>2026-05-03T06:54:39.996Z</time></trkpt><trkpt lat="43.7712665" lon="11.4285748"><ele>83.0</ele><time>2026-05-03T06:54:40.997Z</time></trkpt><trkpt lat="43.7712624" lon="11.428711"><ele>83.0</ele><time>2026-05-03T06:54:41.997Z</time></trkpt><trkpt lat="43.7712821" lon="11.4288366"><ele>83.0</ele><time>2026-05-03T06:54:42.996Z</time></trkpt><trkpt lat="43.7713262" lon="11.4289365"><ele>83.0</ele><time>2026-05-03T06:54:43.996Z</time></trkpt><trkpt lat="43.7713795" lon="11.429009"><ele>83.0</ele><time>2026-05-03T06:54:44.996Z</time></trkpt><trkpt lat="43.7714416" lon="11.4291508"><ele>82.80000000000001</ele><time>2026-05-03T06:54:46.996Z</time></trkpt><trkpt lat="43.7714521" lon="11.4292451"><ele>82.6</ele><time>2026-05-03T06:54:47.997Z</time></trkpt><trkpt lat="43.7714444" lon="11.4293612"><ele>82.4</ele><time>2026-05-03T06:54:48.996Z</time></trkpt><trkpt lat="43.7714325" lon="11.4294898"><ele>82.19999999999999</ele><time>2026-05-03T06:54:49.997Z</time></trkpt><trkpt lat="43.7714213" lon="11.4296334"><ele>82.0</ele><time>2026-05-03T06:54:50.997Z</time></trkpt><trkpt lat="43.7714073" lon="11.4297792"><ele>82.5</ele><time>2026-05-03T06:54:51.997Z</time></trkpt><trkpt lat="43.7713971" lon="11.4299269"><ele>83.0</ele><time>2026-05-03T06:54:52.996Z</time></trkpt><trkpt lat="43.7713848" lon="11.4300705"><ele>83.5</ele><time>2026-05-03T06:54:53.996Z</time></trkpt><trkpt lat="43.7713714" lon="11.4302012"><ele>84.0</ele><time>2026-05-03T06:54:54.996Z</time></trkpt><trkpt lat="43.7713518" lon="11.4304125"><ele>84.0</ele><time>2026-05-03T06:54:56.996Z</time></trkpt><trkpt lat="43.7713321" lon="11.4305023"><ele>84.0</ele><time>2026-05-03T06:54:57.996Z</time></trkpt><trkpt lat="43.7713101" lon="11.4305913"><ele>84.0</ele><time>2026-05-03T06:54:58.996Z</time></trkpt><trkpt lat="43.7712951" lon="11.4306918"><ele>84.0</ele><time>2026-05-03T06:54:59.996Z</time></trkpt><trkpt lat="43.7713042" lon="11.4307964"><ele>84.0</ele><time>2026-05-03T06:55:00.996Z</time></trkpt><trkpt lat="43.7713144" lon="11.4309209"><ele>84.0</ele><time>2026-05-03T06:55:01.996Z</time></trkpt><trkpt lat="43.7713184" lon="11.4310591"><ele>84.0</ele><time>2026-05-03T06:55:02.997Z</time></trkpt><trkpt lat="43.7713091" lon="11.4312113"><ele>84.0</ele><time>2026-05-03T06:55:03.996Z</time></trkpt><trkpt lat="43.771296" lon="11.4313754"><ele>84.0</ele><time>2026-05-03T06:55:04.996Z</time></trkpt><trkpt lat="43.771279" lon="11.431546"><ele>84.0</ele><time>2026-05-03T06:55:05.997Z</time></trkpt><trkpt lat="43.7712629" lon="11.4317159"><ele>84.0</ele><time>2026-05-03T06:55:06.996Z</time></trkpt><trkpt lat="43.7712462" lon="11.4318891"><ele>84.0</ele><time>2026-05-03T06:55:07.996Z</time></trkpt><trkpt lat="43.7712293" lon="11.4320625"><ele>84.0</ele><time>2026-05-03T06:55:08.996Z</time></trkpt><trkpt lat="43.7712136" lon="11.4322378"><ele>84.0</ele><time>2026-05-03T06:55:09.997Z</time></trkpt><trkpt lat="43.7711929" lon="11.4324174"><ele>84.25</ele><time>2026-05-03T06:55:10.997Z</time></trkpt><trkpt lat="43.7711747" lon="11.4325962"><ele>84.5</ele><time>2026-05-03T06:55:11.997Z</time></trkpt><trkpt lat="43.7711574" lon="11.4327766"><ele>84.75</ele><time>2026-05-03T06:55:12.997Z</time></trkpt><trkpt lat="43.7711419" lon="11.4329502"><ele>85.0</ele><time>2026-05-03T06:55:13.997Z</time></trkpt><trkpt lat="43.7711251" lon="11.4331223"><ele>85.0</ele><time>2026-05-03T06:55:14.997Z</time></trkpt><trkpt lat="43.7711078" lon="11.4332952"><ele>85.0</ele><time>2026-05-03T06:55:15.997Z</time></trkpt><trkpt lat="43.7710873" lon="11.4334721"><ele>85.0</ele><time>2026-05-03T06:55:16.997Z</time></trkpt><trkpt lat="43.7710695" lon="11.4336501"><ele>85.0</ele><time>2026-05-03T06:55:17.997Z</time></trkpt><trkpt lat="43.7710528" lon="11.4338308"><ele>85.0</ele><time>2026-05-03T06:55:18.996Z</time></trkpt><trkpt lat="43.7710326" lon="11.4340113"><ele>85.0</ele><time>2026-05-03T06:55:19.997Z</time></trkpt><trkpt lat="43.7710123" lon="11.4341909"><ele>85.0</ele><time>2026-05-03T06:55:20.997Z</time></trkpt><trkpt lat="43.7709925" lon="11.4343733"><ele>85.0</ele><time>2026-05-03T06:55:21.995Z</time></trkpt><trkpt lat="43.7709707" lon="11.4345586"><ele>85.25</ele><time>2026-05-03T06:55:22.997Z</time></trkpt><trkpt lat="43.7709541" lon="11.4347409"><ele>85.5</ele><time>2026-05-03T06:55:23.996Z</time></trkpt><trkpt lat="43.7709364" lon="11.434925"><ele>85.75</ele><time>2026-05-03T06:55:24.997Z</time></trkpt><trkpt lat="43.7709164" lon="11.4351066"><ele>86.0</ele><time>2026-05-03T06:55:25.997Z</time></trkpt><trkpt lat="43.7709024" lon="11.4352695"><ele>86.0</ele><time>2026-05-03T06:55:26.997Z</time></trkpt><trkpt lat="43.7708837" lon="11.4354362"><ele>86.0</ele><time>2026-05-03T06:55:27.997Z</time></trkpt><trkpt lat="43.7708648" lon="11.4355994"><ele>86.0</ele><time>2026-05-03T06:55:28.997Z</time></trkpt><trkpt lat="43.7708487" lon="11.435759"><ele>86.0</ele><time>2026-05-03T06:55:29.996Z</time></trkpt><trkpt lat="43.7708313" lon="11.435912"><ele>86.0</ele><time>2026-05-03T06:55:30.995Z</time></trkpt><trkpt lat="43.7708145" lon="11.436051"><ele>86.0</ele><time>2026-05-03T06:55:31.996Z</time></trkpt><trkpt lat="43.7708001" lon="11.4361794"><ele>86.0</ele><time>2026-05-03T06:55:32.996Z</time></trkpt><trkpt lat="43.7707876" lon="11.4362956"><ele>86.0</ele><time>2026-05-03T06:55:33.997Z</time></trkpt><trkpt lat="43.7707742" lon="11.4364051"><ele>86.0</ele><time>2026-05-03T06:55:34.997Z</time></trkpt><trkpt lat="43.7707602" lon="11.4365011"><ele>86.0</ele><time>2026-05-03T06:55:35.997Z</time></trkpt><trkpt lat="43.7707266" lon="11.4366549"><ele>86.0</ele><time>2026-05-03T06:55:37.997Z</time></trkpt><trkpt lat="43.7707025" lon="11.4368098"><ele>86.0</ele><time>2026-05-03T06:55:39.997Z</time></trkpt><trkpt lat="43.77077" lon="11.4369049"><ele>86.0</ele><time>2026-05-03T06:55:41.997Z</time></trkpt><trkpt lat="43.7708751" lon="11.4369416"><ele>86.0</ele><time>2026-05-03T06:55:43.996Z</time></trkpt><trkpt lat="43.7709396" lon="11.4369763"><ele>86.0</ele><time>2026-05-03T06:55:44.997Z</time></trkpt><trkpt lat="43.7709845" lon="11.4370393"><ele>86.0</ele><time>2026-05-03T06:55:45.996Z</time></trkpt><trkpt lat="43.7710148" lon="11.4371328"><ele>86.0</ele><time>2026-05-03T06:55:46.996Z</time></trkpt><trkpt lat="43.7710223" lon="11.437242"><ele>86.0</ele><time>2026-05-03T06:55:47.996Z</time></trkpt><trkpt lat="43.7710152" lon="11.4373632"><ele>86.0</ele><time>2026-05-03T06:55:48.997Z</time></trkpt><trkpt lat="43.7710014" lon="11.4374969"><ele>86.0</ele><time>2026-05-03T06:55:49.997Z</time></trkpt><trkpt lat="43.7709861" lon="11.4376337"><ele>86.0</ele><time>2026-05-03T06:55:50.995Z</time></trkpt><trkpt lat="43.7709707" lon="11.4377571"><ele>86.0</ele><time>2026-05-03T06:55:51.996Z</time></trkpt><trkpt lat="43.7709461" lon="11.4378732"><ele>86.0</ele><time>2026-05-03T06:55:52.997Z</time></trkpt><trkpt lat="43.7709057" lon="11.437973"><ele>86.0</ele><time>2026-05-03T06:55:53.996Z</time></trkpt><trkpt lat="43.7708606" lon="11.438045"><ele>86.0</ele><time>2026-05-03T06:55:54.997Z</time></trkpt><trkpt lat="43.7707973" lon="11.4381194"><ele>86.0</ele><time>2026-05-03T06:55:55.997Z</time></trkpt><trkpt lat="43.7707451" lon="11.4382168"><ele>86.0</ele><time>2026-05-03T06:55:56.996Z</time></trkpt><trkpt lat="43.7707093" lon="11.4383257"><ele>85.6</ele><time>2026-05-03T06:55:57.997Z</time></trkpt><trkpt lat="43.7706837" lon="11.4384434"><ele>85.19999999999999</ele><time>2026-05-03T06:55:58.997Z</time></trkpt><trkpt lat="43.770666" lon="11.4385708"><ele>84.80000000000001</ele><time>2026-05-03T06:55:59.997Z</time></trkpt><trkpt lat="43.7706416" lon="11.4387158"><ele>84.4</ele><time>2026-05-03T06:56:00.997Z</time></trkpt><trkpt lat="43.7706148" lon="11.4388502"><ele>84.0</ele><time>2026-05-03T06:56:01.997Z</time></trkpt><trkpt lat="43.7705709" lon="11.4389677"><ele>84.0</ele><time>2026-05-03T06:56:02.996Z</time></trkpt><trkpt lat="43.7705112" lon="11.4390742"><ele>84.0</ele><time>2026-05-03T06:56:03.996Z</time></trkpt><trkpt lat="43.7704352" lon="11.4391684"><ele>84.0</ele><time>2026-05-03T06:56:04.996Z</time></trkpt><trkpt lat="43.7703549" lon="11.4392438"><ele>84.0</ele><time>2026-05-03T06:56:05.997Z</time></trkpt><trkpt lat="43.7702772" lon="11.4393172"><ele>84.0</ele><time>2026-05-03T06:56:06.996Z</time></trkpt><trkpt lat="43.7702037" lon="11.439379"><ele>83.33333333333333</ele><time>2026-05-03T06:56:07.997Z</time></trkpt><trkpt lat="43.7701095" lon="11.4394099"><ele>82.66666666666667</ele><time>2026-05-03T06:56:08.997Z</time></trkpt><trkpt lat="43.7700347" lon="11.4393956"><ele>82.0</ele><time>2026-05-03T06:56:09.997Z</time></trkpt><trkpt lat="43.769972" lon="11.4393617"><ele>81.33333333333334</ele><time>2026-05-03T06:56:10.997Z</time></trkpt><trkpt lat="43.7698926" lon="11.4392681"><ele>80.66666666666667</ele><time>2026-05-03T06:56:12.996Z</time></trkpt><trkpt lat="43.7698544" lon="11.4391901"><ele>80.0</ele><time>2026-05-03T06:56:13.997Z</time></trkpt><trkpt lat="43.7698154" lon="11.4390951"><ele>80.0</ele><time>2026-05-03T06:56:14.997Z</time></trkpt><trkpt lat="43.7697821" lon="11.4389864"><ele>80.0</ele><time>2026-05-03T06:56:15.996Z</time></trkpt><trkpt lat="43.7697825" lon="11.4388768"><ele>80.0</ele><time>2026-05-03T06:56:16.996Z</time></trkpt><trkpt lat="43.7698099" lon="11.4387754"><ele>80.0</ele><time>2026-05-03T06:56:17.997Z</time></trkpt><trkpt lat="43.7698622" lon="11.4387159"><ele>80.0</ele><time>2026-05-03T06:56:18.996Z</time></trkpt><trkpt lat="43.7699665" lon="11.4387518"><ele>80.0</ele><time>2026-05-03T06:56:20.996Z</time></trkpt><trkpt lat="43.770014" lon="11.4388454"><ele>80.0</ele><time>2026-05-03T06:56:21.997Z</time></trkpt><trkpt lat="43.7700649" lon="11.4389903"><ele>80.0</ele><time>2026-05-03T06:56:22.997Z</time></trkpt><trkpt lat="43.7701203" lon="11.4391367"><ele>80.0</ele><time>2026-05-03T06:56:23.996Z</time></trkpt><trkpt lat="43.7701823" lon="11.4392958"><ele>80.0</ele><time>2026-05-03T06:56:24.997Z</time></trkpt><trkpt lat="43.7702459" lon="11.4394571"><ele>80.5</ele><time>2026-05-03T06:56:25.996Z</time></trkpt><trkpt lat="43.7703077" lon="11.43962"><ele>81.0</ele><time>2026-05-03T06:56:26.997Z</time></trkpt><trkpt lat="43.7703749" lon="11.4397806"><ele>81.5</ele><time>2026-05-03T06:56:27.996Z</time></trkpt><trkpt lat="43.7704427" lon="11.4399499"><ele>82.0</ele><time>2026-05-03T06:56:28.997Z</time></trkpt><trkpt lat="43.7705107" lon="11.4401364"><ele>82.0</ele><time>2026-05-03T06:56:29.997Z</time></trkpt><trkpt lat="43.77058" lon="11.4403375"><ele>82.0</ele><time>2026-05-03T06:56:30.996Z</time></trkpt><trkpt lat="43.7706538" lon="11.4405437"><ele>82.0</ele><time>2026-05-03T06:56:31.997Z</time></trkpt><trkpt lat="43.7707294" lon="11.4407616"><ele>81.33333333333333</ele><time>2026-05-03T06:56:32.997Z</time></trkpt><trkpt lat="43.7708045" lon="11.4409864"><ele>80.66666666666667</ele><time>2026-05-03T06:56:33.997Z</time></trkpt><trkpt lat="43.770878" lon="11.4412227"><ele>80.0</ele><time>2026-05-03T06:56:34.997Z</time></trkpt><trkpt lat="43.7709493" lon="11.441465"><ele>80.0</ele><time>2026-05-03T06:56:35.997Z</time></trkpt><trkpt lat="43.7710115" lon="11.44172"><ele>80.0</ele><time>2026-05-03T06:56:36.996Z</time></trkpt><trkpt lat="43.7710592" lon="11.4419948"><ele>80.0</ele><time>2026-05-03T06:56:37.997Z</time></trkpt><trkpt lat="43.7710996" lon="11.4422829"><ele>80.0</ele><time>2026-05-03T06:56:38.997Z</time></trkpt><trkpt lat="43.771134" lon="11.4425879"><ele>80.0</ele><time>2026-05-03T06:56:39.997Z</time></trkpt><trkpt lat="43.7711632" lon="11.4428784"><ele>80.0</ele><time>2026-05-03T06:56:40.996Z</time></trkpt><trkpt lat="43.7711894" lon="11.4431687"><ele>80.33333333333334</ele><time>2026-05-03T06:56:41.997Z</time></trkpt><trkpt lat="43.7712146" lon="11.4434588"><ele>80.66666666666667</ele><time>2026-05-03T06:56:42.997Z</time></trkpt><trkpt lat="43.7712392" lon="11.4437477"><ele>81.0</ele><time>2026-05-03T06:56:43.996Z</time></trkpt><trkpt lat="43.7712592" lon="11.4440358"><ele>81.66666666666667</ele><time>2026-05-03T06:56:44.997Z</time></trkpt><trkpt lat="43.7712816" lon="11.4443114"><ele>82.33333333333334</ele><time>2026-05-03T06:56:45.996Z</time></trkpt><trkpt lat="43.7713015" lon="11.4445618"><ele>83.0</ele><time>2026-05-03T06:56:46.996Z</time></trkpt><trkpt lat="43.7713224" lon="11.4448077"><ele>83.0</ele><time>2026-05-03T06:56:47.997Z</time></trkpt><trkpt lat="43.771344" lon="11.4450569"><ele>83.0</ele><time>2026-05-03T06:56:48.997Z</time></trkpt><trkpt lat="43.7713662" lon="11.4453079"><ele>83.0</ele><time>2026-05-03T06:56:49.996Z</time></trkpt><trkpt lat="43.7713864" lon="11.4455541"><ele>82.66666666666667</ele><time>2026-05-03T06:56:50.997Z</time></trkpt><trkpt lat="43.7714034" lon="11.4457881"><ele>82.33333333333333</ele><time>2026-05-03T06:56:51.997Z</time></trkpt><trkpt lat="43.7714226" lon="11.4460188"><ele>82.0</ele><time>2026-05-03T06:56:52.997Z</time></trkpt><trkpt lat="43.7714415" lon="11.4462376"><ele>82.66666666666666</ele><time>2026-05-03T06:56:53.997Z</time></trkpt><trkpt lat="43.7714622" lon="11.44645"><ele>83.33333333333333</ele><time>2026-05-03T06:56:54.996Z</time></trkpt><trkpt lat="43.7714888" lon="11.4466624"><ele>84.0</ele><time>2026-05-03T06:56:55.997Z</time></trkpt><trkpt lat="43.7715195" lon="11.4468698"><ele>84.0</ele><time>2026-05-03T06:56:56.997Z</time></trkpt><trkpt lat="43.771558" lon="11.4470716"><ele>84.0</ele><time>2026-05-03T06:56:57.997Z</time></trkpt><trkpt lat="43.7716009" lon="11.4472653"><ele>84.0</ele><time>2026-05-03T06:56:58.997Z</time></trkpt><trkpt lat="43.7716461" lon="11.4474545"><ele>84.0</ele><time>2026-05-03T06:56:59.997Z</time></trkpt><trkpt lat="43.7716992" lon="11.4476462"><ele>84.0</ele><time>2026-05-03T06:57:00.997Z</time></trkpt><trkpt lat="43.7717573" lon="11.4478342"><ele>84.0</ele><time>2026-05-03T06:57:01.997Z</time></trkpt><trkpt lat="43.771818" lon="11.4480222"><ele>84.0</ele><time>2026-05-03T06:57:02.997Z</time></trkpt><trkpt lat="43.7718849" lon="11.4482076"><ele>84.0</ele><time>2026-05-03T06:57:03.996Z</time></trkpt><trkpt lat="43.7719545" lon="11.4483848"><ele>84.25</ele><time>2026-05-03T06:57:04.997Z</time></trkpt><trkpt lat="43.7720299" lon="11.4485547"><ele>84.5</ele><time>2026-05-03T06:57:05.997Z</time></trkpt><trkpt lat="43.7721147" lon="11.4487155"><ele>84.75</ele><time>2026-05-03T06:57:06.997Z</time></trkpt><trkpt lat="43.7722009" lon="11.448875"><ele>85.0</ele><time>2026-05-03T06:57:07.997Z</time></trkpt><trkpt lat="43.7722909" lon="11.4490314"><ele>85.75</ele><time>2026-05-03T06:57:08.996Z</time></trkpt><trkpt lat="43.7723789" lon="11.4491812"><ele>86.5</ele><time>2026-05-03T06:57:09.996Z</time></trkpt><trkpt lat="43.7724639" lon="11.4493278"><ele>87.25</ele><time>2026-05-03T06:57:10.996Z</time></trkpt><trkpt lat="43.7725438" lon="11.4494875"><ele>88.0</ele><time>2026-05-03T06:57:11.997Z</time></trkpt><trkpt lat="43.7726117" lon="11.4496548"><ele>88.25</ele><time>2026-05-03T06:57:12.997Z</time></trkpt><trkpt lat="43.7726627" lon="11.4498261"><ele>88.5</ele><time>2026-05-03T06:57:13.997Z</time></trkpt><trkpt lat="43.7726992" lon="11.450007"><ele>88.75</ele><time>2026-05-03T06:57:14.997Z</time></trkpt><trkpt lat="43.772734" lon="11.4501937"><ele>89.0</ele><time>2026-05-03T06:57:15.997Z</time></trkpt><trkpt lat="43.7727782" lon="11.4503737"><ele>90.75</ele><time>2026-05-03T06:57:16.996Z</time></trkpt><trkpt lat="43.772837" lon="11.4505484"><ele>92.5</ele><time>2026-05-03T06:57:17.997Z</time></trkpt><trkpt lat="43.7729171" lon="11.4507136"><ele>94.25</ele><time>2026-05-03T06:57:18.997Z</time></trkpt><trkpt lat="43.7730121" lon="11.4508592"><ele>96.0</ele><time>2026-05-03T06:57:19.996Z</time></trkpt><trkpt lat="43.7731216" lon="11.450986"><ele>96.0</ele><time>2026-05-03T06:57:20.997Z</time></trkpt><trkpt lat="43.7732293" lon="11.4510939"><ele>96.0</ele><time>2026-05-03T06:57:21.996Z</time></trkpt><trkpt lat="43.7733257" lon="11.4511923"><ele>96.0</ele><time>2026-05-03T06:57:22.996Z</time></trkpt><trkpt lat="43.7734194" lon="11.4512846"><ele>96.0</ele><time>2026-05-03T06:57:23.997Z</time></trkpt><trkpt lat="43.7735144" lon="11.4513737"><ele>99.4</ele><time>2026-05-03T06:57:24.996Z</time></trkpt><trkpt lat="43.7736004" lon="11.4514573"><ele>102.8</ele><time>2026-05-03T06:57:25.997Z</time></trkpt><trkpt lat="43.773681" lon="11.4515405"><ele>106.20000000000002</ele><time>2026-05-03T06:57:26.997Z</time></trkpt><trkpt lat="43.7737412" lon="11.4516289"><ele>109.60000000000001</ele><time>2026-05-03T06:57:27.997Z</time></trkpt><trkpt lat="43.7737813" lon="11.451726"><ele>113.0</ele><time>2026-05-03T06:57:28.996Z</time></trkpt><trkpt lat="43.7737944" lon="11.4518289"><ele>113.0</ele><time>2026-05-03T06:57:29.996Z</time></trkpt><trkpt lat="43.7737755" lon="11.4519359"><ele>113.00000000000001</ele><time>2026-05-03T06:57:30.997Z</time></trkpt><trkpt lat="43.773736" lon="11.4520478"><ele>113.00000000000001</ele><time>2026-05-03T06:57:31.997Z</time></trkpt><trkpt lat="43.7736887" lon="11.4521666"><ele>113.0</ele><time>2026-05-03T06:57:32.997Z</time></trkpt><trkpt lat="43.7736352" lon="11.4522909"><ele>113.0</ele><time>2026-05-03T06:57:33.997Z</time></trkpt><trkpt lat="43.7735774" lon="11.4524318"><ele>114.0</ele><time>2026-05-03T06:57:34.996Z</time></trkpt><trkpt lat="43.773515" lon="11.4525849"><ele>115.0</ele><time>2026-05-03T06:57:35.997Z</time></trkpt><trkpt lat="43.7734543" lon="11.4527406"><ele>116.0</ele><time>2026-05-03T06:57:36.996Z</time></trkpt><trkpt lat="43.7733947" lon="11.4528945"><ele>117.0</ele><time>2026-05-03T06:57:37.996Z</time></trkpt><trkpt lat="43.7733361" lon="11.4530484"><ele>117.0</ele><time>2026-05-03T06:57:38.997Z</time></trkpt><trkpt lat="43.7732813" lon="11.4532053"><ele>117.0</ele><time>2026-05-03T06:57:39.996Z</time></trkpt><trkpt lat="43.7732308" lon="11.4533709"><ele>117.0</ele><time>2026-05-03T06:57:40.997Z</time></trkpt><trkpt lat="43.773186" lon="11.4535507"><ele>117.0</ele><time>2026-05-03T06:57:41.997Z</time></trkpt><trkpt lat="43.7731445" lon="11.4537496"><ele>119.5</ele><time>2026-05-03T06:57:42.997Z</time></trkpt><trkpt lat="43.7731082" lon="11.4539456"><ele>122.0</ele><time>2026-05-03T06:57:43.997Z</time></trkpt><trkpt lat="43.7730711" lon="11.4541451"><ele>124.5</ele><time>2026-05-03T06:57:44.996Z</time></trkpt><trkpt lat="43.7730319" lon="11.4543422"><ele>127.0</ele><time>2026-05-03T06:57:45.996Z</time></trkpt><trkpt lat="43.7729771" lon="11.4545303"><ele>129.75</ele><time>2026-05-03T06:57:46.997Z</time></trkpt><trkpt lat="43.7729047" lon="11.4547038"><ele>132.5</ele><time>2026-05-03T06:57:47.997Z</time></trkpt><trkpt lat="43.7728268" lon="11.4548621"><ele>135.25</ele><time>2026-05-03T06:57:48.997Z</time></trkpt><trkpt lat="43.7727464" lon="11.4550117"><ele>138.0</ele><time>2026-05-03T06:57:49.996Z</time></trkpt><trkpt lat="43.7726682" lon="11.4551575"><ele>135.8</ele><time>2026-05-03T06:57:50.996Z</time></trkpt><trkpt lat="43.7725962" lon="11.4553009"><ele>133.60000000000002</ele><time>2026-05-03T06:57:51.996Z</time></trkpt><trkpt lat="43.7725275" lon="11.4554381"><ele>131.39999999999998</ele><time>2026-05-03T06:57:52.997Z</time></trkpt><trkpt lat="43.7724654" lon="11.4555559"><ele>129.2</ele><time>2026-05-03T06:57:53.996Z</time></trkpt><trkpt lat="43.7724105" lon="11.455659"><ele>127.0</ele><time>2026-05-03T06:57:54.997Z</time></trkpt><trkpt lat="43.7723669" lon="11.4557537"><ele>127.00000000000001</ele><time>2026-05-03T06:57:55.997Z</time></trkpt><trkpt lat="43.7723481" lon="11.4558545"><ele>127.0</ele><time>2026-05-03T06:57:56.995Z</time></trkpt><trkpt lat="43.7723599" lon="11.4559591"><ele>127.0</ele><time>2026-05-03T06:57:57.997Z</time></trkpt><trkpt lat="43.7723905" lon="11.456045"><ele>127.0</ele><time>2026-05-03T06:57:58.995Z</time></trkpt><trkpt lat="43.7724416" lon="11.4561305"><ele>127.00000000000001</ele><time>2026-05-03T06:57:59.996Z</time></trkpt><trkpt lat="43.7724914" lon="11.4562534"><ele>127.0</ele><time>2026-05-03T06:58:00.997Z</time></trkpt><trkpt lat="43.7725147" lon="11.456402"><ele>127.5</ele><time>2026-05-03T06:58:01.997Z</time></trkpt><trkpt lat="43.7725354" lon="11.4565664"><ele>128.0</ele><time>2026-05-03T06:58:02.997Z</time></trkpt><trkpt lat="43.7725532" lon="11.4567523"><ele>128.5</ele><time>2026-05-03T06:58:03.996Z</time></trkpt><trkpt lat="43.7725768" lon="11.4569403"><ele>129.0</ele><time>2026-05-03T06:58:04.997Z</time></trkpt><trkpt lat="43.7726137" lon="11.4571264"><ele>129.25</ele><time>2026-05-03T06:58:05.996Z</time></trkpt><trkpt lat="43.7726693" lon="11.4573046"><ele>129.5</ele><time>2026-05-03T06:58:06.996Z</time></trkpt><trkpt lat="43.7727394" lon="11.4574731"><ele>129.75</ele><time>2026-05-03T06:58:07.997Z</time></trkpt><trkpt lat="43.7728167" lon="11.4576424"><ele>130.0</ele><time>2026-05-03T06:58:08.997Z</time></trkpt><trkpt lat="43.7728927" lon="11.4578152"><ele>138.0</ele><time>2026-05-03T06:58:09.997Z</time></trkpt><trkpt lat="43.772966" lon="11.4579876"><ele>146.0</ele><time>2026-05-03T06:58:10.996Z</time></trkpt><trkpt lat="43.7730131" lon="11.4581452"><ele>154.0</ele><time>2026-05-03T06:58:11.997Z</time></trkpt><trkpt lat="43.7730303" lon="11.4582954"><ele>162.0</ele><time>2026-05-03T06:58:12.997Z</time></trkpt><trkpt lat="43.773019" lon="11.4584399"><ele>162.0</ele><time>2026-05-03T06:58:13.997Z</time></trkpt><trkpt lat="43.7729897" lon="11.4585963"><ele>162.0</ele><time>2026-05-03T06:58:14.997Z</time></trkpt><trkpt lat="43.7729531" lon="11.4587582"><ele>162.0</ele><time>2026-05-03T06:58:15.997Z</time></trkpt><trkpt lat="43.7729174" lon="11.4589229"><ele>162.0</ele><time>2026-05-03T06:58:16.997Z</time></trkpt><trkpt lat="43.7729051" lon="11.4592771"><ele>163.25</ele><time>2026-05-03T06:58:18.996Z</time></trkpt><trkpt lat="43.7729103" lon="11.4594556"><ele>164.5</ele><time>2026-05-03T06:58:19.997Z</time></trkpt><trkpt lat="43.7729055" lon="11.4596355"><ele>165.75</ele><time>2026-05-03T06:58:20.997Z</time></trkpt><trkpt lat="43.7728751" lon="11.4598129"><ele>167.0</ele><time>2026-05-03T06:58:21.996Z</time></trkpt><trkpt lat="43.7728248" lon="11.4599799"><ele>168.0</ele><time>2026-05-03T06:58:22.996Z</time></trkpt><trkpt lat="43.7727683" lon="11.4601347"><ele>169.0</ele><time>2026-05-03T06:58:23.997Z</time></trkpt><trkpt lat="43.7727163" lon="11.4602862"><ele>170.0</ele><time>2026-05-03T06:58:24.997Z</time></trkpt><trkpt lat="43.7726741" lon="11.4604419"><ele>171.0</ele><time>2026-05-03T06:58:25.996Z</time></trkpt><trkpt lat="43.7726361" lon="11.4605885"><ele>169.0</ele><time>2026-05-03T06:58:26.997Z</time></trkpt><trkpt lat="43.772599" lon="11.4607256"><ele>167.0</ele><time>2026-05-03T06:58:27.996Z</time></trkpt><trkpt lat="43.7725524" lon="11.4608558"><ele>165.0</ele><time>2026-05-03T06:58:28.995Z</time></trkpt><trkpt lat="43.7724891" lon="11.4609734"><ele>163.0</ele><time>2026-05-03T06:58:29.996Z</time></trkpt><trkpt lat="43.7724061" lon="11.4610729"><ele>161.0</ele><time>2026-05-03T06:58:30.996Z</time></trkpt><trkpt lat="43.7723077" lon="11.4611491"><ele>161.0</ele><time>2026-05-03T06:58:31.997Z</time></trkpt><trkpt lat="43.772195" lon="11.4612058"><ele>161.0</ele><time>2026-05-03T06:58:32.996Z</time></trkpt><trkpt lat="43.7720739" lon="11.4612524"><ele>161.0</ele><time>2026-05-03T06:58:33.997Z</time></trkpt><trkpt lat="43.7719463" lon="11.4612997"><ele>161.0</ele><time>2026-05-03T06:58:34.997Z</time></trkpt><trkpt lat="43.7718145" lon="11.4613488"><ele>165.75</ele><time>2026-05-03T06:58:35.997Z</time></trkpt><trkpt lat="43.7716827" lon="11.4613947"><ele>170.5</ele><time>2026-05-03T06:58:36.997Z</time></trkpt><trkpt lat="43.7715485" lon="11.4614537"><ele>175.25</ele><time>2026-05-03T06:58:37.997Z</time></trkpt><trkpt lat="43.7714151" lon="11.4615249"><ele>180.0</ele><time>2026-05-03T06:58:38.997Z</time></trkpt><trkpt lat="43.7712844" lon="11.4616061"><ele>180.0</ele><time>2026-05-03T06:58:39.996Z</time></trkpt><trkpt lat="43.7711582" lon="11.4616883"><ele>180.0</ele><time>2026-05-03T06:58:40.996Z</time></trkpt><trkpt lat="43.7710332" lon="11.4617678"><ele>180.0</ele><time>2026-05-03T06:58:41.996Z</time></trkpt><trkpt lat="43.7709115" lon="11.4618487"><ele>180.0</ele><time>2026-05-03T06:58:42.996Z</time></trkpt><trkpt lat="43.770797" lon="11.4619342"><ele>180.4</ele><time>2026-05-03T06:58:43.997Z</time></trkpt><trkpt lat="43.770716" lon="11.4620396"><ele>180.8</ele><time>2026-05-03T06:58:44.997Z</time></trkpt><trkpt lat="43.7706667" lon="11.4621692"><ele>181.2</ele><time>2026-05-03T06:58:45.996Z</time></trkpt><trkpt lat="43.770645" lon="11.4623175"><ele>181.6</ele><time>2026-05-03T06:58:46.996Z</time></trkpt><trkpt lat="43.7706474" lon="11.4624861"><ele>182.0</ele><time>2026-05-03T06:58:47.997Z</time></trkpt><trkpt lat="43.770661" lon="11.4626693"><ele>182.0</ele><time>2026-05-03T06:58:48.997Z</time></trkpt><trkpt lat="43.7706773" lon="11.4628645"><ele>182.0</ele><time>2026-05-03T06:58:49.997Z</time></trkpt><trkpt lat="43.7706927" lon="11.4630667"><ele>182.0</ele><time>2026-05-03T06:58:50.997Z</time></trkpt><trkpt lat="43.7707043" lon="11.4632704"><ele>182.0</ele><time>2026-05-03T06:58:51.997Z</time></trkpt><trkpt lat="43.7707154" lon="11.4634709"><ele>183.5</ele><time>2026-05-03T06:58:52.996Z</time></trkpt><trkpt lat="43.7707239" lon="11.4636732"><ele>185.0</ele><time>2026-05-03T06:58:53.996Z</time></trkpt><trkpt lat="43.7707338" lon="11.4638723"><ele>186.5</ele><time>2026-05-03T06:58:54.996Z</time></trkpt><trkpt lat="43.770732" lon="11.464069"><ele>188.0</ele><time>2026-05-03T06:58:55.996Z</time></trkpt><trkpt lat="43.7707239" lon="11.4642639"><ele>189.0</ele><time>2026-05-03T06:58:56.997Z</time></trkpt><trkpt lat="43.7706979" lon="11.4644502"><ele>190.0</ele><time>2026-05-03T06:58:57.997Z</time></trkpt><trkpt lat="43.7706592" lon="11.4646306"><ele>191.0</ele><time>2026-05-03T06:58:58.997Z</time></trkpt><trkpt lat="43.7706144" lon="11.4648079"><ele>192.0</ele><time>2026-05-03T06:58:59.997Z</time></trkpt><trkpt lat="43.7705664" lon="11.4649838"><ele>193.25</ele><time>2026-05-03T06:59:00.996Z</time></trkpt><trkpt lat="43.7705191" lon="11.4651567"><ele>194.5</ele><time>2026-05-03T06:59:01.997Z</time></trkpt><trkpt lat="43.7704676" lon="11.46533"><ele>195.75</ele><time>2026-05-03T06:59:02.995Z</time></trkpt><trkpt lat="43.770415" lon="11.465488"><ele>197.0</ele><time>2026-05-03T06:59:03.997Z</time></trkpt><trkpt lat="43.7703595" lon="11.4656199"><ele>197.39999999999998</ele><time>2026-05-03T06:59:04.996Z</time></trkpt><trkpt lat="43.7703145" lon="11.4657462"><ele>197.79999999999998</ele><time>2026-05-03T06:59:05.997Z</time></trkpt><trkpt lat="43.7703005" lon="11.465863"><ele>198.2</ele><time>2026-05-03T06:59:06.995Z</time></trkpt><trkpt lat="43.7703113" lon="11.4659822"><ele>198.6</ele><time>2026-05-03T06:59:07.997Z</time></trkpt><trkpt lat="43.7703295" lon="11.4661111"><ele>199.0</ele><time>2026-05-03T06:59:08.997Z</time></trkpt><trkpt lat="43.7703297" lon="11.4662577"><ele>200.5</ele><time>2026-05-03T06:59:09.996Z</time></trkpt><trkpt lat="43.7703167" lon="11.4664161"><ele>202.0</ele><time>2026-05-03T06:59:10.997Z</time></trkpt><trkpt lat="43.7703076" lon="11.4665864"><ele>203.5</ele><time>2026-05-03T06:59:11.996Z</time></trkpt><trkpt lat="43.7702981" lon="11.4667789"><ele>205.0</ele><time>2026-05-03T06:59:12.997Z</time></trkpt><trkpt lat="43.770286" lon="11.4669932"><ele>205.66666666666666</ele><time>2026-05-03T06:59:13.996Z</time></trkpt><trkpt lat="43.7702801" lon="11.4672076"><ele>206.33333333333331</ele><time>2026-05-03T06:59:14.997Z</time></trkpt><trkpt lat="43.7702804" lon="11.467444"><ele>207.0</ele><time>2026-05-03T06:59:15.996Z</time></trkpt><trkpt lat="43.7702902" lon="11.4676799"><ele>207.0</ele><time>2026-05-03T06:59:16.997Z</time></trkpt><trkpt lat="43.7703069" lon="11.4679418"><ele>207.0</ele><time>2026-05-03T06:59:17.996Z</time></trkpt><trkpt lat="43.7703221" lon="11.4681757"><ele>207.0</ele><time>2026-05-03T06:59:18.996Z</time></trkpt><trkpt lat="43.7703359" lon="11.4683996"><ele>208.66666666666669</ele><time>2026-05-03T06:59:19.996Z</time></trkpt><trkpt lat="43.7703515" lon="11.4686158"><ele>210.33333333333334</ele><time>2026-05-03T06:59:20.997Z</time></trkpt><trkpt lat="43.7703643" lon="11.4688233"><ele>212.0</ele><time>2026-05-03T06:59:21.996Z</time></trkpt><trkpt lat="43.7703777" lon="11.4690288"><ele>214.0</ele><time>2026-05-03T06:59:22.996Z</time></trkpt><trkpt lat="43.7703888" lon="11.4692278"><ele>216.0</ele><time>2026-05-03T06:59:23.996Z</time></trkpt><trkpt lat="43.7703994" lon="11.4694267"><ele>218.0</ele><time>2026-05-03T06:59:24.996Z</time></trkpt><trkpt lat="43.770409" lon="11.4696217"><ele>220.0</ele><time>2026-05-03T06:59:25.997Z</time></trkpt><trkpt lat="43.7704179" lon="11.4698158"><ele>221.75</ele><time>2026-05-03T06:59:26.997Z</time></trkpt><trkpt lat="43.7704192" lon="11.4700097"><ele>223.5</ele><time>2026-05-03T06:59:27.997Z</time></trkpt><trkpt lat="43.7704076" lon="11.4701988"><ele>225.25</ele><time>2026-05-03T06:59:28.996Z</time></trkpt><trkpt lat="43.7703694" lon="11.4703688"><ele>227.0</ele><time>2026-05-03T06:59:29.997Z</time></trkpt><trkpt lat="43.7703056" lon="11.4705086"><ele>228.25</ele><time>2026-05-03T06:59:30.997Z</time></trkpt><trkpt lat="43.7702136" lon="11.470601"><ele>229.5</ele><time>2026-05-03T06:59:31.997Z</time></trkpt><trkpt lat="43.7701048" lon="11.4706519"><ele>230.75</ele><time>2026-05-03T06:59:32.997Z</time></trkpt><trkpt lat="43.7699821" lon="11.4706701"><ele>232.0</ele><time>2026-05-03T06:59:33.997Z</time></trkpt><trkpt lat="43.7698479" lon="11.4706698"><ele>232.0</ele><time>2026-05-03T06:59:34.996Z</time></trkpt><trkpt lat="43.7697154" lon="11.4706745"><ele>232.0</ele><time>2026-05-03T06:59:35.997Z</time></trkpt><trkpt lat="43.7695107" lon="11.4707825"><ele>232.0</ele><time>2026-05-03T06:59:37.996Z</time></trkpt><trkpt lat="43.7694507" lon="11.4708898"><ele>232.0</ele><time>2026-05-03T06:59:38.997Z</time></trkpt><trkpt lat="43.7694347" lon="11.4710165"><ele>232.0</ele><time>2026-05-03T06:59:39.997Z</time></trkpt><trkpt lat="43.7694573" lon="11.4711458"><ele>232.0</ele><time>2026-05-03T06:59:40.996Z</time></trkpt><trkpt lat="43.7695151" lon="11.4712693"><ele>232.0</ele><time>2026-05-03T06:59:41.997Z</time></trkpt><trkpt lat="43.7696" lon="11.4713956"><ele>232.0</ele><time>2026-05-03T06:59:42.997Z</time></trkpt><trkpt lat="43.7696936" lon="11.4715258"><ele>233.25</ele><time>2026-05-03T06:59:43.997Z</time></trkpt><trkpt lat="43.7697924" lon="11.4716499"><ele>234.5</ele><time>2026-05-03T06:59:44.997Z</time></trkpt><trkpt lat="43.7699051" lon="11.4717771"><ele>235.75</ele><time>2026-05-03T06:59:45.996Z</time></trkpt><trkpt lat="43.7700331" lon="11.4718802"><ele>237.0</ele><time>2026-05-03T06:59:46.996Z</time></trkpt><trkpt lat="43.7701665" lon="11.4719601"><ele>238.75</ele><time>2026-05-03T06:59:47.997Z</time></trkpt><trkpt lat="43.7703024" lon="11.4720316"><ele>240.5</ele><time>2026-05-03T06:59:48.997Z</time></trkpt><trkpt lat="43.7704315" lon="11.4721138"><ele>242.25</ele><time>2026-05-03T06:59:49.997Z</time></trkpt><trkpt lat="43.7705538" lon="11.4722006"><ele>244.0</ele><time>2026-05-03T06:59:50.996Z</time></trkpt><trkpt lat="43.770672" lon="11.4723033"><ele>244.0</ele><time>2026-05-03T06:59:51.996Z</time></trkpt><trkpt lat="43.7707763" lon="11.4724279"><ele>244.0</ele><time>2026-05-03T06:59:52.997Z</time></trkpt><trkpt lat="43.7708699" lon="11.4725632"><ele>244.0</ele><time>2026-05-03T06:59:53.997Z</time></trkpt><trkpt lat="43.7709714" lon="11.4726769"><ele>244.0</ele><time>2026-05-03T06:59:54.997Z</time></trkpt><trkpt lat="43.7710781" lon="11.4727499"><ele>246.75</ele><time>2026-05-03T06:59:55.996Z</time></trkpt><trkpt lat="43.7711916" lon="11.4727662"><ele>249.5</ele><time>2026-05-03T06:59:56.997Z</time></trkpt><trkpt lat="43.7713035" lon="11.4727381"><ele>252.25</ele><time>2026-05-03T06:59:57.997Z</time></trkpt><trkpt lat="43.7714198" lon="11.4726967"><ele>255.0</ele><time>2026-05-03T06:59:58.997Z</time></trkpt><trkpt lat="43.7715351" lon="11.4726584"><ele>255.0</ele><time>2026-05-03T06:59:59.997Z</time></trkpt><trkpt lat="43.7716381" lon="11.4726261"><ele>255.0</ele><time>2026-05-03T07:00:00.996Z</time></trkpt><trkpt lat="43.7717293" lon="11.4726095"><ele>255.0</ele><time>2026-05-03T07:00:01.997Z</time></trkpt><trkpt lat="43.7717931" lon="11.4726009"><ele>255.0</ele><time>2026-05-03T07:00:02.995Z</time></trkpt><trkpt lat="43.7718763" lon="11.4725385"><ele>255.0</ele><time>2026-05-03T07:00:04.996Z</time></trkpt><trkpt lat="43.7719061" lon="11.4724106"><ele>257.0</ele><time>2026-05-03T07:00:06.997Z</time></trkpt><trkpt lat="43.7719241" lon="11.472233"><ele>259.0</ele><time>2026-05-03T07:00:08.997Z</time></trkpt><trkpt lat="43.771944" lon="11.4721386"><ele>261.0</ele><time>2026-05-03T07:00:09.997Z</time></trkpt><trkpt lat="43.7719711" lon="11.4720589"><ele>263.0</ele><time>2026-05-03T07:00:10.996Z</time></trkpt><trkpt lat="43.7720456" lon="11.4719813"><ele>265.0</ele><time>2026-05-03T07:00:12.996Z</time></trkpt><trkpt lat="43.7721484" lon="11.4720108"><ele>266.8</ele><time>2026-05-03T07:00:14.997Z</time></trkpt><trkpt lat="43.7722302" lon="11.4720358"><ele>268.6</ele><time>2026-05-03T07:00:15.996Z</time></trkpt><trkpt lat="43.7723238" lon="11.4720498"><ele>270.4</ele><time>2026-05-03T07:00:16.997Z</time></trkpt><trkpt lat="43.7724425" lon="11.4720446"><ele>272.2</ele><time>2026-05-03T07:00:17.997Z</time></trkpt><trkpt lat="43.7725776" lon="11.4720186"><ele>274.0</ele><time>2026-05-03T07:00:18.997Z</time></trkpt><trkpt lat="43.7727234" lon="11.4719963"><ele>278.0</ele><time>2026-05-03T07:00:19.997Z</time></trkpt><trkpt lat="43.7728693" lon="11.4719724"><ele>282.0</ele><time>2026-05-03T07:00:20.997Z</time></trkpt><trkpt lat="43.7730274" lon="11.4719408"><ele>286.0</ele><time>2026-05-03T07:00:21.997Z</time></trkpt><trkpt lat="43.7731829" lon="11.4719144"><ele>286.0</ele><time>2026-05-03T07:00:22.997Z</time></trkpt><trkpt lat="43.77333" lon="11.4718889"><ele>286.0</ele><time>2026-05-03T07:00:23.997Z</time></trkpt><trkpt lat="43.7734655" lon="11.4718574"><ele>286.0</ele><time>2026-05-03T07:00:24.996Z</time></trkpt><trkpt lat="43.7735982" lon="11.4718165"><ele>286.0</ele><time>2026-05-03T07:00:25.996Z</time></trkpt><trkpt lat="43.7737329" lon="11.4717544"><ele>287.25</ele><time>2026-05-03T07:00:26.997Z</time></trkpt><trkpt lat="43.7738599" lon="11.4716782"><ele>288.5</ele><time>2026-05-03T07:00:27.996Z</time></trkpt><trkpt lat="43.7739661" lon="11.4715919"><ele>289.75</ele><time>2026-05-03T07:00:28.996Z</time></trkpt><trkpt lat="43.7740457" lon="11.4714963"><ele>291.0</ele><time>2026-05-03T07:00:29.997Z</time></trkpt><trkpt lat="43.7741199" lon="11.4713817"><ele>293.0</ele><time>2026-05-03T07:00:30.997Z</time></trkpt><trkpt lat="43.774174" lon="11.4712737"><ele>295.0</ele><time>2026-05-03T07:00:31.996Z</time></trkpt><trkpt lat="43.7742431" lon="11.4711379"><ele>297.0</ele><time>2026-05-03T07:00:32.997Z</time></trkpt><trkpt lat="43.7743071" lon="11.471006"><ele>299.0</ele><time>2026-05-03T07:00:33.997Z</time></trkpt><trkpt lat="43.774362" lon="11.4708655"><ele>301.0</ele><time>2026-05-03T07:00:34.997Z</time></trkpt><trkpt lat="43.7744123" lon="11.4707242"><ele>302.2</ele><time>2026-05-03T07:00:35.998Z</time></trkpt><trkpt lat="43.7744595" lon="11.4705844"><ele>303.40000000000003</ele><time>2026-05-03T07:00:36.998Z</time></trkpt><trkpt lat="43.7745015" lon="11.4704596"><ele>304.6</ele><time>2026-05-03T07:00:37.998Z</time></trkpt><trkpt lat="43.7745458" lon="11.4703425"><ele>305.8</ele><time>2026-05-03T07:00:38.997Z</time></trkpt><trkpt lat="43.7745935" lon="11.4702383"><ele>307.0</ele><time>2026-05-03T07:00:39.997Z</time></trkpt><trkpt lat="43.7746503" lon="11.4701604"><ele>308.8</ele><time>2026-05-03T07:00:40.998Z</time></trkpt><trkpt lat="43.7747232" lon="11.470101"><ele>310.6</ele><time>2026-05-03T07:00:41.998Z</time></trkpt><trkpt lat="43.774812" lon="11.4700495"><ele>312.40000000000003</ele><time>2026-05-03T07:00:42.998Z</time></trkpt><trkpt lat="43.7749081" lon="11.469999"><ele>314.2</ele><time>2026-05-03T07:00:43.997Z</time></trkpt><trkpt lat="43.7750119" lon="11.4699425"><ele>316.0</ele><time>2026-05-03T07:00:44.998Z</time></trkpt><trkpt lat="43.7751393" lon="11.469879"><ele>317.0</ele><time>2026-05-03T07:00:45.998Z</time></trkpt><trkpt lat="43.7752775" lon="11.4698179"><ele>318.0</ele><time>2026-05-03T07:00:46.998Z</time></trkpt><trkpt lat="43.7754045" lon="11.4697557"><ele>319.0</ele><time>2026-05-03T07:00:47.998Z</time></trkpt><trkpt lat="43.7755201" lon="11.4696945"><ele>320.0</ele><time>2026-05-03T07:00:48.998Z</time></trkpt><trkpt lat="43.7756247" lon="11.4696422"><ele>320.0</ele><time>2026-05-03T07:00:49.998Z</time></trkpt><trkpt lat="43.7757155" lon="11.4696026"><ele>320.0</ele><time>2026-05-03T07:00:50.998Z</time></trkpt><trkpt lat="43.775791" lon="11.46958"><ele>320.0</ele><time>2026-05-03T07:00:51.997Z</time></trkpt><trkpt lat="43.7758563" lon="11.4695844"><ele>320.0</ele><time>2026-05-03T07:00:52.996Z</time></trkpt><trkpt lat="43.7759149" lon="11.4696277"><ele>320.0</ele><time>2026-05-03T07:00:53.998Z</time></trkpt><trkpt lat="43.7759675" lon="11.4697048"><ele>320.0</ele><time>2026-05-03T07:00:54.997Z</time></trkpt><trkpt lat="43.7759982" lon="11.4698032"><ele>320.0</ele><time>2026-05-03T07:00:55.998Z</time></trkpt><trkpt lat="43.7760101" lon="11.469925"><ele>320.0</ele><time>2026-05-03T07:00:56.998Z</time></trkpt><trkpt lat="43.7760113" lon="11.4700593"><ele>320.0</ele><time>2026-05-03T07:00:57.998Z</time></trkpt><trkpt lat="43.7760167" lon="11.4702056"><ele>320.0</ele><time>2026-05-03T07:00:58.997Z</time></trkpt><trkpt lat="43.7760357" lon="11.4703655"><ele>320.0</ele><time>2026-05-03T07:00:59.997Z</time></trkpt><trkpt lat="43.7760587" lon="11.4705363"><ele>316.0</ele><time>2026-05-03T07:01:00.998Z</time></trkpt><trkpt lat="43.7760782" lon="11.4707068"><ele>312.0</ele><time>2026-05-03T07:01:01.998Z</time></trkpt><trkpt lat="43.7761017" lon="11.4708633"><ele>308.0</ele><time>2026-05-03T07:01:02.998Z</time></trkpt><trkpt lat="43.7761241" lon="11.471009"><ele>304.0</ele><time>2026-05-03T07:01:03.998Z</time></trkpt><trkpt lat="43.7761485" lon="11.4711493"><ele>305.25</ele><time>2026-05-03T07:01:04.997Z</time></trkpt><trkpt lat="43.7761818" lon="11.4712961"><ele>306.5</ele><time>2026-05-03T07:01:05.997Z</time></trkpt><trkpt lat="43.7762198" lon="11.4714429"><ele>307.75</ele><time>2026-05-03T07:01:06.998Z</time></trkpt><trkpt lat="43.7762658" lon="11.4715868"><ele>309.0</ele><time>2026-05-03T07:01:07.998Z</time></trkpt><trkpt lat="43.7763178" lon="11.4717281"><ele>309.0</ele><time>2026-05-03T07:01:08.996Z</time></trkpt><trkpt lat="43.7763671" lon="11.4718673"><ele>309.0</ele><time>2026-05-03T07:01:09.997Z</time></trkpt><trkpt lat="43.7764144" lon="11.4720079"><ele>309.0</ele><time>2026-05-03T07:01:10.997Z</time></trkpt><trkpt lat="43.776463" lon="11.4721505"><ele>309.0</ele><time>2026-05-03T07:01:11.998Z</time></trkpt><trkpt lat="43.776523" lon="11.4722913"><ele>310.25</ele><time>2026-05-03T07:01:12.997Z</time></trkpt><trkpt lat="43.7765886" lon="11.4724306"><ele>311.5</ele><time>2026-05-03T07:01:13.997Z</time></trkpt><trkpt lat="43.7766492" lon="11.4725657"><ele>312.75</ele><time>2026-05-03T07:01:14.998Z</time></trkpt><trkpt lat="43.776707" lon="11.4726973"><ele>314.0</ele><time>2026-05-03T07:01:15.997Z</time></trkpt><trkpt lat="43.7767667" lon="11.4728238"><ele>315.0</ele><time>2026-05-03T07:01:16.998Z</time></trkpt><trkpt lat="43.7768287" lon="11.4729494"><ele>316.0</ele><time>2026-05-03T07:01:17.998Z</time></trkpt><trkpt lat="43.7768799" lon="11.4730653"><ele>317.0</ele><time>2026-05-03T07:01:18.997Z</time></trkpt><trkpt lat="43.776913" lon="11.4731815"><ele>318.0</ele><time>2026-05-03T07:01:19.997Z</time></trkpt><trkpt lat="43.776931" lon="11.4732974"><ele>319.0</ele><time>2026-05-03T07:01:20.997Z</time></trkpt><trkpt lat="43.7769377" lon="11.4733926"><ele>320.66666666666663</ele><time>2026-05-03T07:01:21.998Z</time></trkpt><trkpt lat="43.7769868" lon="11.4735339"><ele>322.3333333333333</ele><time>2026-05-03T07:01:23.998Z</time></trkpt><trkpt lat="43.7770413" lon="11.4735888"><ele>324.0</ele><time>2026-05-03T07:01:24.996Z</time></trkpt><trkpt lat="43.7771058" lon="11.4736532"><ele>325.6666666666667</ele><time>2026-05-03T07:01:25.997Z</time></trkpt><trkpt lat="43.7771724" lon="11.4737209"><ele>327.33333333333337</ele><time>2026-05-03T07:01:26.997Z</time></trkpt><trkpt lat="43.7772381" lon="11.4737786"><ele>329.0</ele><time>2026-05-03T07:01:27.998Z</time></trkpt><trkpt lat="43.777309" lon="11.4738356"><ele>329.1666666666667</ele><time>2026-05-03T07:01:28.997Z</time></trkpt><trkpt lat="43.7773859" lon="11.4738828"><ele>329.33333333333337</ele><time>2026-05-03T07:01:29.998Z</time></trkpt><trkpt lat="43.7774604" lon="11.4739208"><ele>329.5</ele><time>2026-05-03T07:01:30.997Z</time></trkpt><trkpt lat="43.7775262" lon="11.4739714"><ele>329.6666666666667</ele><time>2026-05-03T07:01:31.998Z</time></trkpt><trkpt lat="43.77758" lon="11.4740299"><ele>329.8333333333333</ele><time>2026-05-03T07:01:32.998Z</time></trkpt><trkpt lat="43.7776407" lon="11.474082"><ele>330.0</ele><time>2026-05-03T07:01:33.998Z</time></trkpt><trkpt lat="43.7777206" lon="11.4741183"><ele>329.5</ele><time>2026-05-03T07:01:34.997Z</time></trkpt><trkpt lat="43.777804" lon="11.4741573"><ele>329.0</ele><time>2026-05-03T07:01:35.998Z</time></trkpt><trkpt lat="43.7778828" lon="11.4742116"><ele>328.5</ele><time>2026-05-03T07:01:36.998Z</time></trkpt><trkpt lat="43.7779492" lon="11.4742747"><ele>328.0</ele><time>2026-05-03T07:01:37.998Z</time></trkpt><trkpt lat="43.7780045" lon="11.4743621"><ele>327.5</ele><time>2026-05-03T07:01:38.997Z</time></trkpt><trkpt lat="43.7780468" lon="11.4744741"><ele>327.0</ele><time>2026-05-03T07:01:39.998Z</time></trkpt><trkpt lat="43.7780824" lon="11.4745957"><ele>327.20000000000005</ele><time>2026-05-03T07:01:40.998Z</time></trkpt><trkpt lat="43.7781195" lon="11.4747195"><ele>327.4</ele><time>2026-05-03T07:01:41.998Z</time></trkpt><trkpt lat="43.7781553" lon="11.4748498"><ele>327.6</ele><time>2026-05-03T07:01:42.998Z</time></trkpt><trkpt lat="43.7781928" lon="11.4749946"><ele>327.79999999999995</ele><time>2026-05-03T07:01:43.997Z</time></trkpt><trkpt lat="43.7782297" lon="11.4751468"><ele>328.0</ele><time>2026-05-03T07:01:44.997Z</time></trkpt><trkpt lat="43.7782672" lon="11.4752927"><ele>328.0</ele><time>2026-05-03T07:01:45.997Z</time></trkpt><trkpt lat="43.7783004" lon="11.4754227"><ele>328.0</ele><time>2026-05-03T07:01:46.998Z</time></trkpt><trkpt lat="43.7783257" lon="11.4755479"><ele>328.0</ele><time>2026-05-03T07:01:47.997Z</time></trkpt><trkpt lat="43.7783388" lon="11.4756733"><ele>328.0</ele><time>2026-05-03T07:01:48.998Z</time></trkpt><trkpt lat="43.7783459" lon="11.4757886"><ele>328.0</ele><time>2026-05-03T07:01:49.998Z</time></trkpt><trkpt lat="43.7783533" lon="11.4759084"><ele>328.0</ele><time>2026-05-03T07:01:50.998Z</time></trkpt><trkpt lat="43.7783624" lon="11.4760494"><ele>328.0</ele><time>2026-05-03T07:01:51.997Z</time></trkpt><trkpt lat="43.7783771" lon="11.4762048"><ele>328.0</ele><time>2026-05-03T07:01:52.997Z</time></trkpt><trkpt lat="43.7784101" lon="11.4763735"><ele>328.0</ele><time>2026-05-03T07:01:53.997Z</time></trkpt><trkpt lat="43.7784572" lon="11.4765603"><ele>328.3333333333333</ele><time>2026-05-03T07:01:54.998Z</time></trkpt><trkpt lat="43.7785125" lon="11.4767704"><ele>328.6666666666667</ele><time>2026-05-03T07:01:55.998Z</time></trkpt><trkpt lat="43.778571" lon="11.476983"><ele>329.0</ele><time>2026-05-03T07:01:56.998Z</time></trkpt><trkpt lat="43.7786051" lon="11.4771829"><ele>326.6666666666667</ele><time>2026-05-03T07:01:57.998Z</time></trkpt><trkpt lat="43.7786198" lon="11.4773923"><ele>324.3333333333333</ele><time>2026-05-03T07:01:58.997Z</time></trkpt><trkpt lat="43.7786301" lon="11.4776147"><ele>322.0</ele><time>2026-05-03T07:01:59.998Z</time></trkpt><trkpt lat="43.7786456" lon="11.4778283"><ele>323.0</ele><time>2026-05-03T07:02:00.996Z</time></trkpt><trkpt lat="43.7786635" lon="11.4780298"><ele>324.0</ele><time>2026-05-03T07:02:01.997Z</time></trkpt><trkpt lat="43.778684" lon="11.4782149"><ele>325.0</ele><time>2026-05-03T07:02:02.997Z</time></trkpt><trkpt lat="43.7787061" lon="11.4783926"><ele>326.0</ele><time>2026-05-03T07:02:03.997Z</time></trkpt><trkpt lat="43.7787306" lon="11.4785569"><ele>326.0</ele><time>2026-05-03T07:02:04.996Z</time></trkpt><trkpt lat="43.7787527" lon="11.4786947"><ele>326.0</ele><time>2026-05-03T07:02:05.998Z</time></trkpt><trkpt lat="43.7787732" lon="11.4788153"><ele>326.0</ele><time>2026-05-03T07:02:06.997Z</time></trkpt><trkpt lat="43.7787955" lon="11.478918"><ele>326.0</ele><time>2026-05-03T07:02:07.998Z</time></trkpt><trkpt lat="43.7788169" lon="11.4790039"><ele>326.0</ele><time>2026-05-03T07:02:08.998Z</time></trkpt><trkpt lat="43.7788304" lon="11.4791104"><ele>326.0</ele><time>2026-05-03T07:02:10.998Z</time></trkpt><trkpt lat="43.778874" lon="11.4792864"><ele>327.8</ele><time>2026-05-03T07:02:13.998Z</time></trkpt><trkpt lat="43.7789177" lon="11.4793733"><ele>329.6</ele><time>2026-05-03T07:02:14.997Z</time></trkpt><trkpt lat="43.7789767" lon="11.4794573"><ele>331.4</ele><time>2026-05-03T07:02:15.997Z</time></trkpt><trkpt lat="43.779048" lon="11.4795296"><ele>333.2</ele><time>2026-05-03T07:02:16.998Z</time></trkpt><trkpt lat="43.7791271" lon="11.4796013"><ele>335.0</ele><time>2026-05-03T07:02:17.998Z</time></trkpt><trkpt lat="43.7792157" lon="11.4796826"><ele>335.8</ele><time>2026-05-03T07:02:18.998Z</time></trkpt><trkpt lat="43.7793085" lon="11.4797636"><ele>336.6</ele><time>2026-05-03T07:02:19.998Z</time></trkpt><trkpt lat="43.7794001" lon="11.4798462"><ele>337.4</ele><time>2026-05-03T07:02:20.998Z</time></trkpt><trkpt lat="43.7794958" lon="11.4799331"><ele>338.2</ele><time>2026-05-03T07:02:21.998Z</time></trkpt><trkpt lat="43.7795913" lon="11.4800174"><ele>339.0</ele><time>2026-05-03T07:02:22.997Z</time></trkpt><trkpt lat="43.7796909" lon="11.4801006"><ele>339.75</ele><time>2026-05-03T07:02:23.997Z</time></trkpt><trkpt lat="43.7797858" lon="11.4801851"><ele>340.5</ele><time>2026-05-03T07:02:24.997Z</time></trkpt><trkpt lat="43.7798821" lon="11.4802748"><ele>341.25</ele><time>2026-05-03T07:02:25.998Z</time></trkpt><trkpt lat="43.7799766" lon="11.4803632"><ele>342.0</ele><time>2026-05-03T07:02:26.998Z</time></trkpt><trkpt lat="43.7800712" lon="11.4804518"><ele>342.6</ele><time>2026-05-03T07:02:27.998Z</time></trkpt><trkpt lat="43.7801553" lon="11.4805572"><ele>343.20000000000005</ele><time>2026-05-03T07:02:28.998Z</time></trkpt><trkpt lat="43.7802133" lon="11.4806767"><ele>343.8</ele><time>2026-05-03T07:02:29.998Z</time></trkpt><trkpt lat="43.7802507" lon="11.4808092"><ele>344.4</ele><time>2026-05-03T07:02:30.998Z</time></trkpt><trkpt lat="43.7802848" lon="11.4809522"><ele>345.0</ele><time>2026-05-03T07:02:31.998Z</time></trkpt><trkpt lat="43.7803238" lon="11.4810967"><ele>345.0</ele><time>2026-05-03T07:02:32.998Z</time></trkpt><trkpt lat="43.7803655" lon="11.4812513"><ele>345.0</ele><time>2026-05-03T07:02:33.997Z</time></trkpt><trkpt lat="43.7804088" lon="11.4814143"><ele>345.0</ele><time>2026-05-03T07:02:34.997Z</time></trkpt><trkpt lat="43.7804533" lon="11.4815668"><ele>345.0</ele><time>2026-05-03T07:02:35.998Z</time></trkpt><trkpt lat="43.7804994" lon="11.481725"><ele>346.0</ele><time>2026-05-03T07:02:36.997Z</time></trkpt><trkpt lat="43.7805416" lon="11.4818787"><ele>347.0</ele><time>2026-05-03T07:02:37.997Z</time></trkpt><trkpt lat="43.7805863" lon="11.4820336"><ele>348.0</ele><time>2026-05-03T07:02:38.997Z</time></trkpt><trkpt lat="43.780636" lon="11.4821887"><ele>349.0</ele><time>2026-05-03T07:02:39.998Z</time></trkpt><trkpt lat="43.7806858" lon="11.4823503"><ele>350.0</ele><time>2026-05-03T07:02:40.998Z</time></trkpt><trkpt lat="43.7807302" lon="11.4825214"><ele>351.0</ele><time>2026-05-03T07:02:41.997Z</time></trkpt><trkpt lat="43.7807763" lon="11.4826947"><ele>352.0</ele><time>2026-05-03T07:02:42.997Z</time></trkpt><trkpt lat="43.7808313" lon="11.4828654"><ele>353.0</ele><time>2026-05-03T07:02:43.997Z</time></trkpt><trkpt lat="43.7808933" lon="11.4830413"><ele>354.0</ele><time>2026-05-03T07:02:44.997Z</time></trkpt><trkpt lat="43.7809546" lon="11.4832119"><ele>355.0</ele><time>2026-05-03T07:02:45.997Z</time></trkpt><trkpt lat="43.7810105" lon="11.4833754"><ele>356.0</ele><time>2026-05-03T07:02:46.997Z</time></trkpt><trkpt lat="43.7810539" lon="11.4835161"><ele>357.0</ele><time>2026-05-03T07:02:47.998Z</time></trkpt><trkpt lat="43.7811036" lon="11.4836637"><ele>360.8</ele><time>2026-05-03T07:02:48.998Z</time></trkpt><trkpt lat="43.7811543" lon="11.4838006"><ele>364.6</ele><time>2026-05-03T07:02:49.998Z</time></trkpt><trkpt lat="43.7812092" lon="11.483922"><ele>368.40000000000003</ele><time>2026-05-03T07:02:50.997Z</time></trkpt><trkpt lat="43.7812812" lon="11.4840424"><ele>372.20000000000005</ele><time>2026-05-03T07:02:51.998Z</time></trkpt><trkpt lat="43.7813655" lon="11.4841608"><ele>376.0</ele><time>2026-05-03T07:02:52.998Z</time></trkpt><trkpt lat="43.7814575" lon="11.484278"><ele>376.0</ele><time>2026-05-03T07:02:53.997Z</time></trkpt><trkpt lat="43.7815532" lon="11.4843833"><ele>376.0</ele><time>2026-05-03T07:02:54.998Z</time></trkpt><trkpt lat="43.7816482" lon="11.4844848"><ele>376.0</ele><time>2026-05-03T07:02:55.997Z</time></trkpt><trkpt lat="43.7817389" lon="11.4845898"><ele>376.0</ele><time>2026-05-03T07:02:56.997Z</time></trkpt><trkpt lat="43.7818201" lon="11.4847037"><ele>375.75</ele><time>2026-05-03T07:02:57.997Z</time></trkpt><trkpt lat="43.7818934" lon="11.4848321"><ele>375.5</ele><time>2026-05-03T07:02:58.998Z</time></trkpt><trkpt lat="43.7819564" lon="11.4849749"><ele>375.25</ele><time>2026-05-03T07:02:59.998Z</time></trkpt><trkpt lat="43.7820133" lon="11.4851237"><ele>375.0</ele><time>2026-05-03T07:03:00.998Z</time></trkpt><trkpt lat="43.7820676" lon="11.485277"><ele>375.25</ele><time>2026-05-03T07:03:01.998Z</time></trkpt><trkpt lat="43.7821196" lon="11.485434"><ele>375.5</ele><time>2026-05-03T07:03:02.996Z</time></trkpt><trkpt lat="43.7821674" lon="11.4855989"><ele>375.75</ele><time>2026-05-03T07:03:03.997Z</time></trkpt><trkpt lat="43.7822145" lon="11.4857607"><ele>376.0</ele><time>2026-05-03T07:03:04.998Z</time></trkpt><trkpt lat="43.7822564" lon="11.4859055"><ele>376.0</ele><time>2026-05-03T07:03:05.998Z</time></trkpt><trkpt lat="43.7822945" lon="11.4860447"><ele>376.0</ele><time>2026-05-03T07:03:06.997Z</time></trkpt><trkpt lat="43.7823337" lon="11.4861858"><ele>376.0</ele><time>2026-05-03T07:03:07.997Z</time></trkpt><trkpt lat="43.7823755" lon="11.4863311"><ele>376.0</ele><time>2026-05-03T07:03:08.996Z</time></trkpt><trkpt lat="43.7824188" lon="11.4864886"><ele>377.25</ele><time>2026-05-03T07:03:09.998Z</time></trkpt><trkpt lat="43.78246" lon="11.4866587"><ele>378.5</ele><time>2026-05-03T07:03:10.998Z</time></trkpt><trkpt lat="43.7824891" lon="11.4868334"><ele>379.75</ele><time>2026-05-03T07:03:11.998Z</time></trkpt><trkpt lat="43.7824935" lon="11.4870006"><ele>381.0</ele><time>2026-05-03T07:03:12.997Z</time></trkpt><trkpt lat="43.7824808" lon="11.487162"><ele>382.25</ele><time>2026-05-03T07:03:13.997Z</time></trkpt><trkpt lat="43.7824657" lon="11.487324"><ele>383.5</ele><time>2026-05-03T07:03:14.998Z</time></trkpt><trkpt lat="43.7824492" lon="11.4874855"><ele>384.75</ele><time>2026-05-03T07:03:15.998Z</time></trkpt><trkpt lat="43.7824261" lon="11.4876558"><ele>386.0</ele><time>2026-05-03T07:03:16.997Z</time></trkpt><trkpt lat="43.782394" lon="11.4878385"><ele>387.5</ele><time>2026-05-03T07:03:17.996Z</time></trkpt><trkpt lat="43.7823522" lon="11.4880138"><ele>389.0</ele><time>2026-05-03T07:03:18.997Z</time></trkpt><trkpt lat="43.7823018" lon="11.4881838"><ele>390.5</ele><time>2026-05-03T07:03:19.997Z</time></trkpt><trkpt lat="43.7822567" lon="11.4883498"><ele>392.0</ele><time>2026-05-03T07:03:20.998Z</time></trkpt><trkpt lat="43.78223" lon="11.4885134"><ele>392.0</ele><time>2026-05-03T07:03:21.997Z</time></trkpt><trkpt lat="43.7822261" lon="11.4886849"><ele>392.0</ele><time>2026-05-03T07:03:22.998Z</time></trkpt><trkpt lat="43.782241" lon="11.4888616"><ele>392.0</ele><time>2026-05-03T07:03:23.997Z</time></trkpt><trkpt lat="43.7822644" lon="11.4890437"><ele>392.0</ele><time>2026-05-03T07:03:24.997Z</time></trkpt><trkpt lat="43.782291" lon="11.4892182"><ele>394.0</ele><time>2026-05-03T07:03:25.997Z</time></trkpt><trkpt lat="43.7823251" lon="11.4893887"><ele>396.0</ele><time>2026-05-03T07:03:26.998Z</time></trkpt><trkpt lat="43.7823643" lon="11.4895644"><ele>398.0</ele><time>2026-05-03T07:03:27.998Z</time></trkpt><trkpt lat="43.7824069" lon="11.4897425"><ele>400.0</ele><time>2026-05-03T07:03:28.998Z</time></trkpt><trkpt lat="43.7824528" lon="11.4899241"><ele>400.0</ele><time>2026-05-03T07:03:29.998Z</time></trkpt><trkpt lat="43.7825013" lon="11.4901017"><ele>400.0</ele><time>2026-05-03T07:03:30.998Z</time></trkpt><trkpt lat="43.7825712" lon="11.4902622"><ele>400.0</ele><time>2026-05-03T07:03:31.997Z</time></trkpt><trkpt lat="43.7826677" lon="11.4904221"><ele>400.0</ele><time>2026-05-03T07:03:32.997Z</time></trkpt><trkpt lat="43.78278" lon="11.490594"><ele>401.0</ele><time>2026-05-03T07:03:33.998Z</time></trkpt><trkpt lat="43.7828974" lon="11.490779"><ele>402.0</ele><time>2026-05-03T07:03:34.998Z</time></trkpt><trkpt lat="43.7830073" lon="11.4909608"><ele>403.0</ele><time>2026-05-03T07:03:35.997Z</time></trkpt><trkpt lat="43.7831073" lon="11.4911327"><ele>405.75</ele><time>2026-05-03T07:03:36.997Z</time></trkpt><trkpt lat="43.7832044" lon="11.4912959"><ele>408.5</ele><time>2026-05-03T07:03:37.998Z</time></trkpt><trkpt lat="43.7832985" lon="11.4914552"><ele>411.25</ele><time>2026-05-03T07:03:38.997Z</time></trkpt><trkpt lat="43.7833863" lon="11.4916181"><ele>414.0</ele><time>2026-05-03T07:03:39.998Z</time></trkpt><trkpt lat="43.7834711" lon="11.4917873"><ele>414.25</ele><time>2026-05-03T07:03:40.998Z</time></trkpt><trkpt lat="43.7835566" lon="11.4919506"><ele>414.5</ele><time>2026-05-03T07:03:41.998Z</time></trkpt><trkpt lat="43.7836457" lon="11.4921038"><ele>414.75</ele><time>2026-05-03T07:03:42.997Z</time></trkpt><trkpt lat="43.7837374" lon="11.4922584"><ele>415.0</ele><time>2026-05-03T07:03:43.998Z</time></trkpt><trkpt lat="43.7838274" lon="11.4924096"><ele>417.4</ele><time>2026-05-03T07:03:44.997Z</time></trkpt><trkpt lat="43.7839196" lon="11.4925602"><ele>419.8</ele><time>2026-05-03T07:03:45.997Z</time></trkpt><trkpt lat="43.7839998" lon="11.4926941"><ele>422.20000000000005</ele><time>2026-05-03T07:03:46.998Z</time></trkpt><trkpt lat="43.7840617" lon="11.4928021"><ele>424.6</ele><time>2026-05-03T07:03:47.996Z</time></trkpt><trkpt lat="43.7841169" lon="11.4928823"><ele>427.0</ele><time>2026-05-03T07:03:48.997Z</time></trkpt><trkpt lat="43.78417" lon="11.4929323"><ele>427.40000000000003</ele><time>2026-05-03T07:03:49.998Z</time></trkpt><trkpt lat="43.7842843" lon="11.4930145"><ele>427.80000000000007</ele><time>2026-05-03T07:03:51.998Z</time></trkpt><trkpt lat="43.7843592" lon="11.4930852"><ele>428.2</ele><time>2026-05-03T07:03:52.997Z</time></trkpt><trkpt lat="43.7844361" lon="11.4931556"><ele>428.6</ele><time>2026-05-03T07:03:53.998Z</time></trkpt><trkpt lat="43.7845213" lon="11.4932176"><ele>429.0</ele><time>2026-05-03T07:03:54.998Z</time></trkpt><trkpt lat="43.7846077" lon="11.4932475"><ele>429.0</ele><time>2026-05-03T07:03:55.996Z</time></trkpt><trkpt lat="43.7846834" lon="11.493274"><ele>429.0</ele><time>2026-05-03T07:03:56.997Z</time></trkpt><trkpt lat="43.7847976" lon="11.493283"><ele>429.0</ele><time>2026-05-03T07:03:58.998Z</time></trkpt><trkpt lat="43.7848666" lon="11.4932597"><ele>429.0</ele><time>2026-05-03T07:04:00.998Z</time></trkpt><trkpt lat="43.7849412" lon="11.4932455"><ele>429.0</ele><time>2026-05-03T07:04:02.998Z</time></trkpt><trkpt lat="43.7850226" lon="11.4932218"><ele>429.0</ele><time>2026-05-03T07:04:04.998Z</time></trkpt><trkpt lat="43.7850913" lon="11.4932192"><ele>426.75</ele><time>2026-05-03T07:04:05.998Z</time></trkpt><trkpt lat="43.7851838" lon="11.4932233"><ele>424.5</ele><time>2026-05-03T07:04:06.998Z</time></trkpt><trkpt lat="43.7852974" lon="11.4932571"><ele>422.25</ele><time>2026-05-03T07:04:07.998Z</time></trkpt><trkpt lat="43.7854165" lon="11.493318"><ele>420.0</ele><time>2026-05-03T07:04:08.998Z</time></trkpt><trkpt lat="43.785532" lon="11.4933627"><ele>420.0</ele><time>2026-05-03T07:04:09.998Z</time></trkpt><trkpt lat="43.7856339" lon="11.4933851"><ele>420.0</ele><time>2026-05-03T07:04:10.996Z</time></trkpt><trkpt lat="43.7857177" lon="11.4934126"><ele>420.0</ele><time>2026-05-03T07:04:11.997Z</time></trkpt><trkpt lat="43.7857881" lon="11.4934581"><ele>420.0</ele><time>2026-05-03T07:04:12.997Z</time></trkpt><trkpt lat="43.785862" lon="11.4935103"><ele>420.0</ele><time>2026-05-03T07:04:13.998Z</time></trkpt><trkpt lat="43.7859335" lon="11.4936354"><ele>420.4</ele><time>2026-05-03T07:04:14.997Z</time></trkpt><trkpt lat="43.7860045" lon="11.4937554"><ele>420.8</ele><time>2026-05-03T07:04:15.997Z</time></trkpt><trkpt lat="43.7860705" lon="11.4938549"><ele>421.20000000000005</ele><time>2026-05-03T07:04:16.998Z</time></trkpt><trkpt lat="43.7861515" lon="11.4939277"><ele>421.6</ele><time>2026-05-03T07:04:17.998Z</time></trkpt><trkpt lat="43.7862433" lon="11.4939168"><ele>422.0</ele><time>2026-05-03T07:04:18.998Z</time></trkpt><trkpt lat="43.7862786" lon="11.493809"><ele>419.66666666666663</ele><time>2026-05-03T07:04:19.996Z</time></trkpt><trkpt lat="43.7863152" lon="11.4937276"><ele>417.3333333333333</ele><time>2026-05-03T07:04:20.997Z</time></trkpt><trkpt lat="43.7863487" lon="11.4935699"><ele>415.0</ele><time>2026-05-03T07:04:21.998Z</time></trkpt><trkpt lat="43.786369" lon="11.4934466"><ele>412.66666666666663</ele><time>2026-05-03T07:04:22.998Z</time></trkpt><trkpt lat="43.7864429" lon="11.4934691"><ele>410.3333333333333</ele><time>2026-05-03T07:04:23.997Z</time></trkpt><trkpt lat="43.7865174" lon="11.4935018"><ele>408.0</ele><time>2026-05-03T07:04:24.998Z</time></trkpt><trkpt lat="43.7865912" lon="11.4935105"><ele>408.0</ele><time>2026-05-03T07:04:25.998Z</time></trkpt><trkpt lat="43.7866872" lon="11.4935497"><ele>408.0</ele><time>2026-05-03T07:04:26.998Z</time></trkpt><trkpt lat="43.7867822" lon="11.4935751"><ele>408.0</ele><time>2026-05-03T07:04:27.998Z</time></trkpt><trkpt lat="43.7868759" lon="11.4936153"><ele>408.0</ele><time>2026-05-03T07:04:28.998Z</time></trkpt><trkpt lat="43.786949" lon="11.4936859"><ele>408.0</ele><time>2026-05-03T07:04:29.998Z</time></trkpt><trkpt lat="43.7870177" lon="11.4937972"><ele>408.2</ele><time>2026-05-03T07:04:30.997Z</time></trkpt><trkpt lat="43.7870758" lon="11.4939396"><ele>408.4</ele><time>2026-05-03T07:04:31.997Z</time></trkpt><trkpt lat="43.787132" lon="11.4940704"><ele>408.59999999999997</ele><time>2026-05-03T07:04:32.998Z</time></trkpt><trkpt lat="43.7871952" lon="11.4941681"><ele>408.79999999999995</ele><time>2026-05-03T07:04:33.997Z</time></trkpt><trkpt lat="43.7872625" lon="11.494279"><ele>409.0</ele><time>2026-05-03T07:04:34.998Z</time></trkpt><trkpt lat="43.7873561" lon="11.4943965"><ele>409.0</ele><time>2026-05-03T07:04:35.997Z</time></trkpt><trkpt lat="43.7874433" lon="11.4945055"><ele>409.0</ele><time>2026-05-03T07:04:36.997Z</time></trkpt><trkpt lat="43.7875291" lon="11.4945949"><ele>409.0</ele><time>2026-05-03T07:04:37.997Z</time></trkpt><trkpt lat="43.7876222" lon="11.494663"><ele>409.0</ele><time>2026-05-03T07:04:38.998Z</time></trkpt><trkpt lat="43.7877165" lon="11.4947204"><ele>409.0</ele><time>2026-05-03T07:04:39.998Z</time></trkpt><trkpt lat="43.7878056" lon="11.4947684"><ele>410.79999999999995</ele><time>2026-05-03T07:04:40.998Z</time></trkpt><trkpt lat="43.7878842" lon="11.4948152"><ele>412.59999999999997</ele><time>2026-05-03T07:04:41.997Z</time></trkpt><trkpt lat="43.7879796" lon="11.4948685"><ele>414.4</ele><time>2026-05-03T07:04:42.998Z</time></trkpt><trkpt lat="43.7880701" lon="11.4949293"><ele>416.2</ele><time>2026-05-03T07:04:43.997Z</time></trkpt><trkpt lat="43.788157" lon="11.494989"><ele>418.0</ele><time>2026-05-03T07:04:44.998Z</time></trkpt><trkpt lat="43.7882407" lon="11.4950474"><ele>418.00000000000006</ele><time>2026-05-03T07:04:45.998Z</time></trkpt><trkpt lat="43.7883209" lon="11.4951102"><ele>418.0</ele><time>2026-05-03T07:04:46.997Z</time></trkpt><trkpt lat="43.7883977" lon="11.4951734"><ele>418.0</ele><time>2026-05-03T07:04:47.998Z</time></trkpt><trkpt lat="43.7884594" lon="11.4952265"><ele>418.0</ele><time>2026-05-03T07:04:48.997Z</time></trkpt><trkpt lat="43.7885534" lon="11.4952948"><ele>418.00000000000006</ele><time>2026-05-03T07:04:50.997Z</time></trkpt><trkpt lat="43.7886206" lon="11.4953458"><ele>418.0</ele><time>2026-05-03T07:05:49.998Z</time></trkpt><trkpt lat="43.7887033" lon="11.4954178"><ele>419.33333333333337</ele><time>2026-05-03T07:05:51.998Z</time></trkpt><trkpt lat="43.7887653" lon="11.4954674"><ele>420.6666666666667</ele><time>2026-05-03T07:05:52.998Z</time></trkpt><trkpt lat="43.7888249" lon="11.4955215"><ele>422.0</ele><time>2026-05-03T07:05:53.998Z</time></trkpt><trkpt lat="43.7888918" lon="11.4955734"><ele>423.33333333333337</ele><time>2026-05-03T07:05:54.997Z</time></trkpt><trkpt lat="43.7889667" lon="11.4956391"><ele>424.6666666666667</ele><time>2026-05-03T07:05:55.998Z</time></trkpt><trkpt lat="43.7890475" lon="11.4957021"><ele>426.0</ele><time>2026-05-03T07:05:56.996Z</time></trkpt><trkpt lat="43.7891271" lon="11.4957637"><ele>426.0</ele><time>2026-05-03T07:05:57.998Z</time></trkpt><trkpt lat="43.7891937" lon="11.4958185"><ele>426.0</ele><time>2026-05-03T07:05:58.997Z</time></trkpt><trkpt lat="43.789274" lon="11.4959252"><ele>426.0</ele><time>2026-05-03T07:06:00.997Z</time></trkpt><trkpt lat="43.7892519" lon="11.4960529"><ele>426.0</ele><time>2026-05-03T07:06:02.998Z</time></trkpt><trkpt lat="43.7891621" lon="11.4961869"><ele>426.0</ele><time>2026-05-03T07:06:04.998Z</time></trkpt><trkpt lat="43.7891129" lon="11.4962611"><ele>427.0</ele><time>2026-05-03T07:06:05.998Z</time></trkpt><trkpt lat="43.7890627" lon="11.4963344"><ele>428.0</ele><time>2026-05-03T07:06:06.998Z</time></trkpt><trkpt lat="43.7890414" lon="11.4964233"><ele>429.0</ele><time>2026-05-03T07:06:07.998Z</time></trkpt><trkpt lat="43.7890148" lon="11.4965052"><ele>430.0</ele><time>2026-05-03T07:06:08.997Z</time></trkpt><trkpt lat="43.7889927" lon="11.4966143"><ele>431.0</ele><time>2026-05-03T07:06:09.998Z</time></trkpt><trkpt lat="43.7889859" lon="11.4967237"><ele>432.0</ele><time>2026-05-03T07:06:10.997Z</time></trkpt><trkpt lat="43.78896" lon="11.4968583"><ele>432.0</ele><time>2026-05-03T07:06:11.998Z</time></trkpt><trkpt lat="43.7889171" lon="11.4969783"><ele>432.00000000000006</ele><time>2026-05-03T07:06:12.997Z</time></trkpt><trkpt lat="43.7888525" lon="11.4970583"><ele>432.00000000000006</ele><time>2026-05-03T07:06:13.997Z</time></trkpt><trkpt lat="43.7887905" lon="11.4971705"><ele>432.0</ele><time>2026-05-03T07:06:14.998Z</time></trkpt><trkpt lat="43.7887404" lon="11.4972941"><ele>432.0</ele><time>2026-05-03T07:06:15.998Z</time></trkpt><trkpt lat="43.788698" lon="11.4974236"><ele>434.0</ele><time>2026-05-03T07:06:16.997Z</time></trkpt><trkpt lat="43.7886743" lon="11.4975373"><ele>436.00000000000006</ele><time>2026-05-03T07:06:17.997Z</time></trkpt><trkpt lat="43.7886805" lon="11.4976631"><ele>438.00000000000006</ele><time>2026-05-03T07:06:18.998Z</time></trkpt><trkpt lat="43.7887821" lon="11.4977644"><ele>440.0</ele><time>2026-05-03T07:06:19.998Z</time></trkpt><trkpt lat="43.7888929" lon="11.4978679"><ele>442.0</ele><time>2026-05-03T07:06:20.997Z</time></trkpt><trkpt lat="43.7889878" lon="11.4979412"><ele>442.0</ele><time>2026-05-03T07:06:21.997Z</time></trkpt><trkpt lat="43.7891077" lon="11.4979449"><ele>442.00000000000006</ele><time>2026-05-03T07:06:22.997Z</time></trkpt><trkpt lat="43.7891982" lon="11.4979208"><ele>442.00000000000006</ele><time>2026-05-03T07:06:23.997Z</time></trkpt><trkpt lat="43.7893179" lon="11.4978804"><ele>442.0</ele><time>2026-05-03T07:06:24.998Z</time></trkpt><trkpt lat="43.7893861" lon="11.4977757"><ele>442.0</ele><time>2026-05-03T07:06:25.998Z</time></trkpt><trkpt lat="43.7894712" lon="11.4976697"><ele>441.5</ele><time>2026-05-03T07:06:26.998Z</time></trkpt><trkpt lat="43.7895416" lon="11.497536"><ele>441.0</ele><time>2026-05-03T07:06:27.998Z</time></trkpt><trkpt lat="43.7896092" lon="11.4973797"><ele>440.5</ele><time>2026-05-03T07:06:28.997Z</time></trkpt><trkpt lat="43.78966" lon="11.4972097"><ele>440.0</ele><time>2026-05-03T07:06:29.997Z</time></trkpt><trkpt lat="43.7897209" lon="11.4970689"><ele>439.6</ele><time>2026-05-03T07:06:30.998Z</time></trkpt><trkpt lat="43.7898155" lon="11.4969463"><ele>439.2</ele><time>2026-05-03T07:06:31.997Z</time></trkpt><trkpt lat="43.7899063" lon="11.4968279"><ele>438.79999999999995</ele><time>2026-05-03T07:06:32.998Z</time></trkpt><trkpt lat="43.789976" lon="11.4967508"><ele>438.4</ele><time>2026-05-03T07:06:33.997Z</time></trkpt><trkpt lat="43.7900531" lon="11.4967"><ele>438.0</ele><time>2026-05-03T07:06:34.998Z</time></trkpt><trkpt lat="43.7901123" lon="11.4966528"><ele>438.0</ele><time>2026-05-03T07:06:35.998Z</time></trkpt><trkpt lat="43.7901721" lon="11.4965862"><ele>438.0</ele><time>2026-05-03T07:06:36.998Z</time></trkpt><trkpt lat="43.7902355" lon="11.4964915"><ele>438.0</ele><time>2026-05-03T07:06:37.998Z</time></trkpt><trkpt lat="43.7902796" lon="11.4963829"><ele>438.0</ele><time>2026-05-03T07:06:38.998Z</time></trkpt><trkpt lat="43.7903144" lon="11.4962748"><ele>438.0</ele><time>2026-05-03T07:06:39.998Z</time></trkpt><trkpt lat="43.7903591" lon="11.4961723"><ele>438.0</ele><time>2026-05-03T07:06:40.997Z</time></trkpt><trkpt lat="43.7904077" lon="11.4960792"><ele>435.4</ele><time>2026-05-03T07:06:41.998Z</time></trkpt><trkpt lat="43.7904997" lon="11.4960289"><ele>432.79999999999995</ele><time>2026-05-03T07:06:43.998Z</time></trkpt><trkpt lat="43.7905587" lon="11.496136"><ele>430.2</ele><time>2026-05-03T07:06:44.997Z</time></trkpt><trkpt lat="43.7905779" lon="11.496262"><ele>427.6</ele><time>2026-05-03T07:06:45.998Z</time></trkpt><trkpt lat="43.7906302" lon="11.4963818"><ele>425.0</ele><time>2026-05-03T07:06:46.998Z</time></trkpt><trkpt lat="43.7905553" lon="11.4965823"><ele>425.0</ele><time>2026-05-03T07:06:47.997Z</time></trkpt><trkpt lat="43.7905577" lon="11.4967287"><ele>425.0</ele><time>2026-05-03T07:06:48.998Z</time></trkpt><trkpt lat="43.7905581" lon="11.4969058"><ele>425.0</ele><time>2026-05-03T07:06:49.996Z</time></trkpt><trkpt lat="43.7905625" lon="11.4970444"><ele>425.0</ele><time>2026-05-03T07:06:50.998Z</time></trkpt><trkpt lat="43.7905701" lon="11.4971862"><ele>425.0</ele><time>2026-05-03T07:06:51.998Z</time></trkpt><trkpt lat="43.7906013" lon="11.4973271"><ele>424.8</ele><time>2026-05-03T07:06:52.998Z</time></trkpt><trkpt lat="43.7906245" lon="11.4974607"><ele>424.6</ele><time>2026-05-03T07:06:53.998Z</time></trkpt><trkpt lat="43.7906574" lon="11.497616"><ele>424.4</ele><time>2026-05-03T07:06:54.997Z</time></trkpt><trkpt lat="43.7906634" lon="11.497717"><ele>424.2</ele><time>2026-05-03T07:06:55.997Z</time></trkpt><trkpt lat="43.79062" lon="11.4978092"><ele>424.0</ele><time>2026-05-03T07:06:56.997Z</time></trkpt><trkpt lat="43.7906386" lon="11.4979325"><ele>424.00000000000006</ele><time>2026-05-03T07:06:58.997Z</time></trkpt><trkpt lat="43.790723" lon="11.4979146"><ele>424.0</ele><time>2026-05-03T07:07:01.998Z</time></trkpt><trkpt lat="43.7907926" lon="11.4978575"><ele>424.0</ele><time>2026-05-03T07:07:02.998Z</time></trkpt><trkpt lat="43.7908462" lon="11.4977685"><ele>424.0</ele><time>2026-05-03T07:07:03.997Z</time></trkpt><trkpt lat="43.7909162" lon="11.4976733"><ele>424.00000000000006</ele><time>2026-05-03T07:07:04.998Z</time></trkpt><trkpt lat="43.7909725" lon="11.4975857"><ele>424.0</ele><time>2026-05-03T07:07:05.998Z</time></trkpt><trkpt lat="43.7910346" lon="11.4975144"><ele>425.0</ele><time>2026-05-03T07:07:06.998Z</time></trkpt><trkpt lat="43.7910974" lon="11.4975268"><ele>426.0</ele><time>2026-05-03T07:07:08.998Z</time></trkpt><trkpt lat="43.7911501" lon="11.497579"><ele>427.0</ele><time>2026-05-03T07:07:09.998Z</time></trkpt><trkpt lat="43.7912197" lon="11.4976903"><ele>428.0</ele><time>2026-05-03T07:07:10.998Z</time></trkpt><trkpt lat="43.7912934" lon="11.497796"><ele>429.0</ele><time>2026-05-03T07:07:11.997Z</time></trkpt><trkpt lat="43.7913894" lon="11.4978714"><ele>429.1666666666667</ele><time>2026-05-03T07:07:12.998Z</time></trkpt><trkpt lat="43.7914685" lon="11.4979461"><ele>429.33333333333337</ele><time>2026-05-03T07:07:13.998Z</time></trkpt><trkpt lat="43.7915533" lon="11.4979922"><ele>429.5</ele><time>2026-05-03T07:07:14.998Z</time></trkpt><trkpt lat="43.7916173" lon="11.4980114"><ele>429.6666666666667</ele><time>2026-05-03T07:07:15.998Z</time></trkpt><trkpt lat="43.7916771" lon="11.4980423"><ele>429.83333333333337</ele><time>2026-05-03T07:07:16.998Z</time></trkpt><trkpt lat="43.791775" lon="11.4980351"><ele>430.0</ele><time>2026-05-03T07:07:18.999Z</time></trkpt><trkpt lat="43.7918616" lon="11.4980874"><ele>430.5</ele><time>2026-05-03T07:07:20.998Z</time></trkpt><trkpt lat="43.7919774" lon="11.4981376"><ele>431.0</ele><time>2026-05-03T07:07:23.998Z</time></trkpt><trkpt lat="43.7921114" lon="11.4981278"><ele>431.5</ele><time>2026-05-03T07:07:25.999Z</time></trkpt><trkpt lat="43.792232" lon="11.4980444"><ele>432.0</ele><time>2026-05-03T07:07:27.998Z</time></trkpt><trkpt lat="43.7922953" lon="11.4979676"><ele>432.40000000000003</ele><time>2026-05-03T07:07:28.999Z</time></trkpt><trkpt lat="43.792356" lon="11.4979014"><ele>432.80000000000007</ele><time>2026-05-03T07:07:29.997Z</time></trkpt><trkpt lat="43.7924911" lon="11.4978357"><ele>433.2</ele><time>2026-05-03T07:07:31.998Z</time></trkpt><trkpt lat="43.7925634" lon="11.4978204"><ele>433.6</ele><time>2026-05-03T07:07:32.998Z</time></trkpt><trkpt lat="43.792664" lon="11.4978587"><ele>434.0</ele><time>2026-05-03T07:07:33.999Z</time></trkpt><trkpt lat="43.7927681" lon="11.4978821"><ele>435.25</ele><time>2026-05-03T07:07:34.999Z</time></trkpt><trkpt lat="43.7928876" lon="11.4979239"><ele>436.5</ele><time>2026-05-03T07:07:35.998Z</time></trkpt><trkpt lat="43.7929975" lon="11.4979577"><ele>437.75</ele><time>2026-05-03T07:07:36.999Z</time></trkpt><trkpt lat="43.7931146" lon="11.498013"><ele>439.0</ele><time>2026-05-03T07:07:37.998Z</time></trkpt><trkpt lat="43.7932111" lon="11.4980594"><ele>439.0</ele><time>2026-05-03T07:07:38.999Z</time></trkpt><trkpt lat="43.79331" lon="11.4981184"><ele>439.0</ele><time>2026-05-03T07:07:39.999Z</time></trkpt><trkpt lat="43.7933949" lon="11.498212"><ele>439.0</ele><time>2026-05-03T07:07:40.999Z</time></trkpt><trkpt lat="43.7934772" lon="11.4983043"><ele>439.0</ele><time>2026-05-03T07:07:41.998Z</time></trkpt><trkpt lat="43.7935539" lon="11.498404"><ele>439.0</ele><time>2026-05-03T07:07:42.998Z</time></trkpt><trkpt lat="43.7936259" lon="11.4984886"><ele>440.4</ele><time>2026-05-03T07:07:43.999Z</time></trkpt><trkpt lat="43.7936977" lon="11.4985829"><ele>441.79999999999995</ele><time>2026-05-03T07:07:44.999Z</time></trkpt><trkpt lat="43.7937643" lon="11.4986849"><ele>443.20000000000005</ele><time>2026-05-03T07:07:45.999Z</time></trkpt><trkpt lat="43.7938217" lon="11.49882"><ele>444.6</ele><time>2026-05-03T07:07:46.999Z</time></trkpt><trkpt lat="43.7938795" lon="11.4989462"><ele>446.0</ele><time>2026-05-03T07:07:47.999Z</time></trkpt><trkpt lat="43.7939103" lon="11.4991111"><ele>446.0</ele><time>2026-05-03T07:07:48.999Z</time></trkpt><trkpt lat="43.7939478" lon="11.4992178"><ele>446.0</ele><time>2026-05-03T07:07:49.999Z</time></trkpt><trkpt lat="43.7940102" lon="11.4993529"><ele>446.0</ele><time>2026-05-03T07:07:50.999Z</time></trkpt><trkpt lat="43.7940792" lon="11.4994867"><ele>446.0</ele><time>2026-05-03T07:07:51.998Z</time></trkpt><trkpt lat="43.794107" lon="11.4995895"><ele>446.0</ele><time>2026-05-03T07:07:52.998Z</time></trkpt><trkpt lat="43.7941188" lon="11.4996854"><ele>445.8333333333333</ele><time>2026-05-03T07:07:53.999Z</time></trkpt><trkpt lat="43.7941054" lon="11.4997993"><ele>445.66666666666663</ele><time>2026-05-03T07:07:54.999Z</time></trkpt><trkpt lat="43.7940792" lon="11.4999215"><ele>445.5</ele><time>2026-05-03T07:07:55.999Z</time></trkpt><trkpt lat="43.794079" lon="11.5000227"><ele>445.33333333333337</ele><time>2026-05-03T07:07:56.998Z</time></trkpt><trkpt lat="43.7940842" lon="11.500146"><ele>445.1666666666667</ele><time>2026-05-03T07:07:57.998Z</time></trkpt><trkpt lat="43.7940834" lon="11.5002693"><ele>445.0</ele><time>2026-05-03T07:07:58.999Z</time></trkpt><trkpt lat="43.794097" lon="11.5004013"><ele>445.75</ele><time>2026-05-03T07:07:59.999Z</time></trkpt><trkpt lat="43.7941214" lon="11.5005673"><ele>446.5</ele><time>2026-05-03T07:08:00.999Z</time></trkpt><trkpt lat="43.7941404" lon="11.5007119"><ele>447.25</ele><time>2026-05-03T07:08:01.999Z</time></trkpt><trkpt lat="43.7941561" lon="11.5008645"><ele>448.0</ele><time>2026-05-03T07:08:02.999Z</time></trkpt><trkpt lat="43.7941663" lon="11.501029"><ele>448.0</ele><time>2026-05-03T07:08:03.998Z</time></trkpt><trkpt lat="43.7941471" lon="11.5011616"><ele>447.99999999999994</ele><time>2026-05-03T07:08:04.999Z</time></trkpt><trkpt lat="43.7941384" lon="11.5012979"><ele>447.99999999999994</ele><time>2026-05-03T07:08:05.999Z</time></trkpt><trkpt lat="43.7941143" lon="11.5014413"><ele>448.0</ele><time>2026-05-03T07:08:06.999Z</time></trkpt><trkpt lat="43.7941065" lon="11.50158"><ele>448.0</ele><time>2026-05-03T07:08:07.999Z</time></trkpt><trkpt lat="43.7941024" lon="11.5017207"><ele>449.0</ele><time>2026-05-03T07:08:08.999Z</time></trkpt><trkpt lat="43.7940942" lon="11.5018451"><ele>449.99999999999994</ele><time>2026-05-03T07:08:09.998Z</time></trkpt><trkpt lat="43.7940892" lon="11.5019741"><ele>450.99999999999994</ele><time>2026-05-03T07:08:10.998Z</time></trkpt><trkpt lat="43.7940882" lon="11.5020791"><ele>452.0</ele><time>2026-05-03T07:08:11.999Z</time></trkpt><trkpt lat="43.7941239" lon="11.5022389"><ele>453.0</ele><time>2026-05-03T07:08:13.998Z</time></trkpt><trkpt lat="43.794184" lon="11.5023792"><ele>453.8571428571428</ele><time>2026-05-03T07:08:15.999Z</time></trkpt><trkpt lat="43.7942248" lon="11.5024514"><ele>454.71428571428567</ele><time>2026-05-03T07:08:16.998Z</time></trkpt><trkpt lat="43.7942674" lon="11.502525"><ele>455.57142857142856</ele><time>2026-05-03T07:08:17.998Z</time></trkpt><trkpt lat="43.7943121" lon="11.502604"><ele>456.4285714285714</ele><time>2026-05-03T07:08:18.999Z</time></trkpt><trkpt lat="43.7943632" lon="11.5026756"><ele>457.2857142857142</ele><time>2026-05-03T07:08:19.998Z</time></trkpt><trkpt lat="43.7944136" lon="11.5027465"><ele>458.14285714285717</ele><time>2026-05-03T07:08:20.998Z</time></trkpt><trkpt lat="43.7944651" lon="11.5028259"><ele>459.0</ele><time>2026-05-03T07:08:21.999Z</time></trkpt><trkpt lat="43.7945196" lon="11.5029015"><ele>460.8333333333333</ele><time>2026-05-03T07:08:22.999Z</time></trkpt><trkpt lat="43.7945756" lon="11.5029823"><ele>462.66666666666663</ele><time>2026-05-03T07:08:23.998Z</time></trkpt><trkpt lat="43.7946291" lon="11.5030718"><ele>464.5</ele><time>2026-05-03T07:08:24.999Z</time></trkpt><trkpt lat="43.7946839" lon="11.5031586"><ele>466.3333333333333</ele><time>2026-05-03T07:08:25.999Z</time></trkpt><trkpt lat="43.7947354" lon="11.503228"><ele>468.16666666666663</ele><time>2026-05-03T07:08:26.999Z</time></trkpt><trkpt lat="43.7948273" lon="11.5033099"><ele>470.0</ele><time>2026-05-03T07:08:28.999Z</time></trkpt><trkpt lat="43.7948918" lon="11.5034068"><ele>470.0</ele><time>2026-05-03T07:08:30.998Z</time></trkpt><trkpt lat="43.7949692" lon="11.5035277"><ele>470.0</ele><time>2026-05-03T07:08:32.999Z</time></trkpt><trkpt lat="43.7950482" lon="11.5036242"><ele>470.0</ele><time>2026-05-03T07:08:34.998Z</time></trkpt><trkpt lat="43.7951308" lon="11.5037089"><ele>470.0</ele><time>2026-05-03T07:08:36.999Z</time></trkpt><trkpt lat="43.7952009" lon="11.5037485"><ele>470.0</ele><time>2026-05-03T07:08:38.998Z</time></trkpt><trkpt lat="43.7952728" lon="11.5037654"><ele>471.2</ele><time>2026-05-03T07:08:40.999Z</time></trkpt><trkpt lat="43.7953414" lon="11.5037916"><ele>472.4</ele><time>2026-05-03T07:08:43.999Z</time></trkpt><trkpt lat="43.7954114" lon="11.503851"><ele>473.6</ele><time>2026-05-03T07:12:01.998Z</time></trkpt><trkpt lat="43.7954745" lon="11.503951"><ele>474.8</ele><time>2026-05-03T07:12:03.999Z</time></trkpt><trkpt lat="43.7955348" lon="11.5040737"><ele>476.0</ele><time>2026-05-03T07:12:05.998Z</time></trkpt><trkpt lat="43.7955436" lon="11.5042216"><ele>476.0</ele><time>2026-05-03T07:12:07.999Z</time></trkpt><trkpt lat="43.7955334" lon="11.504309"><ele>476.0</ele><time>2026-05-03T07:12:08.998Z</time></trkpt><trkpt lat="43.7955116" lon="11.5043978"><ele>476.0</ele><time>2026-05-03T07:12:09.998Z</time></trkpt><trkpt lat="43.7954878" lon="11.5044981"><ele>476.0</ele><time>2026-05-03T07:12:10.999Z</time></trkpt><trkpt lat="43.7954533" lon="11.5045823"><ele>476.0</ele><time>2026-05-03T07:12:11.999Z</time></trkpt><trkpt lat="43.795417" lon="11.5046721"><ele>476.0</ele><time>2026-05-03T07:12:12.999Z</time></trkpt><trkpt lat="43.7954062" lon="11.5047805"><ele>476.0</ele><time>2026-05-03T07:12:13.997Z</time></trkpt><trkpt lat="43.795381" lon="11.5048978"><ele>475.8333333333333</ele><time>2026-05-03T07:12:14.998Z</time></trkpt><trkpt lat="43.7953623" lon="11.5050018"><ele>475.66666666666663</ele><time>2026-05-03T07:12:15.999Z</time></trkpt><trkpt lat="43.7953313" lon="11.5051172"><ele>475.5</ele><time>2026-05-03T07:12:16.999Z</time></trkpt><trkpt lat="43.7953043" lon="11.5052318"><ele>475.33333333333337</ele><time>2026-05-03T07:12:17.999Z</time></trkpt><trkpt lat="43.7952837" lon="11.5053463"><ele>475.1666666666667</ele><time>2026-05-03T07:12:18.998Z</time></trkpt><trkpt lat="43.7952571" lon="11.5054668"><ele>475.0</ele><time>2026-05-03T07:12:19.999Z</time></trkpt><trkpt lat="43.7952267" lon="11.5055932"><ele>475.6</ele><time>2026-05-03T07:12:20.999Z</time></trkpt><trkpt lat="43.7951988" lon="11.5057199"><ele>476.2</ele><time>2026-05-03T07:12:21.998Z</time></trkpt><trkpt lat="43.7951693" lon="11.5058484"><ele>476.79999999999995</ele><time>2026-05-03T07:12:22.999Z</time></trkpt><trkpt lat="43.795138" lon="11.5059785"><ele>477.4</ele><time>2026-05-03T07:12:23.999Z</time></trkpt><trkpt lat="43.7951043" lon="11.506123"><ele>478.0</ele><time>2026-05-03T07:12:24.998Z</time></trkpt><trkpt lat="43.7950712" lon="11.506266"><ele>481.2</ele><time>2026-05-03T07:12:25.999Z</time></trkpt><trkpt lat="43.7950393" lon="11.5064138"><ele>484.4</ele><time>2026-05-03T07:12:26.999Z</time></trkpt><trkpt lat="43.7950035" lon="11.5065653"><ele>487.59999999999997</ele><time>2026-05-03T07:12:27.999Z</time></trkpt><trkpt lat="43.7949771" lon="11.5066927"><ele>490.79999999999995</ele><time>2026-05-03T07:12:28.998Z</time></trkpt><trkpt lat="43.7949411" lon="11.5067923"><ele>494.0</ele><time>2026-05-03T07:12:29.998Z</time></trkpt><trkpt lat="43.7949016" lon="11.506869"><ele>493.99999999999994</ele><time>2026-05-03T07:12:30.998Z</time></trkpt><trkpt lat="43.7948691" lon="11.5069539"><ele>494.0</ele><time>2026-05-03T07:12:31.998Z</time></trkpt><trkpt lat="43.7948356" lon="11.5070394"><ele>494.0</ele><time>2026-05-03T07:12:32.999Z</time></trkpt><trkpt lat="43.7948515" lon="11.5071504"><ele>494.0</ele><time>2026-05-03T07:12:33.998Z</time></trkpt><trkpt lat="43.7948407" lon="11.5072746"><ele>493.99999999999994</ele><time>2026-05-03T07:12:34.999Z</time></trkpt><trkpt lat="43.7948389" lon="11.5074"><ele>494.0</ele><time>2026-05-03T07:12:35.999Z</time></trkpt><trkpt lat="43.7948257" lon="11.5075373"><ele>495.6</ele><time>2026-05-03T07:12:36.999Z</time></trkpt><trkpt lat="43.7948167" lon="11.5076586"><ele>497.2</ele><time>2026-05-03T07:12:37.999Z</time></trkpt><trkpt lat="43.7947957" lon="11.5077973"><ele>498.80000000000007</ele><time>2026-05-03T07:12:38.998Z</time></trkpt><trkpt lat="43.7947822" lon="11.5079407"><ele>500.40000000000003</ele><time>2026-05-03T07:12:39.999Z</time></trkpt><trkpt lat="43.7947969" lon="11.5080494"><ele>502.0</ele><time>2026-05-03T07:12:40.999Z</time></trkpt><trkpt lat="43.7948183" lon="11.5081562"><ele>504.6</ele><time>2026-05-03T07:12:41.998Z</time></trkpt><trkpt lat="43.7948558" lon="11.508262"><ele>507.20000000000005</ele><time>2026-05-03T07:12:42.998Z</time></trkpt><trkpt lat="43.7948952" lon="11.5083859"><ele>509.8</ele><time>2026-05-03T07:12:43.999Z</time></trkpt><trkpt lat="43.7949361" lon="11.5085199"><ele>512.4</ele><time>2026-05-03T07:12:44.998Z</time></trkpt><trkpt lat="43.7949614" lon="11.5086428"><ele>515.0</ele><time>2026-05-03T07:12:45.999Z</time></trkpt><trkpt lat="43.7949914" lon="11.5087452"><ele>517.3333333333333</ele><time>2026-05-03T07:12:46.999Z</time></trkpt><trkpt lat="43.7950205" lon="11.5088292"><ele>519.6666666666666</ele><time>2026-05-03T07:12:47.998Z</time></trkpt><trkpt lat="43.7950891" lon="11.5089093"><ele>522.0</ele><time>2026-05-03T07:12:49.999Z</time></trkpt><trkpt lat="43.7951474" lon="11.5090102"><ele>524.3333333333334</ele><time>2026-05-03T07:12:51.998Z</time></trkpt><trkpt lat="43.7951535" lon="11.5091396"><ele>526.6666666666667</ele><time>2026-05-03T07:12:53.998Z</time></trkpt><trkpt lat="43.7951404" lon="11.5092489"><ele>529.0</ele><time>2026-05-03T07:12:55.998Z</time></trkpt><trkpt lat="43.7951286" lon="11.5094323"><ele>529.0</ele><time>2026-05-03T07:12:57.998Z</time></trkpt><trkpt lat="43.7951148" lon="11.5095575"><ele>529.0</ele><time>2026-05-03T07:12:59.999Z</time></trkpt><trkpt lat="43.7950812" lon="11.5096614"><ele>529.0</ele><time>2026-05-03T07:13:01.997Z</time></trkpt><trkpt lat="43.7950173" lon="11.50973"><ele>529.0</ele><time>2026-05-03T07:13:03.999Z</time></trkpt><trkpt lat="43.7949576" lon="11.5097739"><ele>529.0</ele><time>2026-05-03T07:13:07.083Z</time></trkpt><trkpt lat="43.7948763" lon="11.5098969"><ele>529.0</ele><time>2026-05-03T07:13:08.998Z</time></trkpt><trkpt lat="43.7948379" lon="11.5100093"><ele>529.8333333333334</ele><time>2026-05-03T07:13:09.999Z</time></trkpt><trkpt lat="43.7948222" lon="11.5101234"><ele>530.6666666666667</ele><time>2026-05-03T07:13:10.999Z</time></trkpt><trkpt lat="43.7948012" lon="11.5102296"><ele>531.5</ele><time>2026-05-03T07:13:11.998Z</time></trkpt><trkpt lat="43.7947706" lon="11.5103416"><ele>532.3333333333334</ele><time>2026-05-03T07:13:12.998Z</time></trkpt><trkpt lat="43.7947304" lon="11.5104398"><ele>533.1666666666666</ele><time>2026-05-03T07:13:13.999Z</time></trkpt><trkpt lat="43.7946896" lon="11.5105316"><ele>534.0</ele><time>2026-05-03T07:13:14.998Z</time></trkpt><trkpt lat="43.7946564" lon="11.5106579"><ele>534.6666666666666</ele><time>2026-05-03T07:13:15.998Z</time></trkpt><trkpt lat="43.7946452" lon="11.5107709"><ele>535.3333333333334</ele><time>2026-05-03T07:13:17.999Z</time></trkpt><trkpt lat="43.794637" lon="11.5108774"><ele>536.0</ele><time>2026-05-03T07:13:19.998Z</time></trkpt><trkpt lat="43.794612" lon="11.5109577"><ele>536.6666666666667</ele><time>2026-05-03T07:13:20.999Z</time></trkpt><trkpt lat="43.794582" lon="11.5111094"><ele>537.3333333333334</ele><time>2026-05-03T07:13:22.999Z</time></trkpt><trkpt lat="43.7945262" lon="11.5112259"><ele>538.0</ele><time>2026-05-03T07:13:24.999Z</time></trkpt><trkpt lat="43.7944918" lon="11.5113392"><ele>538.8</ele><time>2026-05-03T07:13:28.08Z</time></trkpt><trkpt lat="43.794375" lon="11.5114729"><ele>539.5999999999999</ele><time>2026-05-03T07:13:29.998Z</time></trkpt><trkpt lat="43.7943188" lon="11.5115784"><ele>540.4000000000001</ele><time>2026-05-03T07:13:30.999Z</time></trkpt><trkpt lat="43.794285" lon="11.5116908"><ele>541.2</ele><time>2026-05-03T07:13:31.999Z</time></trkpt><trkpt lat="43.79427" lon="11.5117918"><ele>542.0</ele><time>2026-05-03T07:13:32.999Z</time></trkpt><trkpt lat="43.794244" lon="11.5118852"><ele>544.4</ele><time>2026-05-03T07:13:33.999Z</time></trkpt><trkpt lat="43.7942091" lon="11.5119813"><ele>546.8000000000001</ele><time>2026-05-03T07:13:34.998Z</time></trkpt><trkpt lat="43.7941275" lon="11.5120884"><ele>549.2</ele><time>2026-05-03T07:13:36.999Z</time></trkpt><trkpt lat="43.7940775" lon="11.5121939"><ele>551.6</ele><time>2026-05-03T07:13:38.998Z</time></trkpt><trkpt lat="43.7940215" lon="11.5123035"><ele>554.0</ele><time>2026-05-03T07:13:40.998Z</time></trkpt><trkpt lat="43.7939329" lon="11.5123992"><ele>555.5</ele><time>2026-05-03T07:13:42.999Z</time></trkpt><trkpt lat="43.7938704" lon="11.512419"><ele>557.0</ele><time>2026-05-03T07:13:43.998Z</time></trkpt><trkpt lat="43.7938025" lon="11.5124196"><ele>558.5</ele><time>2026-05-03T07:13:44.999Z</time></trkpt><trkpt lat="43.7936987" lon="11.5124294"><ele>560.0</ele><time>2026-05-03T07:13:46.998Z</time></trkpt><trkpt lat="43.7936256" lon="11.512437"><ele>561.5</ele><time>2026-05-03T07:13:47.998Z</time></trkpt><trkpt lat="43.7935623" lon="11.5124567"><ele>563.0</ele><time>2026-05-03T07:13:49Z</time></trkpt><trkpt lat="43.7934771" lon="11.5125188"><ele>563.0</ele><time>2026-05-03T07:13:50Z</time></trkpt><trkpt lat="43.793403" lon="11.5125678"><ele>563.0</ele><time>2026-05-03T07:13:51Z</time></trkpt><trkpt lat="43.7933025" lon="11.5126222"><ele>563.0</ele><time>2026-05-03T07:13:52.999Z</time></trkpt><trkpt lat="43.7932562" lon="11.5126831"><ele>563.0</ele><time>2026-05-03T07:13:55Z</time></trkpt><trkpt lat="43.79337" lon="11.5127141"><ele>563.0</ele><time>2026-05-03T07:13:57.999Z</time></trkpt><trkpt lat="43.7934385" lon="11.5127089"><ele>563.0</ele><time>2026-05-03T07:13:58.999Z</time></trkpt><trkpt lat="43.7935126" lon="11.512788"><ele>563.8333333333333</ele><time>2026-05-03T07:14:00.999Z</time></trkpt><trkpt lat="43.7935106" lon="11.5129373"><ele>564.6666666666666</ele><time>2026-05-03T07:14:03Z</time></trkpt><trkpt lat="43.7934855" lon="11.5130339"><ele>565.5</ele><time>2026-05-03T07:14:03.999Z</time></trkpt><trkpt lat="43.7934499" lon="11.5131452"><ele>566.3333333333334</ele><time>2026-05-03T07:14:05Z</time></trkpt><trkpt lat="43.7934171" lon="11.5132684"><ele>567.1666666666667</ele><time>2026-05-03T07:14:05.999Z</time></trkpt><trkpt lat="43.7933999" lon="11.5133778"><ele>568.0</ele><time>2026-05-03T07:14:06.999Z</time></trkpt><trkpt lat="43.7933943" lon="11.5135087"><ele>570.4</ele><time>2026-05-03T07:14:09Z</time></trkpt><trkpt lat="43.7934235" lon="11.5135884"><ele>572.8</ele><time>2026-05-03T07:14:35.078Z</time></trkpt><trkpt lat="43.7933877" lon="11.513835"><ele>575.2</ele><time>2026-05-03T07:14:35.999Z</time></trkpt><trkpt lat="43.7934015" lon="11.5139667"><ele>577.6</ele><time>2026-05-03T07:14:37Z</time></trkpt><trkpt lat="43.793423" lon="11.5140492"><ele>580.0</ele><time>2026-05-03T07:14:37.999Z</time></trkpt><trkpt lat="43.7934553" lon="11.5142202"><ele>579.6666666666667</ele><time>2026-05-03T07:14:40Z</time></trkpt><trkpt lat="43.7934955" lon="11.5143862"><ele>579.3333333333334</ele><time>2026-05-03T07:14:42Z</time></trkpt><trkpt lat="43.7935107" lon="11.5144763"><ele>579.0</ele><time>2026-05-03T07:14:43Z</time></trkpt><trkpt lat="43.7935036" lon="11.5145728"><ele>578.6666666666666</ele><time>2026-05-03T07:14:43.999Z</time></trkpt><trkpt lat="43.7934754" lon="11.5146532"><ele>578.3333333333333</ele><time>2026-05-03T07:14:44.999Z</time></trkpt><trkpt lat="43.7934323" lon="11.514731"><ele>578.0</ele><time>2026-05-03T07:14:46Z</time></trkpt><trkpt lat="43.7934069" lon="11.514839"><ele>582.6666666666666</ele><time>2026-05-03T07:14:46.998Z</time></trkpt><trkpt lat="43.7933643" lon="11.5149404"><ele>587.3333333333333</ele><time>2026-05-03T07:14:48Z</time></trkpt><trkpt lat="43.7933227" lon="11.5150209"><ele>592.0</ele><time>2026-05-03T07:14:49Z</time></trkpt><trkpt lat="43.793319" lon="11.5151554"><ele>596.6666666666666</ele><time>2026-05-03T07:14:50.999Z</time></trkpt><trkpt lat="43.7933456" lon="11.515274"><ele>601.3333333333334</ele><time>2026-05-03T07:14:51.999Z</time></trkpt><trkpt lat="43.7933913" lon="11.5153727"><ele>606.0</ele><time>2026-05-03T07:14:52.999Z</time></trkpt><trkpt lat="43.7934551" lon="11.5154328"><ele>605.6666666666666</ele><time>2026-05-03T07:14:54Z</time></trkpt><trkpt lat="43.7935203" lon="11.515484"><ele>605.3333333333334</ele><time>2026-05-03T07:14:54.999Z</time></trkpt><trkpt lat="43.793581" lon="11.5155186"><ele>605.0</ele><time>2026-05-03T07:14:56Z</time></trkpt><trkpt lat="43.7936466" lon="11.5155379"><ele>604.6666666666667</ele><time>2026-05-03T07:14:57Z</time></trkpt><trkpt lat="43.7937285" lon="11.5155733"><ele>604.3333333333334</ele><time>2026-05-03T07:14:58Z</time></trkpt><trkpt lat="43.7937937" lon="11.5156547"><ele>604.0</ele><time>2026-05-03T07:14:58.999Z</time></trkpt><trkpt lat="43.7938389" lon="11.5157576"><ele>604.0</ele><time>2026-05-03T07:15:00Z</time></trkpt><trkpt lat="43.7938807" lon="11.5158673"><ele>604.0</ele><time>2026-05-03T07:15:01Z</time></trkpt><trkpt lat="43.7939208" lon="11.5160006"><ele>604.0</ele><time>2026-05-03T07:15:01.999Z</time></trkpt><trkpt lat="43.7939679" lon="11.5161289"><ele>604.0</ele><time>2026-05-03T07:15:03Z</time></trkpt><trkpt lat="43.7940135" lon="11.5162517"><ele>604.0</ele><time>2026-05-03T07:15:04Z</time></trkpt><trkpt lat="43.7940587" lon="11.5163658"><ele>606.5</ele><time>2026-05-03T07:15:05Z</time></trkpt><trkpt lat="43.7940926" lon="11.5164623"><ele>609.0</ele><time>2026-05-03T07:15:05.999Z</time></trkpt><trkpt lat="43.7941269" lon="11.5165699"><ele>611.5</ele><time>2026-05-03T07:15:07Z</time></trkpt><trkpt lat="43.7941646" lon="11.5166793"><ele>614.0</ele><time>2026-05-03T07:15:08Z</time></trkpt><trkpt lat="43.794211" lon="11.5167694"><ele>616.5</ele><time>2026-05-03T07:15:09Z</time></trkpt><trkpt lat="43.7942707" lon="11.5168984"><ele>619.0</ele><time>2026-05-03T07:15:10.999Z</time></trkpt><trkpt lat="43.794276" lon="11.5170053"><ele>620.8333333333334</ele><time>2026-05-03T07:15:11.999Z</time></trkpt><trkpt lat="43.7942756" lon="11.517129"><ele>622.6666666666667</ele><time>2026-05-03T07:15:12.999Z</time></trkpt><trkpt lat="43.7942929" lon="11.5172529"><ele>624.5</ele><time>2026-05-03T07:15:14Z</time></trkpt><trkpt lat="43.7943222" lon="11.5173657"><ele>626.3333333333334</ele><time>2026-05-03T07:15:14.999Z</time></trkpt><trkpt lat="43.7943783" lon="11.5174313"><ele>628.1666666666666</ele><time>2026-05-03T07:15:16Z</time></trkpt><trkpt lat="43.794421" lon="11.5174999"><ele>630.0</ele><time>2026-05-03T07:15:17Z</time></trkpt><trkpt lat="43.7944583" lon="11.5175769"><ele>627.0</ele><time>2026-05-03T07:15:17.999Z</time></trkpt><trkpt lat="43.794481" lon="11.5176709"><ele>624.0</ele><time>2026-05-03T07:15:19Z</time></trkpt><trkpt lat="43.794506" lon="11.5177647"><ele>621.0</ele><time>2026-05-03T07:15:20Z</time></trkpt><trkpt lat="43.7945268" lon="11.5179306"><ele>618.0</ele><time>2026-05-03T07:15:21.999Z</time></trkpt><trkpt lat="43.7946324" lon="11.5180433"><ele>615.0</ele><time>2026-05-03T07:15:23.999Z</time></trkpt><trkpt lat="43.7946968" lon="11.5180974"><ele>615.0</ele><time>2026-05-03T07:15:25Z</time></trkpt><trkpt lat="43.7947655" lon="11.5181919"><ele>615.0</ele><time>2026-05-03T07:15:26Z</time></trkpt><trkpt lat="43.7948198" lon="11.5182836"><ele>615.0</ele><time>2026-05-03T07:15:27Z</time></trkpt><trkpt lat="43.7948563" lon="11.5183985"><ele>615.0</ele><time>2026-05-03T07:15:27.999Z</time></trkpt><trkpt lat="43.7948811" lon="11.5185005"><ele>615.0</ele><time>2026-05-03T07:15:29Z</time></trkpt><trkpt lat="43.7949214" lon="11.5185784"><ele>615.0</ele><time>2026-05-03T07:15:29.999Z</time></trkpt><trkpt lat="43.7949644" lon="11.5186593"><ele>614.8</ele><time>2026-05-03T07:15:31Z</time></trkpt><trkpt lat="43.7950087" lon="11.5187504"><ele>614.6</ele><time>2026-05-03T07:15:32Z</time></trkpt><trkpt lat="43.7950569" lon="11.5188482"><ele>614.4</ele><time>2026-05-03T07:15:32.999Z</time></trkpt><trkpt lat="43.7951068" lon="11.5189392"><ele>614.2</ele><time>2026-05-03T07:15:34Z</time></trkpt><trkpt lat="43.7951588" lon="11.5190238"><ele>614.0</ele><time>2026-05-03T07:15:35Z</time></trkpt><trkpt lat="43.7952371" lon="11.5191561"><ele>614.0</ele><time>2026-05-03T07:15:37Z</time></trkpt><trkpt lat="43.7953179" lon="11.5192867"><ele>614.0</ele><time>2026-05-03T07:15:39Z</time></trkpt><trkpt lat="43.7953365" lon="11.519373"><ele>614.0</ele><time>2026-05-03T07:15:40Z</time></trkpt><trkpt lat="43.7953572" lon="11.5194664"><ele>614.0</ele><time>2026-05-03T07:15:40.999Z</time></trkpt><trkpt lat="43.7953815" lon="11.5195503"><ele>614.0</ele><time>2026-05-03T07:15:42Z</time></trkpt><trkpt lat="43.7954212" lon="11.5196246"><ele>614.0</ele><time>2026-05-03T07:15:43Z</time></trkpt><trkpt lat="43.7954829" lon="11.5196492"><ele>617.0</ele><time>2026-05-03T07:15:43.999Z</time></trkpt><trkpt lat="43.7956081" lon="11.5196489"><ele>620.0</ele><time>2026-05-03T07:15:46Z</time></trkpt><trkpt lat="43.7956791" lon="11.5196242"><ele>623.0</ele><time>2026-05-03T07:15:47Z</time></trkpt><trkpt lat="43.795768" lon="11.519733"><ele>626.0</ele><time>2026-05-03T07:15:48.999Z</time></trkpt><trkpt lat="43.795861" lon="11.5198145"><ele>629.0</ele><time>2026-05-03T07:15:50.999Z</time></trkpt><trkpt lat="43.7959574" lon="11.5198936"><ele>629.0</ele><time>2026-05-03T07:15:53Z</time></trkpt><trkpt lat="43.7960461" lon="11.5199394"><ele>629.0</ele><time>2026-05-03T07:15:54.999Z</time></trkpt><trkpt lat="43.7961155" lon="11.519911"><ele>629.0</ele><time>2026-05-03T07:15:55.999Z</time></trkpt><trkpt lat="43.7961842" lon="11.5198908"><ele>629.0</ele><time>2026-05-03T07:15:57Z</time></trkpt><trkpt lat="43.7963155" lon="11.5198442"><ele>629.0</ele><time>2026-05-03T07:15:59Z</time></trkpt><trkpt lat="43.7964496" lon="11.5198549"><ele>629.0</ele><time>2026-05-03T07:16:01Z</time></trkpt><trkpt lat="43.7965154" lon="11.519872"><ele>629.0</ele><time>2026-05-03T07:16:01.999Z</time></trkpt><trkpt lat="43.7965815" lon="11.5199343"><ele>629.0</ele><time>2026-05-03T07:16:02.999Z</time></trkpt><trkpt lat="43.7966529" lon="11.5199739"><ele>629.0</ele><time>2026-05-03T07:16:04Z</time></trkpt><trkpt lat="43.7967397" lon="11.5200337"><ele>629.0</ele><time>2026-05-03T07:16:04.999Z</time></trkpt><trkpt lat="43.7968176" lon="11.5200841"><ele>629.0</ele><time>2026-05-03T07:16:06Z</time></trkpt><trkpt lat="43.7968795" lon="11.5201406"><ele>629.6666666666666</ele><time>2026-05-03T07:16:07Z</time></trkpt><trkpt lat="43.7969555" lon="11.5201985"><ele>630.3333333333333</ele><time>2026-05-03T07:16:08Z</time></trkpt><trkpt lat="43.7970553" lon="11.5202836"><ele>631.0</ele><time>2026-05-03T07:16:09Z</time></trkpt><trkpt lat="43.797106" lon="11.5203487"><ele>631.6666666666666</ele><time>2026-05-03T07:16:09.999Z</time></trkpt><trkpt lat="43.7971525" lon="11.520429"><ele>632.3333333333334</ele><time>2026-05-03T07:16:10.999Z</time></trkpt><trkpt lat="43.7972076" lon="11.5205407"><ele>633.0</ele><time>2026-05-03T07:16:12Z</time></trkpt><trkpt lat="43.7972536" lon="11.520671"><ele>633.0</ele><time>2026-05-03T07:16:13Z</time></trkpt><trkpt lat="43.7973113" lon="11.5209615"><ele>633.0</ele><time>2026-05-03T07:16:14.999Z</time></trkpt><trkpt lat="43.7973404" lon="11.5211057"><ele>633.0</ele><time>2026-05-03T07:16:15.999Z</time></trkpt><trkpt lat="43.7973745" lon="11.5212151"><ele>633.0</ele><time>2026-05-03T07:16:17Z</time></trkpt><trkpt lat="43.7974141" lon="11.5213276"><ele>634.5999999999999</ele><time>2026-05-03T07:16:18Z</time></trkpt><trkpt lat="43.7974608" lon="11.521427"><ele>636.1999999999999</ele><time>2026-05-03T07:16:18.998Z</time></trkpt><trkpt lat="43.7975436" lon="11.5215216"><ele>637.8</ele><time>2026-05-03T07:16:20Z</time></trkpt><trkpt lat="43.797603" lon="11.5215897"><ele>639.4</ele><time>2026-05-03T07:16:21Z</time></trkpt><trkpt lat="43.7976814" lon="11.5216695"><ele>641.0</ele><time>2026-05-03T07:16:22Z</time></trkpt><trkpt lat="43.797832" lon="11.5216533"><ele>641.0</ele><time>2026-05-03T07:16:23.999Z</time></trkpt><trkpt lat="43.7979375" lon="11.521608"><ele>641.0</ele><time>2026-05-03T07:16:24.999Z</time></trkpt><trkpt lat="43.7980531" lon="11.5215578"><ele>641.0</ele><time>2026-05-03T07:16:25.999Z</time></trkpt><trkpt lat="43.7981573" lon="11.5215155"><ele>641.0</ele><time>2026-05-03T07:16:27Z</time></trkpt><trkpt lat="43.7982466" lon="11.5215202"><ele>641.0</ele><time>2026-05-03T07:16:27.999Z</time></trkpt><trkpt lat="43.7983312" lon="11.5215564"><ele>641.0</ele><time>2026-05-03T07:16:29Z</time></trkpt><trkpt lat="43.798425" lon="11.5216348"><ele>641.0</ele><time>2026-05-03T07:16:29.999Z</time></trkpt><trkpt lat="43.7985072" lon="11.5217218"><ele>641.0</ele><time>2026-05-03T07:16:31Z</time></trkpt><trkpt lat="43.7985776" lon="11.5217998"><ele>641.0</ele><time>2026-05-03T07:16:32Z</time></trkpt><trkpt lat="43.7986457" lon="11.5218742"><ele>641.0</ele><time>2026-05-03T07:16:32.999Z</time></trkpt><trkpt lat="43.7987102" lon="11.5219462"><ele>639.6666666666666</ele><time>2026-05-03T07:16:34Z</time></trkpt><trkpt lat="43.7987823" lon="11.5220004"><ele>638.3333333333333</ele><time>2026-05-03T07:16:35Z</time></trkpt><trkpt lat="43.7988448" lon="11.5220547"><ele>637.0</ele><time>2026-05-03T07:16:36Z</time></trkpt><trkpt lat="43.7988955" lon="11.5221279"><ele>635.6666666666666</ele><time>2026-05-03T07:16:37Z</time></trkpt><trkpt lat="43.7989296" lon="11.5222338"><ele>634.3333333333334</ele><time>2026-05-03T07:16:38Z</time></trkpt><trkpt lat="43.7989547" lon="11.5223647"><ele>633.0</ele><time>2026-05-03T07:16:39Z</time></trkpt><trkpt lat="43.7989803" lon="11.5224956"><ele>633.0</ele><time>2026-05-03T07:16:39.999Z</time></trkpt><trkpt lat="43.7990086" lon="11.5226141"><ele>633.0</ele><time>2026-05-03T07:16:41Z</time></trkpt><trkpt lat="43.799041" lon="11.5227296"><ele>633.0</ele><time>2026-05-03T07:16:41.999Z</time></trkpt><trkpt lat="43.799074" lon="11.5228381"><ele>633.0</ele><time>2026-05-03T07:16:43Z</time></trkpt><trkpt lat="43.7991214" lon="11.5229375"><ele>633.0</ele><time>2026-05-03T07:16:43.999Z</time></trkpt><trkpt lat="43.7991278" lon="11.5230447"><ele>633.0</ele><time>2026-05-03T07:16:44.999Z</time></trkpt><trkpt lat="43.7991396" lon="11.5231548"><ele>633.6666666666666</ele><time>2026-05-03T07:16:46Z</time></trkpt><trkpt lat="43.7991662" lon="11.5232656"><ele>634.3333333333334</ele><time>2026-05-03T07:16:47Z</time></trkpt><trkpt lat="43.7992102" lon="11.5233742"><ele>635.0</ele><time>2026-05-03T07:16:48Z</time></trkpt><trkpt lat="43.7992693" lon="11.523464"><ele>635.6666666666667</ele><time>2026-05-03T07:16:49Z</time></trkpt><trkpt lat="43.7993187" lon="11.5235642"><ele>636.3333333333334</ele><time>2026-05-03T07:16:50Z</time></trkpt><trkpt lat="43.7993678" lon="11.5236654"><ele>637.0</ele><time>2026-05-03T07:16:51Z</time></trkpt><trkpt lat="43.7994132" lon="11.5237724"><ele>635.2</ele><time>2026-05-03T07:16:52Z</time></trkpt><trkpt lat="43.7994772" lon="11.5239016"><ele>633.4000000000001</ele><time>2026-05-03T07:16:53Z</time></trkpt><trkpt lat="43.7995455" lon="11.5240378"><ele>631.5999999999999</ele><time>2026-05-03T07:16:53.999Z</time></trkpt><trkpt lat="43.7996054" lon="11.524126"><ele>629.8</ele><time>2026-05-03T07:16:55Z</time></trkpt><trkpt lat="43.7996511" lon="11.5241919"><ele>628.0</ele><time>2026-05-03T07:16:56Z</time></trkpt><trkpt lat="43.7997817" lon="11.5241437"><ele>628.0</ele><time>2026-05-03T07:16:58Z</time></trkpt><trkpt lat="43.799846" lon="11.5240729"><ele>628.0</ele><time>2026-05-03T07:16:59Z</time></trkpt><trkpt lat="43.7999422" lon="11.5240271"><ele>628.0</ele><time>2026-05-03T07:17:01Z</time></trkpt><trkpt lat="43.8000049" lon="11.5240857"><ele>628.0</ele><time>2026-05-03T07:17:03Z</time></trkpt><trkpt lat="43.8000416" lon="11.5242105"><ele>628.0</ele><time>2026-05-03T07:17:05Z</time></trkpt><trkpt lat="43.8000764" lon="11.5243088"><ele>628.0</ele><time>2026-05-03T07:17:06Z</time></trkpt><trkpt lat="43.8001348" lon="11.5243821"><ele>626.0</ele><time>2026-05-03T07:17:07Z</time></trkpt><trkpt lat="43.800202" lon="11.5244417"><ele>624.0</ele><time>2026-05-03T07:17:08Z</time></trkpt><trkpt lat="43.8002827" lon="11.524525"><ele>622.0</ele><time>2026-05-03T07:17:09Z</time></trkpt><trkpt lat="43.8003391" lon="11.524588"><ele>620.0</ele><time>2026-05-03T07:17:10Z</time></trkpt><trkpt lat="43.800331" lon="11.5247337"><ele>618.0</ele><time>2026-05-03T07:17:10.999Z</time></trkpt><trkpt lat="43.800314" lon="11.5248616"><ele>618.0</ele><time>2026-05-03T07:17:12Z</time></trkpt><trkpt lat="43.8003056" lon="11.5250019"><ele>618.0</ele><time>2026-05-03T07:17:13Z</time></trkpt><trkpt lat="43.8002914" lon="11.5251261"><ele>618.0</ele><time>2026-05-03T07:17:14Z</time></trkpt><trkpt lat="43.8002693" lon="11.5252481"><ele>618.0</ele><time>2026-05-03T07:17:14.999Z</time></trkpt><trkpt lat="43.8002565" lon="11.525372"><ele>618.0</ele><time>2026-05-03T07:17:15.999Z</time></trkpt><trkpt lat="43.8002563" lon="11.5254874"><ele>618.3333333333334</ele><time>2026-05-03T07:17:16.999Z</time></trkpt><trkpt lat="43.8002788" lon="11.5255963"><ele>618.6666666666666</ele><time>2026-05-03T07:17:18Z</time></trkpt><trkpt lat="43.8002914" lon="11.5257061"><ele>619.0</ele><time>2026-05-03T07:17:18.999Z</time></trkpt><trkpt lat="43.8003287" lon="11.5258149"><ele>619.3333333333333</ele><time>2026-05-03T07:17:19.999Z</time></trkpt><trkpt lat="43.80035" lon="11.5259169"><ele>619.6666666666666</ele><time>2026-05-03T07:17:21Z</time></trkpt><trkpt lat="43.800387" lon="11.5260364"><ele>620.0</ele><time>2026-05-03T07:17:22Z</time></trkpt><trkpt lat="43.8004181" lon="11.5261636"><ele>620.1666666666666</ele><time>2026-05-03T07:17:22.999Z</time></trkpt><trkpt lat="43.8004115" lon="11.5262975"><ele>620.3333333333333</ele><time>2026-05-03T07:17:23.999Z</time></trkpt><trkpt lat="43.8004148" lon="11.5264238"><ele>620.5</ele><time>2026-05-03T07:17:25Z</time></trkpt><trkpt lat="43.8003951" lon="11.5265391"><ele>620.6666666666666</ele><time>2026-05-03T07:17:26Z</time></trkpt><trkpt lat="43.8003767" lon="11.5266261"><ele>620.8333333333334</ele><time>2026-05-03T07:17:27Z</time></trkpt><trkpt lat="43.8003299" lon="11.5267421"><ele>621.0</ele><time>2026-05-03T07:17:29Z</time></trkpt><trkpt lat="43.8002615" lon="11.5267969"><ele>621.0</ele><time>2026-05-03T07:17:31Z</time></trkpt><trkpt lat="43.800172" lon="11.5268348"><ele>621.0</ele><time>2026-05-03T07:17:33Z</time></trkpt><trkpt lat="43.8000741" lon="11.52689"><ele>621.0</ele><time>2026-05-03T07:17:34.999Z</time></trkpt><trkpt lat="43.799978" lon="11.5269301"><ele>621.0</ele><time>2026-05-03T07:17:37Z</time></trkpt><trkpt lat="43.7998877" lon="11.5269709"><ele>621.0</ele><time>2026-05-03T07:17:38.999Z</time></trkpt><trkpt lat="43.7998136" lon="11.5270079"><ele>621.6666666666666</ele><time>2026-05-03T07:17:41Z</time></trkpt><trkpt lat="43.7997458" lon="11.5270422"><ele>622.3333333333334</ele><time>2026-05-03T07:17:42.999Z</time></trkpt><trkpt lat="43.7996333" lon="11.5270483"><ele>623.0</ele><time>2026-05-03T07:17:45.999Z</time></trkpt><trkpt lat="43.7995437" lon="11.5270875"><ele>623.6666666666667</ele><time>2026-05-03T07:17:47.999Z</time></trkpt><trkpt lat="43.799446" lon="11.5271237"><ele>624.3333333333334</ele><time>2026-05-03T07:17:50Z</time></trkpt><trkpt lat="43.7993874" lon="11.5271637"><ele>625.0</ele><time>2026-05-03T07:17:51Z</time></trkpt><trkpt lat="43.7992949" lon="11.5272837"><ele>626.5</ele><time>2026-05-03T07:17:53Z</time></trkpt><trkpt lat="43.7992488" lon="11.5273665"><ele>628.0</ele><time>2026-05-03T07:17:54Z</time></trkpt><trkpt lat="43.7991942" lon="11.5274585"><ele>629.5</ele><time>2026-05-03T07:17:54.998Z</time></trkpt><trkpt lat="43.7991386" lon="11.5275484"><ele>631.0</ele><time>2026-05-03T07:17:56Z</time></trkpt><trkpt lat="43.7990747" lon="11.5276129"><ele>632.5</ele><time>2026-05-03T07:17:56.999Z</time></trkpt><trkpt lat="43.7990059" lon="11.527678"><ele>634.0</ele><time>2026-05-03T07:17:57.999Z</time></trkpt><trkpt lat="43.7989397" lon="11.5277543"><ele>634.0</ele><time>2026-05-03T07:17:58.999Z</time></trkpt><trkpt lat="43.7988879" lon="11.527858"><ele>634.0</ele><time>2026-05-03T07:18:00Z</time></trkpt><trkpt lat="43.7988377" lon="11.527964"><ele>634.0</ele><time>2026-05-03T07:18:01Z</time></trkpt><trkpt lat="43.7987996" lon="11.5280794"><ele>634.0</ele><time>2026-05-03T07:18:01.999Z</time></trkpt><trkpt lat="43.7987644" lon="11.5282077"><ele>634.0</ele><time>2026-05-03T07:18:03Z</time></trkpt><trkpt lat="43.7987272" lon="11.5283412"><ele>633.0</ele><time>2026-05-03T07:18:03.999Z</time></trkpt><trkpt lat="43.7986902" lon="11.528468"><ele>632.0</ele><time>2026-05-03T07:18:05Z</time></trkpt><trkpt lat="43.7986677" lon="11.5285966"><ele>631.0</ele><time>2026-05-03T07:18:05.999Z</time></trkpt><trkpt lat="43.7986595" lon="11.5287332"><ele>630.0</ele><time>2026-05-03T07:18:06.999Z</time></trkpt><trkpt lat="43.7986758" lon="11.5288942"><ele>629.0</ele><time>2026-05-03T07:18:08Z</time></trkpt><trkpt lat="43.7987295" lon="11.529038"><ele>629.0</ele><time>2026-05-03T07:18:08.999Z</time></trkpt><trkpt lat="43.7987824" lon="11.5291803"><ele>629.0</ele><time>2026-05-03T07:18:10Z</time></trkpt><trkpt lat="43.7988355" lon="11.5293383"><ele>629.0</ele><time>2026-05-03T07:18:11Z</time></trkpt><trkpt lat="43.7988882" lon="11.5294945"><ele>629.0</ele><time>2026-05-03T07:18:11.999Z</time></trkpt><trkpt lat="43.7989267" lon="11.5296295"><ele>630.2</ele><time>2026-05-03T07:18:13Z</time></trkpt><trkpt lat="43.7989451" lon="11.5297586"><ele>631.4</ele><time>2026-05-03T07:18:14Z</time></trkpt><trkpt lat="43.7989494" lon="11.5299038"><ele>632.6</ele><time>2026-05-03T07:18:14.999Z</time></trkpt><trkpt lat="43.7989581" lon="11.5300384"><ele>633.8</ele><time>2026-05-03T07:18:16Z</time></trkpt><trkpt lat="43.7989795" lon="11.5301622"><ele>635.0</ele><time>2026-05-03T07:18:17Z</time></trkpt><trkpt lat="43.7990054" lon="11.5302819"><ele>636.3333333333333</ele><time>2026-05-03T07:18:18Z</time></trkpt><trkpt lat="43.799019" lon="11.5303922"><ele>637.6666666666666</ele><time>2026-05-03T07:18:18.998Z</time></trkpt><trkpt lat="43.7990212" lon="11.5305031"><ele>639.0</ele><time>2026-05-03T07:18:20Z</time></trkpt><trkpt lat="43.7990137" lon="11.5306171"><ele>640.3333333333334</ele><time>2026-05-03T07:18:21Z</time></trkpt><trkpt lat="43.7990064" lon="11.5307451"><ele>641.6666666666667</ele><time>2026-05-03T07:18:21.999Z</time></trkpt><trkpt lat="43.7989814" lon="11.5308928"><ele>643.0</ele><time>2026-05-03T07:18:23Z</time></trkpt><trkpt lat="43.7989573" lon="11.5310406"><ele>643.0</ele><time>2026-05-03T07:18:23.999Z</time></trkpt><trkpt lat="43.7989339" lon="11.5311909"><ele>643.0</ele><time>2026-05-03T07:18:24.999Z</time></trkpt><trkpt lat="43.7989084" lon="11.5313306"><ele>643.0</ele><time>2026-05-03T07:18:26Z</time></trkpt><trkpt lat="43.7988824" lon="11.5314659"><ele>643.0</ele><time>2026-05-03T07:18:27Z</time></trkpt><trkpt lat="43.7988563" lon="11.5315945"><ele>643.0</ele><time>2026-05-03T07:18:28Z</time></trkpt><trkpt lat="43.7988224" lon="11.5317063"><ele>642.8</ele><time>2026-05-03T07:18:29Z</time></trkpt><trkpt lat="43.7987763" lon="11.5318079"><ele>642.5999999999999</ele><time>2026-05-03T07:18:29.999Z</time></trkpt><trkpt lat="43.7987182" lon="11.5318965"><ele>642.4000000000001</ele><time>2026-05-03T07:18:30.999Z</time></trkpt><trkpt lat="43.7986491" lon="11.5319792"><ele>642.2</ele><time>2026-05-03T07:18:31.998Z</time></trkpt><trkpt lat="43.7985724" lon="11.5320552"><ele>642.0</ele><time>2026-05-03T07:18:32.999Z</time></trkpt><trkpt lat="43.7984775" lon="11.5320721"><ele>644.5</ele><time>2026-05-03T07:18:34Z</time></trkpt><trkpt lat="43.7983762" lon="11.5321121"><ele>647.0</ele><time>2026-05-03T07:18:34.999Z</time></trkpt><trkpt lat="43.7982719" lon="11.5321608"><ele>649.5</ele><time>2026-05-03T07:18:36Z</time></trkpt><trkpt lat="43.7981591" lon="11.5321971"><ele>652.0</ele><time>2026-05-03T07:18:37Z</time></trkpt><trkpt lat="43.798037" lon="11.5322178"><ele>652.0</ele><time>2026-05-03T07:18:38Z</time></trkpt><trkpt lat="43.7979197" lon="11.5322501"><ele>652.0</ele><time>2026-05-03T07:18:38.999Z</time></trkpt><trkpt lat="43.7978169" lon="11.5322959"><ele>652.0</ele><time>2026-05-03T07:18:39.999Z</time></trkpt><trkpt lat="43.7977282" lon="11.5323398"><ele>652.0</ele><time>2026-05-03T07:18:41Z</time></trkpt><trkpt lat="43.7976534" lon="11.5324343"><ele>652.0</ele><time>2026-05-03T07:18:41.999Z</time></trkpt><trkpt lat="43.7975701" lon="11.5325265"><ele>655.2</ele><time>2026-05-03T07:18:43Z</time></trkpt><trkpt lat="43.7974874" lon="11.5326251"><ele>658.4000000000001</ele><time>2026-05-03T07:18:44Z</time></trkpt><trkpt lat="43.7974009" lon="11.532722"><ele>661.5999999999999</ele><time>2026-05-03T07:18:44.999Z</time></trkpt><trkpt lat="43.7973177" lon="11.5328096"><ele>664.8</ele><time>2026-05-03T07:18:45.999Z</time></trkpt><trkpt lat="43.7972269" lon="11.5328753"><ele>668.0</ele><time>2026-05-03T07:18:46.999Z</time></trkpt><trkpt lat="43.7971387" lon="11.5329411"><ele>668.0</ele><time>2026-05-03T07:18:47.999Z</time></trkpt><trkpt lat="43.7970494" lon="11.5330214"><ele>668.0</ele><time>2026-05-03T07:18:48.999Z</time></trkpt><trkpt lat="43.7969596" lon="11.5331125"><ele>668.0</ele><time>2026-05-03T07:18:49.999Z</time></trkpt><trkpt lat="43.7968734" lon="11.5332164"><ele>668.0</ele><time>2026-05-03T07:18:50.999Z</time></trkpt><trkpt lat="43.7967946" lon="11.5333459"><ele>673.5999999999999</ele><time>2026-05-03T07:18:52Z</time></trkpt><trkpt lat="43.7967185" lon="11.5334642"><ele>679.1999999999999</ele><time>2026-05-03T07:18:53Z</time></trkpt><trkpt lat="43.7966468" lon="11.5335821"><ele>684.8</ele><time>2026-05-03T07:18:53.999Z</time></trkpt><trkpt lat="43.7966088" lon="11.5337193"><ele>690.4</ele><time>2026-05-03T07:18:55Z</time></trkpt><trkpt lat="43.7965867" lon="11.5338581"><ele>696.0</ele><time>2026-05-03T07:18:55.999Z</time></trkpt><trkpt lat="43.7965711" lon="11.5339869"><ele>696.0</ele><time>2026-05-03T07:18:57Z</time></trkpt><trkpt lat="43.7965467" lon="11.5341393"><ele>696.0</ele><time>2026-05-03T07:18:58Z</time></trkpt><trkpt lat="43.7965317" lon="11.5342931"><ele>696.0</ele><time>2026-05-03T07:18:58.999Z</time></trkpt><trkpt lat="43.7965063" lon="11.534451"><ele>696.0</ele><time>2026-05-03T07:19:00Z</time></trkpt><trkpt lat="43.7964805" lon="11.5346009"><ele>695.4</ele><time>2026-05-03T07:19:01Z</time></trkpt><trkpt lat="43.7964513" lon="11.5347444"><ele>694.8</ele><time>2026-05-03T07:19:02Z</time></trkpt><trkpt lat="43.7964177" lon="11.5348774"><ele>694.1999999999999</ele><time>2026-05-03T07:19:03Z</time></trkpt><trkpt lat="43.7963767" lon="11.5349996"><ele>693.5999999999999</ele><time>2026-05-03T07:19:03.999Z</time></trkpt><trkpt lat="43.7963305" lon="11.5351174"><ele>693.0</ele><time>2026-05-03T07:19:05Z</time></trkpt><trkpt lat="43.7962834" lon="11.5352215"><ele>693.0</ele><time>2026-05-03T07:19:06Z</time></trkpt><trkpt lat="43.7962287" lon="11.5353029"><ele>693.0</ele><time>2026-05-03T07:19:06.999Z</time></trkpt><trkpt lat="43.7961825" lon="11.535391"><ele>693.0</ele><time>2026-05-03T07:19:08Z</time></trkpt><trkpt lat="43.7961557" lon="11.535472"><ele>693.0</ele><time>2026-05-03T07:19:09Z</time></trkpt><trkpt lat="43.7961314" lon="11.5355731"><ele>693.0</ele><time>2026-05-03T07:19:09.999Z</time></trkpt><trkpt lat="43.7961213" lon="11.5356813"><ele>693.0</ele><time>2026-05-03T07:19:11Z</time></trkpt><trkpt lat="43.7961135" lon="11.5358088"><ele>693.5</ele><time>2026-05-03T07:19:12Z</time></trkpt><trkpt lat="43.7961129" lon="11.5359394"><ele>694.0</ele><time>2026-05-03T07:19:13Z</time></trkpt><trkpt lat="43.7961089" lon="11.5360534"><ele>694.5</ele><time>2026-05-03T07:19:13.999Z</time></trkpt><trkpt lat="43.7961023" lon="11.5361434"><ele>695.0</ele><time>2026-05-03T07:19:15Z</time></trkpt><trkpt lat="43.7960702" lon="11.5362774"><ele>695.5</ele><time>2026-05-03T07:19:17Z</time></trkpt><trkpt lat="43.796029" lon="11.5364019"><ele>696.0</ele><time>2026-05-03T07:19:19Z</time></trkpt><trkpt lat="43.7960137" lon="11.5365405"><ele>700.0</ele><time>2026-05-03T07:19:21Z</time></trkpt><trkpt lat="43.7959886" lon="11.5366641"><ele>704.0</ele><time>2026-05-03T07:19:23Z</time></trkpt><trkpt lat="43.795976" lon="11.5368144"><ele>708.0</ele><time>2026-05-03T07:19:24.999Z</time></trkpt><trkpt lat="43.7959733" lon="11.5369056"><ele>712.0</ele><time>2026-05-03T07:19:25.999Z</time></trkpt><trkpt lat="43.7959743" lon="11.5370015"><ele>716.0</ele><time>2026-05-03T07:19:26.999Z</time></trkpt><trkpt lat="43.7959775" lon="11.5371033"><ele>720.0</ele><time>2026-05-03T07:19:28Z</time></trkpt><trkpt lat="43.7959764" lon="11.5372286"><ele>720.0</ele><time>2026-05-03T07:19:28.999Z</time></trkpt><trkpt lat="43.7959709" lon="11.537367"><ele>720.0</ele><time>2026-05-03T07:19:29.999Z</time></trkpt><trkpt lat="43.7959788" lon="11.5375087"><ele>720.0</ele><time>2026-05-03T07:19:31Z</time></trkpt><trkpt lat="43.7959979" lon="11.5376569"><ele>720.0</ele><time>2026-05-03T07:19:32Z</time></trkpt><trkpt lat="43.7960285" lon="11.5378144"><ele>720.0</ele><time>2026-05-03T07:19:33Z</time></trkpt><trkpt lat="43.7960719" lon="11.5379725"><ele>715.8</ele><time>2026-05-03T07:19:34Z</time></trkpt><trkpt lat="43.7961236" lon="11.5381068"><ele>711.6</ele><time>2026-05-03T07:19:35Z</time></trkpt><trkpt lat="43.7961786" lon="11.5382198"><ele>707.4000000000001</ele><time>2026-05-03T07:19:35.999Z</time></trkpt><trkpt lat="43.7962378" lon="11.5383205"><ele>703.2</ele><time>2026-05-03T07:19:36.998Z</time></trkpt><trkpt lat="43.7962934" lon="11.5384125"><ele>699.0</ele><time>2026-05-03T07:19:38Z</time></trkpt><trkpt lat="43.7963499" lon="11.5384954"><ele>699.0</ele><time>2026-05-03T07:19:39Z</time></trkpt><trkpt lat="43.796406" lon="11.5385732"><ele>699.0</ele><time>2026-05-03T07:19:40Z</time></trkpt><trkpt lat="43.7964602" lon="11.5386488"><ele>699.0</ele><time>2026-05-03T07:19:40.999Z</time></trkpt><trkpt lat="43.7965101" lon="11.5387145"><ele>699.0</ele><time>2026-05-03T07:19:41.999Z</time></trkpt><trkpt lat="43.7965779" lon="11.5388094"><ele>699.0</ele><time>2026-05-03T07:19:43.999Z</time></trkpt><trkpt lat="43.7966289" lon="11.5388808"><ele>699.0</ele><time>2026-05-03T07:19:45.999Z</time></trkpt><trkpt lat="43.7966778" lon="11.5389411"><ele>697.8000000000001</ele><time>2026-05-03T07:19:49Z</time></trkpt><trkpt lat="43.7967154" lon="11.5390218"><ele>696.6</ele><time>2026-05-03T07:19:55.999Z</time></trkpt><trkpt lat="43.7968174" lon="11.5390938"><ele>695.4</ele><time>2026-05-03T07:19:58Z</time></trkpt><trkpt lat="43.7968864" lon="11.5391361"><ele>694.2</ele><time>2026-05-03T07:19:59Z</time></trkpt><trkpt lat="43.7969857" lon="11.5391802"><ele>693.0</ele><time>2026-05-03T07:20:00Z</time></trkpt><trkpt lat="43.7971118" lon="11.5392353"><ele>693.0</ele><time>2026-05-03T07:20:00.999Z</time></trkpt><trkpt lat="43.7972329" lon="11.5392858"><ele>693.0</ele><time>2026-05-03T07:20:02Z</time></trkpt><trkpt lat="43.797343" lon="11.5393476"><ele>693.0</ele><time>2026-05-03T07:20:03Z</time></trkpt><trkpt lat="43.7974435" lon="11.5394356"><ele>693.0</ele><time>2026-05-03T07:20:04Z</time></trkpt><trkpt lat="43.7975388" lon="11.5395467"><ele>694.25</ele><time>2026-05-03T07:20:05.001Z</time></trkpt><trkpt lat="43.7976284" lon="11.5396703"><ele>695.5</ele><time>2026-05-03T07:20:06Z</time></trkpt><trkpt lat="43.7977149" lon="11.5398032"><ele>696.75</ele><time>2026-05-03T07:20:07.001Z</time></trkpt><trkpt lat="43.7978015" lon="11.5399378"><ele>698.0</ele><time>2026-05-03T07:20:08.001Z</time></trkpt><trkpt lat="43.7978756" lon="11.5400609"><ele>691.75</ele><time>2026-05-03T07:20:09Z</time></trkpt><trkpt lat="43.7978946" lon="11.540222"><ele>685.5</ele><time>2026-05-03T07:20:10Z</time></trkpt><trkpt lat="43.7979068" lon="11.5403655"><ele>679.25</ele><time>2026-05-03T07:20:11.001Z</time></trkpt><trkpt lat="43.7978882" lon="11.5405206"><ele>673.0</ele><time>2026-05-03T07:20:12Z</time></trkpt><trkpt lat="43.7978298" lon="11.5406819"><ele>671.5</ele><time>2026-05-03T07:20:13.001Z</time></trkpt><trkpt lat="43.7977636" lon="11.5408442"><ele>670.0</ele><time>2026-05-03T07:20:14.001Z</time></trkpt><trkpt lat="43.7977022" lon="11.5409988"><ele>668.5</ele><time>2026-05-03T07:20:15.001Z</time></trkpt><trkpt lat="43.7976396" lon="11.5411521"><ele>667.0</ele><time>2026-05-03T07:20:16Z</time></trkpt><trkpt lat="43.7975897" lon="11.5413074"><ele>672.0</ele><time>2026-05-03T07:20:17.001Z</time></trkpt><trkpt lat="43.797558" lon="11.5414754"><ele>677.0</ele><time>2026-05-03T07:20:17.999Z</time></trkpt><trkpt lat="43.7975487" lon="11.5416485"><ele>682.0</ele><time>2026-05-03T07:20:19Z</time></trkpt><trkpt lat="43.7975667" lon="11.5418199"><ele>687.0</ele><time>2026-05-03T07:20:20.001Z</time></trkpt><trkpt lat="43.7975977" lon="11.5419914"><ele>685.75</ele><time>2026-05-03T07:20:21Z</time></trkpt><trkpt lat="43.7976315" lon="11.54216"><ele>684.5</ele><time>2026-05-03T07:20:22.001Z</time></trkpt><trkpt lat="43.7976659" lon="11.5423327"><ele>683.25</ele><time>2026-05-03T07:20:23.001Z</time></trkpt><trkpt lat="43.7976988" lon="11.5425061"><ele>682.0</ele><time>2026-05-03T07:20:24Z</time></trkpt><trkpt lat="43.7977359" lon="11.5426808"><ele>674.5</ele><time>2026-05-03T07:20:25.001Z</time></trkpt><trkpt lat="43.7977758" lon="11.5428486"><ele>667.0</ele><time>2026-05-03T07:20:26.001Z</time></trkpt><trkpt lat="43.7978258" lon="11.543014"><ele>659.5</ele><time>2026-05-03T07:20:26.999Z</time></trkpt><trkpt lat="43.7978838" lon="11.5431758"><ele>652.0</ele><time>2026-05-03T07:20:28Z</time></trkpt><trkpt lat="43.797947" lon="11.5433381"><ele>652.0</ele><time>2026-05-03T07:20:29.001Z</time></trkpt><trkpt lat="43.7980024" lon="11.5435035"><ele>652.0</ele><time>2026-05-03T07:20:30.001Z</time></trkpt><trkpt lat="43.7980381" lon="11.5436716"><ele>652.0</ele><time>2026-05-03T07:20:31.001Z</time></trkpt><trkpt lat="43.798062" lon="11.5438462"><ele>652.0</ele><time>2026-05-03T07:20:31.999Z</time></trkpt><trkpt lat="43.7980617" lon="11.5440399"><ele>653.0</ele><time>2026-05-03T07:20:33.001Z</time></trkpt><trkpt lat="43.7980438" lon="11.5442377"><ele>654.0</ele><time>2026-05-03T07:20:34.001Z</time></trkpt><trkpt lat="43.7980194" lon="11.5444363"><ele>655.0</ele><time>2026-05-03T07:20:35Z</time></trkpt><trkpt lat="43.7979972" lon="11.5446398"><ele>656.0</ele><time>2026-05-03T07:20:36.001Z</time></trkpt><trkpt lat="43.7979957" lon="11.5448407"><ele>656.75</ele><time>2026-05-03T07:20:37.001Z</time></trkpt><trkpt lat="43.7980107" lon="11.5450331"><ele>657.5</ele><time>2026-05-03T07:20:38Z</time></trkpt><trkpt lat="43.7980375" lon="11.5452171"><ele>658.25</ele><time>2026-05-03T07:20:39Z</time></trkpt><trkpt lat="43.7980736" lon="11.5453922"><ele>659.0</ele><time>2026-05-03T07:20:40Z</time></trkpt><trkpt lat="43.7981145" lon="11.545561"><ele>660.0</ele><time>2026-05-03T07:20:41.001Z</time></trkpt><trkpt lat="43.7981526" lon="11.5457191"><ele>661.0</ele><time>2026-05-03T07:20:42Z</time></trkpt><trkpt lat="43.7981986" lon="11.5458566"><ele>662.0</ele><time>2026-05-03T07:20:43Z</time></trkpt><trkpt lat="43.7982472" lon="11.5459673"><ele>663.0</ele><time>2026-05-03T07:20:44Z</time></trkpt><trkpt lat="43.7982876" lon="11.5460551"><ele>664.0</ele><time>2026-05-03T07:20:45.001Z</time></trkpt><trkpt lat="43.7983336" lon="11.546129"><ele>663.8000000000001</ele><time>2026-05-03T07:20:46Z</time></trkpt><trkpt lat="43.7984104" lon="11.5462449"><ele>663.6</ele><time>2026-05-03T07:20:48Z</time></trkpt><trkpt lat="43.7984197" lon="11.546365"><ele>663.4</ele><time>2026-05-03T07:20:50Z</time></trkpt><trkpt lat="43.7983903" lon="11.5465216"><ele>663.2</ele><time>2026-05-03T07:20:52Z</time></trkpt><trkpt lat="43.7983808" lon="11.5466675"><ele>663.0</ele><time>2026-05-03T07:20:54.001Z</time></trkpt><trkpt lat="43.7983792" lon="11.5467561"><ele>663.0</ele><time>2026-05-03T07:20:54.999Z</time></trkpt><trkpt lat="43.7983771" lon="11.5468843"><ele>663.0</ele><time>2026-05-03T07:20:57.001Z</time></trkpt><trkpt lat="43.7983283" lon="11.5470217"><ele>663.0</ele><time>2026-05-03T07:20:58.999Z</time></trkpt><trkpt lat="43.798266" lon="11.5471845"><ele>663.0</ele><time>2026-05-03T07:21:01Z</time></trkpt><trkpt lat="43.7982166" lon="11.5473744"><ele>663.4285714285713</ele><time>2026-05-03T07:21:03Z</time></trkpt><trkpt lat="43.7981836" lon="11.547466"><ele>663.8571428571429</ele><time>2026-05-03T07:21:04.001Z</time></trkpt><trkpt lat="43.7981493" lon="11.5475679"><ele>664.2857142857142</ele><time>2026-05-03T07:21:05Z</time></trkpt><trkpt lat="43.7981282" lon="11.5476709"><ele>664.7142857142857</ele><time>2026-05-03T07:21:06.001Z</time></trkpt><trkpt lat="43.7981045" lon="11.547755"><ele>665.1428571428571</ele><time>2026-05-03T07:21:06.999Z</time></trkpt><trkpt lat="43.7980652" lon="11.54783"><ele>665.5714285714286</ele><time>2026-05-03T07:21:07.999Z</time></trkpt><trkpt lat="43.7980332" lon="11.5479072"><ele>666.0</ele><time>2026-05-03T07:21:09Z</time></trkpt><trkpt lat="43.7980061" lon="11.5480032"><ele>666.0</ele><time>2026-05-03T07:21:10.001Z</time></trkpt><trkpt lat="43.7980311" lon="11.5481222"><ele>666.0</ele><time>2026-05-03T07:21:12.001Z</time></trkpt><trkpt lat="43.7980432" lon="11.5482465"><ele>666.0</ele><time>2026-05-03T07:21:14Z</time></trkpt><trkpt lat="43.7980481" lon="11.5483446"><ele>666.0</ele><time>2026-05-03T07:21:15Z</time></trkpt><trkpt lat="43.7980635" lon="11.5484428"><ele>666.0</ele><time>2026-05-03T07:21:15.999Z</time></trkpt><trkpt lat="43.7980703" lon="11.5486072"><ele>666.0</ele><time>2026-05-03T07:21:18.001Z</time></trkpt><trkpt lat="43.7980923" lon="11.5487891"><ele>666.5</ele><time>2026-05-03T07:21:20Z</time></trkpt><trkpt lat="43.7981243" lon="11.5488808"><ele>667.0</ele><time>2026-05-03T07:21:21.001Z</time></trkpt><trkpt lat="43.7981888" lon="11.5490066"><ele>667.5</ele><time>2026-05-03T07:21:23Z</time></trkpt><trkpt lat="43.7982265" lon="11.5490774"><ele>668.0</ele><time>2026-05-03T07:21:24.001Z</time></trkpt><trkpt lat="43.798266" lon="11.5491457"><ele>668.5</ele><time>2026-05-03T07:21:25Z</time></trkpt><trkpt lat="43.7982729" lon="11.5492451"><ele>669.0</ele><time>2026-05-03T07:21:27.001Z</time></trkpt><trkpt lat="43.7982533" lon="11.5493432"><ele>669.0</ele><time>2026-05-03T07:21:29Z</time></trkpt><trkpt lat="43.7982619" lon="11.5494504"><ele>669.0</ele><time>2026-05-03T07:21:34.001Z</time></trkpt><trkpt lat="43.7981999" lon="11.5495471"><ele>669.0</ele><time>2026-05-03T07:21:37.001Z</time></trkpt><trkpt lat="43.7981832" lon="11.5496398"><ele>669.0</ele><time>2026-05-03T07:21:38Z</time></trkpt><trkpt lat="43.7981382" lon="11.5497809"><ele>669.0</ele><time>2026-05-03T07:21:40.001Z</time></trkpt><trkpt lat="43.7980442" lon="11.5498482"><ele>668.4000000000001</ele><time>2026-05-03T07:21:42.001Z</time></trkpt><trkpt lat="43.7979884" lon="11.5499512"><ele>667.8</ele><time>2026-05-03T07:21:44Z</time></trkpt><trkpt lat="43.7979487" lon="11.5500846"><ele>667.2</ele><time>2026-05-03T07:21:46.001Z</time></trkpt><trkpt lat="43.7979173" lon="11.5501691"><ele>666.5999999999999</ele><time>2026-05-03T07:21:47Z</time></trkpt><trkpt lat="43.7978621" lon="11.5502608"><ele>666.0</ele><time>2026-05-03T07:21:49.001Z</time></trkpt><trkpt lat="43.7977756" lon="11.5503365"><ele>667.4</ele><time>2026-05-03T07:21:51.001Z</time></trkpt><trkpt lat="43.7976925" lon="11.5504008"><ele>668.8</ele><time>2026-05-03T07:21:53Z</time></trkpt><trkpt lat="43.7976233" lon="11.5505194"><ele>670.1999999999999</ele><time>2026-05-03T07:21:55Z</time></trkpt><trkpt lat="43.7975571" lon="11.5506644"><ele>671.5999999999999</ele><time>2026-05-03T07:21:57Z</time></trkpt><trkpt lat="43.7975254" lon="11.5507428"><ele>673.0</ele><time>2026-05-03T07:21:58.001Z</time></trkpt><trkpt lat="43.7975182" lon="11.5508347"><ele>673.0</ele><time>2026-05-03T07:21:59.001Z</time></trkpt><trkpt lat="43.797548" lon="11.5509338"><ele>673.0</ele><time>2026-05-03T07:22:01Z</time></trkpt><trkpt lat="43.7975371" lon="11.5510502"><ele>673.0</ele><time>2026-05-03T07:22:04.001Z</time></trkpt><trkpt lat="43.7974923" lon="11.5511294"><ele>673.0</ele><time>2026-05-03T07:22:08.001Z</time></trkpt><trkpt lat="43.7975127" lon="11.5512271"><ele>673.0</ele><time>2026-05-03T07:22:11Z</time></trkpt><trkpt lat="43.7975186" lon="11.551342"><ele>673.0</ele><time>2026-05-03T07:22:14Z</time></trkpt><trkpt lat="43.7974993" lon="11.5514512"><ele>673.0</ele><time>2026-05-03T07:22:15.999Z</time></trkpt><trkpt lat="43.7974842" lon="11.55162"><ele>673.0</ele><time>2026-05-03T07:22:18.001Z</time></trkpt><trkpt lat="43.7974788" lon="11.551714"><ele>673.0</ele><time>2026-05-03T07:22:19Z</time></trkpt><trkpt lat="43.7974527" lon="11.5518127"><ele>673.0</ele><time>2026-05-03T07:22:20.001Z</time></trkpt><trkpt lat="43.7974265" lon="11.5519078"><ele>673.0</ele><time>2026-05-03T07:22:21.001Z</time></trkpt><trkpt lat="43.7974225" lon="11.5520027"><ele>673.0</ele><time>2026-05-03T07:22:22Z</time></trkpt><trkpt lat="43.7974373" lon="11.5520909"><ele>673.8</ele><time>2026-05-03T07:22:23.001Z</time></trkpt><trkpt lat="43.7974555" lon="11.5522193"><ele>674.5999999999999</ele><time>2026-05-03T07:22:25.001Z</time></trkpt><trkpt lat="43.7974287" lon="11.5523393"><ele>675.4000000000001</ele><time>2026-05-03T07:22:27Z</time></trkpt><trkpt lat="43.7973589" lon="11.5524965"><ele>676.2</ele><time>2026-05-03T07:22:28.999Z</time></trkpt><trkpt lat="43.7973114" lon="11.5525614"><ele>677.0</ele><time>2026-05-03T07:22:30.001Z</time></trkpt><trkpt lat="43.7972502" lon="11.5526269"><ele>676.9999999999999</ele><time>2026-05-03T07:22:31.001Z</time></trkpt><trkpt lat="43.797187" lon="11.5526952"><ele>677.0</ele><time>2026-05-03T07:22:32.001Z</time></trkpt><trkpt lat="43.7971387" lon="11.552776"><ele>677.0</ele><time>2026-05-03T07:22:33Z</time></trkpt><trkpt lat="43.797107" lon="11.5528689"><ele>677.0</ele><time>2026-05-03T07:22:34.001Z</time></trkpt><trkpt lat="43.7970744" lon="11.5529558"><ele>677.0</ele><time>2026-05-03T07:22:35.001Z</time></trkpt><trkpt lat="43.7970436" lon="11.553032"><ele>676.9999999999999</ele><time>2026-05-03T07:22:36Z</time></trkpt><trkpt lat="43.7970444" lon="11.5531455"><ele>677.0</ele><time>2026-05-03T07:22:38Z</time></trkpt><trkpt lat="43.7970976" lon="11.553289"><ele>676.8333333333333</ele><time>2026-05-03T07:22:40.001Z</time></trkpt><trkpt lat="43.7971051" lon="11.5534405"><ele>676.6666666666666</ele><time>2026-05-03T07:22:42Z</time></trkpt><trkpt lat="43.7970895" lon="11.5535424"><ele>676.5</ele><time>2026-05-03T07:22:43Z</time></trkpt><trkpt lat="43.7970758" lon="11.5536485"><ele>676.3333333333334</ele><time>2026-05-03T07:22:44Z</time></trkpt><trkpt lat="43.7970491" lon="11.5537473"><ele>676.1666666666667</ele><time>2026-05-03T07:22:45Z</time></trkpt><trkpt lat="43.7970371" lon="11.5538417"><ele>676.0</ele><time>2026-05-03T07:22:45.999Z</time></trkpt><trkpt lat="43.7970294" lon="11.5539483"><ele>675.4285714285714</ele><time>2026-05-03T07:22:47Z</time></trkpt><trkpt lat="43.7970044" lon="11.5540398"><ele>674.8571428571429</ele><time>2026-05-03T07:22:48.001Z</time></trkpt><trkpt lat="43.796982" lon="11.5541295"><ele>674.2857142857142</ele><time>2026-05-03T07:22:49Z</time></trkpt><trkpt lat="43.79696" lon="11.5542324"><ele>673.7142857142858</ele><time>2026-05-03T07:22:50.001Z</time></trkpt><trkpt lat="43.7969569" lon="11.554326"><ele>673.1428571428571</ele><time>2026-05-03T07:22:51Z</time></trkpt><trkpt lat="43.7969421" lon="11.5544218"><ele>672.5714285714286</ele><time>2026-05-03T07:22:52.001Z</time></trkpt><trkpt lat="43.7969061" lon="11.5544998"><ele>672.0</ele><time>2026-05-03T07:22:53.001Z</time></trkpt><trkpt lat="43.7968693" lon="11.5545886"><ele>671.3333333333334</ele><time>2026-05-03T07:22:54.001Z</time></trkpt><trkpt lat="43.7968396" lon="11.5546729"><ele>670.6666666666666</ele><time>2026-05-03T07:22:55Z</time></trkpt><trkpt lat="43.7968056" lon="11.5547525"><ele>670.0</ele><time>2026-05-03T07:22:56.001Z</time></trkpt><trkpt lat="43.7967604" lon="11.5548714"><ele>669.3333333333333</ele><time>2026-05-03T07:22:58.001Z</time></trkpt><trkpt lat="43.7967092" lon="11.5549976"><ele>668.6666666666666</ele><time>2026-05-03T07:23:00.001Z</time></trkpt><trkpt lat="43.7967899" lon="11.5550603"><ele>668.0</ele><time>2026-05-03T07:23:01.001Z</time></trkpt><trkpt lat="43.7968524" lon="11.5551195"><ele>668.0</ele><time>2026-05-03T07:23:01.999Z</time></trkpt><trkpt lat="43.7969065" lon="11.555257"><ele>668.0</ele><time>2026-05-03T07:23:04.001Z</time></trkpt><trkpt lat="43.7969506" lon="11.5554003"><ele>668.0</ele><time>2026-05-03T07:23:06Z</time></trkpt><trkpt lat="43.7969794" lon="11.5554786"><ele>668.0</ele><time>2026-05-03T07:23:07Z</time></trkpt><trkpt lat="43.7969881" lon="11.555612"><ele>668.0</ele><time>2026-05-03T07:23:09.001Z</time></trkpt><trkpt lat="43.7969801" lon="11.55577"><ele>668.2857142857142</ele><time>2026-05-03T07:23:11Z</time></trkpt><trkpt lat="43.7969948" lon="11.5558656"><ele>668.5714285714286</ele><time>2026-05-03T07:23:12.001Z</time></trkpt><trkpt lat="43.797023" lon="11.5559507"><ele>668.8571428571429</ele><time>2026-05-03T07:23:13.001Z</time></trkpt><trkpt lat="43.7970503" lon="11.5560513"><ele>669.1428571428571</ele><time>2026-05-03T07:23:14.001Z</time></trkpt><trkpt lat="43.7970736" lon="11.5561398"><ele>669.4285714285714</ele><time>2026-05-03T07:23:14.999Z</time></trkpt><trkpt lat="43.7971027" lon="11.5562416"><ele>669.7142857142857</ele><time>2026-05-03T07:23:16.001Z</time></trkpt><trkpt lat="43.7971277" lon="11.5563391"><ele>670.0</ele><time>2026-05-03T07:23:17.001Z</time></trkpt><trkpt lat="43.7971374" lon="11.5564259"><ele>670.8333333333334</ele><time>2026-05-03T07:23:18Z</time></trkpt><trkpt lat="43.7971833" lon="11.5565749"><ele>671.6666666666667</ele><time>2026-05-03T07:23:20.001Z</time></trkpt><trkpt lat="43.7972082" lon="11.5566953"><ele>672.5</ele><time>2026-05-03T07:23:21Z</time></trkpt><trkpt lat="43.797232" lon="11.556805"><ele>673.3333333333334</ele><time>2026-05-03T07:23:22.001Z</time></trkpt><trkpt lat="43.7972448" lon="11.5568948"><ele>674.1666666666666</ele><time>2026-05-03T07:23:23Z</time></trkpt><trkpt lat="43.7972286" lon="11.5570028"><ele>675.0</ele><time>2026-05-03T07:23:24.001Z</time></trkpt><trkpt lat="43.7972204" lon="11.5571283"><ele>675.3333333333334</ele><time>2026-05-03T07:23:25.001Z</time></trkpt><trkpt lat="43.7972001" lon="11.5572281"><ele>675.6666666666666</ele><time>2026-05-03T07:23:26.001Z</time></trkpt><trkpt lat="43.7971916" lon="11.5573283"><ele>676.0</ele><time>2026-05-03T07:23:27.001Z</time></trkpt><trkpt lat="43.7971931" lon="11.5574304"><ele>676.3333333333333</ele><time>2026-05-03T07:23:28.001Z</time></trkpt><trkpt lat="43.7971669" lon="11.5575351"><ele>676.6666666666666</ele><time>2026-05-03T07:23:29.001Z</time></trkpt><trkpt lat="43.7971086" lon="11.5576242"><ele>677.0</ele><time>2026-05-03T07:23:31.001Z</time></trkpt><trkpt lat="43.7970259" lon="11.5577537"><ele>676.9999999999999</ele><time>2026-05-03T07:23:33Z</time></trkpt><trkpt lat="43.7970227" lon="11.5578808"><ele>677.0</ele><time>2026-05-03T07:23:35Z</time></trkpt><trkpt lat="43.7970482" lon="11.5579908"><ele>677.0</ele><time>2026-05-03T07:23:39.001Z</time></trkpt><trkpt lat="43.7971036" lon="11.5580357"><ele>677.0</ele><time>2026-05-03T07:23:47.001Z</time></trkpt><trkpt lat="43.7971511" lon="11.5579747"><ele>677.0</ele><time>2026-05-03T07:24:38.001Z</time></trkpt><trkpt lat="43.7972109" lon="11.5579373"><ele>676.9999999999999</ele><time>2026-05-03T07:25:34Z</time></trkpt><trkpt lat="43.7972703" lon="11.5578694"><ele>677.0</ele><time>2026-05-03T07:27:43.002Z</time></trkpt><trkpt lat="43.797357" lon="11.5578371"><ele>677.0</ele><time>2026-05-03T07:27:45.002Z</time></trkpt><trkpt lat="43.7974239" lon="11.5578147"><ele>677.0</ele><time>2026-05-03T07:27:54Z</time></trkpt><trkpt lat="43.7974856" lon="11.5577964"><ele>677.0</ele><time>2026-05-03T07:28:00.002Z</time></trkpt><trkpt lat="43.7975637" lon="11.557818"><ele>677.0</ele><time>2026-05-03T07:28:05.001Z</time></trkpt><trkpt lat="43.7976562" lon="11.5578162"><ele>677.0</ele><time>2026-05-03T07:28:08.088Z</time></trkpt><trkpt lat="43.7977294" lon="11.5577645"><ele>677.0</ele><time>2026-05-03T07:28:10.007Z</time></trkpt><trkpt lat="43.7978157" lon="11.5577122"><ele>677.6</ele><time>2026-05-03T07:28:11.002Z</time></trkpt><trkpt lat="43.7978919" lon="11.5576834"><ele>678.2</ele><time>2026-05-03T07:28:12.001Z</time></trkpt><trkpt lat="43.7979555" lon="11.557675"><ele>678.8</ele><time>2026-05-03T07:28:13.002Z</time></trkpt><trkpt lat="43.7980638" lon="11.5576697"><ele>679.4</ele><time>2026-05-03T07:28:15.002Z</time></trkpt><trkpt lat="43.7981729" lon="11.5576741"><ele>680.0</ele><time>2026-05-03T07:28:17.002Z</time></trkpt><trkpt lat="43.7982924" lon="11.5576879"><ele>680.0</ele><time>2026-05-03T07:28:19.002Z</time></trkpt><trkpt lat="43.7983838" lon="11.5576623"><ele>680.0</ele><time>2026-05-03T07:28:21.001Z</time></trkpt><trkpt lat="43.7984518" lon="11.5576204"><ele>680.0</ele><time>2026-05-03T07:28:23.001Z</time></trkpt><trkpt lat="43.798519" lon="11.5576002"><ele>680.0</ele><time>2026-05-03T07:28:25.001Z</time></trkpt><trkpt lat="43.7985821" lon="11.5576513"><ele>680.0</ele><time>2026-05-03T07:28:27.002Z</time></trkpt><trkpt lat="43.7985904" lon="11.5577471"><ele>680.0</ele><time>2026-05-03T07:28:30.074Z</time></trkpt><trkpt lat="43.7985521" lon="11.5578373"><ele>682.8</ele><time>2026-05-03T07:28:32.002Z</time></trkpt><trkpt lat="43.7984715" lon="11.5578889"><ele>685.6</ele><time>2026-05-03T07:28:34.092Z</time></trkpt><trkpt lat="43.7984056" lon="11.5579853"><ele>688.4000000000001</ele><time>2026-05-03T07:28:36.002Z</time></trkpt><trkpt lat="43.7983352" lon="11.5580863"><ele>691.2</ele><time>2026-05-03T07:28:38.001Z</time></trkpt><trkpt lat="43.798266" lon="11.5582107"><ele>694.0</ele><time>2026-05-03T07:28:40.002Z</time></trkpt><trkpt lat="43.798182" lon="11.558335"><ele>694.0</ele><time>2026-05-03T07:28:42.002Z</time></trkpt><trkpt lat="43.7981393" lon="11.5584022"><ele>694.0</ele><time>2026-05-03T07:28:43.002Z</time></trkpt><trkpt lat="43.7980988" lon="11.5584712"><ele>694.0</ele><time>2026-05-03T07:28:44.001Z</time></trkpt><trkpt lat="43.7980268" lon="11.5585983"><ele>694.0</ele><time>2026-05-03T07:28:46.001Z</time></trkpt><trkpt lat="43.7980291" lon="11.5587058"><ele>694.0</ele><time>2026-05-03T07:28:48.002Z</time></trkpt><trkpt lat="43.7980442" lon="11.5588001"><ele>694.0</ele><time>2026-05-03T07:28:50.002Z</time></trkpt><trkpt lat="43.7979766" lon="11.5588813"><ele>692.6666666666667</ele><time>2026-05-03T07:28:52.002Z</time></trkpt><trkpt lat="43.797872" lon="11.5589715"><ele>691.3333333333334</ele><time>2026-05-03T07:28:54.001Z</time></trkpt><trkpt lat="43.7978129" lon="11.5590298"><ele>690.0</ele><time>2026-05-03T07:28:55.002Z</time></trkpt><trkpt lat="43.7977531" lon="11.5590913"><ele>688.6666666666666</ele><time>2026-05-03T07:28:56.002Z</time></trkpt><trkpt lat="43.7976927" lon="11.5591539"><ele>687.3333333333333</ele><time>2026-05-03T07:28:57.002Z</time></trkpt><trkpt lat="43.7976347" lon="11.5592199"><ele>686.0</ele><time>2026-05-03T07:28:58.001Z</time></trkpt><trkpt lat="43.7975819" lon="11.5592938"><ele>687.3333333333333</ele><time>2026-05-03T07:28:59.001Z</time></trkpt><trkpt lat="43.7975309" lon="11.5593819"><ele>688.6666666666666</ele><time>2026-05-03T07:29:00.002Z</time></trkpt><trkpt lat="43.7974772" lon="11.5594819"><ele>690.0</ele><time>2026-05-03T07:29:01.002Z</time></trkpt><trkpt lat="43.797426" lon="11.5595828"><ele>691.3333333333334</ele><time>2026-05-03T07:29:02.002Z</time></trkpt><trkpt lat="43.797383" lon="11.5596702"><ele>692.6666666666667</ele><time>2026-05-03T07:29:03.002Z</time></trkpt><trkpt lat="43.7973437" lon="11.5597394"><ele>694.0</ele><time>2026-05-03T07:29:04.001Z</time></trkpt><trkpt lat="43.7972818" lon="11.559833"><ele>694.0</ele><time>2026-05-03T07:29:06.002Z</time></trkpt><trkpt lat="43.797255" lon="11.5599287"><ele>694.0</ele><time>2026-05-03T07:29:09.002Z</time></trkpt><trkpt lat="43.797209" lon="11.5600462"><ele>694.0</ele><time>2026-05-03T07:31:31.002Z</time></trkpt><trkpt lat="43.7971439" lon="11.5601894"><ele>694.0</ele><time>2026-05-03T07:31:33.002Z</time></trkpt><trkpt lat="43.7970894" lon="11.5603059"><ele>694.0</ele><time>2026-05-03T07:31:34.002Z</time></trkpt><trkpt lat="43.7970054" lon="11.5604871"><ele>690.0</ele><time>2026-05-03T07:31:35.002Z</time></trkpt><trkpt lat="43.7969269" lon="11.5606528"><ele>686.0</ele><time>2026-05-03T07:31:36.002Z</time></trkpt><trkpt lat="43.7968347" lon="11.5608027"><ele>682.0</ele><time>2026-05-03T07:31:37.002Z</time></trkpt><trkpt lat="43.7967428" lon="11.5609369"><ele>678.0</ele><time>2026-05-03T07:31:38.001Z</time></trkpt><trkpt lat="43.7966654" lon="11.5610825"><ele>682.5</ele><time>2026-05-03T07:31:39Z</time></trkpt><trkpt lat="43.7965983" lon="11.5612259"><ele>687.0</ele><time>2026-05-03T07:31:40.002Z</time></trkpt><trkpt lat="43.7965436" lon="11.5613626"><ele>691.5</ele><time>2026-05-03T07:31:41.002Z</time></trkpt><trkpt lat="43.7964908" lon="11.5615023"><ele>696.0</ele><time>2026-05-03T07:31:42.002Z</time></trkpt><trkpt lat="43.7964351" lon="11.5616359"><ele>696.0</ele><time>2026-05-03T07:31:43.001Z</time></trkpt><trkpt lat="43.7963868" lon="11.5617648"><ele>696.0</ele><time>2026-05-03T07:31:44.002Z</time></trkpt><trkpt lat="43.7963424" lon="11.5619007"><ele>696.0</ele><time>2026-05-03T07:31:45.001Z</time></trkpt><trkpt lat="43.7963495" lon="11.5620492"><ele>696.0</ele><time>2026-05-03T07:31:46.002Z</time></trkpt><trkpt lat="43.7963613" lon="11.5622068"><ele>696.0</ele><time>2026-05-03T07:31:47.002Z</time></trkpt><trkpt lat="43.796386" lon="11.5623645"><ele>693.5</ele><time>2026-05-03T07:31:48Z</time></trkpt><trkpt lat="43.7964054" lon="11.5625305"><ele>691.0</ele><time>2026-05-03T07:31:49.001Z</time></trkpt><trkpt lat="43.7964246" lon="11.5626916"><ele>688.5</ele><time>2026-05-03T07:31:50.002Z</time></trkpt><trkpt lat="43.7964496" lon="11.562849"><ele>686.0</ele><time>2026-05-03T07:31:51.001Z</time></trkpt><trkpt lat="43.7964888" lon="11.5629814"><ele>685.8333333333333</ele><time>2026-05-03T07:31:52.002Z</time></trkpt><trkpt lat="43.7965291" lon="11.5631008"><ele>685.6666666666666</ele><time>2026-05-03T07:31:53.002Z</time></trkpt><trkpt lat="43.7965474" lon="11.5632033"><ele>685.5</ele><time>2026-05-03T07:31:54Z</time></trkpt><trkpt lat="43.7965844" lon="11.5632918"><ele>685.3333333333334</ele><time>2026-05-03T07:31:55.002Z</time></trkpt><trkpt lat="43.7965793" lon="11.5634195"><ele>685.1666666666667</ele><time>2026-05-03T07:31:57.002Z</time></trkpt><trkpt lat="43.7965457" lon="11.5635312"><ele>685.0</ele><time>2026-05-03T07:31:59.002Z</time></trkpt><trkpt lat="43.7965172" lon="11.5636145"><ele>685.0</ele><time>2026-05-03T07:32:00.002Z</time></trkpt><trkpt lat="43.7964821" lon="11.56369"><ele>685.0</ele><time>2026-05-03T07:32:01.001Z</time></trkpt><trkpt lat="43.7964548" lon="11.5638047"><ele>685.0</ele><time>2026-05-03T07:32:02.002Z</time></trkpt><trkpt lat="43.7964156" lon="11.5639271"><ele>685.0</ele><time>2026-05-03T07:32:03.002Z</time></trkpt><trkpt lat="43.7963756" lon="11.5640441"><ele>685.0</ele><time>2026-05-03T07:32:04.001Z</time></trkpt><trkpt lat="43.7963419" lon="11.5641656"><ele>685.0</ele><time>2026-05-03T07:32:05.002Z</time></trkpt><trkpt lat="43.7963272" lon="11.5642657"><ele>685.2</ele><time>2026-05-03T07:32:06.001Z</time></trkpt><trkpt lat="43.7963319" lon="11.564367"><ele>685.4</ele><time>2026-05-03T07:32:08.002Z</time></trkpt><trkpt lat="43.7964879" lon="11.5643153"><ele>685.5999999999999</ele><time>2026-05-03T07:32:10.002Z</time></trkpt><trkpt lat="43.7965539" lon="11.5642817"><ele>685.8</ele><time>2026-05-03T07:32:11.001Z</time></trkpt><trkpt lat="43.7966405" lon="11.5642403"><ele>686.0</ele><time>2026-05-03T07:32:12.002Z</time></trkpt><trkpt lat="43.7967311" lon="11.5642293"><ele>686.0</ele><time>2026-05-03T07:32:13.002Z</time></trkpt><trkpt lat="43.7968318" lon="11.564331"><ele>686.0</ele><time>2026-05-03T07:32:15.001Z</time></trkpt><trkpt lat="43.7968591" lon="11.5644172"><ele>686.0</ele><time>2026-05-03T07:32:16.001Z</time></trkpt><trkpt lat="43.7968971" lon="11.5645077"><ele>686.0</ele><time>2026-05-03T07:32:17.002Z</time></trkpt><trkpt lat="43.7969205" lon="11.5646148"><ele>686.0</ele><time>2026-05-03T07:32:18.002Z</time></trkpt><trkpt lat="43.7969559" lon="11.5647699"><ele>687.25</ele><time>2026-05-03T07:32:19.002Z</time></trkpt><trkpt lat="43.7969814" lon="11.5649904"><ele>688.5</ele><time>2026-05-03T07:32:20.001Z</time></trkpt><trkpt lat="43.797025" lon="11.5651227"><ele>689.75</ele><time>2026-05-03T07:32:21.002Z</time></trkpt><trkpt lat="43.797046" lon="11.5652738"><ele>691.0</ele><time>2026-05-03T07:32:22.002Z</time></trkpt><trkpt lat="43.7970857" lon="11.5654085"><ele>694.0</ele><time>2026-05-03T07:32:23.001Z</time></trkpt><trkpt lat="43.7971129" lon="11.5655295"><ele>697.0</ele><time>2026-05-03T07:32:24.002Z</time></trkpt><trkpt lat="43.7971213" lon="11.565664"><ele>700.0</ele><time>2026-05-03T07:32:25Z</time></trkpt><trkpt lat="43.7971379" lon="11.5658072"><ele>703.0</ele><time>2026-05-03T07:32:26.002Z</time></trkpt><trkpt lat="43.7971644" lon="11.5659365"><ele>706.0</ele><time>2026-05-03T07:32:27.002Z</time></trkpt><trkpt lat="43.7971906" lon="11.5660567"><ele>706.0</ele><time>2026-05-03T07:32:28.001Z</time></trkpt><trkpt lat="43.7972341" lon="11.5661703"><ele>706.0</ele><time>2026-05-03T07:32:29.002Z</time></trkpt><trkpt lat="43.7972559" lon="11.5663191"><ele>706.0</ele><time>2026-05-03T07:32:30.002Z</time></trkpt><trkpt lat="43.7972896" lon="11.5664503"><ele>706.0</ele><time>2026-05-03T07:32:31.002Z</time></trkpt><trkpt lat="43.7973483" lon="11.5665837"><ele>706.0</ele><time>2026-05-03T07:32:32.001Z</time></trkpt><trkpt lat="43.7974015" lon="11.56669"><ele>708.1666666666667</ele><time>2026-05-03T07:32:33.001Z</time></trkpt><trkpt lat="43.7974475" lon="11.5667845"><ele>710.3333333333334</ele><time>2026-05-03T07:32:34.001Z</time></trkpt><trkpt lat="43.7974943" lon="11.5668751"><ele>712.5</ele><time>2026-05-03T07:32:35.002Z</time></trkpt><trkpt lat="43.7975578" lon="11.5669661"><ele>714.6666666666666</ele><time>2026-05-03T07:32:36.002Z</time></trkpt><trkpt lat="43.797618" lon="11.5670544"><ele>716.8333333333333</ele><time>2026-05-03T07:32:37.001Z</time></trkpt><trkpt lat="43.7976632" lon="11.567143"><ele>719.0</ele><time>2026-05-03T07:32:38.002Z</time></trkpt><trkpt lat="43.7977113" lon="11.5672084"><ele>722.8333333333333</ele><time>2026-05-03T07:32:39.001Z</time></trkpt><trkpt lat="43.7977732" lon="11.567233"><ele>726.6666666666666</ele><time>2026-05-03T07:32:40.003Z</time></trkpt><trkpt lat="43.7978993" lon="11.567211"><ele>730.5</ele><time>2026-05-03T07:32:42.002Z</time></trkpt><trkpt lat="43.7979769" lon="11.5671929"><ele>734.3333333333334</ele><time>2026-05-03T07:32:43.003Z</time></trkpt><trkpt lat="43.7980588" lon="11.5671906"><ele>738.1666666666667</ele><time>2026-05-03T07:32:44.002Z</time></trkpt><trkpt lat="43.7981383" lon="11.5671931"><ele>742.0</ele><time>2026-05-03T07:32:45.002Z</time></trkpt><trkpt lat="43.7982093" lon="11.5672067"><ele>742.0</ele><time>2026-05-03T07:32:46.002Z</time></trkpt><trkpt lat="43.7982826" lon="11.5672382"><ele>742.0</ele><time>2026-05-03T07:32:47.002Z</time></trkpt><trkpt lat="43.7983595" lon="11.5672679"><ele>742.0</ele><time>2026-05-03T07:32:48.003Z</time></trkpt><trkpt lat="43.7984332" lon="11.5672941"><ele>742.0</ele><time>2026-05-03T07:32:49.003Z</time></trkpt><trkpt lat="43.7985047" lon="11.5674265"><ele>742.0</ele><time>2026-05-03T07:32:51.003Z</time></trkpt><trkpt lat="43.7985184" lon="11.5675657"><ele>744.4000000000001</ele><time>2026-05-03T07:32:53.003Z</time></trkpt><trkpt lat="43.7985126" lon="11.5676531"><ele>746.8000000000001</ele><time>2026-05-03T07:32:54.003Z</time></trkpt><trkpt lat="43.7986232" lon="11.5676489"><ele>749.2</ele><time>2026-05-03T07:32:56.002Z</time></trkpt><trkpt lat="43.7987497" lon="11.5676894"><ele>751.6</ele><time>2026-05-03T07:32:58.003Z</time></trkpt><trkpt lat="43.7988516" lon="11.5678025"><ele>754.0</ele><time>2026-05-03T07:33:00.003Z</time></trkpt><trkpt lat="43.7988787" lon="11.5678947"><ele>755.1666666666667</ele><time>2026-05-03T07:33:01.003Z</time></trkpt><trkpt lat="43.798926" lon="11.5679739"><ele>756.3333333333334</ele><time>2026-05-03T07:33:02.001Z</time></trkpt><trkpt lat="43.79897" lon="11.5680486"><ele>757.5</ele><time>2026-05-03T07:33:03.003Z</time></trkpt><trkpt lat="43.7990517" lon="11.5680397"><ele>758.6666666666666</ele><time>2026-05-03T07:33:05.003Z</time></trkpt><trkpt lat="43.7991449" lon="11.568101"><ele>759.8333333333333</ele><time>2026-05-03T07:33:07.001Z</time></trkpt><trkpt lat="43.7992474" lon="11.5681185"><ele>761.0</ele><time>2026-05-03T07:33:09.003Z</time></trkpt><trkpt lat="43.7993504" lon="11.568185"><ele>763.6666666666666</ele><time>2026-05-03T07:33:11.003Z</time></trkpt><trkpt lat="43.7993963" lon="11.568245"><ele>766.3333333333333</ele><time>2026-05-03T07:33:12.002Z</time></trkpt><trkpt lat="43.7994549" lon="11.5682833"><ele>769.0</ele><time>2026-05-03T07:33:13.003Z</time></trkpt><trkpt lat="43.7995181" lon="11.5682761"><ele>771.6666666666666</ele><time>2026-05-03T07:33:15.001Z</time></trkpt><trkpt lat="43.7996107" lon="11.5682002"><ele>774.3333333333334</ele><time>2026-05-03T07:33:17.003Z</time></trkpt><trkpt lat="43.7996733" lon="11.5681058"><ele>777.0</ele><time>2026-05-03T07:33:18.003Z</time></trkpt><trkpt lat="43.7997166" lon="11.5679971"><ele>777.0</ele><time>2026-05-03T07:33:19.003Z</time></trkpt><trkpt lat="43.7997619" lon="11.5678979"><ele>777.0</ele><time>2026-05-03T07:33:20.003Z</time></trkpt><trkpt lat="43.7998145" lon="11.5678121"><ele>777.0</ele><time>2026-05-03T07:33:21.001Z</time></trkpt><trkpt lat="43.7998642" lon="11.5677251"><ele>777.0</ele><time>2026-05-03T07:33:22.002Z</time></trkpt><trkpt lat="43.7999279" lon="11.5676234"><ele>777.0</ele><time>2026-05-03T07:33:23.003Z</time></trkpt><trkpt lat="43.7999702" lon="11.567516"><ele>777.0</ele><time>2026-05-03T07:33:24.003Z</time></trkpt><trkpt lat="43.800016" lon="11.5674153"><ele>776.5</ele><time>2026-05-03T07:33:25.003Z</time></trkpt><trkpt lat="43.8000855" lon="11.5673595"><ele>776.0</ele><time>2026-05-03T07:33:26.003Z</time></trkpt><trkpt lat="43.80015" lon="11.5673094"><ele>775.5</ele><time>2026-05-03T07:33:27.002Z</time></trkpt><trkpt lat="43.8001975" lon="11.5673924"><ele>775.0</ele><time>2026-05-03T07:33:28.003Z</time></trkpt><trkpt lat="43.8002301" lon="11.5675082"><ele>774.5</ele><time>2026-05-03T07:33:29.003Z</time></trkpt><trkpt lat="43.8002635" lon="11.5676184"><ele>774.0</ele><time>2026-05-03T07:33:30.002Z</time></trkpt><trkpt lat="43.8002913" lon="11.5677283"><ele>772.0</ele><time>2026-05-03T07:33:31.003Z</time></trkpt><trkpt lat="43.8002753" lon="11.5678625"><ele>770.0</ele><time>2026-05-03T07:33:32.003Z</time></trkpt><trkpt lat="43.8002453" lon="11.5680036"><ele>768.0</ele><time>2026-05-03T07:33:33.002Z</time></trkpt><trkpt lat="43.8002219" lon="11.5681363"><ele>766.0</ele><time>2026-05-03T07:33:34.001Z</time></trkpt><trkpt lat="43.8001986" lon="11.5682628"><ele>764.0</ele><time>2026-05-03T07:33:35.002Z</time></trkpt><trkpt lat="43.8001791" lon="11.5683611"><ele>766.1666666666666</ele><time>2026-05-03T07:33:36.003Z</time></trkpt><trkpt lat="43.8001571" lon="11.5684838"><ele>768.3333333333333</ele><time>2026-05-03T07:33:38.003Z</time></trkpt><trkpt lat="43.8001392" lon="11.5685729"><ele>770.5</ele><time>2026-05-03T07:33:39.002Z</time></trkpt><trkpt lat="43.8001214" lon="11.5686766"><ele>772.6666666666666</ele><time>2026-05-03T07:33:40.003Z</time></trkpt><trkpt lat="43.800104" lon="11.5687934"><ele>774.8333333333334</ele><time>2026-05-03T07:33:41.002Z</time></trkpt><trkpt lat="43.8000962" lon="11.5689303"><ele>777.0</ele><time>2026-05-03T07:33:42.003Z</time></trkpt><trkpt lat="43.8000986" lon="11.5690597"><ele>777.6666666666666</ele><time>2026-05-03T07:33:43.003Z</time></trkpt><trkpt lat="43.800107" lon="11.5691859"><ele>778.3333333333333</ele><time>2026-05-03T07:33:44.002Z</time></trkpt><trkpt lat="43.8001081" lon="11.5693037"><ele>779.0</ele><time>2026-05-03T07:33:45.003Z</time></trkpt><trkpt lat="43.8001" lon="11.5694151"><ele>779.6666666666666</ele><time>2026-05-03T07:33:46.002Z</time></trkpt><trkpt lat="43.8000826" lon="11.5695387"><ele>780.3333333333333</ele><time>2026-05-03T07:33:47.001Z</time></trkpt><trkpt lat="43.8000528" lon="11.5696636"><ele>781.0</ele><time>2026-05-03T07:33:48.002Z</time></trkpt><trkpt lat="43.8000188" lon="11.5697778"><ele>783.0</ele><time>2026-05-03T07:33:49.003Z</time></trkpt><trkpt lat="43.7999744" lon="11.5698934"><ele>785.0</ele><time>2026-05-03T07:33:50.003Z</time></trkpt><trkpt lat="43.7999293" lon="11.570016"><ele>787.0</ele><time>2026-05-03T07:33:51.003Z</time></trkpt><trkpt lat="43.7998909" lon="11.5701438"><ele>789.0</ele><time>2026-05-03T07:33:52.002Z</time></trkpt><trkpt lat="43.7998516" lon="11.5702767"><ele>791.0</ele><time>2026-05-03T07:33:53.003Z</time></trkpt><trkpt lat="43.799826" lon="11.5703915"><ele>791.6666666666667</ele><time>2026-05-03T07:33:54.003Z</time></trkpt><trkpt lat="43.7998036" lon="11.5704941"><ele>792.3333333333334</ele><time>2026-05-03T07:33:55.001Z</time></trkpt><trkpt lat="43.7997536" lon="11.5705817"><ele>793.0</ele><time>2026-05-03T07:33:56.003Z</time></trkpt><trkpt lat="43.7997069" lon="11.5706424"><ele>793.6666666666667</ele><time>2026-05-03T07:33:57.003Z</time></trkpt><trkpt lat="43.7996379" lon="11.5707266"><ele>794.3333333333334</ele><time>2026-05-03T07:33:58.003Z</time></trkpt><trkpt lat="43.799567" lon="11.570787"><ele>795.0</ele><time>2026-05-03T07:33:59.003Z</time></trkpt><trkpt lat="43.7994906" lon="11.5707987"><ele>795.0</ele><time>2026-05-03T07:34:00.003Z</time></trkpt><trkpt lat="43.7993833" lon="11.5707761"><ele>795.0</ele><time>2026-05-03T07:34:01.003Z</time></trkpt><trkpt lat="43.7992631" lon="11.5707451"><ele>795.0</ele><time>2026-05-03T07:34:02.002Z</time></trkpt><trkpt lat="43.7991824" lon="11.5707408"><ele>795.0</ele><time>2026-05-03T07:34:03.003Z</time></trkpt><trkpt lat="43.7991245" lon="11.5707923"><ele>795.0</ele><time>2026-05-03T07:34:05.003Z</time></trkpt><trkpt lat="43.7991414" lon="11.5708773"><ele>795.0</ele><time>2026-05-03T07:34:54.003Z</time></trkpt><trkpt lat="43.7991399" lon="11.5709959"><ele>799.2</ele><time>2026-05-03T07:34:57.002Z</time></trkpt><trkpt lat="43.7991289" lon="11.5711199"><ele>803.4</ele><time>2026-05-03T07:34:58.003Z</time></trkpt><trkpt lat="43.7991537" lon="11.5712401"><ele>807.5999999999999</ele><time>2026-05-03T07:34:59.002Z</time></trkpt><trkpt lat="43.799214" lon="11.5713448"><ele>811.8</ele><time>2026-05-03T07:35:00.001Z</time></trkpt><trkpt lat="43.7992524" lon="11.5714699"><ele>816.0</ele><time>2026-05-03T07:35:01.003Z</time></trkpt><trkpt lat="43.7993128" lon="11.5715695"><ele>817.5</ele><time>2026-05-03T07:35:02.002Z</time></trkpt><trkpt lat="43.7993452" lon="11.5716748"><ele>819.0</ele><time>2026-05-03T07:35:03.001Z</time></trkpt><trkpt lat="43.79938" lon="11.5717853"><ele>820.5</ele><time>2026-05-03T07:35:04.003Z</time></trkpt><trkpt lat="43.7993537" lon="11.5719149"><ele>822.0</ele><time>2026-05-03T07:35:05.003Z</time></trkpt><trkpt lat="43.7993279" lon="11.5720239"><ele>823.5</ele><time>2026-05-03T07:35:06.003Z</time></trkpt><trkpt lat="43.7992921" lon="11.5721365"><ele>825.0</ele><time>2026-05-03T07:35:07.002Z</time></trkpt><trkpt lat="43.7992509" lon="11.5722441"><ele>825.0</ele><time>2026-05-03T07:35:08.003Z</time></trkpt><trkpt lat="43.7992275" lon="11.5723462"><ele>825.0</ele><time>2026-05-03T07:35:09.002Z</time></trkpt><trkpt lat="43.799209" lon="11.5724336"><ele>825.0</ele><time>2026-05-03T07:35:10.003Z</time></trkpt><trkpt lat="43.799205" lon="11.5725373"><ele>825.0</ele><time>2026-05-03T07:35:12.001Z</time></trkpt><trkpt lat="43.7994261" lon="11.5725296"><ele>825.0</ele><time>2026-05-03T07:35:14.003Z</time></trkpt><trkpt lat="43.7995251" lon="11.5725378"><ele>825.4</ele><time>2026-05-03T07:35:15.002Z</time></trkpt><trkpt lat="43.7996077" lon="11.5725809"><ele>825.8</ele><time>2026-05-03T07:35:16.003Z</time></trkpt><trkpt lat="43.7996582" lon="11.5726467"><ele>826.2</ele><time>2026-05-03T07:35:17.003Z</time></trkpt><trkpt lat="43.7997082" lon="11.5727736"><ele>826.6</ele><time>2026-05-03T07:35:19.002Z</time></trkpt><trkpt lat="43.7996986" lon="11.5729286"><ele>827.0</ele><time>2026-05-03T07:35:21.003Z</time></trkpt><trkpt lat="43.7997148" lon="11.5730727"><ele>827.0000000000001</ele><time>2026-05-03T07:35:23.002Z</time></trkpt><trkpt lat="43.7997306" lon="11.5732025"><ele>827.0</ele><time>2026-05-03T07:35:25.002Z</time></trkpt><trkpt lat="43.7997577" lon="11.5733561"><ele>827.0</ele><time>2026-05-03T07:35:27.003Z</time></trkpt><trkpt lat="43.799778" lon="11.5734814"><ele>827.0</ele><time>2026-05-03T07:35:29.003Z</time></trkpt><trkpt lat="43.7997784" lon="11.5735824"><ele>827.0000000000001</ele><time>2026-05-03T07:35:31.003Z</time></trkpt><trkpt lat="43.7997957" lon="11.5736738"><ele>827.0</ele><time>2026-05-03T07:35:33.002Z</time></trkpt><trkpt lat="43.7998022" lon="11.5737649"><ele>830.0</ele><time>2026-05-03T07:35:35.003Z</time></trkpt><trkpt lat="43.799825" lon="11.573881"><ele>833.0</ele><time>2026-05-03T07:35:37.003Z</time></trkpt><trkpt lat="43.7998866" lon="11.5739413"><ele>836.0</ele><time>2026-05-03T07:35:38.002Z</time></trkpt><trkpt lat="43.799971" lon="11.5739648"><ele>839.0</ele><time>2026-05-03T07:35:39.002Z</time></trkpt><trkpt lat="43.8000718" lon="11.5739809"><ele>842.0</ele><time>2026-05-03T07:35:41.003Z</time></trkpt><trkpt lat="43.8001654" lon="11.5737824"><ele>841.8</ele><time>2026-05-03T07:35:43.002Z</time></trkpt><trkpt lat="43.8001945" lon="11.5736547"><ele>841.6</ele><time>2026-05-03T07:35:44.003Z</time></trkpt><trkpt lat="43.8002408" lon="11.5735231"><ele>841.4</ele><time>2026-05-03T07:35:46.003Z</time></trkpt><trkpt lat="43.8003324" lon="11.573398"><ele>841.1999999999999</ele><time>2026-05-03T07:35:48.003Z</time></trkpt><trkpt lat="43.8003834" lon="11.5733102"><ele>841.0</ele><time>2026-05-03T07:35:49.003Z</time></trkpt><trkpt lat="43.8004392" lon="11.5732257"><ele>841.0</ele><time>2026-05-03T07:35:50.003Z</time></trkpt><trkpt lat="43.8005256" lon="11.5731742"><ele>841.0</ele><time>2026-05-03T07:35:52.002Z</time></trkpt><trkpt lat="43.8006487" lon="11.5732133"><ele>841.0</ele><time>2026-05-03T07:35:55.002Z</time></trkpt><trkpt lat="43.8006981" lon="11.5733096"><ele>841.0</ele><time>2026-05-03T07:35:57.002Z</time></trkpt><trkpt lat="43.8007293" lon="11.5734246"><ele>841.0</ele><time>2026-05-03T07:35:59.003Z</time></trkpt><trkpt lat="43.8007429" lon="11.5735681"><ele>840.9999999999999</ele><time>2026-05-03T07:36:01.003Z</time></trkpt><trkpt lat="43.800725" lon="11.573662"><ele>841.0</ele><time>2026-05-03T07:36:03.002Z</time></trkpt><trkpt lat="43.8006939" lon="11.5737854"><ele>841.0</ele><time>2026-05-03T07:36:05.002Z</time></trkpt><trkpt lat="43.800684" lon="11.5738761"><ele>841.0</ele><time>2026-05-03T07:36:06.002Z</time></trkpt><trkpt lat="43.8006774" lon="11.5739751"><ele>840.9999999999999</ele><time>2026-05-03T07:36:07.002Z</time></trkpt><trkpt lat="43.800677" lon="11.5740916"><ele>841.0</ele><time>2026-05-03T07:36:08.003Z</time></trkpt><trkpt lat="43.8006744" lon="11.5742286"><ele>843.3333333333333</ele><time>2026-05-03T07:36:09.002Z</time></trkpt><trkpt lat="43.8006736" lon="11.5743545"><ele>845.6666666666666</ele><time>2026-05-03T07:36:10.002Z</time></trkpt><trkpt lat="43.8006702" lon="11.5744582"><ele>848.0</ele><time>2026-05-03T07:36:11.002Z</time></trkpt><trkpt lat="43.8006666" lon="11.5745702"><ele>850.3333333333333</ele><time>2026-05-03T07:36:12.002Z</time></trkpt><trkpt lat="43.8006697" lon="11.5746945"><ele>852.6666666666666</ele><time>2026-05-03T07:36:13.003Z</time></trkpt><trkpt lat="43.8006804" lon="11.5748213"><ele>855.0</ele><time>2026-05-03T07:36:14.003Z</time></trkpt><trkpt lat="43.8007042" lon="11.5749337"><ele>856.8333333333334</ele><time>2026-05-03T07:36:15.003Z</time></trkpt><trkpt lat="43.8007259" lon="11.5750287"><ele>858.6666666666667</ele><time>2026-05-03T07:36:16.003Z</time></trkpt><trkpt lat="43.8007447" lon="11.5751211"><ele>860.5</ele><time>2026-05-03T07:36:17.003Z</time></trkpt><trkpt lat="43.8007656" lon="11.5752242"><ele>862.3333333333334</ele><time>2026-05-03T07:36:18.003Z</time></trkpt><trkpt lat="43.8007869" lon="11.5753275"><ele>864.1666666666667</ele><time>2026-05-03T07:36:19.003Z</time></trkpt><trkpt lat="43.8008162" lon="11.5754315"><ele>866.0</ele><time>2026-05-03T07:36:20.002Z</time></trkpt><trkpt lat="43.8008025" lon="11.5756014"><ele>867.8</ele><time>2026-05-03T07:36:22.002Z</time></trkpt><trkpt lat="43.8007836" lon="11.5756998"><ele>869.5999999999999</ele><time>2026-05-03T07:36:23.003Z</time></trkpt><trkpt lat="43.8007837" lon="11.5758606"><ele>871.4</ele><time>2026-05-03T07:36:25.002Z</time></trkpt><trkpt lat="43.8007691" lon="11.5759998"><ele>873.2</ele><time>2026-05-03T07:36:27.002Z</time></trkpt><trkpt lat="43.8007804" lon="11.576135"><ele>875.0</ele><time>2026-05-03T07:36:29.002Z</time></trkpt><trkpt lat="43.800857" lon="11.5762526"><ele>875.0000000000001</ele><time>2026-05-03T07:36:31.003Z</time></trkpt><trkpt lat="43.8009635" lon="11.5763327"><ele>875.0</ele><time>2026-05-03T07:36:33.003Z</time></trkpt><trkpt lat="43.8009969" lon="11.5764109"><ele>875.0</ele><time>2026-05-03T07:36:34.003Z</time></trkpt><trkpt lat="43.8010067" lon="11.5765016"><ele>875.0</ele><time>2026-05-03T07:36:35.003Z</time></trkpt><trkpt lat="43.8009962" lon="11.5765935"><ele>875.0000000000001</ele><time>2026-05-03T07:36:36.003Z</time></trkpt><trkpt lat="43.8009678" lon="11.5767229"><ele>875.0</ele><time>2026-05-03T07:36:38.002Z</time></trkpt><trkpt lat="43.8009137" lon="11.5767787"><ele>876.1666666666667</ele><time>2026-05-03T07:36:41.002Z</time></trkpt><trkpt lat="43.8008127" lon="11.5768285"><ele>877.3333333333334</ele><time>2026-05-03T07:37:08.001Z</time></trkpt><trkpt lat="43.8007399" lon="11.5768368"><ele>878.5</ele><time>2026-05-03T07:37:09.002Z</time></trkpt><trkpt lat="43.8006641" lon="11.5768507"><ele>879.6666666666667</ele><time>2026-05-03T07:37:10.003Z</time></trkpt><trkpt lat="43.8005865" lon="11.5768485"><ele>880.8333333333334</ele><time>2026-05-03T07:37:11.002Z</time></trkpt><trkpt lat="43.8005155" lon="11.5768293"><ele>882.0</ele><time>2026-05-03T07:37:12.003Z</time></trkpt><trkpt lat="43.8004476" lon="11.5768246"><ele>882.0</ele><time>2026-05-03T07:37:13.002Z</time></trkpt><trkpt lat="43.8003672" lon="11.5768274"><ele>882.0</ele><time>2026-05-03T07:37:14.003Z</time></trkpt><trkpt lat="43.8002751" lon="11.5767763"><ele>882.0</ele><time>2026-05-03T07:37:15.003Z</time></trkpt><trkpt lat="43.800186" lon="11.576673"><ele>882.0</ele><time>2026-05-03T07:37:16.002Z</time></trkpt><trkpt lat="43.8001015" lon="11.57663"><ele>882.0</ele><time>2026-05-03T07:37:17.002Z</time></trkpt><trkpt lat="43.8000022" lon="11.576587"><ele>883.6</ele><time>2026-05-03T07:37:18.003Z</time></trkpt><trkpt lat="43.7999074" lon="11.5765381"><ele>885.2</ele><time>2026-05-03T07:37:19.002Z</time></trkpt><trkpt lat="43.7998229" lon="11.5765076"><ele>886.8</ele><time>2026-05-03T07:37:20.003Z</time></trkpt><trkpt lat="43.7997389" lon="11.5764283"><ele>888.4</ele><time>2026-05-03T07:37:21.003Z</time></trkpt><trkpt lat="43.7996529" lon="11.5763849"><ele>890.0</ele><time>2026-05-03T07:37:22.002Z</time></trkpt><trkpt lat="43.7995647" lon="11.5763235"><ele>890.0</ele><time>2026-05-03T07:37:23.002Z</time></trkpt><trkpt lat="43.7993833" lon="11.5762312"><ele>890.0</ele><time>2026-05-03T07:37:25.003Z</time></trkpt><trkpt lat="43.7992814" lon="11.5761758"><ele>890.0</ele><time>2026-05-03T07:37:26.003Z</time></trkpt><trkpt lat="43.7991729" lon="11.5761255"><ele>890.0</ele><time>2026-05-03T07:37:27.002Z</time></trkpt><trkpt lat="43.7990621" lon="11.5760964"><ele>889.5</ele><time>2026-05-03T07:37:28.003Z</time></trkpt><trkpt lat="43.7989504" lon="11.5760792"><ele>889.0</ele><time>2026-05-03T07:37:29.003Z</time></trkpt><trkpt lat="43.7988309" lon="11.5760718"><ele>888.5</ele><time>2026-05-03T07:37:30.003Z</time></trkpt><trkpt lat="43.7987139" lon="11.5760666"><ele>888.0</ele><time>2026-05-03T07:37:31.002Z</time></trkpt><trkpt lat="43.7985917" lon="11.5760601"><ele>889.25</ele><time>2026-05-03T07:37:32.003Z</time></trkpt><trkpt lat="43.7984715" lon="11.5760487"><ele>890.5</ele><time>2026-05-03T07:37:33.003Z</time></trkpt><trkpt lat="43.7983635" lon="11.5760169"><ele>891.75</ele><time>2026-05-03T07:37:34.003Z</time></trkpt><trkpt lat="43.7982606" lon="11.5759522"><ele>893.0</ele><time>2026-05-03T07:37:35.003Z</time></trkpt><trkpt lat="43.7981608" lon="11.5758814"><ele>893.0</ele><time>2026-05-03T07:37:36.002Z</time></trkpt><trkpt lat="43.7980675" lon="11.5758273"><ele>893.0</ele><time>2026-05-03T07:37:37.003Z</time></trkpt><trkpt lat="43.7979901" lon="11.5758475"><ele>893.0</ele><time>2026-05-03T07:37:38.002Z</time></trkpt><trkpt lat="43.7979246" lon="11.5759344"><ele>893.0</ele><time>2026-05-03T07:37:39.002Z</time></trkpt><trkpt lat="43.7978651" lon="11.5760496"><ele>893.0</ele><time>2026-05-03T07:37:40.003Z</time></trkpt><trkpt lat="43.7977958" lon="11.5761947"><ele>892.5999999999999</ele><time>2026-05-03T07:37:41.002Z</time></trkpt><trkpt lat="43.7977331" lon="11.5763544"><ele>892.1999999999999</ele><time>2026-05-03T07:37:42.003Z</time></trkpt><trkpt lat="43.7976783" lon="11.5764954"><ele>891.8</ele><time>2026-05-03T07:37:43.003Z</time></trkpt><trkpt lat="43.7976223" lon="11.576609"><ele>891.4</ele><time>2026-05-03T07:37:44.003Z</time></trkpt><trkpt lat="43.7975547" lon="11.5766609"><ele>891.0</ele><time>2026-05-03T07:37:45.002Z</time></trkpt><trkpt lat="43.7974684" lon="11.5766929"><ele>893.8</ele><time>2026-05-03T07:37:46.003Z</time></trkpt><trkpt lat="43.7973958" lon="11.5767356"><ele>896.5999999999999</ele><time>2026-05-03T07:37:47.002Z</time></trkpt><trkpt lat="43.7973502" lon="11.5768361"><ele>899.4</ele><time>2026-05-03T07:37:48.002Z</time></trkpt><trkpt lat="43.7973276" lon="11.5769252"><ele>902.2</ele><time>2026-05-03T07:37:49.002Z</time></trkpt><trkpt lat="43.7972403" lon="11.5770519"><ele>905.0</ele><time>2026-05-03T07:37:51.003Z</time></trkpt><trkpt lat="43.7971646" lon="11.5771526"><ele>905.0</ele><time>2026-05-03T07:37:52.003Z</time></trkpt><trkpt lat="43.7971023" lon="11.5772578"><ele>905.0</ele><time>2026-05-03T07:37:53.003Z</time></trkpt><trkpt lat="43.7970486" lon="11.5773699"><ele>905.0</ele><time>2026-05-03T07:37:54.003Z</time></trkpt><trkpt lat="43.7970093" lon="11.5774769"><ele>905.0</ele><time>2026-05-03T07:37:55.001Z</time></trkpt><trkpt lat="43.796993" lon="11.5775896"><ele>905.0</ele><time>2026-05-03T07:37:56.003Z</time></trkpt><trkpt lat="43.7970009" lon="11.5777089"><ele>905.0000000000001</ele><time>2026-05-03T07:37:57.002Z</time></trkpt><trkpt lat="43.7970036" lon="11.5778075"><ele>905.0</ele><time>2026-05-03T07:37:58.002Z</time></trkpt><trkpt lat="43.7969849" lon="11.5779678"><ele>905.0</ele><time>2026-05-03T07:38:00.003Z</time></trkpt><trkpt lat="43.7969539" lon="11.5780612"><ele>905.0</ele><time>2026-05-03T07:38:01.003Z</time></trkpt><trkpt lat="43.7968968" lon="11.5781455"><ele>905.0000000000001</ele><time>2026-05-03T07:38:02.002Z</time></trkpt><trkpt lat="43.7968389" lon="11.5782083"><ele>905.0</ele><time>2026-05-03T07:38:03.003Z</time></trkpt><trkpt lat="43.796769" lon="11.578265"><ele>910.0000000000001</ele><time>2026-05-03T07:38:04.002Z</time></trkpt><trkpt lat="43.7966979" lon="11.5782868"><ele>915.0</ele><time>2026-05-03T07:38:05.001Z</time></trkpt><trkpt lat="43.796557" lon="11.57826"><ele>920.0</ele><time>2026-05-03T07:38:07.003Z</time></trkpt><trkpt lat="43.7964971" lon="11.578189"><ele>925.0</ele><time>2026-05-03T07:38:08.002Z</time></trkpt><trkpt lat="43.7964291" lon="11.5781383"><ele>930.0000000000001</ele><time>2026-05-03T07:38:09.002Z</time></trkpt><trkpt lat="43.7963537" lon="11.5781215"><ele>935.0</ele><time>2026-05-03T07:38:10.002Z</time></trkpt><trkpt lat="43.7962619" lon="11.5781121"><ele>935.0</ele><time>2026-05-03T07:38:11.003Z</time></trkpt><trkpt lat="43.7961233" lon="11.5781296"><ele>935.0</ele><time>2026-05-03T07:38:12.003Z</time></trkpt><trkpt lat="43.7960055" lon="11.5781492"><ele>935.0</ele><time>2026-05-03T07:38:13.003Z</time></trkpt><trkpt lat="43.7958999" lon="11.5781803"><ele>935.0</ele><time>2026-05-03T07:38:14.002Z</time></trkpt><trkpt lat="43.7957917" lon="11.5782163"><ele>939.0</ele><time>2026-05-03T07:38:15.003Z</time></trkpt><trkpt lat="43.7956917" lon="11.5782461"><ele>943.0</ele><time>2026-05-03T07:38:16.002Z</time></trkpt><trkpt lat="43.7955896" lon="11.5782809"><ele>947.0</ele><time>2026-05-03T07:38:17.002Z</time></trkpt><trkpt lat="43.7954958" lon="11.5783081"><ele>951.0</ele><time>2026-05-03T07:38:18.003Z</time></trkpt><trkpt lat="43.7954073" lon="11.5783496"><ele>955.0</ele><time>2026-05-03T07:38:19.003Z</time></trkpt><trkpt lat="43.7953298" lon="11.5784092"><ele>955.0</ele><time>2026-05-03T07:38:20.002Z</time></trkpt><trkpt lat="43.7952517" lon="11.5784923"><ele>955.0</ele><time>2026-05-03T07:38:21.001Z</time></trkpt><trkpt lat="43.7952005" lon="11.5785905"><ele>955.0</ele><time>2026-05-03T07:38:22.003Z</time></trkpt><trkpt lat="43.795151" lon="11.578713"><ele>955.0</ele><time>2026-05-03T07:38:23.002Z</time></trkpt><trkpt lat="43.7951053" lon="11.5788207"><ele>955.0</ele><time>2026-05-03T07:38:24.002Z</time></trkpt><trkpt lat="43.7950688" lon="11.5789234"><ele>958.1666666666666</ele><time>2026-05-03T07:38:25.002Z</time></trkpt><trkpt lat="43.7950224" lon="11.5790372"><ele>961.3333333333333</ele><time>2026-05-03T07:38:26.003Z</time></trkpt><trkpt lat="43.7949631" lon="11.5791349"><ele>964.5</ele><time>2026-05-03T07:38:27.003Z</time></trkpt><trkpt lat="43.7948981" lon="11.579201"><ele>967.6666666666667</ele><time>2026-05-03T07:38:28.002Z</time></trkpt><trkpt lat="43.7948357" lon="11.5792656"><ele>970.8333333333334</ele><time>2026-05-03T07:38:29.003Z</time></trkpt><trkpt lat="43.7947716" lon="11.5793475"><ele>974.0</ele><time>2026-05-03T07:38:30.002Z</time></trkpt><trkpt lat="43.7946966" lon="11.5794208"><ele>974.0</ele><time>2026-05-03T07:38:31.003Z</time></trkpt><trkpt lat="43.794622" lon="11.5794947"><ele>974.0000000000001</ele><time>2026-05-03T07:38:32.003Z</time></trkpt><trkpt lat="43.7945455" lon="11.5795556"><ele>974.0000000000001</ele><time>2026-05-03T07:38:33.002Z</time></trkpt><trkpt lat="43.7944524" lon="11.5796009"><ele>974.0</ele><time>2026-05-03T07:38:34.003Z</time></trkpt><trkpt lat="43.7943833" lon="11.579701"><ele>974.0</ele><time>2026-05-03T07:38:35.003Z</time></trkpt><trkpt lat="43.7942886" lon="11.5797549"><ele>976.6</ele><time>2026-05-03T07:38:36.002Z</time></trkpt><trkpt lat="43.7941806" lon="11.5798435"><ele>979.2</ele><time>2026-05-03T07:38:37.003Z</time></trkpt><trkpt lat="43.7941032" lon="11.5798917"><ele>981.8000000000001</ele><time>2026-05-03T07:38:38.002Z</time></trkpt><trkpt lat="43.7940075" lon="11.579958"><ele>984.4000000000001</ele><time>2026-05-03T07:38:39.002Z</time></trkpt><trkpt lat="43.7939379" lon="11.5800163"><ele>987.0</ele><time>2026-05-03T07:38:40.003Z</time></trkpt><trkpt lat="43.7938723" lon="11.5801187"><ele>987.0</ele><time>2026-05-03T07:38:41.001Z</time></trkpt><trkpt lat="43.7938032" lon="11.5801982"><ele>987.0</ele><time>2026-05-03T07:38:42.002Z</time></trkpt><trkpt lat="43.793748" lon="11.580272"><ele>987.0</ele><time>2026-05-03T07:38:43.002Z</time></trkpt><trkpt lat="43.7936775" lon="11.5803639"><ele>987.0</ele><time>2026-05-03T07:38:44.002Z</time></trkpt><trkpt lat="43.7935993" lon="11.5804602"><ele>987.0</ele><time>2026-05-03T07:38:45.003Z</time></trkpt><trkpt lat="43.7935241" lon="11.5805801"><ele>988.6</ele><time>2026-05-03T07:38:46.002Z</time></trkpt><trkpt lat="43.7934582" lon="11.5806885"><ele>990.2</ele><time>2026-05-03T07:38:47.002Z</time></trkpt><trkpt lat="43.793392" lon="11.5808022"><ele>991.8</ele><time>2026-05-03T07:38:48.003Z</time></trkpt><trkpt lat="43.7933141" lon="11.5808995"><ele>993.4</ele><time>2026-05-03T07:38:49.003Z</time></trkpt><trkpt lat="43.7932386" lon="11.5810036"><ele>995.0</ele><time>2026-05-03T07:38:50.002Z</time></trkpt><trkpt lat="43.7931473" lon="11.5811059"><ele>995.0</ele><time>2026-05-03T07:38:51.002Z</time></trkpt><trkpt lat="43.7930526" lon="11.5811813"><ele>995.0</ele><time>2026-05-03T07:38:52.003Z</time></trkpt><trkpt lat="43.7929731" lon="11.581255"><ele>995.0</ele><time>2026-05-03T07:38:53.003Z</time></trkpt><trkpt lat="43.7928645" lon="11.5813315"><ele>995.0</ele><time>2026-05-03T07:38:54.003Z</time></trkpt><trkpt lat="43.7927779" lon="11.5814087"><ele>995.0</ele><time>2026-05-03T07:38:55.003Z</time></trkpt><trkpt lat="43.7926822" lon="11.581473"><ele>994.75</ele><time>2026-05-03T07:38:56.002Z</time></trkpt><trkpt lat="43.7925665" lon="11.5815664"><ele>994.5</ele><time>2026-05-03T07:38:57.003Z</time></trkpt><trkpt lat="43.7924664" lon="11.5816293"><ele>994.25</ele><time>2026-05-03T07:38:58.003Z</time></trkpt><trkpt lat="43.7923613" lon="11.5817131"><ele>994.0</ele><time>2026-05-03T07:38:59.002Z</time></trkpt><trkpt lat="43.7922729" lon="11.5818007"><ele>994.0</ele><time>2026-05-03T07:39:00.003Z</time></trkpt><trkpt lat="43.7921904" lon="11.5818673"><ele>994.0000000000001</ele><time>2026-05-03T07:39:01.003Z</time></trkpt><trkpt lat="43.7921034" lon="11.5819425"><ele>994.0000000000001</ele><time>2026-05-03T07:39:02.003Z</time></trkpt><trkpt lat="43.7919995" lon="11.5819374"><ele>994.0</ele><time>2026-05-03T07:39:03.003Z</time></trkpt><trkpt lat="43.791908" lon="11.5819788"><ele>994.0</ele><time>2026-05-03T07:39:04.002Z</time></trkpt><trkpt lat="43.7917975" lon="11.5820085"><ele>991.5</ele><time>2026-05-03T07:39:05.003Z</time></trkpt><trkpt lat="43.7916771" lon="11.5820386"><ele>989.0</ele><time>2026-05-03T07:39:06.002Z</time></trkpt><trkpt lat="43.7915575" lon="11.5820588"><ele>986.5</ele><time>2026-05-03T07:39:07.002Z</time></trkpt><trkpt lat="43.791438" lon="11.5820604"><ele>984.0</ele><time>2026-05-03T07:39:08.003Z</time></trkpt><trkpt lat="43.7913099" lon="11.5820531"><ele>984.0</ele><time>2026-05-03T07:39:09.003Z</time></trkpt><trkpt lat="43.791181" lon="11.5820561"><ele>984.0</ele><time>2026-05-03T07:39:10.002Z</time></trkpt><trkpt lat="43.7910501" lon="11.5820703"><ele>984.0</ele><time>2026-05-03T07:39:11.002Z</time></trkpt><trkpt lat="43.7909349" lon="11.582102"><ele>984.0</ele><time>2026-05-03T07:39:12.001Z</time></trkpt><trkpt lat="43.7907993" lon="11.5821445"><ele>983.5</ele><time>2026-05-03T07:39:13.003Z</time></trkpt><trkpt lat="43.7906608" lon="11.5821789"><ele>983.0</ele><time>2026-05-03T07:39:14.003Z</time></trkpt><trkpt lat="43.7905311" lon="11.5821969"><ele>982.5</ele><time>2026-05-03T07:39:15.002Z</time></trkpt><trkpt lat="43.7904232" lon="11.5822218"><ele>982.0</ele><time>2026-05-03T07:39:16.003Z</time></trkpt><trkpt lat="43.790318" lon="11.582246"><ele>982.0</ele><time>2026-05-03T07:39:17.002Z</time></trkpt><trkpt lat="43.7902112" lon="11.5822833"><ele>982.0</ele><time>2026-05-03T07:39:18.002Z</time></trkpt><trkpt lat="43.7901086" lon="11.5823274"><ele>982.0</ele><time>2026-05-03T07:39:19.003Z</time></trkpt><trkpt lat="43.7900155" lon="11.5823818"><ele>982.0</ele><time>2026-05-03T07:39:20.003Z</time></trkpt><trkpt lat="43.7899226" lon="11.5824313"><ele>982.0</ele><time>2026-05-03T07:39:21.003Z</time></trkpt><trkpt lat="43.7898337" lon="11.5824673"><ele>982.0</ele><time>2026-05-03T07:39:22.002Z</time></trkpt><trkpt lat="43.7897543" lon="11.5824745"><ele>982.0</ele><time>2026-05-03T07:39:23.003Z</time></trkpt><trkpt lat="43.7896708" lon="11.5824746"><ele>982.0</ele><time>2026-05-03T07:39:24.003Z</time></trkpt><trkpt lat="43.7895713" lon="11.5824354"><ele>982.0</ele><time>2026-05-03T07:39:25.003Z</time></trkpt><trkpt lat="43.7894642" lon="11.5823841"><ele>982.0</ele><time>2026-05-03T07:39:26.003Z</time></trkpt><trkpt lat="43.7893427" lon="11.582344"><ele>979.75</ele><time>2026-05-03T07:39:27.003Z</time></trkpt><trkpt lat="43.7891974" lon="11.5822892"><ele>977.5</ele><time>2026-05-03T07:39:28.002Z</time></trkpt><trkpt lat="43.789076" lon="11.5822278"><ele>975.25</ele><time>2026-05-03T07:39:29.002Z</time></trkpt><trkpt lat="43.788952" lon="11.5821672"><ele>973.0</ele><time>2026-05-03T07:39:30.003Z</time></trkpt><trkpt lat="43.7888344" lon="11.5821097"><ele>973.0</ele><time>2026-05-03T07:39:31.003Z</time></trkpt><trkpt lat="43.7887559" lon="11.5820828"><ele>973.0</ele><time>2026-05-03T07:39:32.002Z</time></trkpt><trkpt lat="43.7886881" lon="11.5820664"><ele>973.0</ele><time>2026-05-03T07:39:33.001Z</time></trkpt><trkpt lat="43.7886247" lon="11.5820635"><ele>973.0</ele><time>2026-05-03T07:39:34.003Z</time></trkpt><trkpt lat="43.7885597" lon="11.5820626"><ele>973.0</ele><time>2026-05-03T07:39:35.003Z</time></trkpt><trkpt lat="43.7884893" lon="11.5820716"><ele>973.0</ele><time>2026-05-03T07:39:36.003Z</time></trkpt><trkpt lat="43.7884173" lon="11.5820837"><ele>973.0</ele><time>2026-05-03T07:39:37.003Z</time></trkpt><trkpt lat="43.7883501" lon="11.5821004"><ele>972.5999999999999</ele><time>2026-05-03T07:39:38.002Z</time></trkpt><trkpt lat="43.7882852" lon="11.5821149"><ele>972.1999999999999</ele><time>2026-05-03T07:39:39.002Z</time></trkpt><trkpt lat="43.788162" lon="11.5821618"><ele>971.8</ele><time>2026-05-03T07:39:41.003Z</time></trkpt><trkpt lat="43.7880998" lon="11.5822063"><ele>971.4</ele><time>2026-05-03T07:39:42.004Z</time></trkpt><trkpt lat="43.7880409" lon="11.582247"><ele>971.0</ele><time>2026-05-03T07:39:43.004Z</time></trkpt><trkpt lat="43.7879264" lon="11.5823021"><ele>971.0000000000001</ele><time>2026-05-03T07:39:45.003Z</time></trkpt><trkpt lat="43.7878659" lon="11.5823297"><ele>971.0</ele><time>2026-05-03T07:39:46.004Z</time></trkpt><trkpt lat="43.7878047" lon="11.5823575"><ele>971.0</ele><time>2026-05-03T07:39:47.004Z</time></trkpt><trkpt lat="43.7877334" lon="11.5823579"><ele>971.0</ele><time>2026-05-03T07:39:48.003Z</time></trkpt><trkpt lat="43.7876595" lon="11.5823587"><ele>971.0000000000001</ele><time>2026-05-03T07:39:49.003Z</time></trkpt><trkpt lat="43.7875781" lon="11.5823669"><ele>971.0</ele><time>2026-05-03T07:39:50.004Z</time></trkpt><trkpt lat="43.7874306" lon="11.5823457"><ele>969.8</ele><time>2026-05-03T07:39:52.004Z</time></trkpt><trkpt lat="43.7873634" lon="11.5823116"><ele>968.5999999999999</ele><time>2026-05-03T07:39:53.003Z</time></trkpt><trkpt lat="43.7872938" lon="11.5822484"><ele>967.4</ele><time>2026-05-03T07:39:54.004Z</time></trkpt><trkpt lat="43.7872293" lon="11.5821886"><ele>966.2</ele><time>2026-05-03T07:39:55.003Z</time></trkpt><trkpt lat="43.7871184" lon="11.5820387"><ele>965.0</ele><time>2026-05-03T07:39:57.004Z</time></trkpt><trkpt lat="43.7870601" lon="11.5819216"><ele>964.75</ele><time>2026-05-03T07:39:58.004Z</time></trkpt><trkpt lat="43.7869973" lon="11.5818101"><ele>964.5</ele><time>2026-05-03T07:39:59.004Z</time></trkpt><trkpt lat="43.7869331" lon="11.5816937"><ele>964.25</ele><time>2026-05-03T07:40:00.004Z</time></trkpt><trkpt lat="43.7867839" lon="11.5815982"><ele>964.0</ele><time>2026-05-03T07:40:01.003Z</time></trkpt><trkpt lat="43.7866945" lon="11.5815352"><ele>962.8333333333333</ele><time>2026-05-03T07:40:02.004Z</time></trkpt><trkpt lat="43.7866094" lon="11.5814965"><ele>961.6666666666666</ele><time>2026-05-03T07:40:03.004Z</time></trkpt><trkpt lat="43.7865306" lon="11.5814598"><ele>960.5</ele><time>2026-05-03T07:40:04.004Z</time></trkpt><trkpt lat="43.7864585" lon="11.5814405"><ele>959.3333333333333</ele><time>2026-05-03T07:40:05.002Z</time></trkpt><trkpt lat="43.7863886" lon="11.5814142"><ele>958.1666666666666</ele><time>2026-05-03T07:40:06.004Z</time></trkpt><trkpt lat="43.7862792" lon="11.5814008"><ele>957.0</ele><time>2026-05-03T07:40:08.004Z</time></trkpt><trkpt lat="43.786206" lon="11.5813657"><ele>957.0</ele><time>2026-05-03T07:40:10.004Z</time></trkpt><trkpt lat="43.7862236" lon="11.5812628"><ele>957.0</ele><time>2026-05-03T07:40:15.004Z</time></trkpt><trkpt lat="43.7862697" lon="11.5811571"><ele>957.0</ele><time>2026-05-03T07:40:17.004Z</time></trkpt><trkpt lat="43.7862734" lon="11.5809968"><ele>957.0</ele><time>2026-05-03T07:40:19.003Z</time></trkpt><trkpt lat="43.7862644" lon="11.5808915"><ele>957.0</ele><time>2026-05-03T07:40:20.004Z</time></trkpt><trkpt lat="43.7862328" lon="11.58079"><ele>957.0</ele><time>2026-05-03T07:40:21.004Z</time></trkpt><trkpt lat="43.7861976" lon="11.580681"><ele>956.4000000000001</ele><time>2026-05-03T07:40:22.003Z</time></trkpt><trkpt lat="43.7861858" lon="11.58056"><ele>955.8000000000001</ele><time>2026-05-03T07:40:23.003Z</time></trkpt><trkpt lat="43.7861951" lon="11.5804375"><ele>955.2</ele><time>2026-05-03T07:40:24.004Z</time></trkpt><trkpt lat="43.7862072" lon="11.5803148"><ele>954.6</ele><time>2026-05-03T07:40:25.004Z</time></trkpt><trkpt lat="43.7862264" lon="11.5801908"><ele>954.0</ele><time>2026-05-03T07:40:26.002Z</time></trkpt><trkpt lat="43.7862358" lon="11.5800639"><ele>951.75</ele><time>2026-05-03T07:40:27.004Z</time></trkpt><trkpt lat="43.7862251" lon="11.5799296"><ele>949.5</ele><time>2026-05-03T07:40:28.004Z</time></trkpt><trkpt lat="43.7862151" lon="11.5796564"><ele>947.25</ele><time>2026-05-03T07:40:30.004Z</time></trkpt><trkpt lat="43.7862263" lon="11.5795182"><ele>945.0</ele><time>2026-05-03T07:40:31.002Z</time></trkpt><trkpt lat="43.7862523" lon="11.5793811"><ele>944.8</ele><time>2026-05-03T07:40:32.003Z</time></trkpt><trkpt lat="43.7862785" lon="11.5792467"><ele>944.6</ele><time>2026-05-03T07:40:33.004Z</time></trkpt><trkpt lat="43.7862974" lon="11.5791079"><ele>944.4000000000001</ele><time>2026-05-03T07:40:34.003Z</time></trkpt><trkpt lat="43.786299" lon="11.5789659"><ele>944.2</ele><time>2026-05-03T07:40:35.003Z</time></trkpt><trkpt lat="43.786287" lon="11.5788299"><ele>944.0</ele><time>2026-05-03T07:40:36.004Z</time></trkpt><trkpt lat="43.7862749" lon="11.5786932"><ele>943.6</ele><time>2026-05-03T07:40:37.002Z</time></trkpt><trkpt lat="43.7862707" lon="11.5785686"><ele>943.2</ele><time>2026-05-03T07:40:38.004Z</time></trkpt><trkpt lat="43.7862862" lon="11.5784501"><ele>942.8000000000001</ele><time>2026-05-03T07:40:39.004Z</time></trkpt><trkpt lat="43.7862932" lon="11.5783245"><ele>942.4000000000001</ele><time>2026-05-03T07:40:40.004Z</time></trkpt><trkpt lat="43.7863556" lon="11.5782119"><ele>942.0</ele><time>2026-05-03T07:40:41.003Z</time></trkpt><trkpt lat="43.7863813" lon="11.57808"><ele>942.0</ele><time>2026-05-03T07:40:42.003Z</time></trkpt><trkpt lat="43.7864053" lon="11.5779451"><ele>942.0</ele><time>2026-05-03T07:40:43.004Z</time></trkpt><trkpt lat="43.7864078" lon="11.5778251"><ele>942.0</ele><time>2026-05-03T07:40:44.004Z</time></trkpt><trkpt lat="43.7864287" lon="11.5777073"><ele>942.0</ele><time>2026-05-03T07:40:45.004Z</time></trkpt><trkpt lat="43.7864074" lon="11.5776208"><ele>942.0</ele><time>2026-05-03T07:40:46.004Z</time></trkpt><trkpt lat="43.7863554" lon="11.5775361"><ele>942.0</ele><time>2026-05-03T07:40:47.004Z</time></trkpt><trkpt lat="43.7862522" lon="11.5774798"><ele>939.25</ele><time>2026-05-03T07:40:48.004Z</time></trkpt><trkpt lat="43.7861734" lon="11.5773734"><ele>936.5</ele><time>2026-05-03T07:40:49.004Z</time></trkpt><trkpt lat="43.7861156" lon="11.5772363"><ele>933.75</ele><time>2026-05-03T07:40:50.004Z</time></trkpt><trkpt lat="43.786038" lon="11.5770875"><ele>931.0</ele><time>2026-05-03T07:40:51.004Z</time></trkpt><trkpt lat="43.7859819" lon="11.5769478"><ele>930.0</ele><time>2026-05-03T07:40:52.003Z</time></trkpt><trkpt lat="43.7859284" lon="11.5768043"><ele>928.9999999999999</ele><time>2026-05-03T07:40:53.004Z</time></trkpt><trkpt lat="43.7858814" lon="11.5766654"><ele>927.9999999999999</ele><time>2026-05-03T07:40:54.004Z</time></trkpt><trkpt lat="43.7858289" lon="11.5765448"><ele>927.0</ele><time>2026-05-03T07:40:55.002Z</time></trkpt><trkpt lat="43.7857661" lon="11.576441"><ele>926.0</ele><time>2026-05-03T07:40:56.004Z</time></trkpt><trkpt lat="43.7856963" lon="11.5763595"><ele>926.0000000000001</ele><time>2026-05-03T07:40:57.003Z</time></trkpt><trkpt lat="43.7856468" lon="11.5762754"><ele>926.0</ele><time>2026-05-03T07:40:58.004Z</time></trkpt><trkpt lat="43.7856142" lon="11.5761861"><ele>926.0</ele><time>2026-05-03T07:40:59.003Z</time></trkpt><trkpt lat="43.7855955" lon="11.5760878"><ele>926.0</ele><time>2026-05-03T07:41:00.003Z</time></trkpt><trkpt lat="43.7856144" lon="11.5759896"><ele>926.0000000000001</ele><time>2026-05-03T07:41:01.003Z</time></trkpt><trkpt lat="43.7856576" lon="11.5758846"><ele>926.0</ele><time>2026-05-03T07:41:02.004Z</time></trkpt><trkpt lat="43.7857195" lon="11.5757691"><ele>924.4</ele><time>2026-05-03T07:41:03.004Z</time></trkpt><trkpt lat="43.7857936" lon="11.575656"><ele>922.8</ele><time>2026-05-03T07:41:04.003Z</time></trkpt><trkpt lat="43.7858574" lon="11.575556"><ele>921.1999999999999</ele><time>2026-05-03T07:41:05.004Z</time></trkpt><trkpt lat="43.7859224" lon="11.5754665"><ele>919.5999999999999</ele><time>2026-05-03T07:41:06.003Z</time></trkpt><trkpt lat="43.7859915" lon="11.5754053"><ele>918.0</ele><time>2026-05-03T07:41:07.003Z</time></trkpt><trkpt lat="43.7860681" lon="11.5753747"><ele>917.3333333333334</ele><time>2026-05-03T07:41:08.004Z</time></trkpt><trkpt lat="43.7861552" lon="11.5753771"><ele>916.6666666666667</ele><time>2026-05-03T07:41:09.003Z</time></trkpt><trkpt lat="43.7862369" lon="11.5753973"><ele>916.0</ele><time>2026-05-03T07:41:10.004Z</time></trkpt><trkpt lat="43.786309" lon="11.5754179"><ele>915.3333333333334</ele><time>2026-05-03T07:41:11.003Z</time></trkpt><trkpt lat="43.78638" lon="11.5754219"><ele>914.6666666666667</ele><time>2026-05-03T07:41:12.004Z</time></trkpt><trkpt lat="43.7864397" lon="11.5753862"><ele>914.0</ele><time>2026-05-03T07:41:13.003Z</time></trkpt><trkpt lat="43.7864909" lon="11.5753165"><ele>913.3333333333334</ele><time>2026-05-03T07:41:14.003Z</time></trkpt><trkpt lat="43.7865235" lon="11.5752211"><ele>912.6666666666667</ele><time>2026-05-03T07:41:15.004Z</time></trkpt><trkpt lat="43.7865398" lon="11.5751106"><ele>912.0</ele><time>2026-05-03T07:41:16.003Z</time></trkpt><trkpt lat="43.7865409" lon="11.5749791"><ele>911.3333333333333</ele><time>2026-05-03T07:41:17.004Z</time></trkpt><trkpt lat="43.7865374" lon="11.5748461"><ele>910.6666666666666</ele><time>2026-05-03T07:41:18.003Z</time></trkpt><trkpt lat="43.7865391" lon="11.5747236"><ele>910.0</ele><time>2026-05-03T07:41:19.004Z</time></trkpt><trkpt lat="43.7865497" lon="11.5746132"><ele>908.4999999999999</ele><time>2026-05-03T07:41:20.004Z</time></trkpt><trkpt lat="43.7865799" lon="11.5745171"><ele>907.0</ele><time>2026-05-03T07:41:21.003Z</time></trkpt><trkpt lat="43.7866259" lon="11.5744409"><ele>905.5</ele><time>2026-05-03T07:41:22.004Z</time></trkpt><trkpt lat="43.7866913" lon="11.5743782"><ele>904.0</ele><time>2026-05-03T07:41:23.004Z</time></trkpt><trkpt lat="43.7867708" lon="11.5743161"><ele>902.4999999999999</ele><time>2026-05-03T07:41:24.004Z</time></trkpt><trkpt lat="43.7868495" lon="11.5742417"><ele>901.0</ele><time>2026-05-03T07:41:25.003Z</time></trkpt><trkpt lat="43.786927" lon="11.5741549"><ele>900.8</ele><time>2026-05-03T07:41:26.004Z</time></trkpt><trkpt lat="43.7869975" lon="11.5740546"><ele>900.5999999999999</ele><time>2026-05-03T07:41:27.004Z</time></trkpt><trkpt lat="43.787062" lon="11.5739462"><ele>900.4</ele><time>2026-05-03T07:41:28.004Z</time></trkpt><trkpt lat="43.7871232" lon="11.5738349"><ele>900.2</ele><time>2026-05-03T07:41:29.003Z</time></trkpt><trkpt lat="43.787186" lon="11.5737234"><ele>900.0</ele><time>2026-05-03T07:41:30.004Z</time></trkpt><trkpt lat="43.7872498" lon="11.5736086"><ele>899.0</ele><time>2026-05-03T07:41:31.003Z</time></trkpt><trkpt lat="43.7873101" lon="11.5735036"><ele>898.0</ele><time>2026-05-03T07:41:32.003Z</time></trkpt><trkpt lat="43.7873676" lon="11.5733862"><ele>897.0</ele><time>2026-05-03T07:41:33.004Z</time></trkpt><trkpt lat="43.7874108" lon="11.5732809"><ele>896.0</ele><time>2026-05-03T07:41:34.004Z</time></trkpt><trkpt lat="43.7874448" lon="11.5731024"><ele>895.0</ele><time>2026-05-03T07:41:36.004Z</time></trkpt><trkpt lat="43.7874096" lon="11.5729627"><ele>894.9999999999999</ele><time>2026-05-03T07:41:38.003Z</time></trkpt><trkpt lat="43.7873233" lon="11.57291"><ele>895.0</ele><time>2026-05-03T07:41:40.004Z</time></trkpt><trkpt lat="43.7872678" lon="11.5728572"><ele>895.0</ele><time>2026-05-03T07:41:42.003Z</time></trkpt><trkpt lat="43.7872159" lon="11.5728016"><ele>895.0</ele><time>2026-05-03T07:41:45.004Z</time></trkpt><trkpt lat="43.7871662" lon="11.5727065"><ele>894.9999999999999</ele><time>2026-05-03T07:41:48.004Z</time></trkpt><trkpt lat="43.787165" lon="11.5725901"><ele>895.0</ele><time>2026-05-03T07:41:50.003Z</time></trkpt><trkpt lat="43.7871594" lon="11.5725001"><ele>893.8</ele><time>2026-05-03T07:41:53.004Z</time></trkpt><trkpt lat="43.7870911" lon="11.5724792"><ele>892.6</ele><time>2026-05-03T07:41:57.003Z</time></trkpt><trkpt lat="43.7870143" lon="11.5724906"><ele>891.4000000000001</ele><time>2026-05-03T07:42:00.004Z</time></trkpt><trkpt lat="43.7869118" lon="11.5725805"><ele>890.2</ele><time>2026-05-03T07:42:02.004Z</time></trkpt><trkpt lat="43.7868072" lon="11.5726757"><ele>889.0</ele><time>2026-05-03T07:42:04.004Z</time></trkpt><trkpt lat="43.7866491" lon="11.5727244"><ele>889.2</ele><time>2026-05-03T07:42:06.004Z</time></trkpt><trkpt lat="43.7865686" lon="11.5727361"><ele>889.4000000000001</ele><time>2026-05-03T07:42:07.002Z</time></trkpt><trkpt lat="43.7864557" lon="11.5728232"><ele>889.6</ele><time>2026-05-03T07:42:09.003Z</time></trkpt><trkpt lat="43.7863645" lon="11.5729017"><ele>889.8</ele><time>2026-05-03T07:42:11.003Z</time></trkpt><trkpt lat="43.7862773" lon="11.5729978"><ele>890.0</ele><time>2026-05-03T07:42:13.003Z</time></trkpt><trkpt lat="43.7861932" lon="11.5731719"><ele>890.0</ele><time>2026-05-03T07:42:15.004Z</time></trkpt><trkpt lat="43.7861425" lon="11.5733006"><ele>890.0</ele><time>2026-05-03T07:42:16.004Z</time></trkpt><trkpt lat="43.786098" lon="11.5734173"><ele>890.0</ele><time>2026-05-03T07:42:17.004Z</time></trkpt><trkpt lat="43.7860418" lon="11.5735379"><ele>890.0</ele><time>2026-05-03T07:42:18.003Z</time></trkpt><trkpt lat="43.7859414" lon="11.5736578"><ele>890.0</ele><time>2026-05-03T07:42:19.004Z</time></trkpt><trkpt lat="43.7859012" lon="11.5737675"><ele>889.75</ele><time>2026-05-03T07:42:20.003Z</time></trkpt><trkpt lat="43.7858039" lon="11.5738776"><ele>889.5</ele><time>2026-05-03T07:42:21.004Z</time></trkpt><trkpt lat="43.785721" lon="11.5739927"><ele>889.25</ele><time>2026-05-03T07:42:22.003Z</time></trkpt><trkpt lat="43.7856464" lon="11.5740999"><ele>889.0</ele><time>2026-05-03T07:42:23.004Z</time></trkpt><trkpt lat="43.7855715" lon="11.574209"><ele>889.0</ele><time>2026-05-03T07:42:24.004Z</time></trkpt><trkpt lat="43.7854998" lon="11.5743094"><ele>889.0000000000001</ele><time>2026-05-03T07:42:25.004Z</time></trkpt><trkpt lat="43.7854386" lon="11.5744287"><ele>889.0000000000001</ele><time>2026-05-03T07:42:26.004Z</time></trkpt><trkpt lat="43.7853507" lon="11.5745319"><ele>889.0</ele><time>2026-05-03T07:42:27.004Z</time></trkpt><trkpt lat="43.7852675" lon="11.5746408"><ele>889.0</ele><time>2026-05-03T07:42:28.004Z</time></trkpt><trkpt lat="43.7851866" lon="11.574741"><ele>888.25</ele><time>2026-05-03T07:42:29.004Z</time></trkpt><trkpt lat="43.7851021" lon="11.5748585"><ele>887.5</ele><time>2026-05-03T07:42:30.003Z</time></trkpt><trkpt lat="43.7850176" lon="11.5749697"><ele>886.75</ele><time>2026-05-03T07:42:31.004Z</time></trkpt><trkpt lat="43.784929" lon="11.5750935"><ele>886.0</ele><time>2026-05-03T07:42:32.004Z</time></trkpt><trkpt lat="43.7848454" lon="11.5752046"><ele>886.0</ele><time>2026-05-03T07:42:33.004Z</time></trkpt><trkpt lat="43.7847638" lon="11.5753158"><ele>886.0</ele><time>2026-05-03T07:42:34.004Z</time></trkpt><trkpt lat="43.7846056" lon="11.5755312"><ele>886.0</ele><time>2026-05-03T07:42:36.004Z</time></trkpt><trkpt lat="43.784558" lon="11.5756514"><ele>886.0</ele><time>2026-05-03T07:42:37.003Z</time></trkpt><trkpt lat="43.7845234" lon="11.5757906"><ele>887.25</ele><time>2026-05-03T07:42:38.003Z</time></trkpt><trkpt lat="43.7844901" lon="11.5759312"><ele>888.5</ele><time>2026-05-03T07:42:39.004Z</time></trkpt><trkpt lat="43.7844477" lon="11.5760674"><ele>889.75</ele><time>2026-05-03T07:42:40.002Z</time></trkpt><trkpt lat="43.7843852" lon="11.5762182"><ele>891.0</ele><time>2026-05-03T07:42:41.003Z</time></trkpt><trkpt lat="43.7843246" lon="11.5763791"><ele>891.0</ele><time>2026-05-03T07:42:42.003Z</time></trkpt><trkpt lat="43.7842622" lon="11.5765298"><ele>891.0</ele><time>2026-05-03T07:42:43.004Z</time></trkpt><trkpt lat="43.784212" lon="11.5766843"><ele>891.0</ele><time>2026-05-03T07:42:44.004Z</time></trkpt><trkpt lat="43.7841453" lon="11.5767819"><ele>891.0</ele><time>2026-05-03T07:42:45.004Z</time></trkpt><trkpt lat="43.7841195" lon="11.5769343"><ele>893.4</ele><time>2026-05-03T07:42:46.004Z</time></trkpt><trkpt lat="43.7840919" lon="11.577084"><ele>895.8</ele><time>2026-05-03T07:42:47.004Z</time></trkpt><trkpt lat="43.7840581" lon="11.5772101"><ele>898.1999999999999</ele><time>2026-05-03T07:42:48.003Z</time></trkpt><trkpt lat="43.7840206" lon="11.577344"><ele>900.5999999999999</ele><time>2026-05-03T07:42:49.004Z</time></trkpt><trkpt lat="43.7839979" lon="11.5774879"><ele>903.0</ele><time>2026-05-03T07:42:50.003Z</time></trkpt><trkpt lat="43.7839173" lon="11.577578"><ele>903.0</ele><time>2026-05-03T07:42:51.004Z</time></trkpt><trkpt lat="43.7838111" lon="11.5776643"><ele>903.0</ele><time>2026-05-03T07:42:52.004Z</time></trkpt><trkpt lat="43.7836876" lon="11.5777076"><ele>903.0</ele><time>2026-05-03T07:42:53.004Z</time></trkpt><trkpt lat="43.7835748" lon="11.5777569"><ele>903.0</ele><time>2026-05-03T07:42:54.003Z</time></trkpt><trkpt lat="43.78346" lon="11.5777833"><ele>905.0</ele><time>2026-05-03T07:42:55.004Z</time></trkpt><trkpt lat="43.7833504" lon="11.5778137"><ele>907.0</ele><time>2026-05-03T07:42:56.004Z</time></trkpt><trkpt lat="43.7832463" lon="11.5778387"><ele>909.0</ele><time>2026-05-03T07:42:57.003Z</time></trkpt><trkpt lat="43.7831272" lon="11.5778724"><ele>911.0</ele><time>2026-05-03T07:42:58.004Z</time></trkpt><trkpt lat="43.7829085" lon="11.5780251"><ele>911.0</ele><time>2026-05-03T07:43:00.003Z</time></trkpt><trkpt lat="43.7828229" lon="11.5781316"><ele>911.0</ele><time>2026-05-03T07:43:01.004Z</time></trkpt><trkpt lat="43.7827221" lon="11.5782165"><ele>911.0</ele><time>2026-05-03T07:43:02.004Z</time></trkpt><trkpt lat="43.7825958" lon="11.5783064"><ele>911.0</ele><time>2026-05-03T07:43:03.003Z</time></trkpt><trkpt lat="43.7824754" lon="11.5784165"><ele>909.5</ele><time>2026-05-03T07:43:04.004Z</time></trkpt><trkpt lat="43.7823434" lon="11.5784995"><ele>908.0</ele><time>2026-05-03T07:43:05.004Z</time></trkpt><trkpt lat="43.7822563" lon="11.578575"><ele>906.5</ele><time>2026-05-03T07:43:06.004Z</time></trkpt><trkpt lat="43.7821676" lon="11.5786677"><ele>905.0</ele><time>2026-05-03T07:43:07.004Z</time></trkpt><trkpt lat="43.7820739" lon="11.578759"><ele>906.5</ele><time>2026-05-03T07:43:08.003Z</time></trkpt><trkpt lat="43.7819838" lon="11.5788661"><ele>908.0</ele><time>2026-05-03T07:43:09.003Z</time></trkpt><trkpt lat="43.7818717" lon="11.5789378"><ele>909.5</ele><time>2026-05-03T07:43:10.004Z</time></trkpt><trkpt lat="43.7817606" lon="11.5789958"><ele>911.0</ele><time>2026-05-03T07:43:11.004Z</time></trkpt><trkpt lat="43.7816581" lon="11.5790981"><ele>911.0</ele><time>2026-05-03T07:43:12.003Z</time></trkpt><trkpt lat="43.7815614" lon="11.5791623"><ele>911.0</ele><time>2026-05-03T07:43:13.004Z</time></trkpt><trkpt lat="43.7814435" lon="11.5792538"><ele>911.0</ele><time>2026-05-03T07:43:14.004Z</time></trkpt><trkpt lat="43.7813535" lon="11.5793584"><ele>911.0</ele><time>2026-05-03T07:43:15.004Z</time></trkpt><trkpt lat="43.7812477" lon="11.5794462"><ele>912.4</ele><time>2026-05-03T07:43:16.004Z</time></trkpt><trkpt lat="43.7811398" lon="11.5795247"><ele>913.8</ele><time>2026-05-03T07:43:17.004Z</time></trkpt><trkpt lat="43.7810428" lon="11.5795929"><ele>915.1999999999999</ele><time>2026-05-03T07:43:18.003Z</time></trkpt><trkpt lat="43.780932" lon="11.5796415"><ele>916.5999999999999</ele><time>2026-05-03T07:43:19.004Z</time></trkpt><trkpt lat="43.7808356" lon="11.5796898"><ele>918.0</ele><time>2026-05-03T07:43:20.003Z</time></trkpt><trkpt lat="43.7807399" lon="11.5797588"><ele>918.0</ele><time>2026-05-03T07:43:21.003Z</time></trkpt><trkpt lat="43.7806354" lon="11.5798184"><ele>918.0</ele><time>2026-05-03T07:43:22.004Z</time></trkpt><trkpt lat="43.7805589" lon="11.5798559"><ele>918.0</ele><time>2026-05-03T07:43:23.004Z</time></trkpt><trkpt lat="43.7804947" lon="11.579873"><ele>918.0</ele><time>2026-05-03T07:43:24.003Z</time></trkpt><trkpt lat="43.7803806" lon="11.5798442"><ele>918.0</ele><time>2026-05-03T07:43:25.003Z</time></trkpt><trkpt lat="43.7802883" lon="11.5798381"><ele>918.0</ele><time>2026-05-03T07:43:26.004Z</time></trkpt><trkpt lat="43.7801939" lon="11.5797895"><ele>918.0</ele><time>2026-05-03T07:43:27.002Z</time></trkpt><trkpt lat="43.7800873" lon="11.5797503"><ele>918.0</ele><time>2026-05-03T07:43:28.004Z</time></trkpt><trkpt lat="43.7800133" lon="11.5796955"><ele>918.0</ele><time>2026-05-03T07:43:29.004Z</time></trkpt><trkpt lat="43.7798997" lon="11.5796691"><ele>918.0</ele><time>2026-05-03T07:43:30.003Z</time></trkpt><trkpt lat="43.7797985" lon="11.5796428"><ele>919.2</ele><time>2026-05-03T07:43:31.002Z</time></trkpt><trkpt lat="43.7796859" lon="11.5796015"><ele>920.4</ele><time>2026-05-03T07:43:32.004Z</time></trkpt><trkpt lat="43.7795983" lon="11.5795693"><ele>921.6000000000001</ele><time>2026-05-03T07:43:33.004Z</time></trkpt><trkpt lat="43.7795213" lon="11.5795682"><ele>922.8000000000001</ele><time>2026-05-03T07:43:34.004Z</time></trkpt><trkpt lat="43.7794247" lon="11.579584"><ele>924.0</ele><time>2026-05-03T07:43:35.003Z</time></trkpt><trkpt lat="43.7793194" lon="11.5796035"><ele>924.8000000000001</ele><time>2026-05-03T07:43:36.003Z</time></trkpt><trkpt lat="43.7791996" lon="11.5796021"><ele>925.6000000000001</ele><time>2026-05-03T07:43:37.004Z</time></trkpt><trkpt lat="43.7790767" lon="11.5796301"><ele>926.4</ele><time>2026-05-03T07:43:38.004Z</time></trkpt><trkpt lat="43.7789737" lon="11.5796547"><ele>927.2</ele><time>2026-05-03T07:43:39.003Z</time></trkpt><trkpt lat="43.7788874" lon="11.5796784"><ele>928.0</ele><time>2026-05-03T07:43:40.002Z</time></trkpt><trkpt lat="43.7787938" lon="11.5797141"><ele>927.9999999999999</ele><time>2026-05-03T07:43:41.004Z</time></trkpt><trkpt lat="43.7786991" lon="11.5796978"><ele>928.0</ele><time>2026-05-03T07:43:43.003Z</time></trkpt><trkpt lat="43.7786443" lon="11.5796071"><ele>928.0</ele><time>2026-05-03T07:43:45.003Z</time></trkpt><trkpt lat="43.7786826" lon="11.5794519"><ele>928.0</ele><time>2026-05-03T07:43:47.004Z</time></trkpt><trkpt lat="43.7787194" lon="11.5793588"><ele>927.9999999999999</ele><time>2026-05-03T07:43:48.004Z</time></trkpt><trkpt lat="43.7787476" lon="11.579273"><ele>928.0</ele><time>2026-05-03T07:43:49.003Z</time></trkpt><trkpt lat="43.7787899" lon="11.5791817"><ele>925.9999999999999</ele><time>2026-05-03T07:43:50.004Z</time></trkpt><trkpt lat="43.7788523" lon="11.57907"><ele>924.0</ele><time>2026-05-03T07:43:51.004Z</time></trkpt><trkpt lat="43.7788882" lon="11.5789924"><ele>922.0</ele><time>2026-05-03T07:43:52.004Z</time></trkpt><trkpt lat="43.7789387" lon="11.5789349"><ele>920.0</ele><time>2026-05-03T07:43:54.004Z</time></trkpt><trkpt lat="43.7790163" lon="11.5789044"><ele>917.9999999999999</ele><time>2026-05-03T07:47:13.005Z</time></trkpt><trkpt lat="43.7790713" lon="11.5788305"><ele>916.0</ele><time>2026-05-03T07:47:15.004Z</time></trkpt><trkpt lat="43.7791024" lon="11.5787241"><ele>916.3333333333333</ele><time>2026-05-03T07:47:17.007Z</time></trkpt><trkpt lat="43.7791144" lon="11.5786114"><ele>916.6666666666666</ele><time>2026-05-03T07:47:18.005Z</time></trkpt><trkpt lat="43.7791151" lon="11.5784848"><ele>917.0</ele><time>2026-05-03T07:47:20.004Z</time></trkpt><trkpt lat="43.7791044" lon="11.5783449"><ele>917.3333333333333</ele><time>2026-05-03T07:47:23.005Z</time></trkpt><trkpt lat="43.7791039" lon="11.5782407"><ele>917.6666666666666</ele><time>2026-05-03T07:47:25.005Z</time></trkpt><trkpt lat="43.7791072" lon="11.578139"><ele>918.0</ele><time>2026-05-03T07:47:29.004Z</time></trkpt><trkpt lat="43.7791384" lon="11.5780602"><ele>918.0</ele><time>2026-05-03T07:47:33.004Z</time></trkpt><trkpt lat="43.7792413" lon="11.5780445"><ele>918.0</ele><time>2026-05-03T07:47:36.004Z</time></trkpt><trkpt lat="43.7793003" lon="11.5780105"><ele>918.0</ele><time>2026-05-03T07:47:38.005Z</time></trkpt><trkpt lat="43.7793663" lon="11.577923"><ele>918.0</ele><time>2026-05-03T07:47:40.005Z</time></trkpt><trkpt lat="43.7794456" lon="11.5778482"><ele>918.0</ele><time>2026-05-03T07:47:42.004Z</time></trkpt><trkpt lat="43.7795314" lon="11.5777758"><ele>916.0</ele><time>2026-05-03T07:47:44.004Z</time></trkpt><trkpt lat="43.7796167" lon="11.5776964"><ele>914.0</ele><time>2026-05-03T07:47:46.005Z</time></trkpt><trkpt lat="43.7797118" lon="11.5775994"><ele>912.0</ele><time>2026-05-03T07:47:48.005Z</time></trkpt><trkpt lat="43.7798015" lon="11.5774908"><ele>910.0</ele><time>2026-05-03T07:47:50.004Z</time></trkpt><trkpt lat="43.7798541" lon="11.5774331"><ele>908.0</ele><time>2026-05-03T07:47:51.005Z</time></trkpt><trkpt lat="43.7799426" lon="11.5773312"><ele>908.0</ele><time>2026-05-03T07:47:53.005Z</time></trkpt><trkpt lat="43.7799965" lon="11.5772717"><ele>908.0000000000001</ele><time>2026-05-03T07:47:54.005Z</time></trkpt><trkpt lat="43.7800586" lon="11.577205"><ele>908.0</ele><time>2026-05-03T07:47:55.004Z</time></trkpt><trkpt lat="43.7801096" lon="11.5771462"><ele>908.0</ele><time>2026-05-03T07:47:56.005Z</time></trkpt><trkpt lat="43.7801609" lon="11.5770873"><ele>908.0000000000001</ele><time>2026-05-03T07:47:57.005Z</time></trkpt><trkpt lat="43.7802182" lon="11.5770286"><ele>908.0</ele><time>2026-05-03T07:47:58.005Z</time></trkpt><trkpt lat="43.7802712" lon="11.5769718"><ele>908.0</ele><time>2026-05-03T07:47:59.004Z</time></trkpt><trkpt lat="43.7803707" lon="11.5768703"><ele>904.6666666666667</ele><time>2026-05-03T07:48:01.004Z</time></trkpt><trkpt lat="43.7804547" lon="11.5767729"><ele>901.3333333333334</ele><time>2026-05-03T07:48:03.004Z</time></trkpt><trkpt lat="43.7805123" lon="11.5767197"><ele>898.0</ele><time>2026-05-03T07:48:07.005Z</time></trkpt><trkpt lat="43.7805566" lon="11.576655"><ele>894.6666666666667</ele><time>2026-05-03T07:48:10.005Z</time></trkpt><trkpt lat="43.7805976" lon="11.5765696"><ele>891.3333333333334</ele><time>2026-05-03T07:48:13.005Z</time></trkpt><trkpt lat="43.7806342" lon="11.5764837"><ele>888.0</ele><time>2026-05-03T07:48:15.005Z</time></trkpt><trkpt lat="43.7806839" lon="11.5763845"><ele>888.0</ele><time>2026-05-03T07:48:17.005Z</time></trkpt><trkpt lat="43.7807407" lon="11.5762991"><ele>888.0</ele><time>2026-05-03T07:48:19.005Z</time></trkpt><trkpt lat="43.7808176" lon="11.5762321"><ele>888.0</ele><time>2026-05-03T07:48:22.005Z</time></trkpt><trkpt lat="43.7808803" lon="11.5761865"><ele>888.0</ele><time>2026-05-03T07:48:24.005Z</time></trkpt><trkpt lat="43.7809606" lon="11.576131"><ele>888.0</ele><time>2026-05-03T07:48:26.005Z</time></trkpt><trkpt lat="43.781056" lon="11.5760531"><ele>888.0</ele><time>2026-05-03T07:48:28.004Z</time></trkpt><trkpt lat="43.7811215" lon="11.576002"><ele>884.5</ele><time>2026-05-03T07:48:29.005Z</time></trkpt><trkpt lat="43.7811837" lon="11.5759412"><ele>881.0</ele><time>2026-05-03T07:48:30.005Z</time></trkpt><trkpt lat="43.7812357" lon="11.5758884"><ele>877.5</ele><time>2026-05-03T07:48:31.005Z</time></trkpt><trkpt lat="43.7812894" lon="11.5758357"><ele>874.0</ele><time>2026-05-03T07:48:32.005Z</time></trkpt><trkpt lat="43.7813946" lon="11.5757302"><ele>870.5</ele><time>2026-05-03T07:48:34.005Z</time></trkpt><trkpt lat="43.7814631" lon="11.5756314"><ele>867.0</ele><time>2026-05-03T07:48:36.005Z</time></trkpt><trkpt lat="43.7815278" lon="11.5755296"><ele>867.0</ele><time>2026-05-03T07:48:38.005Z</time></trkpt><trkpt lat="43.7815582" lon="11.5753754"><ele>867.0</ele><time>2026-05-03T07:48:40.005Z</time></trkpt><trkpt lat="43.7815174" lon="11.5752264"><ele>867.0</ele><time>2026-05-03T07:48:42.004Z</time></trkpt><trkpt lat="43.7814523" lon="11.5750812"><ele>867.0</ele><time>2026-05-03T07:48:44.004Z</time></trkpt><trkpt lat="43.7814496" lon="11.5749856"><ele>867.0</ele><time>2026-05-03T07:48:45.005Z</time></trkpt><trkpt lat="43.7814819" lon="11.5748303"><ele>866.0</ele><time>2026-05-03T07:48:47.004Z</time></trkpt><trkpt lat="43.781486" lon="11.5746948"><ele>865.0</ele><time>2026-05-03T07:48:49.004Z</time></trkpt><trkpt lat="43.7814689" lon="11.5745926"><ele>864.0</ele><time>2026-05-03T07:48:50.003Z</time></trkpt><trkpt lat="43.7814319" lon="11.5744567"><ele>863.0</ele><time>2026-05-03T07:48:51.004Z</time></trkpt><trkpt lat="43.7814119" lon="11.5743727"><ele>862.0</ele><time>2026-05-03T07:48:52.005Z</time></trkpt><trkpt lat="43.7813817" lon="11.5742856"><ele>861.0</ele><time>2026-05-03T07:48:53.005Z</time></trkpt><trkpt lat="43.7813659" lon="11.5741843"><ele>860.1666666666666</ele><time>2026-05-03T07:48:54.005Z</time></trkpt><trkpt lat="43.7813439" lon="11.5740762"><ele>859.3333333333333</ele><time>2026-05-03T07:48:55.004Z</time></trkpt><trkpt lat="43.7813288" lon="11.5739614"><ele>858.5</ele><time>2026-05-03T07:48:56.005Z</time></trkpt><trkpt lat="43.7813087" lon="11.5738589"><ele>857.6666666666666</ele><time>2026-05-03T07:48:57.005Z</time></trkpt><trkpt lat="43.7812932" lon="11.573765"><ele>856.8333333333333</ele><time>2026-05-03T07:48:58.005Z</time></trkpt><trkpt lat="43.7812797" lon="11.5736793"><ele>856.0</ele><time>2026-05-03T07:48:59.005Z</time></trkpt><trkpt lat="43.7812376" lon="11.573537"><ele>855.9999999999999</ele><time>2026-05-03T07:49:01.005Z</time></trkpt><trkpt lat="43.7812198" lon="11.5734499"><ele>856.0</ele><time>2026-05-03T07:49:03.005Z</time></trkpt><trkpt lat="43.7812157" lon="11.5733533"><ele>856.0</ele><time>2026-05-03T07:49:13.005Z</time></trkpt><trkpt lat="43.7812763" lon="11.5732695"><ele>856.0</ele><time>2026-05-03T07:49:16.004Z</time></trkpt><trkpt lat="43.7813654" lon="11.5731618"><ele>855.9999999999999</ele><time>2026-05-03T07:49:18.004Z</time></trkpt><trkpt lat="43.7814138" lon="11.5730965"><ele>856.0</ele><time>2026-05-03T07:49:19.004Z</time></trkpt><trkpt lat="43.781468" lon="11.5730279"><ele>855.9999999999999</ele><time>2026-05-03T07:49:20.005Z</time></trkpt><trkpt lat="43.7815179" lon="11.5729583"><ele>856.0</ele><time>2026-05-03T07:49:21.004Z</time></trkpt><trkpt lat="43.7815638" lon="11.5728629"><ele>856.0</ele><time>2026-05-03T07:49:22.005Z</time></trkpt><trkpt lat="43.7815993" lon="11.5727688"><ele>856.0</ele><time>2026-05-03T07:49:23.004Z</time></trkpt><trkpt lat="43.7816237" lon="11.5726801"><ele>855.9999999999999</ele><time>2026-05-03T07:49:24.004Z</time></trkpt><trkpt lat="43.7816432" lon="11.5725815"><ele>856.0</ele><time>2026-05-03T07:49:25.005Z</time></trkpt><trkpt lat="43.7816705" lon="11.5724742"><ele>856.1666666666666</ele><time>2026-05-03T07:49:26.005Z</time></trkpt><trkpt lat="43.7817107" lon="11.5723721"><ele>856.3333333333333</ele><time>2026-05-03T07:49:27.005Z</time></trkpt><trkpt lat="43.7817499" lon="11.5722729"><ele>856.5</ele><time>2026-05-03T07:49:28.005Z</time></trkpt><trkpt lat="43.7817881" lon="11.5721747"><ele>856.6666666666667</ele><time>2026-05-03T07:49:29.004Z</time></trkpt><trkpt lat="43.7818313" lon="11.5720709"><ele>856.8333333333334</ele><time>2026-05-03T07:49:30.005Z</time></trkpt><trkpt lat="43.7818689" lon="11.571954"><ele>857.0</ele><time>2026-05-03T07:49:31.005Z</time></trkpt><trkpt lat="43.7819088" lon="11.5718421"><ele>853.0</ele><time>2026-05-03T07:49:32.005Z</time></trkpt><trkpt lat="43.7819474" lon="11.5717278"><ele>849.0</ele><time>2026-05-03T07:49:33.005Z</time></trkpt><trkpt lat="43.7819784" lon="11.5716269"><ele>845.0</ele><time>2026-05-03T07:49:34.005Z</time></trkpt><trkpt lat="43.7820058" lon="11.5715338"><ele>841.0</ele><time>2026-05-03T07:49:35.004Z</time></trkpt><trkpt lat="43.7820221" lon="11.5714431"><ele>837.0</ele><time>2026-05-03T07:49:36.005Z</time></trkpt><trkpt lat="43.7820187" lon="11.571349"><ele>833.0</ele><time>2026-05-03T07:49:37.005Z</time></trkpt><trkpt lat="43.7820041" lon="11.5712552"><ele>829.0</ele><time>2026-05-03T07:49:38.005Z</time></trkpt><trkpt lat="43.7819893" lon="11.5711497"><ele>827.4999999999999</ele><time>2026-05-03T07:49:39.004Z</time></trkpt><trkpt lat="43.7819386" lon="11.5710424"><ele>826.0</ele><time>2026-05-03T07:49:40.005Z</time></trkpt><trkpt lat="43.7819027" lon="11.5709327"><ele>824.5</ele><time>2026-05-03T07:49:41.004Z</time></trkpt><trkpt lat="43.781891" lon="11.5708338"><ele>823.0</ele><time>2026-05-03T07:49:42.004Z</time></trkpt><trkpt lat="43.7819009" lon="11.5707382"><ele>821.4999999999999</ele><time>2026-05-03T07:49:43.004Z</time></trkpt><trkpt lat="43.7819263" lon="11.570571"><ele>820.0</ele><time>2026-05-03T07:49:45.004Z</time></trkpt><trkpt lat="43.7819443" lon="11.5704246"><ele>818.3333333333333</ele><time>2026-05-03T07:49:47.005Z</time></trkpt><trkpt lat="43.7819532" lon="11.5703365"><ele>816.6666666666666</ele><time>2026-05-03T07:49:48.005Z</time></trkpt><trkpt lat="43.7819523" lon="11.5702302"><ele>815.0</ele><time>2026-05-03T07:49:49.004Z</time></trkpt><trkpt lat="43.7819406" lon="11.5701246"><ele>813.3333333333333</ele><time>2026-05-03T07:49:50.005Z</time></trkpt><trkpt lat="43.7819262" lon="11.5700186"><ele>811.6666666666666</ele><time>2026-05-03T07:49:51.004Z</time></trkpt><trkpt lat="43.7819312" lon="11.5699107"><ele>810.0</ele><time>2026-05-03T07:49:52.005Z</time></trkpt><trkpt lat="43.781932" lon="11.5697953"><ele>810.0</ele><time>2026-05-03T07:49:53.005Z</time></trkpt><trkpt lat="43.7819372" lon="11.5696866"><ele>810.0</ele><time>2026-05-03T07:49:54.004Z</time></trkpt><trkpt lat="43.7819431" lon="11.5695343"><ele>810.0</ele><time>2026-05-03T07:49:56.005Z</time></trkpt><trkpt lat="43.781942" lon="11.5694167"><ele>810.0</ele><time>2026-05-03T07:50:19.005Z</time></trkpt><trkpt lat="43.7819303" lon="11.5695356"><ele>810.0</ele><time>2026-05-03T07:50:53.005Z</time></trkpt><trkpt lat="43.7819415" lon="11.5697032"><ele>810.0</ele><time>2026-05-03T07:50:54.004Z</time></trkpt><trkpt lat="43.7819379" lon="11.5698458"><ele>810.0</ele><time>2026-05-03T07:50:55.004Z</time></trkpt><trkpt lat="43.781939" lon="11.5699788"><ele>810.0</ele><time>2026-05-03T07:50:56.005Z</time></trkpt><trkpt lat="43.7819496" lon="11.5700951"><ele>810.0</ele><time>2026-05-03T07:50:57.004Z</time></trkpt><trkpt lat="43.781961" lon="11.5702288"><ele>810.0</ele><time>2026-05-03T07:50:58.005Z</time></trkpt><trkpt lat="43.781964" lon="11.5703803"><ele>812.0</ele><time>2026-05-03T07:50:59.005Z</time></trkpt><trkpt lat="43.7819471" lon="11.5705148"><ele>814.0</ele><time>2026-05-03T07:51:00.005Z</time></trkpt><trkpt lat="43.7819261" lon="11.570649"><ele>816.0</ele><time>2026-05-03T07:51:01.005Z</time></trkpt><trkpt lat="43.7819037" lon="11.5707834"><ele>818.0</ele><time>2026-05-03T07:51:02.005Z</time></trkpt><trkpt lat="43.7819035" lon="11.5708974"><ele>820.0</ele><time>2026-05-03T07:51:03.003Z</time></trkpt><trkpt lat="43.781918" lon="11.5709985"><ele>819.9999999999999</ele><time>2026-05-03T07:51:04.004Z</time></trkpt><trkpt lat="43.7819523" lon="11.5711079"><ele>820.0</ele><time>2026-05-03T07:51:05.004Z</time></trkpt><trkpt lat="43.7819959" lon="11.5712178"><ele>820.0</ele><time>2026-05-03T07:51:06.004Z</time></trkpt><trkpt lat="43.7820313" lon="11.5713239"><ele>820.0</ele><time>2026-05-03T07:51:07.005Z</time></trkpt><trkpt lat="43.7820333" lon="11.571428"><ele>819.9999999999999</ele><time>2026-05-03T07:51:08.005Z</time></trkpt><trkpt lat="43.7820109" lon="11.5715219"><ele>820.0</ele><time>2026-05-03T07:51:09.005Z</time></trkpt><trkpt lat="43.7819679" lon="11.5716337"><ele>821.8</ele><time>2026-05-03T07:51:10.004Z</time></trkpt><trkpt lat="43.7819137" lon="11.5717766"><ele>823.6</ele><time>2026-05-03T07:51:11.005Z</time></trkpt><trkpt lat="43.7818551" lon="11.5719386"><ele>825.4000000000001</ele><time>2026-05-03T07:51:12.004Z</time></trkpt><trkpt lat="43.7818164" lon="11.5720719"><ele>827.2</ele><time>2026-05-03T07:51:13.005Z</time></trkpt><trkpt lat="43.7817809" lon="11.5721797"><ele>829.0</ele><time>2026-05-03T07:51:14.005Z</time></trkpt><trkpt lat="43.7817267" lon="11.5723064"><ele>834.4000000000001</ele><time>2026-05-03T07:51:15.004Z</time></trkpt><trkpt lat="43.7816651" lon="11.5724602"><ele>839.8</ele><time>2026-05-03T07:51:16.005Z</time></trkpt><trkpt lat="43.7816245" lon="11.5726078"><ele>845.1999999999999</ele><time>2026-05-03T07:51:17.005Z</time></trkpt><trkpt lat="43.781595" lon="11.5727312"><ele>850.5999999999999</ele><time>2026-05-03T07:51:18.004Z</time></trkpt><trkpt lat="43.7815716" lon="11.5728487"><ele>856.0</ele><time>2026-05-03T07:51:19.005Z</time></trkpt><trkpt lat="43.7815274" lon="11.5729647"><ele>855.9999999999999</ele><time>2026-05-03T07:51:20.005Z</time></trkpt><trkpt lat="43.7814656" lon="11.5730575"><ele>856.0</ele><time>2026-05-03T07:51:21.004Z</time></trkpt><trkpt lat="43.7813968" lon="11.5731462"><ele>856.0</ele><time>2026-05-03T07:51:22.005Z</time></trkpt><trkpt lat="43.7813214" lon="11.5732331"><ele>856.0</ele><time>2026-05-03T07:51:23.005Z</time></trkpt><trkpt lat="43.781264" lon="11.5733034"><ele>855.9999999999999</ele><time>2026-05-03T07:51:24.005Z</time></trkpt><trkpt lat="43.7811925" lon="11.5733682"><ele>856.0</ele><time>2026-05-03T07:51:26.005Z</time></trkpt><trkpt lat="43.7811271" lon="11.5733923"><ele>856.0</ele><time>2026-05-03T07:51:42.005Z</time></trkpt><trkpt lat="43.7810798" lon="11.5733314"><ele>855.9999999999999</ele><time>2026-05-03T07:51:44.004Z</time></trkpt><trkpt lat="43.7810429" lon="11.5731973"><ele>855.9999999999999</ele><time>2026-05-03T07:51:46.004Z</time></trkpt><trkpt lat="43.7810073" lon="11.5730117"><ele>856.0</ele><time>2026-05-03T07:51:48.005Z</time></trkpt><trkpt lat="43.7810096" lon="11.5728961"><ele>856.0</ele><time>2026-05-03T07:51:49.004Z</time></trkpt><trkpt lat="43.781015" lon="11.5727918"><ele>858.4</ele><time>2026-05-03T07:51:50.005Z</time></trkpt><trkpt lat="43.7809687" lon="11.5727205"><ele>860.8</ele><time>2026-05-03T07:51:51.005Z</time></trkpt><trkpt lat="43.7808696" lon="11.5726316"><ele>863.1999999999999</ele><time>2026-05-03T07:51:53.004Z</time></trkpt><trkpt lat="43.7807415" lon="11.5725958"><ele>865.5999999999999</ele><time>2026-05-03T07:51:55.004Z</time></trkpt><trkpt lat="43.7806841" lon="11.5726542"><ele>868.0</ele><time>2026-05-03T07:51:56.005Z</time></trkpt><trkpt lat="43.7806092" lon="11.5727098"><ele>867.9999999999999</ele><time>2026-05-03T07:51:57.004Z</time></trkpt><trkpt lat="43.7805384" lon="11.5727493"><ele>868.0</ele><time>2026-05-03T07:51:58.005Z</time></trkpt><trkpt lat="43.7804727" lon="11.5727798"><ele>868.0</ele><time>2026-05-03T07:51:59.005Z</time></trkpt><trkpt lat="43.7804167" lon="11.5728333"><ele>868.0</ele><time>2026-05-03T07:52:00.004Z</time></trkpt><trkpt lat="43.7803521" lon="11.5728943"><ele>867.9999999999999</ele><time>2026-05-03T07:52:01.004Z</time></trkpt><trkpt lat="43.7802785" lon="11.572957"><ele>868.0</ele><time>2026-05-03T07:52:02.004Z</time></trkpt><trkpt lat="43.7802083" lon="11.573028"><ele>872.2</ele><time>2026-05-03T07:52:03.005Z</time></trkpt><trkpt lat="43.7801313" lon="11.5730962"><ele>876.4</ele><time>2026-05-03T07:52:04.003Z</time></trkpt><trkpt lat="43.7800752" lon="11.5731828"><ele>880.6000000000001</ele><time>2026-05-03T07:52:05.004Z</time></trkpt><trkpt lat="43.7800118" lon="11.5732928"><ele>884.8000000000001</ele><time>2026-05-03T07:52:06.005Z</time></trkpt><trkpt lat="43.7799302" lon="11.5734051"><ele>889.0</ele><time>2026-05-03T07:52:07.004Z</time></trkpt><trkpt lat="43.7798592" lon="11.5735045"><ele>888.9999999999999</ele><time>2026-05-03T07:52:08.005Z</time></trkpt><trkpt lat="43.7797958" lon="11.573607"><ele>889.0</ele><time>2026-05-03T07:52:09.004Z</time></trkpt><trkpt lat="43.7797584" lon="11.5737026"><ele>889.0</ele><time>2026-05-03T07:52:10.005Z</time></trkpt><trkpt lat="43.779722" lon="11.5737964"><ele>889.0</ele><time>2026-05-03T07:52:11.004Z</time></trkpt><trkpt lat="43.7797046" lon="11.5738992"><ele>888.9999999999999</ele><time>2026-05-03T07:52:12.005Z</time></trkpt><trkpt lat="43.7796917" lon="11.5740062"><ele>889.0</ele><time>2026-05-03T07:52:13.004Z</time></trkpt><trkpt lat="43.7796871" lon="11.574135"><ele>889.6</ele><time>2026-05-03T07:52:14.005Z</time></trkpt><trkpt lat="43.7797013" lon="11.5742855"><ele>890.2</ele><time>2026-05-03T07:52:15.004Z</time></trkpt><trkpt lat="43.7797718" lon="11.5744076"><ele>890.8000000000001</ele><time>2026-05-03T07:52:16.005Z</time></trkpt><trkpt lat="43.7797678" lon="11.5745978"><ele>891.4000000000001</ele><time>2026-05-03T07:52:18.004Z</time></trkpt><trkpt lat="43.7797595" lon="11.5747077"><ele>892.0</ele><time>2026-05-03T07:52:19.004Z</time></trkpt><trkpt lat="43.7797532" lon="11.5748228"><ele>892.3333333333333</ele><time>2026-05-03T07:52:20.005Z</time></trkpt><trkpt lat="43.7797535" lon="11.574956"><ele>892.6666666666666</ele><time>2026-05-03T07:52:21.005Z</time></trkpt><trkpt lat="43.7797605" lon="11.5750878"><ele>893.0</ele><time>2026-05-03T07:52:22.004Z</time></trkpt><trkpt lat="43.7797558" lon="11.5752067"><ele>893.3333333333333</ele><time>2026-05-03T07:52:23.005Z</time></trkpt><trkpt lat="43.7797445" lon="11.575325"><ele>893.6666666666666</ele><time>2026-05-03T07:52:24.005Z</time></trkpt><trkpt lat="43.7797345" lon="11.5754399"><ele>894.0</ele><time>2026-05-03T07:52:25.004Z</time></trkpt><trkpt lat="43.7797268" lon="11.5755602"><ele>895.1666666666666</ele><time>2026-05-03T07:52:26.004Z</time></trkpt><trkpt lat="43.7797077" lon="11.5756779"><ele>896.3333333333333</ele><time>2026-05-03T07:52:27.004Z</time></trkpt><trkpt lat="43.7796744" lon="11.575795"><ele>897.5</ele><time>2026-05-03T07:52:28.005Z</time></trkpt><trkpt lat="43.7796433" lon="11.5759213"><ele>898.6666666666666</ele><time>2026-05-03T07:52:29.004Z</time></trkpt><trkpt lat="43.7796088" lon="11.5760355"><ele>899.8333333333333</ele><time>2026-05-03T07:52:30.005Z</time></trkpt><trkpt lat="43.779565" lon="11.5761135"><ele>901.0</ele><time>2026-05-03T07:52:31.004Z</time></trkpt><trkpt lat="43.7795127" lon="11.5762053"><ele>901.8333333333333</ele><time>2026-05-03T07:52:33.005Z</time></trkpt><trkpt lat="43.7794834" lon="11.5762844"><ele>902.6666666666666</ele><time>2026-05-03T07:52:35.004Z</time></trkpt><trkpt lat="43.7794044" lon="11.576401"><ele>903.5</ele><time>2026-05-03T07:52:37.005Z</time></trkpt><trkpt lat="43.7793621" lon="11.5764787"><ele>904.3333333333333</ele><time>2026-05-03T07:52:38.005Z</time></trkpt><trkpt lat="43.7793324" lon="11.5765699"><ele>905.1666666666666</ele><time>2026-05-03T07:52:39.004Z</time></trkpt><trkpt lat="43.7793024" lon="11.5766986"><ele>906.0</ele><time>2026-05-03T07:52:40.005Z</time></trkpt><trkpt lat="43.7792781" lon="11.5768072"><ele>907.8</ele><time>2026-05-03T07:52:41.004Z</time></trkpt><trkpt lat="43.7792844" lon="11.5769124"><ele>909.5999999999999</ele><time>2026-05-03T07:52:42.005Z</time></trkpt><trkpt lat="43.7792925" lon="11.5771464"><ele>911.4</ele><time>2026-05-03T07:52:44.004Z</time></trkpt><trkpt lat="43.779293" lon="11.5772777"><ele>913.2</ele><time>2026-05-03T07:52:45.004Z</time></trkpt><trkpt lat="43.7792721" lon="11.5774047"><ele>915.0</ele><time>2026-05-03T07:52:46.005Z</time></trkpt><trkpt lat="43.7792324" lon="11.5775326"><ele>915.4</ele><time>2026-05-03T07:52:47.004Z</time></trkpt><trkpt lat="43.7791872" lon="11.5776281"><ele>915.8</ele><time>2026-05-03T07:52:48.005Z</time></trkpt><trkpt lat="43.7791473" lon="11.5776998"><ele>916.2</ele><time>2026-05-03T07:52:49.005Z</time></trkpt><trkpt lat="43.779052" lon="11.5777941"><ele>916.6</ele><time>2026-05-03T07:52:51.004Z</time></trkpt><trkpt lat="43.7789385" lon="11.5778178"><ele>917.0</ele><time>2026-05-03T07:52:53.005Z</time></trkpt><trkpt lat="43.7788298" lon="11.5778519"><ele>917.0</ele><time>2026-05-03T07:52:55.004Z</time></trkpt><trkpt lat="43.7787235" lon="11.5778923"><ele>917.0</ele><time>2026-05-03T07:52:57.005Z</time></trkpt><trkpt lat="43.7786217" lon="11.5778337"><ele>917.0</ele><time>2026-05-03T07:52:59.005Z</time></trkpt><trkpt lat="43.7785497" lon="11.5777039"><ele>917.0</ele><time>2026-05-03T07:53:01.005Z</time></trkpt><trkpt lat="43.7785229" lon="11.5776096"><ele>917.0</ele><time>2026-05-03T07:53:02.005Z</time></trkpt><trkpt lat="43.7785097" lon="11.5775054"><ele>917.0</ele><time>2026-05-03T07:53:03.004Z</time></trkpt><trkpt lat="43.7785053" lon="11.5773968"><ele>917.0</ele><time>2026-05-03T07:53:04.004Z</time></trkpt><trkpt lat="43.7785247" lon="11.5772758"><ele>917.0</ele><time>2026-05-03T07:53:05.004Z</time></trkpt><trkpt lat="43.7785498" lon="11.5771496"><ele>917.0</ele><time>2026-05-03T07:53:06.005Z</time></trkpt><trkpt lat="43.7785894" lon="11.5770265"><ele>917.0</ele><time>2026-05-03T07:53:07.005Z</time></trkpt><trkpt lat="43.7786177" lon="11.5768985"><ele>916.6666666666667</ele><time>2026-05-03T07:53:08.005Z</time></trkpt><trkpt lat="43.7786364" lon="11.576761"><ele>916.3333333333334</ele><time>2026-05-03T07:53:09.005Z</time></trkpt><trkpt lat="43.7786242" lon="11.5766727"><ele>916.0</ele><time>2026-05-03T07:53:10.004Z</time></trkpt><trkpt lat="43.7786121" lon="11.576576"><ele>915.6666666666667</ele><time>2026-05-03T07:53:11.005Z</time></trkpt><trkpt lat="43.7785929" lon="11.5764527"><ele>915.3333333333334</ele><time>2026-05-03T07:53:12.005Z</time></trkpt><trkpt lat="43.7785937" lon="11.576332"><ele>915.0</ele><time>2026-05-03T07:53:14.004Z</time></trkpt><trkpt lat="43.7785542" lon="11.5762498"><ele>915.0</ele><time>2026-05-03T07:53:18.004Z</time></trkpt><trkpt lat="43.7785394" lon="11.5763642"><ele>915.0</ele><time>2026-05-03T07:53:21.004Z</time></trkpt><trkpt lat="43.7785676" lon="11.5764714"><ele>915.0</ele><time>2026-05-03T07:53:23.004Z</time></trkpt><trkpt lat="43.7785856" lon="11.5765701"><ele>915.0</ele><time>2026-05-03T07:53:24.004Z</time></trkpt><trkpt lat="43.7786035" lon="11.5766574"><ele>915.0</ele><time>2026-05-03T07:53:25.004Z</time></trkpt><trkpt lat="43.778587" lon="11.5767695"><ele>915.0</ele><time>2026-05-03T07:53:26.004Z</time></trkpt><trkpt lat="43.7785675" lon="11.5768873"><ele>915.0</ele><time>2026-05-03T07:53:27.005Z</time></trkpt><trkpt lat="43.7785346" lon="11.5769919"><ele>915.0</ele><time>2026-05-03T07:53:28.004Z</time></trkpt><trkpt lat="43.778508" lon="11.5771026"><ele>915.0</ele><time>2026-05-03T07:53:29.005Z</time></trkpt><trkpt lat="43.7784853" lon="11.5772258"><ele>915.0</ele><time>2026-05-03T07:53:30.004Z</time></trkpt><trkpt lat="43.7784728" lon="11.5773538"><ele>915.0</ele><time>2026-05-03T07:53:31.005Z</time></trkpt><trkpt lat="43.7784893" lon="11.5774891"><ele>915.3333333333334</ele><time>2026-05-03T07:53:32.005Z</time></trkpt><trkpt lat="43.7785234" lon="11.5776195"><ele>915.6666666666667</ele><time>2026-05-03T07:53:33.005Z</time></trkpt><trkpt lat="43.7785609" lon="11.5777491"><ele>916.0</ele><time>2026-05-03T07:53:34.004Z</time></trkpt><trkpt lat="43.7786078" lon="11.5778821"><ele>916.3333333333334</ele><time>2026-05-03T07:53:35.004Z</time></trkpt><trkpt lat="43.7786254" lon="11.5779806"><ele>916.6666666666667</ele><time>2026-05-03T07:53:36.004Z</time></trkpt><trkpt lat="43.7786381" lon="11.5780736"><ele>917.0</ele><time>2026-05-03T07:53:37.005Z</time></trkpt><trkpt lat="43.7786232" lon="11.5781852"><ele>917.2</ele><time>2026-05-03T07:53:39.005Z</time></trkpt><trkpt lat="43.7785461" lon="11.5781492"><ele>917.4000000000001</ele><time>2026-05-03T07:53:42.004Z</time></trkpt><trkpt lat="43.7784776" lon="11.578018"><ele>917.5999999999999</ele><time>2026-05-03T07:53:44.004Z</time></trkpt><trkpt lat="43.7784317" lon="11.5779041"><ele>917.8</ele><time>2026-05-03T07:53:45.005Z</time></trkpt><trkpt lat="43.7783937" lon="11.5778058"><ele>918.0</ele><time>2026-05-03T07:53:46.004Z</time></trkpt><trkpt lat="43.7783475" lon="11.5777069"><ele>919.4</ele><time>2026-05-03T07:53:47.004Z</time></trkpt><trkpt lat="43.7782744" lon="11.5776473"><ele>920.8</ele><time>2026-05-03T07:53:48.004Z</time></trkpt><trkpt lat="43.778144" lon="11.5776748"><ele>922.2</ele><time>2026-05-03T07:53:49.004Z</time></trkpt><trkpt lat="43.7780657" lon="11.5776607"><ele>923.6</ele><time>2026-05-03T07:53:50.003Z</time></trkpt><trkpt lat="43.7779865" lon="11.5776654"><ele>925.0</ele><time>2026-05-03T07:53:51.004Z</time></trkpt><trkpt lat="43.777912" lon="11.5776758"><ele>924.9999999999999</ele><time>2026-05-03T07:53:52.004Z</time></trkpt><trkpt lat="43.7778489" lon="11.5776698"><ele>925.0</ele><time>2026-05-03T07:53:53.004Z</time></trkpt><trkpt lat="43.7777785" lon="11.5776199"><ele>925.0</ele><time>2026-05-03T07:53:55.005Z</time></trkpt><trkpt lat="43.777706" lon="11.5775664"><ele>925.0</ele><time>2026-05-03T07:53:57.005Z</time></trkpt><trkpt lat="43.777706" lon="11.5774307"><ele>924.9999999999999</ele><time>2026-05-03T07:53:59.004Z</time></trkpt><trkpt lat="43.7776897" lon="11.5773249"><ele>925.0</ele><time>2026-05-03T07:54:01.005Z</time></trkpt><trkpt lat="43.7776852" lon="11.5772271"><ele>925.0</ele><time>2026-05-03T07:54:03.005Z</time></trkpt><trkpt lat="43.7777051" lon="11.5770868"><ele>925.0</ele><time>2026-05-03T07:54:05.004Z</time></trkpt><trkpt lat="43.7777289" lon="11.5769418"><ele>925.0</ele><time>2026-05-03T07:54:07.005Z</time></trkpt><trkpt lat="43.7777418" lon="11.5767708"><ele>925.0</ele><time>2026-05-03T07:54:09.005Z</time></trkpt><trkpt lat="43.777765" lon="11.5766743"><ele>925.0</ele><time>2026-05-03T07:54:10.005Z</time></trkpt><trkpt lat="43.7777329" lon="11.5765719"><ele>925.3333333333333</ele><time>2026-05-03T07:54:11.004Z</time></trkpt><trkpt lat="43.7777071" lon="11.5764512"><ele>925.6666666666666</ele><time>2026-05-03T07:54:12.004Z</time></trkpt><trkpt lat="43.7776778" lon="11.5763735"><ele>926.0</ele><time>2026-05-03T07:54:13.004Z</time></trkpt><trkpt lat="43.7776163" lon="11.5762586"><ele>926.3333333333333</ele><time>2026-05-03T07:54:14.004Z</time></trkpt><trkpt lat="43.7775983" lon="11.5761563"><ele>926.6666666666666</ele><time>2026-05-03T07:54:15.005Z</time></trkpt><trkpt lat="43.7775707" lon="11.5760442"><ele>927.0</ele><time>2026-05-03T07:54:16.005Z</time></trkpt><trkpt lat="43.7775354" lon="11.575903"><ele>928.0</ele><time>2026-05-03T07:54:17.005Z</time></trkpt><trkpt lat="43.7775128" lon="11.5757563"><ele>929.0</ele><time>2026-05-03T07:54:18.004Z</time></trkpt><trkpt lat="43.7774807" lon="11.575617"><ele>930.0</ele><time>2026-05-03T07:54:19.005Z</time></trkpt><trkpt lat="43.7774556" lon="11.5754746"><ele>931.0</ele><time>2026-05-03T07:54:20.005Z</time></trkpt><trkpt lat="43.7774288" lon="11.5753459"><ele>932.0</ele><time>2026-05-03T07:54:21.004Z</time></trkpt><trkpt lat="43.7773993" lon="11.5752267"><ele>932.4000000000001</ele><time>2026-05-03T07:54:22.005Z</time></trkpt><trkpt lat="43.7773478" lon="11.5750955"><ele>932.8000000000001</ele><time>2026-05-03T07:54:23.005Z</time></trkpt><trkpt lat="43.7772911" lon="11.5749864"><ele>933.2</ele><time>2026-05-03T07:54:24.005Z</time></trkpt><trkpt lat="43.7772126" lon="11.5748847"><ele>933.6</ele><time>2026-05-03T07:54:25.004Z</time></trkpt><trkpt lat="43.7771307" lon="11.5747826"><ele>934.0</ele><time>2026-05-03T07:54:26.004Z</time></trkpt><trkpt lat="43.7770124" lon="11.5747211"><ele>934.0</ele><time>2026-05-03T07:54:27.005Z</time></trkpt><trkpt lat="43.7768789" lon="11.5745976"><ele>934.0</ele><time>2026-05-03T07:54:28.004Z</time></trkpt><trkpt lat="43.7767538" lon="11.5745001"><ele>934.0</ele><time>2026-05-03T07:54:29.003Z</time></trkpt><trkpt lat="43.7766458" lon="11.5744238"><ele>934.0</ele><time>2026-05-03T07:54:30.003Z</time></trkpt><trkpt lat="43.7765241" lon="11.5743716"><ele>934.75</ele><time>2026-05-03T07:54:31.004Z</time></trkpt><trkpt lat="43.7764126" lon="11.5743109"><ele>935.5</ele><time>2026-05-03T07:54:32.005Z</time></trkpt><trkpt lat="43.7762529" lon="11.5743554"><ele>936.25</ele><time>2026-05-03T07:54:33.005Z</time></trkpt><trkpt lat="43.7761331" lon="11.5743181"><ele>937.0</ele><time>2026-05-03T07:54:34.005Z</time></trkpt><trkpt lat="43.776042" lon="11.5742482"><ele>940.25</ele><time>2026-05-03T07:54:35.005Z</time></trkpt><trkpt lat="43.7759586" lon="11.5741537"><ele>943.5</ele><time>2026-05-03T07:54:36.004Z</time></trkpt><trkpt lat="43.7759081" lon="11.5740247"><ele>946.75</ele><time>2026-05-03T07:54:37.005Z</time></trkpt><trkpt lat="43.7758544" lon="11.5738991"><ele>950.0</ele><time>2026-05-03T07:54:38.004Z</time></trkpt><trkpt lat="43.7758584" lon="11.573698"><ele>948.0</ele><time>2026-05-03T07:54:39.005Z</time></trkpt><trkpt lat="43.7758613" lon="11.5735242"><ele>946.0</ele><time>2026-05-03T07:54:40.005Z</time></trkpt><trkpt lat="43.7758674" lon="11.5733465"><ele>944.0</ele><time>2026-05-03T07:54:41.005Z</time></trkpt><trkpt lat="43.7758859" lon="11.5732116"><ele>942.0</ele><time>2026-05-03T07:54:42.006Z</time></trkpt><trkpt lat="43.7759084" lon="11.5730798"><ele>942.0</ele><time>2026-05-03T07:54:43.005Z</time></trkpt><trkpt lat="43.775927" lon="11.5729465"><ele>942.0</ele><time>2026-05-03T07:54:44.005Z</time></trkpt><trkpt lat="43.7759249" lon="11.5728106"><ele>942.0</ele><time>2026-05-03T07:54:45.005Z</time></trkpt><trkpt lat="43.7758613" lon="11.5726779"><ele>942.0</ele><time>2026-05-03T07:54:46.006Z</time></trkpt><trkpt lat="43.7758224" lon="11.5725582"><ele>942.0</ele><time>2026-05-03T07:54:47.006Z</time></trkpt><trkpt lat="43.7757413" lon="11.5724389"><ele>940.5</ele><time>2026-05-03T07:54:48.006Z</time></trkpt><trkpt lat="43.7756806" lon="11.5723376"><ele>939.0</ele><time>2026-05-03T07:54:49.005Z</time></trkpt><trkpt lat="43.7756403" lon="11.5722506"><ele>937.5</ele><time>2026-05-03T07:54:50.005Z</time></trkpt><trkpt lat="43.7755863" lon="11.5721153"><ele>936.0</ele><time>2026-05-03T07:54:52.005Z</time></trkpt><trkpt lat="43.7755901" lon="11.5720183"><ele>934.5</ele><time>2026-05-03T07:54:54.006Z</time></trkpt><trkpt lat="43.7756381" lon="11.571913"><ele>933.0</ele><time>2026-05-03T07:54:56.006Z</time></trkpt><trkpt lat="43.7757048" lon="11.5717834"><ele>931.4</ele><time>2026-05-03T07:54:58.006Z</time></trkpt><trkpt lat="43.7757731" lon="11.5716324"><ele>929.8</ele><time>2026-05-03T07:55:00.005Z</time></trkpt><trkpt lat="43.7758114" lon="11.5715571"><ele>928.2</ele><time>2026-05-03T07:55:01.006Z</time></trkpt><trkpt lat="43.7758784" lon="11.5713923"><ele>926.6</ele><time>2026-05-03T07:55:02.006Z</time></trkpt><trkpt lat="43.7759312" lon="11.5712688"><ele>925.0</ele><time>2026-05-03T07:55:03.006Z</time></trkpt><trkpt lat="43.7759882" lon="11.5711306"><ele>921.6</ele><time>2026-05-03T07:55:04.006Z</time></trkpt><trkpt lat="43.7760583" lon="11.5710007"><ele>918.2</ele><time>2026-05-03T07:55:05.006Z</time></trkpt><trkpt lat="43.7761156" lon="11.5708732"><ele>914.8</ele><time>2026-05-03T07:55:06.006Z</time></trkpt><trkpt lat="43.776142" lon="11.5707544"><ele>911.4</ele><time>2026-05-03T07:55:07.006Z</time></trkpt><trkpt lat="43.7761712" lon="11.5706246"><ele>908.0</ele><time>2026-05-03T07:55:08.006Z</time></trkpt><trkpt lat="43.77619" lon="11.5704978"><ele>908.0</ele><time>2026-05-03T07:55:09.006Z</time></trkpt><trkpt lat="43.7761865" lon="11.5703524"><ele>908.0</ele><time>2026-05-03T07:55:10.006Z</time></trkpt><trkpt lat="43.7760877" lon="11.570232"><ele>908.0</ele><time>2026-05-03T07:55:11.005Z</time></trkpt><trkpt lat="43.7760081" lon="11.570071"><ele>908.0</ele><time>2026-05-03T07:55:12.005Z</time></trkpt><trkpt lat="43.7759241" lon="11.569926"><ele>909.0</ele><time>2026-05-03T07:55:13.006Z</time></trkpt><trkpt lat="43.7758544" lon="11.5697912"><ele>910.0</ele><time>2026-05-03T07:55:14.005Z</time></trkpt><trkpt lat="43.7757911" lon="11.5696652"><ele>911.0</ele><time>2026-05-03T07:55:15.006Z</time></trkpt><trkpt lat="43.775744" lon="11.5695394"><ele>912.0</ele><time>2026-05-03T07:55:16.006Z</time></trkpt><trkpt lat="43.7757188" lon="11.569415"><ele>913.0</ele><time>2026-05-03T07:55:17.005Z</time></trkpt><trkpt lat="43.7756994" lon="11.5692809"><ele>912.8</ele><time>2026-05-03T07:55:18.005Z</time></trkpt><trkpt lat="43.7757118" lon="11.5691794"><ele>912.5999999999999</ele><time>2026-05-03T07:55:19.005Z</time></trkpt><trkpt lat="43.7757164" lon="11.5690668"><ele>912.4000000000001</ele><time>2026-05-03T07:55:20.005Z</time></trkpt><trkpt lat="43.7757644" lon="11.5689609"><ele>912.2</ele><time>2026-05-03T07:55:21.006Z</time></trkpt><trkpt lat="43.7758126" lon="11.568813"><ele>912.0</ele><time>2026-05-03T07:55:22.005Z</time></trkpt><trkpt lat="43.7758479" lon="11.5686841"><ele>912.0</ele><time>2026-05-03T07:55:23.006Z</time></trkpt><trkpt lat="43.775883" lon="11.5685364"><ele>912.0</ele><time>2026-05-03T07:55:24.005Z</time></trkpt><trkpt lat="43.7759814" lon="11.5683596"><ele>912.0</ele><time>2026-05-03T07:55:25.006Z</time></trkpt><trkpt lat="43.7759746" lon="11.5682351"><ele>912.0</ele><time>2026-05-03T07:55:26.006Z</time></trkpt><trkpt lat="43.7758663" lon="11.5681907"><ele>912.0</ele><time>2026-05-03T07:55:27.006Z</time></trkpt><trkpt lat="43.7757107" lon="11.5682109"><ele>912.0</ele><time>2026-05-03T07:55:28.005Z</time></trkpt><trkpt lat="43.7756157" lon="11.5681562"><ele>912.0</ele><time>2026-05-03T07:55:29.005Z</time></trkpt><trkpt lat="43.7755564" lon="11.5680911"><ele>912.0</ele><time>2026-05-03T07:55:30.006Z</time></trkpt><trkpt lat="43.7755216" lon="11.568005"><ele>912.0</ele><time>2026-05-03T07:55:31.005Z</time></trkpt><trkpt lat="43.7754771" lon="11.5679279"><ele>909.6</ele><time>2026-05-03T07:55:32.006Z</time></trkpt><trkpt lat="43.7754564" lon="11.5678079"><ele>907.2</ele><time>2026-05-03T07:55:33.006Z</time></trkpt><trkpt lat="43.7754244" lon="11.5676549"><ele>904.8</ele><time>2026-05-03T07:55:34.006Z</time></trkpt><trkpt lat="43.7753757" lon="11.5675421"><ele>902.4</ele><time>2026-05-03T07:55:35.005Z</time></trkpt><trkpt lat="43.7752915" lon="11.5674637"><ele>900.0</ele><time>2026-05-03T07:55:36.006Z</time></trkpt><trkpt lat="43.7752144" lon="11.5673908"><ele>903.5</ele><time>2026-05-03T07:55:37.006Z</time></trkpt><trkpt lat="43.7751118" lon="11.5673383"><ele>907.0</ele><time>2026-05-03T07:55:38.006Z</time></trkpt><trkpt lat="43.7749662" lon="11.5672869"><ele>910.5</ele><time>2026-05-03T07:55:39.004Z</time></trkpt><trkpt lat="43.7748404" lon="11.567236"><ele>914.0</ele><time>2026-05-03T07:55:40.006Z</time></trkpt><trkpt lat="43.77471" lon="11.5671886"><ele>914.0</ele><time>2026-05-03T07:55:41.006Z</time></trkpt><trkpt lat="43.7746226" lon="11.5671312"><ele>914.0000000000001</ele><time>2026-05-03T07:55:42.006Z</time></trkpt><trkpt lat="43.7745165" lon="11.567072"><ele>914.0000000000001</ele><time>2026-05-03T07:55:43.006Z</time></trkpt><trkpt lat="43.7743921" lon="11.5669652"><ele>914.0</ele><time>2026-05-03T07:55:45.006Z</time></trkpt><trkpt lat="43.7743159" lon="11.5669293"><ele>914.0</ele><time>2026-05-03T07:55:46.005Z</time></trkpt><trkpt lat="43.7742732" lon="11.5668558"><ele>915.8000000000001</ele><time>2026-05-03T07:55:47.005Z</time></trkpt><trkpt lat="43.7742614" lon="11.5667338"><ele>917.6000000000001</ele><time>2026-05-03T07:55:49.006Z</time></trkpt><trkpt lat="43.7743943" lon="11.5666749"><ele>919.4</ele><time>2026-05-03T07:55:50.006Z</time></trkpt><trkpt lat="43.7744957" lon="11.5666533"><ele>921.2</ele><time>2026-05-03T07:55:52.005Z</time></trkpt><trkpt lat="43.7745809" lon="11.5666483"><ele>923.0</ele><time>2026-05-03T07:55:53.005Z</time></trkpt><trkpt lat="43.7746468" lon="11.5666618"><ele>918.8</ele><time>2026-05-03T07:55:54.004Z</time></trkpt><trkpt lat="43.7747574" lon="11.5666854"><ele>914.5999999999999</ele><time>2026-05-03T07:55:55.006Z</time></trkpt><trkpt lat="43.7748883" lon="11.5666659"><ele>910.4000000000001</ele><time>2026-05-03T07:55:56.006Z</time></trkpt><trkpt lat="43.7749903" lon="11.5666639"><ele>906.2</ele><time>2026-05-03T07:55:57.005Z</time></trkpt><trkpt lat="43.7750808" lon="11.5666497"><ele>902.0</ele><time>2026-05-03T07:55:58.006Z</time></trkpt><trkpt lat="43.7751934" lon="11.5666432"><ele>898.4000000000001</ele><time>2026-05-03T07:55:59.006Z</time></trkpt><trkpt lat="43.7753123" lon="11.5666057"><ele>894.8000000000001</ele><time>2026-05-03T07:56:00.006Z</time></trkpt><trkpt lat="43.7754093" lon="11.5665741"><ele>891.2</ele><time>2026-05-03T07:56:01.006Z</time></trkpt><trkpt lat="43.7754359" lon="11.5664915"><ele>887.6</ele><time>2026-05-03T07:56:02.005Z</time></trkpt><trkpt lat="43.7754933" lon="11.566427"><ele>884.0</ele><time>2026-05-03T07:56:03.006Z</time></trkpt><trkpt lat="43.7755591" lon="11.5663258"><ele>884.0</ele><time>2026-05-03T07:56:04.005Z</time></trkpt><trkpt lat="43.775613" lon="11.5662326"><ele>884.0000000000001</ele><time>2026-05-03T07:56:05.006Z</time></trkpt><trkpt lat="43.7756683" lon="11.5661509"><ele>884.0000000000001</ele><time>2026-05-03T07:56:06.006Z</time></trkpt><trkpt lat="43.7757318" lon="11.5660549"><ele>884.0</ele><time>2026-05-03T07:56:07.006Z</time></trkpt><trkpt lat="43.7757833" lon="11.5658175"><ele>884.0</ele><time>2026-05-03T07:56:08.006Z</time></trkpt><trkpt lat="43.7758326" lon="11.5656594"><ele>883.4000000000001</ele><time>2026-05-03T07:56:09.006Z</time></trkpt><trkpt lat="43.7758623" lon="11.565519"><ele>882.8000000000001</ele><time>2026-05-03T07:56:10.006Z</time></trkpt><trkpt lat="43.7758442" lon="11.56535"><ele>882.1999999999999</ele><time>2026-05-03T07:56:11.006Z</time></trkpt><trkpt lat="43.7758466" lon="11.5652298"><ele>881.5999999999999</ele><time>2026-05-03T07:56:12.004Z</time></trkpt><trkpt lat="43.7758505" lon="11.5651049"><ele>881.0</ele><time>2026-05-03T07:56:13.006Z</time></trkpt><trkpt lat="43.7758252" lon="11.5648906"><ele>881.0</ele><time>2026-05-03T07:56:14.006Z</time></trkpt><trkpt lat="43.7758211" lon="11.5647519"><ele>880.9999999999999</ele><time>2026-05-03T07:56:15.006Z</time></trkpt><trkpt lat="43.7758371" lon="11.564634"><ele>880.9999999999999</ele><time>2026-05-03T07:56:16.005Z</time></trkpt><trkpt lat="43.7758967" lon="11.5645629"><ele>881.0</ele><time>2026-05-03T07:56:18.006Z</time></trkpt><trkpt lat="43.7759836" lon="11.5645403"><ele>881.0</ele><time>2026-05-03T07:56:20.004Z</time></trkpt><trkpt lat="43.7760842" lon="11.5646178"><ele>878.6666666666667</ele><time>2026-05-03T07:56:21.005Z</time></trkpt><trkpt lat="43.7761579" lon="11.5646822"><ele>876.3333333333334</ele><time>2026-05-03T07:56:22.006Z</time></trkpt><trkpt lat="43.7762346" lon="11.5647633"><ele>874.0</ele><time>2026-05-03T07:56:23.006Z</time></trkpt><trkpt lat="43.7763178" lon="11.5648047"><ele>871.6666666666667</ele><time>2026-05-03T07:56:24.005Z</time></trkpt><trkpt lat="43.7763905" lon="11.5648205"><ele>869.3333333333334</ele><time>2026-05-03T07:56:25.006Z</time></trkpt><trkpt lat="43.7764672" lon="11.5648198"><ele>867.0</ele><time>2026-05-03T07:56:26.006Z</time></trkpt><trkpt lat="43.7765626" lon="11.564748"><ele>867.0</ele><time>2026-05-03T07:56:27.006Z</time></trkpt><trkpt lat="43.7766654" lon="11.5646731"><ele>867.0</ele><time>2026-05-03T07:56:28.006Z</time></trkpt><trkpt lat="43.776766" lon="11.5646051"><ele>867.0</ele><time>2026-05-03T07:56:29.005Z</time></trkpt><trkpt lat="43.7768795" lon="11.5645256"><ele>867.0</ele><time>2026-05-03T07:56:30.005Z</time></trkpt><trkpt lat="43.7769993" lon="11.5644587"><ele>866.0</ele><time>2026-05-03T07:56:31.005Z</time></trkpt><trkpt lat="43.7771331" lon="11.5643718"><ele>865.0</ele><time>2026-05-03T07:56:32.006Z</time></trkpt><trkpt lat="43.7772572" lon="11.5642292"><ele>864.0</ele><time>2026-05-03T07:56:33.006Z</time></trkpt><trkpt lat="43.7773595" lon="11.5640969"><ele>863.0</ele><time>2026-05-03T07:56:34.006Z</time></trkpt><trkpt lat="43.7774345" lon="11.5639772"><ele>863.0</ele><time>2026-05-03T07:56:35.006Z</time></trkpt><trkpt lat="43.7775339" lon="11.5638599"><ele>863.0</ele><time>2026-05-03T07:56:36.006Z</time></trkpt><trkpt lat="43.7776449" lon="11.5637245"><ele>863.0</ele><time>2026-05-03T07:56:37.005Z</time></trkpt><trkpt lat="43.7776734" lon="11.5636128"><ele>863.0</ele><time>2026-05-03T07:56:38.005Z</time></trkpt><trkpt lat="43.7777236" lon="11.563526"><ele>863.0</ele><time>2026-05-03T07:56:39.004Z</time></trkpt><trkpt lat="43.7777548" lon="11.5634337"><ele>861.0</ele><time>2026-05-03T07:56:40.006Z</time></trkpt><trkpt lat="43.7778457" lon="11.5632971"><ele>859.0</ele><time>2026-05-03T07:56:42.004Z</time></trkpt><trkpt lat="43.7778878" lon="11.5631125"><ele>857.0</ele><time>2026-05-03T07:56:45.006Z</time></trkpt><trkpt lat="43.7779268" lon="11.5629914"><ele>855.0</ele><time>2026-05-03T07:56:47.006Z</time></trkpt><trkpt lat="43.7779399" lon="11.5629004"><ele>853.0</ele><time>2026-05-03T07:56:48.006Z</time></trkpt><trkpt lat="43.7779587" lon="11.5628091"><ele>853.0</ele><time>2026-05-03T07:56:49.005Z</time></trkpt><trkpt lat="43.7779898" lon="11.5627205"><ele>853.0</ele><time>2026-05-03T07:56:50.006Z</time></trkpt><trkpt lat="43.7780449" lon="11.5625816"><ele>853.0</ele><time>2026-05-03T07:56:51.005Z</time></trkpt><trkpt lat="43.7781067" lon="11.5624439"><ele>853.0</ele><time>2026-05-03T07:56:52.006Z</time></trkpt><trkpt lat="43.7781565" lon="11.5622861"><ele>853.0</ele><time>2026-05-03T07:56:53.006Z</time></trkpt><trkpt lat="43.7781661" lon="11.5621492"><ele>852.8</ele><time>2026-05-03T07:56:54.006Z</time></trkpt><trkpt lat="43.7781759" lon="11.5620138"><ele>852.5999999999999</ele><time>2026-05-03T07:56:55.005Z</time></trkpt><trkpt lat="43.7781652" lon="11.5618622"><ele>852.4000000000001</ele><time>2026-05-03T07:56:56.005Z</time></trkpt><trkpt lat="43.7781584" lon="11.5617176"><ele>852.2</ele><time>2026-05-03T07:56:57.005Z</time></trkpt><trkpt lat="43.7781121" lon="11.5616308"><ele>852.0</ele><time>2026-05-03T07:56:58.006Z</time></trkpt><trkpt lat="43.7780623" lon="11.5615659"><ele>852.0</ele><time>2026-05-03T07:56:59.006Z</time></trkpt><trkpt lat="43.777999" lon="11.5615253"><ele>852.0</ele><time>2026-05-03T07:57:00.005Z</time></trkpt><trkpt lat="43.7779435" lon="11.5614735"><ele>852.0</ele><time>2026-05-03T07:57:01.004Z</time></trkpt><trkpt lat="43.7778844" lon="11.5614107"><ele>852.0</ele><time>2026-05-03T07:57:02.006Z</time></trkpt><trkpt lat="43.777832" lon="11.5613431"><ele>852.0</ele><time>2026-05-03T07:57:03.005Z</time></trkpt><trkpt lat="43.7777529" lon="11.5612232"><ele>852.0</ele><time>2026-05-03T07:57:05.006Z</time></trkpt><trkpt lat="43.7776533" lon="11.5611134"><ele>855.6</ele><time>2026-05-03T07:57:07.005Z</time></trkpt><trkpt lat="43.7776385" lon="11.5610047"><ele>859.2</ele><time>2026-05-03T07:57:44.006Z</time></trkpt><trkpt lat="43.7776031" lon="11.5608467"><ele>862.8</ele><time>2026-05-03T07:57:46.006Z</time></trkpt><trkpt lat="43.7775741" lon="11.5607481"><ele>866.4</ele><time>2026-05-03T07:57:47.006Z</time></trkpt><trkpt lat="43.7775342" lon="11.5606362"><ele>870.0</ele><time>2026-05-03T07:57:48.006Z</time></trkpt><trkpt lat="43.7774877" lon="11.5605144"><ele>870.0</ele><time>2026-05-03T07:57:49.005Z</time></trkpt><trkpt lat="43.7774397" lon="11.5603963"><ele>870.0</ele><time>2026-05-03T07:57:50.005Z</time></trkpt><trkpt lat="43.7773734" lon="11.5603023"><ele>870.0</ele><time>2026-05-03T07:57:51.006Z</time></trkpt><trkpt lat="43.7773387" lon="11.5601855"><ele>870.0</ele><time>2026-05-03T07:57:52.005Z</time></trkpt><trkpt lat="43.7773042" lon="11.5600576"><ele>870.0</ele><time>2026-05-03T07:57:53.006Z</time></trkpt><trkpt lat="43.7772518" lon="11.5599651"><ele>868.6</ele><time>2026-05-03T07:57:54.005Z</time></trkpt><trkpt lat="43.7772044" lon="11.5598872"><ele>867.2</ele><time>2026-05-03T07:57:55.006Z</time></trkpt><trkpt lat="43.777133" lon="11.559786"><ele>865.8</ele><time>2026-05-03T07:57:56.006Z</time></trkpt><trkpt lat="43.7770524" lon="11.5596928"><ele>864.4</ele><time>2026-05-03T07:57:57.006Z</time></trkpt><trkpt lat="43.7769733" lon="11.5595938"><ele>863.0</ele><time>2026-05-03T07:57:58.006Z</time></trkpt><trkpt lat="43.7768913" lon="11.5595363"><ele>863.0</ele><time>2026-05-03T07:57:59.006Z</time></trkpt><trkpt lat="43.7768198" lon="11.5594371"><ele>863.0</ele><time>2026-05-03T07:58:00.006Z</time></trkpt><trkpt lat="43.7767229" lon="11.5593832"><ele>863.0</ele><time>2026-05-03T07:58:02.006Z</time></trkpt><trkpt lat="43.7765964" lon="11.559386"><ele>863.0</ele><time>2026-05-03T07:58:03.005Z</time></trkpt><trkpt lat="43.7764718" lon="11.5593899"><ele>863.0</ele><time>2026-05-03T07:58:04.006Z</time></trkpt><trkpt lat="43.7763586" lon="11.5593755"><ele>863.0</ele><time>2026-05-03T07:58:05.004Z</time></trkpt><trkpt lat="43.7762451" lon="11.5593414"><ele>863.0</ele><time>2026-05-03T07:58:06.006Z</time></trkpt><trkpt lat="43.7761184" lon="11.5592922"><ele>863.0</ele><time>2026-05-03T07:58:07.006Z</time></trkpt><trkpt lat="43.7760183" lon="11.559237"><ele>865.3333333333334</ele><time>2026-05-03T07:58:08.005Z</time></trkpt><trkpt lat="43.7759404" lon="11.5591629"><ele>867.6666666666667</ele><time>2026-05-03T07:58:09.006Z</time></trkpt><trkpt lat="43.775865" lon="11.5590719"><ele>870.0</ele><time>2026-05-03T07:58:10.005Z</time></trkpt><trkpt lat="43.7757852" lon="11.5590143"><ele>872.3333333333333</ele><time>2026-05-03T07:58:11.006Z</time></trkpt><trkpt lat="43.7757071" lon="11.5589877"><ele>874.6666666666666</ele><time>2026-05-03T07:58:12.006Z</time></trkpt><trkpt lat="43.7756296" lon="11.5589685"><ele>877.0</ele><time>2026-05-03T07:58:13.005Z</time></trkpt><trkpt lat="43.7755737" lon="11.5590255"><ele>876.9999999999999</ele><time>2026-05-03T07:58:14.006Z</time></trkpt><trkpt lat="43.7755112" lon="11.5590857"><ele>877.0</ele><time>2026-05-03T07:58:15.006Z</time></trkpt><trkpt lat="43.7754479" lon="11.5591389"><ele>877.0</ele><time>2026-05-03T07:58:16.005Z</time></trkpt><trkpt lat="43.7753713" lon="11.5591915"><ele>877.0</ele><time>2026-05-03T07:58:17.005Z</time></trkpt><trkpt lat="43.7752736" lon="11.5592607"><ele>876.9999999999999</ele><time>2026-05-03T07:58:18.006Z</time></trkpt><trkpt lat="43.7751833" lon="11.5593124"><ele>877.0</ele><time>2026-05-03T07:58:19.006Z</time></trkpt><trkpt lat="43.7750759" lon="11.5592863"><ele>877.6</ele><time>2026-05-03T07:58:20.005Z</time></trkpt><trkpt lat="43.7749955" lon="11.559252"><ele>878.2</ele><time>2026-05-03T07:58:21.005Z</time></trkpt><trkpt lat="43.7749234" lon="11.5591367"><ele>878.8</ele><time>2026-05-03T07:58:22.005Z</time></trkpt><trkpt lat="43.7748454" lon="11.5590243"><ele>879.4</ele><time>2026-05-03T07:58:23.004Z</time></trkpt><trkpt lat="43.7747742" lon="11.5589523"><ele>880.0</ele><time>2026-05-03T07:58:24.006Z</time></trkpt><trkpt lat="43.7746925" lon="11.5588833"><ele>880.0</ele><time>2026-05-03T07:58:25.005Z</time></trkpt><trkpt lat="43.7746142" lon="11.5588422"><ele>880.0</ele><time>2026-05-03T07:58:26.005Z</time></trkpt><trkpt lat="43.7745349" lon="11.5587998"><ele>880.0</ele><time>2026-05-03T07:58:27.006Z</time></trkpt><trkpt lat="43.7744478" lon="11.5587534"><ele>880.0</ele><time>2026-05-03T07:58:28.006Z</time></trkpt><trkpt lat="43.7744458" lon="11.5586124"><ele>880.0</ele><time>2026-05-03T07:58:30.006Z</time></trkpt><trkpt lat="43.7744103" lon="11.5584859"><ele>879.6</ele><time>2026-05-03T07:58:32.006Z</time></trkpt><trkpt lat="43.7744043" lon="11.5583446"><ele>879.2</ele><time>2026-05-03T07:58:33.005Z</time></trkpt><trkpt lat="43.7744066" lon="11.5582382"><ele>878.8</ele><time>2026-05-03T07:58:34.006Z</time></trkpt><trkpt lat="43.7743832" lon="11.5580861"><ele>878.4</ele><time>2026-05-03T07:58:35.005Z</time></trkpt><trkpt lat="43.7743503" lon="11.5580039"><ele>878.0</ele><time>2026-05-03T07:58:36.006Z</time></trkpt><trkpt lat="43.7743009" lon="11.5578498"><ele>876.1666666666667</ele><time>2026-05-03T07:58:38.006Z</time></trkpt><trkpt lat="43.7742565" lon="11.5577696"><ele>874.3333333333334</ele><time>2026-05-03T07:58:39.005Z</time></trkpt><trkpt lat="43.7742221" lon="11.5576876"><ele>872.5</ele><time>2026-05-03T07:58:40.005Z</time></trkpt><trkpt lat="43.7741814" lon="11.5575995"><ele>870.6666666666667</ele><time>2026-05-03T07:58:41.006Z</time></trkpt><trkpt lat="43.7741263" lon="11.5574938"><ele>868.8333333333334</ele><time>2026-05-03T07:58:42.006Z</time></trkpt><trkpt lat="43.7740718" lon="11.5573821"><ele>867.0</ele><time>2026-05-03T07:58:43.006Z</time></trkpt><trkpt lat="43.7740141" lon="11.5572672"><ele>867.0</ele><time>2026-05-03T07:58:44.005Z</time></trkpt><trkpt lat="43.7739741" lon="11.5571389"><ele>867.0</ele><time>2026-05-03T07:58:45.006Z</time></trkpt><trkpt lat="43.7739493" lon="11.557016"><ele>867.0</ele><time>2026-05-03T07:58:46.005Z</time></trkpt><trkpt lat="43.7739149" lon="11.5568922"><ele>867.0</ele><time>2026-05-03T07:58:47.006Z</time></trkpt><trkpt lat="43.7738902" lon="11.5567498"><ele>867.0</ele><time>2026-05-03T07:58:48.006Z</time></trkpt><trkpt lat="43.7738698" lon="11.5566129"><ele>864.0</ele><time>2026-05-03T07:58:49.006Z</time></trkpt><trkpt lat="43.7738472" lon="11.5564792"><ele>861.0</ele><time>2026-05-03T07:58:50.005Z</time></trkpt><trkpt lat="43.7738308" lon="11.5563503"><ele>858.0</ele><time>2026-05-03T07:58:51.006Z</time></trkpt><trkpt lat="43.7737865" lon="11.5562337"><ele>855.0</ele><time>2026-05-03T07:58:52.005Z</time></trkpt><trkpt lat="43.7737532" lon="11.5561266"><ele>852.0</ele><time>2026-05-03T07:58:53.005Z</time></trkpt><trkpt lat="43.7736762" lon="11.5560594"><ele>851.4000000000001</ele><time>2026-05-03T07:58:54.005Z</time></trkpt><trkpt lat="43.7736217" lon="11.5559694"><ele>850.8000000000001</ele><time>2026-05-03T07:58:55.006Z</time></trkpt><trkpt lat="43.7735341" lon="11.5559342"><ele>850.2</ele><time>2026-05-03T07:58:56.006Z</time></trkpt><trkpt lat="43.7734396" lon="11.5558863"><ele>849.6</ele><time>2026-05-03T07:58:57.006Z</time></trkpt><trkpt lat="43.7733469" lon="11.5558505"><ele>849.0</ele><time>2026-05-03T07:58:58.006Z</time></trkpt><trkpt lat="43.7732436" lon="11.5558342"><ele>849.0</ele><time>2026-05-03T07:58:59.006Z</time></trkpt><trkpt lat="43.7731471" lon="11.5559133"><ele>849.0</ele><time>2026-05-03T07:59:00.006Z</time></trkpt><trkpt lat="43.7730306" lon="11.5560113"><ele>849.0</ele><time>2026-05-03T07:59:01.006Z</time></trkpt><trkpt lat="43.7729352" lon="11.5560802"><ele>849.0</ele><time>2026-05-03T07:59:02.006Z</time></trkpt><trkpt lat="43.7728298" lon="11.5561584"><ele>851.6666666666666</ele><time>2026-05-03T07:59:03.006Z</time></trkpt><trkpt lat="43.7727323" lon="11.5562742"><ele>854.3333333333333</ele><time>2026-05-03T07:59:05.006Z</time></trkpt><trkpt lat="43.7726642" lon="11.5563331"><ele>857.0</ele><time>2026-05-03T07:59:06.006Z</time></trkpt><trkpt lat="43.7726044" lon="11.5563883"><ele>859.6666666666666</ele><time>2026-05-03T07:59:07.006Z</time></trkpt><trkpt lat="43.7725607" lon="11.556456"><ele>862.3333333333333</ele><time>2026-05-03T07:59:08.006Z</time></trkpt><trkpt lat="43.7725206" lon="11.5565261"><ele>865.0</ele><time>2026-05-03T07:59:09.006Z</time></trkpt><trkpt lat="43.7724574" lon="11.5566054"><ele>865.0</ele><time>2026-05-03T07:59:10.005Z</time></trkpt><trkpt lat="43.7724178" lon="11.5566742"><ele>865.0</ele><time>2026-05-03T07:59:11.006Z</time></trkpt><trkpt lat="43.7723543" lon="11.5567278"><ele>865.0</ele><time>2026-05-03T07:59:12.006Z</time></trkpt><trkpt lat="43.7723045" lon="11.5568185"><ele>865.0</ele><time>2026-05-03T07:59:14.005Z</time></trkpt><trkpt lat="43.7722481" lon="11.5568779"><ele>865.0</ele><time>2026-05-03T07:59:15.006Z</time></trkpt><trkpt lat="43.7722026" lon="11.5569472"><ele>865.0</ele><time>2026-05-03T07:59:16.006Z</time></trkpt><trkpt lat="43.7721259" lon="11.5569853"><ele>865.0</ele><time>2026-05-03T07:59:17.006Z</time></trkpt><trkpt lat="43.7720633" lon="11.5570256"><ele>868.8333333333333</ele><time>2026-05-03T07:59:18.006Z</time></trkpt><trkpt lat="43.7719909" lon="11.5570426"><ele>872.6666666666666</ele><time>2026-05-03T07:59:19.006Z</time></trkpt><trkpt lat="43.771917" lon="11.5570641"><ele>876.5</ele><time>2026-05-03T07:59:20.006Z</time></trkpt><trkpt lat="43.7718429" lon="11.5570793"><ele>880.3333333333333</ele><time>2026-05-03T07:59:21.005Z</time></trkpt><trkpt lat="43.7717078" lon="11.5571324"><ele>884.1666666666666</ele><time>2026-05-03T07:59:23.006Z</time></trkpt><trkpt lat="43.771635" lon="11.5571634"><ele>888.0</ele><time>2026-05-03T07:59:24.006Z</time></trkpt><trkpt lat="43.77155" lon="11.5571916"><ele>888.0</ele><time>2026-05-03T07:59:25.005Z</time></trkpt><trkpt lat="43.7714507" lon="11.5572921"><ele>888.0</ele><time>2026-05-03T07:59:26.006Z</time></trkpt><trkpt lat="43.7713889" lon="11.5573524"><ele>888.0</ele><time>2026-05-03T07:59:27.006Z</time></trkpt><trkpt lat="43.7713174" lon="11.5573438"><ele>888.0</ele><time>2026-05-03T07:59:28.006Z</time></trkpt><trkpt lat="43.7712552" lon="11.5573781"><ele>888.0</ele><time>2026-05-03T07:59:29.005Z</time></trkpt><trkpt lat="43.7711868" lon="11.5573883"><ele>888.0</ele><time>2026-05-03T07:59:30.006Z</time></trkpt><trkpt lat="43.7711195" lon="11.5573719"><ele>888.0</ele><time>2026-05-03T07:59:31.006Z</time></trkpt><trkpt lat="43.7710807" lon="11.5572876"><ele>888.0</ele><time>2026-05-03T07:59:33.006Z</time></trkpt><trkpt lat="43.7709877" lon="11.5572993"><ele>888.0</ele><time>2026-05-03T07:59:36.006Z</time></trkpt><trkpt lat="43.7709382" lon="11.5573532"><ele>888.0</ele><time>2026-05-03T07:59:38.006Z</time></trkpt><trkpt lat="43.7708451" lon="11.5574424"><ele>888.0</ele><time>2026-05-03T07:59:40.006Z</time></trkpt><trkpt lat="43.770788" lon="11.5574963"><ele>888.0</ele><time>2026-05-03T07:59:41.006Z</time></trkpt><trkpt lat="43.7706829" lon="11.5575717"><ele>888.8333333333334</ele><time>2026-05-03T07:59:43.005Z</time></trkpt><trkpt lat="43.7705781" lon="11.5575811"><ele>889.6666666666667</ele><time>2026-05-03T07:59:46.006Z</time></trkpt><trkpt lat="43.7705011" lon="11.5575619"><ele>890.5</ele><time>2026-05-03T07:59:48.006Z</time></trkpt><trkpt lat="43.7704362" lon="11.5575293"><ele>891.3333333333334</ele><time>2026-05-03T07:59:50.006Z</time></trkpt><trkpt lat="43.7704604" lon="11.5573861"><ele>892.1666666666667</ele><time>2026-05-03T07:59:52.005Z</time></trkpt><trkpt lat="43.7704953" lon="11.557275"><ele>893.0</ele><time>2026-05-03T07:59:53.006Z</time></trkpt><trkpt lat="43.7705044" lon="11.5571887"><ele>893.0000000000001</ele><time>2026-05-03T07:59:54.005Z</time></trkpt><trkpt lat="43.7704988" lon="11.5570795"><ele>893.0</ele><time>2026-05-03T07:59:55.006Z</time></trkpt><trkpt lat="43.7705047" lon="11.5569579"><ele>893.0</ele><time>2026-05-03T07:59:56.005Z</time></trkpt><trkpt lat="43.7704734" lon="11.5568549"><ele>893.0</ele><time>2026-05-03T07:59:57.006Z</time></trkpt><trkpt lat="43.7704017" lon="11.5568011"><ele>893.0000000000001</ele><time>2026-05-03T07:59:59.005Z</time></trkpt><trkpt lat="43.7703383" lon="11.5568156"><ele>893.0</ele><time>2026-05-03T08:00:03.005Z</time></trkpt><trkpt lat="43.770266" lon="11.5569108"><ele>895.1666666666667</ele><time>2026-05-03T08:00:44.1Z</time></trkpt><trkpt lat="43.7701885" lon="11.556933"><ele>897.3333333333334</ele><time>2026-05-03T08:00:45.006Z</time></trkpt><trkpt lat="43.770106" lon="11.5569509"><ele>899.5</ele><time>2026-05-03T08:00:46.006Z</time></trkpt><trkpt lat="43.7700106" lon="11.5569828"><ele>901.6666666666667</ele><time>2026-05-03T08:00:47.006Z</time></trkpt><trkpt lat="43.7699208" lon="11.5570166"><ele>903.8333333333334</ele><time>2026-05-03T08:00:48.006Z</time></trkpt><trkpt lat="43.7698393" lon="11.5570413"><ele>906.0</ele><time>2026-05-03T08:00:49.005Z</time></trkpt><trkpt lat="43.7697731" lon="11.5570523"><ele>908.8</ele><time>2026-05-03T08:00:50.006Z</time></trkpt><trkpt lat="43.7697025" lon="11.5570596"><ele>911.5999999999999</ele><time>2026-05-03T08:00:51.006Z</time></trkpt><trkpt lat="43.7696335" lon="11.5570791"><ele>914.4</ele><time>2026-05-03T08:00:52.005Z</time></trkpt><trkpt lat="43.769559" lon="11.5570946"><ele>917.2</ele><time>2026-05-03T08:00:53.005Z</time></trkpt><trkpt lat="43.7694852" lon="11.5571173"><ele>920.0</ele><time>2026-05-03T08:00:54.006Z</time></trkpt><trkpt lat="43.769318" lon="11.5572731"><ele>922.0</ele><time>2026-05-03T08:00:56.005Z</time></trkpt><trkpt lat="43.7692377" lon="11.55737"><ele>924.0</ele><time>2026-05-03T08:00:57.006Z</time></trkpt><trkpt lat="43.7691687" lon="11.5574596"><ele>926.0</ele><time>2026-05-03T08:00:58.006Z</time></trkpt><trkpt lat="43.7690971" lon="11.5575485"><ele>928.0</ele><time>2026-05-03T08:00:59.005Z</time></trkpt><trkpt lat="43.7690216" lon="11.5576345"><ele>930.0</ele><time>2026-05-03T08:01:00.006Z</time></trkpt><trkpt lat="43.7689433" lon="11.5577053"><ele>930.0</ele><time>2026-05-03T08:01:01.005Z</time></trkpt><trkpt lat="43.7688818" lon="11.5578494"><ele>930.0</ele><time>2026-05-03T08:01:02.005Z</time></trkpt><trkpt lat="43.7688173" lon="11.5579792"><ele>930.0</ele><time>2026-05-03T08:01:03.006Z</time></trkpt><trkpt lat="43.7687501" lon="11.5580682"><ele>930.0</ele><time>2026-05-03T08:01:04.006Z</time></trkpt><trkpt lat="43.7686854" lon="11.558151"><ele>930.0</ele><time>2026-05-03T08:01:05.006Z</time></trkpt><trkpt lat="43.7686119" lon="11.5582261"><ele>931.6</ele><time>2026-05-03T08:01:06.006Z</time></trkpt><trkpt lat="43.768523" lon="11.5582341"><ele>933.2</ele><time>2026-05-03T08:01:07.006Z</time></trkpt><trkpt lat="43.7684432" lon="11.5582521"><ele>934.8</ele><time>2026-05-03T08:01:08.005Z</time></trkpt><trkpt lat="43.7683555" lon="11.5582642"><ele>936.4</ele><time>2026-05-03T08:01:09.006Z</time></trkpt><trkpt lat="43.7682103" lon="11.5582699"><ele>938.0</ele><time>2026-05-03T08:01:11.005Z</time></trkpt><trkpt lat="43.7681491" lon="11.5582371"><ele>938.0</ele><time>2026-05-03T08:01:12.005Z</time></trkpt><trkpt lat="43.7681273" lon="11.5580214"><ele>938.0</ele><time>2026-05-03T08:01:14.006Z</time></trkpt><trkpt lat="43.7681772" lon="11.5578565"><ele>938.0</ele><time>2026-05-03T08:01:15.005Z</time></trkpt><trkpt lat="43.7682121" lon="11.5576686"><ele>938.0</ele><time>2026-05-03T08:01:16.005Z</time></trkpt><trkpt lat="43.7682047" lon="11.5575701"><ele>937.5000000000001</ele><time>2026-05-03T08:01:17.005Z</time></trkpt><trkpt lat="43.768188" lon="11.5574793"><ele>937.0</ele><time>2026-05-03T08:01:18.006Z</time></trkpt><trkpt lat="43.7681335" lon="11.557423"><ele>936.5</ele><time>2026-05-03T08:01:19.007Z</time></trkpt><trkpt lat="43.7680486" lon="11.55739"><ele>936.0</ele><time>2026-05-03T08:01:20.006Z</time></trkpt><trkpt lat="43.7679386" lon="11.5573626"><ele>935.5000000000001</ele><time>2026-05-03T08:01:21.006Z</time></trkpt><trkpt lat="43.7678568" lon="11.5573344"><ele>935.0</ele><time>2026-05-03T08:01:22.006Z</time></trkpt><trkpt lat="43.7677685" lon="11.5572961"><ele>937.8333333333334</ele><time>2026-05-03T08:01:23.007Z</time></trkpt><trkpt lat="43.7676866" lon="11.5572433"><ele>940.6666666666667</ele><time>2026-05-03T08:01:24.006Z</time></trkpt><trkpt lat="43.7676173" lon="11.5571968"><ele>943.5</ele><time>2026-05-03T08:01:25.007Z</time></trkpt><trkpt lat="43.7675123" lon="11.5571512"><ele>946.3333333333333</ele><time>2026-05-03T08:01:27.007Z</time></trkpt><trkpt lat="43.7674467" lon="11.5571371"><ele>949.1666666666666</ele><time>2026-05-03T08:01:28.006Z</time></trkpt><trkpt lat="43.7673479" lon="11.5571474"><ele>952.0</ele><time>2026-05-03T08:01:29.006Z</time></trkpt><trkpt lat="43.7672598" lon="11.5571284"><ele>952.0</ele><time>2026-05-03T08:01:30.007Z</time></trkpt><trkpt lat="43.7671839" lon="11.5571374"><ele>952.0</ele><time>2026-05-03T08:01:31.006Z</time></trkpt><trkpt lat="43.7670654" lon="11.5571647"><ele>952.0</ele><time>2026-05-03T08:01:33.007Z</time></trkpt><trkpt lat="43.7670046" lon="11.5572313"><ele>952.0</ele><time>2026-05-03T08:01:34.006Z</time></trkpt><trkpt lat="43.7669444" lon="11.557337"><ele>952.0</ele><time>2026-05-03T08:01:35.007Z</time></trkpt><trkpt lat="43.7668712" lon="11.5574221"><ele>954.6666666666666</ele><time>2026-05-03T08:01:36.006Z</time></trkpt><trkpt lat="43.7666911" lon="11.557585"><ele>957.3333333333333</ele><time>2026-05-03T08:01:38.007Z</time></trkpt><trkpt lat="43.7665929" lon="11.5576798"><ele>960.0</ele><time>2026-05-03T08:01:39.007Z</time></trkpt><trkpt lat="43.7664965" lon="11.5577763"><ele>959.6</ele><time>2026-05-03T08:01:40.006Z</time></trkpt><trkpt lat="43.7664209" lon="11.5578847"><ele>959.2</ele><time>2026-05-03T08:01:41.007Z</time></trkpt><trkpt lat="43.7663428" lon="11.5579943"><ele>958.8</ele><time>2026-05-03T08:01:42.007Z</time></trkpt><trkpt lat="43.7663596" lon="11.5580828"><ele>958.4</ele><time>2026-05-03T08:01:43.006Z</time></trkpt><trkpt lat="43.7662946" lon="11.5581799"><ele>958.0</ele><time>2026-05-03T08:01:45.007Z</time></trkpt><trkpt lat="43.7662081" lon="11.5582381"><ele>957.9999999999999</ele><time>2026-05-03T08:01:55.007Z</time></trkpt><trkpt lat="43.7661477" lon="11.5582735"><ele>958.0</ele><time>2026-05-03T08:01:56.007Z</time></trkpt><trkpt lat="43.766087" lon="11.558309"><ele>958.0</ele><time>2026-05-03T08:01:57.005Z</time></trkpt><trkpt lat="43.7660223" lon="11.5583258"><ele>958.0</ele><time>2026-05-03T08:01:58.007Z</time></trkpt><trkpt lat="43.7659056" lon="11.5582195"><ele>957.9999999999999</ele><time>2026-05-03T08:02:00.006Z</time></trkpt><trkpt lat="43.7658545" lon="11.5581403"><ele>958.0</ele><time>2026-05-03T08:02:01.007Z</time></trkpt><trkpt lat="43.7657916" lon="11.5580577"><ele>959.8333333333333</ele><time>2026-05-03T08:02:02.006Z</time></trkpt><trkpt lat="43.7657406" lon="11.5579515"><ele>961.6666666666666</ele><time>2026-05-03T08:02:03.007Z</time></trkpt><trkpt lat="43.7656851" lon="11.557874"><ele>963.5</ele><time>2026-05-03T08:02:04.006Z</time></trkpt><trkpt lat="43.7656399" lon="11.5578009"><ele>965.3333333333333</ele><time>2026-05-03T08:02:05.006Z</time></trkpt><trkpt lat="43.7655543" lon="11.5577794"><ele>967.1666666666666</ele><time>2026-05-03T08:02:07.005Z</time></trkpt><trkpt lat="43.7655019" lon="11.5578489"><ele>969.0</ele><time>2026-05-03T08:02:09.007Z</time></trkpt><trkpt lat="43.7654828" lon="11.5580574"><ele>969.0</ele><time>2026-05-03T08:02:11.007Z</time></trkpt><trkpt lat="43.7655042" lon="11.5582466"><ele>969.0</ele><time>2026-05-03T08:02:12.007Z</time></trkpt><trkpt lat="43.7655137" lon="11.5583901"><ele>969.0</ele><time>2026-05-03T08:02:13.006Z</time></trkpt><trkpt lat="43.7655128" lon="11.5585649"><ele>969.0</ele><time>2026-05-03T08:02:14.007Z</time></trkpt><trkpt lat="43.7655182" lon="11.5587309"><ele>969.75</ele><time>2026-05-03T08:02:15.006Z</time></trkpt><trkpt lat="43.7655207" lon="11.5588845"><ele>970.5</ele><time>2026-05-03T08:02:16.006Z</time></trkpt><trkpt lat="43.7655269" lon="11.5590396"><ele>971.25</ele><time>2026-05-03T08:02:17.007Z</time></trkpt><trkpt lat="43.765548" lon="11.5593436"><ele>972.0</ele><time>2026-05-03T08:02:19.006Z</time></trkpt><trkpt lat="43.7655698" lon="11.5595047"><ele>973.25</ele><time>2026-05-03T08:02:20.007Z</time></trkpt><trkpt lat="43.7655796" lon="11.559653"><ele>974.5</ele><time>2026-05-03T08:02:21.006Z</time></trkpt><trkpt lat="43.7655987" lon="11.5598103"><ele>975.75</ele><time>2026-05-03T08:02:22.007Z</time></trkpt><trkpt lat="43.7656329" lon="11.5599883"><ele>977.0</ele><time>2026-05-03T08:02:23.007Z</time></trkpt><trkpt lat="43.765672" lon="11.5601753"><ele>977.0</ele><time>2026-05-03T08:02:24.005Z</time></trkpt><trkpt lat="43.7657084" lon="11.560337"><ele>977.0</ele><time>2026-05-03T08:02:25.007Z</time></trkpt><trkpt lat="43.7657406" lon="11.5604761"><ele>977.0</ele><time>2026-05-03T08:02:26.006Z</time></trkpt><trkpt lat="43.7657887" lon="11.5606081"><ele>977.0</ele><time>2026-05-03T08:02:27.006Z</time></trkpt><trkpt lat="43.7658366" lon="11.5607625"><ele>977.0</ele><time>2026-05-03T08:02:28.007Z</time></trkpt><trkpt lat="43.7658861" lon="11.5609235"><ele>977.0</ele><time>2026-05-03T08:02:29.006Z</time></trkpt><trkpt lat="43.765929" lon="11.5610721"><ele>977.0</ele><time>2026-05-03T08:02:30.007Z</time></trkpt><trkpt lat="43.7659778" lon="11.561217"><ele>977.0</ele><time>2026-05-03T08:02:31.007Z</time></trkpt><trkpt lat="43.7660277" lon="11.5613404"><ele>978.75</ele><time>2026-05-03T08:02:32.007Z</time></trkpt><trkpt lat="43.766083" lon="11.5614768"><ele>980.5</ele><time>2026-05-03T08:02:33.007Z</time></trkpt><trkpt lat="43.7661694" lon="11.5615944"><ele>982.25</ele><time>2026-05-03T08:02:34.007Z</time></trkpt><trkpt lat="43.7662538" lon="11.5617346"><ele>984.0</ele><time>2026-05-03T08:02:35.006Z</time></trkpt><trkpt lat="43.76634" lon="11.5618643"><ele>984.0</ele><time>2026-05-03T08:02:36.007Z</time></trkpt><trkpt lat="43.7664393" lon="11.5619834"><ele>984.0000000000001</ele><time>2026-05-03T08:02:37.007Z</time></trkpt><trkpt lat="43.7665131" lon="11.5620754"><ele>984.0000000000001</ele><time>2026-05-03T08:02:38.007Z</time></trkpt><trkpt lat="43.7665598" lon="11.5621887"><ele>984.0</ele><time>2026-05-03T08:02:39.006Z</time></trkpt><trkpt lat="43.7666287" lon="11.5623191"><ele>984.0</ele><time>2026-05-03T08:02:40.005Z</time></trkpt><trkpt lat="43.7666501" lon="11.5624462"><ele>985.25</ele><time>2026-05-03T08:02:41.007Z</time></trkpt><trkpt lat="43.7667107" lon="11.5625912"><ele>986.5</ele><time>2026-05-03T08:02:42.005Z</time></trkpt><trkpt lat="43.7667233" lon="11.5627767"><ele>987.75</ele><time>2026-05-03T08:02:43.007Z</time></trkpt><trkpt lat="43.7667038" lon="11.5629445"><ele>989.0</ele><time>2026-05-03T08:02:44.006Z</time></trkpt><trkpt lat="43.7666952" lon="11.5631069"><ele>991.0</ele><time>2026-05-03T08:02:45.006Z</time></trkpt><trkpt lat="43.76671" lon="11.5632788"><ele>993.0</ele><time>2026-05-03T08:02:46.007Z</time></trkpt><trkpt lat="43.7667288" lon="11.563435"><ele>995.0</ele><time>2026-05-03T08:02:47.007Z</time></trkpt><trkpt lat="43.7667201" lon="11.563581"><ele>997.0</ele><time>2026-05-03T08:02:48.006Z</time></trkpt><trkpt lat="43.7667373" lon="11.5637428"><ele>997.6</ele><time>2026-05-03T08:02:49.007Z</time></trkpt><trkpt lat="43.7667441" lon="11.5638948"><ele>998.2</ele><time>2026-05-03T08:02:50.007Z</time></trkpt><trkpt lat="43.7668031" lon="11.5640316"><ele>998.8</ele><time>2026-05-03T08:02:51.006Z</time></trkpt><trkpt lat="43.7668283" lon="11.5641736"><ele>999.4</ele><time>2026-05-03T08:02:52.007Z</time></trkpt><trkpt lat="43.7668547" lon="11.5643065"><ele>1000.0</ele><time>2026-05-03T08:02:53.006Z</time></trkpt><trkpt lat="43.7668609" lon="11.5644389"><ele>1000.6</ele><time>2026-05-03T08:02:54.007Z</time></trkpt><trkpt lat="43.7668605" lon="11.5645611"><ele>1001.2</ele><time>2026-05-03T08:02:55.007Z</time></trkpt><trkpt lat="43.7668273" lon="11.5646874"><ele>1001.8</ele><time>2026-05-03T08:02:56.006Z</time></trkpt><trkpt lat="43.766766" lon="11.5648189"><ele>1002.4</ele><time>2026-05-03T08:02:57.006Z</time></trkpt><trkpt lat="43.7667593" lon="11.5649376"><ele>1003.0</ele><time>2026-05-03T08:02:58.006Z</time></trkpt><trkpt lat="43.7668042" lon="11.5650487"><ele>1003.0</ele><time>2026-05-03T08:02:59.007Z</time></trkpt><trkpt lat="43.7668389" lon="11.5651889"><ele>1003.0</ele><time>2026-05-03T08:03:00.006Z</time></trkpt><trkpt lat="43.7668766" lon="11.565359"><ele>1003.0</ele><time>2026-05-03T08:03:01.006Z</time></trkpt><trkpt lat="43.7669351" lon="11.5654998"><ele>1003.0</ele><time>2026-05-03T08:03:02.006Z</time></trkpt><trkpt lat="43.7669773" lon="11.565612"><ele>1003.0</ele><time>2026-05-03T08:03:03.007Z</time></trkpt><trkpt lat="43.7670193" lon="11.5657299"><ele>1004.4999999999999</ele><time>2026-05-03T08:03:04.007Z</time></trkpt><trkpt lat="43.7670993" lon="11.5657906"><ele>1006.0</ele><time>2026-05-03T08:03:05.007Z</time></trkpt><trkpt lat="43.7671565" lon="11.5658379"><ele>1007.5</ele><time>2026-05-03T08:03:06.007Z</time></trkpt><trkpt lat="43.7672353" lon="11.5658594"><ele>1009.0</ele><time>2026-05-03T08:03:07.007Z</time></trkpt><trkpt lat="43.7673089" lon="11.565891"><ele>1010.4999999999999</ele><time>2026-05-03T08:03:08.006Z</time></trkpt><trkpt lat="43.7673819" lon="11.5659378"><ele>1012.0</ele><time>2026-05-03T08:03:09.006Z</time></trkpt><trkpt lat="43.76749" lon="11.5658752"><ele>1011.9999999999999</ele><time>2026-05-03T08:03:10.006Z</time></trkpt><trkpt lat="43.7675638" lon="11.5658599"><ele>1012.0</ele><time>2026-05-03T08:03:11.007Z</time></trkpt><trkpt lat="43.7676374" lon="11.5658238"><ele>1012.0</ele><time>2026-05-03T08:03:12.006Z</time></trkpt><trkpt lat="43.7677132" lon="11.565789"><ele>1012.0</ele><time>2026-05-03T08:03:13.007Z</time></trkpt><trkpt lat="43.7678037" lon="11.5657521"><ele>1011.9999999999999</ele><time>2026-05-03T08:03:14.007Z</time></trkpt><trkpt lat="43.7679033" lon="11.565721"><ele>1012.0</ele><time>2026-05-03T08:03:15.007Z</time></trkpt><trkpt lat="43.76799" lon="11.5657773"><ele>1011.8</ele><time>2026-05-03T08:03:16.006Z</time></trkpt><trkpt lat="43.768065" lon="11.5657951"><ele>1011.6</ele><time>2026-05-03T08:03:17.005Z</time></trkpt><trkpt lat="43.7681438" lon="11.5658065"><ele>1011.3999999999999</ele><time>2026-05-03T08:03:18.007Z</time></trkpt><trkpt lat="43.76823" lon="11.5657818"><ele>1011.1999999999999</ele><time>2026-05-03T08:03:19.006Z</time></trkpt><trkpt lat="43.7683502" lon="11.5657789"><ele>1011.0</ele><time>2026-05-03T08:03:20.006Z</time></trkpt><trkpt lat="43.7684646" lon="11.5657398"><ele>1013.5</ele><time>2026-05-03T08:03:21.007Z</time></trkpt><trkpt lat="43.7685739" lon="11.5657158"><ele>1016.0</ele><time>2026-05-03T08:03:22.007Z</time></trkpt><trkpt lat="43.7686888" lon="11.5656995"><ele>1018.5</ele><time>2026-05-03T08:03:23.005Z</time></trkpt><trkpt lat="43.7688086" lon="11.5657969"><ele>1021.0</ele><time>2026-05-03T08:03:24.006Z</time></trkpt><trkpt lat="43.7689126" lon="11.5658311"><ele>1020.9999999999999</ele><time>2026-05-03T08:03:25.005Z</time></trkpt><trkpt lat="43.7690035" lon="11.5658558"><ele>1021.0</ele><time>2026-05-03T08:03:26.006Z</time></trkpt><trkpt lat="43.7690848" lon="11.565885"><ele>1021.0</ele><time>2026-05-03T08:03:27.007Z</time></trkpt><trkpt lat="43.7691615" lon="11.5659057"><ele>1021.0</ele><time>2026-05-03T08:03:28.007Z</time></trkpt><trkpt lat="43.7692412" lon="11.5659165"><ele>1020.9999999999999</ele><time>2026-05-03T08:03:29.006Z</time></trkpt><trkpt lat="43.7693318" lon="11.5659213"><ele>1021.0</ele><time>2026-05-03T08:03:30.007Z</time></trkpt><trkpt lat="43.7694198" lon="11.5659525"><ele>1023.1999999999999</ele><time>2026-05-03T08:03:31.006Z</time></trkpt><trkpt lat="43.7695051" lon="11.5659825"><ele>1025.3999999999999</ele><time>2026-05-03T08:03:32.007Z</time></trkpt><trkpt lat="43.7695965" lon="11.5660521"><ele>1027.6</ele><time>2026-05-03T08:03:33.007Z</time></trkpt><trkpt lat="43.7696628" lon="11.5662056"><ele>1029.8</ele><time>2026-05-03T08:03:34.006Z</time></trkpt><trkpt lat="43.7697349" lon="11.5663293"><ele>1032.0</ele><time>2026-05-03T08:03:35.007Z</time></trkpt><trkpt lat="43.7698109" lon="11.5664455"><ele>1026.25</ele><time>2026-05-03T08:03:36.007Z</time></trkpt><trkpt lat="43.769913" lon="11.5665462"><ele>1020.5</ele><time>2026-05-03T08:03:37.006Z</time></trkpt><trkpt lat="43.7700098" lon="11.5666379"><ele>1014.75</ele><time>2026-05-03T08:03:38.006Z</time></trkpt><trkpt lat="43.7700981" lon="11.5667432"><ele>1009.0</ele><time>2026-05-03T08:03:39.006Z</time></trkpt><trkpt lat="43.7701806" lon="11.5668503"><ele>1007.5</ele><time>2026-05-03T08:03:40.007Z</time></trkpt><trkpt lat="43.7702517" lon="11.5669539"><ele>1006.0</ele><time>2026-05-03T08:03:41.006Z</time></trkpt><trkpt lat="43.770331" lon="11.5670848"><ele>1004.5</ele><time>2026-05-03T08:03:42.006Z</time></trkpt><trkpt lat="43.7704043" lon="11.5672208"><ele>1003.0</ele><time>2026-05-03T08:03:43.006Z</time></trkpt><trkpt lat="43.7704878" lon="11.5673405"><ele>1003.0</ele><time>2026-05-03T08:03:44.006Z</time></trkpt><trkpt lat="43.7705629" lon="11.5674498"><ele>1003.0</ele><time>2026-05-03T08:03:45.007Z</time></trkpt><trkpt lat="43.7706419" lon="11.5675676"><ele>1003.0</ele><time>2026-05-03T08:03:46.007Z</time></trkpt><trkpt lat="43.7707333" lon="11.5676894"><ele>1003.0</ele><time>2026-05-03T08:03:47.007Z</time></trkpt><trkpt lat="43.7708287" lon="11.5677929"><ele>1000.3333333333333</ele><time>2026-05-03T08:03:48.007Z</time></trkpt><trkpt lat="43.7708873" lon="11.5679306"><ele>997.6666666666667</ele><time>2026-05-03T08:03:49.007Z</time></trkpt><trkpt lat="43.7710353" lon="11.5681768"><ele>995.0</ele><time>2026-05-03T08:03:51.007Z</time></trkpt><trkpt lat="43.7711204" lon="11.5682626"><ele>995.0</ele><time>2026-05-03T08:03:52.007Z</time></trkpt><trkpt lat="43.7712184" lon="11.5683698"><ele>995.0</ele><time>2026-05-03T08:03:53.007Z</time></trkpt><trkpt lat="43.771326" lon="11.5684729"><ele>995.0</ele><time>2026-05-03T08:03:54.007Z</time></trkpt><trkpt lat="43.7714339" lon="11.5685648"><ele>995.0</ele><time>2026-05-03T08:03:55.007Z</time></trkpt><trkpt lat="43.7715131" lon="11.5686619"><ele>992.6</ele><time>2026-05-03T08:03:56.006Z</time></trkpt><trkpt lat="43.771616" lon="11.5687486"><ele>990.2</ele><time>2026-05-03T08:03:57.006Z</time></trkpt><trkpt lat="43.7717021" lon="11.5688567"><ele>987.8</ele><time>2026-05-03T08:03:58.007Z</time></trkpt><trkpt lat="43.7717782" lon="11.5689516"><ele>985.4</ele><time>2026-05-03T08:03:59.007Z</time></trkpt><trkpt lat="43.7718549" lon="11.5690403"><ele>983.0</ele><time>2026-05-03T08:04:00.006Z</time></trkpt><trkpt lat="43.7719411" lon="11.569119"><ele>982.0</ele><time>2026-05-03T08:04:01.006Z</time></trkpt><trkpt lat="43.7720246" lon="11.5692168"><ele>981.0</ele><time>2026-05-03T08:04:02.006Z</time></trkpt><trkpt lat="43.7721064" lon="11.5693117"><ele>980.0</ele><time>2026-05-03T08:04:03.007Z</time></trkpt><trkpt lat="43.7721938" lon="11.5693893"><ele>979.0</ele><time>2026-05-03T08:04:04.007Z</time></trkpt><trkpt lat="43.7722767" lon="11.569459"><ele>978.0</ele><time>2026-05-03T08:04:05.007Z</time></trkpt><trkpt lat="43.7723471" lon="11.5695143"><ele>975.4</ele><time>2026-05-03T08:04:06.007Z</time></trkpt><trkpt lat="43.7724295" lon="11.5695697"><ele>972.8</ele><time>2026-05-03T08:04:07.007Z</time></trkpt><trkpt lat="43.772519" lon="11.5696285"><ele>970.2</ele><time>2026-05-03T08:04:08.005Z</time></trkpt><trkpt lat="43.7725936" lon="11.569677"><ele>967.6</ele><time>2026-05-03T08:04:09.006Z</time></trkpt><trkpt lat="43.7727173" lon="11.5698366"><ele>965.0</ele><time>2026-05-03T08:04:11.007Z</time></trkpt><trkpt lat="43.7727518" lon="11.5699457"><ele>964.6</ele><time>2026-05-03T08:04:12.007Z</time></trkpt><trkpt lat="43.7727608" lon="11.5701104"><ele>964.2</ele><time>2026-05-03T08:04:13.005Z</time></trkpt><trkpt lat="43.7727844" lon="11.5702301"><ele>963.8</ele><time>2026-05-03T08:04:14.007Z</time></trkpt><trkpt lat="43.7728106" lon="11.5703459"><ele>963.4</ele><time>2026-05-03T08:04:15.007Z</time></trkpt><trkpt lat="43.7728717" lon="11.570486"><ele>963.0</ele><time>2026-05-03T08:04:16.007Z</time></trkpt><trkpt lat="43.7729223" lon="11.5706205"><ele>962.25</ele><time>2026-05-03T08:04:17.007Z</time></trkpt><trkpt lat="43.7729564" lon="11.5707654"><ele>961.5</ele><time>2026-05-03T08:04:18.006Z</time></trkpt><trkpt lat="43.7729899" lon="11.57091"><ele>960.75</ele><time>2026-05-03T08:04:19.007Z</time></trkpt><trkpt lat="43.7730237" lon="11.5710697"><ele>960.0</ele><time>2026-05-03T08:04:20.007Z</time></trkpt><trkpt lat="43.7730676" lon="11.571218"><ele>959.75</ele><time>2026-05-03T08:04:21.006Z</time></trkpt><trkpt lat="43.7731135" lon="11.5713892"><ele>959.5</ele><time>2026-05-03T08:04:22.007Z</time></trkpt><trkpt lat="43.7731756" lon="11.5715071"><ele>959.25</ele><time>2026-05-03T08:04:23.007Z</time></trkpt><trkpt lat="43.773219" lon="11.5716715"><ele>959.0</ele><time>2026-05-03T08:04:24.006Z</time></trkpt><trkpt lat="43.7732591" lon="11.5718159"><ele>959.0</ele><time>2026-05-03T08:04:25.007Z</time></trkpt><trkpt lat="43.7733042" lon="11.5719781"><ele>959.0</ele><time>2026-05-03T08:04:26.007Z</time></trkpt><trkpt lat="43.7733536" lon="11.5721563"><ele>959.0</ele><time>2026-05-03T08:04:27.007Z</time></trkpt><trkpt lat="43.7733673" lon="11.5723652"><ele>959.0</ele><time>2026-05-03T08:04:28.007Z</time></trkpt><trkpt lat="43.7734643" lon="11.5724227"><ele>959.2</ele><time>2026-05-03T08:04:29.007Z</time></trkpt><trkpt lat="43.7735106" lon="11.5725432"><ele>959.4000000000001</ele><time>2026-05-03T08:04:30.007Z</time></trkpt><trkpt lat="43.7735911" lon="11.5726076"><ele>959.6</ele><time>2026-05-03T08:04:31.007Z</time></trkpt><trkpt lat="43.7736868" lon="11.57269"><ele>959.8</ele><time>2026-05-03T08:04:32.007Z</time></trkpt><trkpt lat="43.7737797" lon="11.5727778"><ele>960.0</ele><time>2026-05-03T08:04:33.006Z</time></trkpt><trkpt lat="43.7739437" lon="11.5728956"><ele>963.0</ele><time>2026-05-03T08:04:34.006Z</time></trkpt><trkpt lat="43.7740677" lon="11.5729917"><ele>966.0</ele><time>2026-05-03T08:04:35.007Z</time></trkpt><trkpt lat="43.7741749" lon="11.5730977"><ele>969.0</ele><time>2026-05-03T08:04:36.007Z</time></trkpt><trkpt lat="43.7742812" lon="11.5732118"><ele>972.0</ele><time>2026-05-03T08:04:37.007Z</time></trkpt><trkpt lat="43.7743545" lon="11.5733144"><ele>971.6</ele><time>2026-05-03T08:04:38.007Z</time></trkpt><trkpt lat="43.7744228" lon="11.5734221"><ele>971.2</ele><time>2026-05-03T08:04:39.007Z</time></trkpt><trkpt lat="43.774455" lon="11.5735749"><ele>970.8</ele><time>2026-05-03T08:04:40.007Z</time></trkpt><trkpt lat="43.7745108" lon="11.5737103"><ele>970.4</ele><time>2026-05-03T08:04:41.007Z</time></trkpt><trkpt lat="43.774566" lon="11.5738502"><ele>970.0</ele><time>2026-05-03T08:04:42.007Z</time></trkpt><trkpt lat="43.7745622" lon="11.5740206"><ele>971.25</ele><time>2026-05-03T08:04:43.007Z</time></trkpt><trkpt lat="43.7745422" lon="11.5742016"><ele>972.5</ele><time>2026-05-03T08:04:44.007Z</time></trkpt><trkpt lat="43.7745595" lon="11.5744061"><ele>973.75</ele><time>2026-05-03T08:04:45.006Z</time></trkpt><trkpt lat="43.7745657" lon="11.5746256"><ele>975.0</ele><time>2026-05-03T08:04:46.007Z</time></trkpt><trkpt lat="43.7746102" lon="11.5748332"><ele>975.25</ele><time>2026-05-03T08:04:47.006Z</time></trkpt><trkpt lat="43.7746681" lon="11.5750138"><ele>975.5</ele><time>2026-05-03T08:04:48.007Z</time></trkpt><trkpt lat="43.7747265" lon="11.5751729"><ele>975.75</ele><time>2026-05-03T08:04:49.006Z</time></trkpt><trkpt lat="43.7748045" lon="11.5753264"><ele>976.0</ele><time>2026-05-03T08:04:50.007Z</time></trkpt><trkpt lat="43.7748837" lon="11.5754926"><ele>976.6666666666666</ele><time>2026-05-03T08:04:51.006Z</time></trkpt><trkpt lat="43.7749589" lon="11.575672"><ele>977.3333333333333</ele><time>2026-05-03T08:04:52.007Z</time></trkpt><trkpt lat="43.7750317" lon="11.5758602"><ele>978.0</ele><time>2026-05-03T08:04:53.006Z</time></trkpt><trkpt lat="43.7750981" lon="11.5760669"><ele>978.0</ele><time>2026-05-03T08:04:54.007Z</time></trkpt><trkpt lat="43.7751562" lon="11.5762764"><ele>978.0</ele><time>2026-05-03T08:04:55.006Z</time></trkpt><trkpt lat="43.7752024" lon="11.5764597"><ele>978.0</ele><time>2026-05-03T08:04:56.006Z</time></trkpt><trkpt lat="43.7752396" lon="11.5766225"><ele>978.0</ele><time>2026-05-03T08:04:57.007Z</time></trkpt><trkpt lat="43.7752761" lon="11.5767709"><ele>978.4</ele><time>2026-05-03T08:04:58.006Z</time></trkpt><trkpt lat="43.7753163" lon="11.576917"><ele>978.8</ele><time>2026-05-03T08:04:59.006Z</time></trkpt><trkpt lat="43.7753614" lon="11.5770636"><ele>979.2</ele><time>2026-05-03T08:05:00.007Z</time></trkpt><trkpt lat="43.7754138" lon="11.5771997"><ele>979.6</ele><time>2026-05-03T08:05:01.007Z</time></trkpt><trkpt lat="43.7754643" lon="11.5773213"><ele>980.0</ele><time>2026-05-03T08:05:02.007Z</time></trkpt><trkpt lat="43.7755131" lon="11.5774356"><ele>978.6666666666667</ele><time>2026-05-03T08:05:03.006Z</time></trkpt><trkpt lat="43.7755575" lon="11.5775409"><ele>977.3333333333334</ele><time>2026-05-03T08:05:04.006Z</time></trkpt><trkpt lat="43.7756016" lon="11.5776415"><ele>976.0</ele><time>2026-05-03T08:05:05.007Z</time></trkpt><trkpt lat="43.7756427" lon="11.5777385"><ele>974.6666666666667</ele><time>2026-05-03T08:05:06.007Z</time></trkpt><trkpt lat="43.7756757" lon="11.5778234"><ele>973.3333333333334</ele><time>2026-05-03T08:05:07.006Z</time></trkpt><trkpt lat="43.7757007" lon="11.5779672"><ele>972.0</ele><time>2026-05-03T08:05:09.007Z</time></trkpt><trkpt lat="43.7756934" lon="11.5780764"><ele>972.0</ele><time>2026-05-03T08:05:12.006Z</time></trkpt><trkpt lat="43.7756644" lon="11.5781569"><ele>972.0</ele><time>2026-05-03T08:05:14.007Z</time></trkpt><trkpt lat="43.7756166" lon="11.5782502"><ele>972.0</ele><time>2026-05-03T08:08:23.008Z</time></trkpt><trkpt lat="43.7755833" lon="11.5783472"><ele>972.0</ele><time>2026-05-03T08:08:25.008Z</time></trkpt><trkpt lat="43.7755385" lon="11.5784771"><ele>972.0</ele><time>2026-05-03T08:08:27.007Z</time></trkpt><trkpt lat="43.7754849" lon="11.5786508"><ele>973.6666666666666</ele><time>2026-05-03T08:08:29.008Z</time></trkpt><trkpt lat="43.7754467" lon="11.5787303"><ele>975.3333333333333</ele><time>2026-05-03T08:08:30.008Z</time></trkpt><trkpt lat="43.7753648" lon="11.57883"><ele>977.0</ele><time>2026-05-03T08:08:32.007Z</time></trkpt><trkpt lat="43.7752632" lon="11.5788798"><ele>978.6666666666666</ele><time>2026-05-03T08:08:34.007Z</time></trkpt><trkpt lat="43.775197" lon="11.5789148"><ele>980.3333333333333</ele><time>2026-05-03T08:08:35.008Z</time></trkpt><trkpt lat="43.7751443" lon="11.5789625"><ele>982.0</ele><time>2026-05-03T08:08:36.007Z</time></trkpt><trkpt lat="43.7750944" lon="11.5790252"><ele>982.6666666666666</ele><time>2026-05-03T08:08:37.007Z</time></trkpt><trkpt lat="43.7750601" lon="11.5791293"><ele>983.3333333333333</ele><time>2026-05-03T08:08:38.007Z</time></trkpt><trkpt lat="43.7750371" lon="11.5792127"><ele>984.0</ele><time>2026-05-03T08:08:39.008Z</time></trkpt><trkpt lat="43.7749912" lon="11.5793148"><ele>984.6666666666667</ele><time>2026-05-03T08:08:40.007Z</time></trkpt><trkpt lat="43.774982" lon="11.5794056"><ele>985.3333333333334</ele><time>2026-05-03T08:08:41.007Z</time></trkpt><trkpt lat="43.7749846" lon="11.5795813"><ele>986.0</ele><time>2026-05-03T08:08:43.008Z</time></trkpt><trkpt lat="43.7749883" lon="11.5796858"><ele>987.1999999999999</ele><time>2026-05-03T08:08:44.007Z</time></trkpt><trkpt lat="43.7749831" lon="11.5798626"><ele>988.3999999999999</ele><time>2026-05-03T08:08:46.008Z</time></trkpt><trkpt lat="43.7749184" lon="11.5800196"><ele>989.6</ele><time>2026-05-03T08:08:48.008Z</time></trkpt><trkpt lat="43.7748935" lon="11.5801137"><ele>990.8</ele><time>2026-05-03T08:08:49.007Z</time></trkpt><trkpt lat="43.7748506" lon="11.5801839"><ele>992.0</ele><time>2026-05-03T08:08:50.008Z</time></trkpt><trkpt lat="43.774787" lon="11.5802468"><ele>992.0</ele><time>2026-05-03T08:08:51.007Z</time></trkpt><trkpt lat="43.7747053" lon="11.5802665"><ele>992.0</ele><time>2026-05-03T08:08:52.008Z</time></trkpt><trkpt lat="43.774646" lon="11.5803144"><ele>992.0</ele><time>2026-05-03T08:08:53.008Z</time></trkpt><trkpt lat="43.7745175" lon="11.5804411"><ele>992.0</ele><time>2026-05-03T08:08:55.007Z</time></trkpt><trkpt lat="43.7744655" lon="11.5805211"><ele>992.0</ele><time>2026-05-03T08:08:56.008Z</time></trkpt><trkpt lat="43.7743993" lon="11.5806064"><ele>993.4000000000001</ele><time>2026-05-03T08:08:58.008Z</time></trkpt><trkpt lat="43.774412" lon="11.5807323"><ele>994.8000000000001</ele><time>2026-05-03T08:09:08.008Z</time></trkpt><trkpt lat="43.7743481" lon="11.5809251"><ele>996.2</ele><time>2026-05-03T08:09:10.008Z</time></trkpt><trkpt lat="43.7743214" lon="11.5810228"><ele>997.6</ele><time>2026-05-03T08:09:11.006Z</time></trkpt><trkpt lat="43.7742684" lon="11.5811265"><ele>999.0</ele><time>2026-05-03T08:09:12.007Z</time></trkpt><trkpt lat="43.7741504" lon="11.5811982"><ele>1000.75</ele><time>2026-05-03T08:09:13.008Z</time></trkpt><trkpt lat="43.7740548" lon="11.5812633"><ele>1002.5</ele><time>2026-05-03T08:09:14.008Z</time></trkpt><trkpt lat="43.7739386" lon="11.5813062"><ele>1004.25</ele><time>2026-05-03T08:09:15.007Z</time></trkpt><trkpt lat="43.7738364" lon="11.5813009"><ele>1006.0</ele><time>2026-05-03T08:09:16.007Z</time></trkpt><trkpt lat="43.7737171" lon="11.581373"><ele>1005.9999999999999</ele><time>2026-05-03T08:09:18.008Z</time></trkpt><trkpt lat="43.7736877" lon="11.581465"><ele>1006.0</ele><time>2026-05-03T08:09:19.008Z</time></trkpt><trkpt lat="43.7737302" lon="11.5815715"><ele>1006.0</ele><time>2026-05-03T08:09:20.008Z</time></trkpt><trkpt lat="43.7737865" lon="11.5816818"><ele>1006.0</ele><time>2026-05-03T08:09:21.008Z</time></trkpt><trkpt lat="43.7738229" lon="11.5817882"><ele>1005.9999999999999</ele><time>2026-05-03T08:09:22.008Z</time></trkpt><trkpt lat="43.7738364" lon="11.5819074"><ele>1006.0</ele><time>2026-05-03T08:09:23.008Z</time></trkpt><trkpt lat="43.7737762" lon="11.5820485"><ele>1007.8</ele><time>2026-05-03T08:09:24.008Z</time></trkpt><trkpt lat="43.7737444" lon="11.5821594"><ele>1009.5999999999999</ele><time>2026-05-03T08:09:25.007Z</time></trkpt><trkpt lat="43.7736936" lon="11.5822876"><ele>1011.4</ele><time>2026-05-03T08:09:26.008Z</time></trkpt><trkpt lat="43.7736415" lon="11.5824045"><ele>1013.2</ele><time>2026-05-03T08:09:27.008Z</time></trkpt><trkpt lat="43.7736487" lon="11.5825524"><ele>1015.0</ele><time>2026-05-03T08:09:28.008Z</time></trkpt><trkpt lat="43.7736512" lon="11.5826915"><ele>1015.0</ele><time>2026-05-03T08:09:29.008Z</time></trkpt><trkpt lat="43.7736405" lon="11.5828078"><ele>1015.0</ele><time>2026-05-03T08:09:30.008Z</time></trkpt><trkpt lat="43.7736126" lon="11.5829478"><ele>1015.0</ele><time>2026-05-03T08:09:31.008Z</time></trkpt><trkpt lat="43.77357" lon="11.5831058"><ele>1015.0</ele><time>2026-05-03T08:09:32.008Z</time></trkpt><trkpt lat="43.7734909" lon="11.583347"><ele>1017.0</ele><time>2026-05-03T08:09:33.008Z</time></trkpt><trkpt lat="43.7734404" lon="11.5835064"><ele>1019.0</ele><time>2026-05-03T08:09:34.008Z</time></trkpt><trkpt lat="43.7733961" lon="11.5836614"><ele>1021.0</ele><time>2026-05-03T08:09:35.008Z</time></trkpt><trkpt lat="43.7733765" lon="11.5837899"><ele>1023.0</ele><time>2026-05-03T08:09:36.008Z</time></trkpt><trkpt lat="43.7733692" lon="11.5839122"><ele>1025.0</ele><time>2026-05-03T08:09:37.007Z</time></trkpt><trkpt lat="43.7734319" lon="11.5839425"><ele>1027.2</ele><time>2026-05-03T08:09:38.006Z</time></trkpt><trkpt lat="43.7735225" lon="11.5839644"><ele>1029.4</ele><time>2026-05-03T08:09:40.006Z</time></trkpt><trkpt lat="43.7736069" lon="11.5839641"><ele>1031.6</ele><time>2026-05-03T08:09:42.008Z</time></trkpt><trkpt lat="43.7737247" lon="11.5838812"><ele>1033.8</ele><time>2026-05-03T08:09:43.007Z</time></trkpt><trkpt lat="43.7738003" lon="11.5838491"><ele>1036.0</ele><time>2026-05-03T08:09:44.007Z</time></trkpt><trkpt lat="43.773871" lon="11.5838094"><ele>1036.0</ele><time>2026-05-03T08:09:45.007Z</time></trkpt><trkpt lat="43.7739528" lon="11.5837525"><ele>1036.0</ele><time>2026-05-03T08:09:46.008Z</time></trkpt><trkpt lat="43.7740213" lon="11.5837077"><ele>1036.0</ele><time>2026-05-03T08:09:47.008Z</time></trkpt><trkpt lat="43.7741125" lon="11.5836455"><ele>1036.0</ele><time>2026-05-03T08:09:48.008Z</time></trkpt><trkpt lat="43.7742046" lon="11.5835522"><ele>1036.0</ele><time>2026-05-03T08:09:49.006Z</time></trkpt><trkpt lat="43.7742975" lon="11.5834884"><ele>1034.3999999999999</ele><time>2026-05-03T08:09:50.008Z</time></trkpt><trkpt lat="43.7743859" lon="11.5834203"><ele>1032.8</ele><time>2026-05-03T08:09:51.008Z</time></trkpt><trkpt lat="43.7745058" lon="11.5834075"><ele>1031.1999999999998</ele><time>2026-05-03T08:09:52.008Z</time></trkpt><trkpt lat="43.7745921" lon="11.5833951"><ele>1029.6</ele><time>2026-05-03T08:09:53.008Z</time></trkpt><trkpt lat="43.7746774" lon="11.5834123"><ele>1028.0</ele><time>2026-05-03T08:09:54.007Z</time></trkpt><trkpt lat="43.7747483" lon="11.5834375"><ele>1028.0</ele><time>2026-05-03T08:09:55.007Z</time></trkpt><trkpt lat="43.7748107" lon="11.5835109"><ele>1028.0</ele><time>2026-05-03T08:09:56.007Z</time></trkpt><trkpt lat="43.7748362" lon="11.5835977"><ele>1028.0</ele><time>2026-05-03T08:09:57.007Z</time></trkpt><trkpt lat="43.7748351" lon="11.5837796"><ele>1028.0</ele><time>2026-05-03T08:09:59.007Z</time></trkpt><trkpt lat="43.7748187" lon="11.5838929"><ele>1028.0</ele><time>2026-05-03T08:10:00.008Z</time></trkpt><trkpt lat="43.7747976" lon="11.5839975"><ele>1028.0</ele><time>2026-05-03T08:10:01.007Z</time></trkpt><trkpt lat="43.7747765" lon="11.5841194"><ele>1029.1666666666667</ele><time>2026-05-03T08:10:02.008Z</time></trkpt><trkpt lat="43.774753" lon="11.5842426"><ele>1030.3333333333335</ele><time>2026-05-03T08:10:03.007Z</time></trkpt><trkpt lat="43.7747347" lon="11.5843613"><ele>1031.5</ele><time>2026-05-03T08:10:04.007Z</time></trkpt><trkpt lat="43.7747369" lon="11.584482"><ele>1032.6666666666667</ele><time>2026-05-03T08:10:05.008Z</time></trkpt><trkpt lat="43.7747413" lon="11.5845997"><ele>1033.8333333333333</ele><time>2026-05-03T08:10:06.007Z</time></trkpt><trkpt lat="43.7747613" lon="11.5847069"><ele>1035.0</ele><time>2026-05-03T08:10:07.008Z</time></trkpt><trkpt lat="43.77479" lon="11.5848112"><ele>1036.8</ele><time>2026-05-03T08:10:08.008Z</time></trkpt><trkpt lat="43.7748449" lon="11.5848926"><ele>1038.6</ele><time>2026-05-03T08:10:09.008Z</time></trkpt><trkpt lat="43.7749096" lon="11.5849789"><ele>1040.4</ele><time>2026-05-03T08:10:10.007Z</time></trkpt><trkpt lat="43.7749344" lon="11.5850992"><ele>1042.2</ele><time>2026-05-03T08:10:12.007Z</time></trkpt><trkpt lat="43.7748623" lon="11.585139"><ele>1044.0</ele><time>2026-05-03T08:10:15.008Z</time></trkpt><trkpt lat="43.7747236" lon="11.5850995"><ele>1044.0</ele><time>2026-05-03T08:10:17.008Z</time></trkpt><trkpt lat="43.7746165" lon="11.5851167"><ele>1044.0</ele><time>2026-05-03T08:10:19.008Z</time></trkpt><trkpt lat="43.7745358" lon="11.5851595"><ele>1044.0</ele><time>2026-05-03T08:10:20.007Z</time></trkpt><trkpt lat="43.7744356" lon="11.5852263"><ele>1044.0</ele><time>2026-05-03T08:10:21.007Z</time></trkpt><trkpt lat="43.7743601" lon="11.5852788"><ele>1044.0</ele><time>2026-05-03T08:10:22.008Z</time></trkpt><trkpt lat="43.7742749" lon="11.5853452"><ele>1047.4</ele><time>2026-05-03T08:10:23.007Z</time></trkpt><trkpt lat="43.7741941" lon="11.5854335"><ele>1050.8000000000002</ele><time>2026-05-03T08:10:24.008Z</time></trkpt><trkpt lat="43.7741182" lon="11.5855019"><ele>1054.1999999999998</ele><time>2026-05-03T08:10:25.007Z</time></trkpt><trkpt lat="43.7740079" lon="11.5855999"><ele>1057.6</ele><time>2026-05-03T08:10:26.007Z</time></trkpt><trkpt lat="43.7739251" lon="11.5857087"><ele>1061.0</ele><time>2026-05-03T08:10:27.007Z</time></trkpt><trkpt lat="43.7738359" lon="11.5858087"><ele>1061.0</ele><time>2026-05-03T08:10:28.007Z</time></trkpt><trkpt lat="43.7737704" lon="11.5858865"><ele>1061.0</ele><time>2026-05-03T08:10:29.008Z</time></trkpt><trkpt lat="43.7736878" lon="11.5859764"><ele>1061.0</ele><time>2026-05-03T08:10:30.007Z</time></trkpt><trkpt lat="43.7735992" lon="11.5860565"><ele>1061.0</ele><time>2026-05-03T08:10:31.008Z</time></trkpt><trkpt lat="43.7735108" lon="11.5861994"><ele>1061.0</ele><time>2026-05-03T08:10:32.008Z</time></trkpt><trkpt lat="43.7733971" lon="11.5863655"><ele>1062.75</ele><time>2026-05-03T08:10:33.008Z</time></trkpt><trkpt lat="43.7733283" lon="11.58655"><ele>1064.5</ele><time>2026-05-03T08:10:34.007Z</time></trkpt><trkpt lat="43.7732625" lon="11.5866859"><ele>1066.25</ele><time>2026-05-03T08:10:35.008Z</time></trkpt><trkpt lat="43.7731771" lon="11.5868541"><ele>1068.0</ele><time>2026-05-03T08:10:36.007Z</time></trkpt><trkpt lat="43.7731459" lon="11.5870112"><ele>1069.5</ele><time>2026-05-03T08:10:37.007Z</time></trkpt><trkpt lat="43.7730929" lon="11.5871887"><ele>1071.0</ele><time>2026-05-03T08:10:38.008Z</time></trkpt><trkpt lat="43.7730391" lon="11.5873492"><ele>1072.5</ele><time>2026-05-03T08:10:39.007Z</time></trkpt><trkpt lat="43.7729818" lon="11.5874756"><ele>1074.0</ele><time>2026-05-03T08:10:40.007Z</time></trkpt><trkpt lat="43.7729315" lon="11.5876028"><ele>1074.0</ele><time>2026-05-03T08:10:41.007Z</time></trkpt><trkpt lat="43.772858" lon="11.587727"><ele>1074.0</ele><time>2026-05-03T08:10:42.008Z</time></trkpt><trkpt lat="43.7727919" lon="11.5877875"><ele>1074.0</ele><time>2026-05-03T08:10:43.006Z</time></trkpt><trkpt lat="43.7727058" lon="11.5878601"><ele>1074.0</ele><time>2026-05-03T08:10:45.006Z</time></trkpt><trkpt lat="43.7726345" lon="11.5878922"><ele>1074.0</ele><time>2026-05-03T08:10:47.007Z</time></trkpt><trkpt lat="43.7725438" lon="11.5879402"><ele>1076.1666666666667</ele><time>2026-05-03T08:10:49.007Z</time></trkpt><trkpt lat="43.7724828" lon="11.5879671"><ele>1078.3333333333333</ele><time>2026-05-03T08:10:51.007Z</time></trkpt><trkpt lat="43.7723991" lon="11.5879925"><ele>1080.5</ele><time>2026-05-03T08:10:54.007Z</time></trkpt><trkpt lat="43.7723104" lon="11.5880184"><ele>1082.6666666666665</ele><time>2026-05-03T08:10:57.008Z</time></trkpt><trkpt lat="43.7722383" lon="11.5880433"><ele>1084.8333333333333</ele><time>2026-05-03T08:10:59.008Z</time></trkpt><trkpt lat="43.7721778" lon="11.5880982"><ele>1087.0</ele><time>2026-05-03T08:11:01.008Z</time></trkpt><trkpt lat="43.7720963" lon="11.5881098"><ele>1087.0</ele><time>2026-05-03T08:11:03.008Z</time></trkpt><trkpt lat="43.7720339" lon="11.5881262"><ele>1087.0</ele><time>2026-05-03T08:11:04.008Z</time></trkpt><trkpt lat="43.7719481" lon="11.5881425"><ele>1087.0</ele><time>2026-05-03T08:11:05.007Z</time></trkpt><trkpt lat="43.7718808" lon="11.5881653"><ele>1087.0</ele><time>2026-05-03T08:11:06.007Z</time></trkpt><trkpt lat="43.7718101" lon="11.588171"><ele>1087.0</ele><time>2026-05-03T08:11:07.008Z</time></trkpt><trkpt lat="43.7717186" lon="11.5881652"><ele>1087.0</ele><time>2026-05-03T08:11:08.008Z</time></trkpt><trkpt lat="43.7716438" lon="11.5881431"><ele>1087.4</ele><time>2026-05-03T08:11:09.008Z</time></trkpt><trkpt lat="43.7715604" lon="11.5880808"><ele>1087.8000000000002</ele><time>2026-05-03T08:11:10.008Z</time></trkpt><trkpt lat="43.7714664" lon="11.5879836"><ele>1088.2</ele><time>2026-05-03T08:11:11.006Z</time></trkpt><trkpt lat="43.7713646" lon="11.5879095"><ele>1088.6000000000001</ele><time>2026-05-03T08:11:12.008Z</time></trkpt><trkpt lat="43.7712799" lon="11.5878419"><ele>1089.0</ele><time>2026-05-03T08:11:13.007Z</time></trkpt><trkpt lat="43.7712354" lon="11.5877739"><ele>1089.0</ele><time>2026-05-03T08:11:14.007Z</time></trkpt><trkpt lat="43.7712796" lon="11.5876629"><ele>1089.0</ele><time>2026-05-03T08:11:15.008Z</time></trkpt><trkpt lat="43.7713066" lon="11.5875402"><ele>1089.0</ele><time>2026-05-03T08:11:16.008Z</time></trkpt><trkpt lat="43.7713231" lon="11.5874027"><ele>1089.0</ele><time>2026-05-03T08:11:17.008Z</time></trkpt><trkpt lat="43.7713197" lon="11.5872654"><ele>1089.0</ele><time>2026-05-03T08:11:18.007Z</time></trkpt><trkpt lat="43.771321" lon="11.587117"><ele>1088.25</ele><time>2026-05-03T08:11:19.008Z</time></trkpt><trkpt lat="43.7713129" lon="11.5869415"><ele>1087.5</ele><time>2026-05-03T08:11:20.008Z</time></trkpt><trkpt lat="43.7712838" lon="11.5867632"><ele>1086.75</ele><time>2026-05-03T08:11:21.008Z</time></trkpt><trkpt lat="43.7712652" lon="11.5865993"><ele>1086.0</ele><time>2026-05-03T08:11:22.008Z</time></trkpt><trkpt lat="43.7712304" lon="11.5864316"><ele>1086.0</ele><time>2026-05-03T08:11:23.008Z</time></trkpt><trkpt lat="43.7711153" lon="11.5863858"><ele>1086.0</ele><time>2026-05-03T08:11:24.008Z</time></trkpt><trkpt lat="43.7710354" lon="11.5863058"><ele>1086.0</ele><time>2026-05-03T08:11:25.007Z</time></trkpt><trkpt lat="43.7709737" lon="11.5862262"><ele>1086.0</ele><time>2026-05-03T08:11:26.007Z</time></trkpt><trkpt lat="43.7709251" lon="11.5861479"><ele>1086.0</ele><time>2026-05-03T08:11:27.008Z</time></trkpt><trkpt lat="43.7708739" lon="11.5860967"><ele>1086.0</ele><time>2026-05-03T08:11:28.008Z</time></trkpt><trkpt lat="43.7708026" lon="11.5860432"><ele>1089.3333333333333</ele><time>2026-05-03T08:11:30.008Z</time></trkpt><trkpt lat="43.7707506" lon="11.5859658"><ele>1092.6666666666667</ele><time>2026-05-03T08:11:32.007Z</time></trkpt><trkpt lat="43.7706919" lon="11.5858853"><ele>1096.0</ele><time>2026-05-03T08:11:36.008Z</time></trkpt><trkpt lat="43.7706404" lon="11.5858134"><ele>1099.3333333333335</ele><time>2026-05-03T08:11:38.008Z</time></trkpt><trkpt lat="43.7705827" lon="11.5857243"><ele>1102.6666666666667</ele><time>2026-05-03T08:11:40.008Z</time></trkpt><trkpt lat="43.770548" lon="11.5856181"><ele>1106.0</ele><time>2026-05-03T08:11:42.007Z</time></trkpt><trkpt lat="43.7705234" lon="11.5854912"><ele>1106.0</ele><time>2026-05-03T08:11:44.008Z</time></trkpt><trkpt lat="43.7705086" lon="11.585349"><ele>1106.0</ele><time>2026-05-03T08:11:46.008Z</time></trkpt><trkpt lat="43.7705027" lon="11.58519"><ele>1106.0</ele><time>2026-05-03T08:11:48.008Z</time></trkpt><trkpt lat="43.7704878" lon="11.5850238"><ele>1106.0</ele><time>2026-05-03T08:11:50.007Z</time></trkpt><trkpt lat="43.7704746" lon="11.5849229"><ele>1106.0</ele><time>2026-05-03T08:11:51.007Z</time></trkpt><trkpt lat="43.7704494" lon="11.5848382"><ele>1106.6666666666667</ele><time>2026-05-03T08:11:52.007Z</time></trkpt><trkpt lat="43.7703805" lon="11.5847612"><ele>1107.3333333333335</ele><time>2026-05-03T08:11:53.006Z</time></trkpt><trkpt lat="43.7703286" lon="11.5846946"><ele>1108.0</ele><time>2026-05-03T08:11:54.008Z</time></trkpt><trkpt lat="43.7702683" lon="11.5846278"><ele>1108.6666666666667</ele><time>2026-05-03T08:11:55.008Z</time></trkpt><trkpt lat="43.7701974" lon="11.5845672"><ele>1109.3333333333333</ele><time>2026-05-03T08:11:56.006Z</time></trkpt><trkpt lat="43.7701252" lon="11.5845085"><ele>1110.0</ele><time>2026-05-03T08:11:57.008Z</time></trkpt><trkpt lat="43.7700492" lon="11.5844349"><ele>1110.0</ele><time>2026-05-03T08:11:58.008Z</time></trkpt><trkpt lat="43.7699849" lon="11.5843637"><ele>1110.0</ele><time>2026-05-03T08:11:59.008Z</time></trkpt><trkpt lat="43.769902" lon="11.5843058"><ele>1110.0</ele><time>2026-05-03T08:12:00.008Z</time></trkpt><trkpt lat="43.7697965" lon="11.584219"><ele>1110.0</ele><time>2026-05-03T08:12:01.007Z</time></trkpt><trkpt lat="43.769698" lon="11.5841048"><ele>1110.0</ele><time>2026-05-03T08:12:02.008Z</time></trkpt><trkpt lat="43.769619" lon="11.5840077"><ele>1110.0</ele><time>2026-05-03T08:12:03.008Z</time></trkpt><trkpt lat="43.7695535" lon="11.5838779"><ele>1110.0</ele><time>2026-05-03T08:12:04.008Z</time></trkpt><trkpt lat="43.7694523" lon="11.5837527"><ele>1110.0</ele><time>2026-05-03T08:12:05.008Z</time></trkpt><trkpt lat="43.7693789" lon="11.583649"><ele>1110.0</ele><time>2026-05-03T08:12:06.008Z</time></trkpt><trkpt lat="43.769302" lon="11.5835741"><ele>1110.0</ele><time>2026-05-03T08:12:07.007Z</time></trkpt><trkpt lat="43.7692213" lon="11.5834941"><ele>1110.2</ele><time>2026-05-03T08:12:08.008Z</time></trkpt><trkpt lat="43.7691306" lon="11.5834168"><ele>1110.4</ele><time>2026-05-03T08:12:09.007Z</time></trkpt><trkpt lat="43.769036" lon="11.5833354"><ele>1110.6</ele><time>2026-05-03T08:12:10.006Z</time></trkpt><trkpt lat="43.7689456" lon="11.5832724"><ele>1110.8</ele><time>2026-05-03T08:12:11.006Z</time></trkpt><trkpt lat="43.7688582" lon="11.5832123"><ele>1111.0</ele><time>2026-05-03T08:12:12.006Z</time></trkpt><trkpt lat="43.7687781" lon="11.5831568"><ele>1111.0</ele><time>2026-05-03T08:12:13.007Z</time></trkpt><trkpt lat="43.7686822" lon="11.5830913"><ele>1111.0</ele><time>2026-05-03T08:12:14.008Z</time></trkpt><trkpt lat="43.7685977" lon="11.5830349"><ele>1111.0</ele><time>2026-05-03T08:12:15.008Z</time></trkpt><trkpt lat="43.7685107" lon="11.5829862"><ele>1111.0</ele><time>2026-05-03T08:12:16.007Z</time></trkpt><trkpt lat="43.7684365" lon="11.5829439"><ele>1111.0</ele><time>2026-05-03T08:12:17.008Z</time></trkpt><trkpt lat="43.7683664" lon="11.5829599"><ele>1111.0</ele><time>2026-05-03T08:12:18.008Z</time></trkpt><trkpt lat="43.7682929" lon="11.5829715"><ele>1110.0</ele><time>2026-05-03T08:12:19.008Z</time></trkpt><trkpt lat="43.7682302" lon="11.5829869"><ele>1109.0</ele><time>2026-05-03T08:12:20.007Z</time></trkpt><trkpt lat="43.7681206" lon="11.5830359"><ele>1108.0</ele><time>2026-05-03T08:12:22.008Z</time></trkpt><trkpt lat="43.7680458" lon="11.5830788"><ele>1107.0</ele><time>2026-05-03T08:12:24.007Z</time></trkpt><trkpt lat="43.7679766" lon="11.5831218"><ele>1106.0</ele><time>2026-05-03T08:12:26.008Z</time></trkpt><trkpt lat="43.7678887" lon="11.5831912"><ele>1105.0</ele><time>2026-05-03T08:12:28.008Z</time></trkpt><trkpt lat="43.7678283" lon="11.5832449"><ele>1105.0</ele><time>2026-05-03T08:12:29.008Z</time></trkpt><trkpt lat="43.7677374" lon="11.5833258"><ele>1105.0</ele><time>2026-05-03T08:12:30.008Z</time></trkpt><trkpt lat="43.7676385" lon="11.5833897"><ele>1105.0</ele><time>2026-05-03T08:12:31.008Z</time></trkpt><trkpt lat="43.7675488" lon="11.5834554"><ele>1105.0</ele><time>2026-05-03T08:12:32.008Z</time></trkpt><trkpt lat="43.7674648" lon="11.583511"><ele>1105.0</ele><time>2026-05-03T08:12:33.007Z</time></trkpt><trkpt lat="43.76738" lon="11.5835239"><ele>1104.1666666666665</ele><time>2026-05-03T08:12:34.008Z</time></trkpt><trkpt lat="43.7673071" lon="11.5834999"><ele>1103.3333333333333</ele><time>2026-05-03T08:12:35.008Z</time></trkpt><trkpt lat="43.7672276" lon="11.5834672"><ele>1102.5</ele><time>2026-05-03T08:12:36.006Z</time></trkpt><trkpt lat="43.7671456" lon="11.5834323"><ele>1101.6666666666667</ele><time>2026-05-03T08:12:37.008Z</time></trkpt><trkpt lat="43.7670541" lon="11.5833642"><ele>1100.8333333333335</ele><time>2026-05-03T08:12:38.007Z</time></trkpt><trkpt lat="43.7669787" lon="11.5832737"><ele>1100.0</ele><time>2026-05-03T08:12:39.008Z</time></trkpt><trkpt lat="43.7668878" lon="11.5832276"><ele>1098.5</ele><time>2026-05-03T08:12:40.007Z</time></trkpt><trkpt lat="43.7667888" lon="11.5832348"><ele>1097.0</ele><time>2026-05-03T08:12:41.008Z</time></trkpt><trkpt lat="43.766687" lon="11.583249"><ele>1095.5</ele><time>2026-05-03T08:12:42.007Z</time></trkpt><trkpt lat="43.7666103" lon="11.5832576"><ele>1094.0</ele><time>2026-05-03T08:12:43.008Z</time></trkpt><trkpt lat="43.7665397" lon="11.58325"><ele>1092.5</ele><time>2026-05-03T08:12:44.008Z</time></trkpt><trkpt lat="43.7664823" lon="11.583207"><ele>1091.0</ele><time>2026-05-03T08:12:45.007Z</time></trkpt><trkpt lat="43.7664269" lon="11.5830967"><ele>1091.0</ele><time>2026-05-03T08:12:46.008Z</time></trkpt><trkpt lat="43.7663734" lon="11.5829652"><ele>1091.0</ele><time>2026-05-03T08:12:47.007Z</time></trkpt><trkpt lat="43.7663097" lon="11.582838"><ele>1091.0</ele><time>2026-05-03T08:12:48.008Z</time></trkpt><trkpt lat="43.7662564" lon="11.5827238"><ele>1091.0</ele><time>2026-05-03T08:12:49.008Z</time></trkpt><trkpt lat="43.7662265" lon="11.5825769"><ele>1091.0</ele><time>2026-05-03T08:12:50.007Z</time></trkpt><trkpt lat="43.7661999" lon="11.5824264"><ele>1089.8</ele><time>2026-05-03T08:12:51.007Z</time></trkpt><trkpt lat="43.7661641" lon="11.5822832"><ele>1088.6</ele><time>2026-05-03T08:12:52.008Z</time></trkpt><trkpt lat="43.7661186" lon="11.5821571"><ele>1087.4</ele><time>2026-05-03T08:12:53.007Z</time></trkpt><trkpt lat="43.7660723" lon="11.5820305"><ele>1086.2</ele><time>2026-05-03T08:12:54.007Z</time></trkpt><trkpt lat="43.7659836" lon="11.581939"><ele>1085.0</ele><time>2026-05-03T08:12:55.008Z</time></trkpt><trkpt lat="43.765864" lon="11.581933"><ele>1085.0</ele><time>2026-05-03T08:12:56.008Z</time></trkpt><trkpt lat="43.7657221" lon="11.581949"><ele>1085.0</ele><time>2026-05-03T08:12:57.008Z</time></trkpt><trkpt lat="43.7655901" lon="11.5819352"><ele>1085.0</ele><time>2026-05-03T08:12:58.008Z</time></trkpt><trkpt lat="43.7654664" lon="11.581923"><ele>1085.0</ele><time>2026-05-03T08:12:59.007Z</time></trkpt><trkpt lat="43.765354" lon="11.5819531"><ele>1085.0</ele><time>2026-05-03T08:13:00.008Z</time></trkpt><trkpt lat="43.7652443" lon="11.5819672"><ele>1085.0</ele><time>2026-05-03T08:13:01.008Z</time></trkpt><trkpt lat="43.7651226" lon="11.5819929"><ele>1085.0</ele><time>2026-05-03T08:13:02.008Z</time></trkpt><trkpt lat="43.7649988" lon="11.5820399"><ele>1085.0</ele><time>2026-05-03T08:13:03.008Z</time></trkpt><trkpt lat="43.7648756" lon="11.5820578"><ele>1084.75</ele><time>2026-05-03T08:13:04.008Z</time></trkpt><trkpt lat="43.7647608" lon="11.582077"><ele>1084.5</ele><time>2026-05-03T08:13:05.008Z</time></trkpt><trkpt lat="43.7646427" lon="11.5820998"><ele>1084.25</ele><time>2026-05-03T08:13:06.008Z</time></trkpt><trkpt lat="43.7645337" lon="11.5821303"><ele>1084.0</ele><time>2026-05-03T08:13:07.007Z</time></trkpt><trkpt lat="43.7644275" lon="11.5821521"><ele>1086.75</ele><time>2026-05-03T08:13:08.008Z</time></trkpt><trkpt lat="43.7643243" lon="11.5821823"><ele>1089.5</ele><time>2026-05-03T08:13:09.008Z</time></trkpt><trkpt lat="43.7642125" lon="11.5822258"><ele>1092.25</ele><time>2026-05-03T08:13:10.008Z</time></trkpt><trkpt lat="43.7640901" lon="11.5822729"><ele>1095.0</ele><time>2026-05-03T08:13:11.008Z</time></trkpt><trkpt lat="43.7639634" lon="11.5823078"><ele>1095.0</ele><time>2026-05-03T08:13:12.007Z</time></trkpt><trkpt lat="43.7638457" lon="11.5823304"><ele>1095.0</ele><time>2026-05-03T08:13:13.008Z</time></trkpt><trkpt lat="43.7637229" lon="11.5823603"><ele>1095.0</ele><time>2026-05-03T08:13:14.008Z</time></trkpt><trkpt lat="43.7636096" lon="11.5823769"><ele>1095.0</ele><time>2026-05-03T08:13:15.006Z</time></trkpt><trkpt lat="43.7634884" lon="11.5824016"><ele>1097.0</ele><time>2026-05-03T08:13:16.007Z</time></trkpt><trkpt lat="43.7633679" lon="11.5824456"><ele>1099.0</ele><time>2026-05-03T08:13:17.006Z</time></trkpt><trkpt lat="43.7632524" lon="11.5825037"><ele>1101.0</ele><time>2026-05-03T08:13:18.008Z</time></trkpt><trkpt lat="43.7631301" lon="11.5825475"><ele>1103.0</ele><time>2026-05-03T08:13:19.008Z</time></trkpt><trkpt lat="43.7630135" lon="11.5826022"><ele>1103.0</ele><time>2026-05-03T08:13:20.008Z</time></trkpt><trkpt lat="43.7629033" lon="11.5825878"><ele>1103.0</ele><time>2026-05-03T08:13:21.007Z</time></trkpt><trkpt lat="43.762789" lon="11.5826138"><ele>1103.0</ele><time>2026-05-03T08:13:22.008Z</time></trkpt><trkpt lat="43.7627111" lon="11.5826606"><ele>1103.0</ele><time>2026-05-03T08:13:23.007Z</time></trkpt><trkpt lat="43.7625976" lon="11.582696"><ele>1103.0</ele><time>2026-05-03T08:13:24.008Z</time></trkpt><trkpt lat="43.7624866" lon="11.5827388"><ele>1102.8</ele><time>2026-05-03T08:13:25.008Z</time></trkpt><trkpt lat="43.7623711" lon="11.5828261"><ele>1102.6</ele><time>2026-05-03T08:13:26.008Z</time></trkpt><trkpt lat="43.7622645" lon="11.5828744"><ele>1102.4</ele><time>2026-05-03T08:13:27.008Z</time></trkpt><trkpt lat="43.7621904" lon="11.5828755"><ele>1102.2</ele><time>2026-05-03T08:13:28.008Z</time></trkpt><trkpt lat="43.762119" lon="11.5828888"><ele>1102.0</ele><time>2026-05-03T08:13:29.008Z</time></trkpt><trkpt lat="43.7620565" lon="11.5829299"><ele>1102.0</ele><time>2026-05-03T08:13:33.007Z</time></trkpt><trkpt lat="43.7619707" lon="11.5829273"><ele>1102.0</ele><time>2026-05-03T08:13:52.006Z</time></trkpt><trkpt lat="43.7618637" lon="11.58291"><ele>1102.0</ele><time>2026-05-03T08:13:54.008Z</time></trkpt><trkpt lat="43.76177" lon="11.5829015"><ele>1102.0</ele><time>2026-05-03T08:13:55.007Z</time></trkpt><trkpt lat="43.7616891" lon="11.5828823"><ele>1102.0</ele><time>2026-05-03T08:13:56.008Z</time></trkpt><trkpt lat="43.7616047" lon="11.5828591"><ele>1104.6</ele><time>2026-05-03T08:13:57.007Z</time></trkpt><trkpt lat="43.7615013" lon="11.5827937"><ele>1107.2</ele><time>2026-05-03T08:13:58.007Z</time></trkpt><trkpt lat="43.7613964" lon="11.5827564"><ele>1109.8</ele><time>2026-05-03T08:13:59.008Z</time></trkpt><trkpt lat="43.7612963" lon="11.5827123"><ele>1112.4</ele><time>2026-05-03T08:14:00.008Z</time></trkpt><trkpt lat="43.7611997" lon="11.5826717"><ele>1115.0</ele><time>2026-05-03T08:14:01.008Z</time></trkpt><trkpt lat="43.7611057" lon="11.5826173"><ele>1114.4</ele><time>2026-05-03T08:14:02.007Z</time></trkpt><trkpt lat="43.7610159" lon="11.5825596"><ele>1113.8</ele><time>2026-05-03T08:14:03.008Z</time></trkpt><trkpt lat="43.7609262" lon="11.5825044"><ele>1113.2</ele><time>2026-05-03T08:14:04.008Z</time></trkpt><trkpt lat="43.7608373" lon="11.5824553"><ele>1112.6</ele><time>2026-05-03T08:14:05.007Z</time></trkpt><trkpt lat="43.7607582" lon="11.5824386"><ele>1112.0</ele><time>2026-05-03T08:14:06.008Z</time></trkpt><trkpt lat="43.7606761" lon="11.5824478"><ele>1112.0</ele><time>2026-05-03T08:14:07.008Z</time></trkpt><trkpt lat="43.7605848" lon="11.5825019"><ele>1112.0</ele><time>2026-05-03T08:14:08.008Z</time></trkpt><trkpt lat="43.7604891" lon="11.5825674"><ele>1112.0</ele><time>2026-05-03T08:14:09.008Z</time></trkpt><trkpt lat="43.7603884" lon="11.5826454"><ele>1112.0</ele><time>2026-05-03T08:14:10.007Z</time></trkpt><trkpt lat="43.760289" lon="11.5827244"><ele>1112.0</ele><time>2026-05-03T08:14:11.007Z</time></trkpt><trkpt lat="43.7602051" lon="11.5828179"><ele>1110.8</ele><time>2026-05-03T08:14:12.007Z</time></trkpt><trkpt lat="43.7601332" lon="11.5829048"><ele>1109.6</ele><time>2026-05-03T08:14:13.007Z</time></trkpt><trkpt lat="43.7600638" lon="11.5829823"><ele>1108.3999999999999</ele><time>2026-05-03T08:14:14.008Z</time></trkpt><trkpt lat="43.7599885" lon="11.5830673"><ele>1107.2</ele><time>2026-05-03T08:14:15.008Z</time></trkpt><trkpt lat="43.7599159" lon="11.5831328"><ele>1106.0</ele><time>2026-05-03T08:14:16.008Z</time></trkpt><trkpt lat="43.7598466" lon="11.583196"><ele>1106.0</ele><time>2026-05-03T08:14:17.008Z</time></trkpt><trkpt lat="43.7597759" lon="11.5832567"><ele>1106.0</ele><time>2026-05-03T08:14:18.008Z</time></trkpt><trkpt lat="43.7597124" lon="11.583298"><ele>1106.0</ele><time>2026-05-03T08:14:19.008Z</time></trkpt><trkpt lat="43.7596477" lon="11.583327"><ele>1106.0</ele><time>2026-05-03T08:14:20.008Z</time></trkpt><trkpt lat="43.7595842" lon="11.5833563"><ele>1106.0</ele><time>2026-05-03T08:14:21.008Z</time></trkpt><trkpt lat="43.7594801" lon="11.5834686"><ele>1106.0</ele><time>2026-05-03T08:14:23.007Z</time></trkpt><trkpt lat="43.7594029" lon="11.5835426"><ele>1105.8</ele><time>2026-05-03T08:14:24.007Z</time></trkpt><trkpt lat="43.7593" lon="11.5836287"><ele>1105.6</ele><time>2026-05-03T08:14:25.007Z</time></trkpt><trkpt lat="43.759212" lon="11.5837089"><ele>1105.4</ele><time>2026-05-03T08:14:26.008Z</time></trkpt><trkpt lat="43.7591297" lon="11.5837863"><ele>1105.2</ele><time>2026-05-03T08:14:27.007Z</time></trkpt><trkpt lat="43.7590571" lon="11.5838641"><ele>1105.0</ele><time>2026-05-03T08:14:28.008Z</time></trkpt><trkpt lat="43.7589939" lon="11.5839435"><ele>1105.8333333333333</ele><time>2026-05-03T08:14:29.008Z</time></trkpt><trkpt lat="43.7589342" lon="11.5840152"><ele>1106.6666666666665</ele><time>2026-05-03T08:14:30.008Z</time></trkpt><trkpt lat="43.7588952" lon="11.584091"><ele>1107.5</ele><time>2026-05-03T08:14:31.008Z</time></trkpt><trkpt lat="43.7588546" lon="11.5841667"><ele>1108.3333333333333</ele><time>2026-05-03T08:14:32.008Z</time></trkpt><trkpt lat="43.7588953" lon="11.5843144"><ele>1109.1666666666667</ele><time>2026-05-03T08:14:33.007Z</time></trkpt><trkpt lat="43.7589237" lon="11.5844492"><ele>1110.0</ele><time>2026-05-03T08:14:34.008Z</time></trkpt><trkpt lat="43.7589616" lon="11.584589"><ele>1110.5</ele><time>2026-05-03T08:14:35.007Z</time></trkpt><trkpt lat="43.758983" lon="11.5847418"><ele>1111.0</ele><time>2026-05-03T08:14:36.008Z</time></trkpt><trkpt lat="43.7589978" lon="11.584897"><ele>1111.5</ele><time>2026-05-03T08:14:37.007Z</time></trkpt><trkpt lat="43.7590146" lon="11.5850455"><ele>1112.0</ele><time>2026-05-03T08:14:38.007Z</time></trkpt><trkpt lat="43.7590462" lon="11.5852145"><ele>1113.4</ele><time>2026-05-03T08:14:39.006Z</time></trkpt><trkpt lat="43.7590691" lon="11.5853643"><ele>1114.8000000000002</ele><time>2026-05-03T08:14:40.008Z</time></trkpt><trkpt lat="43.7590733" lon="11.5854957"><ele>1116.2</ele><time>2026-05-03T08:14:41.007Z</time></trkpt><trkpt lat="43.7590569" lon="11.5856226"><ele>1117.6000000000001</ele><time>2026-05-03T08:14:42.007Z</time></trkpt><trkpt lat="43.7590254" lon="11.5857619"><ele>1119.0</ele><time>2026-05-03T08:14:43.008Z</time></trkpt><trkpt lat="43.7589802" lon="11.585903"><ele>1119.0</ele><time>2026-05-03T08:14:44.008Z</time></trkpt><trkpt lat="43.7589574" lon="11.5860091"><ele>1119.0</ele><time>2026-05-03T08:14:45.007Z</time></trkpt><trkpt lat="43.7589426" lon="11.5861013"><ele>1119.0</ele><time>2026-05-03T08:14:46.008Z</time></trkpt><trkpt lat="43.7589978" lon="11.5862319"><ele>1119.0</ele><time>2026-05-03T08:14:48.008Z</time></trkpt><trkpt lat="43.7591025" lon="11.5862865"><ele>1119.0</ele><time>2026-05-03T08:14:50.008Z</time></trkpt><trkpt lat="43.7591805" lon="11.5863051"><ele>1119.0</ele><time>2026-05-03T08:14:51.008Z</time></trkpt><trkpt lat="43.7592788" lon="11.5863292"><ele>1120.0</ele><time>2026-05-03T08:14:52.007Z</time></trkpt><trkpt lat="43.7593775" lon="11.5863394"><ele>1121.0</ele><time>2026-05-03T08:14:53.008Z</time></trkpt><trkpt lat="43.7594512" lon="11.5863723"><ele>1122.0</ele><time>2026-05-03T08:14:54.007Z</time></trkpt><trkpt lat="43.7595264" lon="11.5863958"><ele>1123.0</ele><time>2026-05-03T08:14:55.006Z</time></trkpt><trkpt lat="43.7595895" lon="11.5864913"><ele>1124.0</ele><time>2026-05-03T08:14:56.007Z</time></trkpt><trkpt lat="43.7596416" lon="11.5865633"><ele>1125.0</ele><time>2026-05-03T08:14:57.007Z</time></trkpt><trkpt lat="43.7596748" lon="11.5866599"><ele>1125.0</ele><time>2026-05-03T08:14:58.008Z</time></trkpt><trkpt lat="43.7596747" lon="11.5867505"><ele>1125.0</ele><time>2026-05-03T08:14:59.008Z</time></trkpt><trkpt lat="43.7595963" lon="11.5869387"><ele>1125.0</ele><time>2026-05-03T08:15:01.008Z</time></trkpt><trkpt lat="43.7595483" lon="11.5870505"><ele>1125.0</ele><time>2026-05-03T08:15:02.007Z</time></trkpt><trkpt lat="43.7594911" lon="11.5871654"><ele>1125.0</ele><time>2026-05-03T08:15:03.007Z</time></trkpt><trkpt lat="43.7594385" lon="11.5872742"><ele>1124.8</ele><time>2026-05-03T08:15:04.007Z</time></trkpt><trkpt lat="43.7593705" lon="11.5873903"><ele>1124.6</ele><time>2026-05-03T08:15:05.008Z</time></trkpt><trkpt lat="43.7592999" lon="11.5874919"><ele>1124.4</ele><time>2026-05-03T08:15:06.007Z</time></trkpt><trkpt lat="43.759229" lon="11.5875468"><ele>1124.2</ele><time>2026-05-03T08:15:07.007Z</time></trkpt><trkpt lat="43.7591415" lon="11.5875912"><ele>1124.0</ele><time>2026-05-03T08:15:08.008Z</time></trkpt><trkpt lat="43.7590687" lon="11.58762"><ele>1125.3333333333335</ele><time>2026-05-03T08:15:09.008Z</time></trkpt><trkpt lat="43.7590017" lon="11.5876638"><ele>1126.6666666666667</ele><time>2026-05-03T08:15:10.007Z</time></trkpt><trkpt lat="43.758888" lon="11.587692"><ele>1128.0</ele><time>2026-05-03T08:15:12.007Z</time></trkpt><trkpt lat="43.7588227" lon="11.5876923"><ele>1129.3333333333333</ele><time>2026-05-03T08:15:13.007Z</time></trkpt><trkpt lat="43.7587482" lon="11.5876811"><ele>1130.6666666666665</ele><time>2026-05-03T08:15:14.007Z</time></trkpt><trkpt lat="43.7586743" lon="11.587645"><ele>1132.0</ele><time>2026-05-03T08:15:15.007Z</time></trkpt><trkpt lat="43.7586056" lon="11.5875677"><ele>1133.8</ele><time>2026-05-03T08:15:16.008Z</time></trkpt><trkpt lat="43.7585298" lon="11.5874974"><ele>1135.6</ele><time>2026-05-03T08:15:17.007Z</time></trkpt><trkpt lat="43.758433" lon="11.587442"><ele>1137.3999999999999</ele><time>2026-05-03T08:15:18.007Z</time></trkpt><trkpt lat="43.7583263" lon="11.58742"><ele>1139.2</ele><time>2026-05-03T08:15:19.007Z</time></trkpt><trkpt lat="43.758239" lon="11.5873804"><ele>1141.0</ele><time>2026-05-03T08:15:20.008Z</time></trkpt><trkpt lat="43.7581723" lon="11.5874003"><ele>1141.0</ele><time>2026-05-03T08:15:21.007Z</time></trkpt><trkpt lat="43.758107" lon="11.5873923"><ele>1141.0</ele><time>2026-05-03T08:15:22.008Z</time></trkpt><trkpt lat="43.7580512" lon="11.5874363"><ele>1141.0</ele><time>2026-05-03T08:15:23.007Z</time></trkpt><trkpt lat="43.7580085" lon="11.5875682"><ele>1141.0</ele><time>2026-05-03T08:15:24.006Z</time></trkpt><trkpt lat="43.7579495" lon="11.5876347"><ele>1141.0</ele><time>2026-05-03T08:15:25.008Z</time></trkpt><trkpt lat="43.7578964" lon="11.5877267"><ele>1141.0</ele><time>2026-05-03T08:15:26.007Z</time></trkpt><trkpt lat="43.7578096" lon="11.58776"><ele>1141.0</ele><time>2026-05-03T08:15:27.008Z</time></trkpt><trkpt lat="43.7577417" lon="11.5877563"><ele>1141.0</ele><time>2026-05-03T08:15:28.008Z</time></trkpt><trkpt lat="43.7576632" lon="11.587733"><ele>1141.0</ele><time>2026-05-03T08:15:29.008Z</time></trkpt><trkpt lat="43.7575907" lon="11.5877063"><ele>1141.0</ele><time>2026-05-03T08:15:30.008Z</time></trkpt><trkpt lat="43.757511" lon="11.5876826"><ele>1141.0</ele><time>2026-05-03T08:15:31.007Z</time></trkpt><trkpt lat="43.757449" lon="11.5876349"><ele>1141.0</ele><time>2026-05-03T08:15:32.008Z</time></trkpt><trkpt lat="43.757353" lon="11.5875428"><ele>1143.3999999999999</ele><time>2026-05-03T08:15:34.007Z</time></trkpt><trkpt lat="43.7574349" lon="11.5874144"><ele>1145.8</ele><time>2026-05-03T08:15:36.008Z</time></trkpt><trkpt lat="43.7574669" lon="11.5873345"><ele>1148.1999999999998</ele><time>2026-05-03T08:15:37.007Z</time></trkpt><trkpt lat="43.7575423" lon="11.5872629"><ele>1150.6</ele><time>2026-05-03T08:15:38.006Z</time></trkpt><trkpt lat="43.757533" lon="11.5871576"><ele>1153.0</ele><time>2026-05-03T08:15:40.008Z</time></trkpt><trkpt lat="43.757413" lon="11.5872164"><ele>1153.0</ele><time>2026-05-03T08:15:41.008Z</time></trkpt><trkpt lat="43.7573037" lon="11.5873466"><ele>1153.0</ele><time>2026-05-03T08:15:42.007Z</time></trkpt><trkpt lat="43.7572024" lon="11.5874022"><ele>1153.0</ele><time>2026-05-03T08:15:43.008Z</time></trkpt><trkpt lat="43.7571232" lon="11.5874552"><ele>1153.0</ele><time>2026-05-03T08:15:44.007Z</time></trkpt><trkpt lat="43.7570422" lon="11.5875562"><ele>1153.0</ele><time>2026-05-03T08:15:45.007Z</time></trkpt><trkpt lat="43.7569701" lon="11.5875751"><ele>1153.0</ele><time>2026-05-03T08:15:46.007Z</time></trkpt><trkpt lat="43.7568888" lon="11.5876308"><ele>1153.0</ele><time>2026-05-03T08:15:47.008Z</time></trkpt><trkpt lat="43.7568106" lon="11.5876639"><ele>1153.0</ele><time>2026-05-03T08:15:48.008Z</time></trkpt><trkpt lat="43.7567307" lon="11.5876795"><ele>1153.0</ele><time>2026-05-03T08:15:49.007Z</time></trkpt><trkpt lat="43.7566417" lon="11.5876945"><ele>1153.0</ele><time>2026-05-03T08:15:50.006Z</time></trkpt><trkpt lat="43.756556" lon="11.5877011"><ele>1155.0</ele><time>2026-05-03T08:15:51.007Z</time></trkpt><trkpt lat="43.7564915" lon="11.5876376"><ele>1157.0</ele><time>2026-05-03T08:15:52.008Z</time></trkpt><trkpt lat="43.7564053" lon="11.5875865"><ele>1159.0</ele><time>2026-05-03T08:15:53.007Z</time></trkpt><trkpt lat="43.7563157" lon="11.5875251"><ele>1161.0</ele><time>2026-05-03T08:15:54.008Z</time></trkpt><trkpt lat="43.7562325" lon="11.5874824"><ele>1163.0</ele><time>2026-05-03T08:15:55.007Z</time></trkpt><trkpt lat="43.756169" lon="11.5874289"><ele>1165.0</ele><time>2026-05-03T08:15:56.007Z</time></trkpt><trkpt lat="43.7560991" lon="11.5873866"><ele>1164.9999999999998</ele><time>2026-05-03T08:15:57.008Z</time></trkpt><trkpt lat="43.7560597" lon="11.5873145"><ele>1165.0</ele><time>2026-05-03T08:15:58.008Z</time></trkpt><trkpt lat="43.7560511" lon="11.5871922"><ele>1165.0</ele><time>2026-05-03T08:15:59.008Z</time></trkpt><trkpt lat="43.756072" lon="11.5870845"><ele>1165.0</ele><time>2026-05-03T08:16:00.008Z</time></trkpt><trkpt lat="43.756091" lon="11.5869999"><ele>1165.0</ele><time>2026-05-03T08:16:01.008Z</time></trkpt><trkpt lat="43.7560915" lon="11.5869048"><ele>1164.9999999999998</ele><time>2026-05-03T08:16:02.007Z</time></trkpt><trkpt lat="43.7560668" lon="11.5868055"><ele>1165.0</ele><time>2026-05-03T08:16:03.008Z</time></trkpt><trkpt lat="43.7560124" lon="11.5866937"><ele>1167.6666666666665</ele><time>2026-05-03T08:16:04.007Z</time></trkpt><trkpt lat="43.7559741" lon="11.5865812"><ele>1170.3333333333333</ele><time>2026-05-03T08:16:05.008Z</time></trkpt><trkpt lat="43.7559257" lon="11.5864604"><ele>1173.0</ele><time>2026-05-03T08:16:06.008Z</time></trkpt><trkpt lat="43.7558628" lon="11.5863729"><ele>1175.6666666666667</ele><time>2026-05-03T08:16:07.007Z</time></trkpt><trkpt lat="43.7558087" lon="11.5862703"><ele>1178.3333333333335</ele><time>2026-05-03T08:16:08.008Z</time></trkpt><trkpt lat="43.7557622" lon="11.5862001"><ele>1181.0</ele><time>2026-05-03T08:16:09.007Z</time></trkpt><trkpt lat="43.7556607" lon="11.5861856"><ele>1181.0</ele><time>2026-05-03T08:16:10.007Z</time></trkpt><trkpt lat="43.755586" lon="11.5862209"><ele>1181.0</ele><time>2026-05-03T08:16:11.007Z</time></trkpt><trkpt lat="43.7555048" lon="11.5861716"><ele>1181.0</ele><time>2026-05-03T08:16:12.007Z</time></trkpt><trkpt lat="43.7554138" lon="11.586131"><ele>1181.0</ele><time>2026-05-03T08:16:13.007Z</time></trkpt><trkpt lat="43.7553243" lon="11.5860899"><ele>1181.0</ele><time>2026-05-03T08:16:14.006Z</time></trkpt><trkpt lat="43.7552073" lon="11.5860215"><ele>1183.1666666666667</ele><time>2026-05-03T08:16:15.007Z</time></trkpt><trkpt lat="43.7551364" lon="11.5860041"><ele>1185.3333333333335</ele><time>2026-05-03T08:16:16.006Z</time></trkpt><trkpt lat="43.7550362" lon="11.5859715"><ele>1187.5</ele><time>2026-05-03T08:16:17.007Z</time></trkpt><trkpt lat="43.7549456" lon="11.5859409"><ele>1189.6666666666667</ele><time>2026-05-03T08:16:18.008Z</time></trkpt><trkpt lat="43.7548619" lon="11.5859693"><ele>1191.8333333333333</ele><time>2026-05-03T08:16:19.007Z</time></trkpt><trkpt lat="43.7547774" lon="11.5859878"><ele>1194.0</ele><time>2026-05-03T08:16:20.007Z</time></trkpt><trkpt lat="43.7546842" lon="11.5859978"><ele>1194.0</ele><time>2026-05-03T08:16:21.008Z</time></trkpt><trkpt lat="43.7546221" lon="11.5859478"><ele>1194.0</ele><time>2026-05-03T08:16:22.008Z</time></trkpt><trkpt lat="43.754544" lon="11.5860315"><ele>1194.0</ele><time>2026-05-03T08:16:23.007Z</time></trkpt><trkpt lat="43.75447" lon="11.586029"><ele>1194.0</ele><time>2026-05-03T08:16:24.008Z</time></trkpt><trkpt lat="43.7543259" lon="11.5860141"><ele>1194.0</ele><time>2026-05-03T08:16:26.008Z</time></trkpt><trkpt lat="43.7542401" lon="11.5859842"><ele>1195.0</ele><time>2026-05-03T08:16:27.008Z</time></trkpt><trkpt lat="43.7541448" lon="11.5859433"><ele>1196.0</ele><time>2026-05-03T08:16:28.007Z</time></trkpt><trkpt lat="43.7540482" lon="11.585882"><ele>1197.0</ele><time>2026-05-03T08:16:29.008Z</time></trkpt><trkpt lat="43.7539435" lon="11.5858214"><ele>1198.0</ele><time>2026-05-03T08:16:30.008Z</time></trkpt><trkpt lat="43.7538522" lon="11.5857459"><ele>1199.0</ele><time>2026-05-03T08:16:31.008Z</time></trkpt><trkpt lat="43.7537526" lon="11.5856785"><ele>1199.0</ele><time>2026-05-03T08:16:32.008Z</time></trkpt><trkpt lat="43.7536477" lon="11.5856054"><ele>1199.0</ele><time>2026-05-03T08:16:33.007Z</time></trkpt><trkpt lat="43.7535477" lon="11.5855137"><ele>1199.0</ele><time>2026-05-03T08:16:34.008Z</time></trkpt><trkpt lat="43.7534541" lon="11.5854348"><ele>1199.0</ele><time>2026-05-03T08:16:35.007Z</time></trkpt><trkpt lat="43.7533803" lon="11.5853534"><ele>1199.0</ele><time>2026-05-03T08:16:36.007Z</time></trkpt><trkpt lat="43.7533292" lon="11.5852748"><ele>1200.2</ele><time>2026-05-03T08:16:37.007Z</time></trkpt><trkpt lat="43.7532625" lon="11.5851943"><ele>1201.4</ele><time>2026-05-03T08:16:38.008Z</time></trkpt><trkpt lat="43.7531942" lon="11.5851201"><ele>1202.6</ele><time>2026-05-03T08:16:39.008Z</time></trkpt><trkpt lat="43.7531139" lon="11.5850388"><ele>1203.8</ele><time>2026-05-03T08:16:40.007Z</time></trkpt><trkpt lat="43.7530254" lon="11.5849805"><ele>1205.0</ele><time>2026-05-03T08:16:41.008Z</time></trkpt><trkpt lat="43.7529337" lon="11.5849684"><ele>1205.0</ele><time>2026-05-03T08:16:42.008Z</time></trkpt><trkpt lat="43.7528432" lon="11.5849975"><ele>1205.0</ele><time>2026-05-03T08:16:43.008Z</time></trkpt><trkpt lat="43.7527458" lon="11.5850197"><ele>1205.0</ele><time>2026-05-03T08:16:44.007Z</time></trkpt><trkpt lat="43.752644" lon="11.5849898"><ele>1205.0</ele><time>2026-05-03T08:16:45.008Z</time></trkpt><trkpt lat="43.7525492" lon="11.584967"><ele>1205.0</ele><time>2026-05-03T08:16:46.008Z</time></trkpt><trkpt lat="43.7524706" lon="11.5849097"><ele>1206.2</ele><time>2026-05-03T08:16:47.008Z</time></trkpt><trkpt lat="43.7524194" lon="11.5848559"><ele>1207.4</ele><time>2026-05-03T08:16:48.007Z</time></trkpt><trkpt lat="43.7523242" lon="11.5848382"><ele>1208.6</ele><time>2026-05-03T08:16:49.007Z</time></trkpt><trkpt lat="43.7522091" lon="11.5848006"><ele>1209.8</ele><time>2026-05-03T08:16:50.008Z</time></trkpt><trkpt lat="43.75211" lon="11.5847778"><ele>1211.0</ele><time>2026-05-03T08:16:51.008Z</time></trkpt><trkpt lat="43.7519806" lon="11.5847401"><ele>1211.0</ele><time>2026-05-03T08:16:52.007Z</time></trkpt><trkpt lat="43.7518905" lon="11.584688"><ele>1211.0</ele><time>2026-05-03T08:16:53.007Z</time></trkpt><trkpt lat="43.7517757" lon="11.5846559"><ele>1211.0</ele><time>2026-05-03T08:16:54.008Z</time></trkpt><trkpt lat="43.7516752" lon="11.5845856"><ele>1211.0</ele><time>2026-05-03T08:16:55.007Z</time></trkpt><trkpt lat="43.7515941" lon="11.5844951"><ele>1211.0</ele><time>2026-05-03T08:16:56.007Z</time></trkpt><trkpt lat="43.7515233" lon="11.5844109"><ele>1210.3999999999999</ele><time>2026-05-03T08:16:57.008Z</time></trkpt><trkpt lat="43.7514473" lon="11.58432"><ele>1209.8</ele><time>2026-05-03T08:16:58.008Z</time></trkpt><trkpt lat="43.7513551" lon="11.5842277"><ele>1209.1999999999998</ele><time>2026-05-03T08:16:59.007Z</time></trkpt><trkpt lat="43.7512735" lon="11.5841294"><ele>1208.6</ele><time>2026-05-03T08:17:00.007Z</time></trkpt><trkpt lat="43.7511839" lon="11.5840217"><ele>1208.0</ele><time>2026-05-03T08:17:01.007Z</time></trkpt><trkpt lat="43.751088" lon="11.5838945"><ele>1211.6</ele><time>2026-05-03T08:17:02.008Z</time></trkpt><trkpt lat="43.7510197" lon="11.583821"><ele>1215.1999999999998</ele><time>2026-05-03T08:17:03.007Z</time></trkpt><trkpt lat="43.7509344" lon="11.5837571"><ele>1218.8</ele><time>2026-05-03T08:17:04.008Z</time></trkpt><trkpt lat="43.7508026" lon="11.5837264"><ele>1222.3999999999999</ele><time>2026-05-03T08:17:06.008Z</time></trkpt><trkpt lat="43.750729" lon="11.5837268"><ele>1226.0</ele><time>2026-05-03T08:17:07.008Z</time></trkpt><trkpt lat="43.7506759" lon="11.5837977"><ele>1226.0</ele><time>2026-05-03T08:17:08.008Z</time></trkpt><trkpt lat="43.7506052" lon="11.5838673"><ele>1226.0</ele><time>2026-05-03T08:17:09.008Z</time></trkpt><trkpt lat="43.7505658" lon="11.5839415"><ele>1226.0</ele><time>2026-05-03T08:17:10.007Z</time></trkpt><trkpt lat="43.7505362" lon="11.5841155"><ele>1226.0</ele><time>2026-05-03T08:17:12.008Z</time></trkpt><trkpt lat="43.7505082" lon="11.5842233"><ele>1226.0</ele><time>2026-05-03T08:17:13.007Z</time></trkpt><trkpt lat="43.7504975" lon="11.5843181"><ele>1226.0</ele><time>2026-05-03T08:17:14.008Z</time></trkpt><trkpt lat="43.7505151" lon="11.5844245"><ele>1227.5</ele><time>2026-05-03T08:17:15.008Z</time></trkpt><trkpt lat="43.7505175" lon="11.584523"><ele>1229.0</ele><time>2026-05-03T08:17:16.008Z</time></trkpt><trkpt lat="43.75052" lon="11.5846218"><ele>1230.5</ele><time>2026-05-03T08:17:17.008Z</time></trkpt><trkpt lat="43.7505228" lon="11.5847341"><ele>1232.0</ele><time>2026-05-03T08:17:18.008Z</time></trkpt><trkpt lat="43.7505228" lon="11.5848358"><ele>1233.5</ele><time>2026-05-03T08:17:19.008Z</time></trkpt><trkpt lat="43.7505225" lon="11.5849635"><ele>1235.0</ele><time>2026-05-03T08:17:20.007Z</time></trkpt><trkpt lat="43.7505314" lon="11.5850819"><ele>1235.0</ele><time>2026-05-03T08:17:21.008Z</time></trkpt><trkpt lat="43.7505484" lon="11.5852087"><ele>1235.0</ele><time>2026-05-03T08:17:22.007Z</time></trkpt><trkpt lat="43.7505514" lon="11.5853221"><ele>1235.0</ele><time>2026-05-03T08:17:23.008Z</time></trkpt><trkpt lat="43.7505785" lon="11.58547"><ele>1235.0</ele><time>2026-05-03T08:17:24.008Z</time></trkpt><trkpt lat="43.7505831" lon="11.5856058"><ele>1235.0</ele><time>2026-05-03T08:17:25.008Z</time></trkpt><trkpt lat="43.75061" lon="11.5857454"><ele>1235.0</ele><time>2026-05-03T08:17:26.007Z</time></trkpt><trkpt lat="43.7506261" lon="11.5858857"><ele>1235.0</ele><time>2026-05-03T08:17:27.008Z</time></trkpt><trkpt lat="43.75061" lon="11.5860017"><ele>1235.0</ele><time>2026-05-03T08:17:28.007Z</time></trkpt><trkpt lat="43.7505999" lon="11.5861301"><ele>1235.0</ele><time>2026-05-03T08:17:29.007Z</time></trkpt><trkpt lat="43.7505566" lon="11.5863215"><ele>1235.0</ele><time>2026-05-03T08:17:30.008Z</time></trkpt><trkpt lat="43.7504341" lon="11.5864555"><ele>1233.5</ele><time>2026-05-03T08:17:31.008Z</time></trkpt><trkpt lat="43.7503494" lon="11.5865786"><ele>1232.0</ele><time>2026-05-03T08:17:32.008Z</time></trkpt><trkpt lat="43.7502555" lon="11.586709"><ele>1230.5</ele><time>2026-05-03T08:17:33.007Z</time></trkpt><trkpt lat="43.7501549" lon="11.5868392"><ele>1229.0</ele><time>2026-05-03T08:17:34.008Z</time></trkpt><trkpt lat="43.7500723" lon="11.5869608"><ele>1229.0</ele><time>2026-05-03T08:17:35.008Z</time></trkpt><trkpt lat="43.7499778" lon="11.5870488"><ele>1229.0</ele><time>2026-05-03T08:17:36.007Z</time></trkpt><trkpt lat="43.7498938" lon="11.5871506"><ele>1229.0</ele><time>2026-05-03T08:17:37.007Z</time></trkpt><trkpt lat="43.7497971" lon="11.5872175"><ele>1229.0</ele><time>2026-05-03T08:17:38.008Z</time></trkpt><trkpt lat="43.7497077" lon="11.5872945"><ele>1229.0</ele><time>2026-05-03T08:17:39.008Z</time></trkpt><trkpt lat="43.74961" lon="11.5873805"><ele>1229.0</ele><time>2026-05-03T08:17:40.008Z</time></trkpt><trkpt lat="43.7495198" lon="11.5874548"><ele>1229.0</ele><time>2026-05-03T08:17:41.007Z</time></trkpt><trkpt lat="43.749422" lon="11.5875263"><ele>1229.0</ele><time>2026-05-03T08:17:42.007Z</time></trkpt><trkpt lat="43.7493324" lon="11.5876112"><ele>1229.0</ele><time>2026-05-03T08:17:43.007Z</time></trkpt><trkpt lat="43.7492841" lon="11.5876905"><ele>1229.0</ele><time>2026-05-03T08:17:44.008Z</time></trkpt><trkpt lat="43.7491876" lon="11.5877477"><ele>1229.6000000000001</ele><time>2026-05-03T08:17:45.007Z</time></trkpt><trkpt lat="43.7490963" lon="11.5878177"><ele>1230.2</ele><time>2026-05-03T08:17:46.007Z</time></trkpt><trkpt lat="43.7490066" lon="11.587913"><ele>1230.8000000000002</ele><time>2026-05-03T08:17:47.007Z</time></trkpt><trkpt lat="43.7489309" lon="11.5879855"><ele>1231.4</ele><time>2026-05-03T08:17:48.007Z</time></trkpt><trkpt lat="43.7488752" lon="11.588066"><ele>1232.0</ele><time>2026-05-03T08:17:49.008Z</time></trkpt><trkpt lat="43.7487813" lon="11.588193"><ele>1232.0</ele><time>2026-05-03T08:17:50.008Z</time></trkpt><trkpt lat="43.748717" lon="11.5882793"><ele>1232.0</ele><time>2026-05-03T08:17:51.009Z</time></trkpt><trkpt lat="43.7486196" lon="11.5884038"><ele>1232.0</ele><time>2026-05-03T08:17:52.008Z</time></trkpt><trkpt lat="43.7485473" lon="11.5884935"><ele>1232.0</ele><time>2026-05-03T08:17:53.008Z</time></trkpt><trkpt lat="43.7484688" lon="11.5886043"><ele>1232.0</ele><time>2026-05-03T08:17:54.008Z</time></trkpt><trkpt lat="43.748404" lon="11.5887146"><ele>1235.0</ele><time>2026-05-03T08:17:55.008Z</time></trkpt><trkpt lat="43.7483506" lon="11.5888682"><ele>1238.0</ele><time>2026-05-03T08:17:56.009Z</time></trkpt><trkpt lat="43.7482978" lon="11.5890004"><ele>1241.0</ele><time>2026-05-03T08:17:57.009Z</time></trkpt><trkpt lat="43.7482351" lon="11.5891329"><ele>1244.0</ele><time>2026-05-03T08:17:58.009Z</time></trkpt><trkpt lat="43.7481618" lon="11.5892746"><ele>1244.0</ele><time>2026-05-03T08:17:59.008Z</time></trkpt><trkpt lat="43.7480757" lon="11.5893632"><ele>1244.0</ele><time>2026-05-03T08:18:00.009Z</time></trkpt><trkpt lat="43.748019" lon="11.5894379"><ele>1244.0</ele><time>2026-05-03T08:18:01.009Z</time></trkpt><trkpt lat="43.7479366" lon="11.5894818"><ele>1244.0</ele><time>2026-05-03T08:18:02.009Z</time></trkpt><trkpt lat="43.7478398" lon="11.5895266"><ele>1244.0</ele><time>2026-05-03T08:18:03.008Z</time></trkpt><trkpt lat="43.7477641" lon="11.5896238"><ele>1246.4</ele><time>2026-05-03T08:18:04.009Z</time></trkpt><trkpt lat="43.7476883" lon="11.5896868"><ele>1248.8000000000002</ele><time>2026-05-03T08:18:05.008Z</time></trkpt><trkpt lat="43.7475959" lon="11.5897334"><ele>1251.1999999999998</ele><time>2026-05-03T08:18:06.009Z</time></trkpt><trkpt lat="43.7475216" lon="11.5898165"><ele>1253.6</ele><time>2026-05-03T08:18:07.008Z</time></trkpt><trkpt lat="43.7474442" lon="11.5898686"><ele>1256.0</ele><time>2026-05-03T08:18:08.009Z</time></trkpt><trkpt lat="43.7473667" lon="11.589908"><ele>1256.0</ele><time>2026-05-03T08:18:09.009Z</time></trkpt><trkpt lat="43.7472836" lon="11.5899634"><ele>1256.0</ele><time>2026-05-03T08:18:10.009Z</time></trkpt><trkpt lat="43.7471606" lon="11.5899455"><ele>1256.0</ele><time>2026-05-03T08:18:11.009Z</time></trkpt><trkpt lat="43.7470545" lon="11.5899349"><ele>1256.0</ele><time>2026-05-03T08:18:12.008Z</time></trkpt><trkpt lat="43.7469406" lon="11.589858"><ele>1256.0</ele><time>2026-05-03T08:18:13.008Z</time></trkpt><trkpt lat="43.7468485" lon="11.5897755"><ele>1255.3999999999999</ele><time>2026-05-03T08:18:14.008Z</time></trkpt><trkpt lat="43.746763" lon="11.589678"><ele>1254.8</ele><time>2026-05-03T08:18:15.009Z</time></trkpt><trkpt lat="43.7466792" lon="11.5895731"><ele>1254.1999999999998</ele><time>2026-05-03T08:18:16.008Z</time></trkpt><trkpt lat="43.7466047" lon="11.5894938"><ele>1253.6</ele><time>2026-05-03T08:18:17.009Z</time></trkpt><trkpt lat="43.7465349" lon="11.5894197"><ele>1253.0</ele><time>2026-05-03T08:18:18.009Z</time></trkpt><trkpt lat="43.7464737" lon="11.5893378"><ele>1252.6666666666667</ele><time>2026-05-03T08:18:19.009Z</time></trkpt><trkpt lat="43.7464097" lon="11.5892923"><ele>1252.3333333333335</ele><time>2026-05-03T08:18:20.008Z</time></trkpt><trkpt lat="43.7463336" lon="11.5892445"><ele>1252.0</ele><time>2026-05-03T08:18:21.009Z</time></trkpt><trkpt lat="43.7462631" lon="11.5892093"><ele>1251.6666666666667</ele><time>2026-05-03T08:18:22.009Z</time></trkpt><trkpt lat="43.7461926" lon="11.5891665"><ele>1251.3333333333333</ele><time>2026-05-03T08:18:23.009Z</time></trkpt><trkpt lat="43.7461168" lon="11.5891285"><ele>1251.0</ele><time>2026-05-03T08:18:24.008Z</time></trkpt><trkpt lat="43.746048" lon="11.5891006"><ele>1251.3333333333333</ele><time>2026-05-03T08:18:25.007Z</time></trkpt><trkpt lat="43.7459753" lon="11.5890207"><ele>1251.6666666666667</ele><time>2026-05-03T08:18:26.009Z</time></trkpt><trkpt lat="43.745924" lon="11.5889448"><ele>1252.0</ele><time>2026-05-03T08:18:27.009Z</time></trkpt><trkpt lat="43.7458848" lon="11.5888676"><ele>1252.3333333333335</ele><time>2026-05-03T08:18:28.009Z</time></trkpt><trkpt lat="43.7458477" lon="11.5887683"><ele>1252.6666666666667</ele><time>2026-05-03T08:18:29.009Z</time></trkpt><trkpt lat="43.7458001" lon="11.5886713"><ele>1253.0</ele><time>2026-05-03T08:18:30.008Z</time></trkpt><trkpt lat="43.7457399" lon="11.5885742"><ele>1253.0</ele><time>2026-05-03T08:18:31.009Z</time></trkpt><trkpt lat="43.745668" lon="11.5884707"><ele>1253.0</ele><time>2026-05-03T08:18:32.009Z</time></trkpt><trkpt lat="43.7456095" lon="11.5883694"><ele>1253.0</ele><time>2026-05-03T08:18:33.009Z</time></trkpt><trkpt lat="43.7455521" lon="11.5882625"><ele>1253.0</ele><time>2026-05-03T08:18:34.009Z</time></trkpt><trkpt lat="43.7454962" lon="11.588161"><ele>1253.0</ele><time>2026-05-03T08:18:35.009Z</time></trkpt><trkpt lat="43.7454362" lon="11.5880103"><ele>1253.0</ele><time>2026-05-03T08:18:36.008Z</time></trkpt><trkpt lat="43.7453879" lon="11.5879245"><ele>1253.0</ele><time>2026-05-03T08:18:37.009Z</time></trkpt><trkpt lat="43.745347" lon="11.5878266"><ele>1253.0</ele><time>2026-05-03T08:18:38.008Z</time></trkpt><trkpt lat="43.7453144" lon="11.5876926"><ele>1253.0</ele><time>2026-05-03T08:18:39.009Z</time></trkpt><trkpt lat="43.7452664" lon="11.5875576"><ele>1253.0</ele><time>2026-05-03T08:18:40.009Z</time></trkpt><trkpt lat="43.7452244" lon="11.5874372"><ele>1251.6666666666667</ele><time>2026-05-03T08:18:41.008Z</time></trkpt><trkpt lat="43.7452337" lon="11.587326"><ele>1250.3333333333335</ele><time>2026-05-03T08:18:42.009Z</time></trkpt><trkpt lat="43.7452267" lon="11.587205"><ele>1249.0</ele><time>2026-05-03T08:18:43.009Z</time></trkpt><trkpt lat="43.7452081" lon="11.5870925"><ele>1247.6666666666667</ele><time>2026-05-03T08:18:44.008Z</time></trkpt><trkpt lat="43.7451802" lon="11.5869792"><ele>1246.3333333333333</ele><time>2026-05-03T08:18:45.008Z</time></trkpt><trkpt lat="43.7451401" lon="11.5868759"><ele>1245.0</ele><time>2026-05-03T08:18:46.009Z</time></trkpt><trkpt lat="43.7450905" lon="11.5867991"><ele>1244.1666666666667</ele><time>2026-05-03T08:18:47.009Z</time></trkpt><trkpt lat="43.7450291" lon="11.5867243"><ele>1243.3333333333333</ele><time>2026-05-03T08:18:48.009Z</time></trkpt><trkpt lat="43.7449599" lon="11.5866473"><ele>1242.5</ele><time>2026-05-03T08:18:49.008Z</time></trkpt><trkpt lat="43.7448867" lon="11.5865941"><ele>1241.6666666666665</ele><time>2026-05-03T08:18:50.009Z</time></trkpt><trkpt lat="43.7448083" lon="11.5865409"><ele>1240.8333333333333</ele><time>2026-05-03T08:18:51.008Z</time></trkpt><trkpt lat="43.7447326" lon="11.5864775"><ele>1240.0</ele><time>2026-05-03T08:18:52.008Z</time></trkpt><trkpt lat="43.7446653" lon="11.5864088"><ele>1240.0</ele><time>2026-05-03T08:18:53.008Z</time></trkpt><trkpt lat="43.7446034" lon="11.5863354"><ele>1240.0</ele><time>2026-05-03T08:18:54.009Z</time></trkpt><trkpt lat="43.7445359" lon="11.5862639"><ele>1240.0</ele><time>2026-05-03T08:18:55.008Z</time></trkpt><trkpt lat="43.7444589" lon="11.5861753"><ele>1240.0</ele><time>2026-05-03T08:18:56.009Z</time></trkpt><trkpt lat="43.7443684" lon="11.5860832"><ele>1240.0</ele><time>2026-05-03T08:18:57.009Z</time></trkpt><trkpt lat="43.7442913" lon="11.5859806"><ele>1235.6</ele><time>2026-05-03T08:18:58.009Z</time></trkpt><trkpt lat="43.7442355" lon="11.5858811"><ele>1231.2</ele><time>2026-05-03T08:18:59.009Z</time></trkpt><trkpt lat="43.7441893" lon="11.5857498"><ele>1226.8</ele><time>2026-05-03T08:19:00.007Z</time></trkpt><trkpt lat="43.7441361" lon="11.5856388"><ele>1222.4</ele><time>2026-05-03T08:19:01.009Z</time></trkpt><trkpt lat="43.7441006" lon="11.5855368"><ele>1218.0</ele><time>2026-05-03T08:19:02.007Z</time></trkpt><trkpt lat="43.7440411" lon="11.5854166"><ele>1217.2</ele><time>2026-05-03T08:19:03.009Z</time></trkpt><trkpt lat="43.7440533" lon="11.5852662"><ele>1216.4</ele><time>2026-05-03T08:19:04.009Z</time></trkpt><trkpt lat="43.7440292" lon="11.5851382"><ele>1215.6000000000001</ele><time>2026-05-03T08:19:05.009Z</time></trkpt><trkpt lat="43.7440084" lon="11.5849957"><ele>1214.8</ele><time>2026-05-03T08:19:06.009Z</time></trkpt><trkpt lat="43.7440078" lon="11.5848118"><ele>1214.0</ele><time>2026-05-03T08:19:08.007Z</time></trkpt><trkpt lat="43.7439662" lon="11.5847111"><ele>1214.0</ele><time>2026-05-03T08:19:09.009Z</time></trkpt><trkpt lat="43.7439334" lon="11.5846067"><ele>1214.0</ele><time>2026-05-03T08:19:10.009Z</time></trkpt><trkpt lat="43.743903" lon="11.5845138"><ele>1214.0</ele><time>2026-05-03T08:19:11.009Z</time></trkpt><trkpt lat="43.7438692" lon="11.5844299"><ele>1214.0</ele><time>2026-05-03T08:19:12.008Z</time></trkpt><trkpt lat="43.7438136" lon="11.5842869"><ele>1214.0</ele><time>2026-05-03T08:19:14.008Z</time></trkpt><trkpt lat="43.7437785" lon="11.5841396"><ele>1213.4</ele><time>2026-05-03T08:19:16.008Z</time></trkpt><trkpt lat="43.743752" lon="11.5839986"><ele>1212.8000000000002</ele><time>2026-05-03T08:19:18.009Z</time></trkpt><trkpt lat="43.743716" lon="11.5839159"><ele>1212.1999999999998</ele><time>2026-05-03T08:19:20.009Z</time></trkpt><trkpt lat="43.7436407" lon="11.5839685"><ele>1211.6</ele><time>2026-05-03T08:19:24.007Z</time></trkpt><trkpt lat="43.743606" lon="11.584114"><ele>1211.0</ele><time>2026-05-03T08:19:26.009Z</time></trkpt><trkpt lat="43.7435655" lon="11.5842334"><ele>1211.5</ele><time>2026-05-03T08:19:28.009Z</time></trkpt><trkpt lat="43.7435424" lon="11.5843307"><ele>1212.0</ele><time>2026-05-03T08:19:30.009Z</time></trkpt><trkpt lat="43.7435323" lon="11.5844257"><ele>1212.5</ele><time>2026-05-03T08:21:41.008Z</time></trkpt><trkpt lat="43.743552" lon="11.5845671"><ele>1213.0</ele><time>2026-05-03T08:21:43.009Z</time></trkpt><trkpt lat="43.7435644" lon="11.5846553"><ele>1213.5</ele><time>2026-05-03T08:21:44.009Z</time></trkpt><trkpt lat="43.7435892" lon="11.5847541"><ele>1214.0</ele><time>2026-05-03T08:21:45.008Z</time></trkpt><trkpt lat="43.7436171" lon="11.5848597"><ele>1214.0</ele><time>2026-05-03T08:21:46.008Z</time></trkpt><trkpt lat="43.7436512" lon="11.5849772"><ele>1214.0</ele><time>2026-05-03T08:21:47.008Z</time></trkpt><trkpt lat="43.7436852" lon="11.5851215"><ele>1214.0</ele><time>2026-05-03T08:21:48.008Z</time></trkpt><trkpt lat="43.7437081" lon="11.5852777"><ele>1214.0</ele><time>2026-05-03T08:21:49.009Z</time></trkpt><trkpt lat="43.7437119" lon="11.5854157"><ele>1214.0</ele><time>2026-05-03T08:21:50.009Z</time></trkpt><trkpt lat="43.7437032" lon="11.5855273"><ele>1214.6666666666667</ele><time>2026-05-03T08:21:51.008Z</time></trkpt><trkpt lat="43.7436802" lon="11.5856199"><ele>1215.3333333333335</ele><time>2026-05-03T08:21:52.007Z</time></trkpt><trkpt lat="43.7436387" lon="11.5856977"><ele>1216.0</ele><time>2026-05-03T08:21:53.008Z</time></trkpt><trkpt lat="43.7435889" lon="11.5857829"><ele>1216.6666666666667</ele><time>2026-05-03T08:21:54.008Z</time></trkpt><trkpt lat="43.7435445" lon="11.5858701"><ele>1217.3333333333333</ele><time>2026-05-03T08:21:55.008Z</time></trkpt><trkpt lat="43.7435088" lon="11.5859462"><ele>1218.0</ele><time>2026-05-03T08:21:56.008Z</time></trkpt><trkpt lat="43.7434687" lon="11.5860754"><ele>1211.3333333333333</ele><time>2026-05-03T08:21:58.008Z</time></trkpt><trkpt lat="43.7434394" lon="11.5861604"><ele>1204.6666666666667</ele><time>2026-05-03T08:22:00.009Z</time></trkpt><trkpt lat="43.7433631" lon="11.5861445"><ele>1198.0</ele><time>2026-05-03T08:22:03.008Z</time></trkpt><trkpt lat="43.7433737" lon="11.5860376"><ele>1191.3333333333335</ele><time>2026-05-03T08:22:04.007Z</time></trkpt><trkpt lat="43.7433771" lon="11.5858701"><ele>1184.6666666666667</ele><time>2026-05-03T08:22:06.008Z</time></trkpt><trkpt lat="43.7433648" lon="11.5857553"><ele>1178.0</ele><time>2026-05-03T08:22:08.008Z</time></trkpt><trkpt lat="43.7433206" lon="11.5856793"><ele>1178.0</ele><time>2026-05-03T08:22:10.009Z</time></trkpt><trkpt lat="43.743242" lon="11.5857234"><ele>1178.0</ele><time>2026-05-03T08:22:12.009Z</time></trkpt><trkpt lat="43.7432506" lon="11.5858667"><ele>1178.0</ele><time>2026-05-03T08:22:13.009Z</time></trkpt><trkpt lat="43.7432126" lon="11.5859367"><ele>1178.0</ele><time>2026-05-03T08:22:14.009Z</time></trkpt><trkpt lat="43.7431741" lon="11.5860146"><ele>1178.0</ele><time>2026-05-03T08:22:15.009Z</time></trkpt><trkpt lat="43.7431293" lon="11.5861257"><ele>1178.0</ele><time>2026-05-03T08:22:17.007Z</time></trkpt><trkpt lat="43.7430935" lon="11.5860171"><ele>1178.0</ele><time>2026-05-03T08:22:19.008Z</time></trkpt><trkpt lat="43.7430761" lon="11.5858715"><ele>1178.0</ele><time>2026-05-03T08:22:21.008Z</time></trkpt><trkpt lat="43.7430328" lon="11.5857573"><ele>1178.0</ele><time>2026-05-03T08:22:23.008Z</time></trkpt><trkpt lat="43.7429744" lon="11.5858003"><ele>1178.0</ele><time>2026-05-03T08:22:26.008Z</time></trkpt><trkpt lat="43.7429227" lon="11.5859129"><ele>1178.0</ele><time>2026-05-03T08:22:28.009Z</time></trkpt><trkpt lat="43.7428656" lon="11.5859977"><ele>1178.0</ele><time>2026-05-03T08:22:29.009Z</time></trkpt><trkpt lat="43.7428428" lon="11.5860869"><ele>1178.4</ele><time>2026-05-03T08:22:30.007Z</time></trkpt><trkpt lat="43.7427734" lon="11.5862285"><ele>1178.8</ele><time>2026-05-03T08:22:32.008Z</time></trkpt><trkpt lat="43.7426959" lon="11.5862037"><ele>1179.2</ele><time>2026-05-03T08:22:34.008Z</time></trkpt><trkpt lat="43.7426588" lon="11.5861037"><ele>1179.6</ele><time>2026-05-03T08:22:36.008Z</time></trkpt><trkpt lat="43.7426625" lon="11.5859363"><ele>1180.0</ele><time>2026-05-03T08:22:38.009Z</time></trkpt><trkpt lat="43.742669" lon="11.5858446"><ele>1176.5</ele><time>2026-05-03T08:22:39.009Z</time></trkpt><trkpt lat="43.7426444" lon="11.5857196"><ele>1173.0</ele><time>2026-05-03T08:22:41.009Z</time></trkpt><trkpt lat="43.7425724" lon="11.585726"><ele>1169.5</ele><time>2026-05-03T08:22:43.009Z</time></trkpt><trkpt lat="43.7425052" lon="11.5857696"><ele>1166.0</ele><time>2026-05-03T08:22:44.008Z</time></trkpt><trkpt lat="43.7424365" lon="11.585815"><ele>1162.5</ele><time>2026-05-03T08:22:45.009Z</time></trkpt><trkpt lat="43.7423569" lon="11.5858559"><ele>1159.0</ele><time>2026-05-03T08:22:46.009Z</time></trkpt><trkpt lat="43.7422722" lon="11.5859038"><ele>1159.0</ele><time>2026-05-03T08:22:47.009Z</time></trkpt><trkpt lat="43.7421805" lon="11.5859746"><ele>1159.0</ele><time>2026-05-03T08:22:48.009Z</time></trkpt><trkpt lat="43.742092" lon="11.5860287"><ele>1159.0</ele><time>2026-05-03T08:22:49.009Z</time></trkpt><trkpt lat="43.7420034" lon="11.5861221"><ele>1159.0</ele><time>2026-05-03T08:22:50.008Z</time></trkpt><trkpt lat="43.7419181" lon="11.5862036"><ele>1159.0</ele><time>2026-05-03T08:22:51.009Z</time></trkpt><trkpt lat="43.7418298" lon="11.5862409"><ele>1155.4</ele><time>2026-05-03T08:22:52.008Z</time></trkpt><trkpt lat="43.7417152" lon="11.5862956"><ele>1151.8000000000002</ele><time>2026-05-03T08:22:53.008Z</time></trkpt><trkpt lat="43.7416133" lon="11.5862929"><ele>1148.1999999999998</ele><time>2026-05-03T08:22:54.008Z</time></trkpt><trkpt lat="43.7415035" lon="11.5863207"><ele>1144.6</ele><time>2026-05-03T08:22:55.009Z</time></trkpt><trkpt lat="43.7414079" lon="11.5863869"><ele>1141.0</ele><time>2026-05-03T08:22:56.009Z</time></trkpt><trkpt lat="43.7413036" lon="11.5864361"><ele>1141.0</ele><time>2026-05-03T08:22:57.009Z</time></trkpt><trkpt lat="43.741221" lon="11.5865024"><ele>1141.0</ele><time>2026-05-03T08:22:58.009Z</time></trkpt><trkpt lat="43.7411543" lon="11.5864967"><ele>1141.0</ele><time>2026-05-03T08:22:59.009Z</time></trkpt><trkpt lat="43.7410789" lon="11.5865004"><ele>1141.0</ele><time>2026-05-03T08:23:00.008Z</time></trkpt><trkpt lat="43.7410015" lon="11.5864643"><ele>1141.0</ele><time>2026-05-03T08:23:01.008Z</time></trkpt><trkpt lat="43.7409238" lon="11.5864052"><ele>1141.0</ele><time>2026-05-03T08:23:02.009Z</time></trkpt><trkpt lat="43.7408551" lon="11.5863499"><ele>1140.0</ele><time>2026-05-03T08:23:03.009Z</time></trkpt><trkpt lat="43.7407866" lon="11.5862922"><ele>1139.0</ele><time>2026-05-03T08:23:04.009Z</time></trkpt><trkpt lat="43.7407218" lon="11.5861775"><ele>1138.0</ele><time>2026-05-03T08:23:05.008Z</time></trkpt><trkpt lat="43.7406247" lon="11.5860782"><ele>1137.0</ele><time>2026-05-03T08:23:07.009Z</time></trkpt><trkpt lat="43.7405501" lon="11.5860586"><ele>1136.0</ele><time>2026-05-03T08:23:08.008Z</time></trkpt><trkpt lat="43.7404784" lon="11.5860336"><ele>1136.0</ele><time>2026-05-03T08:23:09.009Z</time></trkpt><trkpt lat="43.74045" lon="11.5861229"><ele>1136.0</ele><time>2026-05-03T08:23:10.008Z</time></trkpt><trkpt lat="43.7403312" lon="11.58621"><ele>1136.0</ele><time>2026-05-03T08:23:12.009Z</time></trkpt><trkpt lat="43.7402661" lon="11.5863135"><ele>1136.0</ele><time>2026-05-03T08:23:13.009Z</time></trkpt><trkpt lat="43.7402029" lon="11.5863735"><ele>1136.0</ele><time>2026-05-03T08:23:14.008Z</time></trkpt><trkpt lat="43.7401346" lon="11.5863709"><ele>1136.0</ele><time>2026-05-03T08:23:15.009Z</time></trkpt><trkpt lat="43.7400241" lon="11.5864076"><ele>1138.75</ele><time>2026-05-03T08:23:17.009Z</time></trkpt><trkpt lat="43.739984" lon="11.5865023"><ele>1141.5</ele><time>2026-05-03T08:23:19.008Z</time></trkpt><trkpt lat="43.7400107" lon="11.5866398"><ele>1144.25</ele><time>2026-05-03T08:23:21.008Z</time></trkpt><trkpt lat="43.740074" lon="11.5868156"><ele>1147.0</ele><time>2026-05-03T08:23:23.009Z</time></trkpt><trkpt lat="43.7401363" lon="11.5869941"><ele>1147.6</ele><time>2026-05-03T08:23:24.009Z</time></trkpt><trkpt lat="43.7401706" lon="11.5871117"><ele>1148.2</ele><time>2026-05-03T08:23:25.009Z</time></trkpt><trkpt lat="43.7402071" lon="11.5872343"><ele>1148.8</ele><time>2026-05-03T08:23:26.009Z</time></trkpt><trkpt lat="43.7402509" lon="11.5873246"><ele>1149.4</ele><time>2026-05-03T08:23:27.009Z</time></trkpt><trkpt lat="43.7402923" lon="11.5874696"><ele>1150.0</ele><time>2026-05-03T08:23:29.008Z</time></trkpt><trkpt lat="43.740344" lon="11.5875545"><ele>1146.3333333333333</ele><time>2026-05-03T08:23:30.008Z</time></trkpt><trkpt lat="43.7403685" lon="11.5876415"><ele>1142.6666666666665</ele><time>2026-05-03T08:23:31.008Z</time></trkpt><trkpt lat="43.7404017" lon="11.5877486"><ele>1139.0</ele><time>2026-05-03T08:23:32.007Z</time></trkpt><trkpt lat="43.7404226" lon="11.5878489"><ele>1135.3333333333333</ele><time>2026-05-03T08:23:33.008Z</time></trkpt><trkpt lat="43.7404562" lon="11.5879557"><ele>1131.6666666666667</ele><time>2026-05-03T08:23:34.009Z</time></trkpt><trkpt lat="43.7404405" lon="11.5880812"><ele>1128.0</ele><time>2026-05-03T08:23:35.008Z</time></trkpt><trkpt lat="43.7404482" lon="11.5881944"><ele>1128.0</ele><time>2026-05-03T08:23:36.008Z</time></trkpt><trkpt lat="43.7404538" lon="11.5882886"><ele>1128.0</ele><time>2026-05-03T08:23:37.009Z</time></trkpt><trkpt lat="43.7404501" lon="11.5884095"><ele>1128.0</ele><time>2026-05-03T08:23:38.009Z</time></trkpt><trkpt lat="43.7404538" lon="11.5885272"><ele>1128.0</ele><time>2026-05-03T08:23:39.008Z</time></trkpt><trkpt lat="43.7404558" lon="11.5886453"><ele>1128.0</ele><time>2026-05-03T08:23:40.008Z</time></trkpt><trkpt lat="43.7404576" lon="11.5887738"><ele>1128.0</ele><time>2026-05-03T08:23:41.008Z</time></trkpt><trkpt lat="43.7404243" lon="11.5889357"><ele>1128.6</ele><time>2026-05-03T08:23:43.009Z</time></trkpt><trkpt lat="43.740335" lon="11.58898"><ele>1129.1999999999998</ele><time>2026-05-03T08:23:45.009Z</time></trkpt><trkpt lat="43.7402319" lon="11.5889649"><ele>1129.8</ele><time>2026-05-03T08:23:47.009Z</time></trkpt><trkpt lat="43.7401042" lon="11.5889968"><ele>1130.3999999999999</ele><time>2026-05-03T08:23:49.007Z</time></trkpt><trkpt lat="43.740057" lon="11.5890629"><ele>1131.0</ele><time>2026-05-03T08:23:50.009Z</time></trkpt><trkpt lat="43.7399939" lon="11.5891031"><ele>1137.2</ele><time>2026-05-03T08:23:51.008Z</time></trkpt><trkpt lat="43.7399168" lon="11.5891105"><ele>1143.3999999999999</ele><time>2026-05-03T08:23:52.009Z</time></trkpt><trkpt lat="43.7398022" lon="11.589131"><ele>1149.6</ele><time>2026-05-03T08:23:54.008Z</time></trkpt><trkpt lat="43.7397083" lon="11.5891738"><ele>1155.8</ele><time>2026-05-03T08:23:56.009Z</time></trkpt><trkpt lat="43.7396014" lon="11.5891873"><ele>1162.0</ele><time>2026-05-03T08:23:58.009Z</time></trkpt><trkpt lat="43.7394642" lon="11.589072"><ele>1162.0</ele><time>2026-05-03T08:24:00.009Z</time></trkpt><trkpt lat="43.7393883" lon="11.5890287"><ele>1162.0</ele><time>2026-05-03T08:24:01.009Z</time></trkpt><trkpt lat="43.7393124" lon="11.5890052"><ele>1162.0</ele><time>2026-05-03T08:24:02.009Z</time></trkpt><trkpt lat="43.7392211" lon="11.5889858"><ele>1162.0</ele><time>2026-05-03T08:24:03.009Z</time></trkpt><trkpt lat="43.7391502" lon="11.5889294"><ele>1162.0</ele><time>2026-05-03T08:24:04.009Z</time></trkpt><trkpt lat="43.7390587" lon="11.5888821"><ele>1162.0</ele><time>2026-05-03T08:24:05.007Z</time></trkpt><trkpt lat="43.7389664" lon="11.5888523"><ele>1164.8</ele><time>2026-05-03T08:24:06.009Z</time></trkpt><trkpt lat="43.7388782" lon="11.5888135"><ele>1167.6</ele><time>2026-05-03T08:24:07.009Z</time></trkpt><trkpt lat="43.738796" lon="11.5887625"><ele>1170.3999999999999</ele><time>2026-05-03T08:24:08.009Z</time></trkpt><trkpt lat="43.7386864" lon="11.5887028"><ele>1173.2</ele><time>2026-05-03T08:24:09.008Z</time></trkpt><trkpt lat="43.7385922" lon="11.5886705"><ele>1176.0</ele><time>2026-05-03T08:24:10.008Z</time></trkpt><trkpt lat="43.7385117" lon="11.5886511"><ele>1179.8</ele><time>2026-05-03T08:24:11.009Z</time></trkpt><trkpt lat="43.7384277" lon="11.5886187"><ele>1183.6</ele><time>2026-05-03T08:24:12.008Z</time></trkpt><trkpt lat="43.7383418" lon="11.5885946"><ele>1187.4</ele><time>2026-05-03T08:24:13.009Z</time></trkpt><trkpt lat="43.7382371" lon="11.5885671"><ele>1191.2</ele><time>2026-05-03T08:24:14.008Z</time></trkpt><trkpt lat="43.7381308" lon="11.5885557"><ele>1195.0</ele><time>2026-05-03T08:24:15.008Z</time></trkpt><trkpt lat="43.7380254" lon="11.5885243"><ele>1195.0</ele><time>2026-05-03T08:24:16.008Z</time></trkpt><trkpt lat="43.7379181" lon="11.5884914"><ele>1195.0</ele><time>2026-05-03T08:24:17.009Z</time></trkpt><trkpt lat="43.7378344" lon="11.5884539"><ele>1195.0</ele><time>2026-05-03T08:24:18.008Z</time></trkpt><trkpt lat="43.7377406" lon="11.5884264"><ele>1195.0</ele><time>2026-05-03T08:24:19.008Z</time></trkpt><trkpt lat="43.7376671" lon="11.5884015"><ele>1195.0</ele><time>2026-05-03T08:24:20.009Z</time></trkpt><trkpt lat="43.7375764" lon="11.5883742"><ele>1193.4</ele><time>2026-05-03T08:24:21.009Z</time></trkpt><trkpt lat="43.7374843" lon="11.5883476"><ele>1191.8</ele><time>2026-05-03T08:24:22.008Z</time></trkpt><trkpt lat="43.7373689" lon="11.5882998"><ele>1190.2</ele><time>2026-05-03T08:24:23.008Z</time></trkpt><trkpt lat="43.7372874" lon="11.5882324"><ele>1188.6</ele><time>2026-05-03T08:24:24.009Z</time></trkpt><trkpt lat="43.7371652" lon="11.5881927"><ele>1187.0</ele><time>2026-05-03T08:24:25.008Z</time></trkpt><trkpt lat="43.7370722" lon="11.588143"><ele>1187.0</ele><time>2026-05-03T08:24:26.009Z</time></trkpt><trkpt lat="43.737036" lon="11.5880639"><ele>1187.0</ele><time>2026-05-03T08:24:27.009Z</time></trkpt><trkpt lat="43.7369839" lon="11.58797"><ele>1187.0</ele><time>2026-05-03T08:24:28.008Z</time></trkpt><trkpt lat="43.7369609" lon="11.5878715"><ele>1187.0</ele><time>2026-05-03T08:24:29.008Z</time></trkpt><trkpt lat="43.736955" lon="11.5877431"><ele>1187.0</ele><time>2026-05-03T08:24:30.009Z</time></trkpt><trkpt lat="43.7369561" lon="11.5876118"><ele>1187.0</ele><time>2026-05-03T08:24:31.008Z</time></trkpt><trkpt lat="43.7369535" lon="11.5874966"><ele>1187.4</ele><time>2026-05-03T08:24:32.009Z</time></trkpt><trkpt lat="43.7369346" lon="11.5873581"><ele>1187.8000000000002</ele><time>2026-05-03T08:24:33.009Z</time></trkpt><trkpt lat="43.7369051" lon="11.587198"><ele>1188.2</ele><time>2026-05-03T08:24:34.009Z</time></trkpt><trkpt lat="43.7368802" lon="11.5870427"><ele>1188.6000000000001</ele><time>2026-05-03T08:24:35.009Z</time></trkpt><trkpt lat="43.7368608" lon="11.58692"><ele>1189.0</ele><time>2026-05-03T08:24:36.008Z</time></trkpt><trkpt lat="43.7368192" lon="11.5867853"><ele>1189.0</ele><time>2026-05-03T08:24:37.008Z</time></trkpt><trkpt lat="43.7367744" lon="11.5866515"><ele>1189.0</ele><time>2026-05-03T08:24:38.009Z</time></trkpt><trkpt lat="43.7367289" lon="11.5865223"><ele>1189.0</ele><time>2026-05-03T08:24:39.008Z</time></trkpt><trkpt lat="43.7366909" lon="11.5864055"><ele>1189.0</ele><time>2026-05-03T08:24:40.008Z</time></trkpt><trkpt lat="43.7366651" lon="11.5863161"><ele>1189.0</ele><time>2026-05-03T08:24:41.009Z</time></trkpt><trkpt lat="43.7366451" lon="11.5862294"><ele>1189.0</ele><time>2026-05-03T08:24:42.009Z</time></trkpt><trkpt lat="43.736597" lon="11.5861003"><ele>1189.0</ele><time>2026-05-03T08:24:44.008Z</time></trkpt><trkpt lat="43.7365094" lon="11.5861952"><ele>1189.0</ele><time>2026-05-03T08:24:47.009Z</time></trkpt><trkpt lat="43.7364463" lon="11.5863365"><ele>1189.0</ele><time>2026-05-03T08:24:49.009Z</time></trkpt><trkpt lat="43.7363889" lon="11.5863812"><ele>1189.0</ele><time>2026-05-03T08:24:50.009Z</time></trkpt><trkpt lat="43.7363167" lon="11.5864295"><ele>1189.0</ele><time>2026-05-03T08:24:51.009Z</time></trkpt><trkpt lat="43.7362105" lon="11.5864363"><ele>1189.0</ele><time>2026-05-03T08:24:52.009Z</time></trkpt><trkpt lat="43.7361138" lon="11.5864555"><ele>1189.0</ele><time>2026-05-03T08:24:53.009Z</time></trkpt><trkpt lat="43.7360116" lon="11.5864547"><ele>1189.0</ele><time>2026-05-03T08:24:54.009Z</time></trkpt><trkpt lat="43.7359314" lon="11.5864136"><ele>1189.0</ele><time>2026-05-03T08:24:55.009Z</time></trkpt><trkpt lat="43.7358191" lon="11.5863759"><ele>1189.0</ele><time>2026-05-03T08:24:56.008Z</time></trkpt><trkpt lat="43.7357228" lon="11.586347"><ele>1188.8333333333333</ele><time>2026-05-03T08:24:57.009Z</time></trkpt><trkpt lat="43.73563" lon="11.5863201"><ele>1188.6666666666665</ele><time>2026-05-03T08:24:58.007Z</time></trkpt><trkpt lat="43.7355409" lon="11.5862885"><ele>1188.5</ele><time>2026-05-03T08:24:59.009Z</time></trkpt><trkpt lat="43.7354473" lon="11.5862598"><ele>1188.3333333333333</ele><time>2026-05-03T08:25:00.009Z</time></trkpt><trkpt lat="43.7353637" lon="11.5862374"><ele>1188.1666666666667</ele><time>2026-05-03T08:25:01.008Z</time></trkpt><trkpt lat="43.7352946" lon="11.5862234"><ele>1188.0</ele><time>2026-05-03T08:25:02.008Z</time></trkpt><trkpt lat="43.7352288" lon="11.5862236"><ele>1188.2</ele><time>2026-05-03T08:25:03.008Z</time></trkpt><trkpt lat="43.7351434" lon="11.5862713"><ele>1188.4</ele><time>2026-05-03T08:25:04.009Z</time></trkpt><trkpt lat="43.7350587" lon="11.5863165"><ele>1188.6000000000001</ele><time>2026-05-03T08:25:05.008Z</time></trkpt><trkpt lat="43.734973" lon="11.5863613"><ele>1188.8</ele><time>2026-05-03T08:25:06.009Z</time></trkpt><trkpt lat="43.7348848" lon="11.5863837"><ele>1189.0</ele><time>2026-05-03T08:25:07.009Z</time></trkpt><trkpt lat="43.7347936" lon="11.5863919"><ele>1189.0</ele><time>2026-05-03T08:25:08.008Z</time></trkpt><trkpt lat="43.734707" lon="11.5863512"><ele>1189.0</ele><time>2026-05-03T08:25:09.009Z</time></trkpt><trkpt lat="43.7346206" lon="11.5863082"><ele>1189.0</ele><time>2026-05-03T08:25:10.009Z</time></trkpt><trkpt lat="43.734572" lon="11.5862141"><ele>1189.0</ele><time>2026-05-03T08:25:11.009Z</time></trkpt><trkpt lat="43.7345317" lon="11.5861417"><ele>1189.0</ele><time>2026-05-03T08:25:12.009Z</time></trkpt><trkpt lat="43.7344954" lon="11.5860671"><ele>1189.0</ele><time>2026-05-03T08:25:14.009Z</time></trkpt><trkpt lat="43.7344764" lon="11.5861515"><ele>1189.0</ele><time>2026-05-03T08:25:17.009Z</time></trkpt><trkpt lat="43.7344626" lon="11.5862978"><ele>1189.0</ele><time>2026-05-03T08:25:20.007Z</time></trkpt><trkpt lat="43.7345172" lon="11.5864087"><ele>1189.0</ele><time>2026-05-03T08:25:22.009Z</time></trkpt><trkpt lat="43.7345771" lon="11.5865353"><ele>1189.0</ele><time>2026-05-03T08:25:24.008Z</time></trkpt><trkpt lat="43.7345651" lon="11.5866545"><ele>1189.0</ele><time>2026-05-03T08:25:25.009Z</time></trkpt><trkpt lat="43.7345635" lon="11.5867862"><ele>1189.0</ele><time>2026-05-03T08:25:26.008Z</time></trkpt><trkpt lat="43.7345703" lon="11.5869155"><ele>1189.0</ele><time>2026-05-03T08:25:27.007Z</time></trkpt><trkpt lat="43.7345389" lon="11.5870252"><ele>1189.0</ele><time>2026-05-03T08:25:28.008Z</time></trkpt><trkpt lat="43.7344982" lon="11.5871215"><ele>1189.0</ele><time>2026-05-03T08:25:29.009Z</time></trkpt><trkpt lat="43.7344305" lon="11.5871809"><ele>1189.0</ele><time>2026-05-03T08:25:30.008Z</time></trkpt><trkpt lat="43.7343526" lon="11.5872388"><ele>1189.0</ele><time>2026-05-03T08:25:31.009Z</time></trkpt><trkpt lat="43.7342509" lon="11.5872816"><ele>1190.2</ele><time>2026-05-03T08:25:32.009Z</time></trkpt><trkpt lat="43.7341804" lon="11.5873439"><ele>1191.4</ele><time>2026-05-03T08:25:33.008Z</time></trkpt><trkpt lat="43.7341178" lon="11.587451"><ele>1192.6</ele><time>2026-05-03T08:25:34.008Z</time></trkpt><trkpt lat="43.734071" lon="11.5875412"><ele>1193.8</ele><time>2026-05-03T08:25:35.008Z</time></trkpt><trkpt lat="43.7340095" lon="11.5876391"><ele>1195.0</ele><time>2026-05-03T08:25:37.008Z</time></trkpt><trkpt lat="43.7339545" lon="11.5877731"><ele>1195.0</ele><time>2026-05-03T08:25:39.008Z</time></trkpt><trkpt lat="43.7340274" lon="11.5877882"><ele>1195.0</ele><time>2026-05-03T08:25:41.009Z</time></trkpt><trkpt lat="43.7340757" lon="11.5878452"><ele>1195.0</ele><time>2026-05-03T08:25:42.008Z</time></trkpt><trkpt lat="43.7341438" lon="11.5879375"><ele>1195.0</ele><time>2026-05-03T08:25:43.008Z</time></trkpt><trkpt lat="43.7342227" lon="11.5880378"><ele>1195.0</ele><time>2026-05-03T08:25:44.009Z</time></trkpt><trkpt lat="43.7342877" lon="11.5881265"><ele>1195.0</ele><time>2026-05-03T08:25:45.009Z</time></trkpt><trkpt lat="43.7343114" lon="11.5882342"><ele>1195.6</ele><time>2026-05-03T08:25:46.008Z</time></trkpt><trkpt lat="43.7343342" lon="11.588347"><ele>1196.2</ele><time>2026-05-03T08:25:47.008Z</time></trkpt><trkpt lat="43.7343424" lon="11.5884776"><ele>1196.8</ele><time>2026-05-03T08:25:48.009Z</time></trkpt><trkpt lat="43.7343585" lon="11.5886121"><ele>1197.4</ele><time>2026-05-03T08:25:49.008Z</time></trkpt><trkpt lat="43.7343854" lon="11.5887348"><ele>1198.0</ele><time>2026-05-03T08:25:50.008Z</time></trkpt><trkpt lat="43.7343916" lon="11.5888508"><ele>1199.4</ele><time>2026-05-03T08:25:51.009Z</time></trkpt><trkpt lat="43.7343459" lon="11.5889602"><ele>1200.8</ele><time>2026-05-03T08:25:53.009Z</time></trkpt><trkpt lat="43.7343868" lon="11.5890369"><ele>1202.2</ele><time>2026-05-03T08:25:56.008Z</time></trkpt><trkpt lat="43.7344634" lon="11.5891173"><ele>1203.6</ele><time>2026-05-03T08:25:58.008Z</time></trkpt><trkpt lat="43.7345599" lon="11.5891983"><ele>1205.0</ele><time>2026-05-03T08:25:59.009Z</time></trkpt><trkpt lat="43.7346668" lon="11.5892749"><ele>1200.5</ele><time>2026-05-03T08:26:00.008Z</time></trkpt><trkpt lat="43.7347638" lon="11.5893825"><ele>1196.0</ele><time>2026-05-03T08:26:01.009Z</time></trkpt><trkpt lat="43.7348585" lon="11.5894811"><ele>1191.5</ele><time>2026-05-03T08:26:02.008Z</time></trkpt><trkpt lat="43.7349444" lon="11.589582"><ele>1187.0</ele><time>2026-05-03T08:26:03.009Z</time></trkpt><trkpt lat="43.7350214" lon="11.5896967"><ele>1187.0</ele><time>2026-05-03T08:26:04.009Z</time></trkpt><trkpt lat="43.7350514" lon="11.589838"><ele>1187.0</ele><time>2026-05-03T08:26:05.008Z</time></trkpt><trkpt lat="43.7351054" lon="11.5899612"><ele>1187.0</ele><time>2026-05-03T08:26:06.009Z</time></trkpt><trkpt lat="43.7351221" lon="11.590084"><ele>1187.0</ele><time>2026-05-03T08:26:07.008Z</time></trkpt><trkpt lat="43.7351151" lon="11.5902024"><ele>1187.0</ele><time>2026-05-03T08:26:08.009Z</time></trkpt><trkpt lat="43.7351129" lon="11.5903277"><ele>1188.6</ele><time>2026-05-03T08:26:09.009Z</time></trkpt><trkpt lat="43.7351052" lon="11.5904305"><ele>1190.2</ele><time>2026-05-03T08:26:10.009Z</time></trkpt><trkpt lat="43.735106" lon="11.5905248"><ele>1191.8</ele><time>2026-05-03T08:26:11.009Z</time></trkpt><trkpt lat="43.7351662" lon="11.5907137"><ele>1193.4</ele><time>2026-05-03T08:26:13.009Z</time></trkpt><trkpt lat="43.7352163" lon="11.5908458"><ele>1195.0</ele><time>2026-05-03T08:26:14.008Z</time></trkpt><trkpt lat="43.7352605" lon="11.5909662"><ele>1190.8</ele><time>2026-05-03T08:26:15.009Z</time></trkpt><trkpt lat="43.7352861" lon="11.5911355"><ele>1186.6</ele><time>2026-05-03T08:26:16.009Z</time></trkpt><trkpt lat="43.7353428" lon="11.591287"><ele>1182.4</ele><time>2026-05-03T08:26:17.009Z</time></trkpt><trkpt lat="43.7353812" lon="11.5914284"><ele>1178.2</ele><time>2026-05-03T08:26:18.008Z</time></trkpt><trkpt lat="43.7354196" lon="11.5915154"><ele>1174.0</ele><time>2026-05-03T08:26:19.009Z</time></trkpt><trkpt lat="43.7354516" lon="11.5916365"><ele>1174.0</ele><time>2026-05-03T08:26:20.009Z</time></trkpt><trkpt lat="43.735492" lon="11.5917744"><ele>1174.0</ele><time>2026-05-03T08:26:21.009Z</time></trkpt><trkpt lat="43.7355371" lon="11.59191"><ele>1174.0</ele><time>2026-05-03T08:26:22.008Z</time></trkpt><trkpt lat="43.7355408" lon="11.5920516"><ele>1174.0</ele><time>2026-05-03T08:26:23.009Z</time></trkpt><trkpt lat="43.7355409" lon="11.5921856"><ele>1174.0</ele><time>2026-05-03T08:26:24.007Z</time></trkpt><trkpt lat="43.7355471" lon="11.5923217"><ele>1175.2</ele><time>2026-05-03T08:26:25.009Z</time></trkpt><trkpt lat="43.7355171" lon="11.5924219"><ele>1176.4</ele><time>2026-05-03T08:26:26.009Z</time></trkpt><trkpt lat="43.735485" lon="11.5925527"><ele>1177.6</ele><time>2026-05-03T08:26:27.009Z</time></trkpt><trkpt lat="43.73546" lon="11.5926935"><ele>1178.8</ele><time>2026-05-03T08:26:28.009Z</time></trkpt><trkpt lat="43.7354207" lon="11.5928268"><ele>1180.0</ele><time>2026-05-03T08:26:29.008Z</time></trkpt><trkpt lat="43.7353879" lon="11.5929522"><ele>1180.6</ele><time>2026-05-03T08:26:30.009Z</time></trkpt><trkpt lat="43.7353702" lon="11.593088"><ele>1181.2</ele><time>2026-05-03T08:26:31.008Z</time></trkpt><trkpt lat="43.7353521" lon="11.5932353"><ele>1181.8</ele><time>2026-05-03T08:26:32.008Z</time></trkpt><trkpt lat="43.7353974" lon="11.5933562"><ele>1182.4</ele><time>2026-05-03T08:26:33.009Z</time></trkpt><trkpt lat="43.7354077" lon="11.593514"><ele>1183.0</ele><time>2026-05-03T08:26:34.008Z</time></trkpt><trkpt lat="43.7354159" lon="11.5936665"><ele>1183.0</ele><time>2026-05-03T08:26:35.008Z</time></trkpt><trkpt lat="43.735427" lon="11.5937888"><ele>1183.0</ele><time>2026-05-03T08:26:36.008Z</time></trkpt><trkpt lat="43.7354267" lon="11.5939071"><ele>1183.0</ele><time>2026-05-03T08:26:37.009Z</time></trkpt><trkpt lat="43.7354293" lon="11.5940212"><ele>1183.0</ele><time>2026-05-03T08:26:38.009Z</time></trkpt><trkpt lat="43.7354099" lon="11.5941565"><ele>1183.0</ele><time>2026-05-03T08:26:39.009Z</time></trkpt><trkpt lat="43.7353875" lon="11.5942859"><ele>1183.0</ele><time>2026-05-03T08:26:40.009Z</time></trkpt><trkpt lat="43.7353635" lon="11.5943976"><ele>1183.0</ele><time>2026-05-03T08:26:41.007Z</time></trkpt><trkpt lat="43.7352898" lon="11.5944912"><ele>1183.0</ele><time>2026-05-03T08:26:42.009Z</time></trkpt><trkpt lat="43.735175" lon="11.5944966"><ele>1183.0</ele><time>2026-05-03T08:26:43.008Z</time></trkpt><trkpt lat="43.7350721" lon="11.5945232"><ele>1183.0</ele><time>2026-05-03T08:26:44.009Z</time></trkpt><trkpt lat="43.7349729" lon="11.5945814"><ele>1183.3333333333333</ele><time>2026-05-03T08:26:45.009Z</time></trkpt><trkpt lat="43.7348931" lon="11.594632"><ele>1183.6666666666665</ele><time>2026-05-03T08:26:46.009Z</time></trkpt><trkpt lat="43.7348111" lon="11.5946774"><ele>1184.0</ele><time>2026-05-03T08:26:47.008Z</time></trkpt><trkpt lat="43.7347269" lon="11.5947082"><ele>1184.3333333333333</ele><time>2026-05-03T08:26:48.008Z</time></trkpt><trkpt lat="43.7346446" lon="11.5947061"><ele>1184.6666666666667</ele><time>2026-05-03T08:26:49.008Z</time></trkpt><trkpt lat="43.7345594" lon="11.5947141"><ele>1185.0</ele><time>2026-05-03T08:26:50.008Z</time></trkpt><trkpt lat="43.7344852" lon="11.5946914"><ele>1185.0</ele><time>2026-05-03T08:26:51.007Z</time></trkpt><trkpt lat="43.7344042" lon="11.5946546"><ele>1185.0</ele><time>2026-05-03T08:26:52.008Z</time></trkpt><trkpt lat="43.7343127" lon="11.5946216"><ele>1185.0</ele><time>2026-05-03T08:26:53.009Z</time></trkpt><trkpt lat="43.7342227" lon="11.5945931"><ele>1185.0</ele><time>2026-05-03T08:26:54.009Z</time></trkpt><trkpt lat="43.7341306" lon="11.5945921"><ele>1185.0</ele><time>2026-05-03T08:26:55.008Z</time></trkpt><trkpt lat="43.7340375" lon="11.5945997"><ele>1184.6666666666667</ele><time>2026-05-03T08:26:56.009Z</time></trkpt><trkpt lat="43.7339716" lon="11.5946043"><ele>1184.3333333333333</ele><time>2026-05-03T08:26:57.009Z</time></trkpt><trkpt lat="43.7338873" lon="11.5946901"><ele>1184.0</ele><time>2026-05-03T08:27:00.009Z</time></trkpt><trkpt lat="43.7338405" lon="11.5947609"><ele>1183.6666666666665</ele><time>2026-05-03T08:27:01.008Z</time></trkpt><trkpt lat="43.7337789" lon="11.5948616"><ele>1183.3333333333333</ele><time>2026-05-03T08:27:02.008Z</time></trkpt><trkpt lat="43.7337283" lon="11.5949786"><ele>1183.0</ele><time>2026-05-03T08:27:03.009Z</time></trkpt><trkpt lat="43.7336763" lon="11.5950937"><ele>1183.0</ele><time>2026-05-03T08:27:04.009Z</time></trkpt><trkpt lat="43.7336257" lon="11.5951935"><ele>1183.0</ele><time>2026-05-03T08:27:05.009Z</time></trkpt><trkpt lat="43.7335629" lon="11.5952688"><ele>1183.0</ele><time>2026-05-03T08:27:06.009Z</time></trkpt><trkpt lat="43.7334977" lon="11.5953556"><ele>1183.0</ele><time>2026-05-03T08:27:07.008Z</time></trkpt><trkpt lat="43.7334401" lon="11.5954174"><ele>1183.0</ele><time>2026-05-03T08:27:08.009Z</time></trkpt><trkpt lat="43.7333843" lon="11.5955756"><ele>1181.4</ele><time>2026-05-03T08:27:10.009Z</time></trkpt><trkpt lat="43.7333205" lon="11.5956634"><ele>1179.8</ele><time>2026-05-03T08:27:11.008Z</time></trkpt><trkpt lat="43.7332354" lon="11.5957702"><ele>1178.2</ele><time>2026-05-03T08:27:12.008Z</time></trkpt><trkpt lat="43.7331386" lon="11.5958688"><ele>1176.6</ele><time>2026-05-03T08:27:13.009Z</time></trkpt><trkpt lat="43.7330378" lon="11.5959665"><ele>1175.0</ele><time>2026-05-03T08:27:14.008Z</time></trkpt><trkpt lat="43.7329342" lon="11.5960553"><ele>1175.0</ele><time>2026-05-03T08:27:15.008Z</time></trkpt><trkpt lat="43.7328492" lon="11.596118"><ele>1175.0</ele><time>2026-05-03T08:27:16.008Z</time></trkpt><trkpt lat="43.7327808" lon="11.5961337"><ele>1175.0</ele><time>2026-05-03T08:27:17.008Z</time></trkpt><trkpt lat="43.7327082" lon="11.5962035"><ele>1175.0</ele><time>2026-05-03T08:27:18.008Z</time></trkpt><trkpt lat="43.7326241" lon="11.596259"><ele>1175.0</ele><time>2026-05-03T08:27:19.01Z</time></trkpt><trkpt lat="43.7325402" lon="11.596306"><ele>1175.0</ele><time>2026-05-03T08:27:20.009Z</time></trkpt><trkpt lat="43.7324444" lon="11.5963693"><ele>1174.75</ele><time>2026-05-03T08:27:21.01Z</time></trkpt><trkpt lat="43.7323439" lon="11.5964431"><ele>1174.5</ele><time>2026-05-03T08:27:22.009Z</time></trkpt><trkpt lat="43.7322315" lon="11.5964927"><ele>1174.25</ele><time>2026-05-03T08:27:23.009Z</time></trkpt><trkpt lat="43.7321155" lon="11.5965364"><ele>1174.0</ele><time>2026-05-03T08:27:24.009Z</time></trkpt><trkpt lat="43.7320179" lon="11.5965294"><ele>1174.0</ele><time>2026-05-03T08:27:25.009Z</time></trkpt><trkpt lat="43.7319165" lon="11.5965512"><ele>1174.0</ele><time>2026-05-03T08:27:26.009Z</time></trkpt><trkpt lat="43.7318047" lon="11.5965913"><ele>1174.0</ele><time>2026-05-03T08:27:27.009Z</time></trkpt><trkpt lat="43.7316906" lon="11.5966192"><ele>1174.0</ele><time>2026-05-03T08:27:28.01Z</time></trkpt><trkpt lat="43.7315752" lon="11.5966515"><ele>1177.75</ele><time>2026-05-03T08:27:29.01Z</time></trkpt><trkpt lat="43.7314664" lon="11.5966849"><ele>1181.5</ele><time>2026-05-03T08:27:30.009Z</time></trkpt><trkpt lat="43.7313566" lon="11.5967183"><ele>1185.25</ele><time>2026-05-03T08:27:31.009Z</time></trkpt><trkpt lat="43.7312282" lon="11.5967498"><ele>1189.0</ele><time>2026-05-03T08:27:32.009Z</time></trkpt><trkpt lat="43.7311288" lon="11.5967317"><ele>1190.5</ele><time>2026-05-03T08:27:33.009Z</time></trkpt><trkpt lat="43.731038" lon="11.5967277"><ele>1192.0</ele><time>2026-05-03T08:27:34.01Z</time></trkpt><trkpt lat="43.7309209" lon="11.5967236"><ele>1193.5</ele><time>2026-05-03T08:27:36.01Z</time></trkpt><trkpt lat="43.7308554" lon="11.5966776"><ele>1195.0</ele><time>2026-05-03T08:27:37.01Z</time></trkpt><trkpt lat="43.7307827" lon="11.5966683"><ele>1196.5</ele><time>2026-05-03T08:27:38.009Z</time></trkpt><trkpt lat="43.7307048" lon="11.596667"><ele>1198.0</ele><time>2026-05-03T08:27:39.009Z</time></trkpt><trkpt lat="43.7306235" lon="11.5966265"><ele>1198.0</ele><time>2026-05-03T08:27:40.009Z</time></trkpt><trkpt lat="43.7305372" lon="11.5965785"><ele>1198.0</ele><time>2026-05-03T08:27:41.01Z</time></trkpt><trkpt lat="43.7305106" lon="11.5964632"><ele>1198.0</ele><time>2026-05-03T08:27:42.009Z</time></trkpt><trkpt lat="43.7304514" lon="11.5963875"><ele>1198.0</ele><time>2026-05-03T08:27:43.01Z</time></trkpt><trkpt lat="43.7304401" lon="11.59626"><ele>1198.0</ele><time>2026-05-03T08:27:44.01Z</time></trkpt><trkpt lat="43.7304436" lon="11.596119"><ele>1200.5</ele><time>2026-05-03T08:27:45.008Z</time></trkpt><trkpt lat="43.7304225" lon="11.5960032"><ele>1203.0</ele><time>2026-05-03T08:27:46.01Z</time></trkpt><trkpt lat="43.7304646" lon="11.5959345"><ele>1205.5</ele><time>2026-05-03T08:27:47.01Z</time></trkpt><trkpt lat="43.7304928" lon="11.5958422"><ele>1208.0</ele><time>2026-05-03T08:27:48.01Z</time></trkpt><trkpt lat="43.7305532" lon="11.5957231"><ele>1210.5</ele><time>2026-05-03T08:27:50.009Z</time></trkpt><trkpt lat="43.7305315" lon="11.5956406"><ele>1213.0</ele><time>2026-05-03T08:27:52.01Z</time></trkpt><trkpt lat="43.7304704" lon="11.5956104"><ele>1213.0</ele><time>2026-05-03T08:27:53.009Z</time></trkpt><trkpt lat="43.7304089" lon="11.5955891"><ele>1213.0</ele><time>2026-05-03T08:27:54.01Z</time></trkpt><trkpt lat="43.7303247" lon="11.5955974"><ele>1213.0</ele><time>2026-05-03T08:27:55.01Z</time></trkpt><trkpt lat="43.7302516" lon="11.5955671"><ele>1213.0</ele><time>2026-05-03T08:27:56.009Z</time></trkpt><trkpt lat="43.730171" lon="11.5955199"><ele>1213.0</ele><time>2026-05-03T08:27:57.01Z</time></trkpt><trkpt lat="43.7300799" lon="11.5954788"><ele>1213.0</ele><time>2026-05-03T08:27:58.009Z</time></trkpt><trkpt lat="43.7300072" lon="11.5954273"><ele>1215.6</ele><time>2026-05-03T08:27:59.009Z</time></trkpt><trkpt lat="43.7299376" lon="11.5953233"><ele>1218.1999999999998</ele><time>2026-05-03T08:28:01.01Z</time></trkpt><trkpt lat="43.7298747" lon="11.5952615"><ele>1220.8</ele><time>2026-05-03T08:28:55.01Z</time></trkpt><trkpt lat="43.7297384" lon="11.5952281"><ele>1223.3999999999999</ele><time>2026-05-03T08:28:57.009Z</time></trkpt><trkpt lat="43.7296455" lon="11.5951803"><ele>1226.0</ele><time>2026-05-03T08:28:59.01Z</time></trkpt><trkpt lat="43.7295464" lon="11.5951288"><ele>1226.0</ele><time>2026-05-03T08:29:01.01Z</time></trkpt><trkpt lat="43.7294707" lon="11.5950788"><ele>1226.0</ele><time>2026-05-03T08:29:03.009Z</time></trkpt><trkpt lat="43.7294113" lon="11.5950157"><ele>1226.0</ele><time>2026-05-03T08:29:06.009Z</time></trkpt><trkpt lat="43.7294043" lon="11.5949229"><ele>1226.0</ele><time>2026-05-03T08:29:08.01Z</time></trkpt><trkpt lat="43.7294457" lon="11.5948352"><ele>1226.0</ele><time>2026-05-03T08:29:10.009Z</time></trkpt><trkpt lat="43.729488" lon="11.5947439"><ele>1226.0</ele><time>2026-05-03T08:29:12.01Z</time></trkpt><trkpt lat="43.7294747" lon="11.5946496"><ele>1226.0</ele><time>2026-05-03T08:29:14.01Z</time></trkpt><trkpt lat="43.7294287" lon="11.5945848"><ele>1226.0</ele><time>2026-05-03T08:29:16.01Z</time></trkpt><trkpt lat="43.7294028" lon="11.594497"><ele>1226.0</ele><time>2026-05-03T08:29:17.922Z</time></trkpt><trkpt lat="43.7293773" lon="11.5943799"><ele>1226.0</ele><time>2026-05-03T08:29:20.009Z</time></trkpt><trkpt lat="43.7293469" lon="11.5942654"><ele>1226.0</ele><time>2026-05-03T08:29:22.01Z</time></trkpt><trkpt lat="43.7293396" lon="11.5941367"><ele>1226.0</ele><time>2026-05-03T08:29:24.037Z</time></trkpt><trkpt lat="43.7293061" lon="11.5939254"><ele>1229.0</ele><time>2026-05-03T08:29:26.01Z</time></trkpt><trkpt lat="43.7293122" lon="11.5938008"><ele>1232.0</ele><time>2026-05-03T08:29:28.009Z</time></trkpt><trkpt lat="43.7293432" lon="11.5936463"><ele>1235.0</ele><time>2026-05-03T08:29:30.009Z</time></trkpt><trkpt lat="43.7293772" lon="11.59355"><ele>1238.0</ele><time>2026-05-03T08:29:31.009Z</time></trkpt><trkpt lat="43.7294155" lon="11.5934667"><ele>1241.0</ele><time>2026-05-03T08:29:32.01Z</time></trkpt><trkpt lat="43.7294602" lon="11.5933964"><ele>1244.0</ele><time>2026-05-03T08:29:33.009Z</time></trkpt><trkpt lat="43.7295226" lon="11.5933083"><ele>1245.6666666666667</ele><time>2026-05-03T08:29:34.01Z</time></trkpt><trkpt lat="43.7295921" lon="11.5932161"><ele>1247.3333333333335</ele><time>2026-05-03T08:29:35.008Z</time></trkpt><trkpt lat="43.7296537" lon="11.5931342"><ele>1249.0</ele><time>2026-05-03T08:29:36.01Z</time></trkpt><trkpt lat="43.7297151" lon="11.5930586"><ele>1250.6666666666667</ele><time>2026-05-03T08:29:37.01Z</time></trkpt><trkpt lat="43.7297648" lon="11.5929979"><ele>1252.3333333333333</ele><time>2026-05-03T08:29:38.01Z</time></trkpt><trkpt lat="43.7298444" lon="11.5928893"><ele>1254.0</ele><time>2026-05-03T08:29:39.01Z</time></trkpt><trkpt lat="43.7298629" lon="11.5928051"><ele>1256.0</ele><time>2026-05-03T08:29:41.009Z</time></trkpt><trkpt lat="43.7298775" lon="11.5926641"><ele>1258.0</ele><time>2026-05-03T08:29:43.009Z</time></trkpt><trkpt lat="43.729917" lon="11.5925037"><ele>1260.0</ele><time>2026-05-03T08:29:45.01Z</time></trkpt><trkpt lat="43.7299784" lon="11.5923665"><ele>1262.0</ele><time>2026-05-03T08:29:47.009Z</time></trkpt><trkpt lat="43.7300135" lon="11.5922811"><ele>1264.0</ele><time>2026-05-03T08:29:48.009Z</time></trkpt><trkpt lat="43.7300264" lon="11.5921698"><ele>1264.0</ele><time>2026-05-03T08:29:50.01Z</time></trkpt><trkpt lat="43.7300367" lon="11.592063"><ele>1264.0</ele><time>2026-05-03T08:29:52.01Z</time></trkpt><trkpt lat="43.72999" lon="11.5919183"><ele>1264.0</ele><time>2026-05-03T08:29:54.01Z</time></trkpt><trkpt lat="43.7299465" lon="11.5918274"><ele>1264.0</ele><time>2026-05-03T08:29:55.009Z</time></trkpt><trkpt lat="43.7299049" lon="11.5917323"><ele>1264.0</ele><time>2026-05-03T08:29:56.01Z</time></trkpt><trkpt lat="43.7298684" lon="11.5916288"><ele>1264.0</ele><time>2026-05-03T08:29:57.01Z</time></trkpt><trkpt lat="43.729828" lon="11.5915251"><ele>1266.6000000000001</ele><time>2026-05-03T08:29:58.009Z</time></trkpt><trkpt lat="43.7298165" lon="11.591392"><ele>1269.2</ele><time>2026-05-03T08:29:59.01Z</time></trkpt><trkpt lat="43.7297945" lon="11.5912728"><ele>1271.8000000000002</ele><time>2026-05-03T08:30:00.008Z</time></trkpt><trkpt lat="43.72975" lon="11.5911566"><ele>1274.4</ele><time>2026-05-03T08:30:01.009Z</time></trkpt><trkpt lat="43.7297094" lon="11.5910459"><ele>1277.0</ele><time>2026-05-03T08:30:02.01Z</time></trkpt><trkpt lat="43.7296578" lon="11.5909019"><ele>1280.0</ele><time>2026-05-03T08:30:03.009Z</time></trkpt><trkpt lat="43.729591" lon="11.5906973"><ele>1283.0</ele><time>2026-05-03T08:30:04.009Z</time></trkpt><trkpt lat="43.7295395" lon="11.5905215"><ele>1286.0</ele><time>2026-05-03T08:30:05.008Z</time></trkpt><trkpt lat="43.7295056" lon="11.5903542"><ele>1289.0</ele><time>2026-05-03T08:30:06.01Z</time></trkpt><trkpt lat="43.729478" lon="11.5901994"><ele>1290.8333333333335</ele><time>2026-05-03T08:30:07.01Z</time></trkpt><trkpt lat="43.7294544" lon="11.5900614"><ele>1292.6666666666667</ele><time>2026-05-03T08:30:08.01Z</time></trkpt><trkpt lat="43.7294843" lon="11.5899803"><ele>1294.5</ele><time>2026-05-03T08:30:09.009Z</time></trkpt><trkpt lat="43.7295304" lon="11.5898353"><ele>1296.3333333333333</ele><time>2026-05-03T08:30:11.009Z</time></trkpt><trkpt lat="43.729487" lon="11.5897684"><ele>1298.1666666666665</ele><time>2026-05-03T08:30:14.009Z</time></trkpt><trkpt lat="43.7294138" lon="11.589782"><ele>1300.0</ele><time>2026-05-03T08:30:19.008Z</time></trkpt><trkpt lat="43.7293" lon="11.5897886"><ele>1300.142857142857</ele><time>2026-05-03T08:30:21.01Z</time></trkpt><trkpt lat="43.7292311" lon="11.5897783"><ele>1300.2857142857144</ele><time>2026-05-03T08:30:22.01Z</time></trkpt><trkpt lat="43.7291629" lon="11.5897755"><ele>1300.4285714285716</ele><time>2026-05-03T08:30:23.009Z</time></trkpt><trkpt lat="43.7290991" lon="11.5897819"><ele>1300.5714285714284</ele><time>2026-05-03T08:30:24.01Z</time></trkpt><trkpt lat="43.729026" lon="11.5897887"><ele>1300.7142857142858</ele><time>2026-05-03T08:30:25.01Z</time></trkpt><trkpt lat="43.7289406" lon="11.5897915"><ele>1300.857142857143</ele><time>2026-05-03T08:30:26.01Z</time></trkpt><trkpt lat="43.7288761" lon="11.5897933"><ele>1301.0</ele><time>2026-05-03T08:30:27.01Z</time></trkpt><trkpt lat="43.7287568" lon="11.5897813"><ele>1301.0</ele><time>2026-05-03T08:30:29.008Z</time></trkpt><trkpt lat="43.728686" lon="11.5897945"><ele>1301.0</ele><time>2026-05-03T08:30:30.01Z</time></trkpt><trkpt lat="43.7286024" lon="11.589827"><ele>1301.0</ele><time>2026-05-03T08:30:31.01Z</time></trkpt><trkpt lat="43.7285178" lon="11.5898553"><ele>1301.0</ele><time>2026-05-03T08:30:32.01Z</time></trkpt><trkpt lat="43.7284316" lon="11.5898851"><ele>1301.0</ele><time>2026-05-03T08:30:33.01Z</time></trkpt><trkpt lat="43.7283476" lon="11.5899165"><ele>1301.0</ele><time>2026-05-03T08:30:34.009Z</time></trkpt><trkpt lat="43.7282601" lon="11.5899554"><ele>1301.6</ele><time>2026-05-03T08:30:35.01Z</time></trkpt><trkpt lat="43.7281698" lon="11.589999"><ele>1302.1999999999998</ele><time>2026-05-03T08:30:36.01Z</time></trkpt><trkpt lat="43.7280776" lon="11.5900577"><ele>1302.8000000000002</ele><time>2026-05-03T08:30:37.009Z</time></trkpt><trkpt lat="43.7279998" lon="11.5901124"><ele>1303.4</ele><time>2026-05-03T08:30:38.01Z</time></trkpt><trkpt lat="43.7279372" lon="11.5901444"><ele>1304.0</ele><time>2026-05-03T08:30:39.009Z</time></trkpt><trkpt lat="43.727825" lon="11.590125"><ele>1304.0</ele><time>2026-05-03T08:30:41.009Z</time></trkpt><trkpt lat="43.727752" lon="11.5901072"><ele>1304.0</ele><time>2026-05-03T08:30:42.008Z</time></trkpt><trkpt lat="43.7276395" lon="11.5900844"><ele>1304.0</ele><time>2026-05-03T08:30:44.009Z</time></trkpt><trkpt lat="43.7275406" lon="11.590112"><ele>1304.0</ele><time>2026-05-03T08:30:46.01Z</time></trkpt><trkpt lat="43.7275529" lon="11.5902241"><ele>1304.0</ele><time>2026-05-03T08:30:52.01Z</time></trkpt><trkpt lat="43.7275965" lon="11.5901594"><ele>1304.0</ele><time>2026-05-03T08:30:56.009Z</time></trkpt><trkpt lat="43.7277168" lon="11.590109"><ele>1304.0</ele><time>2026-05-03T08:30:58.009Z</time></trkpt><trkpt lat="43.7277958" lon="11.5901228"><ele>1304.0</ele><time>2026-05-03T08:30:59.01Z</time></trkpt><trkpt lat="43.7278705" lon="11.5901422"><ele>1304.0</ele><time>2026-05-03T08:31:00.009Z</time></trkpt><trkpt lat="43.7279417" lon="11.5901423"><ele>1304.0</ele><time>2026-05-03T08:31:01.01Z</time></trkpt><trkpt lat="43.728004" lon="11.5901234"><ele>1304.0</ele><time>2026-05-03T08:31:02.009Z</time></trkpt><trkpt lat="43.7280755" lon="11.5900714"><ele>1304.0</ele><time>2026-05-03T08:31:03.009Z</time></trkpt><trkpt lat="43.7281602" lon="11.5900119"><ele>1304.0</ele><time>2026-05-03T08:31:04.009Z</time></trkpt><trkpt lat="43.7282538" lon="11.589961"><ele>1304.0</ele><time>2026-05-03T08:31:05.01Z</time></trkpt><trkpt lat="43.7283431" lon="11.5899264"><ele>1304.0</ele><time>2026-05-03T08:31:06.009Z</time></trkpt><trkpt lat="43.7284279" lon="11.5898982"><ele>1304.0</ele><time>2026-05-03T08:31:07.01Z</time></trkpt><trkpt lat="43.7285064" lon="11.5898618"><ele>1304.0</ele><time>2026-05-03T08:31:08.01Z</time></trkpt><trkpt lat="43.7285826" lon="11.5898346"><ele>1304.0</ele><time>2026-05-03T08:31:09.01Z</time></trkpt><trkpt lat="43.7286556" lon="11.5898209"><ele>1303.5</ele><time>2026-05-03T08:31:10.01Z</time></trkpt><trkpt lat="43.7287294" lon="11.5897897"><ele>1303.0</ele><time>2026-05-03T08:31:11.01Z</time></trkpt><trkpt lat="43.7288026" lon="11.5897564"><ele>1302.5</ele><time>2026-05-03T08:31:12.008Z</time></trkpt><trkpt lat="43.7288777" lon="11.5897325"><ele>1302.0</ele><time>2026-05-03T08:31:13.01Z</time></trkpt><trkpt lat="43.7289564" lon="11.5897414"><ele>1301.5</ele><time>2026-05-03T08:31:14.009Z</time></trkpt><trkpt lat="43.7290335" lon="11.5897566"><ele>1301.0</ele><time>2026-05-03T08:31:15.009Z</time></trkpt><trkpt lat="43.7291093" lon="11.5897831"><ele>1301.0</ele><time>2026-05-03T08:31:16.01Z</time></trkpt><trkpt lat="43.7291807" lon="11.5897974"><ele>1301.0</ele><time>2026-05-03T08:31:17.01Z</time></trkpt><trkpt lat="43.7292543" lon="11.5898077"><ele>1301.0</ele><time>2026-05-03T08:31:18.009Z</time></trkpt><trkpt lat="43.7293625" lon="11.5897748"><ele>1301.0</ele><time>2026-05-03T08:31:20.01Z</time></trkpt><trkpt lat="43.729472" lon="11.5897453"><ele>1301.0</ele><time>2026-05-03T08:31:22.01Z</time></trkpt><trkpt lat="43.7295929" lon="11.5897844"><ele>1300.8333333333335</ele><time>2026-05-03T08:31:24.009Z</time></trkpt><trkpt lat="43.7296804" lon="11.5897876"><ele>1300.6666666666667</ele><time>2026-05-03T08:31:25.009Z</time></trkpt><trkpt lat="43.7297683" lon="11.5897959"><ele>1300.5</ele><time>2026-05-03T08:31:26.009Z</time></trkpt><trkpt lat="43.7298414" lon="11.5897955"><ele>1300.3333333333333</ele><time>2026-05-03T08:31:27.01Z</time></trkpt><trkpt lat="43.7299297" lon="11.589754"><ele>1300.1666666666665</ele><time>2026-05-03T08:31:28.01Z</time></trkpt><trkpt lat="43.730028" lon="11.5897213"><ele>1300.0</ele><time>2026-05-03T08:31:29.009Z</time></trkpt><trkpt lat="43.7301168" lon="11.5897324"><ele>1299.8</ele><time>2026-05-03T08:31:30.01Z</time></trkpt><trkpt lat="43.7302369" lon="11.5897054"><ele>1299.6</ele><time>2026-05-03T08:31:32.009Z</time></trkpt><trkpt lat="43.7302686" lon="11.5895959"><ele>1299.4</ele><time>2026-05-03T08:31:34.008Z</time></trkpt><trkpt lat="43.730283" lon="11.5894967"><ele>1299.2</ele><time>2026-05-03T08:31:37.01Z</time></trkpt><trkpt lat="43.7302025" lon="11.5894405"><ele>1299.0</ele><time>2026-05-03T08:31:58.008Z</time></trkpt><trkpt lat="43.7300996" lon="11.5893912"><ele>1301.6666666666667</ele><time>2026-05-03T08:32:00.01Z</time></trkpt><trkpt lat="43.7300455" lon="11.5893077"><ele>1304.3333333333333</ele><time>2026-05-03T08:32:02.009Z</time></trkpt><trkpt lat="43.7299598" lon="11.5892182"><ele>1307.0</ele><time>2026-05-03T08:32:04.009Z</time></trkpt><trkpt lat="43.7299061" lon="11.5891505"><ele>1309.6666666666665</ele><time>2026-05-03T08:32:06.009Z</time></trkpt><trkpt lat="43.7298541" lon="11.5890483"><ele>1312.3333333333333</ele><time>2026-05-03T08:32:07.009Z</time></trkpt><trkpt lat="43.7298027" lon="11.5889644"><ele>1315.0</ele><time>2026-05-03T08:32:08.01Z</time></trkpt><trkpt lat="43.729752" lon="11.5888956"><ele>1315.0</ele><time>2026-05-03T08:32:09.009Z</time></trkpt><trkpt lat="43.7296836" lon="11.5888361"><ele>1315.0</ele><time>2026-05-03T08:32:10.01Z</time></trkpt><trkpt lat="43.7296293" lon="11.5886967"><ele>1315.0</ele><time>2026-05-03T08:32:12.01Z</time></trkpt><trkpt lat="43.7295799" lon="11.5885832"><ele>1315.0</ele><time>2026-05-03T08:32:14.009Z</time></trkpt><trkpt lat="43.7295195" lon="11.5884337"><ele>1315.0</ele><time>2026-05-03T08:32:16.009Z</time></trkpt><trkpt lat="43.7294351" lon="11.5883971"><ele>1317.8333333333333</ele><time>2026-05-03T08:32:17.009Z</time></trkpt><trkpt lat="43.7293403" lon="11.5883354"><ele>1320.6666666666665</ele><time>2026-05-03T08:32:18.01Z</time></trkpt><trkpt lat="43.7292614" lon="11.5882904"><ele>1323.5</ele><time>2026-05-03T08:32:19.01Z</time></trkpt><trkpt lat="43.7291776" lon="11.5882661"><ele>1326.3333333333333</ele><time>2026-05-03T08:32:20.009Z</time></trkpt><trkpt lat="43.7290988" lon="11.5882299"><ele>1329.1666666666667</ele><time>2026-05-03T08:32:21.01Z</time></trkpt><trkpt lat="43.7290221" lon="11.5881875"><ele>1332.0</ele><time>2026-05-03T08:32:22.009Z</time></trkpt><trkpt lat="43.7289451" lon="11.5881161"><ele>1332.0</ele><time>2026-05-03T08:32:23.01Z</time></trkpt><trkpt lat="43.7288575" lon="11.5880278"><ele>1332.0</ele><time>2026-05-03T08:32:24.009Z</time></trkpt><trkpt lat="43.7287722" lon="11.5879705"><ele>1332.0</ele><time>2026-05-03T08:32:25.01Z</time></trkpt><trkpt lat="43.728708" lon="11.5878973"><ele>1332.0</ele><time>2026-05-03T08:32:26.009Z</time></trkpt><trkpt lat="43.7286479" lon="11.5878266"><ele>1332.0</ele><time>2026-05-03T08:32:27.009Z</time></trkpt><trkpt lat="43.7285792" lon="11.5877455"><ele>1336.0</ele><time>2026-05-03T08:32:28.01Z</time></trkpt><trkpt lat="43.7284995" lon="11.5876743"><ele>1340.0</ele><time>2026-05-03T08:32:29.01Z</time></trkpt><trkpt lat="43.7284245" lon="11.5875905"><ele>1344.0</ele><time>2026-05-03T08:32:30.01Z</time></trkpt><trkpt lat="43.7283452" lon="11.5874949"><ele>1348.0</ele><time>2026-05-03T08:32:31.01Z</time></trkpt><trkpt lat="43.7282611" lon="11.5873857"><ele>1352.0</ele><time>2026-05-03T08:32:32.01Z</time></trkpt><trkpt lat="43.7281739" lon="11.5872808"><ele>1352.0</ele><time>2026-05-03T08:32:33.009Z</time></trkpt><trkpt lat="43.7280938" lon="11.5871815"><ele>1352.0</ele><time>2026-05-03T08:32:34.01Z</time></trkpt><trkpt lat="43.7280103" lon="11.5870978"><ele>1352.0</ele><time>2026-05-03T08:32:35.01Z</time></trkpt><trkpt lat="43.7279186" lon="11.5870089"><ele>1352.0</ele><time>2026-05-03T08:32:36.01Z</time></trkpt><trkpt lat="43.7278512" lon="11.5868966"><ele>1352.0</ele><time>2026-05-03T08:32:37.009Z</time></trkpt><trkpt lat="43.7277847" lon="11.5867625"><ele>1350.6</ele><time>2026-05-03T08:32:38.01Z</time></trkpt><trkpt lat="43.7277311" lon="11.5866331"><ele>1349.1999999999998</ele><time>2026-05-03T08:32:39.009Z</time></trkpt><trkpt lat="43.7276817" lon="11.5865097"><ele>1347.8</ele><time>2026-05-03T08:32:40.009Z</time></trkpt><trkpt lat="43.7276337" lon="11.5863992"><ele>1346.4</ele><time>2026-05-03T08:32:41.01Z</time></trkpt><trkpt lat="43.7275777" lon="11.5863001"><ele>1345.0</ele><time>2026-05-03T08:32:42.01Z</time></trkpt><trkpt lat="43.7275056" lon="11.5862016"><ele>1349.8</ele><time>2026-05-03T08:32:43.009Z</time></trkpt><trkpt lat="43.7274315" lon="11.586106"><ele>1354.6</ele><time>2026-05-03T08:32:44.01Z</time></trkpt><trkpt lat="43.7273494" lon="11.5859838"><ele>1359.4</ele><time>2026-05-03T08:32:45.008Z</time></trkpt><trkpt lat="43.7272594" lon="11.5858723"><ele>1364.2</ele><time>2026-05-03T08:32:46.01Z</time></trkpt><trkpt lat="43.7272224" lon="11.5857695"><ele>1369.0</ele><time>2026-05-03T08:32:47.01Z</time></trkpt><trkpt lat="43.7271847" lon="11.5856415"><ele>1369.0</ele><time>2026-05-03T08:32:48.01Z</time></trkpt><trkpt lat="43.7271406" lon="11.5855258"><ele>1369.0</ele><time>2026-05-03T08:32:49.009Z</time></trkpt><trkpt lat="43.7271021" lon="11.585392"><ele>1369.0</ele><time>2026-05-03T08:32:50.009Z</time></trkpt><trkpt lat="43.727051" lon="11.5852599"><ele>1369.0</ele><time>2026-05-03T08:32:51.01Z</time></trkpt><trkpt lat="43.7270113" lon="11.5851153"><ele>1369.0</ele><time>2026-05-03T08:32:52.01Z</time></trkpt><trkpt lat="43.726967" lon="11.5849689"><ele>1369.0</ele><time>2026-05-03T08:32:53.01Z</time></trkpt><trkpt lat="43.7269137" lon="11.5848338"><ele>1369.0</ele><time>2026-05-03T08:32:54.01Z</time></trkpt><trkpt lat="43.7268572" lon="11.5847023"><ele>1369.0</ele><time>2026-05-03T08:32:55.009Z</time></trkpt><trkpt lat="43.7268014" lon="11.5845815"><ele>1369.0</ele><time>2026-05-03T08:32:56.008Z</time></trkpt><trkpt lat="43.7267435" lon="11.5844808"><ele>1369.0</ele><time>2026-05-03T08:32:57.009Z</time></trkpt><trkpt lat="43.7266744" lon="11.5843474"><ele>1372.2</ele><time>2026-05-03T08:32:58.01Z</time></trkpt><trkpt lat="43.7266078" lon="11.584203"><ele>1375.4</ele><time>2026-05-03T08:32:59.01Z</time></trkpt><trkpt lat="43.7265421" lon="11.5840724"><ele>1378.6</ele><time>2026-05-03T08:33:00.01Z</time></trkpt><trkpt lat="43.7264811" lon="11.5839414"><ele>1381.8</ele><time>2026-05-03T08:33:01.01Z</time></trkpt><trkpt lat="43.7264123" lon="11.5838504"><ele>1385.0</ele><time>2026-05-03T08:33:02.01Z</time></trkpt><trkpt lat="43.7263529" lon="11.5837551"><ele>1385.0</ele><time>2026-05-03T08:33:03.01Z</time></trkpt><trkpt lat="43.7262897" lon="11.5836495"><ele>1385.0</ele><time>2026-05-03T08:33:04.01Z</time></trkpt><trkpt lat="43.7262306" lon="11.5835467"><ele>1385.0</ele><time>2026-05-03T08:33:05.01Z</time></trkpt><trkpt lat="43.7261962" lon="11.5834278"><ele>1385.0</ele><time>2026-05-03T08:33:06.01Z</time></trkpt><trkpt lat="43.726169" lon="11.58331"><ele>1385.0</ele><time>2026-05-03T08:33:07.01Z</time></trkpt><trkpt lat="43.7261298" lon="11.5831935"><ele>1385.0</ele><time>2026-05-03T08:33:08.009Z</time></trkpt><trkpt lat="43.7260895" lon="11.5830696"><ele>1385.0</ele><time>2026-05-03T08:33:09.009Z</time></trkpt><trkpt lat="43.7260514" lon="11.5829482"><ele>1385.0</ele><time>2026-05-03T08:33:10.01Z</time></trkpt><trkpt lat="43.7260085" lon="11.5828275"><ele>1385.0</ele><time>2026-05-03T08:33:11.009Z</time></trkpt><trkpt lat="43.7259715" lon="11.5827037"><ele>1385.0</ele><time>2026-05-03T08:33:12.01Z</time></trkpt><trkpt lat="43.7259285" lon="11.5825889"><ele>1387.6</ele><time>2026-05-03T08:33:13.008Z</time></trkpt><trkpt lat="43.7258893" lon="11.58247"><ele>1390.2</ele><time>2026-05-03T08:33:14.01Z</time></trkpt><trkpt lat="43.7258572" lon="11.5823381"><ele>1392.8000000000002</ele><time>2026-05-03T08:33:15.009Z</time></trkpt><trkpt lat="43.725832" lon="11.582215"><ele>1395.4</ele><time>2026-05-03T08:33:16.01Z</time></trkpt><trkpt lat="43.7258208" lon="11.582083"><ele>1398.0</ele><time>2026-05-03T08:33:17.01Z</time></trkpt><trkpt lat="43.7257973" lon="11.581988"><ele>1399.0</ele><time>2026-05-03T08:33:18.01Z</time></trkpt><trkpt lat="43.7257799" lon="11.5818972"><ele>1400.0</ele><time>2026-05-03T08:33:19.01Z</time></trkpt><trkpt lat="43.725747" lon="11.5818118"><ele>1401.0</ele><time>2026-05-03T08:33:20.01Z</time></trkpt><trkpt lat="43.7257022" lon="11.5817212"><ele>1402.0</ele><time>2026-05-03T08:33:21.01Z</time></trkpt><trkpt lat="43.7256398" lon="11.581631"><ele>1403.0</ele><time>2026-05-03T08:33:22.01Z</time></trkpt><trkpt lat="43.7255907" lon="11.5815365"><ele>1404.0</ele><time>2026-05-03T08:33:23.01Z</time></trkpt><trkpt lat="43.7255476" lon="11.581441"><ele>1404.0</ele><time>2026-05-03T08:33:24.009Z</time></trkpt><trkpt lat="43.7255583" lon="11.5813195"><ele>1404.0</ele><time>2026-05-03T08:33:25.01Z</time></trkpt><trkpt lat="43.7255586" lon="11.5811995"><ele>1404.0</ele><time>2026-05-03T08:33:26.01Z</time></trkpt><trkpt lat="43.7255453" lon="11.5810906"><ele>1404.0</ele><time>2026-05-03T08:33:27.01Z</time></trkpt><trkpt lat="43.7255157" lon="11.5809767"><ele>1404.0</ele><time>2026-05-03T08:33:28.01Z</time></trkpt><trkpt lat="43.7254985" lon="11.580857"><ele>1404.0</ele><time>2026-05-03T08:33:29.01Z</time></trkpt><trkpt lat="43.7254862" lon="11.5807384"><ele>1404.6</ele><time>2026-05-03T08:33:30.009Z</time></trkpt><trkpt lat="43.7254757" lon="11.5806077"><ele>1405.2</ele><time>2026-05-03T08:33:31.009Z</time></trkpt><trkpt lat="43.7254552" lon="11.5804644"><ele>1405.8</ele><time>2026-05-03T08:33:32.01Z</time></trkpt><trkpt lat="43.7254241" lon="11.5803259"><ele>1406.3999999999999</ele><time>2026-05-03T08:33:33.01Z</time></trkpt><trkpt lat="43.7253878" lon="11.5801885"><ele>1407.0</ele><time>2026-05-03T08:33:34.009Z</time></trkpt><trkpt lat="43.7253467" lon="11.5800591"><ele>1407.8</ele><time>2026-05-03T08:33:35.01Z</time></trkpt><trkpt lat="43.7253038" lon="11.5799316"><ele>1408.6</ele><time>2026-05-03T08:33:36.01Z</time></trkpt><trkpt lat="43.7252602" lon="11.57981"><ele>1409.3999999999999</ele><time>2026-05-03T08:33:37.01Z</time></trkpt><trkpt lat="43.7252201" lon="11.5796839"><ele>1410.1999999999998</ele><time>2026-05-03T08:33:38.01Z</time></trkpt><trkpt lat="43.7251956" lon="11.5795522"><ele>1411.0</ele><time>2026-05-03T08:33:39.01Z</time></trkpt><trkpt lat="43.7251719" lon="11.5794257"><ele>1413.5</ele><time>2026-05-03T08:33:40.01Z</time></trkpt><trkpt lat="43.7251366" lon="11.579295"><ele>1416.0</ele><time>2026-05-03T08:33:41.009Z</time></trkpt><trkpt lat="43.7250992" lon="11.5791505"><ele>1418.5</ele><time>2026-05-03T08:33:42.009Z</time></trkpt><trkpt lat="43.7250696" lon="11.5789917"><ele>1421.0</ele><time>2026-05-03T08:33:43.01Z</time></trkpt><trkpt lat="43.7250425" lon="11.5788295"><ele>1421.0</ele><time>2026-05-03T08:33:44.01Z</time></trkpt><trkpt lat="43.7250236" lon="11.5786939"><ele>1421.0</ele><time>2026-05-03T08:33:45.009Z</time></trkpt><trkpt lat="43.7250143" lon="11.5785927"><ele>1421.0</ele><time>2026-05-03T08:33:46.01Z</time></trkpt><trkpt lat="43.7250324" lon="11.5784684"><ele>1421.0</ele><time>2026-05-03T08:33:48.009Z</time></trkpt><trkpt lat="43.7250738" lon="11.578372"><ele>1421.0</ele><time>2026-05-03T08:33:51.01Z</time></trkpt><trkpt lat="43.725123" lon="11.5782983"><ele>1421.0</ele><time>2026-05-03T08:33:56.01Z</time></trkpt><trkpt lat="43.7251806" lon="11.5782435"><ele>1420.6666666666667</ele><time>2026-05-03T08:33:58.009Z</time></trkpt><trkpt lat="43.7252639" lon="11.5781802"><ele>1420.3333333333335</ele><time>2026-05-03T08:34:00.01Z</time></trkpt><trkpt lat="43.7253645" lon="11.5781035"><ele>1420.0</ele><time>2026-05-03T08:34:02.009Z</time></trkpt><trkpt lat="43.7254256" lon="11.5780595"><ele>1419.6666666666667</ele><time>2026-05-03T08:34:03.009Z</time></trkpt><trkpt lat="43.7254861" lon="11.5780181"><ele>1419.3333333333333</ele><time>2026-05-03T08:34:04.009Z</time></trkpt><trkpt lat="43.7255468" lon="11.577965"><ele>1419.0</ele><time>2026-05-03T08:34:05.009Z</time></trkpt><trkpt lat="43.7256107" lon="11.5779125"><ele>1419.0</ele><time>2026-05-03T08:34:06.01Z</time></trkpt><trkpt lat="43.7256743" lon="11.5778528"><ele>1419.0</ele><time>2026-05-03T08:34:07.008Z</time></trkpt><trkpt lat="43.7257395" lon="11.5777999"><ele>1419.0</ele><time>2026-05-03T08:34:08.01Z</time></trkpt><trkpt lat="43.7257931" lon="11.5777367"><ele>1419.0</ele><time>2026-05-03T08:34:09.01Z</time></trkpt><trkpt lat="43.7258546" lon="11.5776743"><ele>1419.0</ele><time>2026-05-03T08:34:10.009Z</time></trkpt><trkpt lat="43.7259157" lon="11.5776093"><ele>1419.0</ele><time>2026-05-03T08:34:11.01Z</time></trkpt><trkpt lat="43.725978" lon="11.5775376"><ele>1419.5</ele><time>2026-05-03T08:34:12.01Z</time></trkpt><trkpt lat="43.7260355" lon="11.5774581"><ele>1420.0</ele><time>2026-05-03T08:34:13.009Z</time></trkpt><trkpt lat="43.7260948" lon="11.5773836"><ele>1420.5</ele><time>2026-05-03T08:34:14.01Z</time></trkpt><trkpt lat="43.726155" lon="11.577313"><ele>1421.0</ele><time>2026-05-03T08:34:15.01Z</time></trkpt><trkpt lat="43.7262159" lon="11.5772377"><ele>1421.5</ele><time>2026-05-03T08:34:16.009Z</time></trkpt><trkpt lat="43.7262784" lon="11.5771642"><ele>1422.0</ele><time>2026-05-03T08:34:17.009Z</time></trkpt><trkpt lat="43.7263367" lon="11.5770882"><ele>1422.8333333333333</ele><time>2026-05-03T08:34:18.01Z</time></trkpt><trkpt lat="43.7263949" lon="11.5770111"><ele>1423.6666666666667</ele><time>2026-05-03T08:34:19.009Z</time></trkpt><trkpt lat="43.7264598" lon="11.5769358"><ele>1424.5</ele><time>2026-05-03T08:34:20.009Z</time></trkpt><trkpt lat="43.726523" lon="11.5768494"><ele>1425.3333333333335</ele><time>2026-05-03T08:34:21.009Z</time></trkpt><trkpt lat="43.7265921" lon="11.5767663"><ele>1426.1666666666667</ele><time>2026-05-03T08:34:22.01Z</time></trkpt><trkpt lat="43.7266604" lon="11.576682"><ele>1427.0</ele><time>2026-05-03T08:34:23.01Z</time></trkpt><trkpt lat="43.7267288" lon="11.5765976"><ele>1427.0</ele><time>2026-05-03T08:34:24.009Z</time></trkpt><trkpt lat="43.7267982" lon="11.5765104"><ele>1427.0</ele><time>2026-05-03T08:34:25.009Z</time></trkpt><trkpt lat="43.7268674" lon="11.5764238"><ele>1427.0</ele><time>2026-05-03T08:34:26.01Z</time></trkpt><trkpt lat="43.7269381" lon="11.5763346"><ele>1427.0</ele><time>2026-05-03T08:34:27.009Z</time></trkpt><trkpt lat="43.7270138" lon="11.5762462"><ele>1427.0</ele><time>2026-05-03T08:34:28.01Z</time></trkpt><trkpt lat="43.7270905" lon="11.5761633"><ele>1426.6</ele><time>2026-05-03T08:34:29.01Z</time></trkpt><trkpt lat="43.7271646" lon="11.5760797"><ele>1426.1999999999998</ele><time>2026-05-03T08:34:30.01Z</time></trkpt><trkpt lat="43.7272365" lon="11.5759958"><ele>1425.8</ele><time>2026-05-03T08:34:31.009Z</time></trkpt><trkpt lat="43.7273104" lon="11.5759108"><ele>1425.4</ele><time>2026-05-03T08:34:32.008Z</time></trkpt><trkpt lat="43.7273851" lon="11.5758225"><ele>1425.0</ele><time>2026-05-03T08:34:33.01Z</time></trkpt><trkpt lat="43.7274629" lon="11.5757318"><ele>1425.0</ele><time>2026-05-03T08:34:34.01Z</time></trkpt><trkpt lat="43.7275466" lon="11.5756441"><ele>1425.0</ele><time>2026-05-03T08:34:35.01Z</time></trkpt><trkpt lat="43.7276359" lon="11.5755548"><ele>1425.0</ele><time>2026-05-03T08:34:36.01Z</time></trkpt><trkpt lat="43.727727" lon="11.575465"><ele>1425.0</ele><time>2026-05-03T08:34:37.009Z</time></trkpt><trkpt lat="43.7278228" lon="11.5753811"><ele>1425.0</ele><time>2026-05-03T08:34:38.01Z</time></trkpt><trkpt lat="43.7279238" lon="11.5753077"><ele>1423.25</ele><time>2026-05-03T08:34:39.009Z</time></trkpt><trkpt lat="43.7280311" lon="11.5752524"><ele>1421.5</ele><time>2026-05-03T08:34:40.01Z</time></trkpt><trkpt lat="43.7281367" lon="11.5752031"><ele>1419.75</ele><time>2026-05-03T08:34:41.009Z</time></trkpt><trkpt lat="43.7282461" lon="11.5751575"><ele>1418.0</ele><time>2026-05-03T08:34:42.009Z</time></trkpt><trkpt lat="43.7283587" lon="11.5751192"><ele>1418.0</ele><time>2026-05-03T08:34:43.01Z</time></trkpt><trkpt lat="43.7284668" lon="11.5750847"><ele>1418.0</ele><time>2026-05-03T08:34:44.01Z</time></trkpt><trkpt lat="43.7285735" lon="11.5750568"><ele>1418.0</ele><time>2026-05-03T08:34:45.01Z</time></trkpt><trkpt lat="43.7286711" lon="11.5750324"><ele>1418.0</ele><time>2026-05-03T08:34:46.01Z</time></trkpt><trkpt lat="43.7287599" lon="11.5750037"><ele>1418.0</ele><time>2026-05-03T08:34:47.008Z</time></trkpt><trkpt lat="43.7288463" lon="11.5749791"><ele>1417.6666666666667</ele><time>2026-05-03T08:34:48.009Z</time></trkpt><trkpt lat="43.7289257" lon="11.5749464"><ele>1417.3333333333335</ele><time>2026-05-03T08:34:49.009Z</time></trkpt><trkpt lat="43.7289929" lon="11.5749133"><ele>1417.0</ele><time>2026-05-03T08:34:50.01Z</time></trkpt><trkpt lat="43.7290984" lon="11.5748734"><ele>1416.6666666666667</ele><time>2026-05-03T08:34:52.01Z</time></trkpt><trkpt lat="43.7291749" lon="11.5748602"><ele>1416.3333333333333</ele><time>2026-05-03T08:34:54.01Z</time></trkpt><trkpt lat="43.729242" lon="11.5748639"><ele>1416.0</ele><time>2026-05-03T08:34:56.01Z</time></trkpt><trkpt lat="43.7291676" lon="11.5748576"><ele>1416.0</ele><time>2026-05-03T08:49:12.011Z</time></trkpt><trkpt lat="43.7290591" lon="11.5749164"><ele>1416.0</ele><time>2026-05-03T08:49:14.011Z</time></trkpt><trkpt lat="43.7289914" lon="11.5749447"><ele>1416.0</ele><time>2026-05-03T08:49:15.012Z</time></trkpt><trkpt lat="43.7289149" lon="11.5749794"><ele>1416.0</ele><time>2026-05-03T08:49:16.012Z</time></trkpt><trkpt lat="43.7288365" lon="11.5749998"><ele>1416.0</ele><time>2026-05-03T08:49:17.011Z</time></trkpt><trkpt lat="43.7287578" lon="11.5750123"><ele>1416.0</ele><time>2026-05-03T08:49:18.012Z</time></trkpt><trkpt lat="43.7286796" lon="11.5750315"><ele>1416.0</ele><time>2026-05-03T08:49:19.012Z</time></trkpt><trkpt lat="43.7286012" lon="11.575049"><ele>1416.0</ele><time>2026-05-03T08:49:20.012Z</time></trkpt><trkpt lat="43.7285209" lon="11.5750662"><ele>1416.0</ele><time>2026-05-03T08:49:21.012Z</time></trkpt><trkpt lat="43.7284347" lon="11.5750897"><ele>1416.0</ele><time>2026-05-03T08:49:22.012Z</time></trkpt><trkpt lat="43.7283405" lon="11.575116"><ele>1416.0</ele><time>2026-05-03T08:49:23.012Z</time></trkpt><trkpt lat="43.7282459" lon="11.5751473"><ele>1416.0</ele><time>2026-05-03T08:49:24.011Z</time></trkpt><trkpt lat="43.7281491" lon="11.5751911"><ele>1416.4</ele><time>2026-05-03T08:49:25.011Z</time></trkpt><trkpt lat="43.7280535" lon="11.5752339"><ele>1416.8</ele><time>2026-05-03T08:49:26.012Z</time></trkpt><trkpt lat="43.7279556" lon="11.5752892"><ele>1417.2</ele><time>2026-05-03T08:49:27.012Z</time></trkpt><trkpt lat="43.7278584" lon="11.5753565"><ele>1417.6000000000001</ele><time>2026-05-03T08:49:28.011Z</time></trkpt><trkpt lat="43.7277658" lon="11.5754262"><ele>1418.0</ele><time>2026-05-03T08:49:29.012Z</time></trkpt><trkpt lat="43.7276767" lon="11.5755077"><ele>1419.4</ele><time>2026-05-03T08:49:30.011Z</time></trkpt><trkpt lat="43.7275907" lon="11.5755939"><ele>1420.8000000000002</ele><time>2026-05-03T08:49:31.011Z</time></trkpt><trkpt lat="43.72751" lon="11.5756861"><ele>1422.2</ele><time>2026-05-03T08:49:32.011Z</time></trkpt><trkpt lat="43.7274293" lon="11.5757761"><ele>1423.6</ele><time>2026-05-03T08:49:33.012Z</time></trkpt><trkpt lat="43.7273491" lon="11.5758632"><ele>1425.0</ele><time>2026-05-03T08:49:34.011Z</time></trkpt><trkpt lat="43.7272671" lon="11.5759509"><ele>1425.0</ele><time>2026-05-03T08:49:35.012Z</time></trkpt><trkpt lat="43.7271842" lon="11.5760414"><ele>1425.0</ele><time>2026-05-03T08:49:36.012Z</time></trkpt><trkpt lat="43.7271016" lon="11.5761308"><ele>1425.0</ele><time>2026-05-03T08:49:37.012Z</time></trkpt><trkpt lat="43.7270146" lon="11.5762234"><ele>1425.0</ele><time>2026-05-03T08:49:38.012Z</time></trkpt><trkpt lat="43.7269274" lon="11.5763216"><ele>1425.0</ele><time>2026-05-03T08:49:39.012Z</time></trkpt><trkpt lat="43.7268412" lon="11.5764255"><ele>1425.5</ele><time>2026-05-03T08:49:40.012Z</time></trkpt><trkpt lat="43.7267473" lon="11.5765354"><ele>1426.0</ele><time>2026-05-03T08:49:41.012Z</time></trkpt><trkpt lat="43.7266472" lon="11.576653"><ele>1426.5</ele><time>2026-05-03T08:49:42.01Z</time></trkpt><trkpt lat="43.726547" lon="11.5767783"><ele>1427.0</ele><time>2026-05-03T08:49:43.012Z</time></trkpt><trkpt lat="43.7264471" lon="11.5769079"><ele>1425.75</ele><time>2026-05-03T08:49:44.012Z</time></trkpt><trkpt lat="43.7263402" lon="11.5770441"><ele>1424.5</ele><time>2026-05-03T08:49:45.012Z</time></trkpt><trkpt lat="43.7262329" lon="11.5771798"><ele>1423.25</ele><time>2026-05-03T08:49:46.012Z</time></trkpt><trkpt lat="43.7261299" lon="11.5773166"><ele>1422.0</ele><time>2026-05-03T08:49:47.01Z</time></trkpt><trkpt lat="43.7260248" lon="11.5774471"><ele>1422.0</ele><time>2026-05-03T08:49:48.012Z</time></trkpt><trkpt lat="43.7259144" lon="11.5775764"><ele>1422.0</ele><time>2026-05-03T08:49:49.011Z</time></trkpt><trkpt lat="43.7258034" lon="11.5776973"><ele>1422.0</ele><time>2026-05-03T08:49:50.011Z</time></trkpt><trkpt lat="43.7256874" lon="11.5778103"><ele>1422.0</ele><time>2026-05-03T08:49:51.011Z</time></trkpt><trkpt lat="43.7255686" lon="11.5779104"><ele>1421.25</ele><time>2026-05-03T08:49:52.012Z</time></trkpt><trkpt lat="43.7254516" lon="11.5780077"><ele>1420.5</ele><time>2026-05-03T08:49:53.011Z</time></trkpt><trkpt lat="43.7253365" lon="11.5780985"><ele>1419.75</ele><time>2026-05-03T08:49:54.011Z</time></trkpt><trkpt lat="43.7252281" lon="11.5781847"><ele>1419.0</ele><time>2026-05-03T08:49:55.012Z</time></trkpt><trkpt lat="43.7251242" lon="11.5782647"><ele>1420.8000000000002</ele><time>2026-05-03T08:49:56.012Z</time></trkpt><trkpt lat="43.7250247" lon="11.5783221"><ele>1422.6000000000001</ele><time>2026-05-03T08:49:57.012Z</time></trkpt><trkpt lat="43.7249287" lon="11.5783565"><ele>1424.4</ele><time>2026-05-03T08:49:58.011Z</time></trkpt><trkpt lat="43.7248333" lon="11.5783593"><ele>1426.2</ele><time>2026-05-03T08:49:59.012Z</time></trkpt><trkpt lat="43.7247405" lon="11.5783308"><ele>1428.0</ele><time>2026-05-03T08:50:00.011Z</time></trkpt><trkpt lat="43.7246465" lon="11.5783004"><ele>1428.0</ele><time>2026-05-03T08:50:01.011Z</time></trkpt><trkpt lat="43.7245487" lon="11.5782604"><ele>1428.0</ele><time>2026-05-03T08:50:02.012Z</time></trkpt><trkpt lat="43.7244454" lon="11.5782187"><ele>1428.0</ele><time>2026-05-03T08:50:03.011Z</time></trkpt><trkpt lat="43.7243433" lon="11.5781836"><ele>1428.0</ele><time>2026-05-03T08:50:04.011Z</time></trkpt><trkpt lat="43.7242388" lon="11.5781427"><ele>1428.0</ele><time>2026-05-03T08:50:05.011Z</time></trkpt><trkpt lat="43.7241319" lon="11.578109"><ele>1427.75</ele><time>2026-05-03T08:50:06.012Z</time></trkpt><trkpt lat="43.7240234" lon="11.578087"><ele>1427.5</ele><time>2026-05-03T08:50:07.012Z</time></trkpt><trkpt lat="43.723911" lon="11.5780836"><ele>1427.25</ele><time>2026-05-03T08:50:08.012Z</time></trkpt><trkpt lat="43.7237966" lon="11.5781022"><ele>1427.0</ele><time>2026-05-03T08:50:09.012Z</time></trkpt><trkpt lat="43.7236814" lon="11.578133"><ele>1427.0</ele><time>2026-05-03T08:50:10.011Z</time></trkpt><trkpt lat="43.7235686" lon="11.5781702"><ele>1427.0</ele><time>2026-05-03T08:50:11.012Z</time></trkpt><trkpt lat="43.7234551" lon="11.5782037"><ele>1427.0</ele><time>2026-05-03T08:50:12.012Z</time></trkpt><trkpt lat="43.7233407" lon="11.5782238"><ele>1427.0</ele><time>2026-05-03T08:50:13.012Z</time></trkpt><trkpt lat="43.7232377" lon="11.5782278"><ele>1427.0</ele><time>2026-05-03T08:50:14.011Z</time></trkpt><trkpt lat="43.723143" lon="11.5782115"><ele>1427.0</ele><time>2026-05-03T08:50:15.012Z</time></trkpt><trkpt lat="43.7230445" lon="11.578178"><ele>1427.0</ele><time>2026-05-03T08:50:16.011Z</time></trkpt><trkpt lat="43.7229489" lon="11.5781464"><ele>1427.0</ele><time>2026-05-03T08:50:17.01Z</time></trkpt><trkpt lat="43.7228513" lon="11.5781195"><ele>1427.0</ele><time>2026-05-03T08:50:18.012Z</time></trkpt><trkpt lat="43.7227557" lon="11.5780944"><ele>1427.0</ele><time>2026-05-03T08:50:19.012Z</time></trkpt><trkpt lat="43.722654" lon="11.5780725"><ele>1427.0</ele><time>2026-05-03T08:50:20.01Z</time></trkpt><trkpt lat="43.7225509" lon="11.578057"><ele>1427.0</ele><time>2026-05-03T08:50:21.011Z</time></trkpt><trkpt lat="43.7224452" lon="11.5780482"><ele>1427.0</ele><time>2026-05-03T08:50:22.011Z</time></trkpt><trkpt lat="43.722336" lon="11.5780642"><ele>1427.0</ele><time>2026-05-03T08:50:23.011Z</time></trkpt><trkpt lat="43.7222316" lon="11.5781013"><ele>1427.0</ele><time>2026-05-03T08:50:24.011Z</time></trkpt><trkpt lat="43.7221269" lon="11.5781461"><ele>1427.0</ele><time>2026-05-03T08:50:25.012Z</time></trkpt><trkpt lat="43.7220224" lon="11.5781883"><ele>1427.0</ele><time>2026-05-03T08:50:26.012Z</time></trkpt><trkpt lat="43.7219174" lon="11.5782379"><ele>1427.0</ele><time>2026-05-03T08:50:27.012Z</time></trkpt><trkpt lat="43.7218169" lon="11.5782965"><ele>1427.0</ele><time>2026-05-03T08:50:28.011Z</time></trkpt><trkpt lat="43.7217193" lon="11.5783682"><ele>1426.5</ele><time>2026-05-03T08:50:29.011Z</time></trkpt><trkpt lat="43.7216218" lon="11.5784563"><ele>1426.0</ele><time>2026-05-03T08:50:30.012Z</time></trkpt><trkpt lat="43.7215355" lon="11.578557"><ele>1425.5</ele><time>2026-05-03T08:50:31.012Z</time></trkpt><trkpt lat="43.7214533" lon="11.5786716"><ele>1425.0</ele><time>2026-05-03T08:50:32.012Z</time></trkpt><trkpt lat="43.7213803" lon="11.5788001"><ele>1425.0</ele><time>2026-05-03T08:50:33.012Z</time></trkpt><trkpt lat="43.7213099" lon="11.5789375"><ele>1425.0</ele><time>2026-05-03T08:50:34.012Z</time></trkpt><trkpt lat="43.72124" lon="11.579068"><ele>1425.0</ele><time>2026-05-03T08:50:35.012Z</time></trkpt><trkpt lat="43.7211689" lon="11.5792026"><ele>1425.0</ele><time>2026-05-03T08:50:36.012Z</time></trkpt><trkpt lat="43.7210996" lon="11.5793368"><ele>1427.25</ele><time>2026-05-03T08:50:37.012Z</time></trkpt><trkpt lat="43.7210226" lon="11.5794665"><ele>1429.5</ele><time>2026-05-03T08:50:38.012Z</time></trkpt><trkpt lat="43.7209387" lon="11.5795902"><ele>1431.75</ele><time>2026-05-03T08:50:39.012Z</time></trkpt><trkpt lat="43.7208481" lon="11.5797054"><ele>1434.0</ele><time>2026-05-03T08:50:40.012Z</time></trkpt><trkpt lat="43.7207477" lon="11.5798009"><ele>1434.0</ele><time>2026-05-03T08:50:41.011Z</time></trkpt><trkpt lat="43.7206543" lon="11.5798653"><ele>1434.0</ele><time>2026-05-03T08:50:42.011Z</time></trkpt><trkpt lat="43.720562" lon="11.5799208"><ele>1434.0</ele><time>2026-05-03T08:50:43.011Z</time></trkpt><trkpt lat="43.7204697" lon="11.5799762"><ele>1434.0</ele><time>2026-05-03T08:50:44.011Z</time></trkpt><trkpt lat="43.7203793" lon="11.5800341"><ele>1434.0</ele><time>2026-05-03T08:50:45.012Z</time></trkpt><trkpt lat="43.7203044" lon="11.5800969"><ele>1434.2</ele><time>2026-05-03T08:50:46.012Z</time></trkpt><trkpt lat="43.7202223" lon="11.5801519"><ele>1434.4</ele><time>2026-05-03T08:50:47.012Z</time></trkpt><trkpt lat="43.7201382" lon="11.5802035"><ele>1434.6</ele><time>2026-05-03T08:50:48.011Z</time></trkpt><trkpt lat="43.7200562" lon="11.5802695"><ele>1434.8</ele><time>2026-05-03T08:50:49.01Z</time></trkpt><trkpt lat="43.7199718" lon="11.5803294"><ele>1435.0</ele><time>2026-05-03T08:50:50.012Z</time></trkpt><trkpt lat="43.7198848" lon="11.5803882"><ele>1435.0</ele><time>2026-05-03T08:50:51.011Z</time></trkpt><trkpt lat="43.7197981" lon="11.5804588"><ele>1435.0</ele><time>2026-05-03T08:50:52.012Z</time></trkpt><trkpt lat="43.7197108" lon="11.5805313"><ele>1435.0</ele><time>2026-05-03T08:50:53.011Z</time></trkpt><trkpt lat="43.7196194" lon="11.5805971"><ele>1435.0</ele><time>2026-05-03T08:50:54.012Z</time></trkpt><trkpt lat="43.7195226" lon="11.5806632"><ele>1435.0</ele><time>2026-05-03T08:50:55.011Z</time></trkpt><trkpt lat="43.7194201" lon="11.5807206"><ele>1436.8</ele><time>2026-05-03T08:50:56.011Z</time></trkpt><trkpt lat="43.7193183" lon="11.5807756"><ele>1438.6</ele><time>2026-05-03T08:50:57.011Z</time></trkpt><trkpt lat="43.7192128" lon="11.580826"><ele>1440.4</ele><time>2026-05-03T08:50:58.012Z</time></trkpt><trkpt lat="43.7191079" lon="11.5808723"><ele>1442.2</ele><time>2026-05-03T08:50:59.012Z</time></trkpt><trkpt lat="43.7189998" lon="11.5809099"><ele>1444.0</ele><time>2026-05-03T08:51:00.011Z</time></trkpt><trkpt lat="43.7188854" lon="11.5809519"><ele>1444.0</ele><time>2026-05-03T08:51:01.01Z</time></trkpt><trkpt lat="43.7187718" lon="11.5809997"><ele>1444.0</ele><time>2026-05-03T08:51:02.011Z</time></trkpt><trkpt lat="43.7186568" lon="11.5810519"><ele>1444.0</ele><time>2026-05-03T08:51:03.012Z</time></trkpt><trkpt lat="43.7185508" lon="11.5811161"><ele>1444.0</ele><time>2026-05-03T08:51:04.01Z</time></trkpt><trkpt lat="43.7184533" lon="11.581191"><ele>1443.0</ele><time>2026-05-03T08:51:05.011Z</time></trkpt><trkpt lat="43.7183672" lon="11.5812911"><ele>1442.0</ele><time>2026-05-03T08:51:06.011Z</time></trkpt><trkpt lat="43.7182907" lon="11.5814078"><ele>1441.0</ele><time>2026-05-03T08:51:07.012Z</time></trkpt><trkpt lat="43.7182262" lon="11.581531"><ele>1440.0</ele><time>2026-05-03T08:51:08.012Z</time></trkpt><trkpt lat="43.7181809" lon="11.5816581"><ele>1439.0</ele><time>2026-05-03T08:51:09.012Z</time></trkpt><trkpt lat="43.7181627" lon="11.5817835"><ele>1439.0</ele><time>2026-05-03T08:51:10.012Z</time></trkpt><trkpt lat="43.7181706" lon="11.5819176"><ele>1439.0</ele><time>2026-05-03T08:51:11.012Z</time></trkpt><trkpt lat="43.7182137" lon="11.5820332"><ele>1439.0</ele><time>2026-05-03T08:51:12.012Z</time></trkpt><trkpt lat="43.7182757" lon="11.5821301"><ele>1439.0</ele><time>2026-05-03T08:51:13.011Z</time></trkpt><trkpt lat="43.7183545" lon="11.5822059"><ele>1439.0</ele><time>2026-05-03T08:51:14.012Z</time></trkpt><trkpt lat="43.7184448" lon="11.582275"><ele>1439.2</ele><time>2026-05-03T08:51:15.012Z</time></trkpt><trkpt lat="43.7185365" lon="11.5823462"><ele>1439.4</ele><time>2026-05-03T08:51:16.01Z</time></trkpt><trkpt lat="43.7186302" lon="11.5824193"><ele>1439.6</ele><time>2026-05-03T08:51:17.011Z</time></trkpt><trkpt lat="43.7187291" lon="11.5824896"><ele>1439.8</ele><time>2026-05-03T08:51:18.012Z</time></trkpt><trkpt lat="43.7188269" lon="11.5825628"><ele>1440.0</ele><time>2026-05-03T08:51:19.012Z</time></trkpt><trkpt lat="43.718927" lon="11.5826376"><ele>1440.0</ele><time>2026-05-03T08:51:20.012Z</time></trkpt><trkpt lat="43.7190254" lon="11.5827088"><ele>1440.0</ele><time>2026-05-03T08:51:21.01Z</time></trkpt><trkpt lat="43.7191257" lon="11.5827764"><ele>1440.0</ele><time>2026-05-03T08:51:22.011Z</time></trkpt><trkpt lat="43.7192344" lon="11.5828341"><ele>1440.0</ele><time>2026-05-03T08:51:23.012Z</time></trkpt><trkpt lat="43.719348" lon="11.5828781"><ele>1444.0</ele><time>2026-05-03T08:51:24.011Z</time></trkpt><trkpt lat="43.7194702" lon="11.5829029"><ele>1448.0</ele><time>2026-05-03T08:51:25.01Z</time></trkpt><trkpt lat="43.71959" lon="11.5829224"><ele>1452.0</ele><time>2026-05-03T08:51:26.011Z</time></trkpt><trkpt lat="43.7197117" lon="11.5829415"><ele>1456.0</ele><time>2026-05-03T08:51:27.012Z</time></trkpt><trkpt lat="43.7198349" lon="11.5829632"><ele>1456.0</ele><time>2026-05-03T08:51:28.012Z</time></trkpt><trkpt lat="43.7199536" lon="11.5829847"><ele>1456.0</ele><time>2026-05-03T08:51:29.011Z</time></trkpt><trkpt lat="43.72008" lon="11.5830025"><ele>1456.0</ele><time>2026-05-03T08:51:30.012Z</time></trkpt><trkpt lat="43.720208" lon="11.583024"><ele>1456.0</ele><time>2026-05-03T08:51:31.012Z</time></trkpt><trkpt lat="43.7203401" lon="11.5830457"><ele>1454.4</ele><time>2026-05-03T08:51:32.011Z</time></trkpt><trkpt lat="43.7204661" lon="11.5830726"><ele>1452.8</ele><time>2026-05-03T08:51:33.011Z</time></trkpt><trkpt lat="43.7205758" lon="11.5831109"><ele>1451.2</ele><time>2026-05-03T08:51:34.011Z</time></trkpt><trkpt lat="43.7206661" lon="11.5831669"><ele>1449.6000000000001</ele><time>2026-05-03T08:51:35.012Z</time></trkpt><trkpt lat="43.7207362" lon="11.5832423"><ele>1448.0</ele><time>2026-05-03T08:51:36.011Z</time></trkpt><trkpt lat="43.7207886" lon="11.583345"><ele>1448.0</ele><time>2026-05-03T08:51:37.011Z</time></trkpt><trkpt lat="43.7208159" lon="11.5834626"><ele>1448.0</ele><time>2026-05-03T08:51:38.012Z</time></trkpt><trkpt lat="43.7208154" lon="11.5835812"><ele>1448.0</ele><time>2026-05-03T08:51:39.012Z</time></trkpt><trkpt lat="43.7207851" lon="11.5837027"><ele>1448.0</ele><time>2026-05-03T08:51:40.012Z</time></trkpt><trkpt lat="43.7207289" lon="11.583817"><ele>1448.0</ele><time>2026-05-03T08:51:41.012Z</time></trkpt><trkpt lat="43.7206442" lon="11.5839201"><ele>1447.75</ele><time>2026-05-03T08:51:42.012Z</time></trkpt><trkpt lat="43.7205479" lon="11.5840251"><ele>1447.5</ele><time>2026-05-03T08:51:43.011Z</time></trkpt><trkpt lat="43.7204494" lon="11.5841428"><ele>1447.25</ele><time>2026-05-03T08:51:44.012Z</time></trkpt><trkpt lat="43.7203604" lon="11.5842764"><ele>1447.0</ele><time>2026-05-03T08:51:45.01Z</time></trkpt><trkpt lat="43.7203041" lon="11.5844187"><ele>1443.5</ele><time>2026-05-03T08:51:46.012Z</time></trkpt><trkpt lat="43.7202741" lon="11.5845822"><ele>1440.0</ele><time>2026-05-03T08:51:47.012Z</time></trkpt><trkpt lat="43.720271" lon="11.5847666"><ele>1436.5</ele><time>2026-05-03T08:51:48.012Z</time></trkpt><trkpt lat="43.7202758" lon="11.5849522"><ele>1433.0</ele><time>2026-05-03T08:51:49.012Z</time></trkpt><trkpt lat="43.7202703" lon="11.5851233"><ele>1433.0</ele><time>2026-05-03T08:51:50.012Z</time></trkpt><trkpt lat="43.7202515" lon="11.5852819"><ele>1433.0</ele><time>2026-05-03T08:51:51.012Z</time></trkpt><trkpt lat="43.7202225" lon="11.5854092"><ele>1433.0</ele><time>2026-05-03T08:51:52.012Z</time></trkpt><trkpt lat="43.7201657" lon="11.5855063"><ele>1433.0</ele><time>2026-05-03T08:51:53.011Z</time></trkpt><trkpt lat="43.7200937" lon="11.5855687"><ele>1433.0</ele><time>2026-05-03T08:51:54.012Z</time></trkpt><trkpt lat="43.7199937" lon="11.5856059"><ele>1434.75</ele><time>2026-05-03T08:51:55.012Z</time></trkpt><trkpt lat="43.7198803" lon="11.5856285"><ele>1436.5</ele><time>2026-05-03T08:51:56.012Z</time></trkpt><trkpt lat="43.7197553" lon="11.5856557"><ele>1438.25</ele><time>2026-05-03T08:51:57.012Z</time></trkpt><trkpt lat="43.7196211" lon="11.5856944"><ele>1440.0</ele><time>2026-05-03T08:51:58.012Z</time></trkpt><trkpt lat="43.7194864" lon="11.5857537"><ele>1440.75</ele><time>2026-05-03T08:51:59.012Z</time></trkpt><trkpt lat="43.719361" lon="11.5858247"><ele>1441.5</ele><time>2026-05-03T08:52:00.012Z</time></trkpt><trkpt lat="43.7192437" lon="11.5859075"><ele>1442.25</ele><time>2026-05-03T08:52:01.012Z</time></trkpt><trkpt lat="43.719131" lon="11.5859942"><ele>1443.0</ele><time>2026-05-03T08:52:02.011Z</time></trkpt><trkpt lat="43.719028" lon="11.5860626"><ele>1443.0</ele><time>2026-05-03T08:52:03.011Z</time></trkpt><trkpt lat="43.7189341" lon="11.5861398"><ele>1443.0</ele><time>2026-05-03T08:52:04.011Z</time></trkpt><trkpt lat="43.7188498" lon="11.5862322"><ele>1443.0</ele><time>2026-05-03T08:52:05.012Z</time></trkpt><trkpt lat="43.7187846" lon="11.5863458"><ele>1443.0</ele><time>2026-05-03T08:52:06.012Z</time></trkpt><trkpt lat="43.7187439" lon="11.5864744"><ele>1443.0</ele><time>2026-05-03T08:52:07.012Z</time></trkpt><trkpt lat="43.7187286" lon="11.5866186"><ele>1439.25</ele><time>2026-05-03T08:52:08.012Z</time></trkpt><trkpt lat="43.7187269" lon="11.5867608"><ele>1435.5</ele><time>2026-05-03T08:52:09.012Z</time></trkpt><trkpt lat="43.7187755" lon="11.5869247"><ele>1431.75</ele><time>2026-05-03T08:52:10.011Z</time></trkpt><trkpt lat="43.7188206" lon="11.5871218"><ele>1428.0</ele><time>2026-05-03T08:52:11.01Z</time></trkpt><trkpt lat="43.718869" lon="11.5873032"><ele>1426.25</ele><time>2026-05-03T08:52:12.012Z</time></trkpt><trkpt lat="43.7189196" lon="11.5874681"><ele>1424.5</ele><time>2026-05-03T08:52:13.011Z</time></trkpt><trkpt lat="43.7189561" lon="11.5876171"><ele>1422.75</ele><time>2026-05-03T08:52:14.012Z</time></trkpt><trkpt lat="43.7189671" lon="11.5877633"><ele>1421.0</ele><time>2026-05-03T08:52:15.012Z</time></trkpt><trkpt lat="43.7189635" lon="11.5879018"><ele>1419.75</ele><time>2026-05-03T08:52:16.011Z</time></trkpt><trkpt lat="43.7189278" lon="11.5880579"><ele>1418.5</ele><time>2026-05-03T08:52:17.011Z</time></trkpt><trkpt lat="43.7188702" lon="11.588225"><ele>1417.25</ele><time>2026-05-03T08:52:18.011Z</time></trkpt><trkpt lat="43.718822" lon="11.5883899"><ele>1416.0</ele><time>2026-05-03T08:52:19.011Z</time></trkpt><trkpt lat="43.7187851" lon="11.5885522"><ele>1414.5</ele><time>2026-05-03T08:52:20.011Z</time></trkpt><trkpt lat="43.7187524" lon="11.5886937"><ele>1413.0</ele><time>2026-05-03T08:52:21.011Z</time></trkpt><trkpt lat="43.7187914" lon="11.5888447"><ele>1411.5</ele><time>2026-05-03T08:52:22.011Z</time></trkpt><trkpt lat="43.7188313" lon="11.5889956"><ele>1410.0</ele><time>2026-05-03T08:52:23.011Z</time></trkpt><trkpt lat="43.718901" lon="11.5891613"><ele>1410.0</ele><time>2026-05-03T08:52:24.012Z</time></trkpt><trkpt lat="43.7189763" lon="11.5893433"><ele>1410.0</ele><time>2026-05-03T08:52:25.011Z</time></trkpt><trkpt lat="43.719041" lon="11.5895237"><ele>1410.0</ele><time>2026-05-03T08:52:26.012Z</time></trkpt><trkpt lat="43.7191027" lon="11.5896914"><ele>1410.0</ele><time>2026-05-03T08:52:27.012Z</time></trkpt><trkpt lat="43.7191589" lon="11.5898556"><ele>1410.5</ele><time>2026-05-03T08:52:28.011Z</time></trkpt><trkpt lat="43.7192069" lon="11.5900126"><ele>1411.0</ele><time>2026-05-03T08:52:29.011Z</time></trkpt><trkpt lat="43.7192497" lon="11.5901593"><ele>1411.5</ele><time>2026-05-03T08:52:30.012Z</time></trkpt><trkpt lat="43.7192858" lon="11.5903154"><ele>1412.0</ele><time>2026-05-03T08:52:31.012Z</time></trkpt><trkpt lat="43.7193365" lon="11.5904746"><ele>1412.0</ele><time>2026-05-03T08:52:32.011Z</time></trkpt><trkpt lat="43.7193801" lon="11.5906456"><ele>1412.0</ele><time>2026-05-03T08:52:33.011Z</time></trkpt><trkpt lat="43.719417" lon="11.5908179"><ele>1412.0</ele><time>2026-05-03T08:52:34.012Z</time></trkpt><trkpt lat="43.7194519" lon="11.5909758"><ele>1412.0</ele><time>2026-05-03T08:52:35.012Z</time></trkpt><trkpt lat="43.7194866" lon="11.5911316"><ele>1405.25</ele><time>2026-05-03T08:52:36.011Z</time></trkpt><trkpt lat="43.7195139" lon="11.5912849"><ele>1398.5</ele><time>2026-05-03T08:52:37.012Z</time></trkpt><trkpt lat="43.7195241" lon="11.5914408"><ele>1391.75</ele><time>2026-05-03T08:52:38.012Z</time></trkpt><trkpt lat="43.7195457" lon="11.5916067"><ele>1385.0</ele><time>2026-05-03T08:52:39.01Z</time></trkpt><trkpt lat="43.7195717" lon="11.5917687"><ele>1385.0</ele><time>2026-05-03T08:52:40.012Z</time></trkpt><trkpt lat="43.7195862" lon="11.5919087"><ele>1385.0</ele><time>2026-05-03T08:52:41.012Z</time></trkpt><trkpt lat="43.7196042" lon="11.5920251"><ele>1385.0</ele><time>2026-05-03T08:52:42.012Z</time></trkpt><trkpt lat="43.7195969" lon="11.5921328"><ele>1385.0</ele><time>2026-05-03T08:52:43.011Z</time></trkpt><trkpt lat="43.7195655" lon="11.5922384"><ele>1385.0</ele><time>2026-05-03T08:52:44.01Z</time></trkpt><trkpt lat="43.7195149" lon="11.5923268"><ele>1385.0</ele><time>2026-05-03T08:52:45.012Z</time></trkpt><trkpt lat="43.7194423" lon="11.5924068"><ele>1386.25</ele><time>2026-05-03T08:52:46.012Z</time></trkpt><trkpt lat="43.7193508" lon="11.5924636"><ele>1387.5</ele><time>2026-05-03T08:52:47.012Z</time></trkpt><trkpt lat="43.7192375" lon="11.5924981"><ele>1388.75</ele><time>2026-05-03T08:52:48.012Z</time></trkpt><trkpt lat="43.7191115" lon="11.5925098"><ele>1390.0</ele><time>2026-05-03T08:52:49.012Z</time></trkpt><trkpt lat="43.7189831" lon="11.5925086"><ele>1390.0</ele><time>2026-05-03T08:52:50.012Z</time></trkpt><trkpt lat="43.7188505" lon="11.5925213"><ele>1390.0</ele><time>2026-05-03T08:52:51.011Z</time></trkpt><trkpt lat="43.7187142" lon="11.5925507"><ele>1390.0</ele><time>2026-05-03T08:52:52.012Z</time></trkpt><trkpt lat="43.7185824" lon="11.5925681"><ele>1390.0</ele><time>2026-05-03T08:52:53.011Z</time></trkpt><trkpt lat="43.7184632" lon="11.5925742"><ele>1390.25</ele><time>2026-05-03T08:52:54.011Z</time></trkpt><trkpt lat="43.7183476" lon="11.5925921"><ele>1390.5</ele><time>2026-05-03T08:52:55.011Z</time></trkpt><trkpt lat="43.7182261" lon="11.5926485"><ele>1390.75</ele><time>2026-05-03T08:52:56.012Z</time></trkpt><trkpt lat="43.7181087" lon="11.5927383"><ele>1391.0</ele><time>2026-05-03T08:52:57.012Z</time></trkpt><trkpt lat="43.7179971" lon="11.5928634"><ele>1387.5</ele><time>2026-05-03T08:52:58.01Z</time></trkpt><trkpt lat="43.7178951" lon="11.5930079"><ele>1384.0</ele><time>2026-05-03T08:52:59.011Z</time></trkpt><trkpt lat="43.7178124" lon="11.5931438"><ele>1380.5</ele><time>2026-05-03T08:53:00.012Z</time></trkpt><trkpt lat="43.7177297" lon="11.5932668"><ele>1377.0</ele><time>2026-05-03T08:53:01.012Z</time></trkpt><trkpt lat="43.7176298" lon="11.5933753"><ele>1377.0</ele><time>2026-05-03T08:53:02.011Z</time></trkpt><trkpt lat="43.7175206" lon="11.5934664"><ele>1377.0</ele><time>2026-05-03T08:53:03.011Z</time></trkpt><trkpt lat="43.717416" lon="11.5935406"><ele>1377.0</ele><time>2026-05-03T08:53:04.011Z</time></trkpt><trkpt lat="43.7173111" lon="11.5935968"><ele>1377.0</ele><time>2026-05-03T08:53:05.012Z</time></trkpt><trkpt lat="43.7171988" lon="11.593637"><ele>1372.5</ele><time>2026-05-03T08:53:06.011Z</time></trkpt><trkpt lat="43.7170718" lon="11.5936768"><ele>1368.0</ele><time>2026-05-03T08:53:07.012Z</time></trkpt><trkpt lat="43.7169367" lon="11.5937262"><ele>1363.5</ele><time>2026-05-03T08:53:08.012Z</time></trkpt><trkpt lat="43.7168077" lon="11.5937802"><ele>1359.0</ele><time>2026-05-03T08:53:09.012Z</time></trkpt><trkpt lat="43.7166843" lon="11.5938445"><ele>1359.0</ele><time>2026-05-03T08:53:10.012Z</time></trkpt><trkpt lat="43.7165576" lon="11.593928"><ele>1359.0</ele><time>2026-05-03T08:53:11.012Z</time></trkpt><trkpt lat="43.7164337" lon="11.594003"><ele>1359.0</ele><time>2026-05-03T08:53:12.012Z</time></trkpt><trkpt lat="43.7163049" lon="11.5940786"><ele>1359.0</ele><time>2026-05-03T08:53:13.011Z</time></trkpt><trkpt lat="43.7161781" lon="11.5941608"><ele>1359.0</ele><time>2026-05-03T08:53:14.011Z</time></trkpt><trkpt lat="43.7160718" lon="11.5942265"><ele>1359.0</ele><time>2026-05-03T08:53:15.012Z</time></trkpt><trkpt lat="43.7159674" lon="11.5942804"><ele>1359.0</ele><time>2026-05-03T08:53:16.011Z</time></trkpt><trkpt lat="43.7158628" lon="11.5943196"><ele>1359.0</ele><time>2026-05-03T08:53:17.011Z</time></trkpt><trkpt lat="43.7157475" lon="11.5943373"><ele>1359.0</ele><time>2026-05-03T08:53:18.011Z</time></trkpt><trkpt lat="43.7156285" lon="11.5943439"><ele>1359.0</ele><time>2026-05-03T08:53:19.012Z</time></trkpt><trkpt lat="43.7155179" lon="11.5943481"><ele>1359.0</ele><time>2026-05-03T08:53:20.011Z</time></trkpt><trkpt lat="43.7153974" lon="11.5943386"><ele>1359.0</ele><time>2026-05-03T08:53:21.012Z</time></trkpt><trkpt lat="43.7152741" lon="11.5943288"><ele>1356.75</ele><time>2026-05-03T08:53:22.012Z</time></trkpt><trkpt lat="43.7151511" lon="11.5943263"><ele>1354.5</ele><time>2026-05-03T08:53:23.012Z</time></trkpt><trkpt lat="43.7150372" lon="11.5943203"><ele>1352.25</ele><time>2026-05-03T08:53:24.012Z</time></trkpt><trkpt lat="43.7149161" lon="11.5943068"><ele>1350.0</ele><time>2026-05-03T08:53:25.011Z</time></trkpt><trkpt lat="43.7148013" lon="11.5942864"><ele>1350.0</ele><time>2026-05-03T08:53:26.011Z</time></trkpt><trkpt lat="43.7146962" lon="11.5942636"><ele>1350.0</ele><time>2026-05-03T08:53:27.011Z</time></trkpt><trkpt lat="43.7146024" lon="11.594268"><ele>1350.0</ele><time>2026-05-03T08:53:28.011Z</time></trkpt><trkpt lat="43.714504" lon="11.59431"><ele>1350.0</ele><time>2026-05-03T08:53:29.012Z</time></trkpt><trkpt lat="43.714396" lon="11.5943973"><ele>1350.0</ele><time>2026-05-03T08:53:30.011Z</time></trkpt><trkpt lat="43.7142998" lon="11.5945168"><ele>1348.3333333333333</ele><time>2026-05-03T08:53:31.012Z</time></trkpt><trkpt lat="43.7142118" lon="11.5946806"><ele>1346.6666666666665</ele><time>2026-05-03T08:53:32.011Z</time></trkpt><trkpt lat="43.7141419" lon="11.594859"><ele>1345.0</ele><time>2026-05-03T08:53:33.011Z</time></trkpt><trkpt lat="43.7140839" lon="11.5950613"><ele>1345.0</ele><time>2026-05-03T08:53:34.012Z</time></trkpt><trkpt lat="43.7140336" lon="11.5952672"><ele>1345.0</ele><time>2026-05-03T08:53:35.011Z</time></trkpt><trkpt lat="43.7139797" lon="11.5954668"><ele>1345.0</ele><time>2026-05-03T08:53:36.011Z</time></trkpt><trkpt lat="43.7139273" lon="11.5956774"><ele>1344.5</ele><time>2026-05-03T08:53:37.012Z</time></trkpt><trkpt lat="43.7138777" lon="11.5958744"><ele>1344.0</ele><time>2026-05-03T08:53:38.012Z</time></trkpt><trkpt lat="43.7138268" lon="11.5960664"><ele>1343.5</ele><time>2026-05-03T08:53:39.012Z</time></trkpt><trkpt lat="43.7137789" lon="11.5962578"><ele>1343.0</ele><time>2026-05-03T08:53:40.012Z</time></trkpt><trkpt lat="43.7137297" lon="11.5964475"><ele>1341.5</ele><time>2026-05-03T08:53:41.012Z</time></trkpt><trkpt lat="43.7136819" lon="11.596625"><ele>1340.0</ele><time>2026-05-03T08:53:42.011Z</time></trkpt><trkpt lat="43.7136331" lon="11.5967943"><ele>1338.5</ele><time>2026-05-03T08:53:43.011Z</time></trkpt><trkpt lat="43.7135911" lon="11.5969619"><ele>1337.0</ele><time>2026-05-03T08:53:44.012Z</time></trkpt><trkpt lat="43.7135593" lon="11.5971337"><ele>1337.25</ele><time>2026-05-03T08:53:45.012Z</time></trkpt><trkpt lat="43.7135376" lon="11.597319"><ele>1337.5</ele><time>2026-05-03T08:53:46.012Z</time></trkpt><trkpt lat="43.7135217" lon="11.5975105"><ele>1337.75</ele><time>2026-05-03T08:53:47.012Z</time></trkpt><trkpt lat="43.7135835" lon="11.5977099"><ele>1338.0</ele><time>2026-05-03T08:53:48.012Z</time></trkpt><trkpt lat="43.7136085" lon="11.597895"><ele>1339.6000000000001</ele><time>2026-05-03T08:53:49.012Z</time></trkpt><trkpt lat="43.7136282" lon="11.5980646"><ele>1341.2</ele><time>2026-05-03T08:53:50.012Z</time></trkpt><trkpt lat="43.7136347" lon="11.59822"><ele>1342.8</ele><time>2026-05-03T08:53:51.011Z</time></trkpt><trkpt lat="43.7136213" lon="11.5983548"><ele>1344.4</ele><time>2026-05-03T08:53:52.012Z</time></trkpt><trkpt lat="43.7135794" lon="11.5984775"><ele>1346.0</ele><time>2026-05-03T08:53:53.012Z</time></trkpt><trkpt lat="43.7135048" lon="11.5985994"><ele>1346.6666666666667</ele><time>2026-05-03T08:53:54.012Z</time></trkpt><trkpt lat="43.7133976" lon="11.5987266"><ele>1347.3333333333333</ele><time>2026-05-03T08:53:55.01Z</time></trkpt><trkpt lat="43.7132658" lon="11.5988452"><ele>1348.0</ele><time>2026-05-03T08:53:56.012Z</time></trkpt><trkpt lat="43.7131322" lon="11.598984"><ele>1348.0</ele><time>2026-05-03T08:53:57.011Z</time></trkpt><trkpt lat="43.7129864" lon="11.599147"><ele>1348.0</ele><time>2026-05-03T08:53:58.012Z</time></trkpt><trkpt lat="43.7128552" lon="11.5992944"><ele>1348.0</ele><time>2026-05-03T08:53:59.011Z</time></trkpt><trkpt lat="43.7127283" lon="11.5994294"><ele>1347.0</ele><time>2026-05-03T08:54:00.012Z</time></trkpt><trkpt lat="43.7126051" lon="11.5995639"><ele>1346.0</ele><time>2026-05-03T08:54:01.012Z</time></trkpt><trkpt lat="43.7124885" lon="11.5996937"><ele>1345.0</ele><time>2026-05-03T08:54:02.011Z</time></trkpt><trkpt lat="43.7123699" lon="11.5998185"><ele>1345.0</ele><time>2026-05-03T08:54:03.012Z</time></trkpt><trkpt lat="43.7122485" lon="11.599943"><ele>1345.0</ele><time>2026-05-03T08:54:04.012Z</time></trkpt><trkpt lat="43.7121287" lon="11.6000615"><ele>1345.0</ele><time>2026-05-03T08:54:05.012Z</time></trkpt><trkpt lat="43.7120147" lon="11.6001789"><ele>1345.0</ele><time>2026-05-03T08:54:06.012Z</time></trkpt><trkpt lat="43.7119125" lon="11.6003008"><ele>1346.25</ele><time>2026-05-03T08:54:07.012Z</time></trkpt><trkpt lat="43.7118133" lon="11.6004115"><ele>1347.5</ele><time>2026-05-03T08:54:08.011Z</time></trkpt><trkpt lat="43.7117084" lon="11.6005113"><ele>1348.75</ele><time>2026-05-03T08:54:09.012Z</time></trkpt><trkpt lat="43.7116086" lon="11.6006115"><ele>1350.0</ele><time>2026-05-03T08:54:10.012Z</time></trkpt><trkpt lat="43.7115017" lon="11.6007017"><ele>1350.0</ele><time>2026-05-03T08:54:11.011Z</time></trkpt><trkpt lat="43.711406" lon="11.6007831"><ele>1350.0</ele><time>2026-05-03T08:54:12.012Z</time></trkpt><trkpt lat="43.7113071" lon="11.6008487"><ele>1350.0</ele><time>2026-05-03T08:54:13.012Z</time></trkpt><trkpt lat="43.7112013" lon="11.6009063"><ele>1350.0</ele><time>2026-05-03T08:54:14.012Z</time></trkpt><trkpt lat="43.7110901" lon="11.6009573"><ele>1351.25</ele><time>2026-05-03T08:54:15.012Z</time></trkpt><trkpt lat="43.7109749" lon="11.6009861"><ele>1352.5</ele><time>2026-05-03T08:54:16.012Z</time></trkpt><trkpt lat="43.71085" lon="11.6009837"><ele>1353.75</ele><time>2026-05-03T08:54:17.011Z</time></trkpt><trkpt lat="43.7107292" lon="11.6009795"><ele>1355.0</ele><time>2026-05-03T08:54:18.012Z</time></trkpt><trkpt lat="43.7106053" lon="11.6009561"><ele>1355.0</ele><time>2026-05-03T08:54:19.011Z</time></trkpt><trkpt lat="43.7104783" lon="11.6009268"><ele>1355.0</ele><time>2026-05-03T08:54:20.011Z</time></trkpt><trkpt lat="43.7103496" lon="11.6008806"><ele>1355.0</ele><time>2026-05-03T08:54:21.01Z</time></trkpt><trkpt lat="43.7102207" lon="11.6008271"><ele>1355.0</ele><time>2026-05-03T08:54:22.011Z</time></trkpt><trkpt lat="43.7100895" lon="11.6007791"><ele>1354.5</ele><time>2026-05-03T08:54:23.012Z</time></trkpt><trkpt lat="43.7099611" lon="11.6007265"><ele>1354.0</ele><time>2026-05-03T08:54:24.011Z</time></trkpt><trkpt lat="43.7098327" lon="11.6006956"><ele>1353.5</ele><time>2026-05-03T08:54:25.012Z</time></trkpt><trkpt lat="43.7097058" lon="11.6006441"><ele>1353.0</ele><time>2026-05-03T08:54:26.011Z</time></trkpt><trkpt lat="43.7095834" lon="11.6006045"><ele>1353.0</ele><time>2026-05-03T08:54:27.012Z</time></trkpt><trkpt lat="43.7094534" lon="11.6005639"><ele>1353.0</ele><time>2026-05-03T08:54:28.012Z</time></trkpt><trkpt lat="43.709326" lon="11.6005185"><ele>1353.0</ele><time>2026-05-03T08:54:29.011Z</time></trkpt><trkpt lat="43.7091993" lon="11.6004716"><ele>1353.0</ele><time>2026-05-03T08:54:30.011Z</time></trkpt><trkpt lat="43.7090833" lon="11.6004187"><ele>1351.0</ele><time>2026-05-03T08:54:31.011Z</time></trkpt><trkpt lat="43.7089634" lon="11.6003727"><ele>1349.0</ele><time>2026-05-03T08:54:32.011Z</time></trkpt><trkpt lat="43.7088572" lon="11.600336"><ele>1347.0</ele><time>2026-05-03T08:54:33.012Z</time></trkpt><trkpt lat="43.7087559" lon="11.6003278"><ele>1345.0</ele><time>2026-05-03T08:54:34.012Z</time></trkpt><trkpt lat="43.7086329" lon="11.6003361"><ele>1344.5</ele><time>2026-05-03T08:54:35.011Z</time></trkpt><trkpt lat="43.708524" lon="11.6004204"><ele>1344.0</ele><time>2026-05-03T08:54:36.012Z</time></trkpt><trkpt lat="43.7084072" lon="11.6004982"><ele>1343.5</ele><time>2026-05-03T08:54:37.012Z</time></trkpt><trkpt lat="43.7082919" lon="11.6005763"><ele>1343.0</ele><time>2026-05-03T08:54:38.012Z</time></trkpt><trkpt lat="43.7081726" lon="11.6006599"><ele>1343.0</ele><time>2026-05-03T08:54:39.011Z</time></trkpt><trkpt lat="43.708056" lon="11.6007496"><ele>1343.0</ele><time>2026-05-03T08:54:40.011Z</time></trkpt><trkpt lat="43.7079354" lon="11.6008396"><ele>1343.0</ele><time>2026-05-03T08:54:41.011Z</time></trkpt><trkpt lat="43.707816" lon="11.6009321"><ele>1343.0</ele><time>2026-05-03T08:54:42.011Z</time></trkpt><trkpt lat="43.707691" lon="11.6010213"><ele>1344.5</ele><time>2026-05-03T08:54:43.012Z</time></trkpt><trkpt lat="43.7075669" lon="11.6011227"><ele>1346.0</ele><time>2026-05-03T08:54:44.012Z</time></trkpt><trkpt lat="43.7074431" lon="11.6012187"><ele>1347.5</ele><time>2026-05-03T08:54:45.011Z</time></trkpt><trkpt lat="43.7073193" lon="11.601309"><ele>1349.0</ele><time>2026-05-03T08:54:46.012Z</time></trkpt><trkpt lat="43.7071941" lon="11.6014005"><ele>1348.25</ele><time>2026-05-03T08:54:47.012Z</time></trkpt><trkpt lat="43.7070726" lon="11.6014936"><ele>1347.5</ele><time>2026-05-03T08:54:48.011Z</time></trkpt><trkpt lat="43.7069536" lon="11.6015891"><ele>1346.75</ele><time>2026-05-03T08:54:49.011Z</time></trkpt><trkpt lat="43.7068342" lon="11.6016871"><ele>1346.0</ele><time>2026-05-03T08:54:50.011Z</time></trkpt><trkpt lat="43.7067177" lon="11.6017968"><ele>1346.0</ele><time>2026-05-03T08:54:51.011Z</time></trkpt><trkpt lat="43.7066049" lon="11.6019185"><ele>1346.0</ele><time>2026-05-03T08:54:52.011Z</time></trkpt><trkpt lat="43.7064995" lon="11.6020487"><ele>1346.0</ele><time>2026-05-03T08:54:53.012Z</time></trkpt><trkpt lat="43.7063986" lon="11.6021852"><ele>1346.0</ele><time>2026-05-03T08:54:54.012Z</time></trkpt><trkpt lat="43.7062968" lon="11.6023293"><ele>1347.75</ele><time>2026-05-03T08:54:55.012Z</time></trkpt><trkpt lat="43.7061971" lon="11.6024777"><ele>1349.5</ele><time>2026-05-03T08:54:56.012Z</time></trkpt><trkpt lat="43.706099" lon="11.6026321"><ele>1351.25</ele><time>2026-05-03T08:54:57.012Z</time></trkpt><trkpt lat="43.7059945" lon="11.6027857"><ele>1353.0</ele><time>2026-05-03T08:54:58.011Z</time></trkpt><trkpt lat="43.70589" lon="11.6029394"><ele>1346.6666666666667</ele><time>2026-05-03T08:54:59.011Z</time></trkpt><trkpt lat="43.7057846" lon="11.6030931"><ele>1340.3333333333335</ele><time>2026-05-03T08:55:00.011Z</time></trkpt><trkpt lat="43.7056751" lon="11.6032469"><ele>1334.0</ele><time>2026-05-03T08:55:01.012Z</time></trkpt><trkpt lat="43.7055661" lon="11.6033931"><ele>1334.0</ele><time>2026-05-03T08:55:02.011Z</time></trkpt><trkpt lat="43.705448" lon="11.6035295"><ele>1334.0</ele><time>2026-05-03T08:55:03.011Z</time></trkpt><trkpt lat="43.7053166" lon="11.6036666"><ele>1334.0</ele><time>2026-05-03T08:55:04.01Z</time></trkpt><trkpt lat="43.7051667" lon="11.6038014"><ele>1332.0</ele><time>2026-05-03T08:55:05.012Z</time></trkpt><trkpt lat="43.7049922" lon="11.603934"><ele>1330.0</ele><time>2026-05-03T08:55:06.012Z</time></trkpt><trkpt lat="43.7048169" lon="11.604058"><ele>1328.0</ele><time>2026-05-03T08:55:07.012Z</time></trkpt><trkpt lat="43.7046588" lon="11.6041706"><ele>1328.0</ele><time>2026-05-03T08:55:08.012Z</time></trkpt><trkpt lat="43.7045173" lon="11.604277"><ele>1328.0</ele><time>2026-05-03T08:55:09.012Z</time></trkpt><trkpt lat="43.7043798" lon="11.6043673"><ele>1328.0</ele><time>2026-05-03T08:55:10.012Z</time></trkpt><trkpt lat="43.7042521" lon="11.6044396"><ele>1327.0</ele><time>2026-05-03T08:55:11.011Z</time></trkpt><trkpt lat="43.7041354" lon="11.6044949"><ele>1326.0</ele><time>2026-05-03T08:55:12.012Z</time></trkpt><trkpt lat="43.7040271" lon="11.6045156"><ele>1325.0</ele><time>2026-05-03T08:55:13.012Z</time></trkpt><trkpt lat="43.7039078" lon="11.6045103"><ele>1324.0</ele><time>2026-05-03T08:55:14.011Z</time></trkpt><trkpt lat="43.7037752" lon="11.604468"><ele>1327.6666666666665</ele><time>2026-05-03T08:55:15.011Z</time></trkpt><trkpt lat="43.7036305" lon="11.6044123"><ele>1331.3333333333333</ele><time>2026-05-03T08:55:16.011Z</time></trkpt><trkpt lat="43.7034881" lon="11.6043564"><ele>1335.0</ele><time>2026-05-03T08:55:17.01Z</time></trkpt><trkpt lat="43.70334" lon="11.6042968"><ele>1335.0</ele><time>2026-05-03T08:55:18.012Z</time></trkpt><trkpt lat="43.703199" lon="11.6042471"><ele>1335.0</ele><time>2026-05-03T08:55:19.012Z</time></trkpt><trkpt lat="43.7030673" lon="11.6042058"><ele>1335.0</ele><time>2026-05-03T08:55:20.011Z</time></trkpt><trkpt lat="43.7029462" lon="11.6041678"><ele>1335.0</ele><time>2026-05-03T08:55:21.012Z</time></trkpt><trkpt lat="43.7028177" lon="11.6041246"><ele>1334.5</ele><time>2026-05-03T08:55:22.012Z</time></trkpt><trkpt lat="43.7026854" lon="11.6040874"><ele>1334.0</ele><time>2026-05-03T08:55:23.012Z</time></trkpt><trkpt lat="43.7025495" lon="11.6040721"><ele>1333.5</ele><time>2026-05-03T08:55:24.012Z</time></trkpt><trkpt lat="43.7024139" lon="11.6040777"><ele>1333.0</ele><time>2026-05-03T08:55:25.012Z</time></trkpt><trkpt lat="43.702279" lon="11.6041055"><ele>1333.0</ele><time>2026-05-03T08:55:26.012Z</time></trkpt><trkpt lat="43.7021403" lon="11.6041523"><ele>1333.0</ele><time>2026-05-03T08:55:27.012Z</time></trkpt><trkpt lat="43.7020172" lon="11.6042164"><ele>1333.0</ele><time>2026-05-03T08:55:28.011Z</time></trkpt><trkpt lat="43.701899" lon="11.604303"><ele>1333.0</ele><time>2026-05-03T08:55:29.012Z</time></trkpt><trkpt lat="43.7017901" lon="11.6044114"><ele>1332.0</ele><time>2026-05-03T08:55:30.012Z</time></trkpt><trkpt lat="43.7016951" lon="11.6045359"><ele>1331.0</ele><time>2026-05-03T08:55:31.011Z</time></trkpt><trkpt lat="43.7016051" lon="11.6046729"><ele>1330.0</ele><time>2026-05-03T08:55:32.012Z</time></trkpt><trkpt lat="43.7015322" lon="11.6048251"><ele>1329.0</ele><time>2026-05-03T08:55:33.012Z</time></trkpt><trkpt lat="43.7014629" lon="11.6049753"><ele>1329.0</ele><time>2026-05-03T08:55:34.012Z</time></trkpt><trkpt lat="43.7013997" lon="11.6051134"><ele>1329.0</ele><time>2026-05-03T08:55:35.012Z</time></trkpt><trkpt lat="43.7013376" lon="11.6052583"><ele>1329.0</ele><time>2026-05-03T08:55:36.011Z</time></trkpt><trkpt lat="43.7012752" lon="11.6053966"><ele>1329.0</ele><time>2026-05-03T08:55:37.011Z</time></trkpt><trkpt lat="43.7012141" lon="11.6055211"><ele>1327.3333333333333</ele><time>2026-05-03T08:55:38.011Z</time></trkpt><trkpt lat="43.7011615" lon="11.6056362"><ele>1325.6666666666667</ele><time>2026-05-03T08:55:39.012Z</time></trkpt><trkpt lat="43.7011182" lon="11.6057396"><ele>1324.0</ele><time>2026-05-03T08:55:40.011Z</time></trkpt><trkpt lat="43.7010749" lon="11.6058321"><ele>1322.3333333333335</ele><time>2026-05-03T08:55:41.012Z</time></trkpt><trkpt lat="43.7010393" lon="11.6059238"><ele>1320.6666666666667</ele><time>2026-05-03T08:55:42.011Z</time></trkpt><trkpt lat="43.7009972" lon="11.606047"><ele>1319.0</ele><time>2026-05-03T08:55:44.011Z</time></trkpt><trkpt lat="43.7010124" lon="11.6061327"><ele>1319.0</ele><time>2026-05-03T08:55:47.012Z</time></trkpt><trkpt lat="43.7010753" lon="11.6061078"><ele>1319.0</ele><time>2026-05-03T08:56:35.012Z</time></trkpt><trkpt lat="43.7011411" lon="11.6060191"><ele>1319.0</ele><time>2026-05-03T08:56:37.012Z</time></trkpt><trkpt lat="43.7011909" lon="11.6059406"><ele>1319.0</ele><time>2026-05-03T08:56:38.012Z</time></trkpt><trkpt lat="43.7012439" lon="11.6058492"><ele>1319.0</ele><time>2026-05-03T08:56:39.012Z</time></trkpt><trkpt lat="43.7013004" lon="11.6057324"><ele>1319.0</ele><time>2026-05-03T08:56:40.012Z</time></trkpt><trkpt lat="43.7013609" lon="11.6056031"><ele>1319.0</ele><time>2026-05-03T08:56:41.012Z</time></trkpt><trkpt lat="43.7014215" lon="11.6054743"><ele>1319.0</ele><time>2026-05-03T08:56:42.012Z</time></trkpt><trkpt lat="43.7014837" lon="11.6053492"><ele>1319.0</ele><time>2026-05-03T08:56:43.012Z</time></trkpt><trkpt lat="43.7015427" lon="11.6052312"><ele>1319.0</ele><time>2026-05-03T08:56:44.011Z</time></trkpt><trkpt lat="43.7015963" lon="11.6051275"><ele>1319.0</ele><time>2026-05-03T08:56:45.012Z</time></trkpt><trkpt lat="43.7016337" lon="11.6050334"><ele>1319.7142857142856</ele><time>2026-05-03T08:56:46.011Z</time></trkpt><trkpt lat="43.7016729" lon="11.6049432"><ele>1320.4285714285713</ele><time>2026-05-03T08:56:47.012Z</time></trkpt><trkpt lat="43.701726" lon="11.604883"><ele>1321.142857142857</ele><time>2026-05-03T08:56:48.011Z</time></trkpt><trkpt lat="43.70179" lon="11.604845"><ele>1321.8571428571427</ele><time>2026-05-03T08:56:49.012Z</time></trkpt><trkpt lat="43.7018647" lon="11.6048264"><ele>1322.5714285714284</ele><time>2026-05-03T08:56:50.011Z</time></trkpt><trkpt lat="43.7019488" lon="11.60481"><ele>1323.2857142857142</ele><time>2026-05-03T08:56:51.012Z</time></trkpt><trkpt lat="43.7020148" lon="11.604821"><ele>1324.0</ele><time>2026-05-03T08:56:52.012Z</time></trkpt><trkpt lat="43.7021143" lon="11.6048489"><ele>1324.0</ele><time>2026-05-03T08:56:53.012Z</time></trkpt><trkpt lat="43.7021914" lon="11.6048585"><ele>1324.0</ele><time>2026-05-03T08:56:54.012Z</time></trkpt><trkpt lat="43.7023119" lon="11.6048655"><ele>1324.0</ele><time>2026-05-03T08:56:56.011Z</time></trkpt><trkpt lat="43.7024101" lon="11.6048884"><ele>1324.0</ele><time>2026-05-03T08:56:58.012Z</time></trkpt><trkpt lat="43.7024612" lon="11.6049627"><ele>1324.0</ele><time>2026-05-03T08:57:00.011Z</time></trkpt><trkpt lat="43.7024865" lon="11.6050529"><ele>1324.0</ele><time>2026-05-03T08:57:04.012Z</time></trkpt><trkpt lat="43.702544" lon="11.6051245"><ele>1324.0</ele><time>2026-05-03T08:57:05.012Z</time></trkpt><trkpt lat="43.7025918" lon="11.6051879"><ele>1324.0</ele><time>2026-05-03T08:57:06.012Z</time></trkpt><trkpt lat="43.7026419" lon="11.6052616"><ele>1324.0</ele><time>2026-05-03T08:57:07.011Z</time></trkpt><trkpt lat="43.7027311" lon="11.6052704"><ele>1324.0</ele><time>2026-05-03T08:57:08.012Z</time></trkpt><trkpt lat="43.702806" lon="11.6052945"><ele>1324.0</ele><time>2026-05-03T08:57:09.012Z</time></trkpt><trkpt lat="43.7028745" lon="11.6052947"><ele>1324.0</ele><time>2026-05-03T08:57:10.012Z</time></trkpt><trkpt lat="43.7030034" lon="11.6052613"><ele>1324.0</ele><time>2026-05-03T08:57:12.012Z</time></trkpt><trkpt lat="43.7031084" lon="11.6052883"><ele>1324.0</ele><time>2026-05-03T08:57:14.01Z</time></trkpt><trkpt lat="43.7031107" lon="11.6053893"><ele>1324.0</ele><time>2026-05-03T08:57:15.011Z</time></trkpt><trkpt lat="43.7031181" lon="11.6054967"><ele>1324.0</ele><time>2026-05-03T08:57:16.012Z</time></trkpt><trkpt lat="43.7031259" lon="11.6056093"><ele>1324.0</ele><time>2026-05-03T08:57:17.012Z</time></trkpt><trkpt lat="43.7031526" lon="11.6057238"><ele>1324.0</ele><time>2026-05-03T08:57:18.012Z</time></trkpt><trkpt lat="43.703182" lon="11.6058063"><ele>1321.6</ele><time>2026-05-03T08:57:19.012Z</time></trkpt><trkpt lat="43.7033019" lon="11.6058386"><ele>1319.2</ele><time>2026-05-03T08:57:20.012Z</time></trkpt><trkpt lat="43.7033687" lon="11.6058929"><ele>1316.8</ele><time>2026-05-03T08:57:21.012Z</time></trkpt><trkpt lat="43.7034698" lon="11.6059393"><ele>1314.3999999999999</ele><time>2026-05-03T08:57:22.011Z</time></trkpt><trkpt lat="43.7035781" lon="11.605907"><ele>1312.0</ele><time>2026-05-03T08:57:23.011Z</time></trkpt><trkpt lat="43.7036564" lon="11.6058979"><ele>1311.0</ele><time>2026-05-03T08:57:24.012Z</time></trkpt><trkpt lat="43.7037458" lon="11.6058834"><ele>1310.0</ele><time>2026-05-03T08:57:25.012Z</time></trkpt><trkpt lat="43.7038312" lon="11.6058392"><ele>1309.0</ele><time>2026-05-03T08:57:26.011Z</time></trkpt><trkpt lat="43.7039164" lon="11.6058135"><ele>1308.0</ele><time>2026-05-03T08:57:27.012Z</time></trkpt><trkpt lat="43.7040109" lon="11.6057431"><ele>1307.0</ele><time>2026-05-03T08:57:28.011Z</time></trkpt><trkpt lat="43.7040803" lon="11.6056764"><ele>1307.0</ele><time>2026-05-03T08:57:29.01Z</time></trkpt><trkpt lat="43.7041468" lon="11.6056547"><ele>1307.0</ele><time>2026-05-03T08:57:30.01Z</time></trkpt><trkpt lat="43.7042207" lon="11.6056291"><ele>1307.0</ele><time>2026-05-03T08:57:31.011Z</time></trkpt><trkpt lat="43.7043186" lon="11.6057239"><ele>1307.0</ele><time>2026-05-03T08:57:32.012Z</time></trkpt><trkpt lat="43.7043897" lon="11.6057761"><ele>1307.0</ele><time>2026-05-03T08:57:33.011Z</time></trkpt><trkpt lat="43.7044403" lon="11.6058462"><ele>1307.0</ele><time>2026-05-03T08:57:34.011Z</time></trkpt><trkpt lat="43.7045168" lon="11.6058885"><ele>1305.8333333333335</ele><time>2026-05-03T08:57:35.012Z</time></trkpt><trkpt lat="43.7046145" lon="11.6058932"><ele>1304.6666666666667</ele><time>2026-05-03T08:57:37.011Z</time></trkpt><trkpt lat="43.7046889" lon="11.605877"><ele>1303.5</ele><time>2026-05-03T08:57:38.012Z</time></trkpt><trkpt lat="43.7047872" lon="11.6058816"><ele>1302.3333333333333</ele><time>2026-05-03T08:57:39.012Z</time></trkpt><trkpt lat="43.7048646" lon="11.6059116"><ele>1301.1666666666665</ele><time>2026-05-03T08:57:40.012Z</time></trkpt><trkpt lat="43.7049104" lon="11.6060139"><ele>1300.0</ele><time>2026-05-03T08:57:41.012Z</time></trkpt><trkpt lat="43.7049604" lon="11.6060802"><ele>1298.0</ele><time>2026-05-03T08:57:42.011Z</time></trkpt><trkpt lat="43.7049551" lon="11.6062361"><ele>1296.0</ele><time>2026-05-03T08:57:43.012Z</time></trkpt><trkpt lat="43.704993" lon="11.6063375"><ele>1294.0</ele><time>2026-05-03T08:57:44.012Z</time></trkpt><trkpt lat="43.7050265" lon="11.6064281"><ele>1292.0</ele><time>2026-05-03T08:57:45.012Z</time></trkpt><trkpt lat="43.7051171" lon="11.6064052"><ele>1290.0</ele><time>2026-05-03T08:57:46.011Z</time></trkpt><trkpt lat="43.7051789" lon="11.6064453"><ele>1288.0</ele><time>2026-05-03T08:57:47.012Z</time></trkpt><trkpt lat="43.7052866" lon="11.606513"><ele>1286.6000000000001</ele><time>2026-05-03T08:57:48.011Z</time></trkpt><trkpt lat="43.7053871" lon="11.6065334"><ele>1285.2</ele><time>2026-05-03T08:57:49.012Z</time></trkpt><trkpt lat="43.7054907" lon="11.6065525"><ele>1283.8</ele><time>2026-05-03T08:57:50.011Z</time></trkpt><trkpt lat="43.7055832" lon="11.6065813"><ele>1282.4</ele><time>2026-05-03T08:57:51.012Z</time></trkpt><trkpt lat="43.7056674" lon="11.6065962"><ele>1281.0</ele><time>2026-05-03T08:57:52.011Z</time></trkpt><trkpt lat="43.7057672" lon="11.6066239"><ele>1281.0</ele><time>2026-05-03T08:57:53.012Z</time></trkpt><trkpt lat="43.7058615" lon="11.606628"><ele>1281.0</ele><time>2026-05-03T08:57:54.01Z</time></trkpt><trkpt lat="43.7059459" lon="11.6066032"><ele>1281.0</ele><time>2026-05-03T08:57:55.012Z</time></trkpt><trkpt lat="43.7060321" lon="11.6065867"><ele>1281.0</ele><time>2026-05-03T08:57:56.012Z</time></trkpt><trkpt lat="43.7061074" lon="11.6065577"><ele>1281.0</ele><time>2026-05-03T08:57:57.012Z</time></trkpt><trkpt lat="43.7061934" lon="11.6064443"><ele>1279.6</ele><time>2026-05-03T08:57:58.012Z</time></trkpt><trkpt lat="43.7062833" lon="11.6063755"><ele>1278.1999999999998</ele><time>2026-05-03T08:57:59.011Z</time></trkpt><trkpt lat="43.7063818" lon="11.6063064"><ele>1276.8000000000002</ele><time>2026-05-03T08:58:00.011Z</time></trkpt><trkpt lat="43.7064863" lon="11.6062991"><ele>1275.4</ele><time>2026-05-03T08:58:01.012Z</time></trkpt><trkpt lat="43.7065462" lon="11.6062267"><ele>1274.0</ele><time>2026-05-03T08:58:02.012Z</time></trkpt><trkpt lat="43.7066282" lon="11.6061684"><ele>1274.4</ele><time>2026-05-03T08:58:03.011Z</time></trkpt><trkpt lat="43.7066887" lon="11.6060725"><ele>1274.8000000000002</ele><time>2026-05-03T08:58:04.011Z</time></trkpt><trkpt lat="43.7067531" lon="11.6059947"><ele>1275.1999999999998</ele><time>2026-05-03T08:58:05.012Z</time></trkpt><trkpt lat="43.7067935" lon="11.6058839"><ele>1275.6</ele><time>2026-05-03T08:58:07.012Z</time></trkpt><trkpt lat="43.7068676" lon="11.6058589"><ele>1276.0</ele><time>2026-05-03T08:58:17.012Z</time></trkpt><trkpt lat="43.7069373" lon="11.605724"><ele>1276.0</ele><time>2026-05-03T08:58:20.012Z</time></trkpt><trkpt lat="43.7069889" lon="11.6056613"><ele>1276.0</ele><time>2026-05-03T08:58:21.011Z</time></trkpt><trkpt lat="43.7070449" lon="11.6055871"><ele>1276.0</ele><time>2026-05-03T08:58:22.011Z</time></trkpt><trkpt lat="43.7070939" lon="11.6055153"><ele>1276.0</ele><time>2026-05-03T08:58:23.012Z</time></trkpt><trkpt lat="43.7071428" lon="11.6054377"><ele>1276.0</ele><time>2026-05-03T08:58:24.012Z</time></trkpt><trkpt lat="43.7072032" lon="11.6053433"><ele>1276.0</ele><time>2026-05-03T08:58:25.01Z</time></trkpt><trkpt lat="43.7072658" lon="11.6052526"><ele>1276.6</ele><time>2026-05-03T08:58:26.012Z</time></trkpt><trkpt lat="43.7073528" lon="11.6052"><ele>1277.1999999999998</ele><time>2026-05-03T08:58:27.011Z</time></trkpt><trkpt lat="43.7074379" lon="11.6051701"><ele>1277.8000000000002</ele><time>2026-05-03T08:58:28.011Z</time></trkpt><trkpt lat="43.7075801" lon="11.605113"><ele>1278.4</ele><time>2026-05-03T08:58:30.012Z</time></trkpt><trkpt lat="43.7076842" lon="11.605094"><ele>1279.0</ele><time>2026-05-03T08:58:31.012Z</time></trkpt><trkpt lat="43.7077722" lon="11.6050616"><ele>1279.0</ele><time>2026-05-03T08:58:32.012Z</time></trkpt><trkpt lat="43.7078576" lon="11.6050289"><ele>1279.0</ele><time>2026-05-03T08:58:33.011Z</time></trkpt><trkpt lat="43.7079636" lon="11.6049972"><ele>1279.0</ele><time>2026-05-03T08:58:34.011Z</time></trkpt><trkpt lat="43.7080525" lon="11.604968"><ele>1279.0</ele><time>2026-05-03T08:58:35.012Z</time></trkpt><trkpt lat="43.708134" lon="11.6049448"><ele>1279.0</ele><time>2026-05-03T08:58:36.012Z</time></trkpt><trkpt lat="43.7082046" lon="11.6050097"><ele>1279.0</ele><time>2026-05-03T08:58:37.011Z</time></trkpt><trkpt lat="43.7082536" lon="11.6050959"><ele>1279.0</ele><time>2026-05-03T08:58:38.012Z</time></trkpt><trkpt lat="43.7083211" lon="11.605149"><ele>1279.0</ele><time>2026-05-03T08:58:39.011Z</time></trkpt><trkpt lat="43.7084125" lon="11.605196"><ele>1279.0</ele><time>2026-05-03T08:58:40.011Z</time></trkpt><trkpt lat="43.7085065" lon="11.6051989"><ele>1279.0</ele><time>2026-05-03T08:58:41.011Z</time></trkpt><trkpt lat="43.7085876" lon="11.6052132"><ele>1279.0</ele><time>2026-05-03T08:58:42.012Z</time></trkpt><trkpt lat="43.7086976" lon="11.6051797"><ele>1276.8</ele><time>2026-05-03T08:58:44.011Z</time></trkpt><trkpt lat="43.70877" lon="11.6051436"><ele>1274.6000000000001</ele><time>2026-05-03T08:58:45.012Z</time></trkpt><trkpt lat="43.7088391" lon="11.6051218"><ele>1272.4</ele><time>2026-05-03T08:58:46.012Z</time></trkpt><trkpt lat="43.7089571" lon="11.6051746"><ele>1270.2</ele><time>2026-05-03T08:58:47.012Z</time></trkpt><trkpt lat="43.7090523" lon="11.6052828"><ele>1268.0</ele><time>2026-05-03T08:58:48.011Z</time></trkpt><trkpt lat="43.7091185" lon="11.6052922"><ele>1268.0</ele><time>2026-05-03T08:58:49.012Z</time></trkpt><trkpt lat="43.7092171" lon="11.6052549"><ele>1268.0</ele><time>2026-05-03T08:58:51.011Z</time></trkpt><trkpt lat="43.7092838" lon="11.6051747"><ele>1268.0</ele><time>2026-05-03T08:58:52.012Z</time></trkpt><trkpt lat="43.7093477" lon="11.6051322"><ele>1268.0</ele><time>2026-05-03T08:58:53.01Z</time></trkpt><trkpt lat="43.7094415" lon="11.605088"><ele>1268.0</ele><time>2026-05-03T08:58:54.012Z</time></trkpt><trkpt lat="43.7096062" lon="11.6052121"><ele>1266.4</ele><time>2026-05-03T08:58:55.012Z</time></trkpt><trkpt lat="43.7097111" lon="11.6052152"><ele>1264.8</ele><time>2026-05-03T08:58:56.01Z</time></trkpt><trkpt lat="43.7098232" lon="11.6052347"><ele>1263.2</ele><time>2026-05-03T08:58:57.01Z</time></trkpt><trkpt lat="43.70993" lon="11.6052705"><ele>1261.6</ele><time>2026-05-03T08:58:58.011Z</time></trkpt><trkpt lat="43.7100349" lon="11.6053044"><ele>1260.0</ele><time>2026-05-03T08:58:59.012Z</time></trkpt><trkpt lat="43.7101346" lon="11.6053753"><ele>1257.2</ele><time>2026-05-03T08:59:00.01Z</time></trkpt><trkpt lat="43.7101493" lon="11.6055314"><ele>1254.4</ele><time>2026-05-03T08:59:01.012Z</time></trkpt><trkpt lat="43.7102334" lon="11.6056201"><ele>1251.6</ele><time>2026-05-03T08:59:02.012Z</time></trkpt><trkpt lat="43.7102965" lon="11.605717"><ele>1248.8</ele><time>2026-05-03T08:59:03.011Z</time></trkpt><trkpt lat="43.7103743" lon="11.6058232"><ele>1246.0</ele><time>2026-05-03T08:59:04.011Z</time></trkpt><trkpt lat="43.7104459" lon="11.6059066"><ele>1245.0</ele><time>2026-05-03T08:59:05.011Z</time></trkpt><trkpt lat="43.7105191" lon="11.605912"><ele>1244.0</ele><time>2026-05-03T08:59:06.012Z</time></trkpt><trkpt lat="43.7105993" lon="11.6059678"><ele>1243.0</ele><time>2026-05-03T08:59:07.012Z</time></trkpt><trkpt lat="43.7106874" lon="11.6059533"><ele>1242.0</ele><time>2026-05-03T08:59:08.012Z</time></trkpt><trkpt lat="43.7107602" lon="11.6059014"><ele>1241.0</ele><time>2026-05-03T08:59:09.011Z</time></trkpt><trkpt lat="43.7108494" lon="11.6058842"><ele>1240.0</ele><time>2026-05-03T08:59:10.011Z</time></trkpt><trkpt lat="43.7109384" lon="11.6058676"><ele>1240.0</ele><time>2026-05-03T08:59:11.011Z</time></trkpt><trkpt lat="43.7109966" lon="11.6059774"><ele>1240.0</ele><time>2026-05-03T08:59:12.011Z</time></trkpt><trkpt lat="43.7110802" lon="11.6060622"><ele>1240.0</ele><time>2026-05-03T08:59:13.012Z</time></trkpt><trkpt lat="43.7111618" lon="11.6061193"><ele>1240.0</ele><time>2026-05-03T08:59:14.011Z</time></trkpt><trkpt lat="43.7112322" lon="11.6061597"><ele>1240.0</ele><time>2026-05-03T08:59:15.012Z</time></trkpt><trkpt lat="43.7112989" lon="11.6061765"><ele>1240.0</ele><time>2026-05-03T08:59:16.011Z</time></trkpt><trkpt lat="43.711398" lon="11.6059867"><ele>1238.2</ele><time>2026-05-03T08:59:18.011Z</time></trkpt><trkpt lat="43.7114561" lon="11.6059028"><ele>1236.4</ele><time>2026-05-03T08:59:19.011Z</time></trkpt><trkpt lat="43.7115074" lon="11.6058334"><ele>1234.6</ele><time>2026-05-03T08:59:20.012Z</time></trkpt><trkpt lat="43.7116067" lon="11.6058131"><ele>1232.8</ele><time>2026-05-03T08:59:22.012Z</time></trkpt><trkpt lat="43.7116944" lon="11.6059281"><ele>1231.0</ele><time>2026-05-03T08:59:23.012Z</time></trkpt><trkpt lat="43.7117714" lon="11.6059944"><ele>1231.0</ele><time>2026-05-03T08:59:24.012Z</time></trkpt><trkpt lat="43.7118217" lon="11.6060853"><ele>1231.0</ele><time>2026-05-03T08:59:25.011Z</time></trkpt><trkpt lat="43.7118913" lon="11.606122"><ele>1231.0</ele><time>2026-05-03T08:59:26.012Z</time></trkpt><trkpt lat="43.7119528" lon="11.6061785"><ele>1231.0</ele><time>2026-05-03T08:59:27.012Z</time></trkpt><trkpt lat="43.7120598" lon="11.6062821"><ele>1231.0</ele><time>2026-05-03T08:59:29.011Z</time></trkpt><trkpt lat="43.7121256" lon="11.6063928"><ele>1230.3999999999999</ele><time>2026-05-03T08:59:30.012Z</time></trkpt><trkpt lat="43.7122297" lon="11.6064805"><ele>1229.8</ele><time>2026-05-03T08:59:31.012Z</time></trkpt><trkpt lat="43.7122841" lon="11.6065841"><ele>1229.1999999999998</ele><time>2026-05-03T08:59:32.012Z</time></trkpt><trkpt lat="43.7123596" lon="11.6066681"><ele>1228.6</ele><time>2026-05-03T08:59:33.012Z</time></trkpt><trkpt lat="43.7123986" lon="11.6067491"><ele>1228.0</ele><time>2026-05-03T08:59:34.012Z</time></trkpt><trkpt lat="43.712455" lon="11.6068223"><ele>1228.0</ele><time>2026-05-03T08:59:35.012Z</time></trkpt><trkpt lat="43.7125605" lon="11.6068834"><ele>1228.0</ele><time>2026-05-03T08:59:36.012Z</time></trkpt><trkpt lat="43.712634" lon="11.6069443"><ele>1228.0</ele><time>2026-05-03T08:59:37.012Z</time></trkpt><trkpt lat="43.7127329" lon="11.6069726"><ele>1228.0</ele><time>2026-05-03T08:59:38.012Z</time></trkpt><trkpt lat="43.7128511" lon="11.6070079"><ele>1228.0</ele><time>2026-05-03T08:59:39.012Z</time></trkpt><trkpt lat="43.7129521" lon="11.6070466"><ele>1226.4</ele><time>2026-05-03T08:59:40.012Z</time></trkpt><trkpt lat="43.7130306" lon="11.6071155"><ele>1224.8</ele><time>2026-05-03T08:59:41.012Z</time></trkpt><trkpt lat="43.7131354" lon="11.6071985"><ele>1223.2</ele><time>2026-05-03T08:59:42.011Z</time></trkpt><trkpt lat="43.7132188" lon="11.6072379"><ele>1221.6</ele><time>2026-05-03T08:59:43.011Z</time></trkpt><trkpt lat="43.7132934" lon="11.6072771"><ele>1220.0</ele><time>2026-05-03T08:59:44.011Z</time></trkpt><trkpt lat="43.7133934" lon="11.6073396"><ele>1220.0</ele><time>2026-05-03T08:59:45.012Z</time></trkpt><trkpt lat="43.7134811" lon="11.6074424"><ele>1220.0</ele><time>2026-05-03T08:59:46.012Z</time></trkpt><trkpt lat="43.7135704" lon="11.6075379"><ele>1220.0</ele><time>2026-05-03T08:59:47.011Z</time></trkpt><trkpt lat="43.7136405" lon="11.6076523"><ele>1220.0</ele><time>2026-05-03T08:59:48.012Z</time></trkpt><trkpt lat="43.7137059" lon="11.6077803"><ele>1220.0</ele><time>2026-05-03T08:59:49.012Z</time></trkpt><trkpt lat="43.713777" lon="11.6078918"><ele>1216.8333333333335</ele><time>2026-05-03T08:59:50.011Z</time></trkpt><trkpt lat="43.7138396" lon="11.6079862"><ele>1213.6666666666667</ele><time>2026-05-03T08:59:51.012Z</time></trkpt><trkpt lat="43.7139008" lon="11.6080362"><ele>1210.5</ele><time>2026-05-03T08:59:52.012Z</time></trkpt><trkpt lat="43.7139723" lon="11.6081044"><ele>1207.3333333333333</ele><time>2026-05-03T08:59:53.012Z</time></trkpt><trkpt lat="43.7140601" lon="11.6080732"><ele>1204.1666666666665</ele><time>2026-05-03T08:59:55.012Z</time></trkpt><trkpt lat="43.7141209" lon="11.6080069"><ele>1201.0</ele><time>2026-05-03T08:59:57.012Z</time></trkpt><trkpt lat="43.7141218" lon="11.6079189"><ele>1202.8</ele><time>2026-05-03T09:00:10.011Z</time></trkpt><trkpt lat="43.7142072" lon="11.6078143"><ele>1204.6</ele><time>2026-05-03T09:00:12.012Z</time></trkpt><trkpt lat="43.7142491" lon="11.6077465"><ele>1206.4</ele><time>2026-05-03T09:00:13.012Z</time></trkpt><trkpt lat="43.714322" lon="11.6075738"><ele>1208.2</ele><time>2026-05-03T09:00:15.012Z</time></trkpt><trkpt lat="43.714347" lon="11.6074858"><ele>1210.0</ele><time>2026-05-03T09:00:16.012Z</time></trkpt><trkpt lat="43.7143613" lon="11.6073795"><ele>1210.0</ele><time>2026-05-03T09:00:17.012Z</time></trkpt><trkpt lat="43.7143786" lon="11.6072429"><ele>1210.0</ele><time>2026-05-03T09:00:18.012Z</time></trkpt><trkpt lat="43.7143694" lon="11.6071461"><ele>1210.0</ele><time>2026-05-03T09:00:19.011Z</time></trkpt><trkpt lat="43.7143878" lon="11.6070393"><ele>1210.0</ele><time>2026-05-03T09:00:20.012Z</time></trkpt><trkpt lat="43.7144097" lon="11.6069321"><ele>1210.0</ele><time>2026-05-03T09:00:21.012Z</time></trkpt><trkpt lat="43.7144321" lon="11.6068235"><ele>1210.0</ele><time>2026-05-03T09:00:22.012Z</time></trkpt><trkpt lat="43.7144625" lon="11.6067281"><ele>1207.6</ele><time>2026-05-03T09:00:23.01Z</time></trkpt><trkpt lat="43.7145154" lon="11.6066318"><ele>1205.2</ele><time>2026-05-03T09:00:24.012Z</time></trkpt><trkpt lat="43.7146519" lon="11.6065867"><ele>1202.8</ele><time>2026-05-03T09:00:25.011Z</time></trkpt><trkpt lat="43.7147255" lon="11.6065331"><ele>1200.4</ele><time>2026-05-03T09:00:26.01Z</time></trkpt><trkpt lat="43.7148198" lon="11.6064829"><ele>1198.0</ele><time>2026-05-03T09:00:27.01Z</time></trkpt><trkpt lat="43.7148947" lon="11.6064518"><ele>1198.0</ele><time>2026-05-03T09:00:28.012Z</time></trkpt><trkpt lat="43.7149984" lon="11.6064241"><ele>1198.0</ele><time>2026-05-03T09:00:30.012Z</time></trkpt><trkpt lat="43.715098" lon="11.6065154"><ele>1198.0</ele><time>2026-05-03T09:00:32.011Z</time></trkpt><trkpt lat="43.7151243" lon="11.6066216"><ele>1198.0</ele><time>2026-05-03T09:00:33.011Z</time></trkpt><trkpt lat="43.7151483" lon="11.6067858"><ele>1198.0</ele><time>2026-05-03T09:00:35.012Z</time></trkpt><trkpt lat="43.7151509" lon="11.6068791"><ele>1198.0</ele><time>2026-05-03T09:00:36.011Z</time></trkpt><trkpt lat="43.7151839" lon="11.6069861"><ele>1198.0</ele><time>2026-05-03T09:00:38.011Z</time></trkpt><trkpt lat="43.7152649" lon="11.6071161"><ele>1198.0</ele><time>2026-05-03T09:00:40.011Z</time></trkpt><trkpt lat="43.7153073" lon="11.6072076"><ele>1198.0</ele><time>2026-05-03T09:00:41.012Z</time></trkpt><trkpt lat="43.7153581" lon="11.6072921"><ele>1198.0</ele><time>2026-05-03T09:00:42.012Z</time></trkpt><trkpt lat="43.715395" lon="11.607388"><ele>1198.0</ele><time>2026-05-03T09:00:43.011Z</time></trkpt><trkpt lat="43.7154439" lon="11.6075064"><ele>1196.3333333333333</ele><time>2026-05-03T09:00:44.011Z</time></trkpt><trkpt lat="43.7154699" lon="11.6076134"><ele>1194.6666666666665</ele><time>2026-05-03T09:00:45.012Z</time></trkpt><trkpt lat="43.7155194" lon="11.6076714"><ele>1193.0</ele><time>2026-05-03T09:00:46.011Z</time></trkpt><trkpt lat="43.7155808" lon="11.6077253"><ele>1191.3333333333333</ele><time>2026-05-03T09:00:47.012Z</time></trkpt><trkpt lat="43.7156428" lon="11.6077686"><ele>1189.6666666666667</ele><time>2026-05-03T09:00:48.012Z</time></trkpt><trkpt lat="43.715764" lon="11.6077658"><ele>1188.0</ele><time>2026-05-03T09:00:50.011Z</time></trkpt><trkpt lat="43.7158409" lon="11.6077511"><ele>1188.0</ele><time>2026-05-03T09:00:51.012Z</time></trkpt><trkpt lat="43.7159802" lon="11.6077477"><ele>1188.0</ele><time>2026-05-03T09:00:53.011Z</time></trkpt><trkpt lat="43.7160468" lon="11.6078527"><ele>1188.0</ele><time>2026-05-03T09:00:54.012Z</time></trkpt><trkpt lat="43.71613" lon="11.6079593"><ele>1188.0</ele><time>2026-05-03T09:00:55.011Z</time></trkpt><trkpt lat="43.7161825" lon="11.6080763"><ele>1184.6</ele><time>2026-05-03T09:00:56.011Z</time></trkpt><trkpt lat="43.7162847" lon="11.6081599"><ele>1181.1999999999998</ele><time>2026-05-03T09:00:57.012Z</time></trkpt><trkpt lat="43.7163805" lon="11.6082511"><ele>1177.8</ele><time>2026-05-03T09:00:58.011Z</time></trkpt><trkpt lat="43.7164748" lon="11.6082599"><ele>1174.3999999999999</ele><time>2026-05-03T09:00:59.011Z</time></trkpt><trkpt lat="43.7165556" lon="11.6083049"><ele>1171.0</ele><time>2026-05-03T09:01:00.012Z</time></trkpt><trkpt lat="43.7166881" lon="11.6083841"><ele>1171.0</ele><time>2026-05-03T09:01:01.012Z</time></trkpt><trkpt lat="43.716785" lon="11.6084095"><ele>1171.0</ele><time>2026-05-03T09:01:02.011Z</time></trkpt><trkpt lat="43.7168649" lon="11.6084721"><ele>1171.0</ele><time>2026-05-03T09:01:03.011Z</time></trkpt><trkpt lat="43.7169523" lon="11.6085471"><ele>1171.0</ele><time>2026-05-03T09:01:04.012Z</time></trkpt><trkpt lat="43.7170311" lon="11.6086025"><ele>1171.0</ele><time>2026-05-03T09:01:05.012Z</time></trkpt><trkpt lat="43.7171126" lon="11.6086502"><ele>1168.6666666666665</ele><time>2026-05-03T09:01:06.012Z</time></trkpt><trkpt lat="43.7171967" lon="11.60871"><ele>1166.3333333333333</ele><time>2026-05-03T09:01:07.012Z</time></trkpt><trkpt lat="43.7172714" lon="11.6087291"><ele>1164.0</ele><time>2026-05-03T09:01:08.011Z</time></trkpt><trkpt lat="43.7173519" lon="11.60874"><ele>1161.6666666666667</ele><time>2026-05-03T09:01:09.012Z</time></trkpt><trkpt lat="43.717419" lon="11.6087107"><ele>1159.3333333333335</ele><time>2026-05-03T09:01:10.012Z</time></trkpt><trkpt lat="43.7174956" lon="11.6086911"><ele>1157.0</ele><time>2026-05-03T09:01:11.011Z</time></trkpt><trkpt lat="43.7175782" lon="11.6085866"><ele>1157.0</ele><time>2026-05-03T09:01:12.012Z</time></trkpt><trkpt lat="43.717647" lon="11.6084619"><ele>1157.0</ele><time>2026-05-03T09:01:13.011Z</time></trkpt><trkpt lat="43.7177187" lon="11.6083889"><ele>1157.0</ele><time>2026-05-03T09:01:14.012Z</time></trkpt><trkpt lat="43.7178118" lon="11.608325"><ele>1157.0</ele><time>2026-05-03T09:01:15.012Z</time></trkpt><trkpt lat="43.7178839" lon="11.608288"><ele>1157.0</ele><time>2026-05-03T09:01:16.012Z</time></trkpt><trkpt lat="43.7180057" lon="11.608281"><ele>1154.1666666666667</ele><time>2026-05-03T09:01:18.012Z</time></trkpt><trkpt lat="43.7180744" lon="11.6082869"><ele>1151.3333333333335</ele><time>2026-05-03T09:01:19.012Z</time></trkpt><trkpt lat="43.7181405" lon="11.6083802"><ele>1148.5</ele><time>2026-05-03T09:01:20.011Z</time></trkpt><trkpt lat="43.7181788" lon="11.6084844"><ele>1145.6666666666667</ele><time>2026-05-03T09:01:21.011Z</time></trkpt><trkpt lat="43.7182123" lon="11.6085964"><ele>1142.8333333333333</ele><time>2026-05-03T09:01:22.01Z</time></trkpt><trkpt lat="43.718222" lon="11.6087064"><ele>1140.0</ele><time>2026-05-03T09:01:23.011Z</time></trkpt><trkpt lat="43.7182129" lon="11.6088509"><ele>1138.6</ele><time>2026-05-03T09:01:24.012Z</time></trkpt><trkpt lat="43.718194" lon="11.6089632"><ele>1137.2</ele><time>2026-05-03T09:01:25.011Z</time></trkpt><trkpt lat="43.7181718" lon="11.6090983"><ele>1135.8</ele><time>2026-05-03T09:01:26.012Z</time></trkpt><trkpt lat="43.7181481" lon="11.6092348"><ele>1134.4</ele><time>2026-05-03T09:01:27.011Z</time></trkpt><trkpt lat="43.7181068" lon="11.6093502"><ele>1133.0</ele><time>2026-05-03T09:01:28.011Z</time></trkpt><trkpt lat="43.7180339" lon="11.6095065"><ele>1131.2</ele><time>2026-05-03T09:01:29.011Z</time></trkpt><trkpt lat="43.7180031" lon="11.6096427"><ele>1129.4</ele><time>2026-05-03T09:01:30.011Z</time></trkpt><trkpt lat="43.7179643" lon="11.6097797"><ele>1127.6000000000001</ele><time>2026-05-03T09:01:31.011Z</time></trkpt><trkpt lat="43.7179309" lon="11.6099163"><ele>1125.8</ele><time>2026-05-03T09:01:32.011Z</time></trkpt><trkpt lat="43.7179023" lon="11.6100316"><ele>1124.0</ele><time>2026-05-03T09:01:33.012Z</time></trkpt><trkpt lat="43.7178759" lon="11.6101585"><ele>1124.0</ele><time>2026-05-03T09:01:34.011Z</time></trkpt><trkpt lat="43.7178364" lon="11.610282"><ele>1124.0</ele><time>2026-05-03T09:01:35.012Z</time></trkpt><trkpt lat="43.7178194" lon="11.6103844"><ele>1124.0</ele><time>2026-05-03T09:01:36.011Z</time></trkpt><trkpt lat="43.717817" lon="11.6104894"><ele>1124.0</ele><time>2026-05-03T09:01:37.012Z</time></trkpt><trkpt lat="43.7178235" lon="11.6106093"><ele>1124.0</ele><time>2026-05-03T09:01:38.012Z</time></trkpt><trkpt lat="43.7178978" lon="11.6106002"><ele>1124.0</ele><time>2026-05-03T09:01:39.011Z</time></trkpt><trkpt lat="43.7179881" lon="11.6105552"><ele>1124.2</ele><time>2026-05-03T09:01:40.011Z</time></trkpt><trkpt lat="43.7180787" lon="11.6104692"><ele>1124.4</ele><time>2026-05-03T09:01:41.012Z</time></trkpt><trkpt lat="43.7181988" lon="11.6104066"><ele>1124.6</ele><time>2026-05-03T09:01:42.011Z</time></trkpt><trkpt lat="43.7183006" lon="11.6103592"><ele>1124.8</ele><time>2026-05-03T09:01:43.012Z</time></trkpt><trkpt lat="43.718397" lon="11.6103322"><ele>1125.0</ele><time>2026-05-03T09:01:44.011Z</time></trkpt><trkpt lat="43.7184961" lon="11.6103588"><ele>1123.0</ele><time>2026-05-03T09:01:45.011Z</time></trkpt><trkpt lat="43.7186048" lon="11.6103725"><ele>1121.0</ele><time>2026-05-03T09:01:46.011Z</time></trkpt><trkpt lat="43.7187019" lon="11.6104163"><ele>1119.0</ele><time>2026-05-03T09:01:47.011Z</time></trkpt><trkpt lat="43.7187989" lon="11.610453"><ele>1117.0</ele><time>2026-05-03T09:01:48.011Z</time></trkpt><trkpt lat="43.718893" lon="11.6104856"><ele>1115.0</ele><time>2026-05-03T09:01:49.012Z</time></trkpt><trkpt lat="43.7189839" lon="11.6105104"><ele>1115.0</ele><time>2026-05-03T09:01:50.011Z</time></trkpt><trkpt lat="43.719076" lon="11.6105516"><ele>1115.0</ele><time>2026-05-03T09:01:51.01Z</time></trkpt><trkpt lat="43.7191476" lon="11.6106123"><ele>1115.0</ele><time>2026-05-03T09:01:52.011Z</time></trkpt><trkpt lat="43.7192062" lon="11.6106882"><ele>1115.0</ele><time>2026-05-03T09:01:53.01Z</time></trkpt><trkpt lat="43.7192498" lon="11.6107789"><ele>1115.0</ele><time>2026-05-03T09:01:54.012Z</time></trkpt><trkpt lat="43.7192835" lon="11.6109011"><ele>1115.0</ele><time>2026-05-03T09:01:55.012Z</time></trkpt><trkpt lat="43.7193182" lon="11.6110221"><ele>1115.0</ele><time>2026-05-03T09:01:56.012Z</time></trkpt><trkpt lat="43.7193683" lon="11.6111371"><ele>1115.0</ele><time>2026-05-03T09:01:57.01Z</time></trkpt><trkpt lat="43.7194149" lon="11.6112491"><ele>1115.0</ele><time>2026-05-03T09:01:58.012Z</time></trkpt><trkpt lat="43.719442" lon="11.6113668"><ele>1115.0</ele><time>2026-05-03T09:01:59.011Z</time></trkpt><trkpt lat="43.7194572" lon="11.611487"><ele>1115.0</ele><time>2026-05-03T09:02:00.011Z</time></trkpt><trkpt lat="43.7194833" lon="11.6116388"><ele>1110.8</ele><time>2026-05-03T09:02:01.011Z</time></trkpt><trkpt lat="43.7195074" lon="11.6117724"><ele>1106.6</ele><time>2026-05-03T09:02:02.012Z</time></trkpt><trkpt lat="43.7195582" lon="11.6119285"><ele>1102.4</ele><time>2026-05-03T09:02:03.012Z</time></trkpt><trkpt lat="43.7195936" lon="11.6120734"><ele>1098.2</ele><time>2026-05-03T09:02:04.012Z</time></trkpt><trkpt lat="43.7196557" lon="11.6122013"><ele>1094.0</ele><time>2026-05-03T09:02:05.012Z</time></trkpt><trkpt lat="43.7196885" lon="11.6123129"><ele>1094.0</ele><time>2026-05-03T09:02:06.012Z</time></trkpt><trkpt lat="43.7196912" lon="11.6124371"><ele>1094.0</ele><time>2026-05-03T09:02:07.012Z</time></trkpt><trkpt lat="43.7197059" lon="11.6125729"><ele>1094.0</ele><time>2026-05-03T09:02:08.012Z</time></trkpt><trkpt lat="43.7196744" lon="11.6126809"><ele>1094.0</ele><time>2026-05-03T09:02:09.012Z</time></trkpt><trkpt lat="43.7196644" lon="11.6128088"><ele>1094.0</ele><time>2026-05-03T09:02:10.011Z</time></trkpt><trkpt lat="43.7196224" lon="11.6129334"><ele>1093.0</ele><time>2026-05-03T09:02:11.012Z</time></trkpt><trkpt lat="43.7195843" lon="11.6130407"><ele>1092.0</ele><time>2026-05-03T09:02:12.012Z</time></trkpt><trkpt lat="43.719536" lon="11.6131887"><ele>1091.0</ele><time>2026-05-03T09:02:13.011Z</time></trkpt><trkpt lat="43.7195051" lon="11.6132984"><ele>1090.0</ele><time>2026-05-03T09:02:14.011Z</time></trkpt><trkpt lat="43.7194596" lon="11.6134265"><ele>1089.0</ele><time>2026-05-03T09:02:15.011Z</time></trkpt><trkpt lat="43.7194987" lon="11.6135147"><ele>1089.0</ele><time>2026-05-03T09:02:16.012Z</time></trkpt><trkpt lat="43.719493" lon="11.6136377"><ele>1089.0</ele><time>2026-05-03T09:02:17.011Z</time></trkpt><trkpt lat="43.7195066" lon="11.613745"><ele>1089.0</ele><time>2026-05-03T09:02:18.011Z</time></trkpt><trkpt lat="43.7195302" lon="11.6138921"><ele>1089.0</ele><time>2026-05-03T09:02:19.011Z</time></trkpt><trkpt lat="43.7195778" lon="11.6140238"><ele>1089.0</ele><time>2026-05-03T09:02:20.011Z</time></trkpt><trkpt lat="43.719615" lon="11.6141536"><ele>1087.6000000000001</ele><time>2026-05-03T09:02:21.011Z</time></trkpt><trkpt lat="43.7196788" lon="11.6142683"><ele>1086.2</ele><time>2026-05-03T09:02:22.012Z</time></trkpt><trkpt lat="43.7196937" lon="11.6144447"><ele>1084.8000000000002</ele><time>2026-05-03T09:02:24.01Z</time></trkpt><trkpt lat="43.7196906" lon="11.6145499"><ele>1083.4</ele><time>2026-05-03T09:02:25.012Z</time></trkpt><trkpt lat="43.7197149" lon="11.6146747"><ele>1082.0</ele><time>2026-05-03T09:02:27.012Z</time></trkpt><trkpt lat="43.7198293" lon="11.6147332"><ele>1080.6666666666667</ele><time>2026-05-03T09:02:29.012Z</time></trkpt><trkpt lat="43.7199083" lon="11.6147468"><ele>1079.3333333333335</ele><time>2026-05-03T09:02:30.011Z</time></trkpt><trkpt lat="43.7199874" lon="11.6147639"><ele>1078.0</ele><time>2026-05-03T09:02:31.012Z</time></trkpt><trkpt lat="43.7200633" lon="11.6147932"><ele>1076.6666666666667</ele><time>2026-05-03T09:02:32.012Z</time></trkpt><trkpt lat="43.7201652" lon="11.6148158"><ele>1075.3333333333333</ele><time>2026-05-03T09:02:33.012Z</time></trkpt><trkpt lat="43.7202562" lon="11.6148327"><ele>1074.0</ele><time>2026-05-03T09:02:34.012Z</time></trkpt><trkpt lat="43.7203381" lon="11.6148466"><ele>1071.6666666666667</ele><time>2026-05-03T09:02:35.012Z</time></trkpt><trkpt lat="43.7204189" lon="11.6148914"><ele>1069.3333333333333</ele><time>2026-05-03T09:02:36.012Z</time></trkpt><trkpt lat="43.7204515" lon="11.6149768"><ele>1067.0</ele><time>2026-05-03T09:02:37.012Z</time></trkpt><trkpt lat="43.7205119" lon="11.6150561"><ele>1064.6666666666665</ele><time>2026-05-03T09:02:38.012Z</time></trkpt><trkpt lat="43.7205377" lon="11.6151422"><ele>1062.3333333333333</ele><time>2026-05-03T09:02:39.012Z</time></trkpt><trkpt lat="43.7204389" lon="11.6152346"><ele>1060.0</ele><time>2026-05-03T09:02:40.012Z</time></trkpt><trkpt lat="43.7203777" lon="11.6153048"><ele>1060.0</ele><time>2026-05-03T09:02:41.01Z</time></trkpt><trkpt lat="43.7203113" lon="11.6153807"><ele>1060.0</ele><time>2026-05-03T09:02:42.01Z</time></trkpt><trkpt lat="43.7202316" lon="11.6154742"><ele>1060.0</ele><time>2026-05-03T09:02:43.012Z</time></trkpt><trkpt lat="43.7201767" lon="11.6155564"><ele>1060.0</ele><time>2026-05-03T09:02:44.011Z</time></trkpt><trkpt lat="43.7201602" lon="11.6157072"><ele>1060.0</ele><time>2026-05-03T09:02:46.01Z</time></trkpt><trkpt lat="43.7202175" lon="11.615787"><ele>1057.6</ele><time>2026-05-03T09:02:48.013Z</time></trkpt><trkpt lat="43.7203045" lon="11.6157868"><ele>1055.2</ele><time>2026-05-03T09:02:49.012Z</time></trkpt><trkpt lat="43.7204052" lon="11.6158608"><ele>1052.8</ele><time>2026-05-03T09:02:50.012Z</time></trkpt><trkpt lat="43.7204515" lon="11.615924"><ele>1050.4</ele><time>2026-05-03T09:02:51.013Z</time></trkpt><trkpt lat="43.7205005" lon="11.6160166"><ele>1048.0</ele><time>2026-05-03T09:02:52.013Z</time></trkpt><trkpt lat="43.7206292" lon="11.616027"><ele>1048.0</ele><time>2026-05-03T09:02:54.012Z</time></trkpt><trkpt lat="43.7207628" lon="11.6159182"><ele>1048.0</ele><time>2026-05-03T09:02:56.013Z</time></trkpt><trkpt lat="43.7208434" lon="11.6158746"><ele>1048.0</ele><time>2026-05-03T09:02:57.013Z</time></trkpt><trkpt lat="43.7209508" lon="11.6158251"><ele>1048.0</ele><time>2026-05-03T09:02:58.012Z</time></trkpt><trkpt lat="43.7210175" lon="11.6157799"><ele>1048.0</ele><time>2026-05-03T09:02:59.013Z</time></trkpt><trkpt lat="43.7210724" lon="11.615693"><ele>1044.5</ele><time>2026-05-03T09:03:00.012Z</time></trkpt><trkpt lat="43.7211392" lon="11.6156241"><ele>1041.0</ele><time>2026-05-03T09:03:01.013Z</time></trkpt><trkpt lat="43.7211974" lon="11.6155138"><ele>1037.5</ele><time>2026-05-03T09:03:02.013Z</time></trkpt><trkpt lat="43.7212447" lon="11.6154212"><ele>1034.0</ele><time>2026-05-03T09:03:03.013Z</time></trkpt><trkpt lat="43.7212749" lon="11.6152924"><ele>1030.5</ele><time>2026-05-03T09:03:04.012Z</time></trkpt><trkpt lat="43.7213252" lon="11.6152071"><ele>1027.0</ele><time>2026-05-03T09:03:05.013Z</time></trkpt><trkpt lat="43.7213674" lon="11.6151283"><ele>1027.0</ele><time>2026-05-03T09:03:06.011Z</time></trkpt><trkpt lat="43.7214158" lon="11.6150098"><ele>1027.0</ele><time>2026-05-03T09:03:07.011Z</time></trkpt><trkpt lat="43.7214926" lon="11.6149111"><ele>1027.0</ele><time>2026-05-03T09:03:08.013Z</time></trkpt><trkpt lat="43.7215495" lon="11.6148194"><ele>1027.0</ele><time>2026-05-03T09:03:09.013Z</time></trkpt><trkpt lat="43.7215524" lon="11.6147226"><ele>1027.0</ele><time>2026-05-03T09:03:10.013Z</time></trkpt><trkpt lat="43.7216163" lon="11.6146065"><ele>1027.0</ele><time>2026-05-03T09:03:11.012Z</time></trkpt><trkpt lat="43.72167" lon="11.6145149"><ele>1027.0</ele><time>2026-05-03T09:03:12.013Z</time></trkpt><trkpt lat="43.721728" lon="11.6144337"><ele>1027.0</ele><time>2026-05-03T09:03:13.013Z</time></trkpt><trkpt lat="43.7217856" lon="11.6143768"><ele>1027.0</ele><time>2026-05-03T09:03:14.013Z</time></trkpt><trkpt lat="43.7218592" lon="11.6142836"><ele>1027.0</ele><time>2026-05-03T09:03:15.013Z</time></trkpt><trkpt lat="43.7219114" lon="11.614216"><ele>1027.0</ele><time>2026-05-03T09:03:16.013Z</time></trkpt><trkpt lat="43.7219786" lon="11.6141804"><ele>1023.6</ele><time>2026-05-03T09:03:18.013Z</time></trkpt><trkpt lat="43.7220362" lon="11.6142767"><ele>1020.2</ele><time>2026-05-03T09:03:20.013Z</time></trkpt><trkpt lat="43.7219591" lon="11.6144323"><ele>1016.8</ele><time>2026-05-03T09:03:21.013Z</time></trkpt><trkpt lat="43.7219271" lon="11.6145584"><ele>1013.4</ele><time>2026-05-03T09:03:22.013Z</time></trkpt><trkpt lat="43.7219131" lon="11.6146741"><ele>1010.0</ele><time>2026-05-03T09:03:23.012Z</time></trkpt><trkpt lat="43.721905" lon="11.6147764"><ele>1008.6666666666667</ele><time>2026-05-03T09:03:24.012Z</time></trkpt><trkpt lat="43.7219528" lon="11.6148479"><ele>1007.3333333333334</ele><time>2026-05-03T09:03:25.013Z</time></trkpt><trkpt lat="43.7220408" lon="11.6148848"><ele>1006.0</ele><time>2026-05-03T09:03:26.013Z</time></trkpt><trkpt lat="43.7221319" lon="11.6148973"><ele>1004.6666666666667</ele><time>2026-05-03T09:03:27.013Z</time></trkpt><trkpt lat="43.7222217" lon="11.6148815"><ele>1003.3333333333334</ele><time>2026-05-03T09:03:28.013Z</time></trkpt><trkpt lat="43.7223116" lon="11.6149029"><ele>1002.0</ele><time>2026-05-03T09:03:29.012Z</time></trkpt><trkpt lat="43.7223805" lon="11.6149403"><ele>1002.0</ele><time>2026-05-03T09:03:30.012Z</time></trkpt><trkpt lat="43.7224707" lon="11.6149992"><ele>1002.0</ele><time>2026-05-03T09:03:31.013Z</time></trkpt><trkpt lat="43.7225477" lon="11.6150335"><ele>1002.0</ele><time>2026-05-03T09:03:32.013Z</time></trkpt><trkpt lat="43.7226087" lon="11.6150961"><ele>1002.0</ele><time>2026-05-03T09:03:33.012Z</time></trkpt><trkpt lat="43.7226773" lon="11.6151738"><ele>1002.0</ele><time>2026-05-03T09:03:34.013Z</time></trkpt><trkpt lat="43.7227256" lon="11.6152385"><ele>1002.0</ele><time>2026-05-03T09:03:35.012Z</time></trkpt><trkpt lat="43.7228112" lon="11.6153937"><ele>1000.6666666666666</ele><time>2026-05-03T09:03:37.013Z</time></trkpt><trkpt lat="43.7228557" lon="11.6154628"><ele>999.3333333333333</ele><time>2026-05-03T09:03:38.012Z</time></trkpt><trkpt lat="43.7229251" lon="11.6154999"><ele>998.0</ele><time>2026-05-03T09:03:39.013Z</time></trkpt><trkpt lat="43.7230264" lon="11.6154838"><ele>996.6666666666666</ele><time>2026-05-03T09:03:41.012Z</time></trkpt><trkpt lat="43.7231185" lon="11.6153877"><ele>995.3333333333333</ele><time>2026-05-03T09:03:43.013Z</time></trkpt><trkpt lat="43.7231607" lon="11.6153052"><ele>994.0</ele><time>2026-05-03T09:03:44.012Z</time></trkpt><trkpt lat="43.7232624" lon="11.6153859"><ele>992.8333333333333</ele><time>2026-05-03T09:03:47.012Z</time></trkpt><trkpt lat="43.7233003" lon="11.6154583"><ele>991.6666666666666</ele><time>2026-05-03T09:03:48.011Z</time></trkpt><trkpt lat="43.7233308" lon="11.6155447"><ele>990.5</ele><time>2026-05-03T09:03:49.013Z</time></trkpt><trkpt lat="43.7233727" lon="11.6156146"><ele>989.3333333333333</ele><time>2026-05-03T09:03:50.012Z</time></trkpt><trkpt lat="43.7234382" lon="11.6157727"><ele>988.1666666666666</ele><time>2026-05-03T09:03:52.013Z</time></trkpt><trkpt lat="43.7234825" lon="11.6158789"><ele>987.0</ele><time>2026-05-03T09:03:53.013Z</time></trkpt><trkpt lat="43.7235386" lon="11.6159429"><ele>987.0</ele><time>2026-05-03T09:03:54.013Z</time></trkpt><trkpt lat="43.7235424" lon="11.6161399"><ele>987.0</ele><time>2026-05-03T09:03:56.013Z</time></trkpt><trkpt lat="43.7235449" lon="11.6162676"><ele>987.0</ele><time>2026-05-03T09:03:57.013Z</time></trkpt><trkpt lat="43.7234858" lon="11.616403"><ele>987.0</ele><time>2026-05-03T09:03:58.012Z</time></trkpt><trkpt lat="43.7234749" lon="11.6165251"><ele>987.0</ele><time>2026-05-03T09:03:59.013Z</time></trkpt><trkpt lat="43.7235096" lon="11.616632"><ele>985.6666666666666</ele><time>2026-05-03T09:04:00.013Z</time></trkpt><trkpt lat="43.7235012" lon="11.6167616"><ele>984.3333333333333</ele><time>2026-05-03T09:04:01.013Z</time></trkpt><trkpt lat="43.7235077" lon="11.6168762"><ele>983.0</ele><time>2026-05-03T09:04:02.012Z</time></trkpt><trkpt lat="43.7235585" lon="11.6169368"><ele>981.6666666666666</ele><time>2026-05-03T09:04:03.011Z</time></trkpt><trkpt lat="43.7236494" lon="11.6170574"><ele>980.3333333333333</ele><time>2026-05-03T09:04:05.012Z</time></trkpt><trkpt lat="43.723686" lon="11.6171416"><ele>979.0</ele><time>2026-05-03T09:04:06.013Z</time></trkpt><trkpt lat="43.7237135" lon="11.617249"><ele>975.2</ele><time>2026-05-03T09:04:07.013Z</time></trkpt><trkpt lat="43.7237068" lon="11.6173493"><ele>971.4000000000001</ele><time>2026-05-03T09:04:08.013Z</time></trkpt><trkpt lat="43.723668" lon="11.6174731"><ele>967.6</ele><time>2026-05-03T09:04:09.012Z</time></trkpt><trkpt lat="43.7236362" lon="11.6175836"><ele>963.8</ele><time>2026-05-03T09:04:10.013Z</time></trkpt><trkpt lat="43.7236136" lon="11.6177141"><ele>960.0</ele><time>2026-05-03T09:04:11.012Z</time></trkpt><trkpt lat="43.7235448" lon="11.6178407"><ele>960.0</ele><time>2026-05-03T09:04:12.012Z</time></trkpt><trkpt lat="43.7234846" lon="11.6179208"><ele>960.0</ele><time>2026-05-03T09:04:13.013Z</time></trkpt><trkpt lat="43.7234432" lon="11.61801"><ele>960.0</ele><time>2026-05-03T09:04:14.012Z</time></trkpt><trkpt lat="43.7234094" lon="11.6181063"><ele>960.0</ele><time>2026-05-03T09:04:15.013Z</time></trkpt><trkpt lat="43.7233871" lon="11.6182367"><ele>960.0</ele><time>2026-05-03T09:04:16.013Z</time></trkpt><trkpt lat="43.7233609" lon="11.618356"><ele>960.0</ele><time>2026-05-03T09:04:17.013Z</time></trkpt><trkpt lat="43.7233338" lon="11.6184782"><ele>960.0</ele><time>2026-05-03T09:04:18.012Z</time></trkpt><trkpt lat="43.7233206" lon="11.6186059"><ele>960.0</ele><time>2026-05-03T09:04:19.011Z</time></trkpt><trkpt lat="43.7232957" lon="11.6187022"><ele>960.0</ele><time>2026-05-03T09:04:20.013Z</time></trkpt><trkpt lat="43.7232719" lon="11.6188839"><ele>960.0</ele><time>2026-05-03T09:04:22.013Z</time></trkpt><trkpt lat="43.7232672" lon="11.6190384"><ele>960.0</ele><time>2026-05-03T09:04:24.013Z</time></trkpt><trkpt lat="43.7233366" lon="11.6191072"><ele>958.6</ele><time>2026-05-03T09:04:56.013Z</time></trkpt><trkpt lat="43.7234098" lon="11.6191657"><ele>957.2</ele><time>2026-05-03T09:04:58.012Z</time></trkpt><trkpt lat="43.7235094" lon="11.6192441"><ele>955.8</ele><time>2026-05-03T09:05:00.012Z</time></trkpt><trkpt lat="43.7236268" lon="11.6192543"><ele>954.4</ele><time>2026-05-03T09:05:02.012Z</time></trkpt><trkpt lat="43.7236904" lon="11.6192489"><ele>953.0</ele><time>2026-05-03T09:05:03.012Z</time></trkpt><trkpt lat="43.7237974" lon="11.6192038"><ele>950.8</ele><time>2026-05-03T09:05:05.012Z</time></trkpt><trkpt lat="43.7238649" lon="11.6191778"><ele>948.5999999999999</ele><time>2026-05-03T09:05:06.013Z</time></trkpt><trkpt lat="43.723954" lon="11.6190521"><ele>946.4000000000001</ele><time>2026-05-03T09:05:08.013Z</time></trkpt><trkpt lat="43.7240407" lon="11.6189383"><ele>944.2</ele><time>2026-05-03T09:05:10.013Z</time></trkpt><trkpt lat="43.7241334" lon="11.6189199"><ele>942.0</ele><time>2026-05-03T09:05:11.013Z</time></trkpt><trkpt lat="43.7242152" lon="11.618881"><ele>942.0</ele><time>2026-05-03T09:05:12.013Z</time></trkpt><trkpt lat="43.724332" lon="11.6188141"><ele>942.0</ele><time>2026-05-03T09:05:14.013Z</time></trkpt><trkpt lat="43.7244029" lon="11.6188312"><ele>942.0</ele><time>2026-05-03T09:05:15.012Z</time></trkpt><trkpt lat="43.7244703" lon="11.6188497"><ele>942.0</ele><time>2026-05-03T09:05:16.012Z</time></trkpt><trkpt lat="43.7245294" lon="11.6188897"><ele>942.0</ele><time>2026-05-03T09:05:17.012Z</time></trkpt><trkpt lat="43.7246414" lon="11.6190281"><ele>941.0</ele><time>2026-05-03T09:05:18.013Z</time></trkpt><trkpt lat="43.7246487" lon="11.6191445"><ele>940.0</ele><time>2026-05-03T09:05:19.013Z</time></trkpt><trkpt lat="43.7247005" lon="11.6192318"><ele>939.0</ele><time>2026-05-03T09:05:20.012Z</time></trkpt><trkpt lat="43.7247431" lon="11.6193161"><ele>938.0</ele><time>2026-05-03T09:05:21.012Z</time></trkpt><trkpt lat="43.7247887" lon="11.6194071"><ele>937.0</ele><time>2026-05-03T09:05:22.013Z</time></trkpt><trkpt lat="43.7248515" lon="11.6194698"><ele>936.0</ele><time>2026-05-03T09:05:23.013Z</time></trkpt><trkpt lat="43.7249077" lon="11.6195398"><ele>934.1999999999999</ele><time>2026-05-03T09:05:24.013Z</time></trkpt><trkpt lat="43.725032" lon="11.6195665"><ele>932.3999999999999</ele><time>2026-05-03T09:05:26.012Z</time></trkpt><trkpt lat="43.7250948" lon="11.6195799"><ele>930.6</ele><time>2026-05-03T09:05:27.012Z</time></trkpt><trkpt lat="43.7251804" lon="11.6195266"><ele>928.8</ele><time>2026-05-03T09:05:28.012Z</time></trkpt><trkpt lat="43.7252764" lon="11.6194627"><ele>927.0</ele><time>2026-05-03T09:05:30.012Z</time></trkpt><trkpt lat="43.7253458" lon="11.6194809"><ele>925.6</ele><time>2026-05-03T09:05:31.012Z</time></trkpt><trkpt lat="43.7254435" lon="11.6195075"><ele>924.2</ele><time>2026-05-03T09:05:32.013Z</time></trkpt><trkpt lat="43.7255247" lon="11.6195421"><ele>922.8</ele><time>2026-05-03T09:05:33.013Z</time></trkpt><trkpt lat="43.7256423" lon="11.6196279"><ele>921.4</ele><time>2026-05-03T09:05:35.012Z</time></trkpt><trkpt lat="43.7257193" lon="11.6196798"><ele>920.0</ele><time>2026-05-03T09:05:36.012Z</time></trkpt><trkpt lat="43.7257965" lon="11.6197073"><ele>920.0</ele><time>2026-05-03T09:05:37.013Z</time></trkpt><trkpt lat="43.7258576" lon="11.6197324"><ele>920.0</ele><time>2026-05-03T09:05:38.012Z</time></trkpt><trkpt lat="43.7259225" lon="11.6197579"><ele>920.0</ele><time>2026-05-03T09:05:39.013Z</time></trkpt><trkpt lat="43.7260005" lon="11.6197767"><ele>920.0</ele><time>2026-05-03T09:05:40.013Z</time></trkpt><trkpt lat="43.7260951" lon="11.6198067"><ele>920.0</ele><time>2026-05-03T09:05:41.013Z</time></trkpt><trkpt lat="43.7262505" lon="11.6198489"><ele>916.2</ele><time>2026-05-03T09:05:43.013Z</time></trkpt><trkpt lat="43.7263529" lon="11.619884"><ele>912.4</ele><time>2026-05-03T09:05:44.012Z</time></trkpt><trkpt lat="43.7264563" lon="11.6199339"><ele>908.5999999999999</ele><time>2026-05-03T09:05:45.012Z</time></trkpt><trkpt lat="43.7265649" lon="11.6200148"><ele>904.8</ele><time>2026-05-03T09:05:46.012Z</time></trkpt><trkpt lat="43.7266536" lon="11.6200917"><ele>901.0</ele><time>2026-05-03T09:05:47.012Z</time></trkpt><trkpt lat="43.7267145" lon="11.6201841"><ele>900.9999999999999</ele><time>2026-05-03T09:05:48.012Z</time></trkpt><trkpt lat="43.7267131" lon="11.6202827"><ele>901.0</ele><time>2026-05-03T09:05:49.013Z</time></trkpt><trkpt lat="43.7267747" lon="11.6203338"><ele>901.0</ele><time>2026-05-03T09:05:50.013Z</time></trkpt><trkpt lat="43.7268452" lon="11.6204049"><ele>901.0</ele><time>2026-05-03T09:05:51.013Z</time></trkpt><trkpt lat="43.726932" lon="11.6204658"><ele>900.9999999999999</ele><time>2026-05-03T09:05:52.012Z</time></trkpt><trkpt lat="43.7270393" lon="11.6205287"><ele>901.0</ele><time>2026-05-03T09:05:53.012Z</time></trkpt><trkpt lat="43.7271459" lon="11.6205979"><ele>898.0</ele><time>2026-05-03T09:05:54.013Z</time></trkpt><trkpt lat="43.7272417" lon="11.6206393"><ele>895.0</ele><time>2026-05-03T09:05:55.013Z</time></trkpt><trkpt lat="43.7273583" lon="11.6206197"><ele>892.0</ele><time>2026-05-03T09:05:56.012Z</time></trkpt><trkpt lat="43.7274591" lon="11.6206016"><ele>889.0</ele><time>2026-05-03T09:05:57.013Z</time></trkpt><trkpt lat="43.7275882" lon="11.6206775"><ele>888.9999999999999</ele><time>2026-05-03T09:05:58.012Z</time></trkpt><trkpt lat="43.7276662" lon="11.6206986"><ele>889.0</ele><time>2026-05-03T09:05:59.013Z</time></trkpt><trkpt lat="43.7277561" lon="11.6207239"><ele>889.0</ele><time>2026-05-03T09:06:00.013Z</time></trkpt><trkpt lat="43.7278223" lon="11.6207564"><ele>889.0</ele><time>2026-05-03T09:06:01.012Z</time></trkpt><trkpt lat="43.7278969" lon="11.6207702"><ele>888.9999999999999</ele><time>2026-05-03T09:06:02.013Z</time></trkpt><trkpt lat="43.7279763" lon="11.6207911"><ele>889.0</ele><time>2026-05-03T09:06:03.012Z</time></trkpt><trkpt lat="43.7280526" lon="11.62082"><ele>886.1666666666666</ele><time>2026-05-03T09:06:04.013Z</time></trkpt><trkpt lat="43.728116" lon="11.6208458"><ele>883.3333333333333</ele><time>2026-05-03T09:06:05.013Z</time></trkpt><trkpt lat="43.7281932" lon="11.6208264"><ele>880.5</ele><time>2026-05-03T09:06:07.012Z</time></trkpt><trkpt lat="43.728178" lon="11.6207007"><ele>877.6666666666667</ele><time>2026-05-03T09:06:09.012Z</time></trkpt><trkpt lat="43.7281321" lon="11.6205531"><ele>874.8333333333334</ele><time>2026-05-03T09:06:11.013Z</time></trkpt><trkpt lat="43.728118" lon="11.6204465"><ele>872.0</ele><time>2026-05-03T09:06:12.013Z</time></trkpt><trkpt lat="43.7280952" lon="11.6203515"><ele>873.5000000000001</ele><time>2026-05-03T09:06:13.013Z</time></trkpt><trkpt lat="43.7280604" lon="11.6202787"><ele>875.0</ele><time>2026-05-03T09:06:14.013Z</time></trkpt><trkpt lat="43.7280223" lon="11.6201506"><ele>876.5</ele><time>2026-05-03T09:06:16.013Z</time></trkpt><trkpt lat="43.7280833" lon="11.6200883"><ele>878.0</ele><time>2026-05-03T09:06:18.013Z</time></trkpt><trkpt lat="43.7281753" lon="11.6200984"><ele>879.5000000000001</ele><time>2026-05-03T09:06:20.012Z</time></trkpt><trkpt lat="43.7282416" lon="11.6201251"><ele>881.0</ele><time>2026-05-03T09:06:21.013Z</time></trkpt><trkpt lat="43.7283098" lon="11.6201628"><ele>881.0000000000001</ele><time>2026-05-03T09:06:22.012Z</time></trkpt><trkpt lat="43.7283948" lon="11.6201886"><ele>881.0</ele><time>2026-05-03T09:06:23.011Z</time></trkpt><trkpt lat="43.7284629" lon="11.6202061"><ele>881.0</ele><time>2026-05-03T09:06:24.012Z</time></trkpt><trkpt lat="43.7285326" lon="11.620204"><ele>881.0</ele><time>2026-05-03T09:06:25.012Z</time></trkpt><trkpt lat="43.7286454" lon="11.6201093"><ele>881.0000000000001</ele><time>2026-05-03T09:06:27.013Z</time></trkpt><trkpt lat="43.7287027" lon="11.6200493"><ele>881.0</ele><time>2026-05-03T09:06:28.013Z</time></trkpt><trkpt lat="43.7287604" lon="11.620004"><ele>878.3333333333334</ele><time>2026-05-03T09:06:29.012Z</time></trkpt><trkpt lat="43.7288233" lon="11.6199887"><ele>875.6666666666667</ele><time>2026-05-03T09:06:30.012Z</time></trkpt><trkpt lat="43.7288992" lon="11.6200029"><ele>873.0</ele><time>2026-05-03T09:06:31.013Z</time></trkpt><trkpt lat="43.7289786" lon="11.6200424"><ele>870.3333333333333</ele><time>2026-05-03T09:06:32.013Z</time></trkpt><trkpt lat="43.7290477" lon="11.620102"><ele>867.6666666666666</ele><time>2026-05-03T09:06:33.013Z</time></trkpt><trkpt lat="43.7291183" lon="11.6201762"><ele>865.0</ele><time>2026-05-03T09:06:34.012Z</time></trkpt><trkpt lat="43.7292025" lon="11.6202386"><ele>865.0</ele><time>2026-05-03T09:06:35.012Z</time></trkpt><trkpt lat="43.7292893" lon="11.6202745"><ele>865.0</ele><time>2026-05-03T09:06:36.012Z</time></trkpt><trkpt lat="43.7293847" lon="11.6203082"><ele>865.0</ele><time>2026-05-03T09:06:37.013Z</time></trkpt><trkpt lat="43.7294687" lon="11.620331"><ele>865.0</ele><time>2026-05-03T09:06:38.013Z</time></trkpt><trkpt lat="43.7295683" lon="11.6203349"><ele>865.0</ele><time>2026-05-03T09:06:39.012Z</time></trkpt><trkpt lat="43.7296605" lon="11.6203447"><ele>865.8333333333333</ele><time>2026-05-03T09:06:40.011Z</time></trkpt><trkpt lat="43.7297499" lon="11.6203599"><ele>866.6666666666666</ele><time>2026-05-03T09:06:41.012Z</time></trkpt><trkpt lat="43.7298377" lon="11.6203912"><ele>867.5</ele><time>2026-05-03T09:06:42.012Z</time></trkpt><trkpt lat="43.7299184" lon="11.6204036"><ele>868.3333333333333</ele><time>2026-05-03T09:06:43.013Z</time></trkpt><trkpt lat="43.7300051" lon="11.6204086"><ele>869.1666666666666</ele><time>2026-05-03T09:06:44.013Z</time></trkpt><trkpt lat="43.7300885" lon="11.6204178"><ele>870.0</ele><time>2026-05-03T09:06:45.011Z</time></trkpt><trkpt lat="43.7301423" lon="11.6202639"><ele>872.2</ele><time>2026-05-03T09:06:47.013Z</time></trkpt><trkpt lat="43.7302567" lon="11.620208"><ele>874.4</ele><time>2026-05-03T09:06:49.013Z</time></trkpt><trkpt lat="43.7303413" lon="11.6202659"><ele>876.5999999999999</ele><time>2026-05-03T09:06:50.013Z</time></trkpt><trkpt lat="43.7304108" lon="11.6203093"><ele>878.8</ele><time>2026-05-03T09:06:51.012Z</time></trkpt><trkpt lat="43.7304731" lon="11.6203774"><ele>881.0</ele><time>2026-05-03T09:06:52.013Z</time></trkpt><trkpt lat="43.7305392" lon="11.620439"><ele>877.3333333333334</ele><time>2026-05-03T09:06:53.013Z</time></trkpt><trkpt lat="43.7306185" lon="11.6204743"><ele>873.6666666666667</ele><time>2026-05-03T09:06:54.013Z</time></trkpt><trkpt lat="43.7306922" lon="11.6204991"><ele>870.0</ele><time>2026-05-03T09:06:55.012Z</time></trkpt><trkpt lat="43.7307563" lon="11.6205405"><ele>866.3333333333333</ele><time>2026-05-03T09:06:56.013Z</time></trkpt><trkpt lat="43.7308155" lon="11.6205898"><ele>862.6666666666666</ele><time>2026-05-03T09:06:57.012Z</time></trkpt><trkpt lat="43.7308751" lon="11.6206535"><ele>859.0</ele><time>2026-05-03T09:06:58.012Z</time></trkpt><trkpt lat="43.7309453" lon="11.6207247"><ele>859.0</ele><time>2026-05-03T09:06:59.012Z</time></trkpt><trkpt lat="43.7310199" lon="11.6207997"><ele>859.0000000000001</ele><time>2026-05-03T09:07:00.013Z</time></trkpt><trkpt lat="43.7311002" lon="11.6208739"><ele>859.0000000000001</ele><time>2026-05-03T09:07:01.011Z</time></trkpt><trkpt lat="43.7311803" lon="11.6209391"><ele>859.0</ele><time>2026-05-03T09:07:02.013Z</time></trkpt><trkpt lat="43.7312595" lon="11.6210057"><ele>859.0</ele><time>2026-05-03T09:07:03.013Z</time></trkpt><trkpt lat="43.7313514" lon="11.6210569"><ele>857.4000000000001</ele><time>2026-05-03T09:07:04.012Z</time></trkpt><trkpt lat="43.7314267" lon="11.6211178"><ele>855.8000000000001</ele><time>2026-05-03T09:07:05.012Z</time></trkpt><trkpt lat="43.7315184" lon="11.621189"><ele>854.2</ele><time>2026-05-03T09:07:06.013Z</time></trkpt><trkpt lat="43.7315861" lon="11.6212297"><ele>852.5999999999999</ele><time>2026-05-03T09:07:07.012Z</time></trkpt><trkpt lat="43.7316748" lon="11.6212858"><ele>851.0</ele><time>2026-05-03T09:07:08.013Z</time></trkpt><trkpt lat="43.7317581" lon="11.6213342"><ele>851.0</ele><time>2026-05-03T09:07:09.012Z</time></trkpt><trkpt lat="43.7318412" lon="11.6213853"><ele>851.0</ele><time>2026-05-03T09:07:10.012Z</time></trkpt><trkpt lat="43.7319234" lon="11.6214522"><ele>851.0</ele><time>2026-05-03T09:07:11.013Z</time></trkpt><trkpt lat="43.7319695" lon="11.6215552"><ele>851.0</ele><time>2026-05-03T09:07:12.013Z</time></trkpt><trkpt lat="43.7320371" lon="11.6216406"><ele>851.0</ele><time>2026-05-03T09:07:13.012Z</time></trkpt><trkpt lat="43.7321116" lon="11.6217335"><ele>853.0</ele><time>2026-05-03T09:07:14.013Z</time></trkpt><trkpt lat="43.7321924" lon="11.6218083"><ele>855.0</ele><time>2026-05-03T09:07:15.013Z</time></trkpt><trkpt lat="43.7322846" lon="11.6218537"><ele>856.9999999999999</ele><time>2026-05-03T09:07:16.013Z</time></trkpt><trkpt lat="43.73237" lon="11.6219056"><ele>859.0</ele><time>2026-05-03T09:07:17.012Z</time></trkpt><trkpt lat="43.7324475" lon="11.6218988"><ele>861.0</ele><time>2026-05-03T09:07:18.013Z</time></trkpt><trkpt lat="43.7325409" lon="11.6219147"><ele>861.0</ele><time>2026-05-03T09:07:19.013Z</time></trkpt><trkpt lat="43.7326583" lon="11.6219431"><ele>860.9999999999999</ele><time>2026-05-03T09:07:20.012Z</time></trkpt><trkpt lat="43.7327526" lon="11.6219745"><ele>860.9999999999999</ele><time>2026-05-03T09:07:21.013Z</time></trkpt><trkpt lat="43.7328335" lon="11.6220207"><ele>861.0</ele><time>2026-05-03T09:07:22.012Z</time></trkpt><trkpt lat="43.7329287" lon="11.6220826"><ele>861.0</ele><time>2026-05-03T09:07:23.013Z</time></trkpt><trkpt lat="43.7330066" lon="11.6221449"><ele>857.4</ele><time>2026-05-03T09:07:24.013Z</time></trkpt><trkpt lat="43.7330907" lon="11.6222196"><ele>853.8</ele><time>2026-05-03T09:07:25.013Z</time></trkpt><trkpt lat="43.7331415" lon="11.6223095"><ele>850.1999999999999</ele><time>2026-05-03T09:07:26.012Z</time></trkpt><trkpt lat="43.7332044" lon="11.6224048"><ele>846.5999999999999</ele><time>2026-05-03T09:07:27.013Z</time></trkpt><trkpt lat="43.73328" lon="11.6224811"><ele>843.0</ele><time>2026-05-03T09:07:28.013Z</time></trkpt><trkpt lat="43.7333337" lon="11.6225859"><ele>843.0</ele><time>2026-05-03T09:07:29.012Z</time></trkpt><trkpt lat="43.7333884" lon="11.6226786"><ele>843.0</ele><time>2026-05-03T09:07:30.013Z</time></trkpt><trkpt lat="43.7334404" lon="11.6227612"><ele>843.0</ele><time>2026-05-03T09:07:31.012Z</time></trkpt><trkpt lat="43.7334805" lon="11.6228369"><ele>843.0</ele><time>2026-05-03T09:07:32.013Z</time></trkpt><trkpt lat="43.733485" lon="11.6230009"><ele>843.0</ele><time>2026-05-03T09:07:34.011Z</time></trkpt><trkpt lat="43.7335056" lon="11.6231059"><ele>843.0</ele><time>2026-05-03T09:07:36.013Z</time></trkpt><trkpt lat="43.7335057" lon="11.6231957"><ele>841.0</ele><time>2026-05-03T09:07:50.013Z</time></trkpt><trkpt lat="43.7335827" lon="11.6231844"><ele>839.0</ele><time>2026-05-03T09:07:53.012Z</time></trkpt><trkpt lat="43.7336578" lon="11.6231275"><ele>837.0</ele><time>2026-05-03T09:07:55.013Z</time></trkpt><trkpt lat="43.7337527" lon="11.6230405"><ele>835.0</ele><time>2026-05-03T09:07:57.013Z</time></trkpt><trkpt lat="43.7338007" lon="11.6229272"><ele>833.0</ele><time>2026-05-03T09:07:59.013Z</time></trkpt><trkpt lat="43.7338269" lon="11.6228441"><ele>831.0</ele><time>2026-05-03T09:08:00.013Z</time></trkpt><trkpt lat="43.7339015" lon="11.6227447"><ele>831.0</ele><time>2026-05-03T09:08:02.012Z</time></trkpt><trkpt lat="43.7340025" lon="11.6227038"><ele>831.0</ele><time>2026-05-03T09:08:04.013Z</time></trkpt><trkpt lat="43.7341067" lon="11.6227235"><ele>831.0</ele><time>2026-05-03T09:08:06.012Z</time></trkpt><trkpt lat="43.7341695" lon="11.6227359"><ele>831.0</ele><time>2026-05-03T09:08:07.012Z</time></trkpt><trkpt lat="43.7342827" lon="11.6227875"><ele>831.0</ele><time>2026-05-03T09:08:09.013Z</time></trkpt><trkpt lat="43.734388" lon="11.6228426"><ele>826.1999999999999</ele><time>2026-05-03T09:08:11.013Z</time></trkpt><trkpt lat="43.7344955" lon="11.6229195"><ele>821.4</ele><time>2026-05-03T09:08:13.013Z</time></trkpt><trkpt lat="43.7345819" lon="11.6229995"><ele>816.6</ele><time>2026-05-03T09:08:15.013Z</time></trkpt><trkpt lat="43.7346832" lon="11.6229682"><ele>811.8</ele><time>2026-05-03T09:08:17.012Z</time></trkpt><trkpt lat="43.73475" lon="11.6229795"><ele>807.0</ele><time>2026-05-03T09:08:18.013Z</time></trkpt><trkpt lat="43.7348165" lon="11.622968"><ele>807.0</ele><time>2026-05-03T09:08:19.012Z</time></trkpt><trkpt lat="43.7348763" lon="11.6229407"><ele>807.0</ele><time>2026-05-03T09:08:20.013Z</time></trkpt><trkpt lat="43.7349524" lon="11.6228176"><ele>807.0</ele><time>2026-05-03T09:08:22.013Z</time></trkpt><trkpt lat="43.7350077" lon="11.6226661"><ele>807.0</ele><time>2026-05-03T09:08:24.012Z</time></trkpt><trkpt lat="43.73503" lon="11.6225823"><ele>807.0</ele><time>2026-05-03T09:08:25.012Z</time></trkpt><trkpt lat="43.7350642" lon="11.6224116"><ele>807.2857142857143</ele><time>2026-05-03T09:08:27.013Z</time></trkpt><trkpt lat="43.7350806" lon="11.6223182"><ele>807.5714285714286</ele><time>2026-05-03T09:08:28.013Z</time></trkpt><trkpt lat="43.7350992" lon="11.6222233"><ele>807.8571428571429</ele><time>2026-05-03T09:08:29.011Z</time></trkpt><trkpt lat="43.7351303" lon="11.6221307"><ele>808.1428571428571</ele><time>2026-05-03T09:08:30.013Z</time></trkpt><trkpt lat="43.7351729" lon="11.6220447"><ele>808.4285714285714</ele><time>2026-05-03T09:08:31.013Z</time></trkpt><trkpt lat="43.7352215" lon="11.6219568"><ele>808.7142857142858</ele><time>2026-05-03T09:08:32.012Z</time></trkpt><trkpt lat="43.735265" lon="11.6218659"><ele>809.0</ele><time>2026-05-03T09:08:33.012Z</time></trkpt><trkpt lat="43.73531" lon="11.6217752"><ele>806.8000000000001</ele><time>2026-05-03T09:08:34.012Z</time></trkpt><trkpt lat="43.7353586" lon="11.6216833"><ele>804.6</ele><time>2026-05-03T09:08:35.013Z</time></trkpt><trkpt lat="43.735405" lon="11.6215886"><ele>802.4</ele><time>2026-05-03T09:08:36.012Z</time></trkpt><trkpt lat="43.7354536" lon="11.6214825"><ele>800.2</ele><time>2026-05-03T09:08:37.013Z</time></trkpt><trkpt lat="43.7355017" lon="11.6213592"><ele>798.0</ele><time>2026-05-03T09:08:38.012Z</time></trkpt><trkpt lat="43.7355446" lon="11.6212266"><ele>797.4</ele><time>2026-05-03T09:08:39.013Z</time></trkpt><trkpt lat="43.7355866" lon="11.6210836"><ele>796.8</ele><time>2026-05-03T09:08:40.012Z</time></trkpt><trkpt lat="43.7356234" lon="11.6209395"><ele>796.2</ele><time>2026-05-03T09:08:41.012Z</time></trkpt><trkpt lat="43.735658" lon="11.6207992"><ele>795.6</ele><time>2026-05-03T09:08:42.012Z</time></trkpt><trkpt lat="43.7356897" lon="11.6206593"><ele>795.0</ele><time>2026-05-03T09:08:43.012Z</time></trkpt><trkpt lat="43.7357213" lon="11.6205239"><ele>795.0</ele><time>2026-05-03T09:08:44.013Z</time></trkpt><trkpt lat="43.7357545" lon="11.6203904"><ele>795.0</ele><time>2026-05-03T09:08:45.013Z</time></trkpt><trkpt lat="43.7357873" lon="11.6202619"><ele>795.0</ele><time>2026-05-03T09:08:46.012Z</time></trkpt><trkpt lat="43.7358172" lon="11.6201454"><ele>795.0</ele><time>2026-05-03T09:08:47.012Z</time></trkpt><trkpt lat="43.7358472" lon="11.6200384"><ele>795.0</ele><time>2026-05-03T09:08:48.013Z</time></trkpt><trkpt lat="43.7358913" lon="11.6199463"><ele>795.5</ele><time>2026-05-03T09:08:49.013Z</time></trkpt><trkpt lat="43.7359478" lon="11.6198911"><ele>796.0</ele><time>2026-05-03T09:08:50.013Z</time></trkpt><trkpt lat="43.7360359" lon="11.6199052"><ele>796.5</ele><time>2026-05-03T09:08:52.013Z</time></trkpt><trkpt lat="43.7360914" lon="11.6199565"><ele>797.0</ele><time>2026-05-03T09:08:54.011Z</time></trkpt><trkpt lat="43.7361462" lon="11.6200128"><ele>797.5</ele><time>2026-05-03T09:08:56.012Z</time></trkpt><trkpt lat="43.7362477" lon="11.6200871"><ele>798.0</ele><time>2026-05-03T09:08:58.012Z</time></trkpt><trkpt lat="43.7363073" lon="11.6201325"><ele>797.1428571428571</ele><time>2026-05-03T09:08:59.012Z</time></trkpt><trkpt lat="43.7363648" lon="11.6201729"><ele>796.2857142857142</ele><time>2026-05-03T09:09:00.012Z</time></trkpt><trkpt lat="43.7364225" lon="11.620217"><ele>795.4285714285714</ele><time>2026-05-03T09:09:01.013Z</time></trkpt><trkpt lat="43.7364765" lon="11.6202623"><ele>794.5714285714286</ele><time>2026-05-03T09:09:02.013Z</time></trkpt><trkpt lat="43.7365333" lon="11.6203022"><ele>793.7142857142857</ele><time>2026-05-03T09:09:03.012Z</time></trkpt><trkpt lat="43.736643" lon="11.620355"><ele>792.8571428571429</ele><time>2026-05-03T09:09:05.012Z</time></trkpt><trkpt lat="43.7367066" lon="11.6203477"><ele>792.0</ele><time>2026-05-03T09:09:06.013Z</time></trkpt><trkpt lat="43.7367731" lon="11.620317"><ele>792.0</ele><time>2026-05-03T09:09:07.012Z</time></trkpt><trkpt lat="43.7368427" lon="11.6202693"><ele>792.0</ele><time>2026-05-03T09:09:08.012Z</time></trkpt><trkpt lat="43.7369128" lon="11.6202112"><ele>792.0</ele><time>2026-05-03T09:09:09.012Z</time></trkpt><trkpt lat="43.7369839" lon="11.6201594"><ele>792.0</ele><time>2026-05-03T09:09:10.012Z</time></trkpt><trkpt lat="43.7370583" lon="11.6201207"><ele>792.0</ele><time>2026-05-03T09:09:11.011Z</time></trkpt><trkpt lat="43.7371325" lon="11.6201068"><ele>792.0</ele><time>2026-05-03T09:09:12.013Z</time></trkpt><trkpt lat="43.737196" lon="11.6201316"><ele>790.3333333333334</ele><time>2026-05-03T09:09:13.013Z</time></trkpt><trkpt lat="43.7372553" lon="11.6201914"><ele>788.6666666666667</ele><time>2026-05-03T09:09:14.013Z</time></trkpt><trkpt lat="43.737311" lon="11.6202654"><ele>787.0</ele><time>2026-05-03T09:09:15.013Z</time></trkpt><trkpt lat="43.7373567" lon="11.6203484"><ele>785.3333333333334</ele><time>2026-05-03T09:09:16.011Z</time></trkpt><trkpt lat="43.7373885" lon="11.6204495"><ele>783.6666666666667</ele><time>2026-05-03T09:09:17.013Z</time></trkpt><trkpt lat="43.7374006" lon="11.6205668"><ele>782.0</ele><time>2026-05-03T09:09:18.013Z</time></trkpt><trkpt lat="43.7374032" lon="11.6206906"><ele>781.6666666666667</ele><time>2026-05-03T09:09:19.012Z</time></trkpt><trkpt lat="43.7373966" lon="11.6208049"><ele>781.3333333333334</ele><time>2026-05-03T09:09:20.012Z</time></trkpt><trkpt lat="43.7373782" lon="11.6209099"><ele>781.0</ele><time>2026-05-03T09:09:21.013Z</time></trkpt><trkpt lat="43.7373392" lon="11.6209929"><ele>780.6666666666667</ele><time>2026-05-03T09:09:22.012Z</time></trkpt><trkpt lat="43.7372947" lon="11.6210712"><ele>780.3333333333334</ele><time>2026-05-03T09:09:23.013Z</time></trkpt><trkpt lat="43.737277" lon="11.6212325"><ele>780.0</ele><time>2026-05-03T09:09:25.013Z</time></trkpt><trkpt lat="43.7373202" lon="11.6212984"><ele>780.0</ele><time>2026-05-03T09:09:26.011Z</time></trkpt><trkpt lat="43.7374392" lon="11.6212911"><ele>780.0</ele><time>2026-05-03T09:09:28.013Z</time></trkpt><trkpt lat="43.737502" lon="11.6212589"><ele>780.0</ele><time>2026-05-03T09:09:29.013Z</time></trkpt><trkpt lat="43.7375413" lon="11.6211337"><ele>780.0</ele><time>2026-05-03T09:09:30.013Z</time></trkpt><trkpt lat="43.7375952" lon="11.6210448"><ele>780.0</ele><time>2026-05-03T09:09:31.013Z</time></trkpt><trkpt lat="43.7376461" lon="11.6209344"><ele>780.0</ele><time>2026-05-03T09:09:32.012Z</time></trkpt><trkpt lat="43.7377056" lon="11.6208295"><ele>780.0</ele><time>2026-05-03T09:09:33.013Z</time></trkpt><trkpt lat="43.7377716" lon="11.6207334"><ele>780.0</ele><time>2026-05-03T09:09:34.013Z</time></trkpt><trkpt lat="43.7378456" lon="11.6206169"><ele>780.0</ele><time>2026-05-03T09:09:35.013Z</time></trkpt><trkpt lat="43.7379075" lon="11.620499"><ele>780.0</ele><time>2026-05-03T09:09:36.012Z</time></trkpt><trkpt lat="43.7379758" lon="11.6203837"><ele>776.6666666666666</ele><time>2026-05-03T09:09:37.013Z</time></trkpt><trkpt lat="43.7380363" lon="11.6202699"><ele>773.3333333333334</ele><time>2026-05-03T09:09:38.013Z</time></trkpt><trkpt lat="43.7380901" lon="11.620158"><ele>770.0</ele><time>2026-05-03T09:09:39.013Z</time></trkpt><trkpt lat="43.7381383" lon="11.6200485"><ele>766.6666666666667</ele><time>2026-05-03T09:09:40.013Z</time></trkpt><trkpt lat="43.7381742" lon="11.6199508"><ele>763.3333333333334</ele><time>2026-05-03T09:09:41.012Z</time></trkpt><trkpt lat="43.7382016" lon="11.6198531"><ele>760.0</ele><time>2026-05-03T09:09:42.013Z</time></trkpt><trkpt lat="43.7382419" lon="11.6197645"><ele>760.0</ele><time>2026-05-03T09:09:43.013Z</time></trkpt><trkpt lat="43.7382913" lon="11.6196858"><ele>760.0</ele><time>2026-05-03T09:09:44.012Z</time></trkpt><trkpt lat="43.7383562" lon="11.6196301"><ele>760.0</ele><time>2026-05-03T09:09:45.013Z</time></trkpt><trkpt lat="43.7384358" lon="11.6195977"><ele>760.0</ele><time>2026-05-03T09:09:46.013Z</time></trkpt><trkpt lat="43.738525" lon="11.6195867"><ele>760.0</ele><time>2026-05-03T09:09:47.013Z</time></trkpt><trkpt lat="43.7386274" lon="11.6195731"><ele>760.0</ele><time>2026-05-03T09:09:48.013Z</time></trkpt><trkpt lat="43.7387202" lon="11.6195634"><ele>757.8333333333334</ele><time>2026-05-03T09:09:49.013Z</time></trkpt><trkpt lat="43.7388068" lon="11.6195441"><ele>755.6666666666667</ele><time>2026-05-03T09:09:50.013Z</time></trkpt><trkpt lat="43.7388844" lon="11.6195088"><ele>753.5</ele><time>2026-05-03T09:09:51.012Z</time></trkpt><trkpt lat="43.7389459" lon="11.6194485"><ele>751.3333333333334</ele><time>2026-05-03T09:09:52.013Z</time></trkpt><trkpt lat="43.738983" lon="11.6193643"><ele>749.1666666666666</ele><time>2026-05-03T09:09:53.013Z</time></trkpt><trkpt lat="43.7389996" lon="11.6192658"><ele>747.0</ele><time>2026-05-03T09:09:54.012Z</time></trkpt><trkpt lat="43.7390038" lon="11.6191443"><ele>747.0</ele><time>2026-05-03T09:09:55.013Z</time></trkpt><trkpt lat="43.7390045" lon="11.6190066"><ele>747.0</ele><time>2026-05-03T09:09:56.012Z</time></trkpt><trkpt lat="43.7390225" lon="11.6188625"><ele>747.0</ele><time>2026-05-03T09:09:57.013Z</time></trkpt><trkpt lat="43.7390544" lon="11.6187377"><ele>747.0</ele><time>2026-05-03T09:09:58.012Z</time></trkpt><trkpt lat="43.7390874" lon="11.61863"><ele>747.0</ele><time>2026-05-03T09:09:59.011Z</time></trkpt><trkpt lat="43.7391227" lon="11.6185452"><ele>747.0</ele><time>2026-05-03T09:10:00.011Z</time></trkpt><trkpt lat="43.7392041" lon="11.6185021"><ele>747.0</ele><time>2026-05-03T09:10:02.011Z</time></trkpt><trkpt lat="43.7392299" lon="11.6186086"><ele>747.0</ele><time>2026-05-03T09:10:04.012Z</time></trkpt><trkpt lat="43.739204" lon="11.6187344"><ele>747.0</ele><time>2026-05-03T09:10:06.012Z</time></trkpt><trkpt lat="43.7392326" lon="11.6188177"><ele>747.0</ele><time>2026-05-03T09:10:08.013Z</time></trkpt><trkpt lat="43.7393218" lon="11.6188121"><ele>747.0</ele><time>2026-05-03T09:10:11.012Z</time></trkpt><trkpt lat="43.7394322" lon="11.6188255"><ele>749.2</ele><time>2026-05-03T09:10:13.013Z</time></trkpt><trkpt lat="43.7395396" lon="11.6189203"><ele>751.4000000000001</ele><time>2026-05-03T09:10:15.013Z</time></trkpt><trkpt lat="43.7395816" lon="11.6190062"><ele>753.5999999999999</ele><time>2026-05-03T09:10:16.013Z</time></trkpt><trkpt lat="43.7396183" lon="11.6191135"><ele>755.8</ele><time>2026-05-03T09:10:17.012Z</time></trkpt><trkpt lat="43.739655" lon="11.6192354"><ele>758.0</ele><time>2026-05-03T09:10:18.012Z</time></trkpt><trkpt lat="43.7396935" lon="11.6193562"><ele>758.0</ele><time>2026-05-03T09:10:19.012Z</time></trkpt><trkpt lat="43.7397337" lon="11.619475"><ele>758.0</ele><time>2026-05-03T09:10:20.013Z</time></trkpt><trkpt lat="43.7397666" lon="11.6195966"><ele>758.0</ele><time>2026-05-03T09:10:21.013Z</time></trkpt><trkpt lat="43.7397975" lon="11.6197208"><ele>758.0</ele><time>2026-05-03T09:10:22.012Z</time></trkpt><trkpt lat="43.7398312" lon="11.6198406"><ele>758.0</ele><time>2026-05-03T09:10:23.013Z</time></trkpt><trkpt lat="43.7398624" lon="11.6199472"><ele>756.5714285714287</ele><time>2026-05-03T09:10:24.013Z</time></trkpt><trkpt lat="43.7399024" lon="11.6200421"><ele>755.1428571428571</ele><time>2026-05-03T09:10:25.012Z</time></trkpt><trkpt lat="43.7399624" lon="11.6201095"><ele>753.7142857142858</ele><time>2026-05-03T09:10:26.013Z</time></trkpt><trkpt lat="43.7400221" lon="11.6201482"><ele>752.2857142857143</ele><time>2026-05-03T09:10:27.013Z</time></trkpt><trkpt lat="43.7400923" lon="11.6201174"><ele>750.8571428571429</ele><time>2026-05-03T09:10:28.013Z</time></trkpt><trkpt lat="43.7401594" lon="11.6200793"><ele>749.4285714285714</ele><time>2026-05-03T09:10:29.013Z</time></trkpt><trkpt lat="43.7402375" lon="11.6200748"><ele>748.0</ele><time>2026-05-03T09:10:30.012Z</time></trkpt><trkpt lat="43.7402913" lon="11.6201274"><ele>751.4</ele><time>2026-05-03T09:10:31.012Z</time></trkpt><trkpt lat="43.7403357" lon="11.6202045"><ele>754.8</ele><time>2026-05-03T09:10:32.013Z</time></trkpt><trkpt lat="43.7403797" lon="11.6203035"><ele>758.2</ele><time>2026-05-03T09:10:33.013Z</time></trkpt><trkpt lat="43.7404286" lon="11.6204186"><ele>761.6</ele><time>2026-05-03T09:10:34.013Z</time></trkpt><trkpt lat="43.7404832" lon="11.6205523"><ele>765.0</ele><time>2026-05-03T09:10:35.012Z</time></trkpt><trkpt lat="43.7405404" lon="11.6206823"><ele>765.0</ele><time>2026-05-03T09:10:36.013Z</time></trkpt><trkpt lat="43.7406007" lon="11.6208214"><ele>765.0</ele><time>2026-05-03T09:10:37.013Z</time></trkpt><trkpt lat="43.7406691" lon="11.6209639"><ele>765.0</ele><time>2026-05-03T09:10:38.012Z</time></trkpt><trkpt lat="43.7407419" lon="11.6211163"><ele>765.0</ele><time>2026-05-03T09:10:39.012Z</time></trkpt><trkpt lat="43.7408094" lon="11.6212508"><ele>767.4</ele><time>2026-05-03T09:10:40.013Z</time></trkpt><trkpt lat="43.7408789" lon="11.6213627"><ele>769.8</ele><time>2026-05-03T09:10:41.012Z</time></trkpt><trkpt lat="43.7409642" lon="11.621454"><ele>772.2</ele><time>2026-05-03T09:10:42.012Z</time></trkpt><trkpt lat="43.7410599" lon="11.6215217"><ele>774.6</ele><time>2026-05-03T09:10:43.012Z</time></trkpt><trkpt lat="43.7411645" lon="11.6215558"><ele>777.0</ele><time>2026-05-03T09:10:44.012Z</time></trkpt><trkpt lat="43.7412825" lon="11.621585"><ele>777.0</ele><time>2026-05-03T09:10:45.011Z</time></trkpt><trkpt lat="43.7413906" lon="11.6216171"><ele>777.0</ele><time>2026-05-03T09:10:46.012Z</time></trkpt><trkpt lat="43.7414898" lon="11.6216363"><ele>777.0</ele><time>2026-05-03T09:10:47.012Z</time></trkpt><trkpt lat="43.7415413" lon="11.6217441"><ele>777.0</ele><time>2026-05-03T09:10:48.013Z</time></trkpt><trkpt lat="43.7415842" lon="11.6218411"><ele>777.0</ele><time>2026-05-03T09:10:49.012Z</time></trkpt><trkpt lat="43.7415949" lon="11.6219699"><ele>774.6</ele><time>2026-05-03T09:10:50.012Z</time></trkpt><trkpt lat="43.7415987" lon="11.6221147"><ele>772.2</ele><time>2026-05-03T09:10:51.011Z</time></trkpt><trkpt lat="43.7415995" lon="11.6222632"><ele>769.8</ele><time>2026-05-03T09:10:52.012Z</time></trkpt><trkpt lat="43.7416179" lon="11.6224108"><ele>767.4</ele><time>2026-05-03T09:10:53.013Z</time></trkpt><trkpt lat="43.7416725" lon="11.6225423"><ele>765.0</ele><time>2026-05-03T09:10:54.013Z</time></trkpt><trkpt lat="43.7417544" lon="11.622651"><ele>765.0</ele><time>2026-05-03T09:10:55.012Z</time></trkpt><trkpt lat="43.7418585" lon="11.6227631"><ele>765.0</ele><time>2026-05-03T09:10:56.012Z</time></trkpt><trkpt lat="43.7419688" lon="11.6229069"><ele>765.0</ele><time>2026-05-03T09:10:57.012Z</time></trkpt><trkpt lat="43.7420821" lon="11.6230744"><ele>765.0</ele><time>2026-05-03T09:10:58.013Z</time></trkpt><trkpt lat="43.7421942" lon="11.6232465"><ele>764.6666666666666</ele><time>2026-05-03T09:10:59.012Z</time></trkpt><trkpt lat="43.7423099" lon="11.6234081"><ele>764.3333333333333</ele><time>2026-05-03T09:11:00.013Z</time></trkpt><trkpt lat="43.7424273" lon="11.6235695"><ele>764.0</ele><time>2026-05-03T09:11:01.012Z</time></trkpt><trkpt lat="43.7425521" lon="11.6237261"><ele>764.0</ele><time>2026-05-03T09:11:02.012Z</time></trkpt><trkpt lat="43.7426778" lon="11.6238784"><ele>764.0</ele><time>2026-05-03T09:11:03.013Z</time></trkpt><trkpt lat="43.7427968" lon="11.624016"><ele>764.0</ele><time>2026-05-03T09:11:04.012Z</time></trkpt><trkpt lat="43.7428973" lon="11.6241364"><ele>769.4000000000001</ele><time>2026-05-03T09:11:05.013Z</time></trkpt><trkpt lat="43.74299" lon="11.624245"><ele>774.8</ele><time>2026-05-03T09:11:06.012Z</time></trkpt><trkpt lat="43.7430673" lon="11.6243553"><ele>780.2</ele><time>2026-05-03T09:11:07.012Z</time></trkpt><trkpt lat="43.7431214" lon="11.6244845"><ele>785.5999999999999</ele><time>2026-05-03T09:11:08.013Z</time></trkpt><trkpt lat="43.7431433" lon="11.6246196"><ele>791.0</ele><time>2026-05-03T09:11:09.013Z</time></trkpt><trkpt lat="43.7431303" lon="11.624763"><ele>791.0</ele><time>2026-05-03T09:11:10.013Z</time></trkpt><trkpt lat="43.7430852" lon="11.6249303"><ele>791.0</ele><time>2026-05-03T09:11:11.013Z</time></trkpt><trkpt lat="43.7430355" lon="11.6251115"><ele>791.0</ele><time>2026-05-03T09:11:12.013Z</time></trkpt><trkpt lat="43.7429881" lon="11.6252716"><ele>791.0</ele><time>2026-05-03T09:11:13.011Z</time></trkpt><trkpt lat="43.742945" lon="11.6254419"><ele>791.5999999999999</ele><time>2026-05-03T09:11:14.012Z</time></trkpt><trkpt lat="43.7429168" lon="11.625597"><ele>792.2</ele><time>2026-05-03T09:11:15.012Z</time></trkpt><trkpt lat="43.7429145" lon="11.6257415"><ele>792.8</ele><time>2026-05-03T09:11:16.012Z</time></trkpt><trkpt lat="43.7429411" lon="11.6258673"><ele>793.4000000000001</ele><time>2026-05-03T09:11:17.012Z</time></trkpt><trkpt lat="43.7429967" lon="11.6259647"><ele>794.0</ele><time>2026-05-03T09:11:18.012Z</time></trkpt><trkpt lat="43.7430752" lon="11.6260174"><ele>794.0000000000001</ele><time>2026-05-03T09:11:19.013Z</time></trkpt><trkpt lat="43.7431638" lon="11.6260304"><ele>794.0</ele><time>2026-05-03T09:11:20.011Z</time></trkpt><trkpt lat="43.7432396" lon="11.6259993"><ele>794.0</ele><time>2026-05-03T09:11:21.013Z</time></trkpt><trkpt lat="43.7433032" lon="11.6259196"><ele>794.0</ele><time>2026-05-03T09:11:22.013Z</time></trkpt><trkpt lat="43.743342" lon="11.625803"><ele>794.0000000000001</ele><time>2026-05-03T09:11:23.013Z</time></trkpt><trkpt lat="43.7433639" lon="11.6256658"><ele>794.0</ele><time>2026-05-03T09:11:24.012Z</time></trkpt><trkpt lat="43.7433744" lon="11.6255165"><ele>794.0</ele><time>2026-05-03T09:11:25.013Z</time></trkpt><trkpt lat="43.7433846" lon="11.6253643"><ele>794.0</ele><time>2026-05-03T09:11:26.012Z</time></trkpt><trkpt lat="43.743391" lon="11.6252146"><ele>794.0</ele><time>2026-05-03T09:11:27.012Z</time></trkpt><trkpt lat="43.7433999" lon="11.625068"><ele>794.0</ele><time>2026-05-03T09:11:28.013Z</time></trkpt><trkpt lat="43.7434103" lon="11.6249219"><ele>794.0</ele><time>2026-05-03T09:11:29.012Z</time></trkpt><trkpt lat="43.7434181" lon="11.6247866"><ele>793.5000000000001</ele><time>2026-05-03T09:11:30.013Z</time></trkpt><trkpt lat="43.7434333" lon="11.6246549"><ele>793.0</ele><time>2026-05-03T09:11:31.011Z</time></trkpt><trkpt lat="43.7434645" lon="11.624538"><ele>792.5</ele><time>2026-05-03T09:11:32.012Z</time></trkpt><trkpt lat="43.7435096" lon="11.6244351"><ele>792.0</ele><time>2026-05-03T09:11:33.011Z</time></trkpt><trkpt lat="43.7435728" lon="11.6243498"><ele>791.5000000000001</ele><time>2026-05-03T09:11:34.013Z</time></trkpt><trkpt lat="43.7436493" lon="11.6243053"><ele>791.0</ele><time>2026-05-03T09:11:35.013Z</time></trkpt><trkpt lat="43.7437333" lon="11.6243081"><ele>796.0</ele><time>2026-05-03T09:11:36.013Z</time></trkpt><trkpt lat="43.7438117" lon="11.6243606"><ele>801.0</ele><time>2026-05-03T09:11:37.013Z</time></trkpt><trkpt lat="43.743873" lon="11.6244556"><ele>806.0</ele><time>2026-05-03T09:11:38.013Z</time></trkpt><trkpt lat="43.7439075" lon="11.6245849"><ele>811.0</ele><time>2026-05-03T09:11:39.013Z</time></trkpt><trkpt lat="43.7439054" lon="11.6247256"><ele>816.0</ele><time>2026-05-03T09:11:40.012Z</time></trkpt><trkpt lat="43.7438748" lon="11.6248703"><ele>816.0</ele><time>2026-05-03T09:11:41.013Z</time></trkpt><trkpt lat="43.7438374" lon="11.6250194"><ele>816.0</ele><time>2026-05-03T09:11:42.012Z</time></trkpt><trkpt lat="43.7437995" lon="11.6251637"><ele>816.0</ele><time>2026-05-03T09:11:43.013Z</time></trkpt><trkpt lat="43.7437658" lon="11.6253107"><ele>816.0</ele><time>2026-05-03T09:11:44.013Z</time></trkpt><trkpt lat="43.7437419" lon="11.6254579"><ele>816.0</ele><time>2026-05-03T09:11:45.013Z</time></trkpt><trkpt lat="43.7437214" lon="11.6256024"><ele>816.0</ele><time>2026-05-03T09:11:46.013Z</time></trkpt><trkpt lat="43.7437014" lon="11.625745"><ele>816.0</ele><time>2026-05-03T09:11:47.013Z</time></trkpt><trkpt lat="43.7436875" lon="11.6258889"><ele>816.0</ele><time>2026-05-03T09:11:48.012Z</time></trkpt><trkpt lat="43.7436759" lon="11.6260364"><ele>816.0</ele><time>2026-05-03T09:11:49.013Z</time></trkpt><trkpt lat="43.7436637" lon="11.6261845"><ele>816.0</ele><time>2026-05-03T09:11:50.013Z</time></trkpt><trkpt lat="43.7436531" lon="11.6263268"><ele>815.5</ele><time>2026-05-03T09:11:51.013Z</time></trkpt><trkpt lat="43.7436389" lon="11.6264455"><ele>815.0</ele><time>2026-05-03T09:11:52.012Z</time></trkpt><trkpt lat="43.7436282" lon="11.6265466"><ele>814.5</ele><time>2026-05-03T09:11:53.013Z</time></trkpt><trkpt lat="43.7436215" lon="11.6266964"><ele>814.0</ele><time>2026-05-03T09:11:55.011Z</time></trkpt><trkpt lat="43.7436256" lon="11.6267844"><ele>813.5</ele><time>2026-05-03T09:11:57.013Z</time></trkpt><trkpt lat="43.7436878" lon="11.626841"><ele>813.0</ele><time>2026-05-03T09:12:00.012Z</time></trkpt><trkpt lat="43.7437442" lon="11.6267673"><ele>813.0</ele><time>2026-05-03T09:12:02.013Z</time></trkpt><trkpt lat="43.7437695" lon="11.6266826"><ele>813.0</ele><time>2026-05-03T09:12:03.013Z</time></trkpt><trkpt lat="43.7438032" lon="11.6265939"><ele>813.0</ele><time>2026-05-03T09:12:04.012Z</time></trkpt><trkpt lat="43.7438435" lon="11.6264932"><ele>813.0</ele><time>2026-05-03T09:12:05.012Z</time></trkpt><trkpt lat="43.7438885" lon="11.6263861"><ele>813.0</ele><time>2026-05-03T09:12:06.013Z</time></trkpt><trkpt lat="43.743933" lon="11.6262783"><ele>813.0</ele><time>2026-05-03T09:12:07.012Z</time></trkpt><trkpt lat="43.7439816" lon="11.6261693"><ele>813.5999999999999</ele><time>2026-05-03T09:12:08.013Z</time></trkpt><trkpt lat="43.7440346" lon="11.6260542"><ele>814.1999999999999</ele><time>2026-05-03T09:12:09.011Z</time></trkpt><trkpt lat="43.7440886" lon="11.6259375"><ele>814.8</ele><time>2026-05-03T09:12:10.012Z</time></trkpt><trkpt lat="43.7441395" lon="11.6258326"><ele>815.4</ele><time>2026-05-03T09:12:11.013Z</time></trkpt><trkpt lat="43.7442048" lon="11.6257125"><ele>816.0</ele><time>2026-05-03T09:12:12.013Z</time></trkpt><trkpt lat="43.7442512" lon="11.6255907"><ele>816.0</ele><time>2026-05-03T09:12:13.013Z</time></trkpt><trkpt lat="43.7442963" lon="11.6254829"><ele>816.0</ele><time>2026-05-03T09:12:14.012Z</time></trkpt><trkpt lat="43.7443302" lon="11.625392"><ele>816.0</ele><time>2026-05-03T09:12:15.012Z</time></trkpt><trkpt lat="43.744379" lon="11.6252541"><ele>816.0</ele><time>2026-05-03T09:12:17.012Z</time></trkpt><trkpt lat="43.7444191" lon="11.6251259"><ele>816.0</ele><time>2026-05-03T09:12:19.013Z</time></trkpt><trkpt lat="43.7444692" lon="11.6249575"><ele>816.0</ele><time>2026-05-03T09:12:21.013Z</time></trkpt><trkpt lat="43.7444831" lon="11.6248517"><ele>816.0</ele><time>2026-05-03T09:12:22.012Z</time></trkpt><trkpt lat="43.7444702" lon="11.6247355"><ele>816.0</ele><time>2026-05-03T09:12:23.013Z</time></trkpt><trkpt lat="43.744431" lon="11.6246151"><ele>816.0</ele><time>2026-05-03T09:12:24.012Z</time></trkpt><trkpt lat="43.7443796" lon="11.6244856"><ele>816.0</ele><time>2026-05-03T09:12:25.013Z</time></trkpt><trkpt lat="43.744313" lon="11.6243421"><ele>820.0</ele><time>2026-05-03T09:12:26.013Z</time></trkpt><trkpt lat="43.7442345" lon="11.6242164"><ele>824.0</ele><time>2026-05-03T09:12:27.012Z</time></trkpt><trkpt lat="43.7441424" lon="11.6241101"><ele>828.0</ele><time>2026-05-03T09:12:28.012Z</time></trkpt><trkpt lat="43.7440448" lon="11.6240093"><ele>832.0</ele><time>2026-05-03T09:12:29.012Z</time></trkpt><trkpt lat="43.7439667" lon="11.6238869"><ele>832.0</ele><time>2026-05-03T09:12:30.012Z</time></trkpt><trkpt lat="43.7438971" lon="11.6237117"><ele>832.0</ele><time>2026-05-03T09:12:31.013Z</time></trkpt><trkpt lat="43.7438338" lon="11.6235129"><ele>832.0</ele><time>2026-05-03T09:12:32.013Z</time></trkpt><trkpt lat="43.7437952" lon="11.6233308"><ele>832.0</ele><time>2026-05-03T09:12:33.013Z</time></trkpt><trkpt lat="43.7437551" lon="11.6231631"><ele>836.5</ele><time>2026-05-03T09:12:34.013Z</time></trkpt><trkpt lat="43.7437279" lon="11.6229919"><ele>841.0</ele><time>2026-05-03T09:12:35.011Z</time></trkpt><trkpt lat="43.7437079" lon="11.6228142"><ele>845.5</ele><time>2026-05-03T09:12:36.013Z</time></trkpt><trkpt lat="43.7436932" lon="11.6226431"><ele>850.0</ele><time>2026-05-03T09:12:37.013Z</time></trkpt><trkpt lat="43.7436529" lon="11.6224829"><ele>851.8</ele><time>2026-05-03T09:12:38.013Z</time></trkpt><trkpt lat="43.743593" lon="11.6223429"><ele>853.6</ele><time>2026-05-03T09:12:39.012Z</time></trkpt><trkpt lat="43.7435118" lon="11.6222299"><ele>855.4000000000001</ele><time>2026-05-03T09:12:40.013Z</time></trkpt><trkpt lat="43.7434214" lon="11.622142"><ele>857.2</ele><time>2026-05-03T09:12:41.011Z</time></trkpt><trkpt lat="43.7433294" lon="11.6220719"><ele>859.0</ele><time>2026-05-03T09:12:42.013Z</time></trkpt><trkpt lat="43.7432432" lon="11.6220075"><ele>856.6666666666666</ele><time>2026-05-03T09:12:43.013Z</time></trkpt><trkpt lat="43.7431727" lon="11.6219416"><ele>854.3333333333333</ele><time>2026-05-03T09:12:44.012Z</time></trkpt><trkpt lat="43.7431277" lon="11.621865"><ele>852.0</ele><time>2026-05-03T09:12:45.012Z</time></trkpt><trkpt lat="43.7431069" lon="11.6217694"><ele>849.6666666666667</ele><time>2026-05-03T09:12:46.012Z</time></trkpt><trkpt lat="43.7431114" lon="11.6216644"><ele>847.3333333333334</ele><time>2026-05-03T09:12:47.013Z</time></trkpt><trkpt lat="43.7431315" lon="11.6215605"><ele>845.0</ele><time>2026-05-03T09:12:48.012Z</time></trkpt><trkpt lat="43.7431584" lon="11.6214536"><ele>845.0000000000001</ele><time>2026-05-03T09:12:49.013Z</time></trkpt><trkpt lat="43.7431928" lon="11.6213519"><ele>845.0</ele><time>2026-05-03T09:12:50.013Z</time></trkpt><trkpt lat="43.7432447" lon="11.6212594"><ele>845.0</ele><time>2026-05-03T09:12:51.013Z</time></trkpt><trkpt lat="43.7433081" lon="11.6211837"><ele>845.0</ele><time>2026-05-03T09:12:52.012Z</time></trkpt><trkpt lat="43.7433751" lon="11.6211167"><ele>845.0000000000001</ele><time>2026-05-03T09:12:53.012Z</time></trkpt><trkpt lat="43.7434476" lon="11.6210434"><ele>845.0</ele><time>2026-05-03T09:12:54.013Z</time></trkpt><trkpt lat="43.7435065" lon="11.620962"><ele>845.3333333333334</ele><time>2026-05-03T09:12:55.011Z</time></trkpt><trkpt lat="43.7435412" lon="11.6208682"><ele>845.6666666666667</ele><time>2026-05-03T09:12:56.013Z</time></trkpt><trkpt lat="43.7435551" lon="11.620768"><ele>846.0</ele><time>2026-05-03T09:12:57.013Z</time></trkpt><trkpt lat="43.7435471" lon="11.6206637"><ele>846.3333333333333</ele><time>2026-05-03T09:12:58.013Z</time></trkpt><trkpt lat="43.7435207" lon="11.6205647"><ele>846.6666666666666</ele><time>2026-05-03T09:12:59.013Z</time></trkpt><trkpt lat="43.74349" lon="11.6204663"><ele>847.0</ele><time>2026-05-03T09:13:00.012Z</time></trkpt><trkpt lat="43.7434647" lon="11.6203602"><ele>848.9999999999999</ele><time>2026-05-03T09:13:01.012Z</time></trkpt><trkpt lat="43.7434614" lon="11.6202481"><ele>851.0</ele><time>2026-05-03T09:13:02.013Z</time></trkpt><trkpt lat="43.743457" lon="11.6201281"><ele>853.0</ele><time>2026-05-03T09:13:03.013Z</time></trkpt><trkpt lat="43.7434474" lon="11.6200075"><ele>855.0</ele><time>2026-05-03T09:13:04.012Z</time></trkpt><trkpt lat="43.7434396" lon="11.6198846"><ele>856.9999999999999</ele><time>2026-05-03T09:13:05.012Z</time></trkpt><trkpt lat="43.7434272" lon="11.619775"><ele>859.0</ele><time>2026-05-03T09:13:06.013Z</time></trkpt><trkpt lat="43.7434152" lon="11.6196749"><ele>858.9999999999999</ele><time>2026-05-03T09:13:07.013Z</time></trkpt><trkpt lat="43.7433892" lon="11.6195871"><ele>859.0</ele><time>2026-05-03T09:13:08.013Z</time></trkpt><trkpt lat="43.7433416" lon="11.619517"><ele>859.0</ele><time>2026-05-03T09:13:09.012Z</time></trkpt><trkpt lat="43.7432727" lon="11.6194701"><ele>859.0</ele><time>2026-05-03T09:13:10.013Z</time></trkpt><trkpt lat="43.7431968" lon="11.6194319"><ele>858.9999999999999</ele><time>2026-05-03T09:13:11.013Z</time></trkpt><trkpt lat="43.7431187" lon="11.6194078"><ele>859.0</ele><time>2026-05-03T09:13:12.013Z</time></trkpt><trkpt lat="43.7430412" lon="11.6193665"><ele>857.6666666666666</ele><time>2026-05-03T09:13:13.013Z</time></trkpt><trkpt lat="43.7429694" lon="11.6193292"><ele>856.3333333333333</ele><time>2026-05-03T09:13:14.012Z</time></trkpt><trkpt lat="43.7428971" lon="11.619277"><ele>855.0</ele><time>2026-05-03T09:13:15.011Z</time></trkpt><trkpt lat="43.7428281" lon="11.6192026"><ele>853.6666666666667</ele><time>2026-05-03T09:13:16.013Z</time></trkpt><trkpt lat="43.7427584" lon="11.6191118"><ele>852.3333333333334</ele><time>2026-05-03T09:13:17.012Z</time></trkpt><trkpt lat="43.7426936" lon="11.619019"><ele>851.0</ele><time>2026-05-03T09:13:18.012Z</time></trkpt><trkpt lat="43.7426224" lon="11.6189184"><ele>851.0000000000001</ele><time>2026-05-03T09:13:19.013Z</time></trkpt><trkpt lat="43.7425604" lon="11.6188346"><ele>851.0</ele><time>2026-05-03T09:13:20.012Z</time></trkpt><trkpt lat="43.7425022" lon="11.6187495"><ele>851.0</ele><time>2026-05-03T09:13:21.013Z</time></trkpt><trkpt lat="43.7424439" lon="11.6186636"><ele>851.0</ele><time>2026-05-03T09:13:22.013Z</time></trkpt><trkpt lat="43.7423981" lon="11.6185895"><ele>851.0000000000001</ele><time>2026-05-03T09:13:23.012Z</time></trkpt><trkpt lat="43.7423509" lon="11.6184519"><ele>851.0</ele><time>2026-05-03T09:13:25.013Z</time></trkpt><trkpt lat="43.7423603" lon="11.618318"><ele>853.6666666666667</ele><time>2026-05-03T09:13:27.013Z</time></trkpt><trkpt lat="43.7424253" lon="11.6182053"><ele>856.3333333333334</ele><time>2026-05-03T09:13:29.013Z</time></trkpt><trkpt lat="43.7425309" lon="11.6181623"><ele>859.0</ele><time>2026-05-03T09:13:31.013Z</time></trkpt><trkpt lat="43.7425948" lon="11.6181901"><ele>861.6666666666667</ele><time>2026-05-03T09:13:32.012Z</time></trkpt><trkpt lat="43.7426643" lon="11.6182366"><ele>864.3333333333334</ele><time>2026-05-03T09:13:33.013Z</time></trkpt><trkpt lat="43.7427362" lon="11.6182917"><ele>867.0</ele><time>2026-05-03T09:13:34.012Z</time></trkpt><trkpt lat="43.7428151" lon="11.6183456"><ele>867.8</ele><time>2026-05-03T09:13:35.012Z</time></trkpt><trkpt lat="43.7428998" lon="11.6184107"><ele>868.6</ele><time>2026-05-03T09:13:36.013Z</time></trkpt><trkpt lat="43.7429842" lon="11.6184802"><ele>869.3999999999999</ele><time>2026-05-03T09:13:37.013Z</time></trkpt><trkpt lat="43.7430755" lon="11.61856"><ele>870.1999999999999</ele><time>2026-05-03T09:13:38.013Z</time></trkpt><trkpt lat="43.7431855" lon="11.6186383"><ele>871.0</ele><time>2026-05-03T09:13:39.013Z</time></trkpt><trkpt lat="43.7433002" lon="11.6187076"><ele>871.0</ele><time>2026-05-03T09:13:40.012Z</time></trkpt><trkpt lat="43.7434331" lon="11.6187791"><ele>871.0</ele><time>2026-05-03T09:13:41.013Z</time></trkpt><trkpt lat="43.7435379" lon="11.6188638"><ele>871.0</ele><time>2026-05-03T09:13:42.012Z</time></trkpt><trkpt lat="43.7436133" lon="11.6189659"><ele>871.0</ele><time>2026-05-03T09:13:43.013Z</time></trkpt><trkpt lat="43.7436625" lon="11.6190991"><ele>874.75</ele><time>2026-05-03T09:13:44.011Z</time></trkpt><trkpt lat="43.7436928" lon="11.6192468"><ele>878.5</ele><time>2026-05-03T09:13:45.013Z</time></trkpt><trkpt lat="43.7437289" lon="11.6193987"><ele>882.25</ele><time>2026-05-03T09:13:46.012Z</time></trkpt><trkpt lat="43.7437995" lon="11.6195293"><ele>886.0</ele><time>2026-05-03T09:13:47.012Z</time></trkpt><trkpt lat="43.7438928" lon="11.6196854"><ele>886.0</ele><time>2026-05-03T09:13:48.013Z</time></trkpt><trkpt lat="43.7439889" lon="11.6198514"><ele>886.0</ele><time>2026-05-03T09:13:49.013Z</time></trkpt><trkpt lat="43.7440778" lon="11.6200259"><ele>886.0</ele><time>2026-05-03T09:13:50.012Z</time></trkpt><trkpt lat="43.7441495" lon="11.6201721"><ele>886.0</ele><time>2026-05-03T09:13:51.013Z</time></trkpt><trkpt lat="43.744229" lon="11.6203111"><ele>884.1999999999999</ele><time>2026-05-03T09:13:52.013Z</time></trkpt><trkpt lat="43.7443054" lon="11.6204308"><ele>882.3999999999999</ele><time>2026-05-03T09:13:53.012Z</time></trkpt><trkpt lat="43.7443769" lon="11.6205466"><ele>880.6</ele><time>2026-05-03T09:13:54.012Z</time></trkpt><trkpt lat="43.7444519" lon="11.6206401"><ele>878.8</ele><time>2026-05-03T09:13:55.012Z</time></trkpt><trkpt lat="43.7445336" lon="11.6207037"><ele>877.0</ele><time>2026-05-03T09:13:56.013Z</time></trkpt><trkpt lat="43.7446195" lon="11.6207191"><ele>880.9999999999999</ele><time>2026-05-03T09:13:57.012Z</time></trkpt><trkpt lat="43.744689" lon="11.6206847"><ele>885.0</ele><time>2026-05-03T09:13:58.013Z</time></trkpt><trkpt lat="43.7447386" lon="11.6206086"><ele>889.0</ele><time>2026-05-03T09:13:59.012Z</time></trkpt><trkpt lat="43.7447565" lon="11.6205041"><ele>893.0</ele><time>2026-05-03T09:14:00.012Z</time></trkpt><trkpt lat="43.7447575" lon="11.6203851"><ele>896.9999999999999</ele><time>2026-05-03T09:14:01.013Z</time></trkpt><trkpt lat="43.7447547" lon="11.6202585"><ele>901.0</ele><time>2026-05-03T09:14:02.012Z</time></trkpt><trkpt lat="43.7447327" lon="11.6201276"><ele>904.25</ele><time>2026-05-03T09:14:03.013Z</time></trkpt><trkpt lat="43.7447094" lon="11.6200099"><ele>907.5</ele><time>2026-05-03T09:14:04.013Z</time></trkpt><trkpt lat="43.7446282" lon="11.6198478"><ele>910.75</ele><time>2026-05-03T09:14:05.013Z</time></trkpt><trkpt lat="43.7445838" lon="11.6197015"><ele>914.0</ele><time>2026-05-03T09:14:06.013Z</time></trkpt><trkpt lat="43.7445338" lon="11.61956"><ele>917.5</ele><time>2026-05-03T09:14:07.012Z</time></trkpt><trkpt lat="43.7444946" lon="11.6194097"><ele>921.0</ele><time>2026-05-03T09:14:08.013Z</time></trkpt><trkpt lat="43.7444552" lon="11.6192539"><ele>924.5</ele><time>2026-05-03T09:14:09.013Z</time></trkpt><trkpt lat="43.7444187" lon="11.6190943"><ele>928.0</ele><time>2026-05-03T09:14:10.013Z</time></trkpt><trkpt lat="43.744406" lon="11.6189311"><ele>928.0</ele><time>2026-05-03T09:14:11.013Z</time></trkpt><trkpt lat="43.7444017" lon="11.6187603"><ele>928.0</ele><time>2026-05-03T09:14:12.011Z</time></trkpt><trkpt lat="43.7443958" lon="11.6185874"><ele>928.0</ele><time>2026-05-03T09:14:13.012Z</time></trkpt><trkpt lat="43.74437" lon="11.6184283"><ele>928.0</ele><time>2026-05-03T09:14:14.013Z</time></trkpt><trkpt lat="43.7443342" lon="11.6182796"><ele>931.4</ele><time>2026-05-03T09:14:15.012Z</time></trkpt><trkpt lat="43.7443029" lon="11.6181478"><ele>934.8</ele><time>2026-05-03T09:14:16.013Z</time></trkpt><trkpt lat="43.7442854" lon="11.618025"><ele>938.2</ele><time>2026-05-03T09:14:17.013Z</time></trkpt><trkpt lat="43.7442992" lon="11.6179022"><ele>941.6</ele><time>2026-05-03T09:14:19.013Z</time></trkpt><trkpt lat="43.7443572" lon="11.6179532"><ele>945.0</ele><time>2026-05-03T09:14:21.012Z</time></trkpt><trkpt lat="43.7444284" lon="11.6180724"><ele>945.0</ele><time>2026-05-03T09:14:23.013Z</time></trkpt><trkpt lat="43.7444716" lon="11.6181458"><ele>945.0</ele><time>2026-05-03T09:14:24.013Z</time></trkpt><trkpt lat="43.7445141" lon="11.6182146"><ele>945.0</ele><time>2026-05-03T09:14:25.013Z</time></trkpt><trkpt lat="43.7445699" lon="11.6182962"><ele>945.0</ele><time>2026-05-03T09:14:26.013Z</time></trkpt><trkpt lat="43.7446076" lon="11.6183866"><ele>945.0</ele><time>2026-05-03T09:14:27.013Z</time></trkpt><trkpt lat="43.7446594" lon="11.6184842"><ele>945.0</ele><time>2026-05-03T09:14:28.011Z</time></trkpt><trkpt lat="43.7447161" lon="11.6185743"><ele>941.6</ele><time>2026-05-03T09:14:29.013Z</time></trkpt><trkpt lat="43.7447648" lon="11.6187006"><ele>938.2</ele><time>2026-05-03T09:14:30.012Z</time></trkpt><trkpt lat="43.7448091" lon="11.6187898"><ele>934.8</ele><time>2026-05-03T09:14:31.013Z</time></trkpt><trkpt lat="43.7449232" lon="11.6188258"><ele>931.4</ele><time>2026-05-03T09:14:32.012Z</time></trkpt><trkpt lat="43.7450042" lon="11.6189325"><ele>928.0</ele><time>2026-05-03T09:14:33.011Z</time></trkpt><trkpt lat="43.7450848" lon="11.6190345"><ele>928.0</ele><time>2026-05-03T09:14:34.012Z</time></trkpt><trkpt lat="43.7451527" lon="11.6191322"><ele>928.0</ele><time>2026-05-03T09:14:35.013Z</time></trkpt><trkpt lat="43.7452202" lon="11.6192449"><ele>928.0</ele><time>2026-05-03T09:14:36.013Z</time></trkpt><trkpt lat="43.7452921" lon="11.6193553"><ele>928.0</ele><time>2026-05-03T09:14:37.013Z</time></trkpt><trkpt lat="43.745358" lon="11.6194549"><ele>928.0</ele><time>2026-05-03T09:14:38.012Z</time></trkpt><trkpt lat="43.7454388" lon="11.6195162"><ele>930.4</ele><time>2026-05-03T09:14:39.013Z</time></trkpt><trkpt lat="43.7455131" lon="11.6195903"><ele>932.8</ele><time>2026-05-03T09:14:40.012Z</time></trkpt><trkpt lat="43.7455976" lon="11.6196602"><ele>935.2</ele><time>2026-05-03T09:14:41.012Z</time></trkpt><trkpt lat="43.7456844" lon="11.6197318"><ele>937.6</ele><time>2026-05-03T09:14:42.013Z</time></trkpt><trkpt lat="43.7457742" lon="11.6198007"><ele>940.0</ele><time>2026-05-03T09:14:43.013Z</time></trkpt><trkpt lat="43.7458552" lon="11.619889"><ele>940.0</ele><time>2026-05-03T09:14:44.012Z</time></trkpt><trkpt lat="43.7459452" lon="11.6199793"><ele>940.0</ele><time>2026-05-03T09:14:45.012Z</time></trkpt><trkpt lat="43.7460312" lon="11.620066"><ele>940.0</ele><time>2026-05-03T09:14:46.013Z</time></trkpt><trkpt lat="43.7461032" lon="11.6201688"><ele>940.0</ele><time>2026-05-03T09:14:47.013Z</time></trkpt><trkpt lat="43.7461276" lon="11.6202939"><ele>940.0</ele><time>2026-05-03T09:14:48.012Z</time></trkpt><trkpt lat="43.746179" lon="11.6204116"><ele>941.6</ele><time>2026-05-03T09:14:49.013Z</time></trkpt><trkpt lat="43.7462321" lon="11.6205614"><ele>943.2</ele><time>2026-05-03T09:14:50.012Z</time></trkpt><trkpt lat="43.7462589" lon="11.6207085"><ele>944.8</ele><time>2026-05-03T09:14:51.013Z</time></trkpt><trkpt lat="43.7463036" lon="11.6208493"><ele>946.4</ele><time>2026-05-03T09:14:52.012Z</time></trkpt><trkpt lat="43.7463274" lon="11.6209784"><ele>948.0</ele><time>2026-05-03T09:14:53.013Z</time></trkpt><trkpt lat="43.7463519" lon="11.6210783"><ele>948.0</ele><time>2026-05-03T09:14:54.012Z</time></trkpt><trkpt lat="43.7463882" lon="11.6211648"><ele>948.0</ele><time>2026-05-03T09:14:55.013Z</time></trkpt><trkpt lat="43.7464485" lon="11.6212315"><ele>948.0</ele><time>2026-05-03T09:14:57.011Z</time></trkpt><trkpt lat="43.7465068" lon="11.6211907"><ele>948.0</ele><time>2026-05-03T09:15:01.012Z</time></trkpt><trkpt lat="43.7465365" lon="11.6211015"><ele>948.0</ele><time>2026-05-03T09:17:47.012Z</time></trkpt><trkpt lat="43.7465778" lon="11.621007"><ele>948.0</ele><time>2026-05-03T09:17:49.013Z</time></trkpt><trkpt lat="43.7466898" lon="11.6208847"><ele>948.0</ele><time>2026-05-03T09:17:51.012Z</time></trkpt><trkpt lat="43.7467532" lon="11.6208177"><ele>948.0</ele><time>2026-05-03T09:17:52.012Z</time></trkpt><trkpt lat="43.7468205" lon="11.6207431"><ele>948.0</ele><time>2026-05-03T09:17:53.013Z</time></trkpt><trkpt lat="43.7468933" lon="11.6206567"><ele>948.0</ele><time>2026-05-03T09:17:54.012Z</time></trkpt><trkpt lat="43.7469538" lon="11.6205189"><ele>948.0</ele><time>2026-05-03T09:17:55.013Z</time></trkpt><trkpt lat="43.7470093" lon="11.6203848"><ele>948.5999999999999</ele><time>2026-05-03T09:17:56.011Z</time></trkpt><trkpt lat="43.7470398" lon="11.6202573"><ele>949.1999999999999</ele><time>2026-05-03T09:17:57.013Z</time></trkpt><trkpt lat="43.7470918" lon="11.620144"><ele>949.8</ele><time>2026-05-03T09:17:58.012Z</time></trkpt><trkpt lat="43.7471459" lon="11.6200508"><ele>950.4</ele><time>2026-05-03T09:17:59.012Z</time></trkpt><trkpt lat="43.7472224" lon="11.6199777"><ele>951.0</ele><time>2026-05-03T09:18:00.012Z</time></trkpt><trkpt lat="43.7472822" lon="11.6198863"><ele>951.0</ele><time>2026-05-03T09:18:01.012Z</time></trkpt><trkpt lat="43.7473553" lon="11.6197791"><ele>951.0</ele><time>2026-05-03T09:18:02.013Z</time></trkpt><trkpt lat="43.7473857" lon="11.6196795"><ele>951.0</ele><time>2026-05-03T09:18:03.012Z</time></trkpt><trkpt lat="43.7474114" lon="11.6195743"><ele>951.0</ele><time>2026-05-03T09:18:04.013Z</time></trkpt><trkpt lat="43.7474611" lon="11.6194834"><ele>951.0</ele><time>2026-05-03T09:18:05.012Z</time></trkpt><trkpt lat="43.7475163" lon="11.6193671"><ele>951.0</ele><time>2026-05-03T09:18:06.012Z</time></trkpt><trkpt lat="43.7475956" lon="11.6192947"><ele>948.0</ele><time>2026-05-03T09:18:07.012Z</time></trkpt><trkpt lat="43.7476829" lon="11.6191957"><ele>944.9999999999999</ele><time>2026-05-03T09:18:08.012Z</time></trkpt><trkpt lat="43.747759" lon="11.6190979"><ele>941.9999999999999</ele><time>2026-05-03T09:18:09.013Z</time></trkpt><trkpt lat="43.747819" lon="11.6190034"><ele>939.0</ele><time>2026-05-03T09:18:10.013Z</time></trkpt><trkpt lat="43.7478556" lon="11.618873"><ele>936.0</ele><time>2026-05-03T09:18:11.011Z</time></trkpt><trkpt lat="43.7479003" lon="11.6187397"><ele>940.1999999999999</ele><time>2026-05-03T09:18:12.012Z</time></trkpt><trkpt lat="43.7479366" lon="11.6186266"><ele>944.3999999999999</ele><time>2026-05-03T09:18:13.012Z</time></trkpt><trkpt lat="43.7479818" lon="11.6184953"><ele>948.6</ele><time>2026-05-03T09:18:14.013Z</time></trkpt><trkpt lat="43.7479857" lon="11.6183545"><ele>952.8</ele><time>2026-05-03T09:18:15.013Z</time></trkpt><trkpt lat="43.7479943" lon="11.6182481"><ele>957.0</ele><time>2026-05-03T09:18:16.013Z</time></trkpt><trkpt lat="43.7480417" lon="11.6180879"><ele>957.0</ele><time>2026-05-03T09:18:18.013Z</time></trkpt><trkpt lat="43.7480804" lon="11.6180051"><ele>957.0</ele><time>2026-05-03T09:18:19.012Z</time></trkpt><trkpt lat="43.7481567" lon="11.6179153"><ele>957.0</ele><time>2026-05-03T09:18:20.013Z</time></trkpt><trkpt lat="43.7482268" lon="11.6178616"><ele>957.0</ele><time>2026-05-03T09:18:21.013Z</time></trkpt><trkpt lat="43.7482859" lon="11.6178246"><ele>957.0</ele><time>2026-05-03T09:18:22.013Z</time></trkpt><trkpt lat="43.7483539" lon="11.617768"><ele>957.0</ele><time>2026-05-03T09:18:23.013Z</time></trkpt><trkpt lat="43.7484263" lon="11.6177061"><ele>956.1666666666666</ele><time>2026-05-03T09:18:24.013Z</time></trkpt><trkpt lat="43.7484931" lon="11.6176186"><ele>955.3333333333333</ele><time>2026-05-03T09:18:25.013Z</time></trkpt><trkpt lat="43.7485676" lon="11.6175465"><ele>954.5</ele><time>2026-05-03T09:18:26.013Z</time></trkpt><trkpt lat="43.7486233" lon="11.6174776"><ele>953.6666666666666</ele><time>2026-05-03T09:18:27.012Z</time></trkpt><trkpt lat="43.7486767" lon="11.6173784"><ele>952.8333333333333</ele><time>2026-05-03T09:18:28.013Z</time></trkpt><trkpt lat="43.7487112" lon="11.6172832"><ele>952.0</ele><time>2026-05-03T09:18:29.013Z</time></trkpt><trkpt lat="43.748749" lon="11.6171643"><ele>952.0</ele><time>2026-05-03T09:18:30.013Z</time></trkpt><trkpt lat="43.7487798" lon="11.6170458"><ele>952.0</ele><time>2026-05-03T09:18:31.011Z</time></trkpt><trkpt lat="43.748907" lon="11.6169487"><ele>952.0</ele><time>2026-05-03T09:18:33.013Z</time></trkpt><trkpt lat="43.7489594" lon="11.616869"><ele>952.0</ele><time>2026-05-03T09:18:34.013Z</time></trkpt><trkpt lat="43.7489975" lon="11.6167833"><ele>952.0</ele><time>2026-05-03T09:18:35.012Z</time></trkpt><trkpt lat="43.7490237" lon="11.616679"><ele>955.0</ele><time>2026-05-03T09:18:36.013Z</time></trkpt><trkpt lat="43.7490402" lon="11.6165675"><ele>958.0</ele><time>2026-05-03T09:18:37.012Z</time></trkpt><trkpt lat="43.7489889" lon="11.6164584"><ele>961.0</ele><time>2026-05-03T09:18:38.013Z</time></trkpt><trkpt lat="43.748978" lon="11.6163601"><ele>964.0</ele><time>2026-05-03T09:18:39.013Z</time></trkpt><trkpt lat="43.7490318" lon="11.6163123"><ele>967.0</ele><time>2026-05-03T09:18:40.013Z</time></trkpt><trkpt lat="43.7491786" lon="11.6162462"><ele>966.9999999999999</ele><time>2026-05-03T09:18:42.013Z</time></trkpt><trkpt lat="43.7492405" lon="11.6162198"><ele>967.0</ele><time>2026-05-03T09:18:43.012Z</time></trkpt><trkpt lat="43.7493135" lon="11.6161733"><ele>967.0</ele><time>2026-05-03T09:18:44.013Z</time></trkpt><trkpt lat="43.749371" lon="11.6160881"><ele>967.0</ele><time>2026-05-03T09:18:45.013Z</time></trkpt><trkpt lat="43.7494246" lon="11.6160032"><ele>966.9999999999999</ele><time>2026-05-03T09:18:46.012Z</time></trkpt><trkpt lat="43.7494382" lon="11.6158857"><ele>967.0</ele><time>2026-05-03T09:18:47.013Z</time></trkpt><trkpt lat="43.7494116" lon="11.6157686"><ele>965.2</ele><time>2026-05-03T09:18:48.011Z</time></trkpt><trkpt lat="43.7494392" lon="11.6156865"><ele>963.4000000000001</ele><time>2026-05-03T09:18:49.012Z</time></trkpt><trkpt lat="43.7495564" lon="11.6155507"><ele>961.5999999999999</ele><time>2026-05-03T09:18:51.012Z</time></trkpt><trkpt lat="43.749633" lon="11.6154836"><ele>959.8</ele><time>2026-05-03T09:18:52.013Z</time></trkpt><trkpt lat="43.7496874" lon="11.6153975"><ele>958.0</ele><time>2026-05-03T09:18:53.013Z</time></trkpt><trkpt lat="43.7497595" lon="11.6153702"><ele>958.0</ele><time>2026-05-03T09:18:54.013Z</time></trkpt><trkpt lat="43.7498367" lon="11.6153469"><ele>958.0</ele><time>2026-05-03T09:18:55.012Z</time></trkpt><trkpt lat="43.7499154" lon="11.6153221"><ele>958.0</ele><time>2026-05-03T09:18:56.013Z</time></trkpt><trkpt lat="43.7500099" lon="11.6152939"><ele>958.0</ele><time>2026-05-03T09:18:57.013Z</time></trkpt><trkpt lat="43.7501138" lon="11.6152732"><ele>958.0</ele><time>2026-05-03T09:18:58.013Z</time></trkpt><trkpt lat="43.7502131" lon="11.6152527"><ele>957.5999999999999</ele><time>2026-05-03T09:18:59.012Z</time></trkpt><trkpt lat="43.7503459" lon="11.6151923"><ele>957.1999999999999</ele><time>2026-05-03T09:19:00.013Z</time></trkpt><trkpt lat="43.7504513" lon="11.6151577"><ele>956.8</ele><time>2026-05-03T09:19:01.012Z</time></trkpt><trkpt lat="43.75055" lon="11.6151118"><ele>956.4</ele><time>2026-05-03T09:19:02.013Z</time></trkpt><trkpt lat="43.7506183" lon="11.6150254"><ele>956.0</ele><time>2026-05-03T09:19:03.012Z</time></trkpt><trkpt lat="43.7506324" lon="11.6149262"><ele>956.0000000000001</ele><time>2026-05-03T09:19:04.013Z</time></trkpt><trkpt lat="43.7506697" lon="11.6148289"><ele>956.0</ele><time>2026-05-03T09:19:05.013Z</time></trkpt><trkpt lat="43.7506767" lon="11.6147234"><ele>956.0</ele><time>2026-05-03T09:19:06.012Z</time></trkpt><trkpt lat="43.750716" lon="11.6146245"><ele>956.0</ele><time>2026-05-03T09:19:07.013Z</time></trkpt><trkpt lat="43.7507667" lon="11.6144995"><ele>956.0000000000001</ele><time>2026-05-03T09:19:08.013Z</time></trkpt><trkpt lat="43.7507909" lon="11.6143884"><ele>956.0</ele><time>2026-05-03T09:19:09.012Z</time></trkpt><trkpt lat="43.7508155" lon="11.6142681"><ele>956.0000000000001</ele><time>2026-05-03T09:19:10.013Z</time></trkpt><trkpt lat="43.7507889" lon="11.6141871"><ele>956.0</ele><time>2026-05-03T09:19:11.013Z</time></trkpt><trkpt lat="43.7507362" lon="11.6140889"><ele>956.0</ele><time>2026-05-03T09:19:12.011Z</time></trkpt><trkpt lat="43.7506763" lon="11.6139801"><ele>956.0</ele><time>2026-05-03T09:19:13.012Z</time></trkpt><trkpt lat="43.75064" lon="11.6138611"><ele>956.0000000000001</ele><time>2026-05-03T09:19:14.013Z</time></trkpt><trkpt lat="43.7506214" lon="11.6137343"><ele>956.0</ele><time>2026-05-03T09:19:15.013Z</time></trkpt><trkpt lat="43.7506094" lon="11.6136192"><ele>955.4</ele><time>2026-05-03T09:19:16.012Z</time></trkpt><trkpt lat="43.7506433" lon="11.6135129"><ele>954.8</ele><time>2026-05-03T09:19:17.012Z</time></trkpt><trkpt lat="43.7506599" lon="11.6133965"><ele>954.1999999999999</ele><time>2026-05-03T09:19:18.012Z</time></trkpt><trkpt lat="43.7506809" lon="11.6132501"><ele>953.5999999999999</ele><time>2026-05-03T09:19:19.012Z</time></trkpt><trkpt lat="43.7507105" lon="11.6131295"><ele>953.0</ele><time>2026-05-03T09:19:20.013Z</time></trkpt><trkpt lat="43.7507275" lon="11.6130147"><ele>953.0000000000001</ele><time>2026-05-03T09:19:21.013Z</time></trkpt><trkpt lat="43.750728" lon="11.6129275"><ele>953.0</ele><time>2026-05-03T09:19:22.012Z</time></trkpt><trkpt lat="43.750722" lon="11.6128274"><ele>953.0</ele><time>2026-05-03T09:19:23.013Z</time></trkpt><trkpt lat="43.7506664" lon="11.6127508"><ele>953.0</ele><time>2026-05-03T09:19:24.012Z</time></trkpt><trkpt lat="43.750625" lon="11.6126786"><ele>953.0000000000001</ele><time>2026-05-03T09:19:25.012Z</time></trkpt><trkpt lat="43.7505718" lon="11.6125337"><ele>953.0</ele><time>2026-05-03T09:19:27.013Z</time></trkpt><trkpt lat="43.7505241" lon="11.6124364"><ele>952.75</ele><time>2026-05-03T09:19:28.013Z</time></trkpt><trkpt lat="43.7504598" lon="11.6123192"><ele>952.5</ele><time>2026-05-03T09:19:29.013Z</time></trkpt><trkpt lat="43.7504049" lon="11.612201"><ele>952.25</ele><time>2026-05-03T09:19:30.013Z</time></trkpt><trkpt lat="43.7503543" lon="11.6120396"><ele>952.0</ele><time>2026-05-03T09:19:31.013Z</time></trkpt><trkpt lat="43.7503013" lon="11.6118918"><ele>951.6666666666666</ele><time>2026-05-03T09:19:32.013Z</time></trkpt><trkpt lat="43.7502636" lon="11.6117918"><ele>951.3333333333333</ele><time>2026-05-03T09:19:33.012Z</time></trkpt><trkpt lat="43.7502182" lon="11.611665"><ele>951.0</ele><time>2026-05-03T09:19:34.013Z</time></trkpt><trkpt lat="43.750144" lon="11.6116001"><ele>950.6666666666667</ele><time>2026-05-03T09:19:35.013Z</time></trkpt><trkpt lat="43.7500779" lon="11.6115279"><ele>950.3333333333334</ele><time>2026-05-03T09:19:36.012Z</time></trkpt><trkpt lat="43.7500191" lon="11.6114871"><ele>950.0</ele><time>2026-05-03T09:19:37.013Z</time></trkpt><trkpt lat="43.7500154" lon="11.6113777"><ele>950.0000000000001</ele><time>2026-05-03T09:19:39.011Z</time></trkpt><trkpt lat="43.7501038" lon="11.6113016"><ele>950.0</ele><time>2026-05-03T09:19:41.012Z</time></trkpt><trkpt lat="43.7501649" lon="11.6112715"><ele>950.0</ele><time>2026-05-03T09:19:42.012Z</time></trkpt><trkpt lat="43.7502184" lon="11.6111983"><ele>950.0</ele><time>2026-05-03T09:19:43.013Z</time></trkpt><trkpt lat="43.7502673" lon="11.6111119"><ele>950.0000000000001</ele><time>2026-05-03T09:19:44.013Z</time></trkpt><trkpt lat="43.7503013" lon="11.6110102"><ele>950.0</ele><time>2026-05-03T09:19:45.013Z</time></trkpt><trkpt lat="43.7503326" lon="11.6108956"><ele>952.3333333333334</ele><time>2026-05-03T09:19:46.013Z</time></trkpt><trkpt lat="43.7503491" lon="11.6107713"><ele>954.6666666666667</ele><time>2026-05-03T09:19:47.012Z</time></trkpt><trkpt lat="43.7503368" lon="11.6106645"><ele>957.0</ele><time>2026-05-03T09:19:48.013Z</time></trkpt><trkpt lat="43.7503214" lon="11.6105658"><ele>959.3333333333333</ele><time>2026-05-03T09:19:49.013Z</time></trkpt><trkpt lat="43.7503974" lon="11.610548"><ele>961.6666666666666</ele><time>2026-05-03T09:19:51.012Z</time></trkpt><trkpt lat="43.7505118" lon="11.6105663"><ele>964.0</ele><time>2026-05-03T09:19:52.012Z</time></trkpt><trkpt lat="43.7505819" lon="11.6105353"><ele>963.9999999999999</ele><time>2026-05-03T09:19:53.013Z</time></trkpt><trkpt lat="43.7506698" lon="11.6104779"><ele>964.0</ele><time>2026-05-03T09:19:54.013Z</time></trkpt><trkpt lat="43.7507488" lon="11.610432"><ele>964.0</ele><time>2026-05-03T09:19:55.013Z</time></trkpt><trkpt lat="43.750823" lon="11.6103771"><ele>964.0</ele><time>2026-05-03T09:19:56.013Z</time></trkpt><trkpt lat="43.7508745" lon="11.6102775"><ele>963.9999999999999</ele><time>2026-05-03T09:19:57.013Z</time></trkpt><trkpt lat="43.750874" lon="11.6101853"><ele>964.0</ele><time>2026-05-03T09:19:58.013Z</time></trkpt><trkpt lat="43.7509385" lon="11.6100922"><ele>964.4999999999999</ele><time>2026-05-03T09:19:59.012Z</time></trkpt><trkpt lat="43.7509748" lon="11.6099923"><ele>965.0</ele><time>2026-05-03T09:20:00.013Z</time></trkpt><trkpt lat="43.7509958" lon="11.6098794"><ele>965.5</ele><time>2026-05-03T09:20:01.012Z</time></trkpt><trkpt lat="43.7510416" lon="11.6097939"><ele>966.0</ele><time>2026-05-03T09:20:02.012Z</time></trkpt><trkpt lat="43.7510774" lon="11.6096799"><ele>966.4999999999999</ele><time>2026-05-03T09:20:03.013Z</time></trkpt><trkpt lat="43.7511272" lon="11.6095934"><ele>967.0</ele><time>2026-05-03T09:20:04.013Z</time></trkpt><trkpt lat="43.7511826" lon="11.6095057"><ele>967.8</ele><time>2026-05-03T09:20:05.013Z</time></trkpt><trkpt lat="43.7512582" lon="11.6093775"><ele>968.6</ele><time>2026-05-03T09:20:06.013Z</time></trkpt><trkpt lat="43.7513094" lon="11.6092566"><ele>969.3999999999999</ele><time>2026-05-03T09:20:07.013Z</time></trkpt><trkpt lat="43.7513609" lon="11.6091358"><ele>970.1999999999999</ele><time>2026-05-03T09:20:08.013Z</time></trkpt><trkpt lat="43.7514236" lon="11.6090084"><ele>971.0</ele><time>2026-05-03T09:20:09.012Z</time></trkpt><trkpt lat="43.751494" lon="11.6089086"><ele>971.0</ele><time>2026-05-03T09:20:10.011Z</time></trkpt><trkpt lat="43.7515482" lon="11.6088225"><ele>970.9999999999999</ele><time>2026-05-03T09:20:11.012Z</time></trkpt><trkpt lat="43.751622" lon="11.6087932"><ele>970.9999999999999</ele><time>2026-05-03T09:20:12.013Z</time></trkpt><trkpt lat="43.7517301" lon="11.6087541"><ele>971.0</ele><time>2026-05-03T09:20:13.013Z</time></trkpt><trkpt lat="43.7518614" lon="11.6087738"><ele>971.0</ele><time>2026-05-03T09:20:14.012Z</time></trkpt><trkpt lat="43.7519776" lon="11.6087796"><ele>969.3333333333334</ele><time>2026-05-03T09:20:15.012Z</time></trkpt><trkpt lat="43.7520635" lon="11.6087431"><ele>967.6666666666667</ele><time>2026-05-03T09:20:16.013Z</time></trkpt><trkpt lat="43.752124" lon="11.6086747"><ele>966.0</ele><time>2026-05-03T09:20:17.013Z</time></trkpt><trkpt lat="43.7521717" lon="11.6085957"><ele>964.3333333333333</ele><time>2026-05-03T09:20:18.013Z</time></trkpt><trkpt lat="43.7521994" lon="11.6084723"><ele>962.6666666666666</ele><time>2026-05-03T09:20:19.012Z</time></trkpt><trkpt lat="43.7522372" lon="11.6083619"><ele>961.0</ele><time>2026-05-03T09:20:20.012Z</time></trkpt><trkpt lat="43.7522967" lon="11.6082751"><ele>961.0</ele><time>2026-05-03T09:20:21.013Z</time></trkpt><trkpt lat="43.7523644" lon="11.6081952"><ele>960.9999999999999</ele><time>2026-05-03T09:20:22.012Z</time></trkpt><trkpt lat="43.7524191" lon="11.6081006"><ele>960.9999999999999</ele><time>2026-05-03T09:20:23.012Z</time></trkpt><trkpt lat="43.7524775" lon="11.6080112"><ele>961.0</ele><time>2026-05-03T09:20:24.013Z</time></trkpt><trkpt lat="43.752555" lon="11.6079386"><ele>961.0</ele><time>2026-05-03T09:20:25.013Z</time></trkpt><trkpt lat="43.7526521" lon="11.6078959"><ele>955.1999999999999</ele><time>2026-05-03T09:20:26.013Z</time></trkpt><trkpt lat="43.7527297" lon="11.607848"><ele>949.3999999999999</ele><time>2026-05-03T09:20:27.012Z</time></trkpt><trkpt lat="43.7527919" lon="11.6077882"><ele>943.6</ele><time>2026-05-03T09:20:28.013Z</time></trkpt><trkpt lat="43.7528672" lon="11.6076694"><ele>937.8</ele><time>2026-05-03T09:20:30.013Z</time></trkpt><trkpt lat="43.7528546" lon="11.6075175"><ele>932.0</ele><time>2026-05-03T09:20:32.013Z</time></trkpt><trkpt lat="43.7528322" lon="11.6074298"><ele>932.0000000000001</ele><time>2026-05-03T09:20:33.013Z</time></trkpt><trkpt lat="43.7527871" lon="11.6073187"><ele>932.0</ele><time>2026-05-03T09:20:34.011Z</time></trkpt><trkpt lat="43.7527336" lon="11.6072055"><ele>932.0</ele><time>2026-05-03T09:20:35.012Z</time></trkpt><trkpt lat="43.7527018" lon="11.6070816"><ele>932.0</ele><time>2026-05-03T09:20:36.011Z</time></trkpt><trkpt lat="43.7527" lon="11.6069723"><ele>932.0000000000001</ele><time>2026-05-03T09:20:37.012Z</time></trkpt><trkpt lat="43.7526819" lon="11.6068573"><ele>932.0</ele><time>2026-05-03T09:20:38.013Z</time></trkpt><trkpt lat="43.7526637" lon="11.606766"><ele>933.0000000000001</ele><time>2026-05-03T09:20:39.013Z</time></trkpt><trkpt lat="43.752696" lon="11.6065908"><ele>934.0</ele><time>2026-05-03T09:20:41.012Z</time></trkpt><trkpt lat="43.752723" lon="11.6064976"><ele>935.0</ele><time>2026-05-03T09:20:42.012Z</time></trkpt><trkpt lat="43.7527483" lon="11.6063894"><ele>936.0</ele><time>2026-05-03T09:20:43.012Z</time></trkpt><trkpt lat="43.7527022" lon="11.6063208"><ele>937.0000000000001</ele><time>2026-05-03T09:20:44.013Z</time></trkpt><trkpt lat="43.7526738" lon="11.6062272"><ele>938.0</ele><time>2026-05-03T09:20:45.013Z</time></trkpt><trkpt lat="43.7526536" lon="11.6061311"><ele>947.0</ele><time>2026-05-03T09:20:46.013Z</time></trkpt><trkpt lat="43.7526351" lon="11.6060226"><ele>956.0</ele><time>2026-05-03T09:20:47.012Z</time></trkpt><trkpt lat="43.7526336" lon="11.6058735"><ele>965.0</ele><time>2026-05-03T09:20:48.012Z</time></trkpt><trkpt lat="43.7526258" lon="11.6057498"><ele>974.0</ele><time>2026-05-03T09:20:49.013Z</time></trkpt><trkpt lat="43.7526232" lon="11.6056322"><ele>983.0</ele><time>2026-05-03T09:20:50.012Z</time></trkpt><trkpt lat="43.752673" lon="11.6055157"><ele>983.0</ele><time>2026-05-03T09:20:51.013Z</time></trkpt><trkpt lat="43.752697" lon="11.605396"><ele>983.0</ele><time>2026-05-03T09:20:52.012Z</time></trkpt><trkpt lat="43.7527016" lon="11.6052782"><ele>983.0</ele><time>2026-05-03T09:20:53.012Z</time></trkpt><trkpt lat="43.7527159" lon="11.6051677"><ele>983.0</ele><time>2026-05-03T09:20:54.012Z</time></trkpt><trkpt lat="43.7526862" lon="11.6049872"><ele>983.0</ele><time>2026-05-03T09:20:56.012Z</time></trkpt><trkpt lat="43.7526762" lon="11.6048946"><ele>982.5999999999999</ele><time>2026-05-03T09:20:57.013Z</time></trkpt><trkpt lat="43.7527432" lon="11.6048023"><ele>982.1999999999999</ele><time>2026-05-03T09:20:59.013Z</time></trkpt><trkpt lat="43.7528513" lon="11.604886"><ele>981.8</ele><time>2026-05-03T09:21:01.012Z</time></trkpt><trkpt lat="43.7529238" lon="11.6049313"><ele>981.4</ele><time>2026-05-03T09:21:43.013Z</time></trkpt><trkpt lat="43.7529944" lon="11.6049097"><ele>981.0</ele><time>2026-05-03T09:21:45.012Z</time></trkpt><trkpt lat="43.7530721" lon="11.6048767"><ele>981.0</ele><time>2026-05-03T09:21:47.012Z</time></trkpt><trkpt lat="43.7531403" lon="11.6048787"><ele>981.0</ele><time>2026-05-03T09:21:49.013Z</time></trkpt><trkpt lat="43.7532138" lon="11.60486"><ele>981.0</ele><time>2026-05-03T09:21:51.013Z</time></trkpt><trkpt lat="43.7532799" lon="11.6048332"><ele>981.0</ele><time>2026-05-03T09:21:53.012Z</time></trkpt><trkpt lat="43.7533469" lon="11.6048217"><ele>981.0</ele><time>2026-05-03T09:21:56.013Z</time></trkpt><trkpt lat="43.7534386" lon="11.6048428"><ele>981.0</ele><time>2026-05-03T09:21:59.013Z</time></trkpt><trkpt lat="43.7534999" lon="11.6048741"><ele>981.0</ele><time>2026-05-03T09:22:01.012Z</time></trkpt><trkpt lat="43.7535882" lon="11.6048672"><ele>982.1999999999999</ele><time>2026-05-03T09:22:03.012Z</time></trkpt><trkpt lat="43.753693" lon="11.6048034"><ele>983.3999999999999</ele><time>2026-05-03T09:22:05.012Z</time></trkpt><trkpt lat="43.7537631" lon="11.6046647"><ele>984.6</ele><time>2026-05-03T09:22:07.012Z</time></trkpt><trkpt lat="43.7538095" lon="11.6045793"><ele>985.8</ele><time>2026-05-03T09:22:08.012Z</time></trkpt><trkpt lat="43.7538607" lon="11.6045095"><ele>987.0</ele><time>2026-05-03T09:22:09.013Z</time></trkpt><trkpt lat="43.7539126" lon="11.6044372"><ele>987.0</ele><time>2026-05-03T09:22:10.013Z</time></trkpt><trkpt lat="43.7539669" lon="11.6043669"><ele>987.0</ele><time>2026-05-03T09:22:11.011Z</time></trkpt><trkpt lat="43.7540635" lon="11.6043321"><ele>987.0</ele><time>2026-05-03T09:22:12.013Z</time></trkpt><trkpt lat="43.7541406" lon="11.6042693"><ele>987.0</ele><time>2026-05-03T09:22:13.013Z</time></trkpt><trkpt lat="43.7542139" lon="11.6042211"><ele>987.0</ele><time>2026-05-03T09:22:14.013Z</time></trkpt><trkpt lat="43.7542855" lon="11.6041507"><ele>987.0</ele><time>2026-05-03T09:22:15.013Z</time></trkpt><trkpt lat="43.7543682" lon="11.6040847"><ele>988.0</ele><time>2026-05-03T09:22:16.013Z</time></trkpt><trkpt lat="43.75443" lon="11.6040166"><ele>989.0</ele><time>2026-05-03T09:22:17.013Z</time></trkpt><trkpt lat="43.7545016" lon="11.6039242"><ele>990.0</ele><time>2026-05-03T09:22:18.013Z</time></trkpt><trkpt lat="43.754554" lon="11.6038229"><ele>991.0</ele><time>2026-05-03T09:22:19.012Z</time></trkpt><trkpt lat="43.7545984" lon="11.6037283"><ele>992.0</ele><time>2026-05-03T09:22:20.012Z</time></trkpt><trkpt lat="43.7546418" lon="11.6036168"><ele>993.0</ele><time>2026-05-03T09:22:21.013Z</time></trkpt><trkpt lat="43.7547041" lon="11.6035076"><ele>993.0</ele><time>2026-05-03T09:22:22.013Z</time></trkpt><trkpt lat="43.7547857" lon="11.6034388"><ele>993.0</ele><time>2026-05-03T09:22:23.013Z</time></trkpt><trkpt lat="43.7548397" lon="11.6033892"><ele>993.0</ele><time>2026-05-03T09:22:24.012Z</time></trkpt><trkpt lat="43.7548738" lon="11.6033106"><ele>993.0</ele><time>2026-05-03T09:22:25.012Z</time></trkpt><trkpt lat="43.7549178" lon="11.6032153"><ele>993.0</ele><time>2026-05-03T09:22:26.012Z</time></trkpt><trkpt lat="43.7549648" lon="11.6031306"><ele>993.0</ele><time>2026-05-03T09:22:27.013Z</time></trkpt><trkpt lat="43.7550456" lon="11.6030896"><ele>993.0</ele><time>2026-05-03T09:22:29.013Z</time></trkpt><trkpt lat="43.7551584" lon="11.6031133"><ele>993.0</ele><time>2026-05-03T09:22:31.012Z</time></trkpt><trkpt lat="43.755231" lon="11.603153"><ele>993.0</ele><time>2026-05-03T09:22:32.011Z</time></trkpt><trkpt lat="43.7552968" lon="11.6031785"><ele>993.0</ele><time>2026-05-03T09:22:33.012Z</time></trkpt><trkpt lat="43.7553814" lon="11.6031857"><ele>993.0</ele><time>2026-05-03T09:22:34.012Z</time></trkpt><trkpt lat="43.7554588" lon="11.6031834"><ele>993.0</ele><time>2026-05-03T09:22:35.012Z</time></trkpt><trkpt lat="43.7555463" lon="11.6031671"><ele>992.6666666666666</ele><time>2026-05-03T09:22:36.013Z</time></trkpt><trkpt lat="43.7556109" lon="11.6030742"><ele>992.3333333333333</ele><time>2026-05-03T09:22:37.012Z</time></trkpt><trkpt lat="43.7556666" lon="11.6029836"><ele>992.0</ele><time>2026-05-03T09:22:38.011Z</time></trkpt><trkpt lat="43.7557168" lon="11.6028914"><ele>991.6666666666666</ele><time>2026-05-03T09:22:39.012Z</time></trkpt><trkpt lat="43.755777" lon="11.6027892"><ele>991.3333333333333</ele><time>2026-05-03T09:22:40.012Z</time></trkpt><trkpt lat="43.7558251" lon="11.6026876"><ele>991.0</ele><time>2026-05-03T09:22:41.013Z</time></trkpt><trkpt lat="43.7558686" lon="11.6025886"><ele>990.1999999999999</ele><time>2026-05-03T09:22:42.013Z</time></trkpt><trkpt lat="43.7559188" lon="11.6024785"><ele>989.3999999999999</ele><time>2026-05-03T09:22:43.012Z</time></trkpt><trkpt lat="43.7559832" lon="11.6023587"><ele>988.6</ele><time>2026-05-03T09:22:44.011Z</time></trkpt><trkpt lat="43.7560523" lon="11.6022736"><ele>987.8</ele><time>2026-05-03T09:22:45.012Z</time></trkpt><trkpt lat="43.7561131" lon="11.6021952"><ele>987.0</ele><time>2026-05-03T09:22:46.012Z</time></trkpt><trkpt lat="43.7561572" lon="11.6021019"><ele>989.0</ele><time>2026-05-03T09:22:47.013Z</time></trkpt><trkpt lat="43.7561725" lon="11.6019971"><ele>991.0</ele><time>2026-05-03T09:22:48.013Z</time></trkpt><trkpt lat="43.7561836" lon="11.6018906"><ele>993.0</ele><time>2026-05-03T09:22:49.012Z</time></trkpt><trkpt lat="43.7561753" lon="11.6017811"><ele>995.0</ele><time>2026-05-03T09:22:50.013Z</time></trkpt><trkpt lat="43.7561671" lon="11.6016788"><ele>997.0</ele><time>2026-05-03T09:22:51.013Z</time></trkpt><trkpt lat="43.7561282" lon="11.6015492"><ele>999.0</ele><time>2026-05-03T09:22:52.013Z</time></trkpt><trkpt lat="43.756137" lon="11.6014283"><ele>999.0</ele><time>2026-05-03T09:22:53.013Z</time></trkpt><trkpt lat="43.7561451" lon="11.6013093"><ele>999.0000000000001</ele><time>2026-05-03T09:22:54.013Z</time></trkpt><trkpt lat="43.7561835" lon="11.6012011"><ele>999.0000000000001</ele><time>2026-05-03T09:22:55.011Z</time></trkpt><trkpt lat="43.7562318" lon="11.6010816"><ele>999.0</ele><time>2026-05-03T09:22:56.012Z</time></trkpt><trkpt lat="43.7563154" lon="11.6010035"><ele>999.0</ele><time>2026-05-03T09:22:57.013Z</time></trkpt><trkpt lat="43.7563901" lon="11.6009044"><ele>998.0</ele><time>2026-05-03T09:22:58.013Z</time></trkpt><trkpt lat="43.7564503" lon="11.6008426"><ele>997.0000000000001</ele><time>2026-05-03T09:22:59.013Z</time></trkpt><trkpt lat="43.7565201" lon="11.6007807"><ele>996.0</ele><time>2026-05-03T09:23:00.012Z</time></trkpt><trkpt lat="43.7565811" lon="11.6007308"><ele>995.0</ele><time>2026-05-03T09:23:01.013Z</time></trkpt><trkpt lat="43.7566451" lon="11.6007262"><ele>994.0000000000001</ele><time>2026-05-03T09:23:02.013Z</time></trkpt><trkpt lat="43.7567132" lon="11.6006943"><ele>993.0</ele><time>2026-05-03T09:23:03.012Z</time></trkpt><trkpt lat="43.756793" lon="11.6006988"><ele>992.0</ele><time>2026-05-03T09:23:04.012Z</time></trkpt><trkpt lat="43.7569149" lon="11.6006722"><ele>992.0</ele><time>2026-05-03T09:23:06.013Z</time></trkpt><trkpt lat="43.7570389" lon="11.6006303"><ele>992.0</ele><time>2026-05-03T09:23:08.013Z</time></trkpt><trkpt lat="43.7571048" lon="11.6005084"><ele>992.0</ele><time>2026-05-03T09:23:09.012Z</time></trkpt><trkpt lat="43.7571529" lon="11.6004101"><ele>992.0</ele><time>2026-05-03T09:23:10.012Z</time></trkpt><trkpt lat="43.7571879" lon="11.6002778"><ele>992.0</ele><time>2026-05-03T09:23:11.012Z</time></trkpt><trkpt lat="43.7572041" lon="11.6001571"><ele>991.6666666666667</ele><time>2026-05-03T09:23:12.013Z</time></trkpt><trkpt lat="43.757176" lon="11.6000708"><ele>991.3333333333334</ele><time>2026-05-03T09:23:13.012Z</time></trkpt><trkpt lat="43.7571506" lon="11.5999794"><ele>991.0</ele><time>2026-05-03T09:23:14.013Z</time></trkpt><trkpt lat="43.7570839" lon="11.5998948"><ele>990.6666666666667</ele><time>2026-05-03T09:23:15.012Z</time></trkpt><trkpt lat="43.7570534" lon="11.5998027"><ele>990.3333333333334</ele><time>2026-05-03T09:23:16.012Z</time></trkpt><trkpt lat="43.7569895" lon="11.5997473"><ele>990.0</ele><time>2026-05-03T09:23:17.013Z</time></trkpt><trkpt lat="43.7569117" lon="11.5996346"><ele>991.4</ele><time>2026-05-03T09:23:18.013Z</time></trkpt><trkpt lat="43.7568174" lon="11.5995359"><ele>992.8</ele><time>2026-05-03T09:23:19.012Z</time></trkpt><trkpt lat="43.7567684" lon="11.5994166"><ele>994.2</ele><time>2026-05-03T09:23:20.012Z</time></trkpt><trkpt lat="43.756707" lon="11.5993246"><ele>995.6</ele><time>2026-05-03T09:23:21.013Z</time></trkpt><trkpt lat="43.7566342" lon="11.5992573"><ele>997.0</ele><time>2026-05-03T09:23:22.013Z</time></trkpt><trkpt lat="43.7565726" lon="11.5991551"><ele>996.9999999999999</ele><time>2026-05-03T09:23:23.012Z</time></trkpt><trkpt lat="43.7565105" lon="11.5990743"><ele>997.0</ele><time>2026-05-03T09:23:24.013Z</time></trkpt><trkpt lat="43.7564906" lon="11.598988"><ele>997.0</ele><time>2026-05-03T09:23:25.013Z</time></trkpt><trkpt lat="43.7564496" lon="11.5988949"><ele>997.0</ele><time>2026-05-03T09:23:26.012Z</time></trkpt><trkpt lat="43.7564684" lon="11.5987669"><ele>996.9999999999999</ele><time>2026-05-03T09:23:27.012Z</time></trkpt><trkpt lat="43.7564557" lon="11.5986495"><ele>997.0</ele><time>2026-05-03T09:23:28.013Z</time></trkpt><trkpt lat="43.7564271" lon="11.5985707"><ele>995.142857142857</ele><time>2026-05-03T09:23:29.013Z</time></trkpt><trkpt lat="43.7563899" lon="11.5984746"><ele>993.2857142857142</ele><time>2026-05-03T09:23:30.011Z</time></trkpt><trkpt lat="43.7563518" lon="11.598389"><ele>991.4285714285714</ele><time>2026-05-03T09:23:31.013Z</time></trkpt><trkpt lat="43.7563196" lon="11.5983084"><ele>989.5714285714286</ele><time>2026-05-03T09:23:32.013Z</time></trkpt><trkpt lat="43.7562621" lon="11.5982532"><ele>987.7142857142858</ele><time>2026-05-03T09:23:33.012Z</time></trkpt><trkpt lat="43.7561859" lon="11.598234"><ele>985.857142857143</ele><time>2026-05-03T09:23:34.013Z</time></trkpt><trkpt lat="43.7561246" lon="11.5981842"><ele>984.0000000000001</ele><time>2026-05-03T09:23:35.013Z</time></trkpt><trkpt lat="43.7560648" lon="11.5980483"><ele>984.0</ele><time>2026-05-03T09:23:37.012Z</time></trkpt><trkpt lat="43.7561659" lon="11.5979786"><ele>984.0000000000001</ele><time>2026-05-03T09:23:39.012Z</time></trkpt><trkpt lat="43.756249" lon="11.597944"><ele>984.0000000000001</ele><time>2026-05-03T09:23:41.012Z</time></trkpt><trkpt lat="43.7563316" lon="11.5979054"><ele>984.0</ele><time>2026-05-03T09:23:42.013Z</time></trkpt><trkpt lat="43.7564142" lon="11.5978684"><ele>984.0</ele><time>2026-05-03T09:23:43.011Z</time></trkpt><trkpt lat="43.7565226" lon="11.5978796"><ele>984.0</ele><time>2026-05-03T09:23:44.013Z</time></trkpt><trkpt lat="43.7566041" lon="11.5978474"><ele>984.0</ele><time>2026-05-03T09:23:45.012Z</time></trkpt><trkpt lat="43.7566559" lon="11.5977204"><ele>984.0</ele><time>2026-05-03T09:23:46.012Z</time></trkpt><trkpt lat="43.7567179" lon="11.5976565"><ele>984.0</ele><time>2026-05-03T09:23:47.013Z</time></trkpt><trkpt lat="43.7567704" lon="11.597592"><ele>984.0</ele><time>2026-05-03T09:23:48.012Z</time></trkpt><trkpt lat="43.7568365" lon="11.5975572"><ele>984.0</ele><time>2026-05-03T09:23:49.012Z</time></trkpt><trkpt lat="43.7568996" lon="11.5974958"><ele>984.5714285714287</ele><time>2026-05-03T09:23:50.013Z</time></trkpt><trkpt lat="43.7569343" lon="11.5974106"><ele>985.1428571428571</ele><time>2026-05-03T09:23:51.013Z</time></trkpt><trkpt lat="43.7569892" lon="11.597352"><ele>985.7142857142858</ele><time>2026-05-03T09:23:53.011Z</time></trkpt><trkpt lat="43.7570138" lon="11.5972671"><ele>986.2857142857143</ele><time>2026-05-03T09:23:56.013Z</time></trkpt><trkpt lat="43.7570469" lon="11.5971564"><ele>986.8571428571429</ele><time>2026-05-03T09:23:58.012Z</time></trkpt><trkpt lat="43.7570661" lon="11.5970602"><ele>987.4285714285714</ele><time>2026-05-03T09:23:59.012Z</time></trkpt><trkpt lat="43.757089" lon="11.5969706"><ele>988.0</ele><time>2026-05-03T09:24:00.012Z</time></trkpt><trkpt lat="43.7571848" lon="11.5968754"><ele>987.9999999999999</ele><time>2026-05-03T09:24:02.011Z</time></trkpt><trkpt lat="43.7572484" lon="11.5968246"><ele>988.0</ele><time>2026-05-03T09:24:03.012Z</time></trkpt><trkpt lat="43.7572981" lon="11.596769"><ele>988.0</ele><time>2026-05-03T09:24:04.013Z</time></trkpt><trkpt lat="43.7573506" lon="11.5966713"><ele>988.0</ele><time>2026-05-03T09:24:05.012Z</time></trkpt><trkpt lat="43.7573841" lon="11.5965597"><ele>987.9999999999999</ele><time>2026-05-03T09:24:07.012Z</time></trkpt><trkpt lat="43.757496" lon="11.5964883"><ele>988.0</ele><time>2026-05-03T09:24:10.013Z</time></trkpt><trkpt lat="43.7575768" lon="11.5965114"><ele>987.9999999999999</ele><time>2026-05-03T09:24:11.013Z</time></trkpt><trkpt lat="43.7576613" lon="11.5965388"><ele>988.0</ele><time>2026-05-03T09:24:12.012Z</time></trkpt><trkpt lat="43.7577406" lon="11.5965683"><ele>988.0</ele><time>2026-05-03T09:24:13.013Z</time></trkpt><trkpt lat="43.7577954" lon="11.5966216"><ele>988.0</ele><time>2026-05-03T09:24:14.013Z</time></trkpt><trkpt lat="43.7578489" lon="11.5966949"><ele>987.9999999999999</ele><time>2026-05-03T09:24:15.013Z</time></trkpt><trkpt lat="43.7579028" lon="11.5967754"><ele>988.0</ele><time>2026-05-03T09:24:16.012Z</time></trkpt><trkpt lat="43.7579482" lon="11.5969065"><ele>988.8</ele><time>2026-05-03T09:24:17.012Z</time></trkpt><trkpt lat="43.757988" lon="11.5969962"><ele>989.5999999999999</ele><time>2026-05-03T09:24:18.012Z</time></trkpt><trkpt lat="43.7581101" lon="11.5970563"><ele>990.4000000000001</ele><time>2026-05-03T09:24:20.013Z</time></trkpt><trkpt lat="43.7581874" lon="11.5970617"><ele>991.2</ele><time>2026-05-03T09:24:21.014Z</time></trkpt><trkpt lat="43.7582749" lon="11.5970427"><ele>992.0</ele><time>2026-05-03T09:24:22.013Z</time></trkpt><trkpt lat="43.7583543" lon="11.5970383"><ele>992.0</ele><time>2026-05-03T09:24:23.013Z</time></trkpt><trkpt lat="43.7584445" lon="11.5970299"><ele>992.0</ele><time>2026-05-03T09:24:24.014Z</time></trkpt><trkpt lat="43.7585241" lon="11.5969585"><ele>992.0</ele><time>2026-05-03T09:24:25.013Z</time></trkpt><trkpt lat="43.7586161" lon="11.5968884"><ele>992.0</ele><time>2026-05-03T09:24:26.013Z</time></trkpt><trkpt lat="43.7587008" lon="11.5968017"><ele>992.0</ele><time>2026-05-03T09:24:27.014Z</time></trkpt><trkpt lat="43.7587675" lon="11.5967225"><ele>991.6</ele><time>2026-05-03T09:24:28.013Z</time></trkpt><trkpt lat="43.758837" lon="11.5966408"><ele>991.2</ele><time>2026-05-03T09:24:29.014Z</time></trkpt><trkpt lat="43.7588917" lon="11.5966955"><ele>990.8</ele><time>2026-05-03T09:24:30.014Z</time></trkpt><trkpt lat="43.758956" lon="11.5967639"><ele>990.4</ele><time>2026-05-03T09:24:31.013Z</time></trkpt><trkpt lat="43.7590186" lon="11.5969065"><ele>990.0</ele><time>2026-05-03T09:24:33.014Z</time></trkpt><trkpt lat="43.7591538" lon="11.5969428"><ele>990.0</ele><time>2026-05-03T09:24:35.014Z</time></trkpt><trkpt lat="43.7592376" lon="11.5969534"><ele>990.0</ele><time>2026-05-03T09:24:36.014Z</time></trkpt><trkpt lat="43.7593164" lon="11.5969696"><ele>990.0</ele><time>2026-05-03T09:24:37.013Z</time></trkpt><trkpt lat="43.7594056" lon="11.5970149"><ele>990.0</ele><time>2026-05-03T09:24:38.014Z</time></trkpt><trkpt lat="43.7594755" lon="11.5970282"><ele>990.0</ele><time>2026-05-03T09:24:39.013Z</time></trkpt><trkpt lat="43.7595887" lon="11.5970122"><ele>990.0</ele><time>2026-05-03T09:24:41.013Z</time></trkpt><trkpt lat="43.7596611" lon="11.596947"><ele>989.4</ele><time>2026-05-03T09:24:42.014Z</time></trkpt><trkpt lat="43.7597363" lon="11.596806"><ele>988.8</ele><time>2026-05-03T09:24:43.014Z</time></trkpt><trkpt lat="43.7597913" lon="11.5967241"><ele>988.2</ele><time>2026-05-03T09:24:44.012Z</time></trkpt><trkpt lat="43.7598554" lon="11.596642"><ele>987.6</ele><time>2026-05-03T09:24:45.013Z</time></trkpt><trkpt lat="43.7599464" lon="11.5965607"><ele>987.0</ele><time>2026-05-03T09:24:46.013Z</time></trkpt><trkpt lat="43.7600306" lon="11.596478"><ele>987.0</ele><time>2026-05-03T09:24:47.014Z</time></trkpt><trkpt lat="43.7601359" lon="11.5964537"><ele>987.0</ele><time>2026-05-03T09:24:48.013Z</time></trkpt><trkpt lat="43.7602212" lon="11.5964269"><ele>987.0</ele><time>2026-05-03T09:24:49.012Z</time></trkpt><trkpt lat="43.7602908" lon="11.5963929"><ele>987.0</ele><time>2026-05-03T09:24:50.012Z</time></trkpt><trkpt lat="43.7603711" lon="11.5962671"><ele>987.0</ele><time>2026-05-03T09:24:52.013Z</time></trkpt><trkpt lat="43.7603748" lon="11.5961511"><ele>986.8</ele><time>2026-05-03T09:24:53.013Z</time></trkpt><trkpt lat="43.7603742" lon="11.5960101"><ele>986.6</ele><time>2026-05-03T09:24:54.014Z</time></trkpt><trkpt lat="43.7603989" lon="11.5958687"><ele>986.3999999999999</ele><time>2026-05-03T09:24:55.014Z</time></trkpt><trkpt lat="43.7604337" lon="11.5957575"><ele>986.1999999999999</ele><time>2026-05-03T09:24:56.013Z</time></trkpt><trkpt lat="43.7604761" lon="11.5956474"><ele>986.0</ele><time>2026-05-03T09:24:57.014Z</time></trkpt><trkpt lat="43.760515" lon="11.595527"><ele>986.0</ele><time>2026-05-03T09:24:58.014Z</time></trkpt><trkpt lat="43.760519" lon="11.5954175"><ele>985.9999999999999</ele><time>2026-05-03T09:24:59.013Z</time></trkpt><trkpt lat="43.7605352" lon="11.5953138"><ele>985.9999999999999</ele><time>2026-05-03T09:25:00.013Z</time></trkpt><trkpt lat="43.7605565" lon="11.5952147"><ele>986.0</ele><time>2026-05-03T09:25:02.014Z</time></trkpt><trkpt lat="43.7606361" lon="11.5951428"><ele>986.0</ele><time>2026-05-03T09:25:04.014Z</time></trkpt><trkpt lat="43.7607577" lon="11.5950779"><ele>988.0</ele><time>2026-05-03T09:25:06.013Z</time></trkpt><trkpt lat="43.7608201" lon="11.595003"><ele>989.9999999999999</ele><time>2026-05-03T09:25:07.013Z</time></trkpt><trkpt lat="43.7608798" lon="11.5949167"><ele>991.9999999999999</ele><time>2026-05-03T09:25:08.014Z</time></trkpt><trkpt lat="43.7609233" lon="11.5948137"><ele>994.0</ele><time>2026-05-03T09:25:09.014Z</time></trkpt><trkpt lat="43.7609285" lon="11.594662"><ele>996.0</ele><time>2026-05-03T09:25:10.013Z</time></trkpt><trkpt lat="43.760946" lon="11.5945263"><ele>998.1999999999999</ele><time>2026-05-03T09:25:11.014Z</time></trkpt><trkpt lat="43.7609482" lon="11.5943766"><ele>1000.3999999999999</ele><time>2026-05-03T09:25:12.014Z</time></trkpt><trkpt lat="43.7609452" lon="11.5942452"><ele>1002.6</ele><time>2026-05-03T09:25:13.014Z</time></trkpt><trkpt lat="43.7609482" lon="11.5941161"><ele>1004.8</ele><time>2026-05-03T09:25:14.013Z</time></trkpt><trkpt lat="43.7609632" lon="11.5939936"><ele>1007.0</ele><time>2026-05-03T09:25:15.014Z</time></trkpt><trkpt lat="43.7609911" lon="11.5938725"><ele>1007.0000000000001</ele><time>2026-05-03T09:25:16.013Z</time></trkpt><trkpt lat="43.7610208" lon="11.5937677"><ele>1007.0</ele><time>2026-05-03T09:25:17.014Z</time></trkpt><trkpt lat="43.7610699" lon="11.5936691"><ele>1007.0</ele><time>2026-05-03T09:25:18.013Z</time></trkpt><trkpt lat="43.7611303" lon="11.5935549"><ele>1007.0</ele><time>2026-05-03T09:25:19.014Z</time></trkpt><trkpt lat="43.7611883" lon="11.5934614"><ele>1007.0000000000001</ele><time>2026-05-03T09:25:20.014Z</time></trkpt><trkpt lat="43.7612502" lon="11.5934024"><ele>1007.0</ele><time>2026-05-03T09:25:21.013Z</time></trkpt><trkpt lat="43.7613126" lon="11.5933454"><ele>1009.0000000000001</ele><time>2026-05-03T09:25:22.014Z</time></trkpt><trkpt lat="43.7613991" lon="11.593326"><ele>1011.0</ele><time>2026-05-03T09:25:23.014Z</time></trkpt><trkpt lat="43.7614724" lon="11.5932686"><ele>1013.0</ele><time>2026-05-03T09:25:24.014Z</time></trkpt><trkpt lat="43.7615922" lon="11.5931986"><ele>1015.0</ele><time>2026-05-03T09:25:26.013Z</time></trkpt><trkpt lat="43.7616542" lon="11.5931618"><ele>1017.0000000000001</ele><time>2026-05-03T09:25:28.013Z</time></trkpt><trkpt lat="43.7617074" lon="11.593115"><ele>1019.0</ele><time>2026-05-03T09:25:31.014Z</time></trkpt><trkpt lat="43.761802" lon="11.5930374"><ele>1018.0000000000001</ele><time>2026-05-03T09:25:34.014Z</time></trkpt><trkpt lat="43.7618905" lon="11.5930008"><ele>1017.0</ele><time>2026-05-03T09:25:36.012Z</time></trkpt><trkpt lat="43.7619701" lon="11.5929719"><ele>1016.0</ele><time>2026-05-03T09:25:39.013Z</time></trkpt><trkpt lat="43.7620419" lon="11.5929849"><ele>1015.0</ele><time>2026-05-03T09:25:41.014Z</time></trkpt><trkpt lat="43.7621356" lon="11.5929783"><ele>1014.0000000000001</ele><time>2026-05-03T09:25:42.014Z</time></trkpt><trkpt lat="43.762222" lon="11.5929524"><ele>1013.0</ele><time>2026-05-03T09:25:44.014Z</time></trkpt><trkpt lat="43.7622932" lon="11.5929139"><ele>1013.0</ele><time>2026-05-03T09:25:45.014Z</time></trkpt><trkpt lat="43.7623635" lon="11.5928619"><ele>1013.0</ele><time>2026-05-03T09:25:46.014Z</time></trkpt><trkpt lat="43.7624415" lon="11.5928137"><ele>1013.0</ele><time>2026-05-03T09:25:47.014Z</time></trkpt><trkpt lat="43.7625693" lon="11.592752"><ele>1013.0</ele><time>2026-05-03T09:25:48.013Z</time></trkpt><trkpt lat="43.7626396" lon="11.5927091"><ele>1013.0</ele><time>2026-05-03T09:25:49.012Z</time></trkpt><trkpt lat="43.7626683" lon="11.5926035"><ele>1011.5999999999999</ele><time>2026-05-03T09:25:50.014Z</time></trkpt><trkpt lat="43.7627261" lon="11.5925239"><ele>1010.1999999999999</ele><time>2026-05-03T09:25:51.013Z</time></trkpt><trkpt lat="43.7626857" lon="11.5923933"><ele>1008.8</ele><time>2026-05-03T09:25:53.012Z</time></trkpt><trkpt lat="43.762692" lon="11.5922099"><ele>1007.4</ele><time>2026-05-03T09:25:55.014Z</time></trkpt><trkpt lat="43.762755" lon="11.5920777"><ele>1006.0</ele><time>2026-05-03T09:25:56.014Z</time></trkpt><trkpt lat="43.7627952" lon="11.5919651"><ele>1005.9999999999999</ele><time>2026-05-03T09:25:57.012Z</time></trkpt><trkpt lat="43.7628218" lon="11.5918603"><ele>1006.0</ele><time>2026-05-03T09:25:58.014Z</time></trkpt><trkpt lat="43.7628526" lon="11.5917623"><ele>1006.0</ele><time>2026-05-03T09:25:59.013Z</time></trkpt><trkpt lat="43.7629125" lon="11.5916929"><ele>1006.0</ele><time>2026-05-03T09:26:00.013Z</time></trkpt><trkpt lat="43.7629765" lon="11.5916075"><ele>1005.9999999999999</ele><time>2026-05-03T09:26:01.013Z</time></trkpt><trkpt lat="43.7630328" lon="11.5915339"><ele>1006.0</ele><time>2026-05-03T09:26:02.013Z</time></trkpt><trkpt lat="43.7630915" lon="11.5914526"><ele>1006.0</ele><time>2026-05-03T09:26:03.013Z</time></trkpt><trkpt lat="43.7631356" lon="11.591354"><ele>1005.9999999999999</ele><time>2026-05-03T09:26:04.013Z</time></trkpt><trkpt lat="43.7631851" lon="11.591237"><ele>1005.9999999999999</ele><time>2026-05-03T09:26:05.014Z</time></trkpt><trkpt lat="43.763217" lon="11.591091"><ele>1006.0</ele><time>2026-05-03T09:26:06.012Z</time></trkpt><trkpt lat="43.7632461" lon="11.5909889"><ele>1006.0</ele><time>2026-05-03T09:26:07.014Z</time></trkpt><trkpt lat="43.7632565" lon="11.5908769"><ele>1006.6666666666666</ele><time>2026-05-03T09:26:08.014Z</time></trkpt><trkpt lat="43.7632562" lon="11.5907568"><ele>1007.3333333333333</ele><time>2026-05-03T09:26:09.014Z</time></trkpt><trkpt lat="43.7632083" lon="11.590697"><ele>1008.0</ele><time>2026-05-03T09:26:10.014Z</time></trkpt><trkpt lat="43.76316" lon="11.5906368"><ele>1008.6666666666667</ele><time>2026-05-03T09:26:11.014Z</time></trkpt><trkpt lat="43.7630732" lon="11.5905794"><ele>1009.3333333333334</ele><time>2026-05-03T09:26:12.014Z</time></trkpt><trkpt lat="43.7629887" lon="11.5905245"><ele>1010.0</ele><time>2026-05-03T09:26:13.014Z</time></trkpt><trkpt lat="43.7629323" lon="11.5904707"><ele>1010.0000000000001</ele><time>2026-05-03T09:26:14.014Z</time></trkpt><trkpt lat="43.7628538" lon="11.5904206"><ele>1010.0</ele><time>2026-05-03T09:26:15.013Z</time></trkpt><trkpt lat="43.7628842" lon="11.5903261"><ele>1010.0</ele><time>2026-05-03T09:26:16.012Z</time></trkpt><trkpt lat="43.7629598" lon="11.590216"><ele>1010.0</ele><time>2026-05-03T09:26:18.014Z</time></trkpt><trkpt lat="43.7630011" lon="11.590147"><ele>1010.0000000000001</ele><time>2026-05-03T09:26:19.014Z</time></trkpt><trkpt lat="43.7630415" lon="11.5900687"><ele>1010.0</ele><time>2026-05-03T09:26:20.014Z</time></trkpt><trkpt lat="43.7630151" lon="11.5898932"><ele>1010.2</ele><time>2026-05-03T09:26:22.013Z</time></trkpt><trkpt lat="43.7628986" lon="11.5898464"><ele>1010.4</ele><time>2026-05-03T09:26:24.014Z</time></trkpt><trkpt lat="43.7628172" lon="11.589816"><ele>1010.5999999999999</ele><time>2026-05-03T09:26:25.014Z</time></trkpt><trkpt lat="43.7627127" lon="11.5897488"><ele>1010.8</ele><time>2026-05-03T09:26:27.013Z</time></trkpt><trkpt lat="43.7627083" lon="11.5896486"><ele>1011.0</ele><time>2026-05-03T09:26:29.014Z</time></trkpt><trkpt lat="43.7627923" lon="11.5895631"><ele>1011.0</ele><time>2026-05-03T09:26:30.013Z</time></trkpt><trkpt lat="43.7629015" lon="11.589518"><ele>1010.9999999999999</ele><time>2026-05-03T09:26:31.014Z</time></trkpt><trkpt lat="43.7630093" lon="11.5894772"><ele>1010.9999999999999</ele><time>2026-05-03T09:26:32.014Z</time></trkpt><trkpt lat="43.7631111" lon="11.5894478"><ele>1011.0</ele><time>2026-05-03T09:26:33.014Z</time></trkpt><trkpt lat="43.7632219" lon="11.5894344"><ele>1011.0</ele><time>2026-05-03T09:26:34.014Z</time></trkpt><trkpt lat="43.7633047" lon="11.5894328"><ele>1014.1999999999999</ele><time>2026-05-03T09:26:35.013Z</time></trkpt><trkpt lat="43.7634044" lon="11.5893443"><ele>1017.3999999999999</ele><time>2026-05-03T09:26:37.013Z</time></trkpt><trkpt lat="43.7634491" lon="11.5892759"><ele>1020.6</ele><time>2026-05-03T09:26:38.014Z</time></trkpt><trkpt lat="43.7634859" lon="11.589165"><ele>1023.8</ele><time>2026-05-03T09:26:39.013Z</time></trkpt><trkpt lat="43.7635037" lon="11.5890483"><ele>1027.0</ele><time>2026-05-03T09:26:40.014Z</time></trkpt><trkpt lat="43.7634989" lon="11.5888787"><ele>1027.0</ele><time>2026-05-03T09:26:41.013Z</time></trkpt><trkpt lat="43.7634588" lon="11.5887665"><ele>1027.0</ele><time>2026-05-03T09:26:42.013Z</time></trkpt><trkpt lat="43.763441" lon="11.588619"><ele>1027.0</ele><time>2026-05-03T09:26:44.013Z</time></trkpt><trkpt lat="43.7634618" lon="11.5885352"><ele>1027.0</ele><time>2026-05-03T09:26:45.014Z</time></trkpt><trkpt lat="43.7635208" lon="11.5884525"><ele>1027.0</ele><time>2026-05-03T09:26:46.014Z</time></trkpt><trkpt lat="43.763588" lon="11.5882383"><ele>1025.2</ele><time>2026-05-03T09:26:48.012Z</time></trkpt><trkpt lat="43.7636166" lon="11.5881199"><ele>1023.4000000000001</ele><time>2026-05-03T09:26:49.013Z</time></trkpt><trkpt lat="43.7635977" lon="11.5879778"><ele>1021.5999999999999</ele><time>2026-05-03T09:26:51.013Z</time></trkpt><trkpt lat="43.7635646" lon="11.5878278"><ele>1019.8</ele><time>2026-05-03T09:26:53.013Z</time></trkpt><trkpt lat="43.7636137" lon="11.5877054"><ele>1018.0</ele><time>2026-05-03T09:28:03.014Z</time></trkpt><trkpt lat="43.7635878" lon="11.5875743"><ele>1017.9999999999999</ele><time>2026-05-03T09:28:06.014Z</time></trkpt><trkpt lat="43.7635625" lon="11.5874846"><ele>1018.0</ele><time>2026-05-03T09:28:07.014Z</time></trkpt><trkpt lat="43.7635358" lon="11.5873996"><ele>1018.0</ele><time>2026-05-03T09:28:08.013Z</time></trkpt><trkpt lat="43.7634922" lon="11.5873049"><ele>1018.0</ele><time>2026-05-03T09:28:09.013Z</time></trkpt><trkpt lat="43.763464" lon="11.5872075"><ele>1017.9999999999999</ele><time>2026-05-03T09:28:10.014Z</time></trkpt><trkpt lat="43.7634595" lon="11.5871067"><ele>1018.0</ele><time>2026-05-03T09:28:11.014Z</time></trkpt><trkpt lat="43.7634247" lon="11.5869884"><ele>1021.4999999999999</ele><time>2026-05-03T09:28:12.014Z</time></trkpt><trkpt lat="43.7634016" lon="11.5868615"><ele>1025.0</ele><time>2026-05-03T09:28:13.014Z</time></trkpt><trkpt lat="43.763385" lon="11.5867578"><ele>1028.5</ele><time>2026-05-03T09:28:14.014Z</time></trkpt><trkpt lat="43.7633549" lon="11.5866476"><ele>1032.0</ele><time>2026-05-03T09:28:15.014Z</time></trkpt><trkpt lat="43.7632999" lon="11.586569"><ele>1035.5</ele><time>2026-05-03T09:28:16.014Z</time></trkpt><trkpt lat="43.7632431" lon="11.5864413"><ele>1039.0</ele><time>2026-05-03T09:28:18.013Z</time></trkpt><trkpt lat="43.7633289" lon="11.5863657"><ele>1039.0</ele><time>2026-05-03T09:28:21.013Z</time></trkpt><trkpt lat="43.7634413" lon="11.5863986"><ele>1039.0</ele><time>2026-05-03T09:28:22.014Z</time></trkpt><trkpt lat="43.7635366" lon="11.5864292"><ele>1039.0</ele><time>2026-05-03T09:28:23.013Z</time></trkpt><trkpt lat="43.7636448" lon="11.5864523"><ele>1039.0</ele><time>2026-05-03T09:28:24.014Z</time></trkpt><trkpt lat="43.7637429" lon="11.5864835"><ele>1039.0</ele><time>2026-05-03T09:28:25.013Z</time></trkpt><trkpt lat="43.7638399" lon="11.5865049"><ele>1036.8</ele><time>2026-05-03T09:28:26.012Z</time></trkpt><trkpt lat="43.7639422" lon="11.5865618"><ele>1034.6000000000001</ele><time>2026-05-03T09:28:27.012Z</time></trkpt><trkpt lat="43.7640096" lon="11.5865843"><ele>1032.4</ele><time>2026-05-03T09:28:28.012Z</time></trkpt><trkpt lat="43.7640856" lon="11.5865782"><ele>1030.2</ele><time>2026-05-03T09:28:29.012Z</time></trkpt><trkpt lat="43.7642068" lon="11.5865018"><ele>1028.0</ele><time>2026-05-03T09:28:31.012Z</time></trkpt><trkpt lat="43.7642995" lon="11.5863812"><ele>1028.0</ele><time>2026-05-03T09:28:32.012Z</time></trkpt><trkpt lat="43.7643578" lon="11.5862893"><ele>1028.0</ele><time>2026-05-03T09:28:33.013Z</time></trkpt><trkpt lat="43.7644327" lon="11.5862007"><ele>1028.0</ele><time>2026-05-03T09:28:34.012Z</time></trkpt><trkpt lat="43.7644991" lon="11.586102"><ele>1028.0</ele><time>2026-05-03T09:28:35.013Z</time></trkpt><trkpt lat="43.7645578" lon="11.5859984"><ele>1028.0</ele><time>2026-05-03T09:28:36.013Z</time></trkpt><trkpt lat="43.7646006" lon="11.5858891"><ele>1028.2</ele><time>2026-05-03T09:28:37.012Z</time></trkpt><trkpt lat="43.7646518" lon="11.5857779"><ele>1028.4</ele><time>2026-05-03T09:28:38.011Z</time></trkpt><trkpt lat="43.764711" lon="11.5856925"><ele>1028.6000000000001</ele><time>2026-05-03T09:28:39.013Z</time></trkpt><trkpt lat="43.7647811" lon="11.5856418"><ele>1028.8</ele><time>2026-05-03T09:28:40.012Z</time></trkpt><trkpt lat="43.7648575" lon="11.5855482"><ele>1029.0</ele><time>2026-05-03T09:28:41.011Z</time></trkpt><trkpt lat="43.764931" lon="11.5854594"><ele>1029.0</ele><time>2026-05-03T09:28:42.012Z</time></trkpt><trkpt lat="43.7650226" lon="11.585382"><ele>1029.0</ele><time>2026-05-03T09:28:43.012Z</time></trkpt><trkpt lat="43.7651008" lon="11.5853313"><ele>1029.0</ele><time>2026-05-03T09:28:44.012Z</time></trkpt><trkpt lat="43.7651844" lon="11.5852742"><ele>1029.0</ele><time>2026-05-03T09:28:45.013Z</time></trkpt><trkpt lat="43.7652823" lon="11.5852373"><ele>1029.0</ele><time>2026-05-03T09:28:46.011Z</time></trkpt><trkpt lat="43.7653513" lon="11.5851811"><ele>1031.0</ele><time>2026-05-03T09:28:47.013Z</time></trkpt><trkpt lat="43.7654203" lon="11.5851275"><ele>1033.0</ele><time>2026-05-03T09:28:48.012Z</time></trkpt><trkpt lat="43.7654577" lon="11.5850398"><ele>1035.0</ele><time>2026-05-03T09:28:49.013Z</time></trkpt><trkpt lat="43.7655302" lon="11.5849805"><ele>1037.0</ele><time>2026-05-03T09:28:50.012Z</time></trkpt><trkpt lat="43.7655926" lon="11.5849561"><ele>1039.0</ele><time>2026-05-03T09:28:51.012Z</time></trkpt><trkpt lat="43.7656938" lon="11.5850415"><ele>1041.0</ele><time>2026-05-03T09:28:53.012Z</time></trkpt><trkpt lat="43.7657491" lon="11.5850836"><ele>1041.0</ele><time>2026-05-03T09:28:54.012Z</time></trkpt><trkpt lat="43.7657729" lon="11.5852281"><ele>1041.0</ele><time>2026-05-03T09:28:55.013Z</time></trkpt><trkpt lat="43.7658051" lon="11.5853088"><ele>1041.0</ele><time>2026-05-03T09:28:56.013Z</time></trkpt><trkpt lat="43.7658449" lon="11.5853942"><ele>1041.0</ele><time>2026-05-03T09:28:57.013Z</time></trkpt><trkpt lat="43.7658841" lon="11.5854974"><ele>1041.0</ele><time>2026-05-03T09:28:58.013Z</time></trkpt><trkpt lat="43.7659331" lon="11.5855734"><ele>1041.0</ele><time>2026-05-03T09:28:59.012Z</time></trkpt><trkpt lat="43.7659832" lon="11.5856694"><ele>1046.0</ele><time>2026-05-03T09:29:00.012Z</time></trkpt><trkpt lat="43.7660355" lon="11.5857591"><ele>1051.0</ele><time>2026-05-03T09:29:01.013Z</time></trkpt><trkpt lat="43.7660853" lon="11.5858344"><ele>1056.0</ele><time>2026-05-03T09:29:02.013Z</time></trkpt><trkpt lat="43.7661037" lon="11.5859256"><ele>1061.0</ele><time>2026-05-03T09:29:03.013Z</time></trkpt><trkpt lat="43.7660968" lon="11.5860927"><ele>1066.0</ele><time>2026-05-03T09:29:05.013Z</time></trkpt><trkpt lat="43.7660334" lon="11.5862097"><ele>1060.8</ele><time>2026-05-03T09:29:06.013Z</time></trkpt><trkpt lat="43.7660067" lon="11.5863149"><ele>1055.6</ele><time>2026-05-03T09:29:07.013Z</time></trkpt><trkpt lat="43.7659433" lon="11.586402"><ele>1050.4</ele><time>2026-05-03T09:29:08.012Z</time></trkpt><trkpt lat="43.7658861" lon="11.5865084"><ele>1045.2</ele><time>2026-05-03T09:29:09.013Z</time></trkpt><trkpt lat="43.7658135" lon="11.586623"><ele>1040.0</ele><time>2026-05-03T09:29:10.013Z</time></trkpt><trkpt lat="43.7657376" lon="11.5867229"><ele>1040.0</ele><time>2026-05-03T09:29:11.013Z</time></trkpt><trkpt lat="43.7656244" lon="11.5868782"><ele>1040.0</ele><time>2026-05-03T09:29:12.013Z</time></trkpt><trkpt lat="43.7655244" lon="11.5869956"><ele>1040.0</ele><time>2026-05-03T09:29:13.013Z</time></trkpt><trkpt lat="43.7654278" lon="11.5871333"><ele>1040.0</ele><time>2026-05-03T09:29:14.011Z</time></trkpt><trkpt lat="43.7653506" lon="11.5872773"><ele>1042.2</ele><time>2026-05-03T09:29:15.012Z</time></trkpt><trkpt lat="43.7652928" lon="11.5874441"><ele>1044.4</ele><time>2026-05-03T09:29:16.012Z</time></trkpt><trkpt lat="43.7652697" lon="11.5875919"><ele>1046.6</ele><time>2026-05-03T09:29:17.013Z</time></trkpt><trkpt lat="43.7652693" lon="11.5877194"><ele>1048.8</ele><time>2026-05-03T09:29:18.011Z</time></trkpt><trkpt lat="43.7652861" lon="11.5878585"><ele>1051.0</ele><time>2026-05-03T09:29:19.013Z</time></trkpt><trkpt lat="43.7653258" lon="11.5880077"><ele>1051.3333333333333</ele><time>2026-05-03T09:29:20.012Z</time></trkpt><trkpt lat="43.7653805" lon="11.5881228"><ele>1051.6666666666665</ele><time>2026-05-03T09:29:21.013Z</time></trkpt><trkpt lat="43.7654356" lon="11.5882121"><ele>1052.0</ele><time>2026-05-03T09:29:22.012Z</time></trkpt><trkpt lat="43.7654888" lon="11.5882888"><ele>1052.3333333333333</ele><time>2026-05-03T09:29:23.012Z</time></trkpt><trkpt lat="43.7655808" lon="11.5883647"><ele>1052.6666666666667</ele><time>2026-05-03T09:29:25.012Z</time></trkpt><trkpt lat="43.7656495" lon="11.5883799"><ele>1053.0</ele><time>2026-05-03T09:29:27.013Z</time></trkpt><trkpt lat="43.7656429" lon="11.588276"><ele>1053.0</ele><time>2026-05-03T09:29:32.013Z</time></trkpt><trkpt lat="43.7656081" lon="11.588138"><ele>1053.0</ele><time>2026-05-03T09:29:34.013Z</time></trkpt><trkpt lat="43.7656301" lon="11.5880319"><ele>1053.0</ele><time>2026-05-03T09:29:36.013Z</time></trkpt><trkpt lat="43.7657158" lon="11.5879615"><ele>1053.0</ele><time>2026-05-03T09:29:38.013Z</time></trkpt><trkpt lat="43.7658421" lon="11.5879649"><ele>1053.0</ele><time>2026-05-03T09:29:40.012Z</time></trkpt><trkpt lat="43.7659502" lon="11.5879737"><ele>1055.8571428571427</ele><time>2026-05-03T09:29:41.013Z</time></trkpt><trkpt lat="43.7660305" lon="11.5879812"><ele>1058.7142857142858</ele><time>2026-05-03T09:29:42.012Z</time></trkpt><trkpt lat="43.7661001" lon="11.5879855"><ele>1061.5714285714284</ele><time>2026-05-03T09:29:43.012Z</time></trkpt><trkpt lat="43.7661653" lon="11.5880106"><ele>1064.4285714285713</ele><time>2026-05-03T09:29:44.013Z</time></trkpt><trkpt lat="43.7662308" lon="11.5880305"><ele>1067.2857142857142</ele><time>2026-05-03T09:29:45.013Z</time></trkpt><trkpt lat="43.7662962" lon="11.5880455"><ele>1070.142857142857</ele><time>2026-05-03T09:29:46.012Z</time></trkpt><trkpt lat="43.7663585" lon="11.5880661"><ele>1073.0</ele><time>2026-05-03T09:29:47.013Z</time></trkpt><trkpt lat="43.7664223" lon="11.5880806"><ele>1073.0</ele><time>2026-05-03T09:29:48.013Z</time></trkpt><trkpt lat="43.7664919" lon="11.5881101"><ele>1073.0</ele><time>2026-05-03T09:29:49.013Z</time></trkpt><trkpt lat="43.7665571" lon="11.5881201"><ele>1073.0</ele><time>2026-05-03T09:29:50.011Z</time></trkpt><trkpt lat="43.7666643" lon="11.5880935"><ele>1073.0</ele><time>2026-05-03T09:29:52.013Z</time></trkpt><trkpt lat="43.7667601" lon="11.5880697"><ele>1073.0</ele><time>2026-05-03T09:29:54.013Z</time></trkpt><trkpt lat="43.7668317" lon="11.5880477"><ele>1073.0</ele><time>2026-05-03T09:29:56.012Z</time></trkpt><trkpt lat="43.7669349" lon="11.5880106"><ele>1078.6</ele><time>2026-05-03T09:29:58.012Z</time></trkpt><trkpt lat="43.7669949" lon="11.5879835"><ele>1084.1999999999998</ele><time>2026-05-03T09:29:59.012Z</time></trkpt><trkpt lat="43.7671366" lon="11.5879509"><ele>1089.8</ele><time>2026-05-03T09:30:01.012Z</time></trkpt><trkpt lat="43.7672149" lon="11.587919"><ele>1095.3999999999999</ele><time>2026-05-03T09:30:02.012Z</time></trkpt><trkpt lat="43.7672985" lon="11.5879108"><ele>1101.0</ele><time>2026-05-03T09:30:03.013Z</time></trkpt><trkpt lat="43.7674222" lon="11.5878854"><ele>1101.0</ele><time>2026-05-03T09:30:05.013Z</time></trkpt><trkpt lat="43.7674882" lon="11.5878868"><ele>1101.0</ele><time>2026-05-03T09:30:06.013Z</time></trkpt><trkpt lat="43.7675548" lon="11.5878752"><ele>1101.0</ele><time>2026-05-03T09:30:07.013Z</time></trkpt><trkpt lat="43.7676174" lon="11.5878418"><ele>1101.0</ele><time>2026-05-03T09:30:08.013Z</time></trkpt><trkpt lat="43.7676884" lon="11.5878392"><ele>1101.0</ele><time>2026-05-03T09:30:09.013Z</time></trkpt><trkpt lat="43.7677627" lon="11.5878153"><ele>1101.0</ele><time>2026-05-03T09:30:10.013Z</time></trkpt><trkpt lat="43.7678335" lon="11.5877733"><ele>1101.0</ele><time>2026-05-03T09:30:11.013Z</time></trkpt><trkpt lat="43.767962" lon="11.5877434"><ele>1103.5</ele><time>2026-05-03T09:30:13.012Z</time></trkpt><trkpt lat="43.7680329" lon="11.587721"><ele>1106.0</ele><time>2026-05-03T09:30:14.012Z</time></trkpt><trkpt lat="43.7681178" lon="11.5876943"><ele>1108.5</ele><time>2026-05-03T09:30:15.013Z</time></trkpt><trkpt lat="43.7682013" lon="11.5876638"><ele>1111.0</ele><time>2026-05-03T09:30:16.013Z</time></trkpt><trkpt lat="43.7682913" lon="11.5876301"><ele>1113.5</ele><time>2026-05-03T09:30:17.013Z</time></trkpt><trkpt lat="43.7683768" lon="11.5876135"><ele>1116.0</ele><time>2026-05-03T09:30:18.012Z</time></trkpt><trkpt lat="43.7684568" lon="11.5875988"><ele>1118.5</ele><time>2026-05-03T09:30:19.013Z</time></trkpt><trkpt lat="43.7685269" lon="11.5875823"><ele>1121.0</ele><time>2026-05-03T09:30:20.013Z</time></trkpt><trkpt lat="43.768608" lon="11.5875631"><ele>1123.5</ele><time>2026-05-03T09:30:21.013Z</time></trkpt><trkpt lat="43.7686958" lon="11.5875413"><ele>1126.0</ele><time>2026-05-03T09:30:22.012Z</time></trkpt><trkpt lat="43.7687637" lon="11.5875167"><ele>1128.5</ele><time>2026-05-03T09:30:23.012Z</time></trkpt><trkpt lat="43.7688288" lon="11.5874991"><ele>1131.0</ele><time>2026-05-03T09:30:24.013Z</time></trkpt><trkpt lat="43.7689508" lon="11.5874856"><ele>1131.0</ele><time>2026-05-03T09:30:26.013Z</time></trkpt><trkpt lat="43.7690683" lon="11.5874676"><ele>1131.0</ele><time>2026-05-03T09:30:28.013Z</time></trkpt><trkpt lat="43.7691687" lon="11.587451"><ele>1131.0</ele><time>2026-05-03T09:30:30.012Z</time></trkpt><trkpt lat="43.7693032" lon="11.5874231"><ele>1131.0</ele><time>2026-05-03T09:30:32.013Z</time></trkpt><trkpt lat="43.7693931" lon="11.5874007"><ele>1131.0</ele><time>2026-05-03T09:30:33.013Z</time></trkpt><trkpt lat="43.7694605" lon="11.5873868"><ele>1131.1666666666667</ele><time>2026-05-03T09:30:34.012Z</time></trkpt><trkpt lat="43.7695242" lon="11.5873772"><ele>1131.3333333333333</ele><time>2026-05-03T09:30:35.012Z</time></trkpt><trkpt lat="43.7696002" lon="11.5874067"><ele>1131.5</ele><time>2026-05-03T09:30:37.013Z</time></trkpt><trkpt lat="43.7696573" lon="11.5875204"><ele>1131.6666666666665</ele><time>2026-05-03T09:30:39.012Z</time></trkpt><trkpt lat="43.7696618" lon="11.587639"><ele>1131.8333333333333</ele><time>2026-05-03T09:30:40.012Z</time></trkpt><trkpt lat="43.7696697" lon="11.5877547"><ele>1132.0</ele><time>2026-05-03T09:30:41.013Z</time></trkpt><trkpt lat="43.7696903" lon="11.587874"><ele>1132.0</ele><time>2026-05-03T09:30:42.013Z</time></trkpt><trkpt lat="43.7697147" lon="11.5880105"><ele>1132.0</ele><time>2026-05-03T09:30:43.013Z</time></trkpt><trkpt lat="43.7697617" lon="11.5881452"><ele>1132.0</ele><time>2026-05-03T09:30:44.013Z</time></trkpt><trkpt lat="43.7698009" lon="11.5882898"><ele>1132.0</ele><time>2026-05-03T09:30:45.013Z</time></trkpt><trkpt lat="43.7698529" lon="11.5884387"><ele>1132.0</ele><time>2026-05-03T09:30:46.013Z</time></trkpt><trkpt lat="43.7699027" lon="11.5885883"><ele>1131.75</ele><time>2026-05-03T09:30:47.013Z</time></trkpt><trkpt lat="43.7699506" lon="11.5887374"><ele>1131.5</ele><time>2026-05-03T09:30:48.013Z</time></trkpt><trkpt lat="43.7700042" lon="11.5888821"><ele>1131.25</ele><time>2026-05-03T09:30:49.012Z</time></trkpt><trkpt lat="43.770057" lon="11.5890288"><ele>1131.0</ele><time>2026-05-03T09:30:50.011Z</time></trkpt><trkpt lat="43.7701026" lon="11.5891761"><ele>1131.0</ele><time>2026-05-03T09:30:51.013Z</time></trkpt><trkpt lat="43.7701498" lon="11.5893213"><ele>1131.0</ele><time>2026-05-03T09:30:52.012Z</time></trkpt><trkpt lat="43.7701979" lon="11.5894729"><ele>1131.0</ele><time>2026-05-03T09:30:53.012Z</time></trkpt><trkpt lat="43.7702499" lon="11.5896286"><ele>1131.0</ele><time>2026-05-03T09:30:54.013Z</time></trkpt><trkpt lat="43.7703008" lon="11.5897887"><ele>1131.25</ele><time>2026-05-03T09:30:55.013Z</time></trkpt><trkpt lat="43.7703478" lon="11.589953"><ele>1131.5</ele><time>2026-05-03T09:30:56.011Z</time></trkpt><trkpt lat="43.7703886" lon="11.5901117"><ele>1131.75</ele><time>2026-05-03T09:30:57.012Z</time></trkpt><trkpt lat="43.770426" lon="11.5902745"><ele>1132.0</ele><time>2026-05-03T09:30:58.013Z</time></trkpt><trkpt lat="43.770446" lon="11.5904437"><ele>1132.0</ele><time>2026-05-03T09:30:59.013Z</time></trkpt><trkpt lat="43.7704613" lon="11.5906103"><ele>1132.0</ele><time>2026-05-03T09:31:00.012Z</time></trkpt><trkpt lat="43.7704685" lon="11.5907858"><ele>1132.0</ele><time>2026-05-03T09:31:01.013Z</time></trkpt><trkpt lat="43.7704641" lon="11.5909778"><ele>1132.0</ele><time>2026-05-03T09:31:02.013Z</time></trkpt><trkpt lat="43.7704472" lon="11.5911792"><ele>1130.5</ele><time>2026-05-03T09:31:03.013Z</time></trkpt><trkpt lat="43.7704359" lon="11.5913697"><ele>1129.0</ele><time>2026-05-03T09:31:04.012Z</time></trkpt><trkpt lat="43.7704296" lon="11.5915563"><ele>1127.5</ele><time>2026-05-03T09:31:05.013Z</time></trkpt><trkpt lat="43.7704208" lon="11.5917416"><ele>1126.0</ele><time>2026-05-03T09:31:06.013Z</time></trkpt><trkpt lat="43.7704179" lon="11.5919255"><ele>1126.75</ele><time>2026-05-03T09:31:07.013Z</time></trkpt><trkpt lat="43.7704094" lon="11.5920984"><ele>1127.5</ele><time>2026-05-03T09:31:08.013Z</time></trkpt><trkpt lat="43.7704133" lon="11.5922587"><ele>1128.25</ele><time>2026-05-03T09:31:09.012Z</time></trkpt><trkpt lat="43.7704139" lon="11.5924353"><ele>1129.0</ele><time>2026-05-03T09:31:10.012Z</time></trkpt><trkpt lat="43.7704112" lon="11.5926217"><ele>1129.0</ele><time>2026-05-03T09:31:11.012Z</time></trkpt><trkpt lat="43.7704239" lon="11.5928075"><ele>1129.0</ele><time>2026-05-03T09:31:12.013Z</time></trkpt><trkpt lat="43.7704384" lon="11.5929926"><ele>1129.0</ele><time>2026-05-03T09:31:13.013Z</time></trkpt><trkpt lat="43.7704562" lon="11.5931604"><ele>1129.0</ele><time>2026-05-03T09:31:14.013Z</time></trkpt><trkpt lat="43.7704858" lon="11.5933182"><ele>1129.8</ele><time>2026-05-03T09:31:15.013Z</time></trkpt><trkpt lat="43.7705065" lon="11.5934562"><ele>1130.6000000000001</ele><time>2026-05-03T09:31:16.012Z</time></trkpt><trkpt lat="43.7705418" lon="11.5935941"><ele>1131.4</ele><time>2026-05-03T09:31:17.012Z</time></trkpt><trkpt lat="43.7705768" lon="11.5937036"><ele>1132.2</ele><time>2026-05-03T09:31:18.013Z</time></trkpt><trkpt lat="43.7706201" lon="11.5937905"><ele>1133.0</ele><time>2026-05-03T09:31:19.013Z</time></trkpt><trkpt lat="43.7706896" lon="11.5938954"><ele>1132.8</ele><time>2026-05-03T09:31:21.013Z</time></trkpt><trkpt lat="43.7707507" lon="11.5940028"><ele>1132.6</ele><time>2026-05-03T09:31:23.012Z</time></trkpt><trkpt lat="43.7708436" lon="11.5940951"><ele>1132.4</ele><time>2026-05-03T09:31:49.013Z</time></trkpt><trkpt lat="43.770914" lon="11.5941745"><ele>1132.2</ele><time>2026-05-03T09:31:50.013Z</time></trkpt><trkpt lat="43.7709775" lon="11.5942389"><ele>1132.0</ele><time>2026-05-03T09:31:51.013Z</time></trkpt><trkpt lat="43.771072" lon="11.5942709"><ele>1132.0</ele><time>2026-05-03T09:31:52.013Z</time></trkpt><trkpt lat="43.7711637" lon="11.5943239"><ele>1132.0</ele><time>2026-05-03T09:31:53.012Z</time></trkpt><trkpt lat="43.7712416" lon="11.5943561"><ele>1132.0</ele><time>2026-05-03T09:31:54.012Z</time></trkpt><trkpt lat="43.7713124" lon="11.5944325"><ele>1132.0</ele><time>2026-05-03T09:31:55.013Z</time></trkpt><trkpt lat="43.7713763" lon="11.594513"><ele>1132.0</ele><time>2026-05-03T09:31:56.013Z</time></trkpt><trkpt lat="43.7714381" lon="11.5946073"><ele>1132.0</ele><time>2026-05-03T09:31:57.013Z</time></trkpt><trkpt lat="43.7715012" lon="11.5947037"><ele>1131.4</ele><time>2026-05-03T09:31:58.011Z</time></trkpt><trkpt lat="43.7715799" lon="11.5947961"><ele>1130.8000000000002</ele><time>2026-05-03T09:31:59.013Z</time></trkpt><trkpt lat="43.771667" lon="11.5949075"><ele>1130.2</ele><time>2026-05-03T09:32:00.012Z</time></trkpt><trkpt lat="43.7717534" lon="11.595007"><ele>1129.6000000000001</ele><time>2026-05-03T09:32:01.013Z</time></trkpt><trkpt lat="43.7718535" lon="11.5950775"><ele>1129.0</ele><time>2026-05-03T09:32:02.013Z</time></trkpt><trkpt lat="43.7719337" lon="11.5951277"><ele>1129.0</ele><time>2026-05-03T09:32:03.013Z</time></trkpt><trkpt lat="43.7720061" lon="11.5951796"><ele>1129.0</ele><time>2026-05-03T09:32:04.013Z</time></trkpt><trkpt lat="43.7720718" lon="11.5952353"><ele>1129.0</ele><time>2026-05-03T09:32:05.013Z</time></trkpt><trkpt lat="43.7721298" lon="11.5952819"><ele>1129.0</ele><time>2026-05-03T09:32:06.013Z</time></trkpt><trkpt lat="43.7721899" lon="11.595343"><ele>1129.0</ele><time>2026-05-03T09:32:07.013Z</time></trkpt><trkpt lat="43.7722643" lon="11.5954044"><ele>1129.0</ele><time>2026-05-03T09:32:08.012Z</time></trkpt><trkpt lat="43.7723142" lon="11.5955018"><ele>1129.1666666666665</ele><time>2026-05-03T09:32:09.013Z</time></trkpt><trkpt lat="43.7724098" lon="11.5956453"><ele>1129.3333333333333</ele><time>2026-05-03T09:32:11.012Z</time></trkpt><trkpt lat="43.7724557" lon="11.5957115"><ele>1129.5</ele><time>2026-05-03T09:32:12.013Z</time></trkpt><trkpt lat="43.7725251" lon="11.5957562"><ele>1129.6666666666667</ele><time>2026-05-03T09:32:13.013Z</time></trkpt><trkpt lat="43.7725909" lon="11.5957775"><ele>1129.8333333333335</ele><time>2026-05-03T09:32:14.013Z</time></trkpt><trkpt lat="43.7726562" lon="11.5958377"><ele>1130.0</ele><time>2026-05-03T09:32:15.012Z</time></trkpt><trkpt lat="43.7727368" lon="11.5958705"><ele>1126.8333333333335</ele><time>2026-05-03T09:32:16.013Z</time></trkpt><trkpt lat="43.7728063" lon="11.5959307"><ele>1123.6666666666667</ele><time>2026-05-03T09:32:17.012Z</time></trkpt><trkpt lat="43.7728663" lon="11.5959891"><ele>1120.5</ele><time>2026-05-03T09:32:18.013Z</time></trkpt><trkpt lat="43.7729596" lon="11.5961133"><ele>1117.3333333333333</ele><time>2026-05-03T09:32:19.012Z</time></trkpt><trkpt lat="43.7730169" lon="11.596187"><ele>1114.1666666666665</ele><time>2026-05-03T09:32:20.012Z</time></trkpt><trkpt lat="43.7730647" lon="11.5962693"><ele>1111.0</ele><time>2026-05-03T09:32:21.013Z</time></trkpt><trkpt lat="43.7731048" lon="11.5963437"><ele>1110.5</ele><time>2026-05-03T09:32:22.012Z</time></trkpt><trkpt lat="43.7731432" lon="11.596422"><ele>1110.0</ele><time>2026-05-03T09:32:23.012Z</time></trkpt><trkpt lat="43.7732348" lon="11.5965555"><ele>1109.5</ele><time>2026-05-03T09:32:25.012Z</time></trkpt><trkpt lat="43.7732858" lon="11.5966106"><ele>1109.0</ele><time>2026-05-03T09:32:26.013Z</time></trkpt><trkpt lat="43.7733304" lon="11.5966778"><ele>1108.5</ele><time>2026-05-03T09:32:27.013Z</time></trkpt><trkpt lat="43.7733917" lon="11.5967428"><ele>1108.0</ele><time>2026-05-03T09:32:28.012Z</time></trkpt><trkpt lat="43.7734783" lon="11.5968273"><ele>1104.7142857142858</ele><time>2026-05-03T09:32:30.013Z</time></trkpt><trkpt lat="43.7735381" lon="11.5968754"><ele>1101.4285714285713</ele><time>2026-05-03T09:32:31.013Z</time></trkpt><trkpt lat="43.7736068" lon="11.5969323"><ele>1098.142857142857</ele><time>2026-05-03T09:32:32.012Z</time></trkpt><trkpt lat="43.7736384" lon="11.5970127"><ele>1094.857142857143</ele><time>2026-05-03T09:32:33.013Z</time></trkpt><trkpt lat="43.7736776" lon="11.5970813"><ele>1091.5714285714284</ele><time>2026-05-03T09:32:34.012Z</time></trkpt><trkpt lat="43.7736982" lon="11.5971958"><ele>1088.2857142857142</ele><time>2026-05-03T09:32:35.013Z</time></trkpt><trkpt lat="43.7737231" lon="11.5972981"><ele>1085.0</ele><time>2026-05-03T09:32:36.013Z</time></trkpt><trkpt lat="43.7737486" lon="11.5974465"><ele>1082.6</ele><time>2026-05-03T09:32:38.013Z</time></trkpt><trkpt lat="43.7737891" lon="11.5975768"><ele>1080.2</ele><time>2026-05-03T09:32:40.013Z</time></trkpt><trkpt lat="43.7738598" lon="11.5975993"><ele>1077.8</ele><time>2026-05-03T09:32:42.013Z</time></trkpt><trkpt lat="43.7739503" lon="11.5975058"><ele>1075.4</ele><time>2026-05-03T09:32:44.012Z</time></trkpt><trkpt lat="43.7740134" lon="11.5974299"><ele>1073.0</ele><time>2026-05-03T09:32:45.013Z</time></trkpt><trkpt lat="43.7740816" lon="11.5973514"><ele>1073.0</ele><time>2026-05-03T09:32:46.013Z</time></trkpt><trkpt lat="43.7741454" lon="11.5972789"><ele>1073.0</ele><time>2026-05-03T09:32:47.012Z</time></trkpt><trkpt lat="43.7742159" lon="11.5972103"><ele>1073.0</ele><time>2026-05-03T09:32:48.012Z</time></trkpt><trkpt lat="43.7742885" lon="11.5971482"><ele>1073.0</ele><time>2026-05-03T09:32:49.013Z</time></trkpt><trkpt lat="43.7743568" lon="11.5970986"><ele>1073.0</ele><time>2026-05-03T09:32:50.013Z</time></trkpt><trkpt lat="43.774422" lon="11.5970643"><ele>1073.0</ele><time>2026-05-03T09:32:51.012Z</time></trkpt><trkpt lat="43.7744826" lon="11.5970304"><ele>1072.0</ele><time>2026-05-03T09:32:52.013Z</time></trkpt><trkpt lat="43.7746042" lon="11.596969"><ele>1071.0</ele><time>2026-05-03T09:32:54.012Z</time></trkpt><trkpt lat="43.7746685" lon="11.5969317"><ele>1070.0</ele><time>2026-05-03T09:32:55.011Z</time></trkpt><trkpt lat="43.774733" lon="11.5968846"><ele>1069.0</ele><time>2026-05-03T09:32:56.013Z</time></trkpt><trkpt lat="43.7747966" lon="11.5968464"><ele>1068.0</ele><time>2026-05-03T09:32:57.012Z</time></trkpt><trkpt lat="43.7748626" lon="11.5968075"><ele>1067.0</ele><time>2026-05-03T09:32:58.013Z</time></trkpt><trkpt lat="43.7749224" lon="11.5967633"><ele>1066.9999999999998</ele><time>2026-05-03T09:32:59.013Z</time></trkpt><trkpt lat="43.7749894" lon="11.5967209"><ele>1067.0</ele><time>2026-05-03T09:33:00.012Z</time></trkpt><trkpt lat="43.7750539" lon="11.5966731"><ele>1067.0</ele><time>2026-05-03T09:33:01.013Z</time></trkpt><trkpt lat="43.7751211" lon="11.5966221"><ele>1067.0</ele><time>2026-05-03T09:33:02.012Z</time></trkpt><trkpt lat="43.7751895" lon="11.5965786"><ele>1067.0</ele><time>2026-05-03T09:33:03.013Z</time></trkpt><trkpt lat="43.7752528" lon="11.596538"><ele>1066.9999999999998</ele><time>2026-05-03T09:33:04.013Z</time></trkpt><trkpt lat="43.7753224" lon="11.5964943"><ele>1067.0</ele><time>2026-05-03T09:33:05.012Z</time></trkpt><trkpt lat="43.7754054" lon="11.5964472"><ele>1064.6</ele><time>2026-05-03T09:33:06.012Z</time></trkpt><trkpt lat="43.7754856" lon="11.5963938"><ele>1062.2</ele><time>2026-05-03T09:33:07.012Z</time></trkpt><trkpt lat="43.7755683" lon="11.5963341"><ele>1059.8</ele><time>2026-05-03T09:33:08.012Z</time></trkpt><trkpt lat="43.7756497" lon="11.5962662"><ele>1057.4</ele><time>2026-05-03T09:33:09.012Z</time></trkpt><trkpt lat="43.775732" lon="11.5961962"><ele>1055.0</ele><time>2026-05-03T09:33:10.013Z</time></trkpt><trkpt lat="43.7758072" lon="11.5961285"><ele>1055.0</ele><time>2026-05-03T09:33:11.013Z</time></trkpt><trkpt lat="43.7758762" lon="11.5960665"><ele>1055.0</ele><time>2026-05-03T09:33:12.013Z</time></trkpt><trkpt lat="43.7759347" lon="11.5959979"><ele>1055.0</ele><time>2026-05-03T09:33:13.013Z</time></trkpt><trkpt lat="43.7759918" lon="11.5959227"><ele>1055.0</ele><time>2026-05-03T09:33:14.012Z</time></trkpt><trkpt lat="43.7760499" lon="11.595834"><ele>1055.0</ele><time>2026-05-03T09:33:15.012Z</time></trkpt><trkpt lat="43.776106" lon="11.5957415"><ele>1055.0</ele><time>2026-05-03T09:33:16.012Z</time></trkpt><trkpt lat="43.7761615" lon="11.5956451"><ele>1054.4</ele><time>2026-05-03T09:33:17.013Z</time></trkpt><trkpt lat="43.7762227" lon="11.5955462"><ele>1053.8</ele><time>2026-05-03T09:33:18.012Z</time></trkpt><trkpt lat="43.7762883" lon="11.5954499"><ele>1053.2</ele><time>2026-05-03T09:33:19.012Z</time></trkpt><trkpt lat="43.7763576" lon="11.5953675"><ele>1052.6</ele><time>2026-05-03T09:33:20.011Z</time></trkpt><trkpt lat="43.7764238" lon="11.5952925"><ele>1052.0</ele><time>2026-05-03T09:33:21.013Z</time></trkpt><trkpt lat="43.7764929" lon="11.5952237"><ele>1052.0</ele><time>2026-05-03T09:33:22.012Z</time></trkpt><trkpt lat="43.7765642" lon="11.5951588"><ele>1052.0</ele><time>2026-05-03T09:33:23.013Z</time></trkpt><trkpt lat="43.7766363" lon="11.5951007"><ele>1052.0</ele><time>2026-05-03T09:33:24.013Z</time></trkpt><trkpt lat="43.7767132" lon="11.5950453"><ele>1052.0</ele><time>2026-05-03T09:33:25.012Z</time></trkpt><trkpt lat="43.7767863" lon="11.5949886"><ele>1052.0</ele><time>2026-05-03T09:33:26.013Z</time></trkpt><trkpt lat="43.7768475" lon="11.5949347"><ele>1052.0</ele><time>2026-05-03T09:33:27.012Z</time></trkpt><trkpt lat="43.7768905" lon="11.5947968"><ele>1051.8</ele><time>2026-05-03T09:33:29.012Z</time></trkpt><trkpt lat="43.7768447" lon="11.5946505"><ele>1051.6</ele><time>2026-05-03T09:33:31.012Z</time></trkpt><trkpt lat="43.7767837" lon="11.5945911"><ele>1051.3999999999999</ele><time>2026-05-03T09:33:32.013Z</time></trkpt><trkpt lat="43.7767036" lon="11.5945206"><ele>1051.2</ele><time>2026-05-03T09:33:33.013Z</time></trkpt><trkpt lat="43.7766382" lon="11.5944445"><ele>1051.0</ele><time>2026-05-03T09:33:34.013Z</time></trkpt><trkpt lat="43.7765935" lon="11.5943249"><ele>1049.5</ele><time>2026-05-03T09:33:35.012Z</time></trkpt><trkpt lat="43.7765846" lon="11.5942151"><ele>1048.0</ele><time>2026-05-03T09:33:36.013Z</time></trkpt><trkpt lat="43.7765941" lon="11.5941029"><ele>1046.5</ele><time>2026-05-03T09:33:37.013Z</time></trkpt><trkpt lat="43.7766208" lon="11.5939782"><ele>1045.0</ele><time>2026-05-03T09:33:38.013Z</time></trkpt><trkpt lat="43.7766655" lon="11.5938654"><ele>1043.5</ele><time>2026-05-03T09:33:39.012Z</time></trkpt><trkpt lat="43.7767154" lon="11.5937692"><ele>1042.0</ele><time>2026-05-03T09:33:40.013Z</time></trkpt><trkpt lat="43.7767758" lon="11.5936964"><ele>1041.1666666666665</ele><time>2026-05-03T09:33:41.013Z</time></trkpt><trkpt lat="43.7768393" lon="11.5936526"><ele>1040.3333333333333</ele><time>2026-05-03T09:33:42.013Z</time></trkpt><trkpt lat="43.7769142" lon="11.5936349"><ele>1039.5</ele><time>2026-05-03T09:33:43.012Z</time></trkpt><trkpt lat="43.7769978" lon="11.5936081"><ele>1038.6666666666667</ele><time>2026-05-03T09:33:44.012Z</time></trkpt><trkpt lat="43.7770833" lon="11.5935769"><ele>1037.8333333333335</ele><time>2026-05-03T09:33:45.011Z</time></trkpt><trkpt lat="43.7771742" lon="11.5935437"><ele>1037.0</ele><time>2026-05-03T09:33:46.012Z</time></trkpt><trkpt lat="43.7772684" lon="11.5934978"><ele>1037.0</ele><time>2026-05-03T09:33:47.013Z</time></trkpt><trkpt lat="43.7773675" lon="11.5934442"><ele>1037.0</ele><time>2026-05-03T09:33:48.012Z</time></trkpt><trkpt lat="43.77745" lon="11.5933873"><ele>1037.0</ele><time>2026-05-03T09:33:49.012Z</time></trkpt><trkpt lat="43.7775589" lon="11.5933311"><ele>1037.0</ele><time>2026-05-03T09:33:50.013Z</time></trkpt><trkpt lat="43.7776532" lon="11.593276"><ele>1037.0</ele><time>2026-05-03T09:33:51.013Z</time></trkpt><trkpt lat="43.7777545" lon="11.5932218"><ele>1037.4</ele><time>2026-05-03T09:33:52.013Z</time></trkpt><trkpt lat="43.7778456" lon="11.5931647"><ele>1037.8000000000002</ele><time>2026-05-03T09:33:53.011Z</time></trkpt><trkpt lat="43.7779391" lon="11.5931058"><ele>1038.2</ele><time>2026-05-03T09:33:54.012Z</time></trkpt><trkpt lat="43.7780478" lon="11.5930696"><ele>1038.6000000000001</ele><time>2026-05-03T09:33:55.013Z</time></trkpt><trkpt lat="43.7781256" lon="11.5930097"><ele>1039.0</ele><time>2026-05-03T09:33:56.012Z</time></trkpt><trkpt lat="43.7781928" lon="11.5929532"><ele>1039.0</ele><time>2026-05-03T09:33:57.011Z</time></trkpt><trkpt lat="43.778255" lon="11.5928809"><ele>1039.0</ele><time>2026-05-03T09:33:58.012Z</time></trkpt><trkpt lat="43.778304" lon="11.5928117"><ele>1039.0</ele><time>2026-05-03T09:33:59.012Z</time></trkpt><trkpt lat="43.77835" lon="11.5927074"><ele>1039.0</ele><time>2026-05-03T09:34:01.012Z</time></trkpt><trkpt lat="43.7784359" lon="11.5926173"><ele>1039.0</ele><time>2026-05-03T09:34:04.013Z</time></trkpt><trkpt lat="43.7785582" lon="11.5925422"><ele>1035.6000000000001</ele><time>2026-05-03T09:34:06.013Z</time></trkpt><trkpt lat="43.7786419" lon="11.5925012"><ele>1032.2</ele><time>2026-05-03T09:34:07.013Z</time></trkpt><trkpt lat="43.7787358" lon="11.5924548"><ele>1028.8000000000002</ele><time>2026-05-03T09:34:08.013Z</time></trkpt><trkpt lat="43.7788395" lon="11.5924108"><ele>1025.4</ele><time>2026-05-03T09:34:09.013Z</time></trkpt><trkpt lat="43.7789467" lon="11.592388"><ele>1022.0</ele><time>2026-05-03T09:34:10.012Z</time></trkpt><trkpt lat="43.7790485" lon="11.5923868"><ele>1022.0</ele><time>2026-05-03T09:34:11.012Z</time></trkpt><trkpt lat="43.7791484" lon="11.5923958"><ele>1022.0</ele><time>2026-05-03T09:34:12.012Z</time></trkpt><trkpt lat="43.77925" lon="11.5924254"><ele>1022.0</ele><time>2026-05-03T09:34:13.011Z</time></trkpt><trkpt lat="43.7793554" lon="11.5924775"><ele>1022.0</ele><time>2026-05-03T09:34:14.013Z</time></trkpt><trkpt lat="43.7794486" lon="11.5925595"><ele>1022.0</ele><time>2026-05-03T09:34:15.013Z</time></trkpt><trkpt lat="43.7795298" lon="11.592666"><ele>1021.4000000000001</ele><time>2026-05-03T09:34:16.012Z</time></trkpt><trkpt lat="43.779589" lon="11.5927907"><ele>1020.8000000000001</ele><time>2026-05-03T09:34:17.012Z</time></trkpt><trkpt lat="43.7796234" lon="11.5929301"><ele>1020.2</ele><time>2026-05-03T09:34:18.012Z</time></trkpt><trkpt lat="43.7796338" lon="11.5930793"><ele>1019.6</ele><time>2026-05-03T09:34:19.013Z</time></trkpt><trkpt lat="43.7796235" lon="11.5932338"><ele>1019.0</ele><time>2026-05-03T09:34:20.012Z</time></trkpt><trkpt lat="43.7796044" lon="11.5933881"><ele>1019.0</ele><time>2026-05-03T09:34:21.013Z</time></trkpt><trkpt lat="43.7795843" lon="11.5935434"><ele>1019.0000000000001</ele><time>2026-05-03T09:34:22.013Z</time></trkpt><trkpt lat="43.7795702" lon="11.593697"><ele>1019.0000000000001</ele><time>2026-05-03T09:34:23.013Z</time></trkpt><trkpt lat="43.7795667" lon="11.5938477"><ele>1019.0</ele><time>2026-05-03T09:34:24.013Z</time></trkpt><trkpt lat="43.7795751" lon="11.5939849"><ele>1019.0</ele><time>2026-05-03T09:34:25.012Z</time></trkpt><trkpt lat="43.7795909" lon="11.5941004"><ele>1018.5000000000001</ele><time>2026-05-03T09:34:26.013Z</time></trkpt><trkpt lat="43.7796067" lon="11.5941942"><ele>1018.0</ele><time>2026-05-03T09:34:27.013Z</time></trkpt><trkpt lat="43.7796319" lon="11.5943282"><ele>1017.5</ele><time>2026-05-03T09:34:29.013Z</time></trkpt><trkpt lat="43.7796821" lon="11.5944151"><ele>1017.0</ele><time>2026-05-03T09:34:31.013Z</time></trkpt><trkpt lat="43.7797456" lon="11.5943892"><ele>1016.5000000000001</ele><time>2026-05-03T09:34:34.013Z</time></trkpt><trkpt lat="43.7797601" lon="11.5942785"><ele>1016.0</ele><time>2026-05-03T09:39:54.013Z</time></trkpt><trkpt lat="43.779691" lon="11.5942242"><ele>1016.0000000000001</ele><time>2026-05-03T09:46:30.011Z</time></trkpt><trkpt lat="43.7796284" lon="11.5941698"><ele>1016.0</ele><time>2026-05-03T09:46:43.013Z</time></trkpt><trkpt lat="43.7796114" lon="11.5940111"><ele>1016.0</ele><time>2026-05-03T09:46:45.012Z</time></trkpt><trkpt lat="43.7796034" lon="11.593903"><ele>1016.0</ele><time>2026-05-03T09:46:46.012Z</time></trkpt><trkpt lat="43.7795991" lon="11.593784"><ele>1016.0000000000001</ele><time>2026-05-03T09:46:47.013Z</time></trkpt><trkpt lat="43.7796051" lon="11.5936634"><ele>1016.0</ele><time>2026-05-03T09:46:48.012Z</time></trkpt><trkpt lat="43.7796164" lon="11.5935562"><ele>1016.5000000000001</ele><time>2026-05-03T09:46:49.013Z</time></trkpt><trkpt lat="43.779677" lon="11.5934373"><ele>1017.0</ele><time>2026-05-03T09:46:51.012Z</time></trkpt><trkpt lat="43.779751" lon="11.5933139"><ele>1017.5</ele><time>2026-05-03T09:46:53.013Z</time></trkpt><trkpt lat="43.779786" lon="11.5932336"><ele>1018.0</ele><time>2026-05-03T09:46:54.013Z</time></trkpt><trkpt lat="43.7798145" lon="11.5931475"><ele>1018.5000000000001</ele><time>2026-05-03T09:46:55.013Z</time></trkpt><trkpt lat="43.7798359" lon="11.5930426"><ele>1019.0</ele><time>2026-05-03T09:46:56.012Z</time></trkpt><trkpt lat="43.7798401" lon="11.5929036"><ele>1018.8333333333334</ele><time>2026-05-03T09:46:57.012Z</time></trkpt><trkpt lat="43.7798418" lon="11.5927822"><ele>1018.6666666666667</ele><time>2026-05-03T09:46:58.011Z</time></trkpt><trkpt lat="43.7798069" lon="11.5926697"><ele>1018.5</ele><time>2026-05-03T09:46:59.012Z</time></trkpt><trkpt lat="43.7797681" lon="11.5925805"><ele>1018.3333333333333</ele><time>2026-05-03T09:47:00.012Z</time></trkpt><trkpt lat="43.7797511" lon="11.5924837"><ele>1018.1666666666666</ele><time>2026-05-03T09:47:01.011Z</time></trkpt><trkpt lat="43.7797109" lon="11.592377"><ele>1018.0</ele><time>2026-05-03T09:47:04.012Z</time></trkpt><trkpt lat="43.77967" lon="11.5923018"><ele>1018.0</ele><time>2026-05-03T09:47:09.013Z</time></trkpt><trkpt lat="43.7796153" lon="11.5921728"><ele>1018.0</ele><time>2026-05-03T09:47:13.013Z</time></trkpt><trkpt lat="43.7795892" lon="11.5920354"><ele>1018.0</ele><time>2026-05-03T09:47:14.013Z</time></trkpt><trkpt lat="43.7795338" lon="11.5918421"><ele>1018.0</ele><time>2026-05-03T09:47:16.013Z</time></trkpt><trkpt lat="43.7794916" lon="11.5917402"><ele>1018.0</ele><time>2026-05-03T09:47:17.012Z</time></trkpt><trkpt lat="43.7794418" lon="11.5916673"><ele>1017.0</ele><time>2026-05-03T09:47:18.012Z</time></trkpt><trkpt lat="43.779405" lon="11.5915881"><ele>1016.0</ele><time>2026-05-03T09:47:19.013Z</time></trkpt><trkpt lat="43.7793297" lon="11.5916482"><ele>1015.0</ele><time>2026-05-03T09:47:20.013Z</time></trkpt><trkpt lat="43.7792677" lon="11.5916643"><ele>1014.0</ele><time>2026-05-03T09:47:21.013Z</time></trkpt><trkpt lat="43.7791285" lon="11.5917602"><ele>1013.0</ele><time>2026-05-03T09:47:23.013Z</time></trkpt><trkpt lat="43.7790215" lon="11.591836"><ele>1012.3333333333334</ele><time>2026-05-03T09:47:24.013Z</time></trkpt><trkpt lat="43.7789435" lon="11.5918971"><ele>1011.6666666666667</ele><time>2026-05-03T09:47:25.012Z</time></trkpt><trkpt lat="43.7788838" lon="11.5919493"><ele>1011.0</ele><time>2026-05-03T09:47:26.013Z</time></trkpt><trkpt lat="43.7788222" lon="11.5919804"><ele>1010.3333333333333</ele><time>2026-05-03T09:47:27.013Z</time></trkpt><trkpt lat="43.778759" lon="11.5920137"><ele>1009.6666666666666</ele><time>2026-05-03T09:47:28.012Z</time></trkpt><trkpt lat="43.7787173" lon="11.5919413"><ele>1009.0</ele><time>2026-05-03T09:47:30.012Z</time></trkpt><trkpt lat="43.7787442" lon="11.5917817"><ele>1009.0</ele><time>2026-05-03T09:47:32.013Z</time></trkpt><trkpt lat="43.7787904" lon="11.5916589"><ele>1009.0</ele><time>2026-05-03T09:47:33.013Z</time></trkpt><trkpt lat="43.7788576" lon="11.5915702"><ele>1009.0</ele><time>2026-05-03T09:47:34.013Z</time></trkpt><trkpt lat="43.7789541" lon="11.5914381"><ele>1009.0</ele><time>2026-05-03T09:47:35.012Z</time></trkpt><trkpt lat="43.7790352" lon="11.5913118"><ele>1007.6</ele><time>2026-05-03T09:47:36.013Z</time></trkpt><trkpt lat="43.7790937" lon="11.5911386"><ele>1006.2</ele><time>2026-05-03T09:47:37.013Z</time></trkpt><trkpt lat="43.7791554" lon="11.5910441"><ele>1004.8000000000001</ele><time>2026-05-03T09:47:38.013Z</time></trkpt><trkpt lat="43.7792178" lon="11.5909443"><ele>1003.4000000000001</ele><time>2026-05-03T09:47:39.013Z</time></trkpt><trkpt lat="43.7792511" lon="11.590846"><ele>1002.0</ele><time>2026-05-03T09:47:40.013Z</time></trkpt><trkpt lat="43.7792486" lon="11.5907045"><ele>1002.0</ele><time>2026-05-03T09:47:41.013Z</time></trkpt><trkpt lat="43.7792155" lon="11.5905874"><ele>1002.0</ele><time>2026-05-03T09:47:42.011Z</time></trkpt><trkpt lat="43.7791947" lon="11.5904812"><ele>1002.0</ele><time>2026-05-03T09:47:43.013Z</time></trkpt><trkpt lat="43.7791842" lon="11.5903805"><ele>1002.0</ele><time>2026-05-03T09:47:44.012Z</time></trkpt><trkpt lat="43.7791835" lon="11.5902933"><ele>1002.0</ele><time>2026-05-03T09:47:45.013Z</time></trkpt><trkpt lat="43.7792243" lon="11.5901802"><ele>1002.0</ele><time>2026-05-03T09:47:47.013Z</time></trkpt><trkpt lat="43.7793514" lon="11.5900736"><ele>998.6</ele><time>2026-05-03T09:47:49.013Z</time></trkpt><trkpt lat="43.779493" lon="11.590008"><ele>995.2</ele><time>2026-05-03T09:47:50.013Z</time></trkpt><trkpt lat="43.7795642" lon="11.5899309"><ele>991.8</ele><time>2026-05-03T09:47:51.013Z</time></trkpt><trkpt lat="43.77961" lon="11.5898386"><ele>988.4</ele><time>2026-05-03T09:47:52.013Z</time></trkpt><trkpt lat="43.7796413" lon="11.5897462"><ele>985.0</ele><time>2026-05-03T09:47:53.012Z</time></trkpt><trkpt lat="43.7796488" lon="11.5896344"><ele>985.0</ele><time>2026-05-03T09:47:54.013Z</time></trkpt><trkpt lat="43.779629" lon="11.5895304"><ele>985.0</ele><time>2026-05-03T09:47:55.012Z</time></trkpt><trkpt lat="43.77963" lon="11.5894214"><ele>985.0</ele><time>2026-05-03T09:47:56.013Z</time></trkpt><trkpt lat="43.7796733" lon="11.5892701"><ele>985.0</ele><time>2026-05-03T09:47:58.013Z</time></trkpt><trkpt lat="43.7797776" lon="11.589186"><ele>985.0</ele><time>2026-05-03T09:48:00.013Z</time></trkpt><trkpt lat="43.7798321" lon="11.589075"><ele>985.3333333333333</ele><time>2026-05-03T09:48:02.012Z</time></trkpt><trkpt lat="43.7798704" lon="11.5889886"><ele>985.6666666666666</ele><time>2026-05-03T09:48:03.013Z</time></trkpt><trkpt lat="43.779828" lon="11.5888619"><ele>986.0</ele><time>2026-05-03T09:48:04.013Z</time></trkpt><trkpt lat="43.7798026" lon="11.5887573"><ele>986.3333333333333</ele><time>2026-05-03T09:48:05.013Z</time></trkpt><trkpt lat="43.7797386" lon="11.5886376"><ele>986.6666666666666</ele><time>2026-05-03T09:48:06.011Z</time></trkpt><trkpt lat="43.7797163" lon="11.5885275"><ele>987.0</ele><time>2026-05-03T09:48:07.013Z</time></trkpt><trkpt lat="43.7796967" lon="11.5884236"><ele>987.0</ele><time>2026-05-03T09:48:08.012Z</time></trkpt><trkpt lat="43.7797353" lon="11.5883436"><ele>987.0</ele><time>2026-05-03T09:48:09.013Z</time></trkpt><trkpt lat="43.7798635" lon="11.5883994"><ele>987.0</ele><time>2026-05-03T09:48:11.012Z</time></trkpt><trkpt lat="43.7799338" lon="11.588413"><ele>987.0</ele><time>2026-05-03T09:48:12.012Z</time></trkpt><trkpt lat="43.7800562" lon="11.5884094"><ele>987.0</ele><time>2026-05-03T09:48:13.013Z</time></trkpt><trkpt lat="43.7801485" lon="11.588416"><ele>986.6</ele><time>2026-05-03T09:48:14.012Z</time></trkpt><trkpt lat="43.7802416" lon="11.5884286"><ele>986.2</ele><time>2026-05-03T09:48:15.013Z</time></trkpt><trkpt lat="43.7803575" lon="11.5884461"><ele>985.8</ele><time>2026-05-03T09:48:16.012Z</time></trkpt><trkpt lat="43.7804639" lon="11.5884288"><ele>985.4</ele><time>2026-05-03T09:48:17.013Z</time></trkpt><trkpt lat="43.7805678" lon="11.5884528"><ele>985.0</ele><time>2026-05-03T09:48:18.012Z</time></trkpt><trkpt lat="43.780662" lon="11.5884943"><ele>984.9999999999999</ele><time>2026-05-03T09:48:19.012Z</time></trkpt><trkpt lat="43.7807536" lon="11.5885175"><ele>985.0</ele><time>2026-05-03T09:48:20.013Z</time></trkpt><trkpt lat="43.7808478" lon="11.5885198"><ele>985.0</ele><time>2026-05-03T09:48:21.013Z</time></trkpt><trkpt lat="43.7809245" lon="11.5885026"><ele>985.0</ele><time>2026-05-03T09:48:22.013Z</time></trkpt><trkpt lat="43.7809888" lon="11.5884466"><ele>984.9999999999999</ele><time>2026-05-03T09:48:23.013Z</time></trkpt><trkpt lat="43.7810538" lon="11.588401"><ele>985.0</ele><time>2026-05-03T09:48:24.012Z</time></trkpt><trkpt lat="43.7811218" lon="11.5883334"><ele>985.0</ele><time>2026-05-03T09:48:25.013Z</time></trkpt><trkpt lat="43.7812193" lon="11.5882777"><ele>985.0</ele><time>2026-05-03T09:48:27.013Z</time></trkpt><trkpt lat="43.781297" lon="11.5882662"><ele>985.0</ele><time>2026-05-03T09:48:28.012Z</time></trkpt><trkpt lat="43.7813756" lon="11.5883138"><ele>985.0</ele><time>2026-05-03T09:48:29.012Z</time></trkpt><trkpt lat="43.7814649" lon="11.5883382"><ele>985.0</ele><time>2026-05-03T09:48:30.013Z</time></trkpt><trkpt lat="43.7815675" lon="11.5883579"><ele>985.0</ele><time>2026-05-03T09:48:31.013Z</time></trkpt><trkpt lat="43.7816686" lon="11.5883745"><ele>985.0</ele><time>2026-05-03T09:48:32.013Z</time></trkpt><trkpt lat="43.7817688" lon="11.5884015"><ele>985.0</ele><time>2026-05-03T09:48:33.013Z</time></trkpt><trkpt lat="43.7818697" lon="11.5884304"><ele>985.0</ele><time>2026-05-03T09:48:34.013Z</time></trkpt><trkpt lat="43.7819668" lon="11.5884396"><ele>985.0</ele><time>2026-05-03T09:48:35.013Z</time></trkpt><trkpt lat="43.7820595" lon="11.5884241"><ele>983.4</ele><time>2026-05-03T09:48:36.013Z</time></trkpt><trkpt lat="43.7821444" lon="11.5883659"><ele>981.8</ele><time>2026-05-03T09:48:37.013Z</time></trkpt><trkpt lat="43.782217" lon="11.5882802"><ele>980.2</ele><time>2026-05-03T09:48:38.012Z</time></trkpt><trkpt lat="43.782292" lon="11.5881774"><ele>978.6</ele><time>2026-05-03T09:48:39.013Z</time></trkpt><trkpt lat="43.78234" lon="11.5880324"><ele>977.0</ele><time>2026-05-03T09:48:40.013Z</time></trkpt><trkpt lat="43.7823978" lon="11.5879075"><ele>978.0000000000001</ele><time>2026-05-03T09:48:41.013Z</time></trkpt><trkpt lat="43.7824541" lon="11.5877978"><ele>979.0</ele><time>2026-05-03T09:48:42.013Z</time></trkpt><trkpt lat="43.7825224" lon="11.5877285"><ele>980.0</ele><time>2026-05-03T09:48:43.012Z</time></trkpt><trkpt lat="43.78259" lon="11.5876835"><ele>981.0</ele><time>2026-05-03T09:48:44.012Z</time></trkpt><trkpt lat="43.7826568" lon="11.5876547"><ele>982.0000000000001</ele><time>2026-05-03T09:48:45.012Z</time></trkpt><trkpt lat="43.7827341" lon="11.5877118"><ele>983.0</ele><time>2026-05-03T09:48:46.013Z</time></trkpt><trkpt lat="43.7828061" lon="11.5877188"><ele>980.6666666666667</ele><time>2026-05-03T09:48:47.012Z</time></trkpt><trkpt lat="43.7828721" lon="11.587739"><ele>978.3333333333334</ele><time>2026-05-03T09:48:48.012Z</time></trkpt><trkpt lat="43.7829329" lon="11.5876908"><ele>976.0</ele><time>2026-05-03T09:48:49.012Z</time></trkpt><trkpt lat="43.7829486" lon="11.5875369"><ele>973.6666666666667</ele><time>2026-05-03T09:48:50.012Z</time></trkpt><trkpt lat="43.7829394" lon="11.5874403"><ele>971.3333333333334</ele><time>2026-05-03T09:48:51.013Z</time></trkpt><trkpt lat="43.7829504" lon="11.5873466"><ele>969.0</ele><time>2026-05-03T09:48:52.013Z</time></trkpt><trkpt lat="43.7829611" lon="11.587252"><ele>969.0</ele><time>2026-05-03T09:48:53.012Z</time></trkpt><trkpt lat="43.7829378" lon="11.5871307"><ele>969.0</ele><time>2026-05-03T09:48:54.013Z</time></trkpt><trkpt lat="43.7829488" lon="11.587019"><ele>969.0</ele><time>2026-05-03T09:48:55.013Z</time></trkpt><trkpt lat="43.7829505" lon="11.5869073"><ele>969.0</ele><time>2026-05-03T09:48:56.012Z</time></trkpt><trkpt lat="43.7829806" lon="11.5867942"><ele>969.0</ele><time>2026-05-03T09:48:57.013Z</time></trkpt><trkpt lat="43.7829991" lon="11.5866829"><ele>969.0</ele><time>2026-05-03T09:48:58.012Z</time></trkpt><trkpt lat="43.7830893" lon="11.5865592"><ele>969.6</ele><time>2026-05-03T09:48:59.013Z</time></trkpt><trkpt lat="43.7831432" lon="11.586434"><ele>970.2</ele><time>2026-05-03T09:49:00.013Z</time></trkpt><trkpt lat="43.7831967" lon="11.5863102"><ele>970.8000000000001</ele><time>2026-05-03T09:49:01.012Z</time></trkpt><trkpt lat="43.7832542" lon="11.5861805"><ele>971.4000000000001</ele><time>2026-05-03T09:49:02.012Z</time></trkpt><trkpt lat="43.7833101" lon="11.5860584"><ele>972.0</ele><time>2026-05-03T09:49:03.013Z</time></trkpt><trkpt lat="43.7833742" lon="11.5859518"><ele>972.8</ele><time>2026-05-03T09:49:04.012Z</time></trkpt><trkpt lat="43.783436" lon="11.5858089"><ele>973.6</ele><time>2026-05-03T09:49:05.013Z</time></trkpt><trkpt lat="43.7834788" lon="11.5856927"><ele>974.3999999999999</ele><time>2026-05-03T09:49:06.012Z</time></trkpt><trkpt lat="43.7835324" lon="11.585546"><ele>975.1999999999999</ele><time>2026-05-03T09:49:07.011Z</time></trkpt><trkpt lat="43.7835806" lon="11.5854106"><ele>976.0</ele><time>2026-05-03T09:49:08.012Z</time></trkpt><trkpt lat="43.7836552" lon="11.5852845"><ele>973.5999999999999</ele><time>2026-05-03T09:49:09.012Z</time></trkpt><trkpt lat="43.7837174" lon="11.5851848"><ele>971.1999999999999</ele><time>2026-05-03T09:49:10.013Z</time></trkpt><trkpt lat="43.7837928" lon="11.5850954"><ele>968.8000000000001</ele><time>2026-05-03T09:49:11.013Z</time></trkpt><trkpt lat="43.7838874" lon="11.5850082"><ele>966.4000000000001</ele><time>2026-05-03T09:49:12.013Z</time></trkpt><trkpt lat="43.7839632" lon="11.5849284"><ele>964.0</ele><time>2026-05-03T09:49:13.013Z</time></trkpt><trkpt lat="43.7840775" lon="11.5848832"><ele>964.0</ele><time>2026-05-03T09:49:14.013Z</time></trkpt><trkpt lat="43.7841623" lon="11.5848123"><ele>964.0000000000001</ele><time>2026-05-03T09:49:15.012Z</time></trkpt><trkpt lat="43.7842953" lon="11.5847837"><ele>964.0000000000001</ele><time>2026-05-03T09:49:16.013Z</time></trkpt><trkpt lat="43.7843917" lon="11.5847548"><ele>964.0</ele><time>2026-05-03T09:49:17.012Z</time></trkpt><trkpt lat="43.7845067" lon="11.5847686"><ele>964.0</ele><time>2026-05-03T09:49:18.013Z</time></trkpt><trkpt lat="43.7846226" lon="11.5847824"><ele>962.9999999999999</ele><time>2026-05-03T09:49:19.012Z</time></trkpt><trkpt lat="43.7847105" lon="11.5848106"><ele>962.0</ele><time>2026-05-03T09:49:20.013Z</time></trkpt><trkpt lat="43.784786" lon="11.5848886"><ele>961.0</ele><time>2026-05-03T09:49:21.013Z</time></trkpt><trkpt lat="43.7848647" lon="11.5849162"><ele>960.0</ele><time>2026-05-03T09:49:22.012Z</time></trkpt><trkpt lat="43.7849325" lon="11.5849198"><ele>958.9999999999999</ele><time>2026-05-03T09:49:23.012Z</time></trkpt><trkpt lat="43.7849933" lon="11.584839"><ele>958.0</ele><time>2026-05-03T09:49:25.011Z</time></trkpt><trkpt lat="43.7850228" lon="11.5847594"><ele>958.0</ele><time>2026-05-03T09:49:26.013Z</time></trkpt><trkpt lat="43.7850482" lon="11.5845447"><ele>958.0</ele><time>2026-05-03T09:49:28.013Z</time></trkpt><trkpt lat="43.7850195" lon="11.5844178"><ele>958.0</ele><time>2026-05-03T09:49:29.013Z</time></trkpt><trkpt lat="43.7849994" lon="11.5843024"><ele>958.0</ele><time>2026-05-03T09:49:30.012Z</time></trkpt><trkpt lat="43.784952" lon="11.5841925"><ele>958.0</ele><time>2026-05-03T09:49:31.013Z</time></trkpt><trkpt lat="43.7848953" lon="11.584117"><ele>957.8333333333333</ele><time>2026-05-03T09:49:32.012Z</time></trkpt><trkpt lat="43.7848491" lon="11.5840479"><ele>957.6666666666666</ele><time>2026-05-03T09:49:33.013Z</time></trkpt><trkpt lat="43.7847763" lon="11.5839829"><ele>957.5</ele><time>2026-05-03T09:49:34.013Z</time></trkpt><trkpt lat="43.7846981" lon="11.5839328"><ele>957.3333333333333</ele><time>2026-05-03T09:49:35.013Z</time></trkpt><trkpt lat="43.7846184" lon="11.5838393"><ele>957.1666666666666</ele><time>2026-05-03T09:49:36.013Z</time></trkpt><trkpt lat="43.7845404" lon="11.5837635"><ele>957.0</ele><time>2026-05-03T09:49:37.012Z</time></trkpt><trkpt lat="43.7845054" lon="11.5836718"><ele>956.1666666666666</ele><time>2026-05-03T09:49:38.013Z</time></trkpt><trkpt lat="43.7844809" lon="11.5835847"><ele>955.3333333333333</ele><time>2026-05-03T09:49:39.012Z</time></trkpt><trkpt lat="43.7845014" lon="11.5834576"><ele>954.5</ele><time>2026-05-03T09:49:40.013Z</time></trkpt><trkpt lat="43.7845274" lon="11.583351"><ele>953.6666666666666</ele><time>2026-05-03T09:49:41.013Z</time></trkpt><trkpt lat="43.7845445" lon="11.5832272"><ele>952.8333333333333</ele><time>2026-05-03T09:49:42.013Z</time></trkpt><trkpt lat="43.7845532" lon="11.5831151"><ele>952.0</ele><time>2026-05-03T09:49:43.012Z</time></trkpt><trkpt lat="43.7845992" lon="11.583043"><ele>952.0</ele><time>2026-05-03T09:49:44.012Z</time></trkpt><trkpt lat="43.7846867" lon="11.5830152"><ele>952.0</ele><time>2026-05-03T09:49:45.013Z</time></trkpt><trkpt lat="43.7847941" lon="11.5829499"><ele>952.0</ele><time>2026-05-03T09:49:46.013Z</time></trkpt><trkpt lat="43.7848795" lon="11.582896"><ele>952.0</ele><time>2026-05-03T09:49:47.012Z</time></trkpt><trkpt lat="43.7849562" lon="11.5828132"><ele>952.0</ele><time>2026-05-03T09:49:48.013Z</time></trkpt><trkpt lat="43.7850283" lon="11.5827238"><ele>950.6</ele><time>2026-05-03T09:49:49.011Z</time></trkpt><trkpt lat="43.7850867" lon="11.5825964"><ele>949.2</ele><time>2026-05-03T09:49:50.012Z</time></trkpt><trkpt lat="43.7851476" lon="11.5824718"><ele>947.8</ele><time>2026-05-03T09:49:51.013Z</time></trkpt><trkpt lat="43.7851985" lon="11.5823399"><ele>946.4</ele><time>2026-05-03T09:49:52.012Z</time></trkpt><trkpt lat="43.785254" lon="11.582199"><ele>945.0</ele><time>2026-05-03T09:49:53.012Z</time></trkpt><trkpt lat="43.7852999" lon="11.5820565"><ele>946.8</ele><time>2026-05-03T09:49:54.013Z</time></trkpt><trkpt lat="43.7853443" lon="11.5819187"><ele>948.6</ele><time>2026-05-03T09:49:55.012Z</time></trkpt><trkpt lat="43.7853938" lon="11.5817898"><ele>950.4000000000001</ele><time>2026-05-03T09:49:56.012Z</time></trkpt><trkpt lat="43.7854564" lon="11.5816792"><ele>952.2</ele><time>2026-05-03T09:49:57.013Z</time></trkpt><trkpt lat="43.7855346" lon="11.5815965"><ele>954.0</ele><time>2026-05-03T09:49:58.013Z</time></trkpt><trkpt lat="43.7856303" lon="11.5815306"><ele>954.0</ele><time>2026-05-03T09:49:59.013Z</time></trkpt><trkpt lat="43.7857368" lon="11.5814969"><ele>954.0000000000001</ele><time>2026-05-03T09:50:00.013Z</time></trkpt><trkpt lat="43.7858427" lon="11.5814852"><ele>954.0000000000001</ele><time>2026-05-03T09:50:01.012Z</time></trkpt><trkpt lat="43.7859506" lon="11.58146"><ele>954.0</ele><time>2026-05-03T09:50:02.013Z</time></trkpt><trkpt lat="43.7860483" lon="11.5814248"><ele>954.0</ele><time>2026-05-03T09:50:03.013Z</time></trkpt><trkpt lat="43.7861452" lon="11.5813785"><ele>954.0</ele><time>2026-05-03T09:50:04.013Z</time></trkpt><trkpt lat="43.7862149" lon="11.5812925"><ele>954.0</ele><time>2026-05-03T09:50:05.012Z</time></trkpt><trkpt lat="43.7862487" lon="11.5811909"><ele>954.0</ele><time>2026-05-03T09:50:06.012Z</time></trkpt><trkpt lat="43.7862922" lon="11.581106"><ele>954.0</ele><time>2026-05-03T09:50:07.013Z</time></trkpt><trkpt lat="43.786334" lon="11.5810304"><ele>954.0</ele><time>2026-05-03T09:50:08.013Z</time></trkpt><trkpt lat="43.7864076" lon="11.5809534"><ele>954.0</ele><time>2026-05-03T09:50:10.013Z</time></trkpt><trkpt lat="43.7864818" lon="11.580907"><ele>954.0</ele><time>2026-05-03T09:50:12.011Z</time></trkpt><trkpt lat="43.7865693" lon="11.5808823"><ele>954.0</ele><time>2026-05-03T09:50:14.013Z</time></trkpt><trkpt lat="43.7866922" lon="11.5808755"><ele>954.0</ele><time>2026-05-03T09:50:16.012Z</time></trkpt><trkpt lat="43.786769" lon="11.5808824"><ele>954.0</ele><time>2026-05-03T09:50:17.013Z</time></trkpt><trkpt lat="43.7868453" lon="11.5808755"><ele>954.0</ele><time>2026-05-03T09:50:18.013Z</time></trkpt><trkpt lat="43.7869289" lon="11.5808764"><ele>954.0</ele><time>2026-05-03T09:50:19.013Z</time></trkpt><trkpt lat="43.7870139" lon="11.5808804"><ele>952.6</ele><time>2026-05-03T09:50:20.012Z</time></trkpt><trkpt lat="43.7870948" lon="11.5809071"><ele>951.2</ele><time>2026-05-03T09:50:21.013Z</time></trkpt><trkpt lat="43.7871831" lon="11.5809545"><ele>949.8000000000001</ele><time>2026-05-03T09:50:22.013Z</time></trkpt><trkpt lat="43.787274" lon="11.5810104"><ele>948.4000000000001</ele><time>2026-05-03T09:50:23.012Z</time></trkpt><trkpt lat="43.7873627" lon="11.5810525"><ele>947.0</ele><time>2026-05-03T09:50:24.013Z</time></trkpt><trkpt lat="43.7874456" lon="11.581078"><ele>947.0000000000001</ele><time>2026-05-03T09:50:25.013Z</time></trkpt><trkpt lat="43.7875284" lon="11.5810888"><ele>947.0</ele><time>2026-05-03T09:50:26.011Z</time></trkpt><trkpt lat="43.7876108" lon="11.5810874"><ele>947.0</ele><time>2026-05-03T09:50:27.012Z</time></trkpt><trkpt lat="43.78769" lon="11.5810796"><ele>947.0</ele><time>2026-05-03T09:50:28.013Z</time></trkpt><trkpt lat="43.7877783" lon="11.5810648"><ele>947.0000000000001</ele><time>2026-05-03T09:50:29.012Z</time></trkpt><trkpt lat="43.7878677" lon="11.5810385"><ele>947.0</ele><time>2026-05-03T09:50:30.013Z</time></trkpt><trkpt lat="43.7879611" lon="11.5809926"><ele>946.2</ele><time>2026-05-03T09:50:31.013Z</time></trkpt><trkpt lat="43.7880514" lon="11.5809364"><ele>945.4000000000001</ele><time>2026-05-03T09:50:32.013Z</time></trkpt><trkpt lat="43.7881467" lon="11.5808637"><ele>944.5999999999999</ele><time>2026-05-03T09:50:33.012Z</time></trkpt><trkpt lat="43.7882032" lon="11.5807883"><ele>943.8</ele><time>2026-05-03T09:50:34.012Z</time></trkpt><trkpt lat="43.788287" lon="11.5807063"><ele>943.0</ele><time>2026-05-03T09:50:35.012Z</time></trkpt><trkpt lat="43.7883445" lon="11.580622"><ele>942.9999999999999</ele><time>2026-05-03T09:50:36.013Z</time></trkpt><trkpt lat="43.7884063" lon="11.5805353"><ele>943.0</ele><time>2026-05-03T09:50:37.012Z</time></trkpt><trkpt lat="43.7884571" lon="11.5804522"><ele>943.0</ele><time>2026-05-03T09:50:38.012Z</time></trkpt><trkpt lat="43.7885088" lon="11.5803468"><ele>943.0</ele><time>2026-05-03T09:50:39.011Z</time></trkpt><trkpt lat="43.7885553" lon="11.5802515"><ele>942.9999999999999</ele><time>2026-05-03T09:50:40.012Z</time></trkpt><trkpt lat="43.7886047" lon="11.5801639"><ele>943.0</ele><time>2026-05-03T09:50:41.013Z</time></trkpt><trkpt lat="43.7886581" lon="11.5800937"><ele>941.6666666666666</ele><time>2026-05-03T09:50:42.011Z</time></trkpt><trkpt lat="43.788701" lon="11.5800146"><ele>940.3333333333333</ele><time>2026-05-03T09:50:43.013Z</time></trkpt><trkpt lat="43.7887487" lon="11.5799415"><ele>939.0</ele><time>2026-05-03T09:50:44.012Z</time></trkpt><trkpt lat="43.7887963" lon="11.5798694"><ele>937.6666666666667</ele><time>2026-05-03T09:50:45.013Z</time></trkpt><trkpt lat="43.7888498" lon="11.5797976"><ele>936.3333333333334</ele><time>2026-05-03T09:50:46.012Z</time></trkpt><trkpt lat="43.7889144" lon="11.5797326"><ele>935.0</ele><time>2026-05-03T09:50:47.011Z</time></trkpt><trkpt lat="43.7889914" lon="11.5796598"><ele>935.0000000000001</ele><time>2026-05-03T09:50:48.012Z</time></trkpt><trkpt lat="43.7890712" lon="11.5796021"><ele>935.0</ele><time>2026-05-03T09:50:49.013Z</time></trkpt><trkpt lat="43.7891514" lon="11.5795979"><ele>935.0</ele><time>2026-05-03T09:50:50.013Z</time></trkpt><trkpt lat="43.7892382" lon="11.5795869"><ele>935.0</ele><time>2026-05-03T09:50:51.012Z</time></trkpt><trkpt lat="43.7893215" lon="11.5795668"><ele>935.0000000000001</ele><time>2026-05-03T09:50:52.013Z</time></trkpt><trkpt lat="43.7893884" lon="11.5795216"><ele>935.0</ele><time>2026-05-03T09:50:53.012Z</time></trkpt><trkpt lat="43.7894559" lon="11.5794709"><ele>932.4</ele><time>2026-05-03T09:50:54.013Z</time></trkpt><trkpt lat="43.7895425" lon="11.5793998"><ele>929.8</ele><time>2026-05-03T09:50:55.013Z</time></trkpt><trkpt lat="43.789601" lon="11.579332"><ele>927.2</ele><time>2026-05-03T09:50:56.013Z</time></trkpt><trkpt lat="43.7896429" lon="11.5791212"><ele>924.6</ele><time>2026-05-03T09:50:57.013Z</time></trkpt><trkpt lat="43.7896913" lon="11.579003"><ele>922.0</ele><time>2026-05-03T09:50:58.013Z</time></trkpt><trkpt lat="43.7897309" lon="11.5788891"><ele>921.9999999999999</ele><time>2026-05-03T09:50:59.012Z</time></trkpt><trkpt lat="43.7897478" lon="11.5787869"><ele>922.0</ele><time>2026-05-03T09:51:00.013Z</time></trkpt><trkpt lat="43.7897592" lon="11.5786809"><ele>922.0</ele><time>2026-05-03T09:51:01.013Z</time></trkpt><trkpt lat="43.7897765" lon="11.5785767"><ele>922.0</ele><time>2026-05-03T09:51:02.013Z</time></trkpt><trkpt lat="43.7897774" lon="11.578466"><ele>921.9999999999999</ele><time>2026-05-03T09:51:03.013Z</time></trkpt><trkpt lat="43.7897796" lon="11.5783494"><ele>922.0</ele><time>2026-05-03T09:51:04.012Z</time></trkpt><trkpt lat="43.789832" lon="11.5781851"><ele>922.0</ele><time>2026-05-03T09:51:06.011Z</time></trkpt><trkpt lat="43.7898579" lon="11.5780908"><ele>922.0</ele><time>2026-05-03T09:51:07.011Z</time></trkpt><trkpt lat="43.7898828" lon="11.5779042"><ele>922.0</ele><time>2026-05-03T09:51:09.013Z</time></trkpt><trkpt lat="43.7898776" lon="11.5777445"><ele>922.0</ele><time>2026-05-03T09:51:11.012Z</time></trkpt><trkpt lat="43.7898957" lon="11.5776489"><ele>922.0</ele><time>2026-05-03T09:51:12.012Z</time></trkpt><trkpt lat="43.7899137" lon="11.5775421"><ele>921.9999999999999</ele><time>2026-05-03T09:51:13.012Z</time></trkpt><trkpt lat="43.7899312" lon="11.5774368"><ele>922.0</ele><time>2026-05-03T09:51:14.013Z</time></trkpt><trkpt lat="43.7899618" lon="11.5773311"><ele>922.0</ele><time>2026-05-03T09:51:15.013Z</time></trkpt><trkpt lat="43.7900287" lon="11.5772353"><ele>922.0</ele><time>2026-05-03T09:51:16.013Z</time></trkpt><trkpt lat="43.7900805" lon="11.577152"><ele>921.9999999999999</ele><time>2026-05-03T09:51:17.013Z</time></trkpt><trkpt lat="43.7901344" lon="11.5770697"><ele>922.0</ele><time>2026-05-03T09:51:18.012Z</time></trkpt><trkpt lat="43.7901878" lon="11.5769879"><ele>921.3333333333333</ele><time>2026-05-03T09:51:19.013Z</time></trkpt><trkpt lat="43.7902354" lon="11.5769142"><ele>920.6666666666666</ele><time>2026-05-03T09:51:20.012Z</time></trkpt><trkpt lat="43.790335" lon="11.5768506"><ele>920.0</ele><time>2026-05-03T09:51:22.013Z</time></trkpt><trkpt lat="43.7904177" lon="11.5767781"><ele>919.3333333333333</ele><time>2026-05-03T09:51:24.013Z</time></trkpt><trkpt lat="43.7904687" lon="11.576723"><ele>918.6666666666666</ele><time>2026-05-03T09:51:25.013Z</time></trkpt><trkpt lat="43.7905356" lon="11.5767323"><ele>918.0</ele><time>2026-05-03T09:51:26.012Z</time></trkpt><trkpt lat="43.7906512" lon="11.5767255"><ele>918.0</ele><time>2026-05-03T09:51:28.012Z</time></trkpt><trkpt lat="43.7907582" lon="11.5767425"><ele>918.0</ele><time>2026-05-03T09:51:30.013Z</time></trkpt><trkpt lat="43.7908291" lon="11.5767019"><ele>918.0</ele><time>2026-05-03T09:51:31.012Z</time></trkpt><trkpt lat="43.7908991" lon="11.5766849"><ele>918.0</ele><time>2026-05-03T09:51:32.013Z</time></trkpt><trkpt lat="43.7909686" lon="11.5766491"><ele>918.0</ele><time>2026-05-03T09:51:33.013Z</time></trkpt><trkpt lat="43.7910436" lon="11.5765695"><ele>918.0</ele><time>2026-05-03T09:51:34.013Z</time></trkpt><trkpt lat="43.7911065" lon="11.5764835"><ele>919.1666666666666</ele><time>2026-05-03T09:51:35.012Z</time></trkpt><trkpt lat="43.7911503" lon="11.5763947"><ele>920.3333333333333</ele><time>2026-05-03T09:51:36.013Z</time></trkpt><trkpt lat="43.791195" lon="11.5762961"><ele>921.5</ele><time>2026-05-03T09:51:37.013Z</time></trkpt><trkpt lat="43.7912538" lon="11.5762258"><ele>922.6666666666666</ele><time>2026-05-03T09:51:38.012Z</time></trkpt><trkpt lat="43.7913198" lon="11.5761788"><ele>923.8333333333333</ele><time>2026-05-03T09:51:39.013Z</time></trkpt><trkpt lat="43.7913821" lon="11.5761402"><ele>925.0</ele><time>2026-05-03T09:51:40.013Z</time></trkpt><trkpt lat="43.7914496" lon="11.576098"><ele>920.9999999999999</ele><time>2026-05-03T09:51:41.013Z</time></trkpt><trkpt lat="43.7915492" lon="11.5760675"><ele>917.0</ele><time>2026-05-03T09:51:42.013Z</time></trkpt><trkpt lat="43.7916223" lon="11.5760488"><ele>913.0</ele><time>2026-05-03T09:51:43.012Z</time></trkpt><trkpt lat="43.7917087" lon="11.5760796"><ele>909.0</ele><time>2026-05-03T09:51:44.012Z</time></trkpt><trkpt lat="43.7917846" lon="11.5760839"><ele>904.9999999999999</ele><time>2026-05-03T09:51:45.012Z</time></trkpt><trkpt lat="43.7918481" lon="11.5760836"><ele>901.0</ele><time>2026-05-03T09:51:46.013Z</time></trkpt><trkpt lat="43.7919254" lon="11.5760952"><ele>899.4999999999999</ele><time>2026-05-03T09:51:47.012Z</time></trkpt><trkpt lat="43.7920134" lon="11.5761378"><ele>898.0</ele><time>2026-05-03T09:51:48.013Z</time></trkpt><trkpt lat="43.7920829" lon="11.5762128"><ele>896.5</ele><time>2026-05-03T09:51:49.013Z</time></trkpt><trkpt lat="43.7921475" lon="11.5762657"><ele>895.0</ele><time>2026-05-03T09:51:50.012Z</time></trkpt><trkpt lat="43.7922252" lon="11.5762903"><ele>893.4999999999999</ele><time>2026-05-03T09:51:51.012Z</time></trkpt><trkpt lat="43.7923043" lon="11.5763147"><ele>892.0</ele><time>2026-05-03T09:51:52.013Z</time></trkpt><trkpt lat="43.7923814" lon="11.576264"><ele>896.1666666666666</ele><time>2026-05-03T09:51:53.013Z</time></trkpt><trkpt lat="43.7924492" lon="11.5762474"><ele>900.3333333333333</ele><time>2026-05-03T09:51:54.013Z</time></trkpt><trkpt lat="43.7925542" lon="11.5763062"><ele>904.5</ele><time>2026-05-03T09:51:56.013Z</time></trkpt><trkpt lat="43.7926102" lon="11.5763588"><ele>908.6666666666667</ele><time>2026-05-03T09:51:57.013Z</time></trkpt><trkpt lat="43.7926844" lon="11.5764041"><ele>912.8333333333334</ele><time>2026-05-03T09:51:59.013Z</time></trkpt><trkpt lat="43.7927848" lon="11.5763658"><ele>917.0</ele><time>2026-05-03T09:52:01.013Z</time></trkpt><trkpt lat="43.7927951" lon="11.5762633"><ele>916.0000000000001</ele><time>2026-05-03T09:52:02.013Z</time></trkpt><trkpt lat="43.7928232" lon="11.5761631"><ele>915.0</ele><time>2026-05-03T09:52:03.013Z</time></trkpt><trkpt lat="43.7928726" lon="11.5760831"><ele>914.0</ele><time>2026-05-03T09:52:04.013Z</time></trkpt><trkpt lat="43.792921" lon="11.5759918"><ele>913.0</ele><time>2026-05-03T09:52:05.012Z</time></trkpt><trkpt lat="43.7929636" lon="11.5758885"><ele>912.0000000000001</ele><time>2026-05-03T09:52:06.012Z</time></trkpt><trkpt lat="43.792992" lon="11.5757612"><ele>911.0</ele><time>2026-05-03T09:52:07.013Z</time></trkpt><trkpt lat="43.7930147" lon="11.575635"><ele>911.0000000000001</ele><time>2026-05-03T09:52:08.012Z</time></trkpt><trkpt lat="43.7930149" lon="11.5755361"><ele>911.0</ele><time>2026-05-03T09:52:09.013Z</time></trkpt><trkpt lat="43.7929808" lon="11.5753977"><ele>911.0</ele><time>2026-05-03T09:52:11.012Z</time></trkpt><trkpt lat="43.7929478" lon="11.5753202"><ele>911.0</ele><time>2026-05-03T09:52:12.013Z</time></trkpt><trkpt lat="43.7929239" lon="11.5752362"><ele>911.0000000000001</ele><time>2026-05-03T09:52:13.013Z</time></trkpt><trkpt lat="43.7928946" lon="11.5751397"><ele>911.0</ele><time>2026-05-03T09:52:14.012Z</time></trkpt><trkpt lat="43.7929327" lon="11.5750507"><ele>908.3333333333334</ele><time>2026-05-03T09:52:15.012Z</time></trkpt><trkpt lat="43.7929445" lon="11.5749556"><ele>905.6666666666667</ele><time>2026-05-03T09:52:16.012Z</time></trkpt><trkpt lat="43.7929795" lon="11.5748454"><ele>903.0</ele><time>2026-05-03T09:52:17.013Z</time></trkpt><trkpt lat="43.7930045" lon="11.5747402"><ele>900.3333333333333</ele><time>2026-05-03T09:52:18.013Z</time></trkpt><trkpt lat="43.79307" lon="11.5747296"><ele>897.6666666666666</ele><time>2026-05-03T09:52:19.013Z</time></trkpt><trkpt lat="43.7931235" lon="11.5746538"><ele>895.0</ele><time>2026-05-03T09:52:20.011Z</time></trkpt><trkpt lat="43.7931966" lon="11.574573"><ele>890.4</ele><time>2026-05-03T09:52:21.013Z</time></trkpt><trkpt lat="43.7932592" lon="11.5745024"><ele>885.8</ele><time>2026-05-03T09:52:22.012Z</time></trkpt><trkpt lat="43.7933251" lon="11.5744248"><ele>881.2</ele><time>2026-05-03T09:52:23.013Z</time></trkpt><trkpt lat="43.7934179" lon="11.5743008"><ele>876.6</ele><time>2026-05-03T09:52:25.013Z</time></trkpt><trkpt lat="43.7935226" lon="11.5742936"><ele>872.0</ele><time>2026-05-03T09:52:27.013Z</time></trkpt><trkpt lat="43.7935859" lon="11.5743262"><ele>871.6666666666667</ele><time>2026-05-03T09:52:28.012Z</time></trkpt><trkpt lat="43.7936528" lon="11.5743598"><ele>871.3333333333334</ele><time>2026-05-03T09:52:29.012Z</time></trkpt><trkpt lat="43.7937129" lon="11.5744217"><ele>871.0</ele><time>2026-05-03T09:52:30.011Z</time></trkpt><trkpt lat="43.7937842" lon="11.5744578"><ele>870.6666666666667</ele><time>2026-05-03T09:52:31.013Z</time></trkpt><trkpt lat="43.7938842" lon="11.5744696"><ele>870.3333333333334</ele><time>2026-05-03T09:52:32.013Z</time></trkpt><trkpt lat="43.7939492" lon="11.5744766"><ele>870.0</ele><time>2026-05-03T09:52:33.013Z</time></trkpt><trkpt lat="43.794024" lon="11.5744758"><ele>870.0</ele><time>2026-05-03T09:52:34.012Z</time></trkpt><trkpt lat="43.7941195" lon="11.5744636"><ele>870.0</ele><time>2026-05-03T09:52:35.013Z</time></trkpt><trkpt lat="43.7942439" lon="11.5744759"><ele>870.0</ele><time>2026-05-03T09:52:37.013Z</time></trkpt><trkpt lat="43.7943137" lon="11.57448"><ele>870.0</ele><time>2026-05-03T09:52:38.013Z</time></trkpt><trkpt lat="43.7943809" lon="11.5744794"><ele>870.0</ele><time>2026-05-03T09:52:39.012Z</time></trkpt><trkpt lat="43.7944701" lon="11.5744497"><ele>870.0</ele><time>2026-05-03T09:52:41.013Z</time></trkpt><trkpt lat="43.7945394" lon="11.5744499"><ele>869.6666666666666</ele><time>2026-05-03T09:52:49.013Z</time></trkpt><trkpt lat="43.7946388" lon="11.5744462"><ele>869.3333333333333</ele><time>2026-05-03T09:52:51.013Z</time></trkpt><trkpt lat="43.79472" lon="11.5744208"><ele>869.0</ele><time>2026-05-03T09:52:53.012Z</time></trkpt><trkpt lat="43.7947814" lon="11.5743883"><ele>868.6666666666666</ele><time>2026-05-03T09:52:56.013Z</time></trkpt><trkpt lat="43.7947826" lon="11.5742834"><ele>868.3333333333333</ele><time>2026-05-03T09:52:59.011Z</time></trkpt><trkpt lat="43.7946982" lon="11.5742414"><ele>868.0</ele><time>2026-05-03T09:53:01.012Z</time></trkpt><trkpt lat="43.7946309" lon="11.5741805"><ele>867.9999999999999</ele><time>2026-05-03T09:53:03.013Z</time></trkpt><trkpt lat="43.794656" lon="11.5740945"><ele>868.0</ele><time>2026-05-03T09:53:06.013Z</time></trkpt><trkpt lat="43.7947759" lon="11.5740862"><ele>868.0</ele><time>2026-05-03T09:53:08.013Z</time></trkpt><trkpt lat="43.7948654" lon="11.5740795"><ele>868.0</ele><time>2026-05-03T09:53:09.012Z</time></trkpt><trkpt lat="43.7949334" lon="11.5740455"><ele>867.9999999999999</ele><time>2026-05-03T09:53:10.012Z</time></trkpt><trkpt lat="43.7950081" lon="11.5740175"><ele>868.0</ele><time>2026-05-03T09:53:11.012Z</time></trkpt><trkpt lat="43.795044" lon="11.5739004"><ele>867.9999999999999</ele><time>2026-05-03T09:53:12.013Z</time></trkpt><trkpt lat="43.7950977" lon="11.5738263"><ele>868.0</ele><time>2026-05-03T09:53:13.013Z</time></trkpt><trkpt lat="43.7951549" lon="11.5737671"><ele>868.0</ele><time>2026-05-03T09:53:14.011Z</time></trkpt><trkpt lat="43.7952113" lon="11.5736781"><ele>868.0</ele><time>2026-05-03T09:53:15.012Z</time></trkpt><trkpt lat="43.7952522" lon="11.5735633"><ele>867.9999999999999</ele><time>2026-05-03T09:53:16.012Z</time></trkpt><trkpt lat="43.7952852" lon="11.5734449"><ele>868.0</ele><time>2026-05-03T09:53:17.013Z</time></trkpt><trkpt lat="43.7952998" lon="11.5733204"><ele>866.2</ele><time>2026-05-03T09:53:18.012Z</time></trkpt><trkpt lat="43.795325" lon="11.5731994"><ele>864.4</ele><time>2026-05-03T09:53:19.013Z</time></trkpt><trkpt lat="43.7953437" lon="11.5730792"><ele>862.6000000000001</ele><time>2026-05-03T09:53:20.012Z</time></trkpt><trkpt lat="43.7953784" lon="11.5729586"><ele>860.8000000000001</ele><time>2026-05-03T09:53:21.013Z</time></trkpt><trkpt lat="43.795421" lon="11.5728408"><ele>859.0</ele><time>2026-05-03T09:53:22.013Z</time></trkpt><trkpt lat="43.7954968" lon="11.5727798"><ele>855.4000000000001</ele><time>2026-05-03T09:53:24.012Z</time></trkpt><trkpt lat="43.7955719" lon="11.5728308"><ele>851.8000000000001</ele><time>2026-05-03T09:53:25.012Z</time></trkpt><trkpt lat="43.7956863" lon="11.5728187"><ele>848.2</ele><time>2026-05-03T09:53:27.013Z</time></trkpt><trkpt lat="43.7957761" lon="11.5727916"><ele>844.5999999999999</ele><time>2026-05-03T09:53:29.013Z</time></trkpt><trkpt lat="43.7958698" lon="11.5727265"><ele>841.0</ele><time>2026-05-03T09:53:31.012Z</time></trkpt><trkpt lat="43.7959298" lon="11.5726902"><ele>840.9999999999999</ele><time>2026-05-03T09:53:32.012Z</time></trkpt><trkpt lat="43.7959868" lon="11.5726427"><ele>841.0</ele><time>2026-05-03T09:53:33.012Z</time></trkpt><trkpt lat="43.7960554" lon="11.572603"><ele>841.0</ele><time>2026-05-03T09:53:34.013Z</time></trkpt><trkpt lat="43.796149" lon="11.5725834"><ele>841.0</ele><time>2026-05-03T09:53:35.013Z</time></trkpt><trkpt lat="43.7962301" lon="11.5725868"><ele>840.9999999999999</ele><time>2026-05-03T09:53:36.013Z</time></trkpt><trkpt lat="43.7963161" lon="11.572592"><ele>841.0</ele><time>2026-05-03T09:53:37.013Z</time></trkpt><trkpt lat="43.796407" lon="11.5726191"><ele>840.4999999999999</ele><time>2026-05-03T09:53:38.012Z</time></trkpt><trkpt lat="43.7965045" lon="11.5726503"><ele>840.0</ele><time>2026-05-03T09:53:39.012Z</time></trkpt><trkpt lat="43.7965967" lon="11.5726592"><ele>839.5</ele><time>2026-05-03T09:53:40.012Z</time></trkpt><trkpt lat="43.7966715" lon="11.5726293"><ele>839.0</ele><time>2026-05-03T09:53:41.013Z</time></trkpt><trkpt lat="43.796737" lon="11.5725659"><ele>838.4999999999999</ele><time>2026-05-03T09:53:42.013Z</time></trkpt><trkpt lat="43.7967984" lon="11.5724868"><ele>838.0</ele><time>2026-05-03T09:53:43.013Z</time></trkpt><trkpt lat="43.7968259" lon="11.5723782"><ele>837.9999999999999</ele><time>2026-05-03T09:53:44.012Z</time></trkpt><trkpt lat="43.796829" lon="11.5722287"><ele>838.0</ele><time>2026-05-03T09:53:45.013Z</time></trkpt><trkpt lat="43.7968434" lon="11.5721042"><ele>838.0</ele><time>2026-05-03T09:53:46.013Z</time></trkpt><trkpt lat="43.7968863" lon="11.5720183"><ele>838.0</ele><time>2026-05-03T09:53:47.012Z</time></trkpt><trkpt lat="43.7969455" lon="11.5719624"><ele>837.9999999999999</ele><time>2026-05-03T09:53:48.013Z</time></trkpt><trkpt lat="43.797021" lon="11.5719148"><ele>838.0</ele><time>2026-05-03T09:53:49.013Z</time></trkpt><trkpt lat="43.7970957" lon="11.5718611"><ele>836.0</ele><time>2026-05-03T09:53:50.012Z</time></trkpt><trkpt lat="43.7971743" lon="11.5717895"><ele>834.0</ele><time>2026-05-03T09:53:51.012Z</time></trkpt><trkpt lat="43.7972609" lon="11.5717304"><ele>832.0</ele><time>2026-05-03T09:53:52.013Z</time></trkpt><trkpt lat="43.7973643" lon="11.5717063"><ele>830.0</ele><time>2026-05-03T09:53:53.013Z</time></trkpt><trkpt lat="43.7974682" lon="11.5716656"><ele>828.0</ele><time>2026-05-03T09:53:54.013Z</time></trkpt><trkpt lat="43.7975577" lon="11.5716197"><ele>828.0</ele><time>2026-05-03T09:53:55.013Z</time></trkpt><trkpt lat="43.7976426" lon="11.5715639"><ele>828.0</ele><time>2026-05-03T09:53:56.013Z</time></trkpt><trkpt lat="43.7977321" lon="11.5715388"><ele>828.0</ele><time>2026-05-03T09:53:57.013Z</time></trkpt><trkpt lat="43.7978061" lon="11.5715126"><ele>828.0</ele><time>2026-05-03T09:53:58.013Z</time></trkpt><trkpt lat="43.7978662" lon="11.5714236"><ele>828.0</ele><time>2026-05-03T09:53:59.013Z</time></trkpt><trkpt lat="43.7979285" lon="11.5713237"><ele>828.0</ele><time>2026-05-03T09:54:00.013Z</time></trkpt><trkpt lat="43.7979896" lon="11.571267"><ele>829.2</ele><time>2026-05-03T09:54:01.013Z</time></trkpt><trkpt lat="43.7981163" lon="11.57124"><ele>830.4</ele><time>2026-05-03T09:54:03.012Z</time></trkpt><trkpt lat="43.798199" lon="11.5712434"><ele>831.6</ele><time>2026-05-03T09:54:04.013Z</time></trkpt><trkpt lat="43.7982777" lon="11.571179"><ele>832.8000000000001</ele><time>2026-05-03T09:54:05.012Z</time></trkpt><trkpt lat="43.7983665" lon="11.5711122"><ele>834.0</ele><time>2026-05-03T09:54:06.012Z</time></trkpt><trkpt lat="43.7984378" lon="11.5709975"><ele>830.4000000000001</ele><time>2026-05-03T09:54:07.013Z</time></trkpt><trkpt lat="43.7985225" lon="11.5709074"><ele>826.8</ele><time>2026-05-03T09:54:08.013Z</time></trkpt><trkpt lat="43.7986024" lon="11.5708421"><ele>823.2</ele><time>2026-05-03T09:54:09.013Z</time></trkpt><trkpt lat="43.7986755" lon="11.5708021"><ele>819.5999999999999</ele><time>2026-05-03T09:54:10.013Z</time></trkpt><trkpt lat="43.7987639" lon="11.5707697"><ele>816.0</ele><time>2026-05-03T09:54:11.012Z</time></trkpt><trkpt lat="43.7988577" lon="11.5707327"><ele>816.0</ele><time>2026-05-03T09:54:12.013Z</time></trkpt><trkpt lat="43.7989477" lon="11.5706949"><ele>816.0</ele><time>2026-05-03T09:54:13.012Z</time></trkpt><trkpt lat="43.7990236" lon="11.5706757"><ele>816.0</ele><time>2026-05-03T09:54:14.013Z</time></trkpt><trkpt lat="43.7990937" lon="11.5706914"><ele>816.0</ele><time>2026-05-03T09:54:15.013Z</time></trkpt><trkpt lat="43.7991767" lon="11.5707365"><ele>816.0</ele><time>2026-05-03T09:54:16.013Z</time></trkpt><trkpt lat="43.7992756" lon="11.5707776"><ele>816.0</ele><time>2026-05-03T09:54:17.013Z</time></trkpt><trkpt lat="43.7993732" lon="11.5708005"><ele>813.0</ele><time>2026-05-03T09:54:18.013Z</time></trkpt><trkpt lat="43.7994633" lon="11.5708073"><ele>810.0</ele><time>2026-05-03T09:54:19.013Z</time></trkpt><trkpt lat="43.7995464" lon="11.5708019"><ele>807.0</ele><time>2026-05-03T09:54:20.012Z</time></trkpt><trkpt lat="43.7996068" lon="11.570771"><ele>804.0</ele><time>2026-05-03T09:54:21.012Z</time></trkpt><trkpt lat="43.799658" lon="11.5707184"><ele>801.0</ele><time>2026-05-03T09:54:22.012Z</time></trkpt><trkpt lat="43.7997039" lon="11.5706427"><ele>798.0</ele><time>2026-05-03T09:54:23.013Z</time></trkpt><trkpt lat="43.7997576" lon="11.5705675"><ele>795.0</ele><time>2026-05-03T09:54:24.013Z</time></trkpt><trkpt lat="43.7998065" lon="11.5704988"><ele>795.0</ele><time>2026-05-03T09:54:25.013Z</time></trkpt><trkpt lat="43.7998466" lon="11.5704179"><ele>795.0</ele><time>2026-05-03T09:54:26.013Z</time></trkpt><trkpt lat="43.7998783" lon="11.5703319"><ele>795.0</ele><time>2026-05-03T09:54:27.012Z</time></trkpt><trkpt lat="43.7998904" lon="11.570231"><ele>795.0</ele><time>2026-05-03T09:54:28.012Z</time></trkpt><trkpt lat="43.799915" lon="11.57012"><ele>795.0</ele><time>2026-05-03T09:54:29.013Z</time></trkpt><trkpt lat="43.7999449" lon="11.5699922"><ele>795.0</ele><time>2026-05-03T09:54:30.013Z</time></trkpt><trkpt lat="43.7999715" lon="11.5698869"><ele>794.3333333333334</ele><time>2026-05-03T09:54:31.012Z</time></trkpt><trkpt lat="43.8000059" lon="11.5697776"><ele>793.6666666666667</ele><time>2026-05-03T09:54:32.012Z</time></trkpt><trkpt lat="43.8000441" lon="11.5696715"><ele>793.0</ele><time>2026-05-03T09:54:33.012Z</time></trkpt><trkpt lat="43.8000657" lon="11.5695728"><ele>792.3333333333334</ele><time>2026-05-03T09:54:34.012Z</time></trkpt><trkpt lat="43.8000777" lon="11.5694719"><ele>791.6666666666667</ele><time>2026-05-03T09:54:35.011Z</time></trkpt><trkpt lat="43.8000814" lon="11.5693652"><ele>791.0</ele><time>2026-05-03T09:54:36.012Z</time></trkpt><trkpt lat="43.8000869" lon="11.5692543"><ele>789.0</ele><time>2026-05-03T09:54:37.013Z</time></trkpt><trkpt lat="43.8000886" lon="11.5691336"><ele>787.0</ele><time>2026-05-03T09:54:38.013Z</time></trkpt><trkpt lat="43.8000933" lon="11.5690133"><ele>785.0</ele><time>2026-05-03T09:54:39.012Z</time></trkpt><trkpt lat="43.8000969" lon="11.5688856"><ele>783.0</ele><time>2026-05-03T09:54:40.011Z</time></trkpt><trkpt lat="43.8000982" lon="11.5687409"><ele>781.0</ele><time>2026-05-03T09:54:41.012Z</time></trkpt><trkpt lat="43.8001312" lon="11.5686008"><ele>780.1999999999999</ele><time>2026-05-03T09:54:42.013Z</time></trkpt><trkpt lat="43.8001612" lon="11.5684887"><ele>779.4</ele><time>2026-05-03T09:54:43.012Z</time></trkpt><trkpt lat="43.8001845" lon="11.5683794"><ele>778.6</ele><time>2026-05-03T09:54:44.013Z</time></trkpt><trkpt lat="43.8001981" lon="11.5682886"><ele>777.8</ele><time>2026-05-03T09:54:45.013Z</time></trkpt><trkpt lat="43.8002343" lon="11.5680946"><ele>777.0</ele><time>2026-05-03T09:54:47.012Z</time></trkpt><trkpt lat="43.8002537" lon="11.5679701"><ele>776.5</ele><time>2026-05-03T09:54:48.013Z</time></trkpt><trkpt lat="43.800274" lon="11.5678516"><ele>776.0</ele><time>2026-05-03T09:54:49.013Z</time></trkpt><trkpt lat="43.8002869" lon="11.5677373"><ele>775.5</ele><time>2026-05-03T09:54:50.012Z</time></trkpt><trkpt lat="43.8002828" lon="11.5676273"><ele>775.0</ele><time>2026-05-03T09:54:51.013Z</time></trkpt><trkpt lat="43.8002715" lon="11.5675282"><ele>774.5</ele><time>2026-05-03T09:54:52.012Z</time></trkpt><trkpt lat="43.8002005" lon="11.5674305"><ele>774.0</ele><time>2026-05-03T09:54:54.013Z</time></trkpt><trkpt lat="43.8001266" lon="11.5673968"><ele>774.0</ele><time>2026-05-03T09:54:56.012Z</time></trkpt><trkpt lat="43.8000202" lon="11.5674647"><ele>774.0</ele><time>2026-05-03T09:54:58.013Z</time></trkpt><trkpt lat="43.7999565" lon="11.5675362"><ele>774.0</ele><time>2026-05-03T09:54:59.012Z</time></trkpt><trkpt lat="43.7998928" lon="11.5676554"><ele>774.0</ele><time>2026-05-03T09:55:00.011Z</time></trkpt><trkpt lat="43.7998658" lon="11.5677509"><ele>774.0</ele><time>2026-05-03T09:55:01.011Z</time></trkpt><trkpt lat="43.7998091" lon="11.5678457"><ele>774.5</ele><time>2026-05-03T09:55:02.013Z</time></trkpt><trkpt lat="43.7997578" lon="11.56794"><ele>775.0</ele><time>2026-05-03T09:55:03.012Z</time></trkpt><trkpt lat="43.7997143" lon="11.5680303"><ele>775.5</ele><time>2026-05-03T09:55:04.012Z</time></trkpt><trkpt lat="43.7996901" lon="11.5681403"><ele>776.0</ele><time>2026-05-03T09:55:05.013Z</time></trkpt><trkpt lat="43.7996509" lon="11.5682216"><ele>776.5</ele><time>2026-05-03T09:55:06.013Z</time></trkpt><trkpt lat="43.799588" lon="11.5682708"><ele>777.0</ele><time>2026-05-03T09:55:07.012Z</time></trkpt><trkpt lat="43.7994666" lon="11.5683363"><ele>777.0</ele><time>2026-05-03T09:55:09.013Z</time></trkpt><trkpt lat="43.799405" lon="11.568243"><ele>777.0</ele><time>2026-05-03T09:55:10.012Z</time></trkpt><trkpt lat="43.7992999" lon="11.5681665"><ele>777.0</ele><time>2026-05-03T09:55:12.013Z</time></trkpt><trkpt lat="43.7992311" lon="11.5681409"><ele>777.0</ele><time>2026-05-03T09:55:14.012Z</time></trkpt><trkpt lat="43.7991399" lon="11.5681122"><ele>777.0</ele><time>2026-05-03T09:55:16.013Z</time></trkpt><trkpt lat="43.7990232" lon="11.568086"><ele>774.3333333333334</ele><time>2026-05-03T09:55:18.012Z</time></trkpt><trkpt lat="43.7989093" lon="11.5679944"><ele>771.6666666666666</ele><time>2026-05-03T09:55:20.013Z</time></trkpt><trkpt lat="43.7988609" lon="11.5679034"><ele>769.0</ele><time>2026-05-03T09:55:21.013Z</time></trkpt><trkpt lat="43.7988272" lon="11.5678288"><ele>766.3333333333333</ele><time>2026-05-03T09:55:22.013Z</time></trkpt><trkpt lat="43.7987791" lon="11.5677606"><ele>763.6666666666666</ele><time>2026-05-03T09:55:23.013Z</time></trkpt><trkpt lat="43.7987166" lon="11.5677357"><ele>761.0</ele><time>2026-05-03T09:55:24.013Z</time></trkpt><trkpt lat="43.7986164" lon="11.5677003"><ele>759.5999999999999</ele><time>2026-05-03T09:55:26.013Z</time></trkpt><trkpt lat="43.7985192" lon="11.5676947"><ele>758.2</ele><time>2026-05-03T09:55:28.012Z</time></trkpt><trkpt lat="43.7984317" lon="11.5675439"><ele>756.8</ele><time>2026-05-03T09:55:30.012Z</time></trkpt><trkpt lat="43.7984133" lon="11.5673995"><ele>755.4000000000001</ele><time>2026-05-03T09:55:32.013Z</time></trkpt><trkpt lat="43.7983663" lon="11.5673043"><ele>754.0</ele><time>2026-05-03T09:55:33.013Z</time></trkpt><trkpt lat="43.7983106" lon="11.5672499"><ele>752.0</ele><time>2026-05-03T09:55:34.013Z</time></trkpt><trkpt lat="43.7982624" lon="11.567184"><ele>750.0</ele><time>2026-05-03T09:55:35.013Z</time></trkpt><trkpt lat="43.7981611" lon="11.5671819"><ele>748.0</ele><time>2026-05-03T09:55:36.013Z</time></trkpt><trkpt lat="43.7980833" lon="11.5671575"><ele>746.0</ele><time>2026-05-03T09:55:37.013Z</time></trkpt><trkpt lat="43.7980103" lon="11.5671522"><ele>744.0</ele><time>2026-05-03T09:55:38.013Z</time></trkpt><trkpt lat="43.7979338" lon="11.5671408"><ele>742.0</ele><time>2026-05-03T09:55:39.012Z</time></trkpt><trkpt lat="43.7978544" lon="11.5671714"><ele>742.0</ele><time>2026-05-03T09:55:40.012Z</time></trkpt><trkpt lat="43.7977799" lon="11.5671878"><ele>742.0</ele><time>2026-05-03T09:55:41.013Z</time></trkpt><trkpt lat="43.7977103" lon="11.5671839"><ele>742.0</ele><time>2026-05-03T09:55:42.012Z</time></trkpt><trkpt lat="43.7976164" lon="11.5670772"><ele>742.0</ele><time>2026-05-03T09:55:44.012Z</time></trkpt><trkpt lat="43.7975607" lon="11.5669912"><ele>742.0</ele><time>2026-05-03T09:55:45.011Z</time></trkpt><trkpt lat="43.7975112" lon="11.5669082"><ele>742.0</ele><time>2026-05-03T09:55:46.013Z</time></trkpt><trkpt lat="43.7974633" lon="11.5668324"><ele>738.1666666666667</ele><time>2026-05-03T09:55:47.011Z</time></trkpt><trkpt lat="43.7974101" lon="11.5667466"><ele>734.3333333333334</ele><time>2026-05-03T09:55:48.013Z</time></trkpt><trkpt lat="43.79737" lon="11.5666676"><ele>730.5</ele><time>2026-05-03T09:55:49.013Z</time></trkpt><trkpt lat="43.7973249" lon="11.5665764"><ele>726.6666666666666</ele><time>2026-05-03T09:55:50.013Z</time></trkpt><trkpt lat="43.7972818" lon="11.5664843"><ele>722.8333333333333</ele><time>2026-05-03T09:55:51.013Z</time></trkpt><trkpt lat="43.7972463" lon="11.5663936"><ele>719.0</ele><time>2026-05-03T09:55:52.013Z</time></trkpt><trkpt lat="43.7972238" lon="11.5662971"><ele>719.0</ele><time>2026-05-03T09:55:53.012Z</time></trkpt><trkpt lat="43.7971948" lon="11.5662027"><ele>719.0</ele><time>2026-05-03T09:55:54.012Z</time></trkpt><trkpt lat="43.7971658" lon="11.5661046"><ele>719.0</ele><time>2026-05-03T09:55:55.013Z</time></trkpt><trkpt lat="43.7971431" lon="11.5659962"><ele>719.0</ele><time>2026-05-03T09:55:56.013Z</time></trkpt><trkpt lat="43.7971062" lon="11.565889"><ele>719.0</ele><time>2026-05-03T09:55:57.012Z</time></trkpt><trkpt lat="43.7970846" lon="11.56578"><ele>719.0</ele><time>2026-05-03T09:55:58.012Z</time></trkpt><trkpt lat="43.7970387" lon="11.5656642"><ele>716.4000000000001</ele><time>2026-05-03T09:55:59.013Z</time></trkpt><trkpt lat="43.7970329" lon="11.5655145"><ele>713.8</ele><time>2026-05-03T09:56:01.013Z</time></trkpt><trkpt lat="43.7970259" lon="11.5653428"><ele>711.2</ele><time>2026-05-03T09:56:03.012Z</time></trkpt><trkpt lat="43.7970012" lon="11.5652383"><ele>708.5999999999999</ele><time>2026-05-03T09:56:04.013Z</time></trkpt><trkpt lat="43.7969897" lon="11.5651082"><ele>706.0</ele><time>2026-05-03T09:56:05.012Z</time></trkpt><trkpt lat="43.7969497" lon="11.5649846"><ele>703.5</ele><time>2026-05-03T09:56:06.013Z</time></trkpt><trkpt lat="43.7969185" lon="11.5648388"><ele>701.0</ele><time>2026-05-03T09:56:07.012Z</time></trkpt><trkpt lat="43.7968907" lon="11.5647056"><ele>698.5</ele><time>2026-05-03T09:56:08.012Z</time></trkpt><trkpt lat="43.7968728" lon="11.5646107"><ele>696.0</ele><time>2026-05-03T09:56:09.013Z</time></trkpt><trkpt lat="43.7968572" lon="11.5645057"><ele>693.5</ele><time>2026-05-03T09:56:10.012Z</time></trkpt><trkpt lat="43.7968428" lon="11.5644052"><ele>691.0</ele><time>2026-05-03T09:56:11.012Z</time></trkpt><trkpt lat="43.7968213" lon="11.564308"><ele>690.1666666666667</ele><time>2026-05-03T09:56:12.012Z</time></trkpt><trkpt lat="43.7967642" lon="11.5642431"><ele>689.3333333333334</ele><time>2026-05-03T09:56:13.013Z</time></trkpt><trkpt lat="43.796672" lon="11.5642238"><ele>688.5</ele><time>2026-05-03T09:56:15.013Z</time></trkpt><trkpt lat="43.7966015" lon="11.5642312"><ele>687.6666666666666</ele><time>2026-05-03T09:56:16.012Z</time></trkpt><trkpt lat="43.7965339" lon="11.5642597"><ele>686.8333333333333</ele><time>2026-05-03T09:56:17.012Z</time></trkpt><trkpt lat="43.7964678" lon="11.5643107"><ele>686.0</ele><time>2026-05-03T09:56:18.012Z</time></trkpt><trkpt lat="43.7963509" lon="11.564353"><ele>686.0</ele><time>2026-05-03T09:56:20.013Z</time></trkpt><trkpt lat="43.7962888" lon="11.5642359"><ele>686.0</ele><time>2026-05-03T09:56:22.013Z</time></trkpt><trkpt lat="43.7963159" lon="11.5640928"><ele>686.0</ele><time>2026-05-03T09:56:24.013Z</time></trkpt><trkpt lat="43.7963555" lon="11.5640191"><ele>686.0</ele><time>2026-05-03T09:56:25.013Z</time></trkpt><trkpt lat="43.7963959" lon="11.5639187"><ele>686.0</ele><time>2026-05-03T09:56:26.013Z</time></trkpt><trkpt lat="43.79645" lon="11.5637724"><ele>685.8333333333333</ele><time>2026-05-03T09:56:27.012Z</time></trkpt><trkpt lat="43.7964818" lon="11.5636504"><ele>685.6666666666666</ele><time>2026-05-03T09:56:28.011Z</time></trkpt><trkpt lat="43.7965246" lon="11.563542"><ele>685.5</ele><time>2026-05-03T09:56:29.013Z</time></trkpt><trkpt lat="43.7965577" lon="11.5634577"><ele>685.3333333333334</ele><time>2026-05-03T09:56:30.013Z</time></trkpt><trkpt lat="43.7966012" lon="11.5633569"><ele>685.1666666666667</ele><time>2026-05-03T09:56:32.013Z</time></trkpt><trkpt lat="43.796616" lon="11.5632483"><ele>685.0</ele><time>2026-05-03T10:00:38.013Z</time></trkpt><trkpt lat="43.7966488" lon="11.5631517"><ele>685.0</ele><time>2026-05-03T10:00:40.013Z</time></trkpt><trkpt lat="43.796676" lon="11.563067"><ele>685.0</ele><time>2026-05-03T10:00:41.013Z</time></trkpt><trkpt lat="43.7967012" lon="11.5629385"><ele>685.0</ele><time>2026-05-03T10:00:42.012Z</time></trkpt><trkpt lat="43.796727" lon="11.5628141"><ele>685.0</ele><time>2026-05-03T10:00:43.013Z</time></trkpt><trkpt lat="43.7967671" lon="11.562697"><ele>685.0</ele><time>2026-05-03T10:00:44.012Z</time></trkpt><trkpt lat="43.7968249" lon="11.5626012"><ele>685.0</ele><time>2026-05-03T10:00:45.012Z</time></trkpt><trkpt lat="43.796894" lon="11.56252"><ele>681.8</ele><time>2026-05-03T10:00:46.013Z</time></trkpt><trkpt lat="43.7969721" lon="11.5624328"><ele>678.6</ele><time>2026-05-03T10:00:47.012Z</time></trkpt><trkpt lat="43.7970678" lon="11.5623463"><ele>675.4000000000001</ele><time>2026-05-03T10:00:48.013Z</time></trkpt><trkpt lat="43.7971632" lon="11.5622569"><ele>672.2</ele><time>2026-05-03T10:00:49.013Z</time></trkpt><trkpt lat="43.7972494" lon="11.5621644"><ele>669.0</ele><time>2026-05-03T10:00:50.013Z</time></trkpt><trkpt lat="43.7973302" lon="11.562064"><ele>668.5</ele><time>2026-05-03T10:00:51.012Z</time></trkpt><trkpt lat="43.7974068" lon="11.561949"><ele>668.0</ele><time>2026-05-03T10:00:52.012Z</time></trkpt><trkpt lat="43.797482" lon="11.5618204"><ele>667.5</ele><time>2026-05-03T10:00:53.013Z</time></trkpt><trkpt lat="43.7975603" lon="11.5616974"><ele>667.0</ele><time>2026-05-03T10:00:54.012Z</time></trkpt><trkpt lat="43.7976287" lon="11.5615652"><ele>663.75</ele><time>2026-05-03T10:00:55.012Z</time></trkpt><trkpt lat="43.7977112" lon="11.5614523"><ele>660.5</ele><time>2026-05-03T10:00:56.012Z</time></trkpt><trkpt lat="43.7978032" lon="11.5613544"><ele>657.25</ele><time>2026-05-03T10:00:57.012Z</time></trkpt><trkpt lat="43.797898" lon="11.561275"><ele>654.0</ele><time>2026-05-03T10:00:58.013Z</time></trkpt><trkpt lat="43.7980123" lon="11.5612039"><ele>655.25</ele><time>2026-05-03T10:00:59.013Z</time></trkpt><trkpt lat="43.7981184" lon="11.5611255"><ele>656.5</ele><time>2026-05-03T10:01:00.012Z</time></trkpt><trkpt lat="43.7982263" lon="11.561042"><ele>657.75</ele><time>2026-05-03T10:01:01.013Z</time></trkpt><trkpt lat="43.7983267" lon="11.5609377"><ele>659.0</ele><time>2026-05-03T10:01:02.013Z</time></trkpt><trkpt lat="43.7983949" lon="11.560858"><ele>659.0</ele><time>2026-05-03T10:01:03.012Z</time></trkpt><trkpt lat="43.7984871" lon="11.5607481"><ele>659.0</ele><time>2026-05-03T10:01:04.012Z</time></trkpt><trkpt lat="43.7985698" lon="11.5606005"><ele>659.0</ele><time>2026-05-03T10:01:05.012Z</time></trkpt><trkpt lat="43.7986701" lon="11.5604771"><ele>659.0</ele><time>2026-05-03T10:01:06.011Z</time></trkpt><trkpt lat="43.7987452" lon="11.5603318"><ele>652.75</ele><time>2026-05-03T10:01:07.013Z</time></trkpt><trkpt lat="43.798813" lon="11.5601934"><ele>646.5</ele><time>2026-05-03T10:01:08.013Z</time></trkpt><trkpt lat="43.7988805" lon="11.5600569"><ele>640.25</ele><time>2026-05-03T10:01:09.012Z</time></trkpt><trkpt lat="43.7989573" lon="11.5599451"><ele>634.0</ele><time>2026-05-03T10:01:10.013Z</time></trkpt><trkpt lat="43.7990384" lon="11.5598404"><ele>634.0</ele><time>2026-05-03T10:01:11.013Z</time></trkpt><trkpt lat="43.7991117" lon="11.5597357"><ele>634.0</ele><time>2026-05-03T10:01:12.013Z</time></trkpt><trkpt lat="43.7991714" lon="11.5596318"><ele>634.0</ele><time>2026-05-03T10:01:13.013Z</time></trkpt><trkpt lat="43.7992347" lon="11.559515"><ele>634.0</ele><time>2026-05-03T10:01:14.012Z</time></trkpt><trkpt lat="43.7993148" lon="11.5594127"><ele>634.0</ele><time>2026-05-03T10:01:15.013Z</time></trkpt><trkpt lat="43.7994059" lon="11.55931"><ele>629.75</ele><time>2026-05-03T10:01:16.013Z</time></trkpt><trkpt lat="43.7995006" lon="11.5592027"><ele>625.5</ele><time>2026-05-03T10:01:17.013Z</time></trkpt><trkpt lat="43.7996046" lon="11.5590948"><ele>621.25</ele><time>2026-05-03T10:01:18.012Z</time></trkpt><trkpt lat="43.7996953" lon="11.5589742"><ele>617.0</ele><time>2026-05-03T10:01:19.013Z</time></trkpt><trkpt lat="43.7997971" lon="11.5588653"><ele>617.0</ele><time>2026-05-03T10:01:20.011Z</time></trkpt><trkpt lat="43.7999008" lon="11.5587852"><ele>617.0</ele><time>2026-05-03T10:01:21.013Z</time></trkpt><trkpt lat="43.8000026" lon="11.5587151"><ele>617.0</ele><time>2026-05-03T10:01:22.012Z</time></trkpt><trkpt lat="43.8000934" lon="11.5586619"><ele>617.0</ele><time>2026-05-03T10:01:23.013Z</time></trkpt><trkpt lat="43.8001836" lon="11.5586594"><ele>617.0</ele><time>2026-05-03T10:01:24.011Z</time></trkpt><trkpt lat="43.800271" lon="11.5586481"><ele>614.6666666666666</ele><time>2026-05-03T10:01:25.013Z</time></trkpt><trkpt lat="43.8003485" lon="11.5587199"><ele>612.3333333333333</ele><time>2026-05-03T10:01:26.011Z</time></trkpt><trkpt lat="43.8004184" lon="11.5587575"><ele>610.0</ele><time>2026-05-03T10:01:27.013Z</time></trkpt><trkpt lat="43.8004872" lon="11.558746"><ele>607.6666666666666</ele><time>2026-05-03T10:01:28.013Z</time></trkpt><trkpt lat="43.8005659" lon="11.55872"><ele>605.3333333333334</ele><time>2026-05-03T10:01:29.013Z</time></trkpt><trkpt lat="43.8006426" lon="11.5586852"><ele>603.0</ele><time>2026-05-03T10:01:30.012Z</time></trkpt><trkpt lat="43.8006988" lon="11.5586289"><ele>603.0</ele><time>2026-05-03T10:01:31.013Z</time></trkpt><trkpt lat="43.800733" lon="11.5585492"><ele>603.0</ele><time>2026-05-03T10:01:32.012Z</time></trkpt><trkpt lat="43.8007091" lon="11.5583746"><ele>603.0</ele><time>2026-05-03T10:01:34.012Z</time></trkpt><trkpt lat="43.8006561" lon="11.5582559"><ele>603.0</ele><time>2026-05-03T10:01:35.012Z</time></trkpt><trkpt lat="43.8005854" lon="11.5581174"><ele>603.0</ele><time>2026-05-03T10:01:36.013Z</time></trkpt><trkpt lat="43.8005423" lon="11.5579975"><ele>603.0</ele><time>2026-05-03T10:01:37.013Z</time></trkpt><trkpt lat="43.8005309" lon="11.5578764"><ele>603.0</ele><time>2026-05-03T10:01:38.011Z</time></trkpt><trkpt lat="43.8005417" lon="11.5577234"><ele>603.0</ele><time>2026-05-03T10:01:39.013Z</time></trkpt><trkpt lat="43.8005366" lon="11.5575785"><ele>603.0</ele><time>2026-05-03T10:01:40.013Z</time></trkpt><trkpt lat="43.8005103" lon="11.5574445"><ele>603.0</ele><time>2026-05-03T10:01:41.013Z</time></trkpt><trkpt lat="43.8004614" lon="11.5572929"><ele>601.1999999999999</ele><time>2026-05-03T10:01:42.012Z</time></trkpt><trkpt lat="43.8004149" lon="11.5571258"><ele>599.4</ele><time>2026-05-03T10:01:43.013Z</time></trkpt><trkpt lat="43.8003927" lon="11.5569776"><ele>597.5999999999999</ele><time>2026-05-03T10:01:44.012Z</time></trkpt><trkpt lat="43.8003885" lon="11.5568289"><ele>595.8</ele><time>2026-05-03T10:01:45.013Z</time></trkpt><trkpt lat="43.8004012" lon="11.5566968"><ele>594.0</ele><time>2026-05-03T10:01:46.013Z</time></trkpt><trkpt lat="43.8004255" lon="11.5565672"><ele>592.6</ele><time>2026-05-03T10:01:47.013Z</time></trkpt><trkpt lat="43.8004535" lon="11.5564435"><ele>591.2</ele><time>2026-05-03T10:01:48.013Z</time></trkpt><trkpt lat="43.8004851" lon="11.5563139"><ele>589.8000000000001</ele><time>2026-05-03T10:01:49.013Z</time></trkpt><trkpt lat="43.8005136" lon="11.5561664"><ele>588.4</ele><time>2026-05-03T10:01:50.012Z</time></trkpt><trkpt lat="43.8005381" lon="11.5560243"><ele>587.0</ele><time>2026-05-03T10:01:51.013Z</time></trkpt><trkpt lat="43.8005615" lon="11.5558919"><ele>586.8333333333333</ele><time>2026-05-03T10:01:52.013Z</time></trkpt><trkpt lat="43.8005891" lon="11.5557791"><ele>586.6666666666666</ele><time>2026-05-03T10:01:53.012Z</time></trkpt><trkpt lat="43.8006205" lon="11.5556746"><ele>586.5</ele><time>2026-05-03T10:01:54.012Z</time></trkpt><trkpt lat="43.8006403" lon="11.55559"><ele>586.3333333333334</ele><time>2026-05-03T10:01:55.012Z</time></trkpt><trkpt lat="43.8006638" lon="11.5554216"><ele>586.1666666666667</ele><time>2026-05-03T10:01:57.012Z</time></trkpt><trkpt lat="43.8006781" lon="11.5553074"><ele>586.0</ele><time>2026-05-03T10:01:58.013Z</time></trkpt><trkpt lat="43.8006919" lon="11.5551451"><ele>586.0</ele><time>2026-05-03T10:01:59.012Z</time></trkpt><trkpt lat="43.8006892" lon="11.5549332"><ele>586.0</ele><time>2026-05-03T10:02:00.013Z</time></trkpt><trkpt lat="43.8006793" lon="11.5547066"><ele>586.0</ele><time>2026-05-03T10:02:01.012Z</time></trkpt><trkpt lat="43.8006679" lon="11.5545194"><ele>585.25</ele><time>2026-05-03T10:02:02.013Z</time></trkpt><trkpt lat="43.8006441" lon="11.5543469"><ele>584.5</ele><time>2026-05-03T10:02:03.013Z</time></trkpt><trkpt lat="43.8006088" lon="11.55419"><ele>583.75</ele><time>2026-05-03T10:02:04.013Z</time></trkpt><trkpt lat="43.8005383" lon="11.5540725"><ele>583.0</ele><time>2026-05-03T10:02:05.013Z</time></trkpt><trkpt lat="43.8004513" lon="11.5539786"><ele>583.0</ele><time>2026-05-03T10:02:06.013Z</time></trkpt><trkpt lat="43.8003505" lon="11.5539017"><ele>583.0</ele><time>2026-05-03T10:02:07.012Z</time></trkpt><trkpt lat="43.800244" lon="11.5538115"><ele>583.0</ele><time>2026-05-03T10:02:08.012Z</time></trkpt><trkpt lat="43.8001437" lon="11.5537076"><ele>583.0</ele><time>2026-05-03T10:02:09.012Z</time></trkpt><trkpt lat="43.8000601" lon="11.55358"><ele>588.0</ele><time>2026-05-03T10:02:10.013Z</time></trkpt><trkpt lat="43.8000051" lon="11.5534425"><ele>593.0</ele><time>2026-05-03T10:02:11.013Z</time></trkpt><trkpt lat="43.7999751" lon="11.5532935"><ele>598.0</ele><time>2026-05-03T10:02:12.012Z</time></trkpt><trkpt lat="43.7999765" lon="11.5531375"><ele>603.0</ele><time>2026-05-03T10:02:13.013Z</time></trkpt><trkpt lat="43.8000077" lon="11.5529741"><ele>603.75</ele><time>2026-05-03T10:02:14.011Z</time></trkpt><trkpt lat="43.8000501" lon="11.552822"><ele>604.5</ele><time>2026-05-03T10:02:15.012Z</time></trkpt><trkpt lat="43.8001035" lon="11.5526741"><ele>605.25</ele><time>2026-05-03T10:02:16.013Z</time></trkpt><trkpt lat="43.800153" lon="11.5525189"><ele>606.0</ele><time>2026-05-03T10:02:17.012Z</time></trkpt><trkpt lat="43.8002155" lon="11.5523642"><ele>605.5</ele><time>2026-05-03T10:02:18.012Z</time></trkpt><trkpt lat="43.8002771" lon="11.5522053"><ele>605.0</ele><time>2026-05-03T10:02:19.013Z</time></trkpt><trkpt lat="43.8003472" lon="11.5520586"><ele>604.5</ele><time>2026-05-03T10:02:20.011Z</time></trkpt><trkpt lat="43.8004378" lon="11.5519194"><ele>604.0</ele><time>2026-05-03T10:02:21.013Z</time></trkpt><trkpt lat="43.8005554" lon="11.5517762"><ele>604.0</ele><time>2026-05-03T10:02:22.013Z</time></trkpt><trkpt lat="43.8006639" lon="11.5516436"><ele>604.0</ele><time>2026-05-03T10:02:23.013Z</time></trkpt><trkpt lat="43.8007609" lon="11.551505"><ele>604.0</ele><time>2026-05-03T10:02:24.012Z</time></trkpt><trkpt lat="43.8008318" lon="11.5513486"><ele>604.0</ele><time>2026-05-03T10:02:25.013Z</time></trkpt><trkpt lat="43.800876" lon="11.5511746"><ele>606.0</ele><time>2026-05-03T10:02:26.013Z</time></trkpt><trkpt lat="43.800888" lon="11.5509899"><ele>608.0</ele><time>2026-05-03T10:02:27.012Z</time></trkpt><trkpt lat="43.8008614" lon="11.5507977"><ele>610.0</ele><time>2026-05-03T10:02:28.012Z</time></trkpt><trkpt lat="43.8008054" lon="11.5506115"><ele>612.0</ele><time>2026-05-03T10:02:29.013Z</time></trkpt><trkpt lat="43.800752" lon="11.5504239"><ele>612.3333333333334</ele><time>2026-05-03T10:02:30.013Z</time></trkpt><trkpt lat="43.8006924" lon="11.5502338"><ele>612.6666666666667</ele><time>2026-05-03T10:02:31.013Z</time></trkpt><trkpt lat="43.8006304" lon="11.55004"><ele>613.0</ele><time>2026-05-03T10:02:32.012Z</time></trkpt><trkpt lat="43.8005703" lon="11.5498459"><ele>613.0</ele><time>2026-05-03T10:02:33.013Z</time></trkpt><trkpt lat="43.8005143" lon="11.5496772"><ele>613.0</ele><time>2026-05-03T10:02:34.011Z</time></trkpt><trkpt lat="43.8004498" lon="11.5495293"><ele>613.0</ele><time>2026-05-03T10:02:35.013Z</time></trkpt><trkpt lat="43.8003628" lon="11.5493974"><ele>613.0</ele><time>2026-05-03T10:02:36.013Z</time></trkpt><trkpt lat="43.8002575" lon="11.5492752"><ele>618.3333333333334</ele><time>2026-05-03T10:02:37.013Z</time></trkpt><trkpt lat="43.8001283" lon="11.5491836"><ele>623.6666666666666</ele><time>2026-05-03T10:02:38.013Z</time></trkpt><trkpt lat="43.7999897" lon="11.5491068"><ele>629.0</ele><time>2026-05-03T10:02:39.012Z</time></trkpt><trkpt lat="43.79984" lon="11.549038"><ele>629.0</ele><time>2026-05-03T10:02:40.013Z</time></trkpt><trkpt lat="43.7996843" lon="11.5489723"><ele>629.0</ele><time>2026-05-03T10:02:41.013Z</time></trkpt><trkpt lat="43.7995287" lon="11.5489097"><ele>629.0</ele><time>2026-05-03T10:02:42.013Z</time></trkpt><trkpt lat="43.7993744" lon="11.5488487"><ele>631.25</ele><time>2026-05-03T10:02:43.013Z</time></trkpt><trkpt lat="43.7992291" lon="11.5487891"><ele>633.5</ele><time>2026-05-03T10:02:44.013Z</time></trkpt><trkpt lat="43.799098" lon="11.5487273"><ele>635.75</ele><time>2026-05-03T10:02:45.011Z</time></trkpt><trkpt lat="43.7989911" lon="11.5486576"><ele>638.0</ele><time>2026-05-03T10:02:46.012Z</time></trkpt><trkpt lat="43.7989017" lon="11.5485707"><ele>638.0</ele><time>2026-05-03T10:02:47.012Z</time></trkpt><trkpt lat="43.7988354" lon="11.548459"><ele>638.0</ele><time>2026-05-03T10:02:48.013Z</time></trkpt><trkpt lat="43.7987881" lon="11.5483248"><ele>638.0</ele><time>2026-05-03T10:02:49.013Z</time></trkpt><trkpt lat="43.7987732" lon="11.5481775"><ele>638.0</ele><time>2026-05-03T10:02:50.013Z</time></trkpt><trkpt lat="43.7987857" lon="11.5480131"><ele>638.0</ele><time>2026-05-03T10:02:51.012Z</time></trkpt><trkpt lat="43.7988122" lon="11.5478359"><ele>639.0</ele><time>2026-05-03T10:02:52.012Z</time></trkpt><trkpt lat="43.7988374" lon="11.5476449"><ele>640.0</ele><time>2026-05-03T10:02:53.013Z</time></trkpt><trkpt lat="43.798861" lon="11.5474473"><ele>641.0</ele><time>2026-05-03T10:02:54.012Z</time></trkpt><trkpt lat="43.7988748" lon="11.5472608"><ele>642.0</ele><time>2026-05-03T10:02:55.012Z</time></trkpt><trkpt lat="43.7988711" lon="11.5470876"><ele>643.25</ele><time>2026-05-03T10:02:56.013Z</time></trkpt><trkpt lat="43.7988426" lon="11.5469216"><ele>644.5</ele><time>2026-05-03T10:02:57.013Z</time></trkpt><trkpt lat="43.7987912" lon="11.5467692"><ele>645.75</ele><time>2026-05-03T10:02:58.012Z</time></trkpt><trkpt lat="43.7987224" lon="11.5466311"><ele>647.0</ele><time>2026-05-03T10:02:59.012Z</time></trkpt><trkpt lat="43.7986397" lon="11.5465059"><ele>647.0</ele><time>2026-05-03T10:03:00.012Z</time></trkpt><trkpt lat="43.7985532" lon="11.5463847"><ele>647.0</ele><time>2026-05-03T10:03:01.012Z</time></trkpt><trkpt lat="43.7984657" lon="11.5462622"><ele>647.0</ele><time>2026-05-03T10:03:02.013Z</time></trkpt><trkpt lat="43.7983804" lon="11.5461393"><ele>647.0</ele><time>2026-05-03T10:03:03.013Z</time></trkpt><trkpt lat="43.7983009" lon="11.5460009"><ele>650.0</ele><time>2026-05-03T10:03:04.013Z</time></trkpt><trkpt lat="43.7982319" lon="11.545845"><ele>653.0</ele><time>2026-05-03T10:03:05.013Z</time></trkpt><trkpt lat="43.7981736" lon="11.5456814"><ele>656.0</ele><time>2026-05-03T10:03:06.013Z</time></trkpt><trkpt lat="43.7981237" lon="11.5455027"><ele>659.0</ele><time>2026-05-03T10:03:07.012Z</time></trkpt><trkpt lat="43.7980765" lon="11.5453163"><ele>659.0</ele><time>2026-05-03T10:03:08.012Z</time></trkpt><trkpt lat="43.798039" lon="11.545121"><ele>659.0</ele><time>2026-05-03T10:03:09.012Z</time></trkpt><trkpt lat="43.7980131" lon="11.5449193"><ele>659.0</ele><time>2026-05-03T10:03:10.013Z</time></trkpt><trkpt lat="43.7980102" lon="11.5447089"><ele>659.0</ele><time>2026-05-03T10:03:11.011Z</time></trkpt><trkpt lat="43.7980288" lon="11.5444998"><ele>658.25</ele><time>2026-05-03T10:03:12.013Z</time></trkpt><trkpt lat="43.7980562" lon="11.5442938"><ele>657.5</ele><time>2026-05-03T10:03:13.012Z</time></trkpt><trkpt lat="43.7980798" lon="11.5440871"><ele>656.75</ele><time>2026-05-03T10:03:14.012Z</time></trkpt><trkpt lat="43.7980801" lon="11.5438844"><ele>656.0</ele><time>2026-05-03T10:03:15.013Z</time></trkpt><trkpt lat="43.7980624" lon="11.5436864"><ele>655.0</ele><time>2026-05-03T10:03:16.012Z</time></trkpt><trkpt lat="43.7980189" lon="11.5434993"><ele>654.0</ele><time>2026-05-03T10:03:17.011Z</time></trkpt><trkpt lat="43.7979592" lon="11.5433261"><ele>653.0</ele><time>2026-05-03T10:03:18.013Z</time></trkpt><trkpt lat="43.7978941" lon="11.5431575"><ele>652.0</ele><time>2026-05-03T10:03:19.012Z</time></trkpt><trkpt lat="43.7978349" lon="11.5429859"><ele>652.0</ele><time>2026-05-03T10:03:20.012Z</time></trkpt><trkpt lat="43.7977843" lon="11.5428071"><ele>652.0</ele><time>2026-05-03T10:03:21.012Z</time></trkpt><trkpt lat="43.7977448" lon="11.5426229"><ele>652.0</ele><time>2026-05-03T10:03:22.013Z</time></trkpt><trkpt lat="43.7977067" lon="11.5424331"><ele>652.0</ele><time>2026-05-03T10:03:23.013Z</time></trkpt><trkpt lat="43.7976646" lon="11.5422391"><ele>660.75</ele><time>2026-05-03T10:03:24.012Z</time></trkpt><trkpt lat="43.7976236" lon="11.5420475"><ele>669.5</ele><time>2026-05-03T10:03:25.012Z</time></trkpt><trkpt lat="43.7975866" lon="11.5418566"><ele>678.25</ele><time>2026-05-03T10:03:26.013Z</time></trkpt><trkpt lat="43.7975665" lon="11.5416664"><ele>687.0</ele><time>2026-05-03T10:03:27.012Z</time></trkpt><trkpt lat="43.7975743" lon="11.5414759"><ele>687.0</ele><time>2026-05-03T10:03:28.011Z</time></trkpt><trkpt lat="43.7976149" lon="11.5412914"><ele>687.0</ele><time>2026-05-03T10:03:29.013Z</time></trkpt><trkpt lat="43.7976613" lon="11.5411221"><ele>687.0</ele><time>2026-05-03T10:03:30.012Z</time></trkpt><trkpt lat="43.7977352" lon="11.5409506"><ele>687.0</ele><time>2026-05-03T10:03:31.012Z</time></trkpt><trkpt lat="43.7978131" lon="11.5407786"><ele>683.5</ele><time>2026-05-03T10:03:32.012Z</time></trkpt><trkpt lat="43.7978727" lon="11.5406163"><ele>680.0</ele><time>2026-05-03T10:03:33.013Z</time></trkpt><trkpt lat="43.7979133" lon="11.540473"><ele>676.5</ele><time>2026-05-03T10:03:34.013Z</time></trkpt><trkpt lat="43.7979213" lon="11.5403264"><ele>673.0</ele><time>2026-05-03T10:03:35.013Z</time></trkpt><trkpt lat="43.7979089" lon="11.5401809"><ele>673.0</ele><time>2026-05-03T10:03:36.013Z</time></trkpt><trkpt lat="43.7978663" lon="11.5400456"><ele>673.0</ele><time>2026-05-03T10:03:37.013Z</time></trkpt><trkpt lat="43.7977978" lon="11.5399103"><ele>673.0</ele><time>2026-05-03T10:03:38.012Z</time></trkpt><trkpt lat="43.797718" lon="11.5397759"><ele>673.0</ele><time>2026-05-03T10:03:39.012Z</time></trkpt><trkpt lat="43.7976336" lon="11.5396352"><ele>678.0</ele><time>2026-05-03T10:03:40.012Z</time></trkpt><trkpt lat="43.7975429" lon="11.5394986"><ele>683.0</ele><time>2026-05-03T10:03:41.012Z</time></trkpt><trkpt lat="43.7974311" lon="11.5393887"><ele>688.0</ele><time>2026-05-03T10:03:42.013Z</time></trkpt><trkpt lat="43.7973057" lon="11.5393029"><ele>693.0</ele><time>2026-05-03T10:03:43.013Z</time></trkpt><trkpt lat="43.7971742" lon="11.5392307"><ele>693.0</ele><time>2026-05-03T10:03:44.012Z</time></trkpt><trkpt lat="43.797036" lon="11.5391776"><ele>693.0</ele><time>2026-05-03T10:03:45.013Z</time></trkpt><trkpt lat="43.7969109" lon="11.5391069"><ele>693.0</ele><time>2026-05-03T10:03:46.012Z</time></trkpt><trkpt lat="43.7967953" lon="11.5390052"><ele>693.0</ele><time>2026-05-03T10:03:47.012Z</time></trkpt><trkpt lat="43.796682" lon="11.5388915"><ele>694.5</ele><time>2026-05-03T10:03:48.013Z</time></trkpt><trkpt lat="43.796578" lon="11.5387676"><ele>696.0</ele><time>2026-05-03T10:03:49.012Z</time></trkpt><trkpt lat="43.796478" lon="11.5386363"><ele>697.5</ele><time>2026-05-03T10:03:50.012Z</time></trkpt><trkpt lat="43.7963798" lon="11.5384998"><ele>699.0</ele><time>2026-05-03T10:03:51.011Z</time></trkpt><trkpt lat="43.7962843" lon="11.5383575"><ele>699.0</ele><time>2026-05-03T10:03:52.013Z</time></trkpt><trkpt lat="43.7961949" lon="11.538209"><ele>699.0</ele><time>2026-05-03T10:03:53.013Z</time></trkpt><trkpt lat="43.7961203" lon="11.5380461"><ele>699.0</ele><time>2026-05-03T10:03:54.013Z</time></trkpt><trkpt lat="43.7960625" lon="11.5378709"><ele>699.0</ele><time>2026-05-03T10:03:55.012Z</time></trkpt><trkpt lat="43.7960211" lon="11.5376869"><ele>704.25</ele><time>2026-05-03T10:03:56.011Z</time></trkpt><trkpt lat="43.7959956" lon="11.5374946"><ele>709.5</ele><time>2026-05-03T10:03:57.013Z</time></trkpt><trkpt lat="43.7959866" lon="11.5372975"><ele>714.75</ele><time>2026-05-03T10:03:58.013Z</time></trkpt><trkpt lat="43.7959894" lon="11.5370987"><ele>720.0</ele><time>2026-05-03T10:03:59.012Z</time></trkpt><trkpt lat="43.7959914" lon="11.5369015"><ele>720.2</ele><time>2026-05-03T10:04:00.011Z</time></trkpt><trkpt lat="43.7959994" lon="11.5367102"><ele>720.4</ele><time>2026-05-03T10:04:01.013Z</time></trkpt><trkpt lat="43.7960139" lon="11.5365467"><ele>720.5999999999999</ele><time>2026-05-03T10:04:02.012Z</time></trkpt><trkpt lat="43.796031" lon="11.5364269"><ele>720.8</ele><time>2026-05-03T10:04:03.013Z</time></trkpt><trkpt lat="43.7960549" lon="11.5363385"><ele>721.0</ele><time>2026-05-03T10:04:04.012Z</time></trkpt><trkpt lat="43.7960856" lon="11.5362586"><ele>717.0</ele><time>2026-05-03T10:04:05.013Z</time></trkpt><trkpt lat="43.7961081" lon="11.5361585"><ele>713.0</ele><time>2026-05-03T10:04:06.013Z</time></trkpt><trkpt lat="43.7961204" lon="11.5360401"><ele>709.0</ele><time>2026-05-03T10:04:07.013Z</time></trkpt><trkpt lat="43.7961328" lon="11.5359157"><ele>705.0</ele><time>2026-05-03T10:04:08.013Z</time></trkpt><trkpt lat="43.7961435" lon="11.5357836"><ele>701.0</ele><time>2026-05-03T10:04:09.013Z</time></trkpt><trkpt lat="43.7961579" lon="11.5356528"><ele>697.0</ele><time>2026-05-03T10:04:10.012Z</time></trkpt><trkpt lat="43.7961907" lon="11.5355277"><ele>697.0</ele><time>2026-05-03T10:04:11.013Z</time></trkpt><trkpt lat="43.7962292" lon="11.5353973"><ele>697.0</ele><time>2026-05-03T10:04:12.012Z</time></trkpt><trkpt lat="43.7962942" lon="11.5352416"><ele>697.0</ele><time>2026-05-03T10:04:13.013Z</time></trkpt><trkpt lat="43.7963473" lon="11.5351034"><ele>697.0</ele><time>2026-05-03T10:04:14.013Z</time></trkpt><trkpt lat="43.796394" lon="11.5349685"><ele>696.8</ele><time>2026-05-03T10:04:15.013Z</time></trkpt><trkpt lat="43.7964514" lon="11.5348394"><ele>696.6</ele><time>2026-05-03T10:04:16.013Z</time></trkpt><trkpt lat="43.7965046" lon="11.5346926"><ele>696.4</ele><time>2026-05-03T10:04:17.013Z</time></trkpt><trkpt lat="43.7965169" lon="11.5345635"><ele>696.1999999999999</ele><time>2026-05-03T10:04:18.012Z</time></trkpt><trkpt lat="43.7965439" lon="11.5344075"><ele>696.0</ele><time>2026-05-03T10:04:19.013Z</time></trkpt><trkpt lat="43.7965704" lon="11.5342558"><ele>696.0</ele><time>2026-05-03T10:04:20.013Z</time></trkpt><trkpt lat="43.7966127" lon="11.5341123"><ele>696.0</ele><time>2026-05-03T10:04:21.012Z</time></trkpt><trkpt lat="43.7966314" lon="11.5339789"><ele>696.0</ele><time>2026-05-03T10:04:22.013Z</time></trkpt><trkpt lat="43.7966589" lon="11.5338321"><ele>696.0</ele><time>2026-05-03T10:04:23.011Z</time></trkpt><trkpt lat="43.7966727" lon="11.5337044"><ele>696.0</ele><time>2026-05-03T10:04:24.013Z</time></trkpt><trkpt lat="43.796705" lon="11.5335933"><ele>697.4</ele><time>2026-05-03T10:04:25.012Z</time></trkpt><trkpt lat="43.7967444" lon="11.5334851"><ele>698.8</ele><time>2026-05-03T10:04:26.013Z</time></trkpt><trkpt lat="43.7968277" lon="11.5333928"><ele>700.1999999999999</ele><time>2026-05-03T10:04:27.012Z</time></trkpt><trkpt lat="43.7968999" lon="11.5332995"><ele>701.5999999999999</ele><time>2026-05-03T10:04:28.012Z</time></trkpt><trkpt lat="43.7969657" lon="11.5332012"><ele>703.0</ele><time>2026-05-03T10:04:29.012Z</time></trkpt><trkpt lat="43.7970407" lon="11.5331079"><ele>698.8</ele><time>2026-05-03T10:04:30.013Z</time></trkpt><trkpt lat="43.7971151" lon="11.5330165"><ele>694.5999999999999</ele><time>2026-05-03T10:04:31.012Z</time></trkpt><trkpt lat="43.7971913" lon="11.5329371"><ele>690.4000000000001</ele><time>2026-05-03T10:04:32.013Z</time></trkpt><trkpt lat="43.797261" lon="11.5328577"><ele>686.2</ele><time>2026-05-03T10:04:33.013Z</time></trkpt><trkpt lat="43.7973608" lon="11.5328151"><ele>682.0</ele><time>2026-05-03T10:04:34.013Z</time></trkpt><trkpt lat="43.7974307" lon="11.5327675"><ele>682.0</ele><time>2026-05-03T10:04:35.012Z</time></trkpt><trkpt lat="43.7975049" lon="11.5326955"><ele>682.0</ele><time>2026-05-03T10:04:36.012Z</time></trkpt><trkpt lat="43.7975852" lon="11.5326145"><ele>682.0</ele><time>2026-05-03T10:04:37.013Z</time></trkpt><trkpt lat="43.7976584" lon="11.5325347"><ele>682.0</ele><time>2026-05-03T10:04:38.012Z</time></trkpt><trkpt lat="43.797725" lon="11.5324626"><ele>682.0</ele><time>2026-05-03T10:04:39.013Z</time></trkpt><trkpt lat="43.7977488" lon="11.5323754"><ele>682.0</ele><time>2026-05-03T10:04:40.012Z</time></trkpt><trkpt lat="43.7978043" lon="11.5323169"><ele>676.0</ele><time>2026-05-03T10:04:41.013Z</time></trkpt><trkpt lat="43.7978997" lon="11.5322717"><ele>670.0</ele><time>2026-05-03T10:04:43.011Z</time></trkpt><trkpt lat="43.7980089" lon="11.5322307"><ele>664.0</ele><time>2026-05-03T10:04:45.012Z</time></trkpt><trkpt lat="43.7980935" lon="11.5322133"><ele>658.0</ele><time>2026-05-03T10:04:47.012Z</time></trkpt><trkpt lat="43.7981648" lon="11.5321749"><ele>652.0</ele><time>2026-05-03T10:04:49.012Z</time></trkpt><trkpt lat="43.7982377" lon="11.5321607"><ele>652.0</ele><time>2026-05-03T10:04:51.011Z</time></trkpt><trkpt lat="43.7983011" lon="11.5321509"><ele>652.0</ele><time>2026-05-03T10:04:54.013Z</time></trkpt><trkpt lat="43.798382" lon="11.5321056"><ele>652.0</ele><time>2026-05-03T10:04:57.013Z</time></trkpt><trkpt lat="43.7984339" lon="11.5320519"><ele>652.0</ele><time>2026-05-03T10:04:59.013Z</time></trkpt><trkpt lat="43.7985079" lon="11.5320256"><ele>652.0</ele><time>2026-05-03T10:05:02.012Z</time></trkpt><trkpt lat="43.7985865" lon="11.5320067"><ele>652.0</ele><time>2026-05-03T10:05:05.013Z</time></trkpt><trkpt lat="43.7986606" lon="11.5319777"><ele>652.0</ele><time>2026-05-03T10:05:09.028Z</time></trkpt><trkpt lat="43.798711" lon="11.5319187"><ele>650.3333333333334</ele><time>2026-05-03T10:05:13.013Z</time></trkpt><trkpt lat="43.7987489" lon="11.5318282"><ele>648.6666666666667</ele><time>2026-05-03T10:05:16.043Z</time></trkpt><trkpt lat="43.7988336" lon="11.5317"><ele>647.0</ele><time>2026-05-03T10:05:19.013Z</time></trkpt><trkpt lat="43.7988726" lon="11.5316097"><ele>645.3333333333334</ele><time>2026-05-03T10:05:20.013Z</time></trkpt><trkpt lat="43.7988959" lon="11.5315038"><ele>643.6666666666666</ele><time>2026-05-03T10:05:21.013Z</time></trkpt><trkpt lat="43.7989075" lon="11.5313918"><ele>642.0</ele><time>2026-05-03T10:05:22.013Z</time></trkpt><trkpt lat="43.7989162" lon="11.5312656"><ele>642.1666666666666</ele><time>2026-05-03T10:05:23.012Z</time></trkpt><trkpt lat="43.7989284" lon="11.5311437"><ele>642.3333333333334</ele><time>2026-05-03T10:05:24.012Z</time></trkpt><trkpt lat="43.7989641" lon="11.5310162"><ele>642.5</ele><time>2026-05-03T10:05:25.012Z</time></trkpt><trkpt lat="43.7989842" lon="11.5308938"><ele>642.6666666666667</ele><time>2026-05-03T10:05:26.012Z</time></trkpt><trkpt lat="43.79899" lon="11.5307708"><ele>642.8333333333334</ele><time>2026-05-03T10:05:27.013Z</time></trkpt><trkpt lat="43.7989979" lon="11.5306632"><ele>643.0</ele><time>2026-05-03T10:05:28.012Z</time></trkpt><trkpt lat="43.7990122" lon="11.5305505"><ele>643.0</ele><time>2026-05-03T10:05:29.013Z</time></trkpt><trkpt lat="43.7990204" lon="11.5304324"><ele>643.0</ele><time>2026-05-03T10:05:30.012Z</time></trkpt><trkpt lat="43.7990178" lon="11.5303212"><ele>643.0</ele><time>2026-05-03T10:05:31.013Z</time></trkpt><trkpt lat="43.7989994" lon="11.5302204"><ele>643.0</ele><time>2026-05-03T10:05:32.012Z</time></trkpt><trkpt lat="43.7989801" lon="11.530114"><ele>643.0</ele><time>2026-05-03T10:05:33.013Z</time></trkpt><trkpt lat="43.7989483" lon="11.5299993"><ele>643.0</ele><time>2026-05-03T10:05:34.013Z</time></trkpt><trkpt lat="43.7989521" lon="11.5298779"><ele>641.6666666666667</ele><time>2026-05-03T10:05:35.012Z</time></trkpt><trkpt lat="43.7989575" lon="11.5297464"><ele>640.3333333333334</ele><time>2026-05-03T10:05:36.013Z</time></trkpt><trkpt lat="43.7989457" lon="11.5296165"><ele>639.0</ele><time>2026-05-03T10:05:37.012Z</time></trkpt><trkpt lat="43.7989281" lon="11.5294911"><ele>637.6666666666666</ele><time>2026-05-03T10:05:38.013Z</time></trkpt><trkpt lat="43.7988889" lon="11.5293977"><ele>636.3333333333333</ele><time>2026-05-03T10:05:39.013Z</time></trkpt><trkpt lat="43.7988532" lon="11.529308"><ele>635.0</ele><time>2026-05-03T10:05:40.012Z</time></trkpt><trkpt lat="43.7988187" lon="11.529213"><ele>633.8</ele><time>2026-05-03T10:05:41.013Z</time></trkpt><trkpt lat="43.7987916" lon="11.5291027"><ele>632.6</ele><time>2026-05-03T10:05:42.012Z</time></trkpt><trkpt lat="43.798745" lon="11.5289505"><ele>631.4</ele><time>2026-05-03T10:05:44.012Z</time></trkpt><trkpt lat="43.7986977" lon="11.5288344"><ele>630.2</ele><time>2026-05-03T10:05:46.012Z</time></trkpt><trkpt lat="43.798656" lon="11.5286833"><ele>629.0</ele><time>2026-05-03T10:05:48.012Z</time></trkpt><trkpt lat="43.7986339" lon="11.528543"><ele>629.0</ele><time>2026-05-03T10:05:50.013Z</time></trkpt><trkpt lat="43.7986498" lon="11.5284443"><ele>629.0</ele><time>2026-05-03T10:05:51.012Z</time></trkpt><trkpt lat="43.7986781" lon="11.5283543"><ele>629.0</ele><time>2026-05-03T10:05:52.012Z</time></trkpt><trkpt lat="43.7987076" lon="11.528265"><ele>629.0</ele><time>2026-05-03T10:05:53.013Z</time></trkpt><trkpt lat="43.7987221" lon="11.5281797"><ele>629.0</ele><time>2026-05-03T10:05:54.013Z</time></trkpt><trkpt lat="43.7987519" lon="11.5280963"><ele>629.0</ele><time>2026-05-03T10:05:55.012Z</time></trkpt><trkpt lat="43.7987784" lon="11.5280157"><ele>629.0</ele><time>2026-05-03T10:05:56.012Z</time></trkpt><trkpt lat="43.7988097" lon="11.5279358"><ele>629.8333333333333</ele><time>2026-05-03T10:05:57.013Z</time></trkpt><trkpt lat="43.7988539" lon="11.5278582"><ele>630.6666666666666</ele><time>2026-05-03T10:05:58.012Z</time></trkpt><trkpt lat="43.7988997" lon="11.5277832"><ele>631.5</ele><time>2026-05-03T10:05:59.012Z</time></trkpt><trkpt lat="43.7989513" lon="11.5277179"><ele>632.3333333333334</ele><time>2026-05-03T10:06:00.013Z</time></trkpt><trkpt lat="43.7990193" lon="11.5276516"><ele>633.1666666666667</ele><time>2026-05-03T10:06:01.012Z</time></trkpt><trkpt lat="43.799087" lon="11.5275842"><ele>634.0</ele><time>2026-05-03T10:06:02.013Z</time></trkpt><trkpt lat="43.799145" lon="11.5275109"><ele>634.0</ele><time>2026-05-03T10:06:03.013Z</time></trkpt><trkpt lat="43.799199" lon="11.5274274"><ele>634.0</ele><time>2026-05-03T10:06:04.012Z</time></trkpt><trkpt lat="43.7992547" lon="11.5273357"><ele>634.0</ele><time>2026-05-03T10:06:05.012Z</time></trkpt><trkpt lat="43.7993097" lon="11.5272347"><ele>634.0</ele><time>2026-05-03T10:06:06.011Z</time></trkpt><trkpt lat="43.7993651" lon="11.5271644"><ele>634.0</ele><time>2026-05-03T10:06:07.012Z</time></trkpt><trkpt lat="43.7994512" lon="11.5271288"><ele>634.0</ele><time>2026-05-03T10:06:08.013Z</time></trkpt><trkpt lat="43.7995368" lon="11.5270964"><ele>634.6</ele><time>2026-05-03T10:06:09.012Z</time></trkpt><trkpt lat="43.7996205" lon="11.5270615"><ele>635.2</ele><time>2026-05-03T10:06:10.013Z</time></trkpt><trkpt lat="43.7997061" lon="11.5270312"><ele>635.8000000000001</ele><time>2026-05-03T10:06:11.011Z</time></trkpt><trkpt lat="43.7997925" lon="11.5269958"><ele>636.4</ele><time>2026-05-03T10:06:12.012Z</time></trkpt><trkpt lat="43.7998816" lon="11.5269565"><ele>637.0</ele><time>2026-05-03T10:06:13.012Z</time></trkpt><trkpt lat="43.7999675" lon="11.5269151"><ele>637.0</ele><time>2026-05-03T10:06:14.012Z</time></trkpt><trkpt lat="43.8000488" lon="11.5268732"><ele>637.0</ele><time>2026-05-03T10:06:15.012Z</time></trkpt><trkpt lat="43.8001252" lon="11.5268365"><ele>637.0</ele><time>2026-05-03T10:06:16.013Z</time></trkpt><trkpt lat="43.8001853" lon="11.5268083"><ele>637.0</ele><time>2026-05-03T10:06:17.012Z</time></trkpt><trkpt lat="43.8002827" lon="11.526759"><ele>637.0</ele><time>2026-05-03T10:06:19.013Z</time></trkpt><trkpt lat="43.8003316" lon="11.5266734"><ele>637.0</ele><time>2026-05-03T10:06:21.013Z</time></trkpt><trkpt lat="43.800375" lon="11.5265356"><ele>633.8000000000001</ele><time>2026-05-03T10:06:23.013Z</time></trkpt><trkpt lat="43.8003878" lon="11.5264474"><ele>630.6</ele><time>2026-05-03T10:06:24.013Z</time></trkpt><trkpt lat="43.8003866" lon="11.5263167"><ele>627.4000000000001</ele><time>2026-05-03T10:06:25.012Z</time></trkpt><trkpt lat="43.8003811" lon="11.5261897"><ele>624.2</ele><time>2026-05-03T10:06:26.013Z</time></trkpt><trkpt lat="43.8003623" lon="11.5260533"><ele>621.0</ele><time>2026-05-03T10:06:27.013Z</time></trkpt><trkpt lat="43.800333" lon="11.5259152"><ele>620.8</ele><time>2026-05-03T10:06:28.012Z</time></trkpt><trkpt lat="43.800303" lon="11.525772"><ele>620.6</ele><time>2026-05-03T10:06:29.011Z</time></trkpt><trkpt lat="43.8002744" lon="11.5256345"><ele>620.4</ele><time>2026-05-03T10:06:30.012Z</time></trkpt><trkpt lat="43.8002509" lon="11.5255026"><ele>620.2</ele><time>2026-05-03T10:06:31.012Z</time></trkpt><trkpt lat="43.8002389" lon="11.5253889"><ele>620.0</ele><time>2026-05-03T10:06:32.013Z</time></trkpt><trkpt lat="43.8002637" lon="11.5252913"><ele>619.6666666666666</ele><time>2026-05-03T10:06:33.012Z</time></trkpt><trkpt lat="43.800285" lon="11.5251772"><ele>619.3333333333333</ele><time>2026-05-03T10:06:34.013Z</time></trkpt><trkpt lat="43.8002961" lon="11.5250589"><ele>619.0</ele><time>2026-05-03T10:06:35.012Z</time></trkpt><trkpt lat="43.8002979" lon="11.5249375"><ele>618.6666666666666</ele><time>2026-05-03T10:06:36.012Z</time></trkpt><trkpt lat="43.8003052" lon="11.5248032"><ele>618.3333333333334</ele><time>2026-05-03T10:06:37.013Z</time></trkpt><trkpt lat="43.8003033" lon="11.5246875"><ele>618.0</ele><time>2026-05-03T10:06:38.012Z</time></trkpt><trkpt lat="43.800299" lon="11.5245758"><ele>617.4285714285714</ele><time>2026-05-03T10:06:39.013Z</time></trkpt><trkpt lat="43.8002793" lon="11.524484"><ele>616.8571428571429</ele><time>2026-05-03T10:06:40.012Z</time></trkpt><trkpt lat="43.8002101" lon="11.5244466"><ele>616.2857142857142</ele><time>2026-05-03T10:06:41.013Z</time></trkpt><trkpt lat="43.8001312" lon="11.5243869"><ele>615.7142857142858</ele><time>2026-05-03T10:06:42.013Z</time></trkpt><trkpt lat="43.8000673" lon="11.5243281"><ele>615.1428571428571</ele><time>2026-05-03T10:06:43.011Z</time></trkpt><trkpt lat="43.8000151" lon="11.5242656"><ele>614.5714285714286</ele><time>2026-05-03T10:06:44.012Z</time></trkpt><trkpt lat="43.8000024" lon="11.5241797"><ele>614.0</ele><time>2026-05-03T10:06:45.013Z</time></trkpt><trkpt lat="43.7999872" lon="11.5240368"><ele>616.3333333333333</ele><time>2026-05-03T10:06:47.013Z</time></trkpt><trkpt lat="43.7999024" lon="11.524"><ele>618.6666666666666</ele><time>2026-05-03T10:06:49.013Z</time></trkpt><trkpt lat="43.7997883" lon="11.5240728"><ele>621.0</ele><time>2026-05-03T10:06:51.013Z</time></trkpt><trkpt lat="43.7997198" lon="11.5241246"><ele>623.3333333333334</ele><time>2026-05-03T10:06:52.013Z</time></trkpt><trkpt lat="43.7996545" lon="11.5241536"><ele>625.6666666666667</ele><time>2026-05-03T10:06:53.012Z</time></trkpt><trkpt lat="43.799588" lon="11.5241772"><ele>628.0</ele><time>2026-05-03T10:06:54.013Z</time></trkpt><trkpt lat="43.7995026" lon="11.5240931"><ele>628.0</ele><time>2026-05-03T10:06:56.012Z</time></trkpt><trkpt lat="43.799461" lon="11.5239323"><ele>628.0</ele><time>2026-05-03T10:06:58.012Z</time></trkpt><trkpt lat="43.7994302" lon="11.5238328"><ele>628.0</ele><time>2026-05-03T10:06:59.013Z</time></trkpt><trkpt lat="43.7993936" lon="11.5237255"><ele>628.0</ele><time>2026-05-03T10:07:00.012Z</time></trkpt><trkpt lat="43.7993096" lon="11.5235941"><ele>628.0</ele><time>2026-05-03T10:07:01.012Z</time></trkpt><trkpt lat="43.7992446" lon="11.5234668"><ele>628.8333333333334</ele><time>2026-05-03T10:07:02.013Z</time></trkpt><trkpt lat="43.7991949" lon="11.5233714"><ele>629.6666666666667</ele><time>2026-05-03T10:07:03.012Z</time></trkpt><trkpt lat="43.7991557" lon="11.5232858"><ele>630.5</ele><time>2026-05-03T10:07:04.013Z</time></trkpt><trkpt lat="43.7991227" lon="11.5231768"><ele>631.3333333333334</ele><time>2026-05-03T10:07:05.012Z</time></trkpt><trkpt lat="43.7990982" lon="11.5230758"><ele>632.1666666666666</ele><time>2026-05-03T10:07:06.013Z</time></trkpt><trkpt lat="43.799078" lon="11.5229724"><ele>633.0</ele><time>2026-05-03T10:07:07.013Z</time></trkpt><trkpt lat="43.7990615" lon="11.5228819"><ele>633.0</ele><time>2026-05-03T10:07:08.012Z</time></trkpt><trkpt lat="43.7990429" lon="11.5227819"><ele>633.0</ele><time>2026-05-03T10:07:09.012Z</time></trkpt><trkpt lat="43.7990204" lon="11.5226625"><ele>633.0</ele><time>2026-05-03T10:07:10.012Z</time></trkpt><trkpt lat="43.7989757" lon="11.5225085"><ele>633.0</ele><time>2026-05-03T10:07:11.013Z</time></trkpt><trkpt lat="43.7989449" lon="11.5223812"><ele>633.0</ele><time>2026-05-03T10:07:12.013Z</time></trkpt><trkpt lat="43.7989115" lon="11.5222519"><ele>633.0</ele><time>2026-05-03T10:07:13.012Z</time></trkpt><trkpt lat="43.7988762" lon="11.5221325"><ele>633.0</ele><time>2026-05-03T10:07:14.013Z</time></trkpt><trkpt lat="43.7988394" lon="11.522046"><ele>633.0</ele><time>2026-05-03T10:07:15.013Z</time></trkpt><trkpt lat="43.7987813" lon="11.5219942"><ele>633.0</ele><time>2026-05-03T10:07:16.013Z</time></trkpt><trkpt lat="43.7987083" lon="11.521952"><ele>633.0</ele><time>2026-05-03T10:07:17.013Z</time></trkpt><trkpt lat="43.7986395" lon="11.5218874"><ele>633.0</ele><time>2026-05-03T10:07:18.013Z</time></trkpt><trkpt lat="43.7985766" lon="11.5218037"><ele>632.1999999999999</ele><time>2026-05-03T10:07:19.012Z</time></trkpt><trkpt lat="43.7985111" lon="11.5217293"><ele>631.4</ele><time>2026-05-03T10:07:20.012Z</time></trkpt><trkpt lat="43.7984368" lon="11.5216562"><ele>630.5999999999999</ele><time>2026-05-03T10:07:21.013Z</time></trkpt><trkpt lat="43.7983586" lon="11.5215761"><ele>629.8</ele><time>2026-05-03T10:07:22.012Z</time></trkpt><trkpt lat="43.7982741" lon="11.5215134"><ele>629.0</ele><time>2026-05-03T10:07:23.013Z</time></trkpt><trkpt lat="43.7981873" lon="11.5214927"><ele>631.0</ele><time>2026-05-03T10:07:24.013Z</time></trkpt><trkpt lat="43.7981145" lon="11.5215044"><ele>633.0</ele><time>2026-05-03T10:07:25.013Z</time></trkpt><trkpt lat="43.7980382" lon="11.5215316"><ele>635.0</ele><time>2026-05-03T10:07:26.013Z</time></trkpt><trkpt lat="43.7979474" lon="11.5215721"><ele>637.0</ele><time>2026-05-03T10:07:27.013Z</time></trkpt><trkpt lat="43.7978563" lon="11.5216074"><ele>639.0</ele><time>2026-05-03T10:07:28.012Z</time></trkpt><trkpt lat="43.7977746" lon="11.5216318"><ele>641.0</ele><time>2026-05-03T10:07:29.011Z</time></trkpt><trkpt lat="43.797705" lon="11.5216417"><ele>642.3333333333333</ele><time>2026-05-03T10:07:30.012Z</time></trkpt><trkpt lat="43.7976401" lon="11.5216649"><ele>643.6666666666666</ele><time>2026-05-03T10:07:31.013Z</time></trkpt><trkpt lat="43.7975601" lon="11.5215566"><ele>645.0</ele><time>2026-05-03T10:07:33.012Z</time></trkpt><trkpt lat="43.7975194" lon="11.5214857"><ele>646.3333333333334</ele><time>2026-05-03T10:07:34.012Z</time></trkpt><trkpt lat="43.7974513" lon="11.5213972"><ele>647.6666666666667</ele><time>2026-05-03T10:07:35.012Z</time></trkpt><trkpt lat="43.797393" lon="11.5212835"><ele>649.0</ele><time>2026-05-03T10:07:36.012Z</time></trkpt><trkpt lat="43.7973559" lon="11.5211615"><ele>645.8000000000001</ele><time>2026-05-03T10:07:37.013Z</time></trkpt><trkpt lat="43.7973241" lon="11.5210481"><ele>642.6</ele><time>2026-05-03T10:07:38.013Z</time></trkpt><trkpt lat="43.7973024" lon="11.5209126"><ele>639.4</ele><time>2026-05-03T10:07:39.012Z</time></trkpt><trkpt lat="43.7972784" lon="11.520766"><ele>636.2</ele><time>2026-05-03T10:07:40.012Z</time></trkpt><trkpt lat="43.7972488" lon="11.5206429"><ele>633.0</ele><time>2026-05-03T10:07:41.013Z</time></trkpt><trkpt lat="43.7972064" lon="11.5205299"><ele>633.0</ele><time>2026-05-03T10:07:42.013Z</time></trkpt><trkpt lat="43.7971562" lon="11.5204175"><ele>633.0</ele><time>2026-05-03T10:07:43.011Z</time></trkpt><trkpt lat="43.7970991" lon="11.5203201"><ele>633.0</ele><time>2026-05-03T10:07:44.012Z</time></trkpt><trkpt lat="43.7970446" lon="11.5202596"><ele>633.0</ele><time>2026-05-03T10:07:45.013Z</time></trkpt><trkpt lat="43.79698" lon="11.5202069"><ele>633.0</ele><time>2026-05-03T10:07:46.012Z</time></trkpt><trkpt lat="43.7969004" lon="11.5201528"><ele>633.0</ele><time>2026-05-03T10:07:47.012Z</time></trkpt><trkpt lat="43.7968327" lon="11.520098"><ele>632.3333333333334</ele><time>2026-05-03T10:07:48.012Z</time></trkpt><trkpt lat="43.7967678" lon="11.5200428"><ele>631.6666666666666</ele><time>2026-05-03T10:07:49.013Z</time></trkpt><trkpt lat="43.7967123" lon="11.519984"><ele>631.0</ele><time>2026-05-03T10:07:50.012Z</time></trkpt><trkpt lat="43.7966444" lon="11.5199189"><ele>630.3333333333333</ele><time>2026-05-03T10:07:51.013Z</time></trkpt><trkpt lat="43.7965658" lon="11.5198729"><ele>629.6666666666666</ele><time>2026-05-03T10:07:52.012Z</time></trkpt><trkpt lat="43.7964997" lon="11.5198488"><ele>629.0</ele><time>2026-05-03T10:07:53.012Z</time></trkpt><trkpt lat="43.7963736" lon="11.5198028"><ele>629.0</ele><time>2026-05-03T10:07:55.013Z</time></trkpt><trkpt lat="43.7963049" lon="11.5198153"><ele>629.0</ele><time>2026-05-03T10:07:56.012Z</time></trkpt><trkpt lat="43.7962392" lon="11.5198326"><ele>629.0</ele><time>2026-05-03T10:07:57.012Z</time></trkpt><trkpt lat="43.7961705" lon="11.5198564"><ele>629.0</ele><time>2026-05-03T10:07:58.012Z</time></trkpt><trkpt lat="43.7961069" lon="11.5198729"><ele>629.0</ele><time>2026-05-03T10:07:59.013Z</time></trkpt><trkpt lat="43.7960295" lon="11.5198951"><ele>629.0</ele><time>2026-05-03T10:08:00.013Z</time></trkpt><trkpt lat="43.7959218" lon="11.5199053"><ele>629.0</ele><time>2026-05-03T10:08:02.013Z</time></trkpt><trkpt lat="43.7958734" lon="11.519849"><ele>629.0</ele><time>2026-05-03T10:08:03.012Z</time></trkpt><trkpt lat="43.7958135" lon="11.5197776"><ele>629.0</ele><time>2026-05-03T10:08:04.013Z</time></trkpt><trkpt lat="43.7957482" lon="11.5196955"><ele>629.0</ele><time>2026-05-03T10:08:05.013Z</time></trkpt><trkpt lat="43.7956949" lon="11.5196189"><ele>629.0</ele><time>2026-05-03T10:08:06.012Z</time></trkpt><trkpt lat="43.7956152" lon="11.5195546"><ele>629.0</ele><time>2026-05-03T10:08:08.013Z</time></trkpt><trkpt lat="43.7955046" lon="11.5195739"><ele>629.0</ele><time>2026-05-03T10:08:10.013Z</time></trkpt><trkpt lat="43.7954412" lon="11.5196161"><ele>629.0</ele><time>2026-05-03T10:08:11.012Z</time></trkpt><trkpt lat="43.7953947" lon="11.5195448"><ele>629.0</ele><time>2026-05-03T10:08:12.013Z</time></trkpt><trkpt lat="43.7953211" lon="11.5194478"><ele>629.0</ele><time>2026-05-03T10:08:14.013Z</time></trkpt><trkpt lat="43.7952947" lon="11.5193494"><ele>629.0</ele><time>2026-05-03T10:08:16.013Z</time></trkpt><trkpt lat="43.7952434" lon="11.5192575"><ele>629.0</ele><time>2026-05-03T10:08:18.012Z</time></trkpt><trkpt lat="43.7951859" lon="11.5191618"><ele>628.6</ele><time>2026-05-03T10:08:20.012Z</time></trkpt><trkpt lat="43.79511" lon="11.5190448"><ele>628.2</ele><time>2026-05-03T10:08:22.012Z</time></trkpt><trkpt lat="43.7950344" lon="11.5188856"><ele>627.8000000000001</ele><time>2026-05-03T10:08:24.012Z</time></trkpt><trkpt lat="43.7949789" lon="11.5187639"><ele>627.4</ele><time>2026-05-03T10:08:25.013Z</time></trkpt><trkpt lat="43.7949273" lon="11.5186805"><ele>627.0</ele><time>2026-05-03T10:08:26.012Z</time></trkpt><trkpt lat="43.794866" lon="11.5185923"><ele>624.6</ele><time>2026-05-03T10:08:27.013Z</time></trkpt><trkpt lat="43.7948165" lon="11.5185057"><ele>622.2</ele><time>2026-05-03T10:08:28.013Z</time></trkpt><trkpt lat="43.7947956" lon="11.5183867"><ele>619.8</ele><time>2026-05-03T10:08:29.013Z</time></trkpt><trkpt lat="43.7947582" lon="11.5182718"><ele>617.4</ele><time>2026-05-03T10:08:30.013Z</time></trkpt><trkpt lat="43.7946771" lon="11.5181627"><ele>615.0</ele><time>2026-05-03T10:08:31.013Z</time></trkpt><trkpt lat="43.794614" lon="11.5180706"><ele>615.0</ele><time>2026-05-03T10:08:32.012Z</time></trkpt><trkpt lat="43.7945317" lon="11.5179946"><ele>615.0</ele><time>2026-05-03T10:08:33.013Z</time></trkpt><trkpt lat="43.7944739" lon="11.517923"><ele>615.0</ele><time>2026-05-03T10:08:34.012Z</time></trkpt><trkpt lat="43.7944722" lon="11.5177989"><ele>615.0</ele><time>2026-05-03T10:08:36.013Z</time></trkpt><trkpt lat="43.7944656" lon="11.5176707"><ele>615.0</ele><time>2026-05-03T10:08:37.013Z</time></trkpt><trkpt lat="43.7944468" lon="11.5175607"><ele>615.0</ele><time>2026-05-03T10:08:38.013Z</time></trkpt><trkpt lat="43.7943988" lon="11.5174758"><ele>615.8</ele><time>2026-05-03T10:08:39.013Z</time></trkpt><trkpt lat="43.7943516" lon="11.5173539"><ele>616.6</ele><time>2026-05-03T10:08:40.013Z</time></trkpt><trkpt lat="43.7943022" lon="11.517218"><ele>617.4</ele><time>2026-05-03T10:08:41.012Z</time></trkpt><trkpt lat="43.7942653" lon="11.5170805"><ele>618.2</ele><time>2026-05-03T10:08:42.012Z</time></trkpt><trkpt lat="43.7942718" lon="11.5169634"><ele>619.0</ele><time>2026-05-03T10:08:43.012Z</time></trkpt><trkpt lat="43.7942538" lon="11.5168613"><ele>619.0</ele><time>2026-05-03T10:08:44.013Z</time></trkpt><trkpt lat="43.7942385" lon="11.5167735"><ele>619.0</ele><time>2026-05-03T10:08:45.013Z</time></trkpt><trkpt lat="43.7941591" lon="11.5166646"><ele>619.0</ele><time>2026-05-03T10:08:47.012Z</time></trkpt><trkpt lat="43.7941223" lon="11.5165811"><ele>619.0</ele><time>2026-05-03T10:08:48.012Z</time></trkpt><trkpt lat="43.7941015" lon="11.5164783"><ele>619.0</ele><time>2026-05-03T10:08:49.013Z</time></trkpt><trkpt lat="43.7940728" lon="11.5163942"><ele>619.0</ele><time>2026-05-03T10:08:50.013Z</time></trkpt><trkpt lat="43.7940399" lon="11.516314"><ele>616.0</ele><time>2026-05-03T10:08:51.012Z</time></trkpt><trkpt lat="43.7939847" lon="11.5161883"><ele>613.0</ele><time>2026-05-03T10:08:52.012Z</time></trkpt><trkpt lat="43.7939318" lon="11.5160817"><ele>610.0</ele><time>2026-05-03T10:08:53.013Z</time></trkpt><trkpt lat="43.7938856" lon="11.5159509"><ele>607.0</ele><time>2026-05-03T10:08:54.013Z</time></trkpt><trkpt lat="43.7938332" lon="11.5158225"><ele>604.0</ele><time>2026-05-03T10:08:55.012Z</time></trkpt><trkpt lat="43.79378" lon="11.515708"><ele>604.0</ele><time>2026-05-03T10:08:56.013Z</time></trkpt><trkpt lat="43.7936864" lon="11.5155911"><ele>604.0</ele><time>2026-05-03T10:08:58.013Z</time></trkpt><trkpt lat="43.7936166" lon="11.5155721"><ele>604.0</ele><time>2026-05-03T10:08:59.013Z</time></trkpt><trkpt lat="43.7935442" lon="11.5155361"><ele>604.0</ele><time>2026-05-03T10:09:00.012Z</time></trkpt><trkpt lat="43.7934317" lon="11.5154619"><ele>604.0</ele><time>2026-05-03T10:09:02.012Z</time></trkpt><trkpt lat="43.7933758" lon="11.5154137"><ele>604.4</ele><time>2026-05-03T10:09:03.012Z</time></trkpt><trkpt lat="43.7933234" lon="11.5153408"><ele>604.8</ele><time>2026-05-03T10:09:04.013Z</time></trkpt><trkpt lat="43.7932684" lon="11.5152632"><ele>605.2</ele><time>2026-05-03T10:09:05.013Z</time></trkpt><trkpt lat="43.7932024" lon="11.5151834"><ele>605.6</ele><time>2026-05-03T10:09:06.012Z</time></trkpt><trkpt lat="43.7932978" lon="11.515035"><ele>606.0</ele><time>2026-05-03T10:09:07.011Z</time></trkpt><trkpt lat="43.7933504" lon="11.5149124"><ele>606.0</ele><time>2026-05-03T10:09:09.013Z</time></trkpt><trkpt lat="43.7933833" lon="11.5148376"><ele>606.0</ele><time>2026-05-03T10:09:10.012Z</time></trkpt><trkpt lat="43.7934183" lon="11.5147423"><ele>606.0</ele><time>2026-05-03T10:09:11.012Z</time></trkpt><trkpt lat="43.7934494" lon="11.5146475"><ele>606.0</ele><time>2026-05-03T10:09:12.013Z</time></trkpt><trkpt lat="43.7934778" lon="11.514537"><ele>606.0</ele><time>2026-05-03T10:09:13.012Z</time></trkpt><trkpt lat="43.7934881" lon="11.5144373"><ele>606.0</ele><time>2026-05-03T10:09:14.013Z</time></trkpt><trkpt lat="43.7934823" lon="11.514339"><ele>606.0</ele><time>2026-05-03T10:09:15.012Z</time></trkpt><trkpt lat="43.7934518" lon="11.514201"><ele>604.0</ele><time>2026-05-03T10:09:16.012Z</time></trkpt><trkpt lat="43.7934176" lon="11.5140827"><ele>602.0</ele><time>2026-05-03T10:09:17.013Z</time></trkpt><trkpt lat="43.7933825" lon="11.5139599"><ele>600.0</ele><time>2026-05-03T10:09:18.013Z</time></trkpt><trkpt lat="43.7933632" lon="11.513846"><ele>598.0</ele><time>2026-05-03T10:09:19.013Z</time></trkpt><trkpt lat="43.7933791" lon="11.5137543"><ele>596.0</ele><time>2026-05-03T10:09:20.013Z</time></trkpt><trkpt lat="43.7934111" lon="11.5136257"><ele>594.0</ele><time>2026-05-03T10:09:21.013Z</time></trkpt><trkpt lat="43.7934215" lon="11.5134933"><ele>591.6666666666666</ele><time>2026-05-03T10:09:22.013Z</time></trkpt><trkpt lat="43.793439" lon="11.5133702"><ele>589.3333333333334</ele><time>2026-05-03T10:09:23.011Z</time></trkpt><trkpt lat="43.7934575" lon="11.5132376"><ele>587.0</ele><time>2026-05-03T10:09:24.013Z</time></trkpt><trkpt lat="43.7934725" lon="11.5131116"><ele>584.6666666666667</ele><time>2026-05-03T10:09:25.012Z</time></trkpt><trkpt lat="43.7934828" lon="11.5130073"><ele>582.3333333333334</ele><time>2026-05-03T10:09:26.013Z</time></trkpt><trkpt lat="43.7934944" lon="11.5129086"><ele>580.0</ele><time>2026-05-03T10:09:27.011Z</time></trkpt><trkpt lat="43.7935051" lon="11.5128196"><ele>578.1666666666667</ele><time>2026-05-03T10:09:28.013Z</time></trkpt><trkpt lat="43.7934737" lon="11.5127011"><ele>576.3333333333334</ele><time>2026-05-03T10:09:30.012Z</time></trkpt><trkpt lat="43.7934016" lon="11.5126797"><ele>574.5</ele><time>2026-05-03T10:09:32.013Z</time></trkpt><trkpt lat="43.7933162" lon="11.5126958"><ele>572.6666666666666</ele><time>2026-05-03T10:09:34.012Z</time></trkpt><trkpt lat="43.7932373" lon="11.5126995"><ele>570.8333333333333</ele><time>2026-05-03T10:09:36.013Z</time></trkpt><trkpt lat="43.7932551" lon="11.512614"><ele>569.0</ele><time>2026-05-03T10:09:39.013Z</time></trkpt><trkpt lat="43.7933226" lon="11.5125842"><ele>569.0</ele><time>2026-05-03T10:09:41.013Z</time></trkpt><trkpt lat="43.7934073" lon="11.5125323"><ele>569.0</ele><time>2026-05-03T10:09:43.012Z</time></trkpt><trkpt lat="43.7934714" lon="11.5124956"><ele>569.0</ele><time>2026-05-03T10:09:44.013Z</time></trkpt><trkpt lat="43.7935392" lon="11.5124497"><ele>569.0</ele><time>2026-05-03T10:09:45.013Z</time></trkpt><trkpt lat="43.7936073" lon="11.5124246"><ele>569.0</ele><time>2026-05-03T10:09:46.013Z</time></trkpt><trkpt lat="43.7937201" lon="11.5123963"><ele>569.0</ele><time>2026-05-03T10:09:48.012Z</time></trkpt><trkpt lat="43.7938007" lon="11.5124002"><ele>567.8</ele><time>2026-05-03T10:09:50.013Z</time></trkpt><trkpt lat="43.7939181" lon="11.512379"><ele>566.5999999999999</ele><time>2026-05-03T10:09:52.013Z</time></trkpt><trkpt lat="43.793995" lon="11.5123036"><ele>565.4</ele><time>2026-05-03T10:09:54.013Z</time></trkpt><trkpt lat="43.7940562" lon="11.5122173"><ele>564.1999999999999</ele><time>2026-05-03T10:09:56.013Z</time></trkpt><trkpt lat="43.7941056" lon="11.5121133"><ele>563.0</ele><time>2026-05-03T10:09:58.012Z</time></trkpt><trkpt lat="43.794165" lon="11.5120124"><ele>561.5</ele><time>2026-05-03T10:10:00.012Z</time></trkpt><trkpt lat="43.7942027" lon="11.511939"><ele>560.0</ele><time>2026-05-03T10:10:01.012Z</time></trkpt><trkpt lat="43.7942353" lon="11.5118609"><ele>558.5</ele><time>2026-05-03T10:10:02.012Z</time></trkpt><trkpt lat="43.7942716" lon="11.5116808"><ele>557.0</ele><time>2026-05-03T10:10:04.012Z</time></trkpt><trkpt lat="43.7942996" lon="11.5115926"><ele>555.5</ele><time>2026-05-03T10:10:05.012Z</time></trkpt><trkpt lat="43.7943443" lon="11.5115086"><ele>554.0</ele><time>2026-05-03T10:10:06.012Z</time></trkpt><trkpt lat="43.7944012" lon="11.5114383"><ele>552.2857142857142</ele><time>2026-05-03T10:10:07.013Z</time></trkpt><trkpt lat="43.7944496" lon="11.5113639"><ele>550.5714285714286</ele><time>2026-05-03T10:10:08.013Z</time></trkpt><trkpt lat="43.7944939" lon="11.5112761"><ele>548.8571428571429</ele><time>2026-05-03T10:10:10.013Z</time></trkpt><trkpt lat="43.794548" lon="11.5111964"><ele>547.1428571428571</ele><time>2026-05-03T10:10:12.012Z</time></trkpt><trkpt lat="43.7945709" lon="11.5111106"><ele>545.4285714285714</ele><time>2026-05-03T10:10:13.013Z</time></trkpt><trkpt lat="43.7945908" lon="11.5110223"><ele>543.7142857142857</ele><time>2026-05-03T10:10:14.013Z</time></trkpt><trkpt lat="43.7945996" lon="11.5109296"><ele>542.0</ele><time>2026-05-03T10:10:15.013Z</time></trkpt><trkpt lat="43.7946275" lon="11.5107894"><ele>541.3333333333333</ele><time>2026-05-03T10:10:17.013Z</time></trkpt><trkpt lat="43.7946414" lon="11.5107001"><ele>540.6666666666666</ele><time>2026-05-03T10:10:18.012Z</time></trkpt><trkpt lat="43.7946666" lon="11.5106077"><ele>540.0</ele><time>2026-05-03T10:10:19.012Z</time></trkpt><trkpt lat="43.7946856" lon="11.5105203"><ele>539.3333333333334</ele><time>2026-05-03T10:10:20.012Z</time></trkpt><trkpt lat="43.7947229" lon="11.5104416"><ele>538.6666666666667</ele><time>2026-05-03T10:10:21.013Z</time></trkpt><trkpt lat="43.7947356" lon="11.510326"><ele>538.0</ele><time>2026-05-03T10:10:22.012Z</time></trkpt><trkpt lat="43.7947797" lon="11.510148"><ele>537.3333333333334</ele><time>2026-05-03T10:10:24.012Z</time></trkpt><trkpt lat="43.7947932" lon="11.5099898"><ele>536.6666666666667</ele><time>2026-05-03T10:10:26.012Z</time></trkpt><trkpt lat="43.7948581" lon="11.5098968"><ele>536.0</ele><time>2026-05-03T10:10:29.013Z</time></trkpt><trkpt lat="43.7949196" lon="11.5098543"><ele>535.3333333333334</ele><time>2026-05-03T10:10:31.013Z</time></trkpt><trkpt lat="43.7949789" lon="11.5097709"><ele>534.6666666666666</ele><time>2026-05-03T10:10:33.012Z</time></trkpt><trkpt lat="43.7950236" lon="11.5096961"><ele>534.0</ele><time>2026-05-03T10:10:35.013Z</time></trkpt><trkpt lat="43.7950685" lon="11.5096295"><ele>533.1666666666666</ele><time>2026-05-03T10:10:36.012Z</time></trkpt><trkpt lat="43.795113" lon="11.5095397"><ele>532.3333333333334</ele><time>2026-05-03T10:10:37.012Z</time></trkpt><trkpt lat="43.7950924" lon="11.5094499"><ele>531.5</ele><time>2026-05-03T10:10:39.013Z</time></trkpt><trkpt lat="43.7950844" lon="11.5093114"><ele>530.6666666666667</ele><time>2026-05-03T10:10:41.013Z</time></trkpt><trkpt lat="43.7950984" lon="11.5091557"><ele>529.8333333333334</ele><time>2026-05-03T10:10:43.013Z</time></trkpt><trkpt lat="43.7950955" lon="11.5090331"><ele>529.0</ele><time>2026-05-03T10:10:45.013Z</time></trkpt><trkpt lat="43.7950902" lon="11.5089154"><ele>529.0</ele><time>2026-05-03T10:10:47.013Z</time></trkpt><trkpt lat="43.795023" lon="11.5088018"><ele>529.0</ele><time>2026-05-03T10:10:50.013Z</time></trkpt><trkpt lat="43.7949814" lon="11.5086805"><ele>529.0</ele><time>2026-05-03T10:10:51.927Z</time></trkpt><trkpt lat="43.7949185" lon="11.5085399"><ele>529.0</ele><time>2026-05-03T10:10:53.012Z</time></trkpt><trkpt lat="43.7948984" lon="11.5084424"><ele>529.0</ele><time>2026-05-03T10:10:54.012Z</time></trkpt><trkpt lat="43.7948703" lon="11.5083293"><ele>526.6666666666667</ele><time>2026-05-03T10:10:55.013Z</time></trkpt><trkpt lat="43.7948378" lon="11.5082216"><ele>524.3333333333334</ele><time>2026-05-03T10:10:56.013Z</time></trkpt><trkpt lat="43.7948191" lon="11.5081376"><ele>522.0</ele><time>2026-05-03T10:10:57.012Z</time></trkpt><trkpt lat="43.7947989" lon="11.5080479"><ele>519.6666666666666</ele><time>2026-05-03T10:10:58.012Z</time></trkpt><trkpt lat="43.7948027" lon="11.5079444"><ele>517.3333333333333</ele><time>2026-05-03T10:10:59.013Z</time></trkpt><trkpt lat="43.7947941" lon="11.5078076"><ele>515.0</ele><time>2026-05-03T10:11:00.013Z</time></trkpt><trkpt lat="43.7948018" lon="11.5076681"><ele>512.8333333333333</ele><time>2026-05-03T10:11:01.013Z</time></trkpt><trkpt lat="43.7948181" lon="11.5075492"><ele>510.66666666666663</ele><time>2026-05-03T10:11:02.012Z</time></trkpt><trkpt lat="43.7948251" lon="11.5074251"><ele>508.5</ele><time>2026-05-03T10:11:03.013Z</time></trkpt><trkpt lat="43.7948296" lon="11.5073044"><ele>506.33333333333337</ele><time>2026-05-03T10:11:04.012Z</time></trkpt><trkpt lat="43.7948291" lon="11.5071885"><ele>504.1666666666667</ele><time>2026-05-03T10:11:05.012Z</time></trkpt><trkpt lat="43.7948351" lon="11.5070823"><ele>502.0</ele><time>2026-05-03T10:11:06.013Z</time></trkpt><trkpt lat="43.7948385" lon="11.5069886"><ele>500.40000000000003</ele><time>2026-05-03T10:11:07.013Z</time></trkpt><trkpt lat="43.7948898" lon="11.506868"><ele>498.80000000000007</ele><time>2026-05-03T10:11:09.013Z</time></trkpt><trkpt lat="43.7949261" lon="11.5067946"><ele>497.2</ele><time>2026-05-03T10:11:10.011Z</time></trkpt><trkpt lat="43.7949708" lon="11.5066007"><ele>495.6</ele><time>2026-05-03T10:11:12.013Z</time></trkpt><trkpt lat="43.7949989" lon="11.5064888"><ele>494.0</ele><time>2026-05-03T10:11:13.013Z</time></trkpt><trkpt lat="43.7950272" lon="11.5063688"><ele>492.2</ele><time>2026-05-03T10:11:14.013Z</time></trkpt><trkpt lat="43.7950536" lon="11.5062249"><ele>490.4</ele><time>2026-05-03T10:11:15.012Z</time></trkpt><trkpt lat="43.7950843" lon="11.5060921"><ele>488.6</ele><time>2026-05-03T10:11:16.013Z</time></trkpt><trkpt lat="43.7951143" lon="11.5059407"><ele>486.8</ele><time>2026-05-03T10:11:17.013Z</time></trkpt><trkpt lat="43.7951545" lon="11.5057855"><ele>485.0</ele><time>2026-05-03T10:11:18.011Z</time></trkpt><trkpt lat="43.7951965" lon="11.5056173"><ele>483.6</ele><time>2026-05-03T10:11:19.013Z</time></trkpt><trkpt lat="43.7952318" lon="11.5054531"><ele>482.2</ele><time>2026-05-03T10:11:20.013Z</time></trkpt><trkpt lat="43.7952644" lon="11.5052971"><ele>480.79999999999995</ele><time>2026-05-03T10:11:21.012Z</time></trkpt><trkpt lat="43.7952941" lon="11.5051566"><ele>479.4</ele><time>2026-05-03T10:11:22.012Z</time></trkpt><trkpt lat="43.7953232" lon="11.5050198"><ele>478.0</ele><time>2026-05-03T10:11:23.013Z</time></trkpt><trkpt lat="43.7953457" lon="11.5048856"><ele>477.6666666666667</ele><time>2026-05-03T10:11:24.011Z</time></trkpt><trkpt lat="43.7953675" lon="11.5047658"><ele>477.33333333333337</ele><time>2026-05-03T10:11:25.013Z</time></trkpt><trkpt lat="43.7953887" lon="11.5046596"><ele>477.0</ele><time>2026-05-03T10:11:26.012Z</time></trkpt><trkpt lat="43.795421" lon="11.5045668"><ele>476.66666666666663</ele><time>2026-05-03T10:11:27.013Z</time></trkpt><trkpt lat="43.7954528" lon="11.5044893"><ele>476.3333333333333</ele><time>2026-05-03T10:11:28.013Z</time></trkpt><trkpt lat="43.7954895" lon="11.5043512"><ele>476.0</ele><time>2026-05-03T10:11:30.012Z</time></trkpt><trkpt lat="43.7955282" lon="11.5042308"><ele>476.0</ele><time>2026-05-03T10:11:33.013Z</time></trkpt><trkpt lat="43.7955001" lon="11.5041025"><ele>476.0</ele><time>2026-05-03T10:11:35.012Z</time></trkpt><trkpt lat="43.7954596" lon="11.5040325"><ele>476.0</ele><time>2026-05-03T10:11:36.012Z</time></trkpt><trkpt lat="43.7954002" lon="11.5039702"><ele>476.0</ele><time>2026-05-03T10:11:37.013Z</time></trkpt><trkpt lat="43.7953118" lon="11.5039049"><ele>476.0</ele><time>2026-05-03T10:11:38.013Z</time></trkpt><trkpt lat="43.7951959" lon="11.5038233"><ele>474.0</ele><time>2026-05-03T10:11:39.013Z</time></trkpt><trkpt lat="43.7950733" lon="11.503723"><ele>472.0</ele><time>2026-05-03T10:11:40.012Z</time></trkpt><trkpt lat="43.7949539" lon="11.5035806"><ele>470.0</ele><time>2026-05-03T10:11:41.012Z</time></trkpt><trkpt lat="43.7948474" lon="11.5034239"><ele>470.0</ele><time>2026-05-03T10:11:42.012Z</time></trkpt><trkpt lat="43.7947528" lon="11.5032647"><ele>470.0</ele><time>2026-05-03T10:11:43.013Z</time></trkpt><trkpt lat="43.7946666" lon="11.5031154"><ele>470.0</ele><time>2026-05-03T10:11:44.013Z</time></trkpt><trkpt lat="43.7945805" lon="11.5029751"><ele>470.0</ele><time>2026-05-03T10:11:45.012Z</time></trkpt><trkpt lat="43.7944974" lon="11.5028515"><ele>468.8</ele><time>2026-05-03T10:11:46.012Z</time></trkpt><trkpt lat="43.7944136" lon="11.5027439"><ele>467.6</ele><time>2026-05-03T10:11:47.012Z</time></trkpt><trkpt lat="43.7943349" lon="11.5026389"><ele>466.4</ele><time>2026-05-03T10:11:48.013Z</time></trkpt><trkpt lat="43.7942635" lon="11.502534"><ele>465.2</ele><time>2026-05-03T10:11:49.012Z</time></trkpt><trkpt lat="43.7942014" lon="11.5024398"><ele>464.0</ele><time>2026-05-03T10:11:50.013Z</time></trkpt><trkpt lat="43.7941517" lon="11.5023566"><ele>463.28571428571433</ele><time>2026-05-03T10:11:51.013Z</time></trkpt><trkpt lat="43.7941139" lon="11.5022741"><ele>462.57142857142856</ele><time>2026-05-03T10:11:52.012Z</time></trkpt><trkpt lat="43.7940826" lon="11.5021886"><ele>461.8571428571429</ele><time>2026-05-03T10:11:53.013Z</time></trkpt><trkpt lat="43.7940649" lon="11.5020948"><ele>461.14285714285717</ele><time>2026-05-03T10:11:54.012Z</time></trkpt><trkpt lat="43.7940591" lon="11.5019969"><ele>460.42857142857144</ele><time>2026-05-03T10:11:55.013Z</time></trkpt><trkpt lat="43.7940616" lon="11.5018991"><ele>459.7142857142857</ele><time>2026-05-03T10:11:56.013Z</time></trkpt><trkpt lat="43.7940664" lon="11.5017933"><ele>459.0</ele><time>2026-05-03T10:11:57.012Z</time></trkpt><trkpt lat="43.794072" lon="11.501671"><ele>458.0</ele><time>2026-05-03T10:11:58.013Z</time></trkpt><trkpt lat="43.7940735" lon="11.5015476"><ele>457.0</ele><time>2026-05-03T10:11:59.013Z</time></trkpt><trkpt lat="43.794081" lon="11.5014153"><ele>456.0</ele><time>2026-05-03T10:12:00.013Z</time></trkpt><trkpt lat="43.7940833" lon="11.5013044"><ele>455.0</ele><time>2026-05-03T10:12:01.013Z</time></trkpt><trkpt lat="43.7940922" lon="11.5011822"><ele>454.0</ele><time>2026-05-03T10:12:02.012Z</time></trkpt><trkpt lat="43.7941082" lon="11.5010689"><ele>453.0</ele><time>2026-05-03T10:12:03.013Z</time></trkpt><trkpt lat="43.7941309" lon="11.5009309"><ele>452.0</ele><time>2026-05-03T10:12:04.013Z</time></trkpt><trkpt lat="43.7941007" lon="11.5008195"><ele>450.99999999999994</ele><time>2026-05-03T10:12:05.012Z</time></trkpt><trkpt lat="43.7941288" lon="11.5006592"><ele>449.99999999999994</ele><time>2026-05-03T10:12:06.013Z</time></trkpt><trkpt lat="43.7940918" lon="11.5005333"><ele>449.0</ele><time>2026-05-03T10:12:07.013Z</time></trkpt><trkpt lat="43.7940669" lon="11.5003782"><ele>448.0</ele><time>2026-05-03T10:12:08.012Z</time></trkpt><trkpt lat="43.7940646" lon="11.5002568"><ele>447.6666666666667</ele><time>2026-05-03T10:12:09.012Z</time></trkpt><trkpt lat="43.7940513" lon="11.5001394"><ele>447.33333333333337</ele><time>2026-05-03T10:12:10.012Z</time></trkpt><trkpt lat="43.7940409" lon="11.5000125"><ele>447.0</ele><time>2026-05-03T10:12:11.012Z</time></trkpt><trkpt lat="43.7940433" lon="11.4998984"><ele>446.66666666666663</ele><time>2026-05-03T10:12:12.013Z</time></trkpt><trkpt lat="43.7940866" lon="11.4997894"><ele>446.3333333333333</ele><time>2026-05-03T10:12:13.013Z</time></trkpt><trkpt lat="43.7941069" lon="11.4996718"><ele>446.0</ele><time>2026-05-03T10:12:14.013Z</time></trkpt><trkpt lat="43.7941153" lon="11.4995652"><ele>446.0</ele><time>2026-05-03T10:12:15.013Z</time></trkpt><trkpt lat="43.7940851" lon="11.4994381"><ele>446.0</ele><time>2026-05-03T10:12:16.013Z</time></trkpt><trkpt lat="43.7940466" lon="11.4993086"><ele>446.0</ele><time>2026-05-03T10:12:17.012Z</time></trkpt><trkpt lat="43.7939313" lon="11.4991742"><ele>446.0</ele><time>2026-05-03T10:12:18.013Z</time></trkpt><trkpt lat="43.793878" lon="11.4990555"><ele>446.0</ele><time>2026-05-03T10:12:19.012Z</time></trkpt><trkpt lat="43.7938229" lon="11.4989283"><ele>446.0</ele><time>2026-05-03T10:12:20.012Z</time></trkpt><trkpt lat="43.7938002" lon="11.4987774"><ele>446.0</ele><time>2026-05-03T10:12:21.013Z</time></trkpt><trkpt lat="43.7937476" lon="11.498649"><ele>446.0</ele><time>2026-05-03T10:12:22.012Z</time></trkpt><trkpt lat="43.7937096" lon="11.498513"><ele>446.0</ele><time>2026-05-03T10:12:23.012Z</time></trkpt><trkpt lat="43.7936112" lon="11.4984718"><ele>446.0</ele><time>2026-05-03T10:12:24.013Z</time></trkpt><trkpt lat="43.7935284" lon="11.4983607"><ele>444.6</ele><time>2026-05-03T10:12:25.012Z</time></trkpt><trkpt lat="43.7934416" lon="11.4982601"><ele>443.20000000000005</ele><time>2026-05-03T10:12:26.013Z</time></trkpt><trkpt lat="43.7933624" lon="11.4981627"><ele>441.79999999999995</ele><time>2026-05-03T10:12:27.012Z</time></trkpt><trkpt lat="43.7933016" lon="11.4980917"><ele>440.4</ele><time>2026-05-03T10:12:28.012Z</time></trkpt><trkpt lat="43.7931881" lon="11.4980362"><ele>439.0</ele><time>2026-05-03T10:12:29.013Z</time></trkpt><trkpt lat="43.7931094" lon="11.4979902"><ele>439.0</ele><time>2026-05-03T10:12:30.013Z</time></trkpt><trkpt lat="43.793" lon="11.4979604"><ele>439.0</ele><time>2026-05-03T10:12:31.013Z</time></trkpt><trkpt lat="43.792899" lon="11.4979071"><ele>439.0</ele><time>2026-05-03T10:12:32.012Z</time></trkpt><trkpt lat="43.7928008" lon="11.4978904"><ele>439.0</ele><time>2026-05-03T10:12:33.013Z</time></trkpt><trkpt lat="43.792715" lon="11.497868"><ele>439.0</ele><time>2026-05-03T10:12:34.013Z</time></trkpt><trkpt lat="43.7926142" lon="11.4978368"><ele>437.6</ele><time>2026-05-03T10:12:35.013Z</time></trkpt><trkpt lat="43.7925109" lon="11.4978099"><ele>436.2</ele><time>2026-05-03T10:12:36.013Z</time></trkpt><trkpt lat="43.7924355" lon="11.4978055"><ele>434.80000000000007</ele><time>2026-05-03T10:12:37.013Z</time></trkpt><trkpt lat="43.7923844" lon="11.4978727"><ele>433.40000000000003</ele><time>2026-05-03T10:12:38.012Z</time></trkpt><trkpt lat="43.7922683" lon="11.4979683"><ele>432.0</ele><time>2026-05-03T10:12:40.012Z</time></trkpt><trkpt lat="43.7922112" lon="11.4980307"><ele>432.0</ele><time>2026-05-03T10:12:41.013Z</time></trkpt><trkpt lat="43.7921428" lon="11.4980931"><ele>432.0</ele><time>2026-05-03T10:12:42.013Z</time></trkpt><trkpt lat="43.7920873" lon="11.4981471"><ele>432.0</ele><time>2026-05-03T10:12:43.013Z</time></trkpt><trkpt lat="43.7919604" lon="11.4981561"><ele>432.0</ele><time>2026-05-03T10:12:45.012Z</time></trkpt><trkpt lat="43.7918908" lon="11.4981588"><ele>432.0</ele><time>2026-05-03T10:12:46.012Z</time></trkpt><trkpt lat="43.7918242" lon="11.4981251"><ele>432.0</ele><time>2026-05-03T10:12:51.013Z</time></trkpt><trkpt lat="43.7917497" lon="11.498093"><ele>431.6</ele><time>2026-05-03T10:12:54.013Z</time></trkpt><trkpt lat="43.7916551" lon="11.4980794"><ele>431.20000000000005</ele><time>2026-05-03T10:12:56.012Z</time></trkpt><trkpt lat="43.7915905" lon="11.4980517"><ele>430.8</ele><time>2026-05-03T10:12:57.011Z</time></trkpt><trkpt lat="43.7914984" lon="11.4979732"><ele>430.4</ele><time>2026-05-03T10:12:58.012Z</time></trkpt><trkpt lat="43.7914305" lon="11.4979284"><ele>430.0</ele><time>2026-05-03T10:12:59.011Z</time></trkpt><trkpt lat="43.7913111" lon="11.497861"><ele>429.8</ele><time>2026-05-03T10:13:00.012Z</time></trkpt><trkpt lat="43.7912211" lon="11.4978222"><ele>429.6</ele><time>2026-05-03T10:13:01.013Z</time></trkpt><trkpt lat="43.7911274" lon="11.4977276"><ele>429.4</ele><time>2026-05-03T10:13:02.012Z</time></trkpt><trkpt lat="43.7910802" lon="11.4975956"><ele>429.2</ele><time>2026-05-03T10:13:03.011Z</time></trkpt><trkpt lat="43.7910243" lon="11.4974954"><ele>429.0</ele><time>2026-05-03T10:13:04.013Z</time></trkpt><trkpt lat="43.7909606" lon="11.4974426"><ele>429.2</ele><time>2026-05-03T10:13:05.013Z</time></trkpt><trkpt lat="43.7908736" lon="11.4975185"><ele>429.4</ele><time>2026-05-03T10:13:07.012Z</time></trkpt><trkpt lat="43.7908169" lon="11.4976709"><ele>429.6</ele><time>2026-05-03T10:13:08.013Z</time></trkpt><trkpt lat="43.7907775" lon="11.4977702"><ele>429.8</ele><time>2026-05-03T10:13:09.013Z</time></trkpt><trkpt lat="43.7907193" lon="11.4978595"><ele>430.0</ele><time>2026-05-03T10:13:10.013Z</time></trkpt><trkpt lat="43.7906577" lon="11.4979421"><ele>430.0</ele><time>2026-05-03T10:13:11.013Z</time></trkpt><trkpt lat="43.7906134" lon="11.498027"><ele>430.0</ele><time>2026-05-03T10:13:12.012Z</time></trkpt><trkpt lat="43.7905312" lon="11.4979147"><ele>430.0</ele><time>2026-05-03T10:13:14.012Z</time></trkpt><trkpt lat="43.7905757" lon="11.4977438"><ele>430.0</ele><time>2026-05-03T10:13:15.013Z</time></trkpt><trkpt lat="43.7905896" lon="11.4976127"><ele>430.0</ele><time>2026-05-03T10:13:16.012Z</time></trkpt><trkpt lat="43.7905889" lon="11.4974799"><ele>428.75</ele><time>2026-05-03T10:13:17.013Z</time></trkpt><trkpt lat="43.7905661" lon="11.4973284"><ele>427.5</ele><time>2026-05-03T10:13:18.012Z</time></trkpt><trkpt lat="43.7905466" lon="11.4971488"><ele>426.25</ele><time>2026-05-03T10:13:19.012Z</time></trkpt><trkpt lat="43.7905519" lon="11.4969694"><ele>425.0</ele><time>2026-05-03T10:13:20.012Z</time></trkpt><trkpt lat="43.7905572" lon="11.496763"><ele>425.0</ele><time>2026-05-03T10:13:21.013Z</time></trkpt><trkpt lat="43.7905581" lon="11.4965893"><ele>425.0</ele><time>2026-05-03T10:13:22.013Z</time></trkpt><trkpt lat="43.7905734" lon="11.4964293"><ele>425.0</ele><time>2026-05-03T10:13:23.012Z</time></trkpt><trkpt lat="43.7905704" lon="11.4962939"><ele>425.0</ele><time>2026-05-03T10:13:24.013Z</time></trkpt><trkpt lat="43.7905303" lon="11.4961751"><ele>425.0</ele><time>2026-05-03T10:13:25.013Z</time></trkpt><trkpt lat="43.7904827" lon="11.496093"><ele>425.0</ele><time>2026-05-03T10:13:26.011Z</time></trkpt><trkpt lat="43.7904389" lon="11.4960027"><ele>425.0</ele><time>2026-05-03T10:13:27.013Z</time></trkpt><trkpt lat="43.7903556" lon="11.4961239"><ele>425.0</ele><time>2026-05-03T10:13:29.013Z</time></trkpt><trkpt lat="43.7903172" lon="11.4962462"><ele>425.0</ele><time>2026-05-03T10:13:30.012Z</time></trkpt><trkpt lat="43.7902606" lon="11.496373"><ele>425.0</ele><time>2026-05-03T10:13:31.012Z</time></trkpt><trkpt lat="43.7902042" lon="11.4964854"><ele>427.6</ele><time>2026-05-03T10:13:32.012Z</time></trkpt><trkpt lat="43.790126" lon="11.4965589"><ele>430.2</ele><time>2026-05-03T10:13:33.013Z</time></trkpt><trkpt lat="43.7900611" lon="11.4966377"><ele>432.79999999999995</ele><time>2026-05-03T10:13:34.012Z</time></trkpt><trkpt lat="43.7899762" lon="11.4966952"><ele>435.4</ele><time>2026-05-03T10:13:35.013Z</time></trkpt><trkpt lat="43.7898898" lon="11.4967743"><ele>438.0</ele><time>2026-05-03T10:13:36.013Z</time></trkpt><trkpt lat="43.7897947" lon="11.4968862"><ele>438.0</ele><time>2026-05-03T10:13:37.012Z</time></trkpt><trkpt lat="43.7897022" lon="11.496987"><ele>438.0</ele><time>2026-05-03T10:13:38.012Z</time></trkpt><trkpt lat="43.7896219" lon="11.4971431"><ele>438.0</ele><time>2026-05-03T10:13:39.011Z</time></trkpt><trkpt lat="43.7895689" lon="11.4972845"><ele>438.0</ele><time>2026-05-03T10:13:40.012Z</time></trkpt><trkpt lat="43.7895132" lon="11.4974211"><ele>438.4</ele><time>2026-05-03T10:13:41.013Z</time></trkpt><trkpt lat="43.7894796" lon="11.4975637"><ele>438.79999999999995</ele><time>2026-05-03T10:13:42.013Z</time></trkpt><trkpt lat="43.7894327" lon="11.4976717"><ele>439.2</ele><time>2026-05-03T10:13:43.012Z</time></trkpt><trkpt lat="43.7893646" lon="11.4977828"><ele>439.6</ele><time>2026-05-03T10:13:44.013Z</time></trkpt><trkpt lat="43.7892897" lon="11.4978808"><ele>440.0</ele><time>2026-05-03T10:13:45.013Z</time></trkpt><trkpt lat="43.789211" lon="11.4979325"><ele>440.4</ele><time>2026-05-03T10:13:46.012Z</time></trkpt><trkpt lat="43.7891141" lon="11.4979316"><ele>440.8</ele><time>2026-05-03T10:13:47.013Z</time></trkpt><trkpt lat="43.7890289" lon="11.4979505"><ele>441.20000000000005</ele><time>2026-05-03T10:13:48.012Z</time></trkpt><trkpt lat="43.788939" lon="11.4979081"><ele>441.6</ele><time>2026-05-03T10:13:49.012Z</time></trkpt><trkpt lat="43.7888616" lon="11.4978623"><ele>442.0</ele><time>2026-05-03T10:13:50.012Z</time></trkpt><trkpt lat="43.7887902" lon="11.4977836"><ele>442.0</ele><time>2026-05-03T10:13:51.012Z</time></trkpt><trkpt lat="43.7887335" lon="11.4976703"><ele>442.00000000000006</ele><time>2026-05-03T10:13:52.012Z</time></trkpt><trkpt lat="43.7886949" lon="11.4975636"><ele>442.00000000000006</ele><time>2026-05-03T10:13:53.012Z</time></trkpt><trkpt lat="43.7886601" lon="11.4974551"><ele>442.0</ele><time>2026-05-03T10:13:54.013Z</time></trkpt><trkpt lat="43.7886819" lon="11.4973334"><ele>442.0</ele><time>2026-05-03T10:13:55.012Z</time></trkpt><trkpt lat="43.7887295" lon="11.4972219"><ele>442.00000000000006</ele><time>2026-05-03T10:13:56.013Z</time></trkpt><trkpt lat="43.788751" lon="11.4971063"><ele>442.0</ele><time>2026-05-03T10:13:57.013Z</time></trkpt><trkpt lat="43.7887957" lon="11.4970013"><ele>442.0</ele><time>2026-05-03T10:13:58.011Z</time></trkpt><trkpt lat="43.7888738" lon="11.4969246"><ele>442.0</ele><time>2026-05-03T10:13:59.011Z</time></trkpt><trkpt lat="43.7889205" lon="11.4968444"><ele>442.00000000000006</ele><time>2026-05-03T10:14:00.012Z</time></trkpt><trkpt lat="43.7889634" lon="11.4967194"><ele>442.0</ele><time>2026-05-03T10:14:01.013Z</time></trkpt><trkpt lat="43.7889356" lon="11.4966259"><ele>440.33333333333337</ele><time>2026-05-03T10:14:02.013Z</time></trkpt><trkpt lat="43.7889686" lon="11.4965468"><ele>438.6666666666667</ele><time>2026-05-03T10:14:03.012Z</time></trkpt><trkpt lat="43.7889932" lon="11.49644"><ele>437.0</ele><time>2026-05-03T10:14:04.012Z</time></trkpt><trkpt lat="43.7890247" lon="11.4963455"><ele>435.33333333333337</ele><time>2026-05-03T10:14:05.012Z</time></trkpt><trkpt lat="43.7890686" lon="11.4962665"><ele>433.6666666666667</ele><time>2026-05-03T10:14:06.012Z</time></trkpt><trkpt lat="43.7891328" lon="11.4961899"><ele>432.0</ele><time>2026-05-03T10:14:07.013Z</time></trkpt><trkpt lat="43.7891944" lon="11.4961111"><ele>430.8</ele><time>2026-05-03T10:14:08.012Z</time></trkpt><trkpt lat="43.7892451" lon="11.496039"><ele>429.6</ele><time>2026-05-03T10:14:09.013Z</time></trkpt><trkpt lat="43.7892408" lon="11.4958908"><ele>428.40000000000003</ele><time>2026-05-03T10:14:11.012Z</time></trkpt><trkpt lat="43.7891858" lon="11.4958271"><ele>427.20000000000005</ele><time>2026-05-03T10:14:12.012Z</time></trkpt><trkpt lat="43.7891071" lon="11.4957589"><ele>426.0</ele><time>2026-05-03T10:14:13.012Z</time></trkpt><trkpt lat="43.7890055" lon="11.4956709"><ele>426.0</ele><time>2026-05-03T10:14:14.013Z</time></trkpt><trkpt lat="43.7889119" lon="11.4955937"><ele>426.0</ele><time>2026-05-03T10:14:15.013Z</time></trkpt><trkpt lat="43.7888253" lon="11.4955238"><ele>426.0</ele><time>2026-05-03T10:14:16.013Z</time></trkpt><trkpt lat="43.7887426" lon="11.4954555"><ele>426.0</ele><time>2026-05-03T10:14:17.012Z</time></trkpt><trkpt lat="43.7886533" lon="11.4953732"><ele>426.0</ele><time>2026-05-03T10:14:18.013Z</time></trkpt><trkpt lat="43.7885567" lon="11.4952952"><ele>424.0</ele><time>2026-05-03T10:14:19.013Z</time></trkpt><trkpt lat="43.7884521" lon="11.495215"><ele>422.0</ele><time>2026-05-03T10:14:20.012Z</time></trkpt><trkpt lat="43.7883451" lon="11.4951339"><ele>420.0</ele><time>2026-05-03T10:14:21.013Z</time></trkpt><trkpt lat="43.7882524" lon="11.4950679"><ele>418.0</ele><time>2026-05-03T10:14:22.011Z</time></trkpt><trkpt lat="43.7881582" lon="11.4950055"><ele>418.0</ele><time>2026-05-03T10:14:23.013Z</time></trkpt><trkpt lat="43.7880661" lon="11.4949463"><ele>418.0</ele><time>2026-05-03T10:14:24.013Z</time></trkpt><trkpt lat="43.7879386" lon="11.4948628"><ele>418.0</ele><time>2026-05-03T10:14:25.013Z</time></trkpt><trkpt lat="43.7878163" lon="11.4947879"><ele>418.0</ele><time>2026-05-03T10:14:26.013Z</time></trkpt><trkpt lat="43.7877089" lon="11.4947372"><ele>418.2</ele><time>2026-05-03T10:14:27.013Z</time></trkpt><trkpt lat="43.7876179" lon="11.4946758"><ele>418.4</ele><time>2026-05-03T10:14:28.013Z</time></trkpt><trkpt lat="43.7875431" lon="11.4946166"><ele>418.59999999999997</ele><time>2026-05-03T10:14:29.012Z</time></trkpt><trkpt lat="43.7874718" lon="11.494541"><ele>418.79999999999995</ele><time>2026-05-03T10:14:30.013Z</time></trkpt><trkpt lat="43.7874061" lon="11.49446"><ele>419.0</ele><time>2026-05-03T10:14:31.013Z</time></trkpt><trkpt lat="43.7873303" lon="11.4943683"><ele>417.0</ele><time>2026-05-03T10:14:32.012Z</time></trkpt><trkpt lat="43.787253" lon="11.4942792"><ele>415.0</ele><time>2026-05-03T10:14:33.012Z</time></trkpt><trkpt lat="43.7871871" lon="11.4941817"><ele>413.0</ele><time>2026-05-03T10:14:34.013Z</time></trkpt><trkpt lat="43.7871298" lon="11.4940888"><ele>411.0</ele><time>2026-05-03T10:14:35.012Z</time></trkpt><trkpt lat="43.78708" lon="11.4939838"><ele>409.0</ele><time>2026-05-03T10:14:36.012Z</time></trkpt><trkpt lat="43.7870291" lon="11.4938722"><ele>409.00000000000006</ele><time>2026-05-03T10:14:37.012Z</time></trkpt><trkpt lat="43.7869783" lon="11.4937592"><ele>409.0</ele><time>2026-05-03T10:14:38.013Z</time></trkpt><trkpt lat="43.7869203" lon="11.4936684"><ele>409.0</ele><time>2026-05-03T10:14:39.013Z</time></trkpt><trkpt lat="43.786854" lon="11.4936218"><ele>409.0</ele><time>2026-05-03T10:14:40.013Z</time></trkpt><trkpt lat="43.7867743" lon="11.4935898"><ele>409.00000000000006</ele><time>2026-05-03T10:14:41.012Z</time></trkpt><trkpt lat="43.7866863" lon="11.4935686"><ele>409.0</ele><time>2026-05-03T10:14:42.013Z</time></trkpt><trkpt lat="43.7865995" lon="11.4935468"><ele>408.79999999999995</ele><time>2026-05-03T10:14:43.013Z</time></trkpt><trkpt lat="43.7865161" lon="11.493518"><ele>408.59999999999997</ele><time>2026-05-03T10:14:44.013Z</time></trkpt><trkpt lat="43.786424" lon="11.4934781"><ele>408.4</ele><time>2026-05-03T10:14:45.012Z</time></trkpt><trkpt lat="43.7863577" lon="11.4934648"><ele>408.2</ele><time>2026-05-03T10:14:46.012Z</time></trkpt><trkpt lat="43.786262" lon="11.4936284"><ele>408.0</ele><time>2026-05-03T10:14:48.012Z</time></trkpt><trkpt lat="43.7862151" lon="11.4937519"><ele>408.3333333333333</ele><time>2026-05-03T10:14:49.012Z</time></trkpt><trkpt lat="43.7861656" lon="11.4938565"><ele>408.66666666666663</ele><time>2026-05-03T10:14:50.013Z</time></trkpt><trkpt lat="43.7861033" lon="11.4938383"><ele>409.0</ele><time>2026-05-03T10:14:51.013Z</time></trkpt><trkpt lat="43.7860381" lon="11.4938489"><ele>409.3333333333333</ele><time>2026-05-03T10:14:52.013Z</time></trkpt><trkpt lat="43.7859743" lon="11.4938124"><ele>409.66666666666663</ele><time>2026-05-03T10:14:53.012Z</time></trkpt><trkpt lat="43.7858774" lon="11.4936371"><ele>410.0</ele><time>2026-05-03T10:14:54.013Z</time></trkpt><trkpt lat="43.7857947" lon="11.4935308"><ele>412.0</ele><time>2026-05-03T10:14:55.013Z</time></trkpt><trkpt lat="43.7857332" lon="11.4934256"><ele>414.0</ele><time>2026-05-03T10:14:56.012Z</time></trkpt><trkpt lat="43.7856486" lon="11.4934098"><ele>416.0</ele><time>2026-05-03T10:14:57.012Z</time></trkpt><trkpt lat="43.7855321" lon="11.4933773"><ele>418.0</ele><time>2026-05-03T10:14:58.013Z</time></trkpt><trkpt lat="43.7854207" lon="11.4933548"><ele>420.0</ele><time>2026-05-03T10:14:59.012Z</time></trkpt><trkpt lat="43.7853204" lon="11.4933167"><ele>420.0</ele><time>2026-05-03T10:15:00.011Z</time></trkpt><trkpt lat="43.7852154" lon="11.4932821"><ele>420.0</ele><time>2026-05-03T10:15:01.012Z</time></trkpt><trkpt lat="43.7850929" lon="11.4932621"><ele>420.0</ele><time>2026-05-03T10:15:02.012Z</time></trkpt><trkpt lat="43.7849703" lon="11.4932699"><ele>420.0</ele><time>2026-05-03T10:15:03.013Z</time></trkpt><trkpt lat="43.7848325" lon="11.4932669"><ele>422.25</ele><time>2026-05-03T10:15:04.013Z</time></trkpt><trkpt lat="43.7847117" lon="11.4932681"><ele>424.5</ele><time>2026-05-03T10:15:05.012Z</time></trkpt><trkpt lat="43.7845998" lon="11.4932365"><ele>426.75</ele><time>2026-05-03T10:15:06.013Z</time></trkpt><trkpt lat="43.7844909" lon="11.4931815"><ele>429.0</ele><time>2026-05-03T10:15:07.013Z</time></trkpt><trkpt lat="43.7843933" lon="11.4931359"><ele>428.6666666666667</ele><time>2026-05-03T10:15:08.013Z</time></trkpt><trkpt lat="43.7843064" lon="11.4930598"><ele>428.33333333333337</ele><time>2026-05-03T10:15:09.013Z</time></trkpt><trkpt lat="43.7842332" lon="11.4929955"><ele>428.0</ele><time>2026-05-03T10:15:10.012Z</time></trkpt><trkpt lat="43.7841713" lon="11.4929464"><ele>427.6666666666667</ele><time>2026-05-03T10:15:11.013Z</time></trkpt><trkpt lat="43.7841076" lon="11.4928893"><ele>427.33333333333337</ele><time>2026-05-03T10:15:12.012Z</time></trkpt><trkpt lat="43.7840433" lon="11.4928152"><ele>427.0</ele><time>2026-05-03T10:15:13.013Z</time></trkpt><trkpt lat="43.7839902" lon="11.4927273"><ele>427.0</ele><time>2026-05-03T10:15:14.012Z</time></trkpt><trkpt lat="43.783934" lon="11.4926208"><ele>427.00000000000006</ele><time>2026-05-03T10:15:15.013Z</time></trkpt><trkpt lat="43.7838625" lon="11.4925018"><ele>427.00000000000006</ele><time>2026-05-03T10:15:16.013Z</time></trkpt><trkpt lat="43.7837896" lon="11.4923773"><ele>427.0</ele><time>2026-05-03T10:15:17.013Z</time></trkpt><trkpt lat="43.7837257" lon="11.4922484"><ele>427.0</ele><time>2026-05-03T10:15:18.013Z</time></trkpt><trkpt lat="43.7836487" lon="11.4921164"><ele>424.0</ele><time>2026-05-03T10:15:19.013Z</time></trkpt><trkpt lat="43.7835617" lon="11.4919805"><ele>421.0</ele><time>2026-05-03T10:15:20.013Z</time></trkpt><trkpt lat="43.7834758" lon="11.491838"><ele>418.0</ele><time>2026-05-03T10:15:21.013Z</time></trkpt><trkpt lat="43.7833892" lon="11.4916735"><ele>415.0</ele><time>2026-05-03T10:15:22.013Z</time></trkpt><trkpt lat="43.7833026" lon="11.4915179"><ele>414.75</ele><time>2026-05-03T10:15:23.012Z</time></trkpt><trkpt lat="43.7832108" lon="11.491359"><ele>414.5</ele><time>2026-05-03T10:15:24.012Z</time></trkpt><trkpt lat="43.7831179" lon="11.4911968"><ele>414.25</ele><time>2026-05-03T10:15:25.011Z</time></trkpt><trkpt lat="43.7830303" lon="11.491038"><ele>414.0</ele><time>2026-05-03T10:15:26.012Z</time></trkpt><trkpt lat="43.7829439" lon="11.4908878"><ele>411.25</ele><time>2026-05-03T10:15:27.013Z</time></trkpt><trkpt lat="43.7828585" lon="11.4907381"><ele>408.5</ele><time>2026-05-03T10:15:28.012Z</time></trkpt><trkpt lat="43.7827759" lon="11.4905941"><ele>405.75</ele><time>2026-05-03T10:15:29.012Z</time></trkpt><trkpt lat="43.7826973" lon="11.4904691"><ele>403.0</ele><time>2026-05-03T10:15:30.012Z</time></trkpt><trkpt lat="43.7826278" lon="11.4903483"><ele>402.4</ele><time>2026-05-03T10:15:31.013Z</time></trkpt><trkpt lat="43.7825575" lon="11.4902235"><ele>401.79999999999995</ele><time>2026-05-03T10:15:32.012Z</time></trkpt><trkpt lat="43.7824954" lon="11.4901009"><ele>401.2</ele><time>2026-05-03T10:15:33.012Z</time></trkpt><trkpt lat="43.7824393" lon="11.4899722"><ele>400.6</ele><time>2026-05-03T10:15:34.013Z</time></trkpt><trkpt lat="43.7824015" lon="11.4898444"><ele>400.0</ele><time>2026-05-03T10:15:35.013Z</time></trkpt><trkpt lat="43.7823723" lon="11.4897084"><ele>400.0</ele><time>2026-05-03T10:15:36.013Z</time></trkpt><trkpt lat="43.7823455" lon="11.4895654"><ele>400.0</ele><time>2026-05-03T10:15:37.011Z</time></trkpt><trkpt lat="43.7823156" lon="11.4894251"><ele>400.0</ele><time>2026-05-03T10:15:38.013Z</time></trkpt><trkpt lat="43.7822864" lon="11.4892702"><ele>400.0</ele><time>2026-05-03T10:15:39.012Z</time></trkpt><trkpt lat="43.7822591" lon="11.4891068"><ele>400.0</ele><time>2026-05-03T10:15:40.011Z</time></trkpt><trkpt lat="43.7822349" lon="11.4889547"><ele>400.0</ele><time>2026-05-03T10:15:41.012Z</time></trkpt><trkpt lat="43.782219" lon="11.4887968"><ele>400.0</ele><time>2026-05-03T10:15:42.012Z</time></trkpt><trkpt lat="43.7822109" lon="11.4886421"><ele>400.0</ele><time>2026-05-03T10:15:43.013Z</time></trkpt><trkpt lat="43.7822262" lon="11.4884938"><ele>400.0</ele><time>2026-05-03T10:15:44.011Z</time></trkpt><trkpt lat="43.7822578" lon="11.4883363"><ele>398.0</ele><time>2026-05-03T10:15:45.013Z</time></trkpt><trkpt lat="43.7823018" lon="11.4881677"><ele>396.0</ele><time>2026-05-03T10:15:46.013Z</time></trkpt><trkpt lat="43.7823444" lon="11.487998"><ele>394.0</ele><time>2026-05-03T10:15:47.013Z</time></trkpt><trkpt lat="43.7823839" lon="11.4878373"><ele>392.0</ele><time>2026-05-03T10:15:48.013Z</time></trkpt><trkpt lat="43.7824202" lon="11.4876818"><ele>390.8</ele><time>2026-05-03T10:15:49.012Z</time></trkpt><trkpt lat="43.782452" lon="11.4875343"><ele>389.6</ele><time>2026-05-03T10:15:50.013Z</time></trkpt><trkpt lat="43.7824789" lon="11.4873958"><ele>388.40000000000003</ele><time>2026-05-03T10:15:51.012Z</time></trkpt><trkpt lat="43.7824973" lon="11.4872633"><ele>387.20000000000005</ele><time>2026-05-03T10:15:52.013Z</time></trkpt><trkpt lat="43.7825112" lon="11.4871299"><ele>386.0</ele><time>2026-05-03T10:15:53.012Z</time></trkpt><trkpt lat="43.7825117" lon="11.4869998"><ele>385.0</ele><time>2026-05-03T10:15:54.012Z</time></trkpt><trkpt lat="43.7824853" lon="11.4868766"><ele>384.0</ele><time>2026-05-03T10:15:55.012Z</time></trkpt><trkpt lat="43.7824572" lon="11.4867467"><ele>383.0</ele><time>2026-05-03T10:15:56.013Z</time></trkpt><trkpt lat="43.782433" lon="11.4866147"><ele>382.0</ele><time>2026-05-03T10:15:57.013Z</time></trkpt><trkpt lat="43.7824065" lon="11.4864892"><ele>381.0</ele><time>2026-05-03T10:15:58.013Z</time></trkpt><trkpt lat="43.7823788" lon="11.4863667"><ele>380.0</ele><time>2026-05-03T10:15:59.013Z</time></trkpt><trkpt lat="43.782352" lon="11.4862534"><ele>379.0</ele><time>2026-05-03T10:16:00.012Z</time></trkpt><trkpt lat="43.7823246" lon="11.4861542"><ele>378.0</ele><time>2026-05-03T10:16:01.013Z</time></trkpt><trkpt lat="43.7822792" lon="11.485992"><ele>377.0</ele><time>2026-05-03T10:16:03.013Z</time></trkpt><trkpt lat="43.7822508" lon="11.4858929"><ele>376.0</ele><time>2026-05-03T10:16:04.013Z</time></trkpt><trkpt lat="43.7822104" lon="11.4857852"><ele>376.0</ele><time>2026-05-03T10:16:05.013Z</time></trkpt><trkpt lat="43.7821727" lon="11.4856678"><ele>376.0</ele><time>2026-05-03T10:16:06.011Z</time></trkpt><trkpt lat="43.7821382" lon="11.4855405"><ele>376.0</ele><time>2026-05-03T10:16:07.011Z</time></trkpt><trkpt lat="43.7821052" lon="11.4854087"><ele>376.0</ele><time>2026-05-03T10:16:08.013Z</time></trkpt><trkpt lat="43.7820684" lon="11.4852722"><ele>376.0</ele><time>2026-05-03T10:16:09.013Z</time></trkpt><trkpt lat="43.7820296" lon="11.4851345"><ele>376.0</ele><time>2026-05-03T10:16:10.013Z</time></trkpt><trkpt lat="43.7819811" lon="11.4849981"><ele>376.0</ele><time>2026-05-03T10:16:11.013Z</time></trkpt><trkpt lat="43.7819178" lon="11.4848622"><ele>376.0</ele><time>2026-05-03T10:16:12.013Z</time></trkpt><trkpt lat="43.7818402" lon="11.4847292"><ele>376.0</ele><time>2026-05-03T10:16:13.012Z</time></trkpt><trkpt lat="43.7817545" lon="11.4846162"><ele>376.0</ele><time>2026-05-03T10:16:14.012Z</time></trkpt><trkpt lat="43.7816613" lon="11.4845172"><ele>376.0</ele><time>2026-05-03T10:16:15.013Z</time></trkpt><trkpt lat="43.7815676" lon="11.4844173"><ele>376.0</ele><time>2026-05-03T10:16:16.013Z</time></trkpt><trkpt lat="43.7814763" lon="11.484312"><ele>376.0</ele><time>2026-05-03T10:16:17.012Z</time></trkpt><trkpt lat="43.7813914" lon="11.4842018"><ele>376.0</ele><time>2026-05-03T10:16:18.013Z</time></trkpt><trkpt lat="43.7813132" lon="11.4840918"><ele>376.0</ele><time>2026-05-03T10:16:19.013Z</time></trkpt><trkpt lat="43.7812451" lon="11.4839879"><ele>376.0</ele><time>2026-05-03T10:16:20.013Z</time></trkpt><trkpt lat="43.7811848" lon="11.4838908"><ele>376.0</ele><time>2026-05-03T10:16:21.011Z</time></trkpt><trkpt lat="43.7811345" lon="11.4837897"><ele>376.0</ele><time>2026-05-03T10:16:22.013Z</time></trkpt><trkpt lat="43.7810935" lon="11.4836879"><ele>374.8333333333333</ele><time>2026-05-03T10:16:23.012Z</time></trkpt><trkpt lat="43.7810594" lon="11.4835867"><ele>373.66666666666663</ele><time>2026-05-03T10:16:24.013Z</time></trkpt><trkpt lat="43.7810225" lon="11.4834872"><ele>372.5</ele><time>2026-05-03T10:16:25.013Z</time></trkpt><trkpt lat="43.7809846" lon="11.4833959"><ele>371.3333333333333</ele><time>2026-05-03T10:16:26.012Z</time></trkpt><trkpt lat="43.780954" lon="11.4833092"><ele>370.1666666666667</ele><time>2026-05-03T10:16:27.013Z</time></trkpt><trkpt lat="43.7809277" lon="11.4832255"><ele>369.0</ele><time>2026-05-03T10:16:28.012Z</time></trkpt><trkpt lat="43.7808878" lon="11.4830889"><ele>366.6</ele><time>2026-05-03T10:16:30.012Z</time></trkpt><trkpt lat="43.7808424" lon="11.4829504"><ele>364.2</ele><time>2026-05-03T10:16:32.011Z</time></trkpt><trkpt lat="43.7807925" lon="11.4828232"><ele>361.8</ele><time>2026-05-03T10:16:34.012Z</time></trkpt><trkpt lat="43.7807547" lon="11.4826937"><ele>359.40000000000003</ele><time>2026-05-03T10:16:36.013Z</time></trkpt><trkpt lat="43.7807326" lon="11.4825606"><ele>357.0</ele><time>2026-05-03T10:16:38.012Z</time></trkpt><trkpt lat="43.7807004" lon="11.4823908"><ele>356.3333333333333</ele><time>2026-05-03T10:16:40.012Z</time></trkpt><trkpt lat="43.7806703" lon="11.4822973"><ele>355.6666666666667</ele><time>2026-05-03T10:16:41.013Z</time></trkpt><trkpt lat="43.7806317" lon="11.4822024"><ele>355.0</ele><time>2026-05-03T10:16:42.013Z</time></trkpt><trkpt lat="43.7805928" lon="11.4821003"><ele>354.33333333333337</ele><time>2026-05-03T10:16:43.013Z</time></trkpt><trkpt lat="43.78056" lon="11.4819961"><ele>353.6666666666667</ele><time>2026-05-03T10:16:44.012Z</time></trkpt><trkpt lat="43.780532" lon="11.4818906"><ele>353.0</ele><time>2026-05-03T10:16:45.012Z</time></trkpt><trkpt lat="43.7805019" lon="11.4817788"><ele>352.33333333333337</ele><time>2026-05-03T10:16:46.013Z</time></trkpt><trkpt lat="43.7804718" lon="11.481661"><ele>351.6666666666667</ele><time>2026-05-03T10:16:47.013Z</time></trkpt><trkpt lat="43.780438" lon="11.4815495"><ele>351.0</ele><time>2026-05-03T10:16:48.013Z</time></trkpt><trkpt lat="43.7804103" lon="11.4814466"><ele>350.3333333333333</ele><time>2026-05-03T10:16:49.013Z</time></trkpt><trkpt lat="43.7803843" lon="11.4813477"><ele>349.66666666666663</ele><time>2026-05-03T10:16:50.013Z</time></trkpt><trkpt lat="43.7803569" lon="11.4812448"><ele>349.0</ele><time>2026-05-03T10:16:51.012Z</time></trkpt><trkpt lat="43.7803273" lon="11.4811384"><ele>348.5</ele><time>2026-05-03T10:16:52.013Z</time></trkpt><trkpt lat="43.7802986" lon="11.4810291"><ele>348.0</ele><time>2026-05-03T10:16:53.013Z</time></trkpt><trkpt lat="43.7802702" lon="11.4809149"><ele>347.5</ele><time>2026-05-03T10:16:54.013Z</time></trkpt><trkpt lat="43.7802399" lon="11.4807971"><ele>347.0</ele><time>2026-05-03T10:16:55.012Z</time></trkpt><trkpt lat="43.7802093" lon="11.480677"><ele>346.5</ele><time>2026-05-03T10:16:56.013Z</time></trkpt><trkpt lat="43.7801653" lon="11.4805672"><ele>346.0</ele><time>2026-05-03T10:16:57.013Z</time></trkpt><trkpt lat="43.7801068" lon="11.4804857"><ele>345.3333333333333</ele><time>2026-05-03T10:16:58.013Z</time></trkpt><trkpt lat="43.7800504" lon="11.4804306"><ele>344.66666666666663</ele><time>2026-05-03T10:16:59.013Z</time></trkpt><trkpt lat="43.7799591" lon="11.480345"><ele>344.0</ele><time>2026-05-03T10:17:01.013Z</time></trkpt><trkpt lat="43.7799035" lon="11.4802928"><ele>343.3333333333333</ele><time>2026-05-03T10:17:03.013Z</time></trkpt><trkpt lat="43.779852" lon="11.4802362"><ele>342.6666666666667</ele><time>2026-05-03T10:17:06.012Z</time></trkpt><trkpt lat="43.779798" lon="11.4801825"><ele>342.0</ele><time>2026-05-03T10:17:09.013Z</time></trkpt><trkpt lat="43.7797256" lon="11.4801067"><ele>342.0</ele><time>2026-05-03T10:17:12.012Z</time></trkpt><trkpt lat="43.779665" lon="11.480051"><ele>342.0</ele><time>2026-05-03T10:17:14.011Z</time></trkpt><trkpt lat="43.7795956" lon="11.4799933"><ele>342.0</ele><time>2026-05-03T10:17:16.013Z</time></trkpt><trkpt lat="43.7794932" lon="11.4799125"><ele>342.0</ele><time>2026-05-03T10:17:18.013Z</time></trkpt><trkpt lat="43.7794372" lon="11.4798663"><ele>342.0</ele><time>2026-05-03T10:17:19.012Z</time></trkpt><trkpt lat="43.7793787" lon="11.4798121"><ele>342.0</ele><time>2026-05-03T10:17:20.011Z</time></trkpt><trkpt lat="43.7793178" lon="11.4797576"><ele>341.5</ele><time>2026-05-03T10:17:21.013Z</time></trkpt><trkpt lat="43.7792538" lon="11.4797019"><ele>341.0</ele><time>2026-05-03T10:17:22.013Z</time></trkpt><trkpt lat="43.7791961" lon="11.4796512"><ele>340.5</ele><time>2026-05-03T10:17:23.013Z</time></trkpt><trkpt lat="43.7791352" lon="11.4795987"><ele>340.0</ele><time>2026-05-03T10:17:24.013Z</time></trkpt><trkpt lat="43.7790732" lon="11.4795477"><ele>339.5</ele><time>2026-05-03T10:17:25.011Z</time></trkpt><trkpt lat="43.7790183" lon="11.4794969"><ele>339.0</ele><time>2026-05-03T10:17:26.012Z</time></trkpt><trkpt lat="43.7789349" lon="11.4793844"><ele>338.3333333333333</ele><time>2026-05-03T10:17:28.013Z</time></trkpt><trkpt lat="43.7788845" lon="11.4792917"><ele>337.6666666666667</ele><time>2026-05-03T10:17:30.013Z</time></trkpt><trkpt lat="43.7788584" lon="11.4792084"><ele>337.0</ele><time>2026-05-03T10:17:32.011Z</time></trkpt><trkpt lat="43.7788254" lon="11.4790607"><ele>336.33333333333337</ele><time>2026-05-03T10:17:35.013Z</time></trkpt><trkpt lat="43.7788017" lon="11.4789472"><ele>335.6666666666667</ele><time>2026-05-03T10:17:36.013Z</time></trkpt><trkpt lat="43.7787744" lon="11.4788206"><ele>335.0</ele><time>2026-05-03T10:17:37.012Z</time></trkpt><trkpt lat="43.7787462" lon="11.4786865"><ele>333.2</ele><time>2026-05-03T10:17:38.013Z</time></trkpt><trkpt lat="43.7787201" lon="11.4785373"><ele>331.4</ele><time>2026-05-03T10:17:39.013Z</time></trkpt><trkpt lat="43.7786992" lon="11.4783856"><ele>329.6</ele><time>2026-05-03T10:17:40.012Z</time></trkpt><trkpt lat="43.7786829" lon="11.4782339"><ele>327.8</ele><time>2026-05-03T10:17:41.012Z</time></trkpt><trkpt lat="43.7786683" lon="11.4780887"><ele>326.0</ele><time>2026-05-03T10:17:42.012Z</time></trkpt><trkpt lat="43.7786535" lon="11.477934"><ele>325.0</ele><time>2026-05-03T10:17:43.012Z</time></trkpt><trkpt lat="43.7786431" lon="11.4777766"><ele>324.0</ele><time>2026-05-03T10:17:44.013Z</time></trkpt><trkpt lat="43.7786312" lon="11.4776038"><ele>323.0</ele><time>2026-05-03T10:17:45.013Z</time></trkpt><trkpt lat="43.7786213" lon="11.4774314"><ele>322.0</ele><time>2026-05-03T10:17:46.012Z</time></trkpt><trkpt lat="43.778606" lon="11.4772511"><ele>321.5</ele><time>2026-05-03T10:17:47.012Z</time></trkpt><trkpt lat="43.7785813" lon="11.4770743"><ele>321.0</ele><time>2026-05-03T10:17:48.013Z</time></trkpt><trkpt lat="43.7785448" lon="11.4769189"><ele>320.5</ele><time>2026-05-03T10:17:49.013Z</time></trkpt><trkpt lat="43.7785056" lon="11.4767765"><ele>320.0</ele><time>2026-05-03T10:17:50.012Z</time></trkpt><trkpt lat="43.7784652" lon="11.4766295"><ele>321.6</ele><time>2026-05-03T10:17:51.012Z</time></trkpt><trkpt lat="43.7784303" lon="11.4764876"><ele>323.2</ele><time>2026-05-03T10:17:52.012Z</time></trkpt><trkpt lat="43.7783983" lon="11.4763474"><ele>324.79999999999995</ele><time>2026-05-03T10:17:53.013Z</time></trkpt><trkpt lat="43.7783722" lon="11.4762047"><ele>326.4</ele><time>2026-05-03T10:17:54.013Z</time></trkpt><trkpt lat="43.778353" lon="11.4760629"><ele>328.0</ele><time>2026-05-03T10:17:55.013Z</time></trkpt><trkpt lat="43.7783453" lon="11.4759243"><ele>328.0</ele><time>2026-05-03T10:17:56.013Z</time></trkpt><trkpt lat="43.7783372" lon="11.4757849"><ele>328.0</ele><time>2026-05-03T10:17:57.012Z</time></trkpt><trkpt lat="43.7783244" lon="11.4756366"><ele>328.0</ele><time>2026-05-03T10:17:58.013Z</time></trkpt><trkpt lat="43.7783016" lon="11.4754814"><ele>328.0</ele><time>2026-05-03T10:17:59.012Z</time></trkpt><trkpt lat="43.7782624" lon="11.4753286"><ele>328.0</ele><time>2026-05-03T10:18:00.011Z</time></trkpt><trkpt lat="43.7782249" lon="11.4751679"><ele>328.0</ele><time>2026-05-03T10:18:01.012Z</time></trkpt><trkpt lat="43.7781889" lon="11.474999"><ele>328.0</ele><time>2026-05-03T10:18:02.012Z</time></trkpt><trkpt lat="43.7781451" lon="11.4748379"><ele>328.0</ele><time>2026-05-03T10:18:03.012Z</time></trkpt><trkpt lat="43.7780996" lon="11.4746783"><ele>328.0</ele><time>2026-05-03T10:18:04.013Z</time></trkpt><trkpt lat="43.7780553" lon="11.4745399"><ele>327.8333333333333</ele><time>2026-05-03T10:18:05.012Z</time></trkpt><trkpt lat="43.7780154" lon="11.4744172"><ele>327.66666666666663</ele><time>2026-05-03T10:18:06.012Z</time></trkpt><trkpt lat="43.7779704" lon="11.4743198"><ele>327.5</ele><time>2026-05-03T10:18:07.012Z</time></trkpt><trkpt lat="43.7779097" lon="11.4742419"><ele>327.3333333333333</ele><time>2026-05-03T10:18:08.012Z</time></trkpt><trkpt lat="43.7778397" lon="11.4741831"><ele>327.1666666666667</ele><time>2026-05-03T10:18:09.013Z</time></trkpt><trkpt lat="43.7777739" lon="11.4741396"><ele>327.0</ele><time>2026-05-03T10:18:10.012Z</time></trkpt><trkpt lat="43.7776971" lon="11.4740957"><ele>327.3333333333333</ele><time>2026-05-03T10:18:11.012Z</time></trkpt><trkpt lat="43.777621" lon="11.4740439"><ele>327.6666666666667</ele><time>2026-05-03T10:18:12.012Z</time></trkpt><trkpt lat="43.7775434" lon="11.4739884"><ele>328.0</ele><time>2026-05-03T10:18:13.012Z</time></trkpt><trkpt lat="43.7774814" lon="11.4739155"><ele>328.33333333333337</ele><time>2026-05-03T10:18:14.013Z</time></trkpt><trkpt lat="43.7774173" lon="11.4738657"><ele>328.6666666666667</ele><time>2026-05-03T10:18:15.012Z</time></trkpt><trkpt lat="43.7773338" lon="11.4738131"><ele>329.0</ele><time>2026-05-03T10:18:16.013Z</time></trkpt><trkpt lat="43.7772557" lon="11.4737629"><ele>329.0</ele><time>2026-05-03T10:18:17.013Z</time></trkpt><trkpt lat="43.7771809" lon="11.4737085"><ele>329.0</ele><time>2026-05-03T10:18:18.013Z</time></trkpt><trkpt lat="43.7771125" lon="11.4736547"><ele>329.0</ele><time>2026-05-03T10:18:19.012Z</time></trkpt><trkpt lat="43.7770508" lon="11.473593"><ele>329.0</ele><time>2026-05-03T10:18:20.013Z</time></trkpt><trkpt lat="43.7769993" lon="11.4735278"><ele>329.0</ele><time>2026-05-03T10:18:21.013Z</time></trkpt><trkpt lat="43.7769273" lon="11.4733951"><ele>329.0</ele><time>2026-05-03T10:18:23.012Z</time></trkpt><trkpt lat="43.7769011" lon="11.4732924"><ele>329.0</ele><time>2026-05-03T10:18:24.013Z</time></trkpt><trkpt lat="43.7768849" lon="11.4731829"><ele>329.0</ele><time>2026-05-03T10:18:25.013Z</time></trkpt><trkpt lat="43.7768621" lon="11.4730787"><ele>329.0</ele><time>2026-05-03T10:18:26.012Z</time></trkpt><trkpt lat="43.7768271" lon="11.4729798"><ele>329.0</ele><time>2026-05-03T10:18:27.012Z</time></trkpt><trkpt lat="43.7767706" lon="11.4728591"><ele>329.0</ele><time>2026-05-03T10:18:28.013Z</time></trkpt><trkpt lat="43.7767077" lon="11.4727336"><ele>326.0</ele><time>2026-05-03T10:18:29.012Z</time></trkpt><trkpt lat="43.7766426" lon="11.4726068"><ele>323.0</ele><time>2026-05-03T10:18:30.013Z</time></trkpt><trkpt lat="43.7765803" lon="11.4724769"><ele>320.0</ele><time>2026-05-03T10:18:31.012Z</time></trkpt><trkpt lat="43.7765227" lon="11.4723454"><ele>317.0</ele><time>2026-05-03T10:18:32.011Z</time></trkpt><trkpt lat="43.7764684" lon="11.4722203"><ele>314.0</ele><time>2026-05-03T10:18:33.013Z</time></trkpt><trkpt lat="43.7764168" lon="11.4720838"><ele>312.75</ele><time>2026-05-03T10:18:34.013Z</time></trkpt><trkpt lat="43.7763651" lon="11.4719456"><ele>311.5</ele><time>2026-05-03T10:18:35.013Z</time></trkpt><trkpt lat="43.7763141" lon="11.471809"><ele>310.25</ele><time>2026-05-03T10:18:36.013Z</time></trkpt><trkpt lat="43.7762642" lon="11.4716633"><ele>309.0</ele><time>2026-05-03T10:18:37.012Z</time></trkpt><trkpt lat="43.7762162" lon="11.4715149"><ele>309.0</ele><time>2026-05-03T10:18:38.013Z</time></trkpt><trkpt lat="43.7761774" lon="11.4713689"><ele>309.0</ele><time>2026-05-03T10:18:39.011Z</time></trkpt><trkpt lat="43.776141" lon="11.4712141"><ele>309.0</ele><time>2026-05-03T10:18:40.013Z</time></trkpt><trkpt lat="43.7761085" lon="11.4710568"><ele>309.0</ele><time>2026-05-03T10:18:41.012Z</time></trkpt><trkpt lat="43.7760846" lon="11.4708934"><ele>308.5</ele><time>2026-05-03T10:18:42.012Z</time></trkpt><trkpt lat="43.7760628" lon="11.4707303"><ele>308.0</ele><time>2026-05-03T10:18:43.012Z</time></trkpt><trkpt lat="43.776037" lon="11.4705698"><ele>307.5</ele><time>2026-05-03T10:18:44.012Z</time></trkpt><trkpt lat="43.7760209" lon="11.4704102"><ele>307.0</ele><time>2026-05-03T10:18:45.012Z</time></trkpt><trkpt lat="43.7760024" lon="11.4702569"><ele>309.6</ele><time>2026-05-03T10:18:46.012Z</time></trkpt><trkpt lat="43.7759858" lon="11.4701069"><ele>312.2</ele><time>2026-05-03T10:18:47.012Z</time></trkpt><trkpt lat="43.775974" lon="11.4699654"><ele>314.8</ele><time>2026-05-03T10:18:48.012Z</time></trkpt><trkpt lat="43.775962" lon="11.4698324"><ele>317.4</ele><time>2026-05-03T10:18:49.013Z</time></trkpt><trkpt lat="43.7759333" lon="11.4697212"><ele>320.0</ele><time>2026-05-03T10:18:50.012Z</time></trkpt><trkpt lat="43.7758842" lon="11.4696325"><ele>320.0</ele><time>2026-05-03T10:18:51.012Z</time></trkpt><trkpt lat="43.7758221" lon="11.4695797"><ele>320.0</ele><time>2026-05-03T10:18:52.013Z</time></trkpt><trkpt lat="43.775748" lon="11.4695739"><ele>320.0</ele><time>2026-05-03T10:18:53.013Z</time></trkpt><trkpt lat="43.7756724" lon="11.4696065"><ele>320.0</ele><time>2026-05-03T10:18:54.013Z</time></trkpt><trkpt lat="43.7755831" lon="11.4696582"><ele>320.0</ele><time>2026-05-03T10:18:55.013Z</time></trkpt><trkpt lat="43.7754845" lon="11.4697067"><ele>320.0</ele><time>2026-05-03T10:18:56.013Z</time></trkpt><trkpt lat="43.7753736" lon="11.4697589"><ele>320.0</ele><time>2026-05-03T10:18:57.013Z</time></trkpt><trkpt lat="43.7752583" lon="11.4698162"><ele>320.0</ele><time>2026-05-03T10:18:58.013Z</time></trkpt><trkpt lat="43.7751397" lon="11.4698712"><ele>320.0</ele><time>2026-05-03T10:18:59.013Z</time></trkpt><trkpt lat="43.7750247" lon="11.4699287"><ele>320.0</ele><time>2026-05-03T10:19:00.013Z</time></trkpt><trkpt lat="43.7749178" lon="11.4699797"><ele>319.2</ele><time>2026-05-03T10:19:01.013Z</time></trkpt><trkpt lat="43.7748203" lon="11.4700316"><ele>318.4</ele><time>2026-05-03T10:19:02.013Z</time></trkpt><trkpt lat="43.7747251" lon="11.4700781"><ele>317.6</ele><time>2026-05-03T10:19:03.011Z</time></trkpt><trkpt lat="43.7746474" lon="11.4701506"><ele>316.8</ele><time>2026-05-03T10:19:04.013Z</time></trkpt><trkpt lat="43.7745808" lon="11.4702533"><ele>316.0</ele><time>2026-05-03T10:19:05.013Z</time></trkpt><trkpt lat="43.7745248" lon="11.4703861"><ele>313.75</ele><time>2026-05-03T10:19:06.013Z</time></trkpt><trkpt lat="43.7744751" lon="11.4705326"><ele>311.5</ele><time>2026-05-03T10:19:07.013Z</time></trkpt><trkpt lat="43.7744319" lon="11.4706754"><ele>309.25</ele><time>2026-05-03T10:19:08.013Z</time></trkpt><trkpt lat="43.7743811" lon="11.470817"><ele>307.0</ele><time>2026-05-03T10:19:09.012Z</time></trkpt><trkpt lat="43.7743252" lon="11.4709537"><ele>305.8</ele><time>2026-05-03T10:19:10.012Z</time></trkpt><trkpt lat="43.7742641" lon="11.4710824"><ele>304.6</ele><time>2026-05-03T10:19:11.013Z</time></trkpt><trkpt lat="43.7742034" lon="11.4712007"><ele>303.40000000000003</ele><time>2026-05-03T10:19:12.013Z</time></trkpt><trkpt lat="43.7741418" lon="11.4713151"><ele>302.2</ele><time>2026-05-03T10:19:13.012Z</time></trkpt><trkpt lat="43.7740804" lon="11.4714274"><ele>301.0</ele><time>2026-05-03T10:19:14.012Z</time></trkpt><trkpt lat="43.774015" lon="11.471531"><ele>298.5</ele><time>2026-05-03T10:19:15.013Z</time></trkpt><trkpt lat="43.773929" lon="11.471621"><ele>296.0</ele><time>2026-05-03T10:19:16.013Z</time></trkpt><trkpt lat="43.7738322" lon="11.4716954"><ele>293.5</ele><time>2026-05-03T10:19:17.013Z</time></trkpt><trkpt lat="43.7737324" lon="11.471757"><ele>291.0</ele><time>2026-05-03T10:19:18.012Z</time></trkpt><trkpt lat="43.7736155" lon="11.471808"><ele>289.75</ele><time>2026-05-03T10:19:19.013Z</time></trkpt><trkpt lat="43.7734944" lon="11.4718497"><ele>288.5</ele><time>2026-05-03T10:19:20.013Z</time></trkpt><trkpt lat="43.7733742" lon="11.4718892"><ele>287.25</ele><time>2026-05-03T10:19:21.013Z</time></trkpt><trkpt lat="43.7732431" lon="11.4719223"><ele>286.0</ele><time>2026-05-03T10:19:22.013Z</time></trkpt><trkpt lat="43.7731132" lon="11.4719478"><ele>286.0</ele><time>2026-05-03T10:19:23.012Z</time></trkpt><trkpt lat="43.7729885" lon="11.4719725"><ele>286.0</ele><time>2026-05-03T10:19:24.012Z</time></trkpt><trkpt lat="43.7728658" lon="11.4719946"><ele>286.0</ele><time>2026-05-03T10:19:25.013Z</time></trkpt><trkpt lat="43.7727447" lon="11.4720138"><ele>286.0</ele><time>2026-05-03T10:19:26.013Z</time></trkpt><trkpt lat="43.772626" lon="11.4720269"><ele>283.6</ele><time>2026-05-03T10:19:27.013Z</time></trkpt><trkpt lat="43.772516" lon="11.4720372"><ele>281.20000000000005</ele><time>2026-05-03T10:19:28.013Z</time></trkpt><trkpt lat="43.7724067" lon="11.4720437"><ele>278.79999999999995</ele><time>2026-05-03T10:19:29.013Z</time></trkpt><trkpt lat="43.7723037" lon="11.4720443"><ele>276.4</ele><time>2026-05-03T10:19:30.013Z</time></trkpt><trkpt lat="43.7722098" lon="11.4720279"><ele>274.0</ele><time>2026-05-03T10:19:31.013Z</time></trkpt><trkpt lat="43.7721317" lon="11.4720138"><ele>274.0</ele><time>2026-05-03T10:19:32.013Z</time></trkpt><trkpt lat="43.7720641" lon="11.4720004"><ele>274.0</ele><time>2026-05-03T10:19:33.013Z</time></trkpt><trkpt lat="43.7719678" lon="11.4720039"><ele>274.0</ele><time>2026-05-03T10:19:35.012Z</time></trkpt><trkpt lat="43.7719273" lon="11.4721097"><ele>274.0</ele><time>2026-05-03T10:19:37.013Z</time></trkpt><trkpt lat="43.7719218" lon="11.4721985"><ele>274.0</ele><time>2026-05-03T10:19:38.012Z</time></trkpt><trkpt lat="43.7719051" lon="11.4723525"><ele>274.0</ele><time>2026-05-03T10:19:40.013Z</time></trkpt><trkpt lat="43.7718992" lon="11.4724528"><ele>272.2</ele><time>2026-05-03T10:19:42.012Z</time></trkpt><trkpt lat="43.7718871" lon="11.4725418"><ele>270.4</ele><time>2026-05-03T10:20:51.012Z</time></trkpt><trkpt lat="43.7717731" lon="11.4725738"><ele>268.6</ele><time>2026-05-03T10:20:54.013Z</time></trkpt><trkpt lat="43.7716981" lon="11.4725823"><ele>266.8</ele><time>2026-05-03T10:20:55.013Z</time></trkpt><trkpt lat="43.7716112" lon="11.4726013"><ele>265.0</ele><time>2026-05-03T10:20:56.013Z</time></trkpt><trkpt lat="43.7715086" lon="11.472633"><ele>263.0</ele><time>2026-05-03T10:20:57.013Z</time></trkpt><trkpt lat="43.7714036" lon="11.4726685"><ele>261.0</ele><time>2026-05-03T10:20:58.012Z</time></trkpt><trkpt lat="43.7713009" lon="11.4726987"><ele>259.0</ele><time>2026-05-03T10:20:59.013Z</time></trkpt><trkpt lat="43.7712019" lon="11.4727235"><ele>257.0</ele><time>2026-05-03T10:21:00.012Z</time></trkpt><trkpt lat="43.7711021" lon="11.4727253"><ele>255.0</ele><time>2026-05-03T10:21:01.013Z</time></trkpt><trkpt lat="43.7710108" lon="11.4726875"><ele>252.25</ele><time>2026-05-03T10:21:02.013Z</time></trkpt><trkpt lat="43.7709293" lon="11.4726005"><ele>249.5</ele><time>2026-05-03T10:21:03.013Z</time></trkpt><trkpt lat="43.7708538" lon="11.4724853"><ele>246.75</ele><time>2026-05-03T10:21:04.013Z</time></trkpt><trkpt lat="43.7707744" lon="11.4723596"><ele>244.0</ele><time>2026-05-03T10:21:05.013Z</time></trkpt><trkpt lat="43.7706787" lon="11.4722593"><ele>244.0</ele><time>2026-05-03T10:21:06.012Z</time></trkpt><trkpt lat="43.7705737" lon="11.4721754"><ele>244.0</ele><time>2026-05-03T10:21:07.013Z</time></trkpt><trkpt lat="43.770459" lon="11.4720969"><ele>244.0</ele><time>2026-05-03T10:21:08.012Z</time></trkpt><trkpt lat="43.7703433" lon="11.4720237"><ele>244.0</ele><time>2026-05-03T10:21:09.013Z</time></trkpt><trkpt lat="43.7702339" lon="11.4719609"><ele>242.25</ele><time>2026-05-03T10:21:10.012Z</time></trkpt><trkpt lat="43.7701219" lon="11.4718934"><ele>240.5</ele><time>2026-05-03T10:21:11.013Z</time></trkpt><trkpt lat="43.7700116" lon="11.4718129"><ele>238.75</ele><time>2026-05-03T10:21:12.012Z</time></trkpt><trkpt lat="43.7699044" lon="11.4717104"><ele>237.0</ele><time>2026-05-03T10:21:13.011Z</time></trkpt><trkpt lat="43.7698048" lon="11.4715972"><ele>237.0</ele><time>2026-05-03T10:21:14.013Z</time></trkpt><trkpt lat="43.769715" lon="11.4714844"><ele>237.0</ele><time>2026-05-03T10:21:15.012Z</time></trkpt><trkpt lat="43.7696322" lon="11.4713807"><ele>237.0</ele><time>2026-05-03T10:21:16.013Z</time></trkpt><trkpt lat="43.7695613" lon="11.4712759"><ele>237.0</ele><time>2026-05-03T10:21:17.013Z</time></trkpt><trkpt lat="43.7695058" lon="11.4711656"><ele>237.0</ele><time>2026-05-03T10:21:18.013Z</time></trkpt><trkpt lat="43.7694746" lon="11.4710454"><ele>236.0</ele><time>2026-05-03T10:21:19.013Z</time></trkpt><trkpt lat="43.7694772" lon="11.4709213"><ele>235.0</ele><time>2026-05-03T10:21:20.012Z</time></trkpt><trkpt lat="43.7695112" lon="11.4708172"><ele>234.0</ele><time>2026-05-03T10:21:21.013Z</time></trkpt><trkpt lat="43.7695684" lon="11.4707429"><ele>233.0</ele><time>2026-05-03T10:21:22.013Z</time></trkpt><trkpt lat="43.7696578" lon="11.4707099"><ele>232.0</ele><time>2026-05-03T10:21:23.012Z</time></trkpt><trkpt lat="43.7697744" lon="11.4707103"><ele>232.0</ele><time>2026-05-03T10:21:24.013Z</time></trkpt><trkpt lat="43.7699136" lon="11.4707244"><ele>232.0</ele><time>2026-05-03T10:21:25.013Z</time></trkpt><trkpt lat="43.7700452" lon="11.4707123"><ele>232.0</ele><time>2026-05-03T10:21:26.013Z</time></trkpt><trkpt lat="43.7701644" lon="11.4706648"><ele>232.0</ele><time>2026-05-03T10:21:27.012Z</time></trkpt><trkpt lat="43.7702677" lon="11.4705853"><ele>230.75</ele><time>2026-05-03T10:21:28.012Z</time></trkpt><trkpt lat="43.7703493" lon="11.4704788"><ele>229.5</ele><time>2026-05-03T10:21:29.013Z</time></trkpt><trkpt lat="43.7703994" lon="11.4703368"><ele>228.25</ele><time>2026-05-03T10:21:30.011Z</time></trkpt><trkpt lat="43.7704263" lon="11.4701656"><ele>227.0</ele><time>2026-05-03T10:21:31.012Z</time></trkpt><trkpt lat="43.7704271" lon="11.4699655"><ele>227.0</ele><time>2026-05-03T10:21:32.013Z</time></trkpt><trkpt lat="43.7704236" lon="11.4697441"><ele>227.0</ele><time>2026-05-03T10:21:33.013Z</time></trkpt><trkpt lat="43.7704164" lon="11.4695194"><ele>227.0</ele><time>2026-05-03T10:21:34.013Z</time></trkpt><trkpt lat="43.770405" lon="11.4692922"><ele>224.66666666666669</ele><time>2026-05-03T10:21:35.013Z</time></trkpt><trkpt lat="43.7703948" lon="11.4690731"><ele>222.33333333333331</ele><time>2026-05-03T10:21:36.011Z</time></trkpt><trkpt lat="43.7703821" lon="11.4688631"><ele>220.0</ele><time>2026-05-03T10:21:37.013Z</time></trkpt><trkpt lat="43.7703686" lon="11.4686576"><ele>217.33333333333331</ele><time>2026-05-03T10:21:38.013Z</time></trkpt><trkpt lat="43.7703501" lon="11.4684492"><ele>214.66666666666669</ele><time>2026-05-03T10:21:39.012Z</time></trkpt><trkpt lat="43.7703292" lon="11.4682333"><ele>212.0</ele><time>2026-05-03T10:21:40.013Z</time></trkpt><trkpt lat="43.7703119" lon="11.4680161"><ele>210.33333333333334</ele><time>2026-05-03T10:21:41.012Z</time></trkpt><trkpt lat="43.7702966" lon="11.4677964"><ele>208.66666666666669</ele><time>2026-05-03T10:21:42.013Z</time></trkpt><trkpt lat="43.7702848" lon="11.4675808"><ele>207.0</ele><time>2026-05-03T10:21:43.012Z</time></trkpt><trkpt lat="43.7702812" lon="11.4673721"><ele>207.0</ele><time>2026-05-03T10:21:44.013Z</time></trkpt><trkpt lat="43.7702853" lon="11.4671765"><ele>207.0</ele><time>2026-05-03T10:21:45.013Z</time></trkpt><trkpt lat="43.770292" lon="11.4669904"><ele>207.0</ele><time>2026-05-03T10:21:46.013Z</time></trkpt><trkpt lat="43.770304" lon="11.4668176"><ele>207.0</ele><time>2026-05-03T10:21:47.013Z</time></trkpt><trkpt lat="43.7703155" lon="11.4666459"><ele>206.6</ele><time>2026-05-03T10:21:48.013Z</time></trkpt><trkpt lat="43.7703266" lon="11.4664832"><ele>206.2</ele><time>2026-05-03T10:21:49.012Z</time></trkpt><trkpt lat="43.7703378" lon="11.4663269"><ele>205.8</ele><time>2026-05-03T10:21:50.012Z</time></trkpt><trkpt lat="43.7703554" lon="11.4661777"><ele>205.4</ele><time>2026-05-03T10:21:51.013Z</time></trkpt><trkpt lat="43.770383" lon="11.4660511"><ele>205.0</ele><time>2026-05-03T10:21:52.013Z</time></trkpt><trkpt lat="43.7704137" lon="11.4659371"><ele>203.8</ele><time>2026-05-03T10:21:53.013Z</time></trkpt><trkpt lat="43.7704292" lon="11.4658139"><ele>202.6</ele><time>2026-05-03T10:21:54.013Z</time></trkpt><trkpt lat="43.7704277" lon="11.4656835"><ele>201.39999999999998</ele><time>2026-05-03T10:21:55.013Z</time></trkpt><trkpt lat="43.770435" lon="11.4655525"><ele>200.2</ele><time>2026-05-03T10:21:56.011Z</time></trkpt><trkpt lat="43.7704604" lon="11.4654233"><ele>199.0</ele><time>2026-05-03T10:21:57.012Z</time></trkpt><trkpt lat="43.7704931" lon="11.4652905"><ele>198.6</ele><time>2026-05-03T10:21:58.013Z</time></trkpt><trkpt lat="43.7705297" lon="11.4651528"><ele>198.2</ele><time>2026-05-03T10:21:59.013Z</time></trkpt><trkpt lat="43.7705703" lon="11.4650128"><ele>197.79999999999998</ele><time>2026-05-03T10:22:00.012Z</time></trkpt><trkpt lat="43.7706112" lon="11.4648653"><ele>197.39999999999998</ele><time>2026-05-03T10:22:01.012Z</time></trkpt><trkpt lat="43.7706526" lon="11.4647114"><ele>197.0</ele><time>2026-05-03T10:22:02.013Z</time></trkpt><trkpt lat="43.7706871" lon="11.4645569"><ele>196.0</ele><time>2026-05-03T10:22:03.012Z</time></trkpt><trkpt lat="43.7707139" lon="11.4644086"><ele>195.0</ele><time>2026-05-03T10:22:04.013Z</time></trkpt><trkpt lat="43.7707268" lon="11.4642651"><ele>194.0</ele><time>2026-05-03T10:22:05.013Z</time></trkpt><trkpt lat="43.7707273" lon="11.4641324"><ele>193.0</ele><time>2026-05-03T10:22:06.013Z</time></trkpt><trkpt lat="43.7707245" lon="11.4640133"><ele>192.0</ele><time>2026-05-03T10:22:07.013Z</time></trkpt><trkpt lat="43.7707227" lon="11.4638998"><ele>191.2</ele><time>2026-05-03T10:22:08.013Z</time></trkpt><trkpt lat="43.7707248" lon="11.4637746"><ele>190.39999999999998</ele><time>2026-05-03T10:22:09.013Z</time></trkpt><trkpt lat="43.770721" lon="11.4636377"><ele>189.60000000000002</ele><time>2026-05-03T10:22:10.013Z</time></trkpt><trkpt lat="43.7707182" lon="11.4634979"><ele>188.8</ele><time>2026-05-03T10:22:11.013Z</time></trkpt><trkpt lat="43.7707152" lon="11.4633584"><ele>188.0</ele><time>2026-05-03T10:22:12.013Z</time></trkpt><trkpt lat="43.7707109" lon="11.4632153"><ele>188.0</ele><time>2026-05-03T10:22:13.013Z</time></trkpt><trkpt lat="43.7707026" lon="11.4630712"><ele>188.0</ele><time>2026-05-03T10:22:14.013Z</time></trkpt><trkpt lat="43.7706947" lon="11.4629378"><ele>188.0</ele><time>2026-05-03T10:22:15.013Z</time></trkpt><trkpt lat="43.7706866" lon="11.4628009"><ele>188.0</ele><time>2026-05-03T10:22:16.013Z</time></trkpt><trkpt lat="43.7706762" lon="11.4626612"><ele>188.0</ele><time>2026-05-03T10:22:17.013Z</time></trkpt><trkpt lat="43.7706657" lon="11.4625278"><ele>187.0</ele><time>2026-05-03T10:22:18.013Z</time></trkpt><trkpt lat="43.7706585" lon="11.4624008"><ele>186.0</ele><time>2026-05-03T10:22:19.013Z</time></trkpt><trkpt lat="43.7706542" lon="11.4622817"><ele>185.0</ele><time>2026-05-03T10:22:20.013Z</time></trkpt><trkpt lat="43.7706593" lon="11.4621747"><ele>184.0</ele><time>2026-05-03T10:22:21.013Z</time></trkpt><trkpt lat="43.7706842" lon="11.4620862"><ele>183.0</ele><time>2026-05-03T10:22:22.013Z</time></trkpt><trkpt lat="43.7707327" lon="11.4620091"><ele>182.0</ele><time>2026-05-03T10:22:23.013Z</time></trkpt><trkpt lat="43.7708034" lon="11.4619495"><ele>181.6</ele><time>2026-05-03T10:22:24.012Z</time></trkpt><trkpt lat="43.7708874" lon="11.4618899"><ele>181.2</ele><time>2026-05-03T10:22:25.012Z</time></trkpt><trkpt lat="43.7709679" lon="11.4618243"><ele>180.8</ele><time>2026-05-03T10:22:26.013Z</time></trkpt><trkpt lat="43.7710484" lon="11.4617628"><ele>180.4</ele><time>2026-05-03T10:22:27.013Z</time></trkpt><trkpt lat="43.7711392" lon="11.4617052"><ele>180.0</ele><time>2026-05-03T10:22:28.012Z</time></trkpt><trkpt lat="43.771238" lon="11.4616462"><ele>180.0</ele><time>2026-05-03T10:22:29.013Z</time></trkpt><trkpt lat="43.7713407" lon="11.4615821"><ele>180.0</ele><time>2026-05-03T10:22:30.012Z</time></trkpt><trkpt lat="43.7714467" lon="11.4615212"><ele>180.0</ele><time>2026-05-03T10:22:31.013Z</time></trkpt><trkpt lat="43.7715545" lon="11.4614653"><ele>180.0</ele><time>2026-05-03T10:22:32.013Z</time></trkpt><trkpt lat="43.7716675" lon="11.4614147"><ele>180.0</ele><time>2026-05-03T10:22:33.012Z</time></trkpt><trkpt lat="43.7717777" lon="11.4613713"><ele>180.0</ele><time>2026-05-03T10:22:34.013Z</time></trkpt><trkpt lat="43.7718854" lon="11.4613318"><ele>180.0</ele><time>2026-05-03T10:22:35.011Z</time></trkpt><trkpt lat="43.7719921" lon="11.4612923"><ele>180.0</ele><time>2026-05-03T10:22:36.012Z</time></trkpt><trkpt lat="43.7720998" lon="11.4612602"><ele>180.0</ele><time>2026-05-03T10:22:37.013Z</time></trkpt><trkpt lat="43.772205" lon="11.4612224"><ele>176.2</ele><time>2026-05-03T10:22:38.013Z</time></trkpt><trkpt lat="43.7723054" lon="11.4611718"><ele>172.4</ele><time>2026-05-03T10:22:39.013Z</time></trkpt><trkpt lat="43.772396" lon="11.4611055"><ele>168.60000000000002</ele><time>2026-05-03T10:22:40.013Z</time></trkpt><trkpt lat="43.7724717" lon="11.4610213"><ele>164.8</ele><time>2026-05-03T10:22:41.013Z</time></trkpt><trkpt lat="43.7725347" lon="11.4609121"><ele>161.0</ele><time>2026-05-03T10:22:42.013Z</time></trkpt><trkpt lat="43.7725855" lon="11.4607815"><ele>161.0</ele><time>2026-05-03T10:22:43.013Z</time></trkpt><trkpt lat="43.7726212" lon="11.4606394"><ele>161.0</ele><time>2026-05-03T10:22:44.013Z</time></trkpt><trkpt lat="43.7726547" lon="11.4604942"><ele>161.0</ele><time>2026-05-03T10:22:45.013Z</time></trkpt><trkpt lat="43.7726975" lon="11.4603479"><ele>161.0</ele><time>2026-05-03T10:22:46.013Z</time></trkpt><trkpt lat="43.7727453" lon="11.4601972"><ele>162.20000000000002</ele><time>2026-05-03T10:22:47.012Z</time></trkpt><trkpt lat="43.7728016" lon="11.4600525"><ele>163.4</ele><time>2026-05-03T10:22:48.013Z</time></trkpt><trkpt lat="43.7728603" lon="11.459913"><ele>164.6</ele><time>2026-05-03T10:22:49.012Z</time></trkpt><trkpt lat="43.7729003" lon="11.4597813"><ele>165.8</ele><time>2026-05-03T10:22:50.011Z</time></trkpt><trkpt lat="43.7729195" lon="11.4596488"><ele>167.0</ele><time>2026-05-03T10:22:51.013Z</time></trkpt><trkpt lat="43.7729174" lon="11.4595211"><ele>167.0</ele><time>2026-05-03T10:22:52.013Z</time></trkpt><trkpt lat="43.7729067" lon="11.4593966"><ele>167.0</ele><time>2026-05-03T10:22:53.013Z</time></trkpt><trkpt lat="43.7728947" lon="11.4592765"><ele>167.0</ele><time>2026-05-03T10:22:54.013Z</time></trkpt><trkpt lat="43.7728893" lon="11.4591616"><ele>167.0</ele><time>2026-05-03T10:22:55.013Z</time></trkpt><trkpt lat="43.7728948" lon="11.4590378"><ele>167.0</ele><time>2026-05-03T10:22:56.013Z</time></trkpt><trkpt lat="43.7729163" lon="11.4589027"><ele>166.0</ele><time>2026-05-03T10:22:57.013Z</time></trkpt><trkpt lat="43.772951" lon="11.4587785"><ele>165.0</ele><time>2026-05-03T10:22:58.012Z</time></trkpt><trkpt lat="43.7729858" lon="11.4586534"><ele>164.0</ele><time>2026-05-03T10:22:59.013Z</time></trkpt><trkpt lat="43.7730193" lon="11.4585236"><ele>163.0</ele><time>2026-05-03T10:23:00.012Z</time></trkpt><trkpt lat="43.7730461" lon="11.4583922"><ele>162.0</ele><time>2026-05-03T10:23:01.013Z</time></trkpt><trkpt lat="43.7730544" lon="11.4582663"><ele>162.0</ele><time>2026-05-03T10:23:02.013Z</time></trkpt><trkpt lat="43.7730361" lon="11.4581455"><ele>162.0</ele><time>2026-05-03T10:23:03.013Z</time></trkpt><trkpt lat="43.7730001" lon="11.4580354"><ele>162.0</ele><time>2026-05-03T10:23:04.013Z</time></trkpt><trkpt lat="43.7729548" lon="11.4579275"><ele>162.0</ele><time>2026-05-03T10:23:05.013Z</time></trkpt><trkpt lat="43.7729099" lon="11.4578292"><ele>162.0</ele><time>2026-05-03T10:23:06.012Z</time></trkpt><trkpt lat="43.7728671" lon="11.4577369"><ele>162.0</ele><time>2026-05-03T10:23:07.012Z</time></trkpt><trkpt lat="43.7728267" lon="11.4576508"><ele>162.16666666666666</ele><time>2026-05-03T10:23:08.011Z</time></trkpt><trkpt lat="43.7727869" lon="11.457562"><ele>162.33333333333334</ele><time>2026-05-03T10:23:09.012Z</time></trkpt><trkpt lat="43.7727478" lon="11.4574681"><ele>162.5</ele><time>2026-05-03T10:23:10.012Z</time></trkpt><trkpt lat="43.7727059" lon="11.4573687"><ele>162.66666666666669</ele><time>2026-05-03T10:23:11.012Z</time></trkpt><trkpt lat="43.7726697" lon="11.4572551"><ele>162.83333333333334</ele><time>2026-05-03T10:23:12.012Z</time></trkpt><trkpt lat="43.7726367" lon="11.4571354"><ele>163.0</ele><time>2026-05-03T10:23:13.013Z</time></trkpt><trkpt lat="43.772615" lon="11.4570062"><ele>156.20000000000002</ele><time>2026-05-03T10:23:14.013Z</time></trkpt><trkpt lat="43.7725996" lon="11.4568749"><ele>149.4</ele><time>2026-05-03T10:23:15.013Z</time></trkpt><trkpt lat="43.7725871" lon="11.4567385"><ele>142.60000000000002</ele><time>2026-05-03T10:23:16.012Z</time></trkpt><trkpt lat="43.7725756" lon="11.4566027"><ele>135.8</ele><time>2026-05-03T10:23:17.013Z</time></trkpt><trkpt lat="43.7725632" lon="11.4564686"><ele>129.0</ele><time>2026-05-03T10:23:18.012Z</time></trkpt><trkpt lat="43.7725486" lon="11.4563403"><ele>128.66666666666666</ele><time>2026-05-03T10:23:19.013Z</time></trkpt><trkpt lat="43.7725358" lon="11.456213"><ele>128.33333333333334</ele><time>2026-05-03T10:23:20.012Z</time></trkpt><trkpt lat="43.7725266" lon="11.4560885"><ele>128.0</ele><time>2026-05-03T10:23:21.013Z</time></trkpt><trkpt lat="43.7725172" lon="11.4559671"><ele>127.66666666666667</ele><time>2026-05-03T10:23:22.012Z</time></trkpt><trkpt lat="43.7725091" lon="11.4558476"><ele>127.33333333333334</ele><time>2026-05-03T10:23:23.013Z</time></trkpt><trkpt lat="43.7725085" lon="11.4557327"><ele>127.0</ele><time>2026-05-03T10:23:24.012Z</time></trkpt><trkpt lat="43.7725163" lon="11.4556196"><ele>127.00000000000001</ele><time>2026-05-03T10:23:25.012Z</time></trkpt><trkpt lat="43.7725398" lon="11.4555157"><ele>127.0</ele><time>2026-05-03T10:23:26.013Z</time></trkpt><trkpt lat="43.7725774" lon="11.4554116"><ele>127.0</ele><time>2026-05-03T10:23:27.012Z</time></trkpt><trkpt lat="43.7726269" lon="11.4553078"><ele>127.0</ele><time>2026-05-03T10:23:28.013Z</time></trkpt><trkpt lat="43.7726801" lon="11.455202"><ele>127.00000000000001</ele><time>2026-05-03T10:23:29.012Z</time></trkpt><trkpt lat="43.7727359" lon="11.4550897"><ele>127.0</ele><time>2026-05-03T10:23:30.013Z</time></trkpt><trkpt lat="43.7727926" lon="11.4549736"><ele>127.0</ele><time>2026-05-03T10:23:31.012Z</time></trkpt><trkpt lat="43.772852" lon="11.4548548"><ele>126.99999999999999</ele><time>2026-05-03T10:23:32.013Z</time></trkpt><trkpt lat="43.7729072" lon="11.4547358"><ele>126.99999999999999</ele><time>2026-05-03T10:23:33.013Z</time></trkpt><trkpt lat="43.7729576" lon="11.4546252"><ele>127.0</ele><time>2026-05-03T10:23:34.012Z</time></trkpt><trkpt lat="43.7729996" lon="11.4545025"><ele>127.0</ele><time>2026-05-03T10:23:35.013Z</time></trkpt><trkpt lat="43.7730344" lon="11.454374"><ele>127.0</ele><time>2026-05-03T10:23:36.012Z</time></trkpt><trkpt lat="43.7730639" lon="11.4542478"><ele>126.99999999999999</ele><time>2026-05-03T10:23:37.013Z</time></trkpt><trkpt lat="43.773093" lon="11.454116"><ele>126.99999999999999</ele><time>2026-05-03T10:23:38.012Z</time></trkpt><trkpt lat="43.7731192" lon="11.4539867"><ele>127.0</ele><time>2026-05-03T10:23:39.013Z</time></trkpt><trkpt lat="43.7731427" lon="11.4538535"><ele>127.0</ele><time>2026-05-03T10:23:40.013Z</time></trkpt><trkpt lat="43.7731739" lon="11.4537279"><ele>125.0</ele><time>2026-05-03T10:23:41.013Z</time></trkpt><trkpt lat="43.7732053" lon="11.4536079"><ele>122.99999999999999</ele><time>2026-05-03T10:23:42.012Z</time></trkpt><trkpt lat="43.7732386" lon="11.4534929"><ele>120.99999999999999</ele><time>2026-05-03T10:23:43.013Z</time></trkpt><trkpt lat="43.773274" lon="11.4533733"><ele>119.0</ele><time>2026-05-03T10:23:44.012Z</time></trkpt><trkpt lat="43.7733138" lon="11.4532608"><ele>117.0</ele><time>2026-05-03T10:23:45.012Z</time></trkpt><trkpt lat="43.7733559" lon="11.4531495"><ele>117.0</ele><time>2026-05-03T10:23:46.013Z</time></trkpt><trkpt lat="43.7733974" lon="11.4530378"><ele>116.99999999999999</ele><time>2026-05-03T10:23:47.013Z</time></trkpt><trkpt lat="43.7734449" lon="11.4529232"><ele>116.99999999999999</ele><time>2026-05-03T10:23:48.011Z</time></trkpt><trkpt lat="43.7734966" lon="11.4527949"><ele>117.0</ele><time>2026-05-03T10:23:49.013Z</time></trkpt><trkpt lat="43.7735483" lon="11.4526714"><ele>117.0</ele><time>2026-05-03T10:23:50.013Z</time></trkpt><trkpt lat="43.7736063" lon="11.4525479"><ele>116.19999999999999</ele><time>2026-05-03T10:23:51.013Z</time></trkpt><trkpt lat="43.7736595" lon="11.4524239"><ele>115.39999999999999</ele><time>2026-05-03T10:23:52.012Z</time></trkpt><trkpt lat="43.7737096" lon="11.4522923"><ele>114.60000000000001</ele><time>2026-05-03T10:23:53.013Z</time></trkpt><trkpt lat="43.7737637" lon="11.4521639"><ele>113.80000000000001</ele><time>2026-05-03T10:23:54.013Z</time></trkpt><trkpt lat="43.7738179" lon="11.4520439"><ele>113.0</ele><time>2026-05-03T10:23:55.013Z</time></trkpt><trkpt lat="43.773861" lon="11.4519459"><ele>113.0</ele><time>2026-05-03T10:23:56.013Z</time></trkpt><trkpt lat="43.7738983" lon="11.4518659"><ele>113.00000000000001</ele><time>2026-05-03T10:23:57.013Z</time></trkpt><trkpt lat="43.773944" lon="11.4517192"><ele>113.00000000000001</ele><time>2026-05-03T10:23:59.013Z</time></trkpt><trkpt lat="43.7739331" lon="11.4515762"><ele>113.0</ele><time>2026-05-03T10:24:01.013Z</time></trkpt><trkpt lat="43.7738606" lon="11.4514521"><ele>113.0</ele><time>2026-05-03T10:24:03.013Z</time></trkpt><trkpt lat="43.7738077" lon="11.4513902"><ele>112.99999999999999</ele><time>2026-05-03T10:24:04.013Z</time></trkpt><trkpt lat="43.7737558" lon="11.4513173"><ele>113.0</ele><time>2026-05-03T10:24:05.013Z</time></trkpt><trkpt lat="43.7737247" lon="11.4512286"><ele>113.0</ele><time>2026-05-03T10:24:06.012Z</time></trkpt><trkpt lat="43.7737158" lon="11.4511219"><ele>113.0</ele><time>2026-05-03T10:24:07.013Z</time></trkpt><trkpt lat="43.7737189" lon="11.4510073"><ele>112.99999999999999</ele><time>2026-05-03T10:24:08.013Z</time></trkpt><trkpt lat="43.7737199" lon="11.4508886"><ele>113.0</ele><time>2026-05-03T10:24:09.011Z</time></trkpt><trkpt lat="43.7737177" lon="11.4507633"><ele>111.0</ele><time>2026-05-03T10:24:10.013Z</time></trkpt><trkpt lat="43.773714" lon="11.4506371"><ele>109.00000000000001</ele><time>2026-05-03T10:24:11.013Z</time></trkpt><trkpt lat="43.773702" lon="11.4505091"><ele>107.0</ele><time>2026-05-03T10:24:12.013Z</time></trkpt><trkpt lat="43.7736801" lon="11.4503774"><ele>105.0</ele><time>2026-05-03T10:24:13.012Z</time></trkpt><trkpt lat="43.7736452" lon="11.4502417"><ele>103.0</ele><time>2026-05-03T10:24:14.013Z</time></trkpt><trkpt lat="43.7735951" lon="11.450105"><ele>102.0</ele><time>2026-05-03T10:24:15.013Z</time></trkpt><trkpt lat="43.7735288" lon="11.4499644"><ele>101.0</ele><time>2026-05-03T10:24:16.013Z</time></trkpt><trkpt lat="43.7734449" lon="11.4498276"><ele>100.0</ele><time>2026-05-03T10:24:17.012Z</time></trkpt><trkpt lat="43.7733477" lon="11.4497108"><ele>99.0</ele><time>2026-05-03T10:24:18.013Z</time></trkpt><trkpt lat="43.7732382" lon="11.4496105"><ele>97.25</ele><time>2026-05-03T10:24:19.013Z</time></trkpt><trkpt lat="43.7731219" lon="11.4495319"><ele>95.5</ele><time>2026-05-03T10:24:20.013Z</time></trkpt><trkpt lat="43.7730043" lon="11.4494836"><ele>93.75</ele><time>2026-05-03T10:24:21.013Z</time></trkpt><trkpt lat="43.7728941" lon="11.4494371"><ele>92.0</ele><time>2026-05-03T10:24:22.013Z</time></trkpt><trkpt lat="43.7727796" lon="11.4493826"><ele>91.0</ele><time>2026-05-03T10:24:23.012Z</time></trkpt><trkpt lat="43.7726762" lon="11.4493144"><ele>90.0</ele><time>2026-05-03T10:24:24.011Z</time></trkpt><trkpt lat="43.7725801" lon="11.4492258"><ele>89.0</ele><time>2026-05-03T10:24:25.013Z</time></trkpt><trkpt lat="43.772489" lon="11.4491258"><ele>88.0</ele><time>2026-05-03T10:24:26.013Z</time></trkpt><trkpt lat="43.7724079" lon="11.4490105"><ele>88.0</ele><time>2026-05-03T10:24:27.013Z</time></trkpt><trkpt lat="43.7723314" lon="11.4488918"><ele>88.0</ele><time>2026-05-03T10:24:28.013Z</time></trkpt><trkpt lat="43.7722621" lon="11.4487664"><ele>88.0</ele><time>2026-05-03T10:24:29.013Z</time></trkpt><trkpt lat="43.7721906" lon="11.4486377"><ele>88.0</ele><time>2026-05-03T10:24:30.013Z</time></trkpt><trkpt lat="43.7721231" lon="11.4484956"><ele>87.25</ele><time>2026-05-03T10:24:31.013Z</time></trkpt><trkpt lat="43.7720543" lon="11.4483506"><ele>86.5</ele><time>2026-05-03T10:24:32.013Z</time></trkpt><trkpt lat="43.7719853" lon="11.4482027"><ele>85.75</ele><time>2026-05-03T10:24:33.013Z</time></trkpt><trkpt lat="43.7719146" lon="11.4480467"><ele>85.0</ele><time>2026-05-03T10:24:34.013Z</time></trkpt><trkpt lat="43.7718474" lon="11.4478867"><ele>84.75</ele><time>2026-05-03T10:24:35.013Z</time></trkpt><trkpt lat="43.7717812" lon="11.4477224"><ele>84.5</ele><time>2026-05-03T10:24:36.012Z</time></trkpt><trkpt lat="43.7717232" lon="11.4475537"><ele>84.25</ele><time>2026-05-03T10:24:37.012Z</time></trkpt><trkpt lat="43.7716704" lon="11.4473799"><ele>84.0</ele><time>2026-05-03T10:24:38.013Z</time></trkpt><trkpt lat="43.7716274" lon="11.4472003"><ele>84.0</ele><time>2026-05-03T10:24:39.013Z</time></trkpt><trkpt lat="43.7715911" lon="11.4470136"><ele>84.0</ele><time>2026-05-03T10:24:40.013Z</time></trkpt><trkpt lat="43.7715579" lon="11.4468257"><ele>84.0</ele><time>2026-05-03T10:24:41.012Z</time></trkpt><trkpt lat="43.7715308" lon="11.4466325"><ele>84.0</ele><time>2026-05-03T10:24:42.012Z</time></trkpt><trkpt lat="43.7715054" lon="11.4464355"><ele>83.5</ele><time>2026-05-03T10:24:43.013Z</time></trkpt><trkpt lat="43.7714872" lon="11.446238"><ele>83.0</ele><time>2026-05-03T10:24:44.012Z</time></trkpt><trkpt lat="43.7714705" lon="11.4460396"><ele>82.5</ele><time>2026-05-03T10:24:45.012Z</time></trkpt><trkpt lat="43.771453" lon="11.4458428"><ele>82.0</ele><time>2026-05-03T10:24:46.011Z</time></trkpt><trkpt lat="43.7714365" lon="11.4456471"><ele>82.25</ele><time>2026-05-03T10:24:47.012Z</time></trkpt><trkpt lat="43.7714227" lon="11.4454473"><ele>82.5</ele><time>2026-05-03T10:24:48.013Z</time></trkpt><trkpt lat="43.7714061" lon="11.4452549"><ele>82.75</ele><time>2026-05-03T10:24:49.013Z</time></trkpt><trkpt lat="43.7713909" lon="11.4450618"><ele>83.0</ele><time>2026-05-03T10:24:50.012Z</time></trkpt><trkpt lat="43.7713788" lon="11.4448634"><ele>83.0</ele><time>2026-05-03T10:24:51.012Z</time></trkpt><trkpt lat="43.7713641" lon="11.4446701"><ele>83.0</ele><time>2026-05-03T10:24:52.013Z</time></trkpt><trkpt lat="43.7713444" lon="11.4444779"><ele>83.0</ele><time>2026-05-03T10:24:53.013Z</time></trkpt><trkpt lat="43.77133" lon="11.4442855"><ele>83.0</ele><time>2026-05-03T10:24:54.012Z</time></trkpt><trkpt lat="43.771313" lon="11.4440922"><ele>83.0</ele><time>2026-05-03T10:24:55.012Z</time></trkpt><trkpt lat="43.7712993" lon="11.4438978"><ele>83.0</ele><time>2026-05-03T10:24:56.013Z</time></trkpt><trkpt lat="43.7712815" lon="11.4437096"><ele>83.0</ele><time>2026-05-03T10:24:57.013Z</time></trkpt><trkpt lat="43.7712667" lon="11.4435193"><ele>83.0</ele><time>2026-05-03T10:24:58.013Z</time></trkpt><trkpt lat="43.7712521" lon="11.4433282"><ele>82.5</ele><time>2026-05-03T10:24:59.012Z</time></trkpt><trkpt lat="43.7712354" lon="11.4431425"><ele>82.0</ele><time>2026-05-03T10:25:00.013Z</time></trkpt><trkpt lat="43.7712184" lon="11.4429501"><ele>81.5</ele><time>2026-05-03T10:25:01.012Z</time></trkpt><trkpt lat="43.7712019" lon="11.44276"><ele>81.0</ele><time>2026-05-03T10:25:02.013Z</time></trkpt><trkpt lat="43.7711824" lon="11.4425672"><ele>80.75</ele><time>2026-05-03T10:25:03.013Z</time></trkpt><trkpt lat="43.7711653" lon="11.4423787"><ele>80.5</ele><time>2026-05-03T10:25:04.013Z</time></trkpt><trkpt lat="43.7711399" lon="11.4421904"><ele>80.25</ele><time>2026-05-03T10:25:05.012Z</time></trkpt><trkpt lat="43.7711083" lon="11.442009"><ele>80.0</ele><time>2026-05-03T10:25:06.012Z</time></trkpt><trkpt lat="43.7710732" lon="11.4418284"><ele>80.0</ele><time>2026-05-03T10:25:07.013Z</time></trkpt><trkpt lat="43.7710333" lon="11.441649"><ele>80.0</ele><time>2026-05-03T10:25:08.013Z</time></trkpt><trkpt lat="43.7709901" lon="11.4414729"><ele>80.0</ele><time>2026-05-03T10:25:09.013Z</time></trkpt><trkpt lat="43.770946" lon="11.4412984"><ele>80.0</ele><time>2026-05-03T10:25:10.012Z</time></trkpt><trkpt lat="43.7708959" lon="11.4411285"><ele>80.0</ele><time>2026-05-03T10:25:11.013Z</time></trkpt><trkpt lat="43.7708464" lon="11.4409667"><ele>80.0</ele><time>2026-05-03T10:25:12.012Z</time></trkpt><trkpt lat="43.7707978" lon="11.4408141"><ele>80.0</ele><time>2026-05-03T10:25:13.013Z</time></trkpt><trkpt lat="43.7707458" lon="11.440664"><ele>80.0</ele><time>2026-05-03T10:25:14.013Z</time></trkpt><trkpt lat="43.7706913" lon="11.440515"><ele>80.5</ele><time>2026-05-03T10:25:15.012Z</time></trkpt><trkpt lat="43.7706371" lon="11.44036"><ele>81.0</ele><time>2026-05-03T10:25:16.012Z</time></trkpt><trkpt lat="43.7705875" lon="11.4401983"><ele>81.5</ele><time>2026-05-03T10:25:17.013Z</time></trkpt><trkpt lat="43.7705358" lon="11.4400252"><ele>82.0</ele><time>2026-05-03T10:25:18.013Z</time></trkpt><trkpt lat="43.770479" lon="11.4398417"><ele>82.0</ele><time>2026-05-03T10:25:19.013Z</time></trkpt><trkpt lat="43.7704163" lon="11.4396565"><ele>82.0</ele><time>2026-05-03T10:25:20.013Z</time></trkpt><trkpt lat="43.7703507" lon="11.4394696"><ele>82.0</ele><time>2026-05-03T10:25:21.012Z</time></trkpt><trkpt lat="43.7702915" lon="11.4392999"><ele>82.0</ele><time>2026-05-03T10:25:22.012Z</time></trkpt><trkpt lat="43.7702383" lon="11.439143"><ele>82.19999999999999</ele><time>2026-05-03T10:25:23.013Z</time></trkpt><trkpt lat="43.7701967" lon="11.4389944"><ele>82.4</ele><time>2026-05-03T10:25:24.013Z</time></trkpt><trkpt lat="43.7701705" lon="11.4388458"><ele>82.6</ele><time>2026-05-03T10:25:25.013Z</time></trkpt><trkpt lat="43.77016" lon="11.438691"><ele>82.80000000000001</ele><time>2026-05-03T10:25:26.012Z</time></trkpt><trkpt lat="43.770178" lon="11.4385449"><ele>83.0</ele><time>2026-05-03T10:25:27.013Z</time></trkpt><trkpt lat="43.7702277" lon="11.4384264"><ele>83.2</ele><time>2026-05-03T10:25:28.012Z</time></trkpt><trkpt lat="43.7703061" lon="11.4383401"><ele>83.4</ele><time>2026-05-03T10:25:29.013Z</time></trkpt><trkpt lat="43.7704091" lon="11.4382911"><ele>83.60000000000001</ele><time>2026-05-03T10:25:30.013Z</time></trkpt><trkpt lat="43.7705208" lon="11.4382764"><ele>83.80000000000001</ele><time>2026-05-03T10:25:31.013Z</time></trkpt><trkpt lat="43.7706325" lon="11.438287"><ele>84.0</ele><time>2026-05-03T10:25:32.012Z</time></trkpt><trkpt lat="43.7707342" lon="11.4383025"><ele>84.0</ele><time>2026-05-03T10:25:33.012Z</time></trkpt><trkpt lat="43.7708246" lon="11.4383097"><ele>84.0</ele><time>2026-05-03T10:25:34.012Z</time></trkpt><trkpt lat="43.7709033" lon="11.4383015"><ele>84.0</ele><time>2026-05-03T10:25:35.012Z</time></trkpt><trkpt lat="43.7709592" lon="11.4382588"><ele>84.0</ele><time>2026-05-03T10:25:36.012Z</time></trkpt><trkpt lat="43.7709808" lon="11.4380973"><ele>84.0</ele><time>2026-05-03T10:25:38.013Z</time></trkpt><trkpt lat="43.7709662" lon="11.4379828"><ele>84.0</ele><time>2026-05-03T10:25:39.012Z</time></trkpt><trkpt lat="43.7709639" lon="11.4378582"><ele>84.4</ele><time>2026-05-03T10:25:40.012Z</time></trkpt><trkpt lat="43.7709726" lon="11.4377248"><ele>84.80000000000001</ele><time>2026-05-03T10:25:41.012Z</time></trkpt><trkpt lat="43.7709859" lon="11.4375872"><ele>85.19999999999999</ele><time>2026-05-03T10:25:42.013Z</time></trkpt><trkpt lat="43.7710018" lon="11.4374555"><ele>85.6</ele><time>2026-05-03T10:25:43.012Z</time></trkpt><trkpt lat="43.7710163" lon="11.4373352"><ele>86.0</ele><time>2026-05-03T10:25:44.013Z</time></trkpt><trkpt lat="43.7710342" lon="11.4372228"><ele>86.0</ele><time>2026-05-03T10:25:45.013Z</time></trkpt><trkpt lat="43.7710504" lon="11.4371202"><ele>86.0</ele><time>2026-05-03T10:25:46.013Z</time></trkpt><trkpt lat="43.7710715" lon="11.4369725"><ele>86.0</ele><time>2026-05-03T10:25:48.012Z</time></trkpt><trkpt lat="43.7710612" lon="11.4368852"><ele>86.0</ele><time>2026-05-03T10:25:49.013Z</time></trkpt><trkpt lat="43.7710169" lon="11.4368196"><ele>86.0</ele><time>2026-05-03T10:25:50.012Z</time></trkpt><trkpt lat="43.7709496" lon="11.4367849"><ele>86.0</ele><time>2026-05-03T10:25:51.013Z</time></trkpt><trkpt lat="43.7708743" lon="11.4367577"><ele>86.0</ele><time>2026-05-03T10:25:52.012Z</time></trkpt><trkpt lat="43.7708247" lon="11.4366959"><ele>86.0</ele><time>2026-05-03T10:25:53.012Z</time></trkpt><trkpt lat="43.770816" lon="11.4364879"><ele>86.0</ele><time>2026-05-03T10:25:55.013Z</time></trkpt><trkpt lat="43.7708322" lon="11.4363387"><ele>86.0</ele><time>2026-05-03T10:25:56.011Z</time></trkpt><trkpt lat="43.7708492" lon="11.4361712"><ele>86.0</ele><time>2026-05-03T10:25:57.011Z</time></trkpt><trkpt lat="43.7708658" lon="11.436004"><ele>86.0</ele><time>2026-05-03T10:25:58.012Z</time></trkpt><trkpt lat="43.7708847" lon="11.4358411"><ele>86.0</ele><time>2026-05-03T10:25:59.013Z</time></trkpt><trkpt lat="43.7709036" lon="11.435676"><ele>86.0</ele><time>2026-05-03T10:26:00.012Z</time></trkpt><trkpt lat="43.7709196" lon="11.4355075"><ele>86.0</ele><time>2026-05-03T10:26:01.013Z</time></trkpt><trkpt lat="43.7709358" lon="11.4353416"><ele>86.0</ele><time>2026-05-03T10:26:02.012Z</time></trkpt><trkpt lat="43.7709522" lon="11.4351777"><ele>86.0</ele><time>2026-05-03T10:26:03.013Z</time></trkpt><trkpt lat="43.7709653" lon="11.4350221"><ele>86.0</ele><time>2026-05-03T10:26:04.013Z</time></trkpt><trkpt lat="43.7709793" lon="11.4348816"><ele>86.0</ele><time>2026-05-03T10:26:05.013Z</time></trkpt><trkpt lat="43.7709925" lon="11.434737"><ele>86.0</ele><time>2026-05-03T10:26:06.013Z</time></trkpt><trkpt lat="43.7710051" lon="11.4346104"><ele>86.0</ele><time>2026-05-03T10:26:07.013Z</time></trkpt><trkpt lat="43.7710155" lon="11.4345029"><ele>86.0</ele><time>2026-05-03T10:26:08.012Z</time></trkpt><trkpt lat="43.7710252" lon="11.434412"><ele>86.0</ele><time>2026-05-03T10:26:09.012Z</time></trkpt><trkpt lat="43.7710421" lon="11.4342717"><ele>86.0</ele><time>2026-05-03T10:26:11.012Z</time></trkpt><trkpt lat="43.7710566" lon="11.4341215"><ele>86.0</ele><time>2026-05-03T10:26:37.013Z</time></trkpt><trkpt lat="43.7710584" lon="11.4340272"><ele>86.0</ele><time>2026-05-03T10:26:38.013Z</time></trkpt><trkpt lat="43.7710667" lon="11.4339322"><ele>86.0</ele><time>2026-05-03T10:26:39.013Z</time></trkpt><trkpt lat="43.7710758" lon="11.4338212"><ele>86.0</ele><time>2026-05-03T10:26:40.013Z</time></trkpt><trkpt lat="43.7710857" lon="11.4336988"><ele>86.0</ele><time>2026-05-03T10:26:41.013Z</time></trkpt><trkpt lat="43.771096" lon="11.433563"><ele>86.0</ele><time>2026-05-03T10:26:42.012Z</time></trkpt><trkpt lat="43.7711099" lon="11.4334176"><ele>86.0</ele><time>2026-05-03T10:26:43.013Z</time></trkpt><trkpt lat="43.7711267" lon="11.4332728"><ele>86.0</ele><time>2026-05-03T10:26:44.013Z</time></trkpt><trkpt lat="43.7711423" lon="11.4331211"><ele>86.0</ele><time>2026-05-03T10:26:45.012Z</time></trkpt><trkpt lat="43.7711578" lon="11.4329617"><ele>86.0</ele><time>2026-05-03T10:26:46.013Z</time></trkpt><trkpt lat="43.7711719" lon="11.4327977"><ele>86.0</ele><time>2026-05-03T10:26:47.013Z</time></trkpt><trkpt lat="43.7711874" lon="11.4326359"><ele>86.0</ele><time>2026-05-03T10:26:48.012Z</time></trkpt><trkpt lat="43.7712046" lon="11.4324791"><ele>86.0</ele><time>2026-05-03T10:26:49.013Z</time></trkpt><trkpt lat="43.7712201" lon="11.4323179"><ele>86.0</ele><time>2026-05-03T10:26:50.011Z</time></trkpt><trkpt lat="43.7712333" lon="11.4321577"><ele>86.0</ele><time>2026-05-03T10:26:51.013Z</time></trkpt><trkpt lat="43.7712481" lon="11.4319986"><ele>85.5</ele><time>2026-05-03T10:26:52.012Z</time></trkpt><trkpt lat="43.7712619" lon="11.431836"><ele>85.0</ele><time>2026-05-03T10:26:53.012Z</time></trkpt><trkpt lat="43.7712733" lon="11.4316717"><ele>84.5</ele><time>2026-05-03T10:26:54.012Z</time></trkpt><trkpt lat="43.7712877" lon="11.4315149"><ele>84.0</ele><time>2026-05-03T10:26:55.013Z</time></trkpt><trkpt lat="43.7713048" lon="11.4313593"><ele>84.0</ele><time>2026-05-03T10:26:56.013Z</time></trkpt><trkpt lat="43.7713219" lon="11.4312073"><ele>84.0</ele><time>2026-05-03T10:26:57.013Z</time></trkpt><trkpt lat="43.7713392" lon="11.4310685"><ele>84.0</ele><time>2026-05-03T10:26:58.013Z</time></trkpt><trkpt lat="43.7713599" lon="11.4309445"><ele>84.0</ele><time>2026-05-03T10:26:59.013Z</time></trkpt><trkpt lat="43.7713862" lon="11.4308328"><ele>84.0</ele><time>2026-05-03T10:27:00.012Z</time></trkpt><trkpt lat="43.771405" lon="11.4307177"><ele>84.0</ele><time>2026-05-03T10:27:01.013Z</time></trkpt><trkpt lat="43.7713938" lon="11.4305929"><ele>84.0</ele><time>2026-05-03T10:27:02.013Z</time></trkpt><trkpt lat="43.7713799" lon="11.4304623"><ele>84.0</ele><time>2026-05-03T10:27:03.013Z</time></trkpt><trkpt lat="43.7713801" lon="11.4303155"><ele>84.0</ele><time>2026-05-03T10:27:04.013Z</time></trkpt><trkpt lat="43.7713871" lon="11.4301616"><ele>84.0</ele><time>2026-05-03T10:27:05.013Z</time></trkpt><trkpt lat="43.7713955" lon="11.4299966"><ele>84.0</ele><time>2026-05-03T10:27:06.013Z</time></trkpt><trkpt lat="43.7714088" lon="11.4298416"><ele>84.0</ele><time>2026-05-03T10:27:07.012Z</time></trkpt><trkpt lat="43.7714211" lon="11.4296898"><ele>84.0</ele><time>2026-05-03T10:27:08.013Z</time></trkpt><trkpt lat="43.771436" lon="11.4295425"><ele>84.0</ele><time>2026-05-03T10:27:09.013Z</time></trkpt><trkpt lat="43.7714475" lon="11.4294076"><ele>84.0</ele><time>2026-05-03T10:27:10.013Z</time></trkpt><trkpt lat="43.7714586" lon="11.4292951"><ele>83.80000000000001</ele><time>2026-05-03T10:27:11.012Z</time></trkpt><trkpt lat="43.7714715" lon="11.4291558"><ele>83.60000000000001</ele><time>2026-05-03T10:27:13.013Z</time></trkpt><trkpt lat="43.7714481" lon="11.429051"><ele>83.4</ele><time>2026-05-03T10:27:17.012Z</time></trkpt><trkpt lat="43.7713402" lon="11.4289535"><ele>83.2</ele><time>2026-05-03T10:27:19.011Z</time></trkpt><trkpt lat="43.7712789" lon="11.428869"><ele>83.0</ele><time>2026-05-03T10:27:20.013Z</time></trkpt><trkpt lat="43.7712476" lon="11.4287433"><ele>83.0</ele><time>2026-05-03T10:27:21.012Z</time></trkpt><trkpt lat="43.7712541" lon="11.4286096"><ele>83.0</ele><time>2026-05-03T10:27:22.013Z</time></trkpt><trkpt lat="43.7712967" lon="11.4284609"><ele>83.0</ele><time>2026-05-03T10:27:23.013Z</time></trkpt><trkpt lat="43.7713441" lon="11.4283016"><ele>83.0</ele><time>2026-05-03T10:27:24.013Z</time></trkpt><trkpt lat="43.7713664" lon="11.4281535"><ele>83.0</ele><time>2026-05-03T10:27:25.013Z</time></trkpt><trkpt lat="43.7713548" lon="11.4280289"><ele>82.80000000000001</ele><time>2026-05-03T10:27:26.012Z</time></trkpt><trkpt lat="43.7713069" lon="11.4279279"><ele>82.6</ele><time>2026-05-03T10:27:27.012Z</time></trkpt><trkpt lat="43.7712319" lon="11.4278545"><ele>82.4</ele><time>2026-05-03T10:27:28.013Z</time></trkpt><trkpt lat="43.7711454" lon="11.4278019"><ele>82.19999999999999</ele><time>2026-05-03T10:27:29.011Z</time></trkpt><trkpt lat="43.7710458" lon="11.4277513"><ele>82.0</ele><time>2026-05-03T10:27:30.013Z</time></trkpt><trkpt lat="43.7709372" lon="11.4277002"><ele>81.8</ele><time>2026-05-03T10:27:31.013Z</time></trkpt><trkpt lat="43.7708277" lon="11.427645"><ele>81.6</ele><time>2026-05-03T10:27:32.013Z</time></trkpt><trkpt lat="43.770733" lon="11.4275771"><ele>81.39999999999999</ele><time>2026-05-03T10:27:33.013Z</time></trkpt><trkpt lat="43.7706552" lon="11.4274786"><ele>81.19999999999999</ele><time>2026-05-03T10:27:34.013Z</time></trkpt><trkpt lat="43.7705996" lon="11.4273565"><ele>81.0</ele><time>2026-05-03T10:27:35.013Z</time></trkpt><trkpt lat="43.7705827" lon="11.4272107"><ele>80.5</ele><time>2026-05-03T10:27:36.012Z</time></trkpt><trkpt lat="43.7706047" lon="11.4270453"><ele>80.0</ele><time>2026-05-03T10:27:37.013Z</time></trkpt><trkpt lat="43.7706538" lon="11.4268636"><ele>79.5</ele><time>2026-05-03T10:27:38.012Z</time></trkpt><trkpt lat="43.7707073" lon="11.4266702"><ele>79.0</ele><time>2026-05-03T10:27:39.011Z</time></trkpt><trkpt lat="43.7707654" lon="11.4264721"><ele>78.33333333333333</ele><time>2026-05-03T10:27:40.012Z</time></trkpt><trkpt lat="43.770826" lon="11.4262756"><ele>77.66666666666667</ele><time>2026-05-03T10:27:41.013Z</time></trkpt><trkpt lat="43.7708854" lon="11.4260792"><ele>77.0</ele><time>2026-05-03T10:27:42.013Z</time></trkpt><trkpt lat="43.7709407" lon="11.4258874"><ele>77.0</ele><time>2026-05-03T10:27:43.012Z</time></trkpt><trkpt lat="43.7709952" lon="11.4256958"><ele>77.0</ele><time>2026-05-03T10:27:44.013Z</time></trkpt><trkpt lat="43.7710539" lon="11.4255089"><ele>77.0</ele><time>2026-05-03T10:27:45.013Z</time></trkpt><trkpt lat="43.7711076" lon="11.4253185"><ele>77.0</ele><time>2026-05-03T10:27:46.013Z</time></trkpt><trkpt lat="43.7711584" lon="11.4251304"><ele>78.0</ele><time>2026-05-03T10:27:47.012Z</time></trkpt><trkpt lat="43.7712076" lon="11.4249551"><ele>79.0</ele><time>2026-05-03T10:27:48.012Z</time></trkpt><trkpt lat="43.7712581" lon="11.4247963"><ele>80.0</ele><time>2026-05-03T10:27:49.013Z</time></trkpt><trkpt lat="43.7713003" lon="11.4246373"><ele>81.0</ele><time>2026-05-03T10:27:50.012Z</time></trkpt><trkpt lat="43.7713423" lon="11.4244796"><ele>81.0</ele><time>2026-05-03T10:27:51.012Z</time></trkpt><trkpt lat="43.7713737" lon="11.4243301"><ele>81.0</ele><time>2026-05-03T10:27:52.011Z</time></trkpt><trkpt lat="43.7713899" lon="11.424193"><ele>81.0</ele><time>2026-05-03T10:27:53.013Z</time></trkpt><trkpt lat="43.7713789" lon="11.4240755"><ele>81.0</ele><time>2026-05-03T10:27:54.013Z</time></trkpt><trkpt lat="43.7713347" lon="11.4239843"><ele>81.0</ele><time>2026-05-03T10:27:55.012Z</time></trkpt><trkpt lat="43.7712597" lon="11.4239143"><ele>81.0</ele><time>2026-05-03T10:27:56.013Z</time></trkpt><trkpt lat="43.7711542" lon="11.4238574"><ele>81.0</ele><time>2026-05-03T10:27:57.013Z</time></trkpt><trkpt lat="43.7710317" lon="11.4238085"><ele>81.0</ele><time>2026-05-03T10:27:58.012Z</time></trkpt><trkpt lat="43.770915" lon="11.4237628"><ele>81.0</ele><time>2026-05-03T10:27:59.013Z</time></trkpt><trkpt lat="43.7707999" lon="11.4237222"><ele>80.25</ele><time>2026-05-03T10:28:00.012Z</time></trkpt><trkpt lat="43.7706876" lon="11.4236779"><ele>79.5</ele><time>2026-05-03T10:28:01.013Z</time></trkpt><trkpt lat="43.7705692" lon="11.4236263"><ele>78.75</ele><time>2026-05-03T10:28:02.013Z</time></trkpt><trkpt lat="43.7704515" lon="11.4235812"><ele>78.0</ele><time>2026-05-03T10:28:03.013Z</time></trkpt><trkpt lat="43.7703423" lon="11.4235409"><ele>78.0</ele><time>2026-05-03T10:28:04.012Z</time></trkpt><trkpt lat="43.7702397" lon="11.4235061"><ele>78.0</ele><time>2026-05-03T10:28:05.012Z</time></trkpt><trkpt lat="43.7701509" lon="11.4234729"><ele>78.0</ele><time>2026-05-03T10:28:06.012Z</time></trkpt><trkpt lat="43.7700867" lon="11.423429"><ele>78.0</ele><time>2026-05-03T10:28:07.013Z</time></trkpt><trkpt lat="43.7700452" lon="11.4233611"><ele>78.0</ele><time>2026-05-03T10:28:08.013Z</time></trkpt><trkpt lat="43.7700261" lon="11.4232778"><ele>78.0</ele><time>2026-05-03T10:28:09.013Z</time></trkpt><trkpt lat="43.770038" lon="11.423181"><ele>77.8</ele><time>2026-05-03T10:28:10.013Z</time></trkpt><trkpt lat="43.7700707" lon="11.4230694"><ele>77.6</ele><time>2026-05-03T10:28:11.013Z</time></trkpt><trkpt lat="43.7701115" lon="11.4229517"><ele>77.4</ele><time>2026-05-03T10:28:12.012Z</time></trkpt><trkpt lat="43.7701585" lon="11.4228271"><ele>77.2</ele><time>2026-05-03T10:28:13.013Z</time></trkpt><trkpt lat="43.7702101" lon="11.4227097"><ele>77.0</ele><time>2026-05-03T10:28:14.013Z</time></trkpt><trkpt lat="43.7702563" lon="11.4226088"><ele>77.0</ele><time>2026-05-03T10:28:15.013Z</time></trkpt><trkpt lat="43.7702918" lon="11.4225108"><ele>77.0</ele><time>2026-05-03T10:28:16.012Z</time></trkpt><trkpt lat="43.7703192" lon="11.4224204"><ele>77.0</ele><time>2026-05-03T10:28:17.012Z</time></trkpt><trkpt lat="43.7703357" lon="11.422277"><ele>77.0</ele><time>2026-05-03T10:28:19.013Z</time></trkpt><trkpt lat="43.770273" lon="11.422227"><ele>77.0</ele><time>2026-05-03T10:28:21.013Z</time></trkpt><trkpt lat="43.7701398" lon="11.4222015"><ele>77.66666666666667</ele><time>2026-05-03T10:28:23.011Z</time></trkpt><trkpt lat="43.7700703" lon="11.4221825"><ele>78.33333333333334</ele><time>2026-05-03T10:28:24.013Z</time></trkpt><trkpt lat="43.7699963" lon="11.4221575"><ele>79.0</ele><time>2026-05-03T10:28:25.012Z</time></trkpt><trkpt lat="43.769922" lon="11.422147"><ele>79.66666666666667</ele><time>2026-05-03T10:28:26.012Z</time></trkpt><trkpt lat="43.76985" lon="11.4221205"><ele>80.33333333333333</ele><time>2026-05-03T10:28:27.013Z</time></trkpt><trkpt lat="43.769787" lon="11.4220526"><ele>81.0</ele><time>2026-05-03T10:28:28.013Z</time></trkpt><trkpt lat="43.7697265" lon="11.4219774"><ele>81.0</ele><time>2026-05-03T10:28:29.013Z</time></trkpt><trkpt lat="43.7696569" lon="11.4219253"><ele>81.0</ele><time>2026-05-03T10:28:30.012Z</time></trkpt><trkpt lat="43.7695744" lon="11.4218877"><ele>81.0</ele><time>2026-05-03T10:28:31.013Z</time></trkpt><trkpt lat="43.7694886" lon="11.4218495"><ele>81.0</ele><time>2026-05-03T10:28:32.013Z</time></trkpt><trkpt lat="43.7694032" lon="11.421809"><ele>81.0</ele><time>2026-05-03T10:28:33.013Z</time></trkpt><trkpt lat="43.7693119" lon="11.4217636"><ele>81.0</ele><time>2026-05-03T10:28:34.012Z</time></trkpt><trkpt lat="43.7692218" lon="11.421704"><ele>81.66666666666667</ele><time>2026-05-03T10:28:35.012Z</time></trkpt><trkpt lat="43.7691253" lon="11.4216712"><ele>82.33333333333333</ele><time>2026-05-03T10:28:36.013Z</time></trkpt><trkpt lat="43.7690388" lon="11.4216214"><ele>83.0</ele><time>2026-05-03T10:28:37.013Z</time></trkpt><trkpt lat="43.7689542" lon="11.4215598"><ele>83.66666666666666</ele><time>2026-05-03T10:28:38.012Z</time></trkpt><trkpt lat="43.7688785" lon="11.4215168"><ele>84.33333333333333</ele><time>2026-05-03T10:28:39.011Z</time></trkpt><trkpt lat="43.768803" lon="11.4215023"><ele>85.0</ele><time>2026-05-03T10:28:40.011Z</time></trkpt><trkpt lat="43.7687274" lon="11.4215153"><ele>85.0</ele><time>2026-05-03T10:28:41.012Z</time></trkpt><trkpt lat="43.7686575" lon="11.4215504"><ele>85.0</ele><time>2026-05-03T10:28:42.013Z</time></trkpt><trkpt lat="43.7685766" lon="11.4215949"><ele>85.0</ele><time>2026-05-03T10:28:43.012Z</time></trkpt><trkpt lat="43.768497" lon="11.4216513"><ele>85.0</ele><time>2026-05-03T10:28:44.013Z</time></trkpt><trkpt lat="43.7684144" lon="11.421717"><ele>85.0</ele><time>2026-05-03T10:28:45.013Z</time></trkpt><trkpt lat="43.7683239" lon="11.4217693"><ele>85.0</ele><time>2026-05-03T10:28:46.013Z</time></trkpt><trkpt lat="43.7682379" lon="11.4218082"><ele>86.33333333333333</ele><time>2026-05-03T10:28:47.013Z</time></trkpt><trkpt lat="43.768156" lon="11.4218174"><ele>87.66666666666666</ele><time>2026-05-03T10:28:48.011Z</time></trkpt><trkpt lat="43.7680862" lon="11.4217994"><ele>89.0</ele><time>2026-05-03T10:28:49.013Z</time></trkpt><trkpt lat="43.7680162" lon="11.4217791"><ele>90.33333333333333</ele><time>2026-05-03T10:28:50.013Z</time></trkpt><trkpt lat="43.7679421" lon="11.4217663"><ele>91.66666666666667</ele><time>2026-05-03T10:28:51.013Z</time></trkpt><trkpt lat="43.7678618" lon="11.4217715"><ele>93.0</ele><time>2026-05-03T10:28:52.013Z</time></trkpt><trkpt lat="43.7677406" lon="11.4217883"><ele>96.83333333333333</ele><time>2026-05-03T10:28:54.013Z</time></trkpt><trkpt lat="43.7676765" lon="11.4218267"><ele>100.66666666666666</ele><time>2026-05-03T10:28:55.013Z</time></trkpt><trkpt lat="43.7676044" lon="11.4218738"><ele>104.5</ele><time>2026-05-03T10:28:56.011Z</time></trkpt><trkpt lat="43.7675203" lon="11.4219214"><ele>108.33333333333333</ele><time>2026-05-03T10:28:57.012Z</time></trkpt><trkpt lat="43.7674303" lon="11.4219742"><ele>112.16666666666666</ele><time>2026-05-03T10:28:58.012Z</time></trkpt><trkpt lat="43.7673423" lon="11.4220355"><ele>116.0</ele><time>2026-05-03T10:28:59.012Z</time></trkpt><trkpt lat="43.7672562" lon="11.4220961"><ele>113.4</ele><time>2026-05-03T10:29:00.012Z</time></trkpt><trkpt lat="43.767181" lon="11.4221862"><ele>110.8</ele><time>2026-05-03T10:29:01.013Z</time></trkpt><trkpt lat="43.7671115" lon="11.4222697"><ele>108.2</ele><time>2026-05-03T10:29:02.012Z</time></trkpt><trkpt lat="43.7670382" lon="11.4223721"><ele>105.60000000000001</ele><time>2026-05-03T10:29:03.013Z</time></trkpt><trkpt lat="43.7669654" lon="11.4224779"><ele>103.0</ele><time>2026-05-03T10:29:04.012Z</time></trkpt><trkpt lat="43.7668877" lon="11.4225972"><ele>106.5</ele><time>2026-05-03T10:29:05.013Z</time></trkpt><trkpt lat="43.7668195" lon="11.4227226"><ele>110.0</ele><time>2026-05-03T10:29:06.013Z</time></trkpt><trkpt lat="43.7667449" lon="11.4228373"><ele>113.5</ele><time>2026-05-03T10:29:07.013Z</time></trkpt><trkpt lat="43.7666782" lon="11.4229986"><ele>117.0</ele><time>2026-05-03T10:29:08.012Z</time></trkpt><trkpt lat="43.7666213" lon="11.4231162"><ele>117.0</ele><time>2026-05-03T10:29:09.011Z</time></trkpt><trkpt lat="43.766543" lon="11.4232266"><ele>117.0</ele><time>2026-05-03T10:29:10.013Z</time></trkpt><trkpt lat="43.7664564" lon="11.4233156"><ele>117.0</ele><time>2026-05-03T10:29:11.013Z</time></trkpt><trkpt lat="43.7663624" lon="11.4234149"><ele>117.0</ele><time>2026-05-03T10:29:12.011Z</time></trkpt><trkpt lat="43.7662639" lon="11.4234998"><ele>117.0</ele><time>2026-05-03T10:29:13.013Z</time></trkpt><trkpt lat="43.7661442" lon="11.4235591"><ele>116.99999999999999</ele><time>2026-05-03T10:29:14.012Z</time></trkpt><trkpt lat="43.766028" lon="11.4236108"><ele>116.99999999999999</ele><time>2026-05-03T10:29:15.013Z</time></trkpt><trkpt lat="43.7659259" lon="11.4236612"><ele>117.0</ele><time>2026-05-03T10:29:16.013Z</time></trkpt><trkpt lat="43.7658409" lon="11.4237023"><ele>117.0</ele><time>2026-05-03T10:29:17.012Z</time></trkpt><trkpt lat="43.7657514" lon="11.4237293"><ele>120.33333333333333</ele><time>2026-05-03T10:29:18.013Z</time></trkpt><trkpt lat="43.7656807" lon="11.4237307"><ele>123.66666666666666</ele><time>2026-05-03T10:29:19.013Z</time></trkpt><trkpt lat="43.765619" lon="11.4236922"><ele>127.0</ele><time>2026-05-03T10:29:20.013Z</time></trkpt><trkpt lat="43.7655479" lon="11.4235709"><ele>130.33333333333331</ele><time>2026-05-03T10:29:22.011Z</time></trkpt><trkpt lat="43.7655139" lon="11.4234826"><ele>133.66666666666666</ele><time>2026-05-03T10:29:23.012Z</time></trkpt><trkpt lat="43.7654796" lon="11.4233721"><ele>137.0</ele><time>2026-05-03T10:29:24.012Z</time></trkpt><trkpt lat="43.7654248" lon="11.4232654"><ele>137.0</ele><time>2026-05-03T10:29:25.012Z</time></trkpt><trkpt lat="43.7653678" lon="11.4231695"><ele>137.0</ele><time>2026-05-03T10:29:26.012Z</time></trkpt><trkpt lat="43.7653027" lon="11.4230976"><ele>137.0</ele><time>2026-05-03T10:29:27.012Z</time></trkpt><trkpt lat="43.7652375" lon="11.4230555"><ele>137.0</ele><time>2026-05-03T10:29:28.013Z</time></trkpt><trkpt lat="43.7651418" lon="11.4230361"><ele>137.0</ele><time>2026-05-03T10:29:29.013Z</time></trkpt><trkpt lat="43.7650415" lon="11.4230289"><ele>137.0</ele><time>2026-05-03T10:29:30.013Z</time></trkpt><trkpt lat="43.7649504" lon="11.4230237"><ele>138.2</ele><time>2026-05-03T10:29:31.013Z</time></trkpt><trkpt lat="43.7648586" lon="11.4230309"><ele>139.39999999999998</ele><time>2026-05-03T10:29:32.011Z</time></trkpt><trkpt lat="43.7647512" lon="11.4230462"><ele>140.60000000000002</ele><time>2026-05-03T10:29:33.013Z</time></trkpt><trkpt lat="43.7646547" lon="11.4231052"><ele>141.8</ele><time>2026-05-03T10:29:34.013Z</time></trkpt><trkpt lat="43.7645604" lon="11.4231545"><ele>143.0</ele><time>2026-05-03T10:29:35.013Z</time></trkpt><trkpt lat="43.7644809" lon="11.4231951"><ele>143.0</ele><time>2026-05-03T10:29:36.012Z</time></trkpt><trkpt lat="43.7644034" lon="11.4232396"><ele>143.0</ele><time>2026-05-03T10:29:37.013Z</time></trkpt><trkpt lat="43.7643196" lon="11.4232972"><ele>143.0</ele><time>2026-05-03T10:29:38.013Z</time></trkpt><trkpt lat="43.7642252" lon="11.423369"><ele>143.0</ele><time>2026-05-03T10:29:39.013Z</time></trkpt><trkpt lat="43.7641617" lon="11.4234734"><ele>143.0</ele><time>2026-05-03T10:29:40.013Z</time></trkpt><trkpt lat="43.7641025" lon="11.4235635"><ele>141.8</ele><time>2026-05-03T10:29:41.012Z</time></trkpt><trkpt lat="43.7640366" lon="11.42366"><ele>140.60000000000002</ele><time>2026-05-03T10:29:42.012Z</time></trkpt><trkpt lat="43.7639582" lon="11.4237765"><ele>139.39999999999998</ele><time>2026-05-03T10:29:43.012Z</time></trkpt><trkpt lat="43.7638831" lon="11.4238738"><ele>138.2</ele><time>2026-05-03T10:29:44.013Z</time></trkpt><trkpt lat="43.763817" lon="11.4239029"><ele>137.0</ele><time>2026-05-03T10:29:45.012Z</time></trkpt><trkpt lat="43.7637489" lon="11.4239505"><ele>137.0</ele><time>2026-05-03T10:29:46.013Z</time></trkpt><trkpt lat="43.7636746" lon="11.423976"><ele>137.0</ele><time>2026-05-03T10:29:47.013Z</time></trkpt><trkpt lat="43.7635862" lon="11.423969"><ele>137.0</ele><time>2026-05-03T10:29:48.012Z</time></trkpt><trkpt lat="43.7634995" lon="11.423931"><ele>137.0</ele><time>2026-05-03T10:29:49.013Z</time></trkpt><trkpt lat="43.7633979" lon="11.4238765"><ele>137.0</ele><time>2026-05-03T10:29:50.012Z</time></trkpt><trkpt lat="43.7633122" lon="11.4238233"><ele>144.6</ele><time>2026-05-03T10:29:51.013Z</time></trkpt><trkpt lat="43.7632161" lon="11.4237604"><ele>152.2</ele><time>2026-05-03T10:29:52.012Z</time></trkpt><trkpt lat="43.7631097" lon="11.4236857"><ele>159.8</ele><time>2026-05-03T10:29:53.012Z</time></trkpt><trkpt lat="43.7630146" lon="11.4235927"><ele>167.4</ele><time>2026-05-03T10:29:54.012Z</time></trkpt><trkpt lat="43.7629346" lon="11.4235398"><ele>175.0</ele><time>2026-05-03T10:29:55.012Z</time></trkpt><trkpt lat="43.7628574" lon="11.4235011"><ele>175.0</ele><time>2026-05-03T10:29:56.012Z</time></trkpt><trkpt lat="43.7628037" lon="11.4234509"><ele>175.0</ele><time>2026-05-03T10:29:57.012Z</time></trkpt><trkpt lat="43.7628032" lon="11.423324"><ele>175.0</ele><time>2026-05-03T10:29:59.013Z</time></trkpt><trkpt lat="43.7628692" lon="11.423209"><ele>175.0</ele><time>2026-05-03T10:30:01.012Z</time></trkpt><trkpt lat="43.7629435" lon="11.4232365"><ele>175.0</ele><time>2026-05-03T10:30:02.012Z</time></trkpt><trkpt lat="43.7630437" lon="11.423291"><ele>175.0</ele><time>2026-05-03T10:30:03.012Z</time></trkpt><trkpt lat="43.7631423" lon="11.4233438"><ele>175.0</ele><time>2026-05-03T10:30:04.013Z</time></trkpt><trkpt lat="43.7632474" lon="11.4233885"><ele>175.0</ele><time>2026-05-03T10:30:05.012Z</time></trkpt><trkpt lat="43.7633511" lon="11.4234188"><ele>175.0</ele><time>2026-05-03T10:30:06.012Z</time></trkpt><trkpt lat="43.7634457" lon="11.4234367"><ele>175.0</ele><time>2026-05-03T10:30:07.013Z</time></trkpt><trkpt lat="43.7635323" lon="11.4234345"><ele>175.0</ele><time>2026-05-03T10:30:08.012Z</time></trkpt><trkpt lat="43.7635939" lon="11.4234119"><ele>175.0</ele><time>2026-05-03T10:30:09.013Z</time></trkpt><trkpt lat="43.7636298" lon="11.4233177"><ele>175.0</ele><time>2026-05-03T10:30:11.013Z</time></trkpt><trkpt lat="43.7635716" lon="11.4232629"><ele>175.0</ele><time>2026-05-03T10:30:12.013Z</time></trkpt><trkpt lat="43.7635115" lon="11.4232156"><ele>175.0</ele><time>2026-05-03T10:30:13.011Z</time></trkpt><trkpt lat="43.7634614" lon="11.4231556"><ele>175.0</ele><time>2026-05-03T10:30:14.012Z</time></trkpt><trkpt lat="43.7634019" lon="11.4230837"><ele>175.0</ele><time>2026-05-03T10:30:15.011Z</time></trkpt><trkpt lat="43.7633417" lon="11.4230171"><ele>175.0</ele><time>2026-05-03T10:30:16.013Z</time></trkpt><trkpt lat="43.7632858" lon="11.422961"><ele>178.5</ele><time>2026-05-03T10:30:17.013Z</time></trkpt><trkpt lat="43.7632222" lon="11.4228886"><ele>182.0</ele><time>2026-05-03T10:30:18.013Z</time></trkpt><trkpt lat="43.7631654" lon="11.4228072"><ele>185.5</ele><time>2026-05-03T10:30:19.012Z</time></trkpt><trkpt lat="43.7631222" lon="11.4227256"><ele>189.0</ele><time>2026-05-03T10:30:20.012Z</time></trkpt><trkpt lat="43.7630714" lon="11.4226323"><ele>192.49999999999997</ele><time>2026-05-03T10:30:21.012Z</time></trkpt><trkpt lat="43.7630124" lon="11.4225535"><ele>196.0</ele><time>2026-05-03T10:30:22.012Z</time></trkpt><trkpt lat="43.7629743" lon="11.4224468"><ele>195.99999999999997</ele><time>2026-05-03T10:30:24.013Z</time></trkpt><trkpt lat="43.7630494" lon="11.4224137"><ele>196.0</ele><time>2026-05-03T10:30:26.013Z</time></trkpt><trkpt lat="43.763165" lon="11.4224721"><ele>196.0</ele><time>2026-05-03T10:30:28.013Z</time></trkpt><trkpt lat="43.7632404" lon="11.4224949"><ele>196.0</ele><time>2026-05-03T10:30:29.012Z</time></trkpt><trkpt lat="43.7633155" lon="11.4225247"><ele>195.99999999999997</ele><time>2026-05-03T10:30:30.012Z</time></trkpt><trkpt lat="43.7633898" lon="11.4225428"><ele>196.0</ele><time>2026-05-03T10:30:31.012Z</time></trkpt><trkpt lat="43.7634681" lon="11.4225263"><ele>195.66666666666666</ele><time>2026-05-03T10:30:32.013Z</time></trkpt><trkpt lat="43.7635486" lon="11.4224947"><ele>195.33333333333331</ele><time>2026-05-03T10:30:33.013Z</time></trkpt><trkpt lat="43.7636157" lon="11.4224357"><ele>195.0</ele><time>2026-05-03T10:30:34.013Z</time></trkpt><trkpt lat="43.7636795" lon="11.422377"><ele>194.66666666666669</ele><time>2026-05-03T10:30:35.012Z</time></trkpt><trkpt lat="43.7637154" lon="11.422282"><ele>194.33333333333334</ele><time>2026-05-03T10:30:37.013Z</time></trkpt><trkpt lat="43.7636458" lon="11.4222238"><ele>194.0</ele><time>2026-05-03T10:30:42.013Z</time></trkpt><trkpt lat="43.7635508" lon="11.4221427"><ele>195.7142857142857</ele><time>2026-05-03T10:30:44.012Z</time></trkpt><trkpt lat="43.7634916" lon="11.4220872"><ele>197.42857142857144</ele><time>2026-05-03T10:30:45.013Z</time></trkpt><trkpt lat="43.763435" lon="11.4220297"><ele>199.14285714285714</ele><time>2026-05-03T10:30:46.013Z</time></trkpt><trkpt lat="43.7633853" lon="11.421968"><ele>200.85714285714283</ele><time>2026-05-03T10:30:47.013Z</time></trkpt><trkpt lat="43.7633378" lon="11.4218991"><ele>202.57142857142856</ele><time>2026-05-03T10:30:48.013Z</time></trkpt><trkpt lat="43.7632912" lon="11.4218227"><ele>204.28571428571428</ele><time>2026-05-03T10:30:49.013Z</time></trkpt><trkpt lat="43.7632459" lon="11.4217437"><ele>206.0</ele><time>2026-05-03T10:30:50.012Z</time></trkpt><trkpt lat="43.7631951" lon="11.4216586"><ele>206.00000000000003</ele><time>2026-05-03T10:30:51.013Z</time></trkpt><trkpt lat="43.7631436" lon="11.4215698"><ele>206.0</ele><time>2026-05-03T10:30:52.012Z</time></trkpt><trkpt lat="43.7631019" lon="11.4214772"><ele>206.0</ele><time>2026-05-03T10:30:53.012Z</time></trkpt><trkpt lat="43.7630604" lon="11.4213811"><ele>206.0</ele><time>2026-05-03T10:30:54.012Z</time></trkpt><trkpt lat="43.7630179" lon="11.4212889"><ele>206.00000000000003</ele><time>2026-05-03T10:30:55.012Z</time></trkpt><trkpt lat="43.7629763" lon="11.4211978"><ele>206.0</ele><time>2026-05-03T10:30:56.013Z</time></trkpt><trkpt lat="43.7629326" lon="11.4211082"><ele>206.28571428571428</ele><time>2026-05-03T10:30:57.012Z</time></trkpt><trkpt lat="43.76289" lon="11.4210203"><ele>206.57142857142856</ele><time>2026-05-03T10:30:58.013Z</time></trkpt><trkpt lat="43.7628483" lon="11.4209365"><ele>206.85714285714283</ele><time>2026-05-03T10:30:59.013Z</time></trkpt><trkpt lat="43.7628075" lon="11.4208506"><ele>207.14285714285714</ele><time>2026-05-03T10:31:00.013Z</time></trkpt><trkpt lat="43.7627629" lon="11.4207662"><ele>207.42857142857144</ele><time>2026-05-03T10:31:01.013Z</time></trkpt><trkpt lat="43.762721" lon="11.4206813"><ele>207.7142857142857</ele><time>2026-05-03T10:31:02.012Z</time></trkpt><trkpt lat="43.7626834" lon="11.4205998"><ele>208.0</ele><time>2026-05-03T10:31:03.013Z</time></trkpt><trkpt lat="43.7626465" lon="11.4204996"><ele>208.66666666666666</ele><time>2026-05-03T10:31:04.013Z</time></trkpt><trkpt lat="43.7626186" lon="11.4204063"><ele>209.33333333333331</ele><time>2026-05-03T10:31:05.012Z</time></trkpt><trkpt lat="43.7625718" lon="11.4202979"><ele>210.0</ele><time>2026-05-03T10:31:07.013Z</time></trkpt><trkpt lat="43.7624897" lon="11.4203014"><ele>210.66666666666669</ele><time>2026-05-03T10:31:09.013Z</time></trkpt><trkpt lat="43.7624036" lon="11.4202908"><ele>211.33333333333334</ele><time>2026-05-03T10:31:11.013Z</time></trkpt><trkpt lat="43.7623758" lon="11.4201741"><ele>212.0</ele><time>2026-05-03T10:31:13.013Z</time></trkpt><trkpt lat="43.7623672" lon="11.4200754"><ele>212.0</ele><time>2026-05-03T10:31:14.013Z</time></trkpt><trkpt lat="43.7623464" lon="11.4199641"><ele>212.0</ele><time>2026-05-03T10:31:15.012Z</time></trkpt><trkpt lat="43.7623035" lon="11.4198488"><ele>212.0</ele><time>2026-05-03T10:31:16.013Z</time></trkpt><trkpt lat="43.7622431" lon="11.4197282"><ele>212.0</ele><time>2026-05-03T10:31:17.012Z</time></trkpt><trkpt lat="43.7621759" lon="11.4196052"><ele>212.0</ele><time>2026-05-03T10:31:18.013Z</time></trkpt><trkpt lat="43.7621055" lon="11.4194795"><ele>212.6</ele><time>2026-05-03T10:31:19.012Z</time></trkpt><trkpt lat="43.7620409" lon="11.4193619"><ele>213.2</ele><time>2026-05-03T10:31:20.013Z</time></trkpt><trkpt lat="43.7619892" lon="11.4192603"><ele>213.8</ele><time>2026-05-03T10:31:21.011Z</time></trkpt><trkpt lat="43.7619491" lon="11.4191693"><ele>214.4</ele><time>2026-05-03T10:31:22.013Z</time></trkpt><trkpt lat="43.7619146" lon="11.4190907"><ele>215.0</ele><time>2026-05-03T10:31:23.012Z</time></trkpt><trkpt lat="43.7618413" lon="11.4189753"><ele>215.00000000000003</ele><time>2026-05-03T10:31:25.013Z</time></trkpt><trkpt lat="43.7617457" lon="11.4189849"><ele>215.0</ele><time>2026-05-03T10:31:27.013Z</time></trkpt><trkpt lat="43.7616766" lon="11.4190198"><ele>215.0</ele><time>2026-05-03T10:31:28.013Z</time></trkpt><trkpt lat="43.7616005" lon="11.4190567"><ele>215.0</ele><time>2026-05-03T10:31:29.013Z</time></trkpt><trkpt lat="43.7615258" lon="11.4190858"><ele>215.00000000000003</ele><time>2026-05-03T10:31:30.013Z</time></trkpt><trkpt lat="43.7614473" lon="11.4191152"><ele>215.0</ele><time>2026-05-03T10:31:31.013Z</time></trkpt><trkpt lat="43.7613679" lon="11.4191455"><ele>215.0</ele><time>2026-05-03T10:31:32.013Z</time></trkpt><trkpt lat="43.761256" lon="11.4191927"><ele>215.0</ele><time>2026-05-03T10:31:33.013Z</time></trkpt><trkpt lat="43.7611493" lon="11.4192362"><ele>215.0</ele><time>2026-05-03T10:31:34.013Z</time></trkpt><trkpt lat="43.7610406" lon="11.4192801"><ele>215.0</ele><time>2026-05-03T10:31:35.013Z</time></trkpt><trkpt lat="43.7609321" lon="11.4193238"><ele>215.0</ele><time>2026-05-03T10:31:36.011Z</time></trkpt><trkpt lat="43.7608213" lon="11.4193691"><ele>215.0</ele><time>2026-05-03T10:31:37.012Z</time></trkpt><trkpt lat="43.760711" lon="11.4194176"><ele>215.0</ele><time>2026-05-03T10:31:38.012Z</time></trkpt><trkpt lat="43.7606044" lon="11.419467"><ele>215.0</ele><time>2026-05-03T10:31:39.012Z</time></trkpt><trkpt lat="43.7605129" lon="11.4195096"><ele>215.0</ele><time>2026-05-03T10:31:40.013Z</time></trkpt><trkpt lat="43.7604203" lon="11.4195454"><ele>215.0</ele><time>2026-05-03T10:31:41.013Z</time></trkpt><trkpt lat="43.7603336" lon="11.419571"><ele>215.0</ele><time>2026-05-03T10:31:42.013Z</time></trkpt><trkpt lat="43.7602587" lon="11.419589"><ele>215.0</ele><time>2026-05-03T10:31:43.013Z</time></trkpt><trkpt lat="43.7601896" lon="11.4195876"><ele>215.0</ele><time>2026-05-03T10:31:44.012Z</time></trkpt><trkpt lat="43.7600746" lon="11.4195533"><ele>215.0</ele><time>2026-05-03T10:31:46.012Z</time></trkpt><trkpt lat="43.7599761" lon="11.4194548"><ele>214.4</ele><time>2026-05-03T10:31:48.013Z</time></trkpt><trkpt lat="43.7599148" lon="11.4193697"><ele>213.8</ele><time>2026-05-03T10:31:49.012Z</time></trkpt><trkpt lat="43.7598469" lon="11.4192681"><ele>213.2</ele><time>2026-05-03T10:31:50.013Z</time></trkpt><trkpt lat="43.7597717" lon="11.4191575"><ele>212.6</ele><time>2026-05-03T10:31:51.012Z</time></trkpt><trkpt lat="43.7596876" lon="11.4190327"><ele>212.0</ele><time>2026-05-03T10:31:52.013Z</time></trkpt><trkpt lat="43.7596" lon="11.418906"><ele>212.8</ele><time>2026-05-03T10:31:53.013Z</time></trkpt><trkpt lat="43.7595183" lon="11.4187862"><ele>213.6</ele><time>2026-05-03T10:31:54.013Z</time></trkpt><trkpt lat="43.7594438" lon="11.4186749"><ele>214.40000000000003</ele><time>2026-05-03T10:31:55.012Z</time></trkpt><trkpt lat="43.7593705" lon="11.4185631"><ele>215.20000000000002</ele><time>2026-05-03T10:31:56.012Z</time></trkpt><trkpt lat="43.7593098" lon="11.418458"><ele>216.0</ele><time>2026-05-03T10:31:57.013Z</time></trkpt><trkpt lat="43.7592489" lon="11.4183638"><ele>216.0</ele><time>2026-05-03T10:31:58.012Z</time></trkpt><trkpt lat="43.7591927" lon="11.4182634"><ele>216.00000000000003</ele><time>2026-05-03T10:31:59.011Z</time></trkpt><trkpt lat="43.7590876" lon="11.4182142"><ele>216.00000000000003</ele><time>2026-05-03T10:32:01.013Z</time></trkpt><trkpt lat="43.7589782" lon="11.4182232"><ele>216.0</ele><time>2026-05-03T10:32:03.013Z</time></trkpt><trkpt lat="43.7588979" lon="11.4183482"><ele>216.0</ele><time>2026-05-03T10:32:04.013Z</time></trkpt><trkpt lat="43.7588286" lon="11.4184849"><ele>216.0</ele><time>2026-05-03T10:32:05.013Z</time></trkpt><trkpt lat="43.7587583" lon="11.4185895"><ele>216.00000000000003</ele><time>2026-05-03T10:32:06.013Z</time></trkpt><trkpt lat="43.7587183" lon="11.4186894"><ele>216.00000000000003</ele><time>2026-05-03T10:32:07.013Z</time></trkpt><trkpt lat="43.7586654" lon="11.4188115"><ele>216.0</ele><time>2026-05-03T10:32:08.012Z</time></trkpt><trkpt lat="43.7585832" lon="11.4188893"><ele>216.0</ele><time>2026-05-03T10:32:09.013Z</time></trkpt><trkpt lat="43.7585096" lon="11.4189808"><ele>214.75</ele><time>2026-05-03T10:32:10.013Z</time></trkpt><trkpt lat="43.7583959" lon="11.4190498"><ele>213.5</ele><time>2026-05-03T10:32:11.013Z</time></trkpt><trkpt lat="43.7582817" lon="11.4191347"><ele>212.25</ele><time>2026-05-03T10:32:12.013Z</time></trkpt><trkpt lat="43.7581674" lon="11.4192089"><ele>211.0</ele><time>2026-05-03T10:32:13.013Z</time></trkpt><trkpt lat="43.7580568" lon="11.4192862"><ele>211.0</ele><time>2026-05-03T10:32:14.012Z</time></trkpt><trkpt lat="43.7579431" lon="11.4193615"><ele>211.0</ele><time>2026-05-03T10:32:15.013Z</time></trkpt><trkpt lat="43.757844" lon="11.4194324"><ele>211.0</ele><time>2026-05-03T10:32:16.013Z</time></trkpt><trkpt lat="43.7577509" lon="11.419496"><ele>211.0</ele><time>2026-05-03T10:32:17.013Z</time></trkpt><trkpt lat="43.7576477" lon="11.4195478"><ele>210.5</ele><time>2026-05-03T10:32:18.013Z</time></trkpt><trkpt lat="43.7575395" lon="11.4195915"><ele>210.0</ele><time>2026-05-03T10:32:19.012Z</time></trkpt><trkpt lat="43.7574306" lon="11.419637"><ele>209.5</ele><time>2026-05-03T10:32:20.013Z</time></trkpt><trkpt lat="43.7573201" lon="11.4196777"><ele>209.0</ele><time>2026-05-03T10:32:21.013Z</time></trkpt><trkpt lat="43.7572073" lon="11.4197176"><ele>209.0</ele><time>2026-05-03T10:32:22.013Z</time></trkpt><trkpt lat="43.7571137" lon="11.4197538"><ele>209.0</ele><time>2026-05-03T10:32:23.013Z</time></trkpt><trkpt lat="43.7569972" lon="11.4197539"><ele>209.0</ele><time>2026-05-03T10:32:24.012Z</time></trkpt><trkpt lat="43.7569197" lon="11.4197971"><ele>209.0</ele><time>2026-05-03T10:32:25.013Z</time></trkpt><trkpt lat="43.7568099" lon="11.4198466"><ele>209.0</ele><time>2026-05-03T10:32:26.013Z</time></trkpt><trkpt lat="43.7567013" lon="11.4199275"><ele>214.79999999999998</ele><time>2026-05-03T10:32:27.013Z</time></trkpt><trkpt lat="43.7566031" lon="11.419961"><ele>220.6</ele><time>2026-05-03T10:32:28.013Z</time></trkpt><trkpt lat="43.7565136" lon="11.4200166"><ele>226.4</ele><time>2026-05-03T10:32:29.013Z</time></trkpt><trkpt lat="43.7564349" lon="11.4201459"><ele>232.2</ele><time>2026-05-03T10:32:30.012Z</time></trkpt><trkpt lat="43.7563807" lon="11.420227"><ele>238.0</ele><time>2026-05-03T10:32:31.013Z</time></trkpt><trkpt lat="43.7563054" lon="11.4203359"><ele>238.0</ele><time>2026-05-03T10:32:32.012Z</time></trkpt><trkpt lat="43.7562412" lon="11.4204201"><ele>238.0</ele><time>2026-05-03T10:32:33.013Z</time></trkpt><trkpt lat="43.7561727" lon="11.4204991"><ele>238.0</ele><time>2026-05-03T10:32:34.013Z</time></trkpt><trkpt lat="43.7561047" lon="11.420578"><ele>238.0</ele><time>2026-05-03T10:32:35.012Z</time></trkpt><trkpt lat="43.7560004" lon="11.4206135"><ele>238.0</ele><time>2026-05-03T10:32:36.013Z</time></trkpt><trkpt lat="43.7559112" lon="11.4206666"><ele>236.4</ele><time>2026-05-03T10:32:37.013Z</time></trkpt><trkpt lat="43.7558256" lon="11.4207311"><ele>234.8</ele><time>2026-05-03T10:32:38.013Z</time></trkpt><trkpt lat="43.7557378" lon="11.4207787"><ele>233.2</ele><time>2026-05-03T10:32:39.013Z</time></trkpt><trkpt lat="43.7556192" lon="11.4208021"><ele>231.6</ele><time>2026-05-03T10:32:40.013Z</time></trkpt><trkpt lat="43.7555245" lon="11.4208325"><ele>230.0</ele><time>2026-05-03T10:32:41.013Z</time></trkpt><trkpt lat="43.7553939" lon="11.420795"><ele>230.0</ele><time>2026-05-03T10:32:42.012Z</time></trkpt><trkpt lat="43.7552781" lon="11.4208167"><ele>230.0</ele><time>2026-05-03T10:32:43.013Z</time></trkpt><trkpt lat="43.7551628" lon="11.4208231"><ele>230.0</ele><time>2026-05-03T10:32:44.013Z</time></trkpt><trkpt lat="43.7550412" lon="11.4208157"><ele>230.0</ele><time>2026-05-03T10:32:45.013Z</time></trkpt><trkpt lat="43.7549213" lon="11.4208212"><ele>230.0</ele><time>2026-05-03T10:32:46.011Z</time></trkpt><trkpt lat="43.7547984" lon="11.4208322"><ele>230.0</ele><time>2026-05-03T10:32:47.013Z</time></trkpt><trkpt lat="43.7547016" lon="11.4208449"><ele>230.0</ele><time>2026-05-03T10:32:48.013Z</time></trkpt><trkpt lat="43.754584" lon="11.4208744"><ele>230.0</ele><time>2026-05-03T10:32:49.013Z</time></trkpt><trkpt lat="43.7544723" lon="11.4208932"><ele>230.8</ele><time>2026-05-03T10:32:50.013Z</time></trkpt><trkpt lat="43.7543591" lon="11.4209281"><ele>231.6</ele><time>2026-05-03T10:32:51.012Z</time></trkpt><trkpt lat="43.7542446" lon="11.4209321"><ele>232.39999999999998</ele><time>2026-05-03T10:32:52.013Z</time></trkpt><trkpt lat="43.7541508" lon="11.4209773"><ele>233.2</ele><time>2026-05-03T10:32:53.012Z</time></trkpt><trkpt lat="43.7540455" lon="11.4209893"><ele>234.0</ele><time>2026-05-03T10:32:54.013Z</time></trkpt><trkpt lat="43.7539419" lon="11.4209941"><ele>234.0</ele><time>2026-05-03T10:32:55.013Z</time></trkpt><trkpt lat="43.7538387" lon="11.4209777"><ele>233.99999999999997</ele><time>2026-05-03T10:32:56.013Z</time></trkpt><trkpt lat="43.7537314" lon="11.4209611"><ele>233.99999999999997</ele><time>2026-05-03T10:32:57.013Z</time></trkpt><trkpt lat="43.7536224" lon="11.4209218"><ele>234.0</ele><time>2026-05-03T10:32:58.012Z</time></trkpt><trkpt lat="43.7535241" lon="11.4208794"><ele>234.0</ele><time>2026-05-03T10:32:59.013Z</time></trkpt><trkpt lat="43.7534214" lon="11.4208343"><ele>234.79999999999998</ele><time>2026-05-03T10:33:00.012Z</time></trkpt><trkpt lat="43.7533134" lon="11.4208048"><ele>235.59999999999997</ele><time>2026-05-03T10:33:01.013Z</time></trkpt><trkpt lat="43.7532104" lon="11.4207463"><ele>236.4</ele><time>2026-05-03T10:33:02.013Z</time></trkpt><trkpt lat="43.7531044" lon="11.4207271"><ele>237.2</ele><time>2026-05-03T10:33:03.013Z</time></trkpt><trkpt lat="43.753004" lon="11.4207125"><ele>238.0</ele><time>2026-05-03T10:33:04.012Z</time></trkpt><trkpt lat="43.7529342" lon="11.4206881"><ele>238.0</ele><time>2026-05-03T10:33:05.012Z</time></trkpt><trkpt lat="43.7528508" lon="11.4206633"><ele>238.0</ele><time>2026-05-03T10:33:06.013Z</time></trkpt><trkpt lat="43.7528638" lon="11.4205421"><ele>238.0</ele><time>2026-05-03T10:33:09.012Z</time></trkpt><trkpt lat="43.7529833" lon="11.4204521"><ele>238.0</ele><time>2026-05-03T10:33:11.013Z</time></trkpt><trkpt lat="43.7530402" lon="11.4204057"><ele>238.0</ele><time>2026-05-03T10:33:12.012Z</time></trkpt><trkpt lat="43.7531144" lon="11.4203414"><ele>242.60000000000002</ele><time>2026-05-03T10:33:13.013Z</time></trkpt><trkpt lat="43.7532219" lon="11.4202243"><ele>247.20000000000002</ele><time>2026-05-03T10:33:14.013Z</time></trkpt><trkpt lat="43.7532904" lon="11.4201437"><ele>251.8</ele><time>2026-05-03T10:33:15.013Z</time></trkpt><trkpt lat="43.7533601" lon="11.4200522"><ele>256.40000000000003</ele><time>2026-05-03T10:33:16.013Z</time></trkpt><trkpt lat="43.7534351" lon="11.4199646"><ele>261.0</ele><time>2026-05-03T10:33:17.013Z</time></trkpt><trkpt lat="43.7535074" lon="11.4199118"><ele>262.2</ele><time>2026-05-03T10:33:18.013Z</time></trkpt><trkpt lat="43.7535958" lon="11.419851"><ele>263.40000000000003</ele><time>2026-05-03T10:33:19.012Z</time></trkpt><trkpt lat="43.7536727" lon="11.4197364"><ele>264.6</ele><time>2026-05-03T10:33:20.013Z</time></trkpt><trkpt lat="43.7537323" lon="11.4196416"><ele>265.8</ele><time>2026-05-03T10:33:21.012Z</time></trkpt><trkpt lat="43.753804" lon="11.4195166"><ele>267.0</ele><time>2026-05-03T10:33:22.013Z</time></trkpt><trkpt lat="43.7538817" lon="11.4194127"><ele>272.6</ele><time>2026-05-03T10:33:23.013Z</time></trkpt><trkpt lat="43.7539633" lon="11.4193228"><ele>278.2</ele><time>2026-05-03T10:33:24.013Z</time></trkpt><trkpt lat="43.7540366" lon="11.4192052"><ele>283.8</ele><time>2026-05-03T10:33:25.013Z</time></trkpt><trkpt lat="43.7540972" lon="11.4190855"><ele>289.4</ele><time>2026-05-03T10:33:26.012Z</time></trkpt><trkpt lat="43.7541573" lon="11.419048"><ele>295.0</ele><time>2026-05-03T10:33:27.013Z</time></trkpt><trkpt lat="43.754256" lon="11.4189646"><ele>295.0</ele><time>2026-05-03T10:33:29.012Z</time></trkpt><trkpt lat="43.7542898" lon="11.4188442"><ele>295.0</ele><time>2026-05-03T10:33:31.013Z</time></trkpt><trkpt lat="43.7542947" lon="11.4186466"><ele>295.0</ele><time>2026-05-03T10:33:33.012Z</time></trkpt><trkpt lat="43.7542848" lon="11.4185523"><ele>295.0</ele><time>2026-05-03T10:33:34.011Z</time></trkpt><trkpt lat="43.7542837" lon="11.418461"><ele>295.0</ele><time>2026-05-03T10:33:35.012Z</time></trkpt><trkpt lat="43.7543128" lon="11.4183684"><ele>295.0</ele><time>2026-05-03T10:33:36.012Z</time></trkpt><trkpt lat="43.7543654" lon="11.4182903"><ele>299.3333333333333</ele><time>2026-05-03T10:33:37.012Z</time></trkpt><trkpt lat="43.7544216" lon="11.418245"><ele>303.66666666666663</ele><time>2026-05-03T10:33:38.013Z</time></trkpt><trkpt lat="43.7544757" lon="11.4181675"><ele>308.0</ele><time>2026-05-03T10:33:39.013Z</time></trkpt><trkpt lat="43.7545228" lon="11.4180904"><ele>312.3333333333333</ele><time>2026-05-03T10:33:40.013Z</time></trkpt><trkpt lat="43.7545747" lon="11.4180214"><ele>316.6666666666667</ele><time>2026-05-03T10:33:42.013Z</time></trkpt><trkpt lat="43.7546693" lon="11.4179628"><ele>321.0</ele><time>2026-05-03T10:33:44.013Z</time></trkpt><trkpt lat="43.7547735" lon="11.4178475"><ele>323.3333333333333</ele><time>2026-05-03T10:33:46.013Z</time></trkpt><trkpt lat="43.7547625" lon="11.4177063"><ele>325.6666666666667</ele><time>2026-05-03T10:33:47.013Z</time></trkpt><trkpt lat="43.7547549" lon="11.4175861"><ele>328.0</ele><time>2026-05-03T10:33:48.012Z</time></trkpt><trkpt lat="43.7547502" lon="11.4174853"><ele>330.33333333333337</ele><time>2026-05-03T10:33:49.012Z</time></trkpt><trkpt lat="43.7547392" lon="11.4173795"><ele>332.6666666666667</ele><time>2026-05-03T10:33:50.013Z</time></trkpt><trkpt lat="43.7547248" lon="11.417263"><ele>335.0</ele><time>2026-05-03T10:33:51.011Z</time></trkpt><trkpt lat="43.7547072" lon="11.4171468"><ele>336.2</ele><time>2026-05-03T10:33:52.013Z</time></trkpt><trkpt lat="43.7546853" lon="11.4170118"><ele>337.4</ele><time>2026-05-03T10:33:53.013Z</time></trkpt><trkpt lat="43.7546565" lon="11.4168478"><ele>338.6</ele><time>2026-05-03T10:33:54.011Z</time></trkpt><trkpt lat="43.7546265" lon="11.4167016"><ele>339.8</ele><time>2026-05-03T10:33:55.012Z</time></trkpt><trkpt lat="43.7546116" lon="11.4165784"><ele>341.0</ele><time>2026-05-03T10:33:56.012Z</time></trkpt><trkpt lat="43.7546133" lon="11.41647"><ele>341.0</ele><time>2026-05-03T10:33:57.013Z</time></trkpt><trkpt lat="43.7546348" lon="11.4163853"><ele>341.0</ele><time>2026-05-03T10:33:58.012Z</time></trkpt><trkpt lat="43.7546798" lon="11.4163042"><ele>341.0</ele><time>2026-05-03T10:33:59.012Z</time></trkpt><trkpt lat="43.7547503" lon="11.4162152"><ele>341.0</ele><time>2026-05-03T10:34:00.013Z</time></trkpt><trkpt lat="43.7548273" lon="11.4161228"><ele>341.0</ele><time>2026-05-03T10:34:01.013Z</time></trkpt><trkpt lat="43.7549014" lon="11.4160087"><ele>341.0</ele><time>2026-05-03T10:34:02.013Z</time></trkpt><trkpt lat="43.7549793" lon="11.4158963"><ele>341.5</ele><time>2026-05-03T10:34:03.012Z</time></trkpt><trkpt lat="43.7550607" lon="11.4157914"><ele>342.0</ele><time>2026-05-03T10:34:04.013Z</time></trkpt><trkpt lat="43.7551459" lon="11.4156711"><ele>342.5</ele><time>2026-05-03T10:34:05.013Z</time></trkpt><trkpt lat="43.7552372" lon="11.4155304"><ele>343.0</ele><time>2026-05-03T10:34:06.013Z</time></trkpt><trkpt lat="43.7553304" lon="11.4153872"><ele>347.0</ele><time>2026-05-03T10:34:07.013Z</time></trkpt><trkpt lat="43.7554215" lon="11.4152584"><ele>351.0</ele><time>2026-05-03T10:34:08.013Z</time></trkpt><trkpt lat="43.7555183" lon="11.4151202"><ele>355.0</ele><time>2026-05-03T10:34:09.013Z</time></trkpt><trkpt lat="43.7556081" lon="11.4149933"><ele>359.0</ele><time>2026-05-03T10:34:10.012Z</time></trkpt><trkpt lat="43.7557052" lon="11.4148855"><ele>359.0</ele><time>2026-05-03T10:34:11.012Z</time></trkpt><trkpt lat="43.7557986" lon="11.4147915"><ele>359.0</ele><time>2026-05-03T10:34:12.011Z</time></trkpt><trkpt lat="43.755888" lon="11.4146872"><ele>359.0</ele><time>2026-05-03T10:34:13.013Z</time></trkpt><trkpt lat="43.755935" lon="11.4145892"><ele>359.0</ele><time>2026-05-03T10:34:14.012Z</time></trkpt><trkpt lat="43.7560067" lon="11.414493"><ele>359.0</ele><time>2026-05-03T10:34:15.012Z</time></trkpt><trkpt lat="43.756066" lon="11.4144195"><ele>360.79999999999995</ele><time>2026-05-03T10:34:16.013Z</time></trkpt><trkpt lat="43.7561242" lon="11.4143247"><ele>362.59999999999997</ele><time>2026-05-03T10:34:17.013Z</time></trkpt><trkpt lat="43.7561937" lon="11.4142204"><ele>364.4</ele><time>2026-05-03T10:34:18.013Z</time></trkpt><trkpt lat="43.7562253" lon="11.4140884"><ele>366.2</ele><time>2026-05-03T10:34:19.013Z</time></trkpt><trkpt lat="43.7562623" lon="11.4139849"><ele>368.0</ele><time>2026-05-03T10:34:20.012Z</time></trkpt><trkpt lat="43.7563158" lon="11.4139073"><ele>368.0</ele><time>2026-05-03T10:34:21.012Z</time></trkpt><trkpt lat="43.7563635" lon="11.4138288"><ele>368.0</ele><time>2026-05-03T10:34:22.012Z</time></trkpt><trkpt lat="43.7563999" lon="11.4136774"><ele>368.0</ele><time>2026-05-03T10:34:24.013Z</time></trkpt><trkpt lat="43.7563653" lon="11.4135015"><ele>368.0</ele><time>2026-05-03T10:34:26.013Z</time></trkpt><trkpt lat="43.7563291" lon="11.4134066"><ele>368.0</ele><time>2026-05-03T10:34:27.011Z</time></trkpt><trkpt lat="43.7563004" lon="11.4132949"><ele>370.0</ele><time>2026-05-03T10:34:28.013Z</time></trkpt><trkpt lat="43.7562795" lon="11.4131508"><ele>372.0</ele><time>2026-05-03T10:34:29.013Z</time></trkpt><trkpt lat="43.7562665" lon="11.4130216"><ele>374.0</ele><time>2026-05-03T10:34:30.012Z</time></trkpt><trkpt lat="43.7562728" lon="11.4129031"><ele>376.0</ele><time>2026-05-03T10:34:31.013Z</time></trkpt><trkpt lat="43.7562882" lon="11.4127543"><ele>378.0</ele><time>2026-05-03T10:34:32.013Z</time></trkpt><trkpt lat="43.7563033" lon="11.412605"><ele>379.5</ele><time>2026-05-03T10:34:33.011Z</time></trkpt><trkpt lat="43.7563266" lon="11.4124319"><ele>381.0</ele><time>2026-05-03T10:34:34.013Z</time></trkpt><trkpt lat="43.7563351" lon="11.412315"><ele>382.5</ele><time>2026-05-03T10:34:35.012Z</time></trkpt><trkpt lat="43.7563387" lon="11.4122089"><ele>384.0</ele><time>2026-05-03T10:34:36.012Z</time></trkpt><trkpt lat="43.7563131" lon="11.4120853"><ele>385.5</ele><time>2026-05-03T10:34:37.013Z</time></trkpt><trkpt lat="43.7563129" lon="11.4119945"><ele>387.0</ele><time>2026-05-03T10:34:38.012Z</time></trkpt><trkpt lat="43.7563149" lon="11.4118841"><ele>389.20000000000005</ele><time>2026-05-03T10:34:39.012Z</time></trkpt><trkpt lat="43.7563718" lon="11.4117801"><ele>391.4</ele><time>2026-05-03T10:34:40.013Z</time></trkpt><trkpt lat="43.7564214" lon="11.4116726"><ele>393.6</ele><time>2026-05-03T10:34:41.013Z</time></trkpt><trkpt lat="43.7564696" lon="11.4115646"><ele>395.79999999999995</ele><time>2026-05-03T10:34:42.012Z</time></trkpt><trkpt lat="43.7565068" lon="11.4114648"><ele>398.0</ele><time>2026-05-03T10:34:43.013Z</time></trkpt><trkpt lat="43.7565331" lon="11.4113215"><ele>398.99999999999994</ele><time>2026-05-03T10:34:44.012Z</time></trkpt><trkpt lat="43.7565315" lon="11.4112029"><ele>400.0</ele><time>2026-05-03T10:34:45.012Z</time></trkpt><trkpt lat="43.75652" lon="11.4110902"><ele>401.0</ele><time>2026-05-03T10:34:46.012Z</time></trkpt><trkpt lat="43.7565793" lon="11.4109443"><ele>402.0</ele><time>2026-05-03T10:34:48.012Z</time></trkpt><trkpt lat="43.7566236" lon="11.4108794"><ele>402.99999999999994</ele><time>2026-05-03T10:34:49.012Z</time></trkpt><trkpt lat="43.7566985" lon="11.4108277"><ele>404.0</ele><time>2026-05-03T10:34:50.012Z</time></trkpt><trkpt lat="43.7567469" lon="11.4107346"><ele>403.99999999999994</ele><time>2026-05-03T10:34:51.013Z</time></trkpt><trkpt lat="43.7567988" lon="11.4106336"><ele>404.0</ele><time>2026-05-03T10:34:52.012Z</time></trkpt><trkpt lat="43.7568553" lon="11.4105753"><ele>404.0</ele><time>2026-05-03T10:34:53.011Z</time></trkpt><trkpt lat="43.7569313" lon="11.4105493"><ele>404.0</ele><time>2026-05-03T10:34:54.012Z</time></trkpt><trkpt lat="43.757022" lon="11.410547"><ele>403.99999999999994</ele><time>2026-05-03T10:34:55.013Z</time></trkpt><trkpt lat="43.7571315" lon="11.4104991"><ele>404.0</ele><time>2026-05-03T10:34:57.013Z</time></trkpt><trkpt lat="43.7571345" lon="11.4103295"><ele>405.49999999999994</ele><time>2026-05-03T10:34:59.011Z</time></trkpt><trkpt lat="43.7570693" lon="11.4102154"><ele>407.0</ele><time>2026-05-03T10:35:00.013Z</time></trkpt><trkpt lat="43.7570243" lon="11.4101059"><ele>408.5</ele><time>2026-05-03T10:35:01.012Z</time></trkpt><trkpt lat="43.7569907" lon="11.4100005"><ele>410.0</ele><time>2026-05-03T10:35:02.012Z</time></trkpt><trkpt lat="43.7569504" lon="11.4099012"><ele>411.49999999999994</ele><time>2026-05-03T10:35:03.013Z</time></trkpt><trkpt lat="43.7569154" lon="11.409809"><ele>413.0</ele><time>2026-05-03T10:35:04.012Z</time></trkpt><trkpt lat="43.756851" lon="11.4097369"><ele>412.99999999999994</ele><time>2026-05-03T10:35:05.012Z</time></trkpt><trkpt lat="43.7567851" lon="11.4096724"><ele>413.0</ele><time>2026-05-03T10:35:06.013Z</time></trkpt><trkpt lat="43.756731" lon="11.4095953"><ele>413.0</ele><time>2026-05-03T10:35:07.013Z</time></trkpt><trkpt lat="43.7566755" lon="11.409519"><ele>413.0</ele><time>2026-05-03T10:35:08.013Z</time></trkpt><trkpt lat="43.7566286" lon="11.4094325"><ele>412.99999999999994</ele><time>2026-05-03T10:35:09.012Z</time></trkpt><trkpt lat="43.7565937" lon="11.4093277"><ele>413.0</ele><time>2026-05-03T10:35:10.013Z</time></trkpt><trkpt lat="43.7565568" lon="11.4092118"><ele>414.3333333333333</ele><time>2026-05-03T10:35:11.012Z</time></trkpt><trkpt lat="43.7565224" lon="11.4090887"><ele>415.66666666666663</ele><time>2026-05-03T10:35:12.013Z</time></trkpt><trkpt lat="43.756476" lon="11.4089763"><ele>417.0</ele><time>2026-05-03T10:35:13.012Z</time></trkpt><trkpt lat="43.7564201" lon="11.4088681"><ele>418.33333333333337</ele><time>2026-05-03T10:35:14.012Z</time></trkpt><trkpt lat="43.756396" lon="11.4087667"><ele>419.6666666666667</ele><time>2026-05-03T10:35:15.012Z</time></trkpt><trkpt lat="43.7563635" lon="11.4086693"><ele>421.0</ele><time>2026-05-03T10:35:16.013Z</time></trkpt><trkpt lat="43.7563089" lon="11.4085854"><ele>421.00000000000006</ele><time>2026-05-03T10:35:17.013Z</time></trkpt><trkpt lat="43.7562605" lon="11.4084949"><ele>421.0</ele><time>2026-05-03T10:35:18.013Z</time></trkpt><trkpt lat="43.756203" lon="11.4083927"><ele>421.0</ele><time>2026-05-03T10:35:19.013Z</time></trkpt><trkpt lat="43.7561519" lon="11.408295"><ele>421.0</ele><time>2026-05-03T10:35:20.012Z</time></trkpt><trkpt lat="43.7560899" lon="11.4082116"><ele>421.00000000000006</ele><time>2026-05-03T10:35:21.012Z</time></trkpt><trkpt lat="43.7560251" lon="11.408192"><ele>421.0</ele><time>2026-05-03T10:35:22.013Z</time></trkpt><trkpt lat="43.7559353" lon="11.4081566"><ele>418.8</ele><time>2026-05-03T10:35:24.012Z</time></trkpt><trkpt lat="43.755945" lon="11.4080666"><ele>416.6</ele><time>2026-05-03T10:35:26.013Z</time></trkpt><trkpt lat="43.7560637" lon="11.4079812"><ele>414.4</ele><time>2026-05-03T10:35:28.013Z</time></trkpt><trkpt lat="43.756156" lon="11.4079477"><ele>412.2</ele><time>2026-05-03T10:35:29.013Z</time></trkpt><trkpt lat="43.7562541" lon="11.4079313"><ele>410.0</ele><time>2026-05-03T10:35:30.013Z</time></trkpt><trkpt lat="43.7563543" lon="11.4079048"><ele>409.8</ele><time>2026-05-03T10:35:31.013Z</time></trkpt><trkpt lat="43.7564575" lon="11.4078743"><ele>409.6</ele><time>2026-05-03T10:35:32.012Z</time></trkpt><trkpt lat="43.756549" lon="11.4078505"><ele>409.4</ele><time>2026-05-03T10:35:33.012Z</time></trkpt><trkpt lat="43.7566418" lon="11.4078221"><ele>409.2</ele><time>2026-05-03T10:35:34.012Z</time></trkpt><trkpt lat="43.7566891" lon="11.4077114"><ele>409.0</ele><time>2026-05-03T10:35:35.013Z</time></trkpt><trkpt lat="43.75678" lon="11.4076373"><ele>409.0</ele><time>2026-05-03T10:35:36.012Z</time></trkpt><trkpt lat="43.7568637" lon="11.4075664"><ele>409.0</ele><time>2026-05-03T10:35:37.011Z</time></trkpt><trkpt lat="43.7569456" lon="11.4074979"><ele>409.0</ele><time>2026-05-03T10:35:38.013Z</time></trkpt><trkpt lat="43.7570244" lon="11.4074089"><ele>409.0</ele><time>2026-05-03T10:35:39.013Z</time></trkpt><trkpt lat="43.7570916" lon="11.407313"><ele>409.0</ele><time>2026-05-03T10:35:40.012Z</time></trkpt><trkpt lat="43.7571465" lon="11.4072495"><ele>410.6666666666667</ele><time>2026-05-03T10:35:41.013Z</time></trkpt><trkpt lat="43.7572151" lon="11.4071941"><ele>412.33333333333337</ele><time>2026-05-03T10:35:42.013Z</time></trkpt><trkpt lat="43.7572799" lon="11.4071438"><ele>414.0</ele><time>2026-05-03T10:35:43.013Z</time></trkpt><trkpt lat="43.7573424" lon="11.4070924"><ele>415.66666666666663</ele><time>2026-05-03T10:35:44.012Z</time></trkpt><trkpt lat="43.7573801" lon="11.4070152"><ele>417.3333333333333</ele><time>2026-05-03T10:35:45.013Z</time></trkpt><trkpt lat="43.7574093" lon="11.4068947"><ele>419.0</ele><time>2026-05-03T10:35:46.012Z</time></trkpt><trkpt lat="43.7574697" lon="11.4068069"><ele>418.99999999999994</ele><time>2026-05-03T10:35:47.012Z</time></trkpt><trkpt lat="43.7575333" lon="11.4067398"><ele>419.0</ele><time>2026-05-03T10:35:48.013Z</time></trkpt><trkpt lat="43.7576105" lon="11.4066603"><ele>419.0</ele><time>2026-05-03T10:35:49.012Z</time></trkpt><trkpt lat="43.7576754" lon="11.4066049"><ele>419.0</ele><time>2026-05-03T10:35:50.013Z</time></trkpt><trkpt lat="43.7577415" lon="11.4065982"><ele>418.99999999999994</ele><time>2026-05-03T10:35:51.011Z</time></trkpt><trkpt lat="43.7578435" lon="11.4065819"><ele>419.0</ele><time>2026-05-03T10:35:53.012Z</time></trkpt><trkpt lat="43.7578965" lon="11.406459"><ele>418.66666666666663</ele><time>2026-05-03T10:35:55.013Z</time></trkpt><trkpt lat="43.7579059" lon="11.4063631"><ele>418.3333333333333</ele><time>2026-05-03T10:35:56.012Z</time></trkpt><trkpt lat="43.7579155" lon="11.406264"><ele>418.0</ele><time>2026-05-03T10:35:57.013Z</time></trkpt><trkpt lat="43.7579263" lon="11.4061513"><ele>417.66666666666663</ele><time>2026-05-03T10:35:58.012Z</time></trkpt><trkpt lat="43.7579313" lon="11.406027"><ele>417.3333333333333</ele><time>2026-05-03T10:35:59.012Z</time></trkpt><trkpt lat="43.7579402" lon="11.4058986"><ele>417.0</ele><time>2026-05-03T10:36:00.013Z</time></trkpt><trkpt lat="43.7579408" lon="11.405759"><ele>417.6</ele><time>2026-05-03T10:36:01.013Z</time></trkpt><trkpt lat="43.7579392" lon="11.4056177"><ele>418.20000000000005</ele><time>2026-05-03T10:36:02.012Z</time></trkpt><trkpt lat="43.7579358" lon="11.4054729"><ele>418.8</ele><time>2026-05-03T10:36:03.013Z</time></trkpt><trkpt lat="43.757942" lon="11.4053221"><ele>419.4</ele><time>2026-05-03T10:36:04.012Z</time></trkpt><trkpt lat="43.7579579" lon="11.4051626"><ele>420.0</ele><time>2026-05-03T10:36:05.013Z</time></trkpt><trkpt lat="43.7579673" lon="11.4049976"><ele>420.0</ele><time>2026-05-03T10:36:06.013Z</time></trkpt><trkpt lat="43.7579759" lon="11.4048337"><ele>420.0</ele><time>2026-05-03T10:36:07.012Z</time></trkpt><trkpt lat="43.7579849" lon="11.4046767"><ele>420.0</ele><time>2026-05-03T10:36:08.013Z</time></trkpt><trkpt lat="43.757991" lon="11.4045089"><ele>420.0</ele><time>2026-05-03T10:36:09.013Z</time></trkpt><trkpt lat="43.7579949" lon="11.404342"><ele>420.8</ele><time>2026-05-03T10:36:10.013Z</time></trkpt><trkpt lat="43.7580015" lon="11.4041824"><ele>421.6</ele><time>2026-05-03T10:36:11.013Z</time></trkpt><trkpt lat="43.7580194" lon="11.4040331"><ele>422.4</ele><time>2026-05-03T10:36:12.013Z</time></trkpt><trkpt lat="43.7580281" lon="11.4038872"><ele>423.2</ele><time>2026-05-03T10:36:13.013Z</time></trkpt><trkpt lat="43.7580433" lon="11.4037403"><ele>424.0</ele><time>2026-05-03T10:36:14.013Z</time></trkpt><trkpt lat="43.758058" lon="11.4036046"><ele>424.1666666666667</ele><time>2026-05-03T10:36:15.013Z</time></trkpt><trkpt lat="43.7580827" lon="11.4034788"><ele>424.33333333333337</ele><time>2026-05-03T10:36:16.013Z</time></trkpt><trkpt lat="43.7581133" lon="11.4033609"><ele>424.5</ele><time>2026-05-03T10:36:17.012Z</time></trkpt><trkpt lat="43.7581511" lon="11.4032506"><ele>424.66666666666663</ele><time>2026-05-03T10:36:18.011Z</time></trkpt><trkpt lat="43.7581898" lon="11.4031401"><ele>424.8333333333333</ele><time>2026-05-03T10:36:19.012Z</time></trkpt><trkpt lat="43.7582111" lon="11.4030473"><ele>425.0</ele><time>2026-05-03T10:36:20.012Z</time></trkpt><trkpt lat="43.75827" lon="11.4029533"><ele>425.2</ele><time>2026-05-03T10:36:21.011Z</time></trkpt><trkpt lat="43.7583412" lon="11.402858"><ele>425.4</ele><time>2026-05-03T10:36:22.012Z</time></trkpt><trkpt lat="43.7584201" lon="11.4027544"><ele>425.6</ele><time>2026-05-03T10:36:23.012Z</time></trkpt><trkpt lat="43.7585" lon="11.4026447"><ele>425.8</ele><time>2026-05-03T10:36:24.012Z</time></trkpt><trkpt lat="43.7585957" lon="11.4025978"><ele>426.0</ele><time>2026-05-03T10:36:25.01Z</time></trkpt><trkpt lat="43.7586729" lon="11.4025386"><ele>426.0</ele><time>2026-05-03T10:36:26.012Z</time></trkpt><trkpt lat="43.7587535" lon="11.402497"><ele>426.0</ele><time>2026-05-03T10:36:27.012Z</time></trkpt><trkpt lat="43.7588467" lon="11.402449"><ele>426.0</ele><time>2026-05-03T10:36:28.012Z</time></trkpt><trkpt lat="43.758939" lon="11.402399"><ele>426.0</ele><time>2026-05-03T10:36:29.011Z</time></trkpt><trkpt lat="43.7590379" lon="11.4023597"><ele>426.0</ele><time>2026-05-03T10:36:30.012Z</time></trkpt><trkpt lat="43.7591344" lon="11.4023211"><ele>426.0</ele><time>2026-05-03T10:36:31.011Z</time></trkpt><trkpt lat="43.759233" lon="11.402283"><ele>426.0</ele><time>2026-05-03T10:36:32.011Z</time></trkpt><trkpt lat="43.7593079" lon="11.4022388"><ele>426.0</ele><time>2026-05-03T10:36:33.012Z</time></trkpt><trkpt lat="43.7593555" lon="11.4021193"><ele>426.0</ele><time>2026-05-03T10:36:34.012Z</time></trkpt><trkpt lat="43.759413" lon="11.4020419"><ele>426.0</ele><time>2026-05-03T10:36:35.012Z</time></trkpt><trkpt lat="43.7595059" lon="11.401967"><ele>427.6</ele><time>2026-05-03T10:36:36.011Z</time></trkpt><trkpt lat="43.7595934" lon="11.4019035"><ele>429.20000000000005</ele><time>2026-05-03T10:36:37.011Z</time></trkpt><trkpt lat="43.7596811" lon="11.4018355"><ele>430.79999999999995</ele><time>2026-05-03T10:36:38.01Z</time></trkpt><trkpt lat="43.7597645" lon="11.4017277"><ele>432.4</ele><time>2026-05-03T10:36:39.012Z</time></trkpt><trkpt lat="43.7598562" lon="11.4016475"><ele>434.0</ele><time>2026-05-03T10:36:40.01Z</time></trkpt><trkpt lat="43.7599362" lon="11.4015825"><ele>433.99999999999994</ele><time>2026-05-03T10:36:41.012Z</time></trkpt><trkpt lat="43.7599945" lon="11.4015096"><ele>434.0</ele><time>2026-05-03T10:36:42.012Z</time></trkpt><trkpt lat="43.7600464" lon="11.4014274"><ele>434.0</ele><time>2026-05-03T10:36:43.012Z</time></trkpt><trkpt lat="43.7600865" lon="11.4013459"><ele>434.0</ele><time>2026-05-03T10:36:44.011Z</time></trkpt><trkpt lat="43.7601656" lon="11.4012656"><ele>433.99999999999994</ele><time>2026-05-03T10:36:45.012Z</time></trkpt><trkpt lat="43.7602215" lon="11.4011536"><ele>434.0</ele><time>2026-05-03T10:36:46.012Z</time></trkpt><trkpt lat="43.7602469" lon="11.4010293"><ele>436.0</ele><time>2026-05-03T10:36:47.012Z</time></trkpt><trkpt lat="43.7602721" lon="11.4009213"><ele>438.0</ele><time>2026-05-03T10:36:48.012Z</time></trkpt><trkpt lat="43.7603641" lon="11.4008118"><ele>440.0</ele><time>2026-05-03T10:36:50.011Z</time></trkpt><trkpt lat="43.7604877" lon="11.400788"><ele>442.0</ele><time>2026-05-03T10:36:52.011Z</time></trkpt><trkpt lat="43.7606053" lon="11.4006775"><ele>442.00000000000006</ele><time>2026-05-03T10:36:53.012Z</time></trkpt><trkpt lat="43.760658" lon="11.4005989"><ele>442.0</ele><time>2026-05-03T10:36:54.012Z</time></trkpt><trkpt lat="43.7606962" lon="11.4005025"><ele>442.0</ele><time>2026-05-03T10:36:55.012Z</time></trkpt><trkpt lat="43.7607267" lon="11.400406"><ele>442.0</ele><time>2026-05-03T10:36:56.011Z</time></trkpt><trkpt lat="43.7607103" lon="11.4002884"><ele>442.00000000000006</ele><time>2026-05-03T10:36:57.012Z</time></trkpt><trkpt lat="43.7606752" lon="11.4001683"><ele>442.0</ele><time>2026-05-03T10:36:58.012Z</time></trkpt><trkpt lat="43.7606387" lon="11.4000487"><ele>443.6</ele><time>2026-05-03T10:36:59.011Z</time></trkpt><trkpt lat="43.760608" lon="11.399929"><ele>445.20000000000005</ele><time>2026-05-03T10:37:00.012Z</time></trkpt><trkpt lat="43.7605887" lon="11.3998047"><ele>446.8</ele><time>2026-05-03T10:37:01.012Z</time></trkpt><trkpt lat="43.7605746" lon="11.3996685"><ele>448.4</ele><time>2026-05-03T10:37:02.012Z</time></trkpt><trkpt lat="43.7605601" lon="11.3995224"><ele>450.0</ele><time>2026-05-03T10:37:03.011Z</time></trkpt><trkpt lat="43.7605416" lon="11.3993723"><ele>451.6</ele><time>2026-05-03T10:37:04.011Z</time></trkpt><trkpt lat="43.7605169" lon="11.3992231"><ele>453.2</ele><time>2026-05-03T10:37:05.01Z</time></trkpt><trkpt lat="43.7604775" lon="11.3990837"><ele>454.79999999999995</ele><time>2026-05-03T10:37:06.011Z</time></trkpt><trkpt lat="43.7604366" lon="11.3989559"><ele>456.4</ele><time>2026-05-03T10:37:07.012Z</time></trkpt><trkpt lat="43.7603994" lon="11.3988427"><ele>458.0</ele><time>2026-05-03T10:37:08.011Z</time></trkpt><trkpt lat="43.760361" lon="11.3987382"><ele>459.4</ele><time>2026-05-03T10:37:09.011Z</time></trkpt><trkpt lat="43.7603163" lon="11.3986364"><ele>460.79999999999995</ele><time>2026-05-03T10:37:10.012Z</time></trkpt><trkpt lat="43.7602573" lon="11.3985523"><ele>462.2</ele><time>2026-05-03T10:37:11.012Z</time></trkpt><trkpt lat="43.7601888" lon="11.3984585"><ele>463.6</ele><time>2026-05-03T10:37:12.012Z</time></trkpt><trkpt lat="43.7600945" lon="11.3983494"><ele>465.0</ele><time>2026-05-03T10:37:13.01Z</time></trkpt><trkpt lat="43.7600067" lon="11.3982382"><ele>463.0</ele><time>2026-05-03T10:37:14.012Z</time></trkpt><trkpt lat="43.7599219" lon="11.3981206"><ele>461.0</ele><time>2026-05-03T10:37:15.011Z</time></trkpt><trkpt lat="43.7598508" lon="11.3980288"><ele>459.0</ele><time>2026-05-03T10:37:16.011Z</time></trkpt><trkpt lat="43.7597813" lon="11.3979392"><ele>457.0</ele><time>2026-05-03T10:37:17.011Z</time></trkpt><trkpt lat="43.7597241" lon="11.3978422"><ele>455.0</ele><time>2026-05-03T10:37:18.011Z</time></trkpt><trkpt lat="43.7596998" lon="11.3977464"><ele>455.0</ele><time>2026-05-03T10:37:19.012Z</time></trkpt><trkpt lat="43.7596998" lon="11.3976383"><ele>455.0</ele><time>2026-05-03T10:37:20.01Z</time></trkpt><trkpt lat="43.7597038" lon="11.3975354"><ele>455.0</ele><time>2026-05-03T10:37:21.012Z</time></trkpt><trkpt lat="43.7596968" lon="11.3973762"><ele>455.0</ele><time>2026-05-03T10:37:23.011Z</time></trkpt><trkpt lat="43.7596964" lon="11.3972281"><ele>455.0</ele><time>2026-05-03T10:37:25.012Z</time></trkpt><trkpt lat="43.7596906" lon="11.3971076"><ele>454.4</ele><time>2026-05-03T10:37:27.012Z</time></trkpt><trkpt lat="43.7596824" lon="11.3969747"><ele>453.8</ele><time>2026-05-03T10:37:29.012Z</time></trkpt><trkpt lat="43.7596655" lon="11.3968058"><ele>453.20000000000005</ele><time>2026-05-03T10:37:31.012Z</time></trkpt><trkpt lat="43.7596524" lon="11.3966541"><ele>452.6</ele><time>2026-05-03T10:37:33.012Z</time></trkpt><trkpt lat="43.7596377" lon="11.3965089"><ele>452.0</ele><time>2026-05-03T10:37:35.012Z</time></trkpt><trkpt lat="43.7596265" lon="11.396362"><ele>450.40000000000003</ele><time>2026-05-03T10:37:37.012Z</time></trkpt><trkpt lat="43.7596154" lon="11.3962037"><ele>448.80000000000007</ele><time>2026-05-03T10:37:39.011Z</time></trkpt><trkpt lat="43.7595975" lon="11.3960286"><ele>447.2</ele><time>2026-05-03T10:37:41.012Z</time></trkpt><trkpt lat="43.7595867" lon="11.3959241"><ele>445.6</ele><time>2026-05-03T10:37:42.011Z</time></trkpt><trkpt lat="43.7595757" lon="11.3958147"><ele>444.0</ele><time>2026-05-03T10:37:43.012Z</time></trkpt><trkpt lat="43.7595679" lon="11.395708"><ele>444.0</ele><time>2026-05-03T10:37:44.012Z</time></trkpt><trkpt lat="43.7595589" lon="11.395595"><ele>444.0</ele><time>2026-05-03T10:37:45.012Z</time></trkpt><trkpt lat="43.7595497" lon="11.3954796"><ele>444.0</ele><time>2026-05-03T10:37:46.01Z</time></trkpt><trkpt lat="43.7595375" lon="11.3953658"><ele>444.0</ele><time>2026-05-03T10:37:47.011Z</time></trkpt><trkpt lat="43.7595269" lon="11.3952581"><ele>444.0</ele><time>2026-05-03T10:37:48.012Z</time></trkpt><trkpt lat="43.7595209" lon="11.3951582"><ele>444.0</ele><time>2026-05-03T10:37:49.011Z</time></trkpt><trkpt lat="43.7595163" lon="11.395063"><ele>441.2</ele><time>2026-05-03T10:37:50.011Z</time></trkpt><trkpt lat="43.7594999" lon="11.3949772"><ele>438.4</ele><time>2026-05-03T10:37:51.011Z</time></trkpt><trkpt lat="43.7594216" lon="11.3948402"><ele>435.6</ele><time>2026-05-03T10:37:53.01Z</time></trkpt><trkpt lat="43.7592993" lon="11.3948076"><ele>432.8</ele><time>2026-05-03T10:37:54.012Z</time></trkpt><trkpt lat="43.759215" lon="11.3947642"><ele>430.0</ele><time>2026-05-03T10:37:55.012Z</time></trkpt><trkpt lat="43.759124" lon="11.3947183"><ele>428.2</ele><time>2026-05-03T10:37:56.012Z</time></trkpt><trkpt lat="43.7590313" lon="11.3946791"><ele>426.4</ele><time>2026-05-03T10:37:57.012Z</time></trkpt><trkpt lat="43.7589415" lon="11.3946375"><ele>424.6</ele><time>2026-05-03T10:37:58.011Z</time></trkpt><trkpt lat="43.7588573" lon="11.3946"><ele>422.8</ele><time>2026-05-03T10:37:59.012Z</time></trkpt><trkpt lat="43.7587705" lon="11.3945555"><ele>421.0</ele><time>2026-05-03T10:38:00.012Z</time></trkpt><trkpt lat="43.7586903" lon="11.3945088"><ele>421.00000000000006</ele><time>2026-05-03T10:38:01.012Z</time></trkpt><trkpt lat="43.7586225" lon="11.3944547"><ele>421.0</ele><time>2026-05-03T10:38:02.011Z</time></trkpt><trkpt lat="43.7585578" lon="11.3943979"><ele>421.0</ele><time>2026-05-03T10:38:03.012Z</time></trkpt><trkpt lat="43.7585071" lon="11.3942865"><ele>421.0</ele><time>2026-05-03T10:38:05.011Z</time></trkpt><trkpt lat="43.7584725" lon="11.394127"><ele>421.00000000000006</ele><time>2026-05-03T10:38:07.012Z</time></trkpt><trkpt lat="43.7584177" lon="11.3940541"><ele>421.0</ele><time>2026-05-03T10:38:08.012Z</time></trkpt><trkpt lat="43.7583264" lon="11.3939067"><ele>421.0</ele><time>2026-05-03T10:38:10.011Z</time></trkpt><trkpt lat="43.7582577" lon="11.3938474"><ele>421.0</ele><time>2026-05-03T10:38:11.011Z</time></trkpt><trkpt lat="43.7581883" lon="11.3937361"><ele>421.0</ele><time>2026-05-03T10:38:12.011Z</time></trkpt><trkpt lat="43.7581171" lon="11.3936348"><ele>421.0</ele><time>2026-05-03T10:38:13.01Z</time></trkpt><trkpt lat="43.7580511" lon="11.393511"><ele>421.0</ele><time>2026-05-03T10:38:14.012Z</time></trkpt><trkpt lat="43.7579878" lon="11.3933869"><ele>420.1666666666667</ele><time>2026-05-03T10:38:15.011Z</time></trkpt><trkpt lat="43.7579362" lon="11.3932734"><ele>419.33333333333337</ele><time>2026-05-03T10:38:16.012Z</time></trkpt><trkpt lat="43.757901" lon="11.3931939"><ele>418.5</ele><time>2026-05-03T10:38:17.012Z</time></trkpt><trkpt lat="43.75786" lon="11.3930838"><ele>417.66666666666663</ele><time>2026-05-03T10:38:18.011Z</time></trkpt><trkpt lat="43.7578297" lon="11.3929883"><ele>416.8333333333333</ele><time>2026-05-03T10:38:19.011Z</time></trkpt><trkpt lat="43.7578016" lon="11.3928824"><ele>416.0</ele><time>2026-05-03T10:38:20.011Z</time></trkpt><trkpt lat="43.7577826" lon="11.392781"><ele>414.99999999999994</ele><time>2026-05-03T10:38:21.011Z</time></trkpt><trkpt lat="43.7577894" lon="11.3926576"><ele>414.0</ele><time>2026-05-03T10:38:22.011Z</time></trkpt><trkpt lat="43.7578405" lon="11.3925537"><ele>413.0</ele><time>2026-05-03T10:38:23.012Z</time></trkpt><trkpt lat="43.7578894" lon="11.3924797"><ele>412.0</ele><time>2026-05-03T10:38:24.012Z</time></trkpt><trkpt lat="43.7579387" lon="11.3924053"><ele>410.99999999999994</ele><time>2026-05-03T10:38:25.012Z</time></trkpt><trkpt lat="43.757978" lon="11.3923261"><ele>410.0</ele><time>2026-05-03T10:38:26.011Z</time></trkpt><trkpt lat="43.7579861" lon="11.392203"><ele>409.49999999999994</ele><time>2026-05-03T10:38:27.012Z</time></trkpt><trkpt lat="43.7579913" lon="11.3920996"><ele>409.0</ele><time>2026-05-03T10:38:28.012Z</time></trkpt><trkpt lat="43.7580084" lon="11.391977"><ele>408.5</ele><time>2026-05-03T10:38:29.011Z</time></trkpt><trkpt lat="43.7580267" lon="11.3918638"><ele>408.0</ele><time>2026-05-03T10:38:30.011Z</time></trkpt><trkpt lat="43.7580395" lon="11.3917395"><ele>407.49999999999994</ele><time>2026-05-03T10:38:31.011Z</time></trkpt><trkpt lat="43.7580484" lon="11.3916154"><ele>407.0</ele><time>2026-05-03T10:38:32.012Z</time></trkpt><trkpt lat="43.7580529" lon="11.3914958"><ele>407.0</ele><time>2026-05-03T10:38:33.012Z</time></trkpt><trkpt lat="43.7580437" lon="11.391376"><ele>407.0</ele><time>2026-05-03T10:38:34.012Z</time></trkpt><trkpt lat="43.7580147" lon="11.3912583"><ele>407.0</ele><time>2026-05-03T10:38:35.011Z</time></trkpt><trkpt lat="43.7579732" lon="11.3911382"><ele>407.0</ele><time>2026-05-03T10:38:36.011Z</time></trkpt><trkpt lat="43.7579248" lon="11.3910197"><ele>407.0</ele><time>2026-05-03T10:38:37.012Z</time></trkpt><trkpt lat="43.7578766" lon="11.3908946"><ele>407.40000000000003</ele><time>2026-05-03T10:38:38.012Z</time></trkpt><trkpt lat="43.7578207" lon="11.3907661"><ele>407.8</ele><time>2026-05-03T10:38:39.012Z</time></trkpt><trkpt lat="43.7577664" lon="11.3906372"><ele>408.2</ele><time>2026-05-03T10:38:40.01Z</time></trkpt><trkpt lat="43.7577123" lon="11.3905015"><ele>408.6</ele><time>2026-05-03T10:38:41.011Z</time></trkpt><trkpt lat="43.7576808" lon="11.3903465"><ele>409.0</ele><time>2026-05-03T10:38:42.011Z</time></trkpt><trkpt lat="43.7576445" lon="11.3901946"><ele>409.0</ele><time>2026-05-03T10:38:43.012Z</time></trkpt><trkpt lat="43.7576094" lon="11.3900443"><ele>409.0</ele><time>2026-05-03T10:38:44.011Z</time></trkpt><trkpt lat="43.7575754" lon="11.3898891"><ele>409.0</ele><time>2026-05-03T10:38:45.011Z</time></trkpt><trkpt lat="43.7575413" lon="11.389723"><ele>409.0</ele><time>2026-05-03T10:38:46.011Z</time></trkpt><trkpt lat="43.7575051" lon="11.3895631"><ele>409.0</ele><time>2026-05-03T10:38:47.011Z</time></trkpt><trkpt lat="43.75747" lon="11.3894002"><ele>409.0</ele><time>2026-05-03T10:38:48.012Z</time></trkpt><trkpt lat="43.7574366" lon="11.3892376"><ele>409.0</ele><time>2026-05-03T10:38:49.011Z</time></trkpt><trkpt lat="43.7573998" lon="11.3890792"><ele>409.0</ele><time>2026-05-03T10:38:50.011Z</time></trkpt><trkpt lat="43.7573658" lon="11.3889224"><ele>409.0</ele><time>2026-05-03T10:38:51.012Z</time></trkpt><trkpt lat="43.7573304" lon="11.3887572"><ele>409.0</ele><time>2026-05-03T10:38:52.012Z</time></trkpt><trkpt lat="43.7572946" lon="11.3885957"><ele>409.0</ele><time>2026-05-03T10:38:53.012Z</time></trkpt><trkpt lat="43.7572581" lon="11.3884329"><ele>409.0</ele><time>2026-05-03T10:38:54.011Z</time></trkpt><trkpt lat="43.7572234" lon="11.3882783"><ele>409.0</ele><time>2026-05-03T10:38:55.01Z</time></trkpt><trkpt lat="43.7571876" lon="11.3881292"><ele>409.0</ele><time>2026-05-03T10:38:56.01Z</time></trkpt><trkpt lat="43.7571619" lon="11.3879821"><ele>409.0</ele><time>2026-05-03T10:38:57.011Z</time></trkpt><trkpt lat="43.7571289" lon="11.3878384"><ele>409.0</ele><time>2026-05-03T10:38:58.012Z</time></trkpt><trkpt lat="43.7570995" lon="11.3877019"><ele>409.0</ele><time>2026-05-03T10:38:59.012Z</time></trkpt><trkpt lat="43.7570727" lon="11.3875921"><ele>408.1666666666667</ele><time>2026-05-03T10:39:00.011Z</time></trkpt><trkpt lat="43.7570607" lon="11.3874863"><ele>407.33333333333337</ele><time>2026-05-03T10:39:01.01Z</time></trkpt><trkpt lat="43.757065" lon="11.3873963"><ele>406.5</ele><time>2026-05-03T10:39:02.011Z</time></trkpt><trkpt lat="43.7570884" lon="11.3872651"><ele>405.66666666666663</ele><time>2026-05-03T10:39:04.012Z</time></trkpt><trkpt lat="43.757094" lon="11.3871772"><ele>404.8333333333333</ele><time>2026-05-03T10:40:35.011Z</time></trkpt><trkpt lat="43.7571284" lon="11.3870722"><ele>404.0</ele><time>2026-05-03T10:40:38.011Z</time></trkpt><trkpt lat="43.7572064" lon="11.3869461"><ele>403.6</ele><time>2026-05-03T10:40:40.012Z</time></trkpt><trkpt lat="43.7572587" lon="11.3867717"><ele>403.2</ele><time>2026-05-03T10:40:42.011Z</time></trkpt><trkpt lat="43.7572935" lon="11.3866501"><ele>402.8</ele><time>2026-05-03T10:40:43.012Z</time></trkpt><trkpt lat="43.75729" lon="11.3865111"><ele>402.40000000000003</ele><time>2026-05-03T10:40:44.011Z</time></trkpt><trkpt lat="43.7572908" lon="11.3863736"><ele>402.0</ele><time>2026-05-03T10:40:45.011Z</time></trkpt><trkpt lat="43.7572788" lon="11.3862259"><ele>402.0</ele><time>2026-05-03T10:40:46.012Z</time></trkpt><trkpt lat="43.7572731" lon="11.3860759"><ele>402.0</ele><time>2026-05-03T10:40:47.011Z</time></trkpt><trkpt lat="43.7573015" lon="11.3858975"><ele>402.0</ele><time>2026-05-03T10:40:48.012Z</time></trkpt><trkpt lat="43.7573218" lon="11.3857334"><ele>402.0</ele><time>2026-05-03T10:40:49.011Z</time></trkpt><trkpt lat="43.7573434" lon="11.3855763"><ele>401.75</ele><time>2026-05-03T10:40:50.01Z</time></trkpt><trkpt lat="43.7573613" lon="11.3854173"><ele>401.5</ele><time>2026-05-03T10:40:51.012Z</time></trkpt><trkpt lat="43.7573665" lon="11.3852515"><ele>401.25</ele><time>2026-05-03T10:40:52.012Z</time></trkpt><trkpt lat="43.7573632" lon="11.3850881"><ele>401.0</ele><time>2026-05-03T10:40:53.011Z</time></trkpt><trkpt lat="43.7573366" lon="11.384941"><ele>401.0</ele><time>2026-05-03T10:40:54.01Z</time></trkpt><trkpt lat="43.7573141" lon="11.3848041"><ele>401.0</ele><time>2026-05-03T10:40:55.011Z</time></trkpt><trkpt lat="43.757305" lon="11.3846716"><ele>401.0</ele><time>2026-05-03T10:40:56.011Z</time></trkpt><trkpt lat="43.7573155" lon="11.3845447"><ele>401.0</ele><time>2026-05-03T10:40:57.012Z</time></trkpt><trkpt lat="43.7573264" lon="11.3844242"><ele>401.0</ele><time>2026-05-03T10:40:58.012Z</time></trkpt><trkpt lat="43.7573886" lon="11.3842652"><ele>401.0</ele><time>2026-05-03T10:40:59.012Z</time></trkpt><trkpt lat="43.7574096" lon="11.3841224"><ele>401.0</ele><time>2026-05-03T10:41:00.012Z</time></trkpt><trkpt lat="43.7574343" lon="11.3839472"><ele>401.0</ele><time>2026-05-03T10:41:01.011Z</time></trkpt><trkpt lat="43.7574853" lon="11.3837939"><ele>401.0</ele><time>2026-05-03T10:41:02.011Z</time></trkpt><trkpt lat="43.7575204" lon="11.3836398"><ele>401.0</ele><time>2026-05-03T10:41:03.011Z</time></trkpt><trkpt lat="43.7575505" lon="11.3834836"><ele>401.0</ele><time>2026-05-03T10:41:04.011Z</time></trkpt><trkpt lat="43.7575716" lon="11.3833246"><ele>401.0</ele><time>2026-05-03T10:41:05.012Z</time></trkpt><trkpt lat="43.7576094" lon="11.383173"><ele>401.0</ele><time>2026-05-03T10:41:06.011Z</time></trkpt><trkpt lat="43.7576658" lon="11.3830392"><ele>397.6</ele><time>2026-05-03T10:41:07.012Z</time></trkpt><trkpt lat="43.7577464" lon="11.3829289"><ele>394.20000000000005</ele><time>2026-05-03T10:41:08.012Z</time></trkpt><trkpt lat="43.7578246" lon="11.3828357"><ele>390.79999999999995</ele><time>2026-05-03T10:41:09.012Z</time></trkpt><trkpt lat="43.7579072" lon="11.3827189"><ele>387.4</ele><time>2026-05-03T10:41:10.011Z</time></trkpt><trkpt lat="43.7579414" lon="11.3825777"><ele>384.0</ele><time>2026-05-03T10:41:11.012Z</time></trkpt><trkpt lat="43.7579992" lon="11.3824545"><ele>384.0</ele><time>2026-05-03T10:41:12.012Z</time></trkpt><trkpt lat="43.7580497" lon="11.3823244"><ele>384.0</ele><time>2026-05-03T10:41:13.012Z</time></trkpt><trkpt lat="43.7580445" lon="11.382198"><ele>384.0</ele><time>2026-05-03T10:41:14.012Z</time></trkpt><trkpt lat="43.7580762" lon="11.3820701"><ele>384.0</ele><time>2026-05-03T10:41:15.012Z</time></trkpt><trkpt lat="43.7581101" lon="11.3819485"><ele>384.0</ele><time>2026-05-03T10:41:16.012Z</time></trkpt><trkpt lat="43.7581402" lon="11.3818468"><ele>384.6</ele><time>2026-05-03T10:41:17.011Z</time></trkpt><trkpt lat="43.7581641" lon="11.3817473"><ele>385.2</ele><time>2026-05-03T10:41:18.011Z</time></trkpt><trkpt lat="43.7581775" lon="11.3816616"><ele>385.8</ele><time>2026-05-03T10:41:19.012Z</time></trkpt><trkpt lat="43.7581786" lon="11.3815202"><ele>386.40000000000003</ele><time>2026-05-03T10:41:21.012Z</time></trkpt><trkpt lat="43.7580972" lon="11.381394"><ele>387.0</ele><time>2026-05-03T10:41:23.011Z</time></trkpt><trkpt lat="43.7580364" lon="11.3812411"><ele>387.5</ele><time>2026-05-03T10:41:25.01Z</time></trkpt><trkpt lat="43.7580677" lon="11.381072"><ele>388.0</ele><time>2026-05-03T10:41:27.012Z</time></trkpt><trkpt lat="43.7580533" lon="11.3808532"><ele>388.5</ele><time>2026-05-03T10:41:29.012Z</time></trkpt><trkpt lat="43.758044" lon="11.3807541"><ele>389.0</ele><time>2026-05-03T10:41:30.011Z</time></trkpt><trkpt lat="43.7580322" lon="11.3805731"><ele>388.49999999999994</ele><time>2026-05-03T10:41:32.012Z</time></trkpt><trkpt lat="43.758022" lon="11.3804774"><ele>388.0</ele><time>2026-05-03T10:41:33.011Z</time></trkpt><trkpt lat="43.7579637" lon="11.3804037"><ele>387.5</ele><time>2026-05-03T10:41:34.012Z</time></trkpt><trkpt lat="43.7579199" lon="11.3803151"><ele>387.0</ele><time>2026-05-03T10:41:35.012Z</time></trkpt><trkpt lat="43.7578429" lon="11.3802459"><ele>386.49999999999994</ele><time>2026-05-03T10:41:36.012Z</time></trkpt><trkpt lat="43.7577803" lon="11.3801761"><ele>386.0</ele><time>2026-05-03T10:41:37.011Z</time></trkpt><trkpt lat="43.7577168" lon="11.3801069"><ele>392.20000000000005</ele><time>2026-05-03T10:41:38.012Z</time></trkpt><trkpt lat="43.7576402" lon="11.3800461"><ele>398.40000000000003</ele><time>2026-05-03T10:41:39.012Z</time></trkpt><trkpt lat="43.7575613" lon="11.3799754"><ele>404.6</ele><time>2026-05-03T10:41:40.011Z</time></trkpt><trkpt lat="43.7574922" lon="11.3798889"><ele>410.8</ele><time>2026-05-03T10:41:41.012Z</time></trkpt><trkpt lat="43.7574318" lon="11.3798205"><ele>417.0</ele><time>2026-05-03T10:41:42.012Z</time></trkpt><trkpt lat="43.7573236" lon="11.3797739"><ele>417.0</ele><time>2026-05-03T10:41:43.011Z</time></trkpt><trkpt lat="43.7572649" lon="11.3796909"><ele>417.0</ele><time>2026-05-03T10:41:44.012Z</time></trkpt><trkpt lat="43.7571986" lon="11.3796128"><ele>417.0</ele><time>2026-05-03T10:41:45.011Z</time></trkpt><trkpt lat="43.7571267" lon="11.3795304"><ele>417.0</ele><time>2026-05-03T10:41:46.01Z</time></trkpt><trkpt lat="43.7570984" lon="11.3794492"><ele>417.0</ele><time>2026-05-03T10:41:47.01Z</time></trkpt><trkpt lat="43.7570579" lon="11.3793268"><ele>417.0</ele><time>2026-05-03T10:41:48.011Z</time></trkpt><trkpt lat="43.7570133" lon="11.3792066"><ele>415.2857142857143</ele><time>2026-05-03T10:41:49.012Z</time></trkpt><trkpt lat="43.7569663" lon="11.3790943"><ele>413.57142857142856</ele><time>2026-05-03T10:41:50.012Z</time></trkpt><trkpt lat="43.7569313" lon="11.3790063"><ele>411.85714285714283</ele><time>2026-05-03T10:41:51.012Z</time></trkpt><trkpt lat="43.7569153" lon="11.3789154"><ele>410.1428571428571</ele><time>2026-05-03T10:41:52.012Z</time></trkpt><trkpt lat="43.7569006" lon="11.3788282"><ele>408.42857142857144</ele><time>2026-05-03T10:41:53.012Z</time></trkpt><trkpt lat="43.7569012" lon="11.3787327"><ele>406.71428571428567</ele><time>2026-05-03T10:41:54.01Z</time></trkpt><trkpt lat="43.7568956" lon="11.3786353"><ele>405.0</ele><time>2026-05-03T10:41:55.011Z</time></trkpt><trkpt lat="43.7568705" lon="11.3785453"><ele>409.6666666666667</ele><time>2026-05-03T10:41:56.012Z</time></trkpt><trkpt lat="43.756833" lon="11.3784618"><ele>414.33333333333337</ele><time>2026-05-03T10:41:57.011Z</time></trkpt><trkpt lat="43.7567881" lon="11.3783834"><ele>419.0</ele><time>2026-05-03T10:41:58.012Z</time></trkpt><trkpt lat="43.7567402" lon="11.3783265"><ele>423.6666666666667</ele><time>2026-05-03T10:41:59.011Z</time></trkpt><trkpt lat="43.7566556" lon="11.3782034"><ele>428.33333333333337</ele><time>2026-05-03T10:42:01.012Z</time></trkpt><trkpt lat="43.7566189" lon="11.3781099"><ele>433.0</ele><time>2026-05-03T10:42:02.012Z</time></trkpt><trkpt lat="43.7565691" lon="11.3780207"><ele>432.33333333333337</ele><time>2026-05-03T10:42:03.012Z</time></trkpt><trkpt lat="43.7564965" lon="11.3779483"><ele>431.6666666666667</ele><time>2026-05-03T10:42:04.012Z</time></trkpt><trkpt lat="43.7564195" lon="11.3778881"><ele>431.0</ele><time>2026-05-03T10:42:05.011Z</time></trkpt><trkpt lat="43.7563566" lon="11.3778296"><ele>430.33333333333337</ele><time>2026-05-03T10:42:06.012Z</time></trkpt><trkpt lat="43.7563065" lon="11.3777481"><ele>429.6666666666667</ele><time>2026-05-03T10:42:07.012Z</time></trkpt><trkpt lat="43.7562614" lon="11.3776423"><ele>429.0</ele><time>2026-05-03T10:42:08.012Z</time></trkpt><trkpt lat="43.7562223" lon="11.3775354"><ele>429.0</ele><time>2026-05-03T10:42:09.012Z</time></trkpt><trkpt lat="43.756189" lon="11.3773756"><ele>429.0</ele><time>2026-05-03T10:42:10.011Z</time></trkpt><trkpt lat="43.7561571" lon="11.3772259"><ele>429.0</ele><time>2026-05-03T10:42:11.012Z</time></trkpt><trkpt lat="43.7561422" lon="11.3770887"><ele>429.0</ele><time>2026-05-03T10:42:12.011Z</time></trkpt><trkpt lat="43.7561258" lon="11.3769615"><ele>429.0</ele><time>2026-05-03T10:42:13.012Z</time></trkpt><trkpt lat="43.7561423" lon="11.3768304"><ele>428.79999999999995</ele><time>2026-05-03T10:42:14.012Z</time></trkpt><trkpt lat="43.7561634" lon="11.376687"><ele>428.59999999999997</ele><time>2026-05-03T10:42:15.011Z</time></trkpt><trkpt lat="43.7561748" lon="11.3765322"><ele>428.4</ele><time>2026-05-03T10:42:16.012Z</time></trkpt><trkpt lat="43.7561851" lon="11.3763875"><ele>428.2</ele><time>2026-05-03T10:42:17.011Z</time></trkpt><trkpt lat="43.756207" lon="11.3762532"><ele>428.0</ele><time>2026-05-03T10:42:18.011Z</time></trkpt><trkpt lat="43.7562473" lon="11.3761214"><ele>428.0</ele><time>2026-05-03T10:42:19.01Z</time></trkpt><trkpt lat="43.7562836" lon="11.3759951"><ele>427.99999999999994</ele><time>2026-05-03T10:42:20.01Z</time></trkpt><trkpt lat="43.7563292" lon="11.3758645"><ele>427.99999999999994</ele><time>2026-05-03T10:42:21.012Z</time></trkpt><trkpt lat="43.7563906" lon="11.3757214"><ele>428.0</ele><time>2026-05-03T10:42:22.011Z</time></trkpt><trkpt lat="43.7564383" lon="11.3755714"><ele>428.0</ele><time>2026-05-03T10:42:23.011Z</time></trkpt><trkpt lat="43.7564708" lon="11.3754224"><ele>428.75</ele><time>2026-05-03T10:42:24.012Z</time></trkpt><trkpt lat="43.7564829" lon="11.3752581"><ele>429.5</ele><time>2026-05-03T10:42:25.012Z</time></trkpt><trkpt lat="43.7564971" lon="11.3750961"><ele>430.25</ele><time>2026-05-03T10:42:26.012Z</time></trkpt><trkpt lat="43.75653" lon="11.3749406"><ele>431.0</ele><time>2026-05-03T10:42:27.012Z</time></trkpt><trkpt lat="43.7565711" lon="11.3747798"><ele>431.20000000000005</ele><time>2026-05-03T10:42:28.011Z</time></trkpt><trkpt lat="43.7566016" lon="11.3746267"><ele>431.40000000000003</ele><time>2026-05-03T10:42:29.011Z</time></trkpt><trkpt lat="43.7566262" lon="11.3744714"><ele>431.6</ele><time>2026-05-03T10:42:30.011Z</time></trkpt><trkpt lat="43.7566306" lon="11.3743277"><ele>431.8</ele><time>2026-05-03T10:42:31.012Z</time></trkpt><trkpt lat="43.7566366" lon="11.3742046"><ele>432.0</ele><time>2026-05-03T10:42:32.012Z</time></trkpt><trkpt lat="43.7566519" lon="11.3740844"><ele>432.0</ele><time>2026-05-03T10:42:33.011Z</time></trkpt><trkpt lat="43.7566733" lon="11.3739542"><ele>432.00000000000006</ele><time>2026-05-03T10:42:34.012Z</time></trkpt><trkpt lat="43.7566808" lon="11.3738076"><ele>432.00000000000006</ele><time>2026-05-03T10:42:35.012Z</time></trkpt><trkpt lat="43.756684" lon="11.3736378"><ele>432.0</ele><time>2026-05-03T10:42:36.012Z</time></trkpt><trkpt lat="43.7567007" lon="11.3734806"><ele>432.0</ele><time>2026-05-03T10:42:37.012Z</time></trkpt><trkpt lat="43.7567186" lon="11.3733526"><ele>431.6666666666667</ele><time>2026-05-03T10:42:38.011Z</time></trkpt><trkpt lat="43.7567157" lon="11.3732279"><ele>431.33333333333337</ele><time>2026-05-03T10:42:39.011Z</time></trkpt><trkpt lat="43.7567011" lon="11.3731006"><ele>431.0</ele><time>2026-05-03T10:42:40.011Z</time></trkpt><trkpt lat="43.7566834" lon="11.3729809"><ele>430.6666666666667</ele><time>2026-05-03T10:42:41.011Z</time></trkpt><trkpt lat="43.7566816" lon="11.3728712"><ele>430.33333333333337</ele><time>2026-05-03T10:42:42.012Z</time></trkpt><trkpt lat="43.7566951" lon="11.3727545"><ele>430.0</ele><time>2026-05-03T10:42:43.012Z</time></trkpt><trkpt lat="43.7567096" lon="11.3726319"><ele>431.0</ele><time>2026-05-03T10:42:44.012Z</time></trkpt><trkpt lat="43.7567175" lon="11.3724848"><ele>432.0</ele><time>2026-05-03T10:42:45.012Z</time></trkpt><trkpt lat="43.7567221" lon="11.3723109"><ele>433.0</ele><time>2026-05-03T10:42:46.012Z</time></trkpt><trkpt lat="43.7567355" lon="11.3721444"><ele>434.0</ele><time>2026-05-03T10:42:47.012Z</time></trkpt><trkpt lat="43.756751" lon="11.3719949"><ele>435.4</ele><time>2026-05-03T10:42:48.011Z</time></trkpt><trkpt lat="43.7567642" lon="11.3718389"><ele>436.79999999999995</ele><time>2026-05-03T10:42:49.012Z</time></trkpt><trkpt lat="43.7567711" lon="11.3716858"><ele>438.20000000000005</ele><time>2026-05-03T10:42:50.012Z</time></trkpt><trkpt lat="43.7567697" lon="11.3715446"><ele>439.6</ele><time>2026-05-03T10:42:51.012Z</time></trkpt><trkpt lat="43.7567569" lon="11.3714165"><ele>441.0</ele><time>2026-05-03T10:42:52.011Z</time></trkpt><trkpt lat="43.7567445" lon="11.371298"><ele>440.8333333333333</ele><time>2026-05-03T10:42:53.012Z</time></trkpt><trkpt lat="43.7567565" lon="11.3711871"><ele>440.66666666666663</ele><time>2026-05-03T10:42:54.012Z</time></trkpt><trkpt lat="43.7567874" lon="11.3710656"><ele>440.5</ele><time>2026-05-03T10:42:55.011Z</time></trkpt><trkpt lat="43.7568073" lon="11.3709571"><ele>440.3333333333333</ele><time>2026-05-03T10:42:56.012Z</time></trkpt><trkpt lat="43.756841" lon="11.3708461"><ele>440.16666666666663</ele><time>2026-05-03T10:42:57.01Z</time></trkpt><trkpt lat="43.7568808" lon="11.370735"><ele>440.0</ele><time>2026-05-03T10:42:58.011Z</time></trkpt><trkpt lat="43.7569103" lon="11.3706245"><ele>438.8</ele><time>2026-05-03T10:42:59.012Z</time></trkpt><trkpt lat="43.7569404" lon="11.3705107"><ele>437.6</ele><time>2026-05-03T10:43:00.011Z</time></trkpt><trkpt lat="43.7569381" lon="11.370384"><ele>436.4</ele><time>2026-05-03T10:43:01.011Z</time></trkpt><trkpt lat="43.7569289" lon="11.3702734"><ele>435.2</ele><time>2026-05-03T10:43:02.01Z</time></trkpt><trkpt lat="43.7569207" lon="11.3701492"><ele>434.0</ele><time>2026-05-03T10:43:03.012Z</time></trkpt><trkpt lat="43.7568974" lon="11.3700135"><ele>435.25</ele><time>2026-05-03T10:43:04.012Z</time></trkpt><trkpt lat="43.7568555" lon="11.3698656"><ele>436.5</ele><time>2026-05-03T10:43:05.012Z</time></trkpt><trkpt lat="43.756815" lon="11.3697259"><ele>437.75</ele><time>2026-05-03T10:43:06.012Z</time></trkpt><trkpt lat="43.7567619" lon="11.3695815"><ele>439.0</ele><time>2026-05-03T10:43:07.011Z</time></trkpt><trkpt lat="43.7567093" lon="11.3694322"><ele>439.0</ele><time>2026-05-03T10:43:08.012Z</time></trkpt><trkpt lat="43.7566651" lon="11.3692813"><ele>439.0</ele><time>2026-05-03T10:43:09.012Z</time></trkpt><trkpt lat="43.7566189" lon="11.3691256"><ele>439.0</ele><time>2026-05-03T10:43:10.011Z</time></trkpt><trkpt lat="43.7565864" lon="11.3689889"><ele>439.0</ele><time>2026-05-03T10:43:11.012Z</time></trkpt><trkpt lat="43.7565615" lon="11.3688714"><ele>439.0</ele><time>2026-05-03T10:43:12.012Z</time></trkpt><trkpt lat="43.7565641" lon="11.3687779"><ele>437.6</ele><time>2026-05-03T10:43:13.012Z</time></trkpt><trkpt lat="43.7565702" lon="11.3686858"><ele>436.2</ele><time>2026-05-03T10:43:14.012Z</time></trkpt><trkpt lat="43.7565067" lon="11.3684851"><ele>434.80000000000007</ele><time>2026-05-03T10:43:16.011Z</time></trkpt><trkpt lat="43.7564881" lon="11.3683653"><ele>433.40000000000003</ele><time>2026-05-03T10:43:17.012Z</time></trkpt><trkpt lat="43.7564766" lon="11.3682486"><ele>432.0</ele><time>2026-05-03T10:43:18.012Z</time></trkpt><trkpt lat="43.7564682" lon="11.3681276"><ele>429.6</ele><time>2026-05-03T10:43:19.012Z</time></trkpt><trkpt lat="43.7564596" lon="11.3679915"><ele>427.20000000000005</ele><time>2026-05-03T10:43:20.012Z</time></trkpt><trkpt lat="43.7564449" lon="11.3678736"><ele>424.8</ele><time>2026-05-03T10:43:21.012Z</time></trkpt><trkpt lat="43.7564326" lon="11.3677361"><ele>422.4</ele><time>2026-05-03T10:43:22.012Z</time></trkpt><trkpt lat="43.7564132" lon="11.3676066"><ele>420.0</ele><time>2026-05-03T10:43:23.012Z</time></trkpt><trkpt lat="43.7563955" lon="11.3674711"><ele>420.0</ele><time>2026-05-03T10:43:24.012Z</time></trkpt><trkpt lat="43.7563834" lon="11.367333"><ele>420.0</ele><time>2026-05-03T10:43:25.011Z</time></trkpt><trkpt lat="43.7563833" lon="11.3671846"><ele>420.0</ele><time>2026-05-03T10:43:26.011Z</time></trkpt><trkpt lat="43.7563986" lon="11.3670247"><ele>420.0</ele><time>2026-05-03T10:43:27.012Z</time></trkpt><trkpt lat="43.7564089" lon="11.3668809"><ele>420.0</ele><time>2026-05-03T10:43:28.012Z</time></trkpt><trkpt lat="43.7564055" lon="11.3667309"><ele>417.8</ele><time>2026-05-03T10:43:29.012Z</time></trkpt><trkpt lat="43.7563831" lon="11.3666007"><ele>415.6</ele><time>2026-05-03T10:43:30.012Z</time></trkpt><trkpt lat="43.7563778" lon="11.3664614"><ele>413.4</ele><time>2026-05-03T10:43:31.012Z</time></trkpt><trkpt lat="43.7564065" lon="11.3663531"><ele>411.2</ele><time>2026-05-03T10:43:32.012Z</time></trkpt><trkpt lat="43.7564372" lon="11.3662218"><ele>409.0</ele><time>2026-05-03T10:43:33.012Z</time></trkpt><trkpt lat="43.7564695" lon="11.3660752"><ele>408.6</ele><time>2026-05-03T10:43:34.011Z</time></trkpt><trkpt lat="43.7564964" lon="11.3659521"><ele>408.2</ele><time>2026-05-03T10:43:35.012Z</time></trkpt><trkpt lat="43.7565296" lon="11.3658135"><ele>407.8</ele><time>2026-05-03T10:43:36.011Z</time></trkpt><trkpt lat="43.756537" lon="11.3656632"><ele>407.40000000000003</ele><time>2026-05-03T10:43:37.011Z</time></trkpt><trkpt lat="43.7565127" lon="11.3655059"><ele>407.0</ele><time>2026-05-03T10:43:38.012Z</time></trkpt><trkpt lat="43.7564663" lon="11.3653879"><ele>406.99999999999994</ele><time>2026-05-03T10:43:39.011Z</time></trkpt><trkpt lat="43.7564449" lon="11.3652761"><ele>407.0</ele><time>2026-05-03T10:43:40.011Z</time></trkpt><trkpt lat="43.7564108" lon="11.3651799"><ele>407.0</ele><time>2026-05-03T10:43:41.011Z</time></trkpt><trkpt lat="43.7563847" lon="11.3650835"><ele>407.0</ele><time>2026-05-03T10:43:42.011Z</time></trkpt><trkpt lat="43.7563472" lon="11.3649588"><ele>406.99999999999994</ele><time>2026-05-03T10:43:43.011Z</time></trkpt><trkpt lat="43.7563166" lon="11.364846"><ele>407.0</ele><time>2026-05-03T10:43:44.012Z</time></trkpt><trkpt lat="43.7563244" lon="11.3647295"><ele>406.8333333333333</ele><time>2026-05-03T10:43:45.011Z</time></trkpt><trkpt lat="43.756348" lon="11.3646125"><ele>406.66666666666663</ele><time>2026-05-03T10:43:46.012Z</time></trkpt><trkpt lat="43.7563571" lon="11.3644969"><ele>406.5</ele><time>2026-05-03T10:43:47.011Z</time></trkpt><trkpt lat="43.7563414" lon="11.3643504"><ele>406.33333333333337</ele><time>2026-05-03T10:43:49.012Z</time></trkpt><trkpt lat="43.756287" lon="11.3642821"><ele>406.1666666666667</ele><time>2026-05-03T10:43:54.011Z</time></trkpt><trkpt lat="43.7562529" lon="11.3641948"><ele>406.0</ele><time>2026-05-03T10:43:56.011Z</time></trkpt><trkpt lat="43.7561798" lon="11.3641179"><ele>406.0</ele><time>2026-05-03T10:43:58.01Z</time></trkpt><trkpt lat="43.75612" lon="11.3640215"><ele>406.0</ele><time>2026-05-03T10:44:00.011Z</time></trkpt><trkpt lat="43.7560885" lon="11.3638708"><ele>406.0</ele><time>2026-05-03T10:44:02.011Z</time></trkpt><trkpt lat="43.7560495" lon="11.363737"><ele>406.0</ele><time>2026-05-03T10:44:04.011Z</time></trkpt><trkpt lat="43.7560152" lon="11.3635868"><ele>406.0</ele><time>2026-05-03T10:44:06.012Z</time></trkpt><trkpt lat="43.7559783" lon="11.3634945"><ele>405.33333333333337</ele><time>2026-05-03T10:44:07.011Z</time></trkpt><trkpt lat="43.7559527" lon="11.3634108"><ele>404.6666666666667</ele><time>2026-05-03T10:44:08.012Z</time></trkpt><trkpt lat="43.7559425" lon="11.3633079"><ele>404.0</ele><time>2026-05-03T10:44:09.012Z</time></trkpt><trkpt lat="43.7559197" lon="11.3631804"><ele>403.33333333333337</ele><time>2026-05-03T10:44:10.011Z</time></trkpt><trkpt lat="43.7558808" lon="11.3630742"><ele>402.6666666666667</ele><time>2026-05-03T10:44:11.012Z</time></trkpt><trkpt lat="43.7558509" lon="11.3629829"><ele>402.0</ele><time>2026-05-03T10:44:12.01Z</time></trkpt><trkpt lat="43.7558267" lon="11.3628839"><ele>402.0</ele><time>2026-05-03T10:44:13.012Z</time></trkpt><trkpt lat="43.7558096" lon="11.3627894"><ele>402.0</ele><time>2026-05-03T10:44:14.011Z</time></trkpt><trkpt lat="43.755775" lon="11.3626987"><ele>402.0</ele><time>2026-05-03T10:44:15.012Z</time></trkpt><trkpt lat="43.7557583" lon="11.3625606"><ele>402.0</ele><time>2026-05-03T10:44:17.012Z</time></trkpt><trkpt lat="43.7557053" lon="11.3624582"><ele>402.0</ele><time>2026-05-03T10:44:19.011Z</time></trkpt><trkpt lat="43.7556262" lon="11.3623184"><ele>402.0</ele><time>2026-05-03T10:44:21.011Z</time></trkpt><trkpt lat="43.7556032" lon="11.3622342"><ele>402.0</ele><time>2026-05-03T10:44:22.011Z</time></trkpt><trkpt lat="43.7555668" lon="11.3621386"><ele>402.0</ele><time>2026-05-03T10:44:23.012Z</time></trkpt><trkpt lat="43.755529" lon="11.3620564"><ele>402.0</ele><time>2026-05-03T10:44:24.011Z</time></trkpt><trkpt lat="43.7554955" lon="11.3619624"><ele>402.0</ele><time>2026-05-03T10:44:25.012Z</time></trkpt><trkpt lat="43.7554758" lon="11.3618119"><ele>402.0</ele><time>2026-05-03T10:44:27.012Z</time></trkpt><trkpt lat="43.7554718" lon="11.3617241"><ele>402.75</ele><time>2026-05-03T10:44:28.012Z</time></trkpt><trkpt lat="43.7554534" lon="11.3615513"><ele>403.5</ele><time>2026-05-03T10:44:30.012Z</time></trkpt><trkpt lat="43.7554504" lon="11.3613705"><ele>404.25</ele><time>2026-05-03T10:44:32.011Z</time></trkpt><trkpt lat="43.7554485" lon="11.3612172"><ele>405.0</ele><time>2026-05-03T10:44:34.011Z</time></trkpt><trkpt lat="43.7554201" lon="11.3610892"><ele>405.0</ele><time>2026-05-03T10:44:36.012Z</time></trkpt><trkpt lat="43.7553619" lon="11.3609588"><ele>405.0</ele><time>2026-05-03T10:44:38.012Z</time></trkpt><trkpt lat="43.7553936" lon="11.3608415"><ele>405.0</ele><time>2026-05-03T10:44:40.011Z</time></trkpt><trkpt lat="43.7554107" lon="11.3607206"><ele>405.0</ele><time>2026-05-03T10:44:42.012Z</time></trkpt><trkpt lat="43.7553749" lon="11.3605912"><ele>405.0</ele><time>2026-05-03T10:44:45.012Z</time></trkpt><trkpt lat="43.7553685" lon="11.3604681"><ele>405.0</ele><time>2026-05-03T10:44:47.012Z</time></trkpt><trkpt lat="43.7553671" lon="11.3603809"><ele>405.0</ele><time>2026-05-03T10:44:48.011Z</time></trkpt><trkpt lat="43.7553394" lon="11.3602309"><ele>405.0</ele><time>2026-05-03T10:44:50.012Z</time></trkpt><trkpt lat="43.7553286" lon="11.3600895"><ele>405.0</ele><time>2026-05-03T10:44:52.012Z</time></trkpt><trkpt lat="43.7553353" lon="11.3599607"><ele>405.0</ele><time>2026-05-03T10:44:54.011Z</time></trkpt><trkpt lat="43.7553024" lon="11.3598466"><ele>405.0</ele><time>2026-05-03T10:44:56.011Z</time></trkpt><trkpt lat="43.7552563" lon="11.3597566"><ele>405.0</ele><time>2026-05-03T10:44:58.012Z</time></trkpt><trkpt lat="43.7552224" lon="11.3596201"><ele>405.0</ele><time>2026-05-03T10:45:00.011Z</time></trkpt><trkpt lat="43.7552058" lon="11.3595281"><ele>405.0</ele><time>2026-05-03T10:45:01.011Z</time></trkpt><trkpt lat="43.7551819" lon="11.3594236"><ele>405.0</ele><time>2026-05-03T10:45:02.011Z</time></trkpt><trkpt lat="43.755163" lon="11.359329"><ele>405.0</ele><time>2026-05-03T10:45:03.012Z</time></trkpt><trkpt lat="43.7551449" lon="11.359236"><ele>399.1666666666667</ele><time>2026-05-03T10:45:04.011Z</time></trkpt><trkpt lat="43.7551171" lon="11.3591366"><ele>393.3333333333333</ele><time>2026-05-03T10:45:05.01Z</time></trkpt><trkpt lat="43.7550943" lon="11.3590456"><ele>387.5</ele><time>2026-05-03T10:45:06.012Z</time></trkpt><trkpt lat="43.7550685" lon="11.3589654"><ele>381.66666666666663</ele><time>2026-05-03T10:45:07.011Z</time></trkpt><trkpt lat="43.7550367" lon="11.3588737"><ele>375.8333333333333</ele><time>2026-05-03T10:45:08.012Z</time></trkpt><trkpt lat="43.7549899" lon="11.358729"><ele>370.0</ele><time>2026-05-03T10:45:10.012Z</time></trkpt><trkpt lat="43.7549495" lon="11.3585934"><ele>370.0</ele><time>2026-05-03T10:45:12.012Z</time></trkpt><trkpt lat="43.754919" lon="11.3584491"><ele>370.0</ele><time>2026-05-03T10:45:14.012Z</time></trkpt><trkpt lat="43.754902" lon="11.358288"><ele>370.0</ele><time>2026-05-03T10:45:16.011Z</time></trkpt><trkpt lat="43.7548844" lon="11.358202"><ele>370.0</ele><time>2026-05-03T10:45:17.012Z</time></trkpt><trkpt lat="43.7548814" lon="11.3581"><ele>370.0</ele><time>2026-05-03T10:45:18.012Z</time></trkpt><trkpt lat="43.7548899" lon="11.3579377"><ele>368.0</ele><time>2026-05-03T10:45:20.012Z</time></trkpt><trkpt lat="43.7549366" lon="11.3578025"><ele>366.0</ele><time>2026-05-03T10:45:22.011Z</time></trkpt><trkpt lat="43.7549852" lon="11.3576699"><ele>364.0</ele><time>2026-05-03T10:45:24.012Z</time></trkpt><trkpt lat="43.7549869" lon="11.3575595"><ele>362.0</ele><time>2026-05-03T10:45:26.012Z</time></trkpt><trkpt lat="43.7549867" lon="11.3574214"><ele>360.0</ele><time>2026-05-03T10:45:28.011Z</time></trkpt><trkpt lat="43.7550005" lon="11.3572783"><ele>359.1666666666667</ele><time>2026-05-03T10:45:30.012Z</time></trkpt><trkpt lat="43.7550087" lon="11.3571849"><ele>358.3333333333333</ele><time>2026-05-03T10:45:31.011Z</time></trkpt><trkpt lat="43.7549977" lon="11.3570469"><ele>357.5</ele><time>2026-05-03T10:45:33.01Z</time></trkpt><trkpt lat="43.7549712" lon="11.3569198"><ele>356.66666666666663</ele><time>2026-05-03T10:45:35.01Z</time></trkpt><trkpt lat="43.7549687" lon="11.3568273"><ele>355.8333333333333</ele><time>2026-05-03T10:45:36.011Z</time></trkpt><trkpt lat="43.7549757" lon="11.3566714"><ele>355.0</ele><time>2026-05-03T10:45:38.011Z</time></trkpt><trkpt lat="43.7549624" lon="11.3565379"><ele>355.0</ele><time>2026-05-03T10:45:40.012Z</time></trkpt><trkpt lat="43.7549595" lon="11.3564297"><ele>355.0</ele><time>2026-05-03T10:45:42.012Z</time></trkpt><trkpt lat="43.7549107" lon="11.3562941"><ele>355.0</ele><time>2026-05-03T10:45:44.012Z</time></trkpt><trkpt lat="43.7548988" lon="11.3561639"><ele>355.0</ele><time>2026-05-03T10:45:46.011Z</time></trkpt><trkpt lat="43.7548466" lon="11.3560193"><ele>355.0</ele><time>2026-05-03T10:45:48.012Z</time></trkpt><trkpt lat="43.7548131" lon="11.3559425"><ele>355.6</ele><time>2026-05-03T10:45:49.011Z</time></trkpt><trkpt lat="43.7547607" lon="11.3558017"><ele>356.2</ele><time>2026-05-03T10:45:51.012Z</time></trkpt><trkpt lat="43.7547104" lon="11.3556633"><ele>356.79999999999995</ele><time>2026-05-03T10:45:53.012Z</time></trkpt><trkpt lat="43.7546775" lon="11.3555862"><ele>357.4</ele><time>2026-05-03T10:45:54.012Z</time></trkpt><trkpt lat="43.7546331" lon="11.3554375"><ele>358.0</ele><time>2026-05-03T10:45:56.012Z</time></trkpt><trkpt lat="43.7545361" lon="11.3552914"><ele>359.5</ele><time>2026-05-03T10:45:58.011Z</time></trkpt><trkpt lat="43.754476" lon="11.3552175"><ele>361.0</ele><time>2026-05-03T10:45:59.012Z</time></trkpt><trkpt lat="43.7544204" lon="11.3551534"><ele>362.5</ele><time>2026-05-03T10:46:00.011Z</time></trkpt><trkpt lat="43.7543397" lon="11.355076"><ele>364.0</ele><time>2026-05-03T10:46:02.012Z</time></trkpt><trkpt lat="43.7542421" lon="11.3550278"><ele>365.5</ele><time>2026-05-03T10:46:04.012Z</time></trkpt><trkpt lat="43.7541848" lon="11.3549875"><ele>367.0</ele><time>2026-05-03T10:46:05.012Z</time></trkpt><trkpt lat="43.7541425" lon="11.3549174"><ele>361.8</ele><time>2026-05-03T10:46:07.011Z</time></trkpt><trkpt lat="43.7541137" lon="11.3548362"><ele>356.6</ele><time>2026-05-03T10:46:14.011Z</time></trkpt><trkpt lat="43.75408" lon="11.354741"><ele>351.40000000000003</ele><time>2026-05-03T10:46:19.012Z</time></trkpt><trkpt lat="43.7540358" lon="11.3546259"><ele>346.20000000000005</ele><time>2026-05-03T10:46:20.011Z</time></trkpt><trkpt lat="43.7539709" lon="11.354484"><ele>341.0</ele><time>2026-05-03T10:46:21.012Z</time></trkpt><trkpt lat="43.7539245" lon="11.354355"><ele>341.0</ele><time>2026-05-03T10:46:22.01Z</time></trkpt><trkpt lat="43.7538861" lon="11.3542603"><ele>341.0</ele><time>2026-05-03T10:46:23.012Z</time></trkpt><trkpt lat="43.7538353" lon="11.3541696"><ele>341.0</ele><time>2026-05-03T10:46:24.012Z</time></trkpt><trkpt lat="43.7537854" lon="11.3540759"><ele>341.0</ele><time>2026-05-03T10:46:25.011Z</time></trkpt><trkpt lat="43.7537396" lon="11.3539847"><ele>341.0</ele><time>2026-05-03T10:46:26.012Z</time></trkpt><trkpt lat="43.7536911" lon="11.3539134"><ele>341.0</ele><time>2026-05-03T10:46:27.012Z</time></trkpt><trkpt lat="43.7536502" lon="11.3538419"><ele>342.8</ele><time>2026-05-03T10:46:28.012Z</time></trkpt><trkpt lat="43.7535884" lon="11.3537039"><ele>344.6</ele><time>2026-05-03T10:46:30.011Z</time></trkpt><trkpt lat="43.7535056" lon="11.3535735"><ele>346.4</ele><time>2026-05-03T10:46:32.012Z</time></trkpt><trkpt lat="43.7534577" lon="11.3534874"><ele>348.2</ele><time>2026-05-03T10:46:33.012Z</time></trkpt><trkpt lat="43.753402" lon="11.3533952"><ele>350.0</ele><time>2026-05-03T10:46:34.011Z</time></trkpt><trkpt lat="43.7533663" lon="11.3533186"><ele>344.8</ele><time>2026-05-03T10:46:35.011Z</time></trkpt><trkpt lat="43.7533373" lon="11.3532402"><ele>339.6</ele><time>2026-05-03T10:46:36.012Z</time></trkpt><trkpt lat="43.7533016" lon="11.3531638"><ele>334.4</ele><time>2026-05-03T10:46:37.011Z</time></trkpt><trkpt lat="43.7532272" lon="11.3530183"><ele>329.2</ele><time>2026-05-03T10:46:39.012Z</time></trkpt><trkpt lat="43.7531429" lon="11.3528681"><ele>324.0</ele><time>2026-05-03T10:46:41.012Z</time></trkpt><trkpt lat="43.7530941" lon="11.3527774"><ele>324.0</ele><time>2026-05-03T10:46:42.011Z</time></trkpt><trkpt lat="43.7530511" lon="11.3526718"><ele>324.0</ele><time>2026-05-03T10:46:43.012Z</time></trkpt><trkpt lat="43.7529851" lon="11.3525093"><ele>324.0</ele><time>2026-05-03T10:46:44.012Z</time></trkpt><trkpt lat="43.7529367" lon="11.3523547"><ele>324.0</ele><time>2026-05-03T10:46:45.012Z</time></trkpt><trkpt lat="43.7529015" lon="11.352215"><ele>325.2</ele><time>2026-05-03T10:46:46.011Z</time></trkpt><trkpt lat="43.7528562" lon="11.3520899"><ele>326.4</ele><time>2026-05-03T10:46:47.011Z</time></trkpt><trkpt lat="43.7528187" lon="11.3519831"><ele>327.6</ele><time>2026-05-03T10:46:48.01Z</time></trkpt><trkpt lat="43.7527792" lon="11.3518661"><ele>328.8</ele><time>2026-05-03T10:46:49.012Z</time></trkpt><trkpt lat="43.7527259" lon="11.3517606"><ele>330.0</ele><time>2026-05-03T10:46:50.011Z</time></trkpt><trkpt lat="43.7526639" lon="11.3516804"><ele>325.3333333333333</ele><time>2026-05-03T10:46:51.012Z</time></trkpt><trkpt lat="43.7526064" lon="11.3515993"><ele>320.6666666666667</ele><time>2026-05-03T10:46:52.01Z</time></trkpt><trkpt lat="43.7525566" lon="11.3515099"><ele>316.0</ele><time>2026-05-03T10:46:53.01Z</time></trkpt><trkpt lat="43.7525096" lon="11.3514262"><ele>311.33333333333337</ele><time>2026-05-03T10:46:54.012Z</time></trkpt><trkpt lat="43.7524618" lon="11.3513301"><ele>306.6666666666667</ele><time>2026-05-03T10:46:55.011Z</time></trkpt><trkpt lat="43.7524256" lon="11.3512441"><ele>302.0</ele><time>2026-05-03T10:46:56.011Z</time></trkpt><trkpt lat="43.7523823" lon="11.3511535"><ele>302.0</ele><time>2026-05-03T10:46:57.011Z</time></trkpt><trkpt lat="43.7522858" lon="11.351083"><ele>302.0</ele><time>2026-05-03T10:46:59.012Z</time></trkpt><trkpt lat="43.7522276" lon="11.3509949"><ele>302.0</ele><time>2026-05-03T10:47:01.011Z</time></trkpt><trkpt lat="43.7522079" lon="11.3508677"><ele>302.0</ele><time>2026-05-03T10:47:03.011Z</time></trkpt><trkpt lat="43.7521976" lon="11.3507022"><ele>302.0</ele><time>2026-05-03T10:47:05.011Z</time></trkpt><trkpt lat="43.7521977" lon="11.3506089"><ele>299.5714285714286</ele><time>2026-05-03T10:47:06.011Z</time></trkpt><trkpt lat="43.7522022" lon="11.3505092"><ele>297.14285714285717</ele><time>2026-05-03T10:47:07.012Z</time></trkpt><trkpt lat="43.7522069" lon="11.3504131"><ele>294.7142857142857</ele><time>2026-05-03T10:47:08.012Z</time></trkpt><trkpt lat="43.7522046" lon="11.3503181"><ele>292.28571428571433</ele><time>2026-05-03T10:47:09.012Z</time></trkpt><trkpt lat="43.7522099" lon="11.3502177"><ele>289.8571428571429</ele><time>2026-05-03T10:47:10.012Z</time></trkpt><trkpt lat="43.7522154" lon="11.350126"><ele>287.42857142857144</ele><time>2026-05-03T10:47:11.011Z</time></trkpt><trkpt lat="43.7522186" lon="11.3500196"><ele>285.0</ele><time>2026-05-03T10:47:37.012Z</time></trkpt><trkpt lat="43.7522376" lon="11.3499344"><ele>285.0</ele><time>2026-05-03T10:47:46.011Z</time></trkpt><trkpt lat="43.752221" lon="11.3498378"><ele>285.0</ele><time>2026-05-03T10:47:50.012Z</time></trkpt><trkpt lat="43.7521677" lon="11.3497582"><ele>285.0</ele><time>2026-05-03T10:47:54.011Z</time></trkpt><trkpt lat="43.7521519" lon="11.3496599"><ele>285.0</ele><time>2026-05-03T10:47:57.012Z</time></trkpt><trkpt lat="43.752209" lon="11.3496158"><ele>285.0</ele><time>2026-05-03T10:47:59.012Z</time></trkpt><trkpt lat="43.752268" lon="11.349565"><ele>285.0</ele><time>2026-05-03T10:48:01.011Z</time></trkpt><trkpt lat="43.7523422" lon="11.3495095"><ele>285.0</ele><time>2026-05-03T10:48:05.011Z</time></trkpt><trkpt lat="43.7523643" lon="11.349393"><ele>281.8333333333333</ele><time>2026-05-03T10:48:08.012Z</time></trkpt><trkpt lat="43.7523087" lon="11.3493103"><ele>278.6666666666667</ele><time>2026-05-03T10:48:11.012Z</time></trkpt><trkpt lat="43.752245" lon="11.3493107"><ele>275.5</ele><time>2026-05-03T10:48:12.01Z</time></trkpt><trkpt lat="43.7521426" lon="11.3492985"><ele>272.33333333333337</ele><time>2026-05-03T10:48:14.011Z</time></trkpt><trkpt lat="43.7521724" lon="11.3491982"><ele>269.1666666666667</ele><time>2026-05-03T10:48:18.012Z</time></trkpt><trkpt lat="43.7522464" lon="11.3491645"><ele>266.0</ele><time>2026-05-03T10:48:19.012Z</time></trkpt><trkpt lat="43.75232" lon="11.3491478"><ele>266.0</ele><time>2026-05-03T10:48:20.012Z</time></trkpt><trkpt lat="43.7523947" lon="11.3491269"><ele>266.0</ele><time>2026-05-03T10:48:21.012Z</time></trkpt><trkpt lat="43.752468" lon="11.3491075"><ele>266.0</ele><time>2026-05-03T10:48:22.012Z</time></trkpt><trkpt lat="43.7525388" lon="11.3490918"><ele>266.0</ele><time>2026-05-03T10:48:23.011Z</time></trkpt><trkpt lat="43.7526293" lon="11.3490498"><ele>266.0</ele><time>2026-05-03T10:48:25.012Z</time></trkpt><trkpt lat="43.7526171" lon="11.3489476"><ele>266.0</ele><time>2026-05-03T10:48:27.012Z</time></trkpt><trkpt lat="43.7525743" lon="11.3488679"><ele>262.2</ele><time>2026-05-03T10:48:28.012Z</time></trkpt><trkpt lat="43.7525139" lon="11.348768"><ele>258.40000000000003</ele><time>2026-05-03T10:48:29.012Z</time></trkpt><trkpt lat="43.7524599" lon="11.348671"><ele>254.6</ele><time>2026-05-03T10:48:30.011Z</time></trkpt><trkpt lat="43.7524102" lon="11.3485685"><ele>250.8</ele><time>2026-05-03T10:48:31.012Z</time></trkpt><trkpt lat="43.7523619" lon="11.3484572"><ele>247.0</ele><time>2026-05-03T10:48:32.011Z</time></trkpt><trkpt lat="43.752318" lon="11.3483357"><ele>247.0</ele><time>2026-05-03T10:48:33.011Z</time></trkpt><trkpt lat="43.7522868" lon="11.3482117"><ele>247.0</ele><time>2026-05-03T10:48:34.012Z</time></trkpt><trkpt lat="43.7522516" lon="11.3480916"><ele>247.0</ele><time>2026-05-03T10:48:35.012Z</time></trkpt><trkpt lat="43.7522198" lon="11.3479699"><ele>247.0</ele><time>2026-05-03T10:48:36.012Z</time></trkpt><trkpt lat="43.7521996" lon="11.3478482"><ele>247.0</ele><time>2026-05-03T10:48:37.012Z</time></trkpt><trkpt lat="43.7521755" lon="11.3477437"><ele>244.0</ele><time>2026-05-03T10:48:38.01Z</time></trkpt><trkpt lat="43.7521648" lon="11.3476155"><ele>241.0</ele><time>2026-05-03T10:48:39.011Z</time></trkpt><trkpt lat="43.7521995" lon="11.347495"><ele>238.0</ele><time>2026-05-03T10:48:40.011Z</time></trkpt><trkpt lat="43.7522167" lon="11.347365"><ele>235.0</ele><time>2026-05-03T10:48:41.011Z</time></trkpt><trkpt lat="43.7522508" lon="11.3472439"><ele>232.0</ele><time>2026-05-03T10:48:42.012Z</time></trkpt><trkpt lat="43.7522836" lon="11.3470954"><ele>229.2</ele><time>2026-05-03T10:48:43.012Z</time></trkpt><trkpt lat="43.7523276" lon="11.3469831"><ele>226.39999999999998</ele><time>2026-05-03T10:48:44.012Z</time></trkpt><trkpt lat="43.7523638" lon="11.3468657"><ele>223.60000000000002</ele><time>2026-05-03T10:48:45.012Z</time></trkpt><trkpt lat="43.7524054" lon="11.3467522"><ele>220.8</ele><time>2026-05-03T10:48:46.011Z</time></trkpt><trkpt lat="43.7524568" lon="11.3466457"><ele>218.0</ele><time>2026-05-03T10:48:47.012Z</time></trkpt><trkpt lat="43.752507" lon="11.3465381"><ele>218.0</ele><time>2026-05-03T10:48:48.011Z</time></trkpt><trkpt lat="43.7525585" lon="11.3464142"><ele>218.0</ele><time>2026-05-03T10:48:49.012Z</time></trkpt><trkpt lat="43.7526068" lon="11.3462871"><ele>218.0</ele><time>2026-05-03T10:48:50.011Z</time></trkpt><trkpt lat="43.7526478" lon="11.346161"><ele>218.0</ele><time>2026-05-03T10:48:51.012Z</time></trkpt><trkpt lat="43.7526839" lon="11.3460476"><ele>218.0</ele><time>2026-05-03T10:48:52.011Z</time></trkpt><trkpt lat="43.752713" lon="11.345945"><ele>215.85714285714286</ele><time>2026-05-03T10:48:53.012Z</time></trkpt><trkpt lat="43.7527332" lon="11.3458416"><ele>213.71428571428572</ele><time>2026-05-03T10:48:54.012Z</time></trkpt><trkpt lat="43.7527445" lon="11.3457419"><ele>211.57142857142856</ele><time>2026-05-03T10:48:55.011Z</time></trkpt><trkpt lat="43.7527472" lon="11.3456377"><ele>209.42857142857144</ele><time>2026-05-03T10:48:56.012Z</time></trkpt><trkpt lat="43.7527368" lon="11.3455374"><ele>207.28571428571428</ele><time>2026-05-03T10:48:57.011Z</time></trkpt><trkpt lat="43.7527026" lon="11.3454579"><ele>205.14285714285714</ele><time>2026-05-03T10:48:58.011Z</time></trkpt><trkpt lat="43.7526508" lon="11.3453778"><ele>203.0</ele><time>2026-05-03T10:48:59.012Z</time></trkpt><trkpt lat="43.7525785" lon="11.3452845"><ele>203.00000000000003</ele><time>2026-05-03T10:49:00.011Z</time></trkpt><trkpt lat="43.7525283" lon="11.3452067"><ele>203.0</ele><time>2026-05-03T10:49:01.012Z</time></trkpt><trkpt lat="43.752482" lon="11.3451407"><ele>203.0</ele><time>2026-05-03T10:49:02.012Z</time></trkpt><trkpt lat="43.7524293" lon="11.3450393"><ele>203.0</ele><time>2026-05-03T10:49:04.012Z</time></trkpt><trkpt lat="43.7524183" lon="11.3448808"><ele>203.00000000000003</ele><time>2026-05-03T10:49:06.012Z</time></trkpt><trkpt lat="43.7524695" lon="11.344813"><ele>203.0</ele><time>2026-05-03T10:49:08.011Z</time></trkpt><trkpt lat="43.7526019" lon="11.3447935"><ele>203.0</ele><time>2026-05-03T10:49:10.012Z</time></trkpt><trkpt lat="43.7526697" lon="11.3447944"><ele>203.0</ele><time>2026-05-03T10:49:11.012Z</time></trkpt><trkpt lat="43.7527775" lon="11.3447886"><ele>203.0</ele><time>2026-05-03T10:49:13.011Z</time></trkpt><trkpt lat="43.7528437" lon="11.344796"><ele>203.0</ele><time>2026-05-03T10:49:47.012Z</time></trkpt><trkpt lat="43.7530018" lon="11.3449216"><ele>203.0</ele><time>2026-05-03T10:49:49.011Z</time></trkpt><trkpt lat="43.7531017" lon="11.3449957"><ele>202.0</ele><time>2026-05-03T10:49:50.011Z</time></trkpt><trkpt lat="43.7532049" lon="11.3450758"><ele>201.0</ele><time>2026-05-03T10:49:51.011Z</time></trkpt><trkpt lat="43.7533057" lon="11.3451571"><ele>200.0</ele><time>2026-05-03T10:49:52.011Z</time></trkpt><trkpt lat="43.7533946" lon="11.3452217"><ele>199.0</ele><time>2026-05-03T10:49:53.012Z</time></trkpt><trkpt lat="43.7534668" lon="11.345271"><ele>198.0</ele><time>2026-05-03T10:49:54.012Z</time></trkpt><trkpt lat="43.7535787" lon="11.3453008"><ele>198.0</ele><time>2026-05-03T10:49:56.011Z</time></trkpt><trkpt lat="43.7535839" lon="11.3451953"><ele>198.0</ele><time>2026-05-03T10:49:57.011Z</time></trkpt><trkpt lat="43.7536115" lon="11.3450842"><ele>198.0</ele><time>2026-05-03T10:49:58.012Z</time></trkpt><trkpt lat="43.7536462" lon="11.3449507"><ele>198.0</ele><time>2026-05-03T10:49:59.012Z</time></trkpt><trkpt lat="43.7536824" lon="11.3448074"><ele>198.0</ele><time>2026-05-03T10:50:00.012Z</time></trkpt><trkpt lat="43.7537231" lon="11.3446675"><ele>196.2</ele><time>2026-05-03T10:50:01.011Z</time></trkpt><trkpt lat="43.753767" lon="11.3445369"><ele>194.4</ele><time>2026-05-03T10:50:02.012Z</time></trkpt><trkpt lat="43.7538207" lon="11.3444096"><ele>192.6</ele><time>2026-05-03T10:50:03.012Z</time></trkpt><trkpt lat="43.7538728" lon="11.3442937"><ele>190.79999999999998</ele><time>2026-05-03T10:50:04.012Z</time></trkpt><trkpt lat="43.7539254" lon="11.3441984"><ele>189.0</ele><time>2026-05-03T10:50:05.012Z</time></trkpt><trkpt lat="43.7539737" lon="11.3441263"><ele>189.0</ele><time>2026-05-03T10:50:06.012Z</time></trkpt><trkpt lat="43.7540862" lon="11.3440493"><ele>189.0</ele><time>2026-05-03T10:50:08.012Z</time></trkpt><trkpt lat="43.7541544" lon="11.3440212"><ele>189.0</ele><time>2026-05-03T10:50:09.012Z</time></trkpt><trkpt lat="43.7542402" lon="11.3440183"><ele>189.0</ele><time>2026-05-03T10:50:10.011Z</time></trkpt><trkpt lat="43.7543356" lon="11.344024"><ele>189.0</ele><time>2026-05-03T10:50:11.011Z</time></trkpt><trkpt lat="43.7544633" lon="11.3440381"><ele>188.0</ele><time>2026-05-03T10:50:12.011Z</time></trkpt><trkpt lat="43.7545817" lon="11.3440493"><ele>187.0</ele><time>2026-05-03T10:50:13.012Z</time></trkpt><trkpt lat="43.7546855" lon="11.3440629"><ele>186.0</ele><time>2026-05-03T10:50:14.012Z</time></trkpt><trkpt lat="43.7547789" lon="11.3440815"><ele>185.0</ele><time>2026-05-03T10:50:15.012Z</time></trkpt><trkpt lat="43.7548675" lon="11.3441258"><ele>184.0</ele><time>2026-05-03T10:50:16.011Z</time></trkpt><trkpt lat="43.7549677" lon="11.3441974"><ele>184.0</ele><time>2026-05-03T10:50:17.011Z</time></trkpt><trkpt lat="43.7550639" lon="11.3442698"><ele>184.0</ele><time>2026-05-03T10:50:18.012Z</time></trkpt><trkpt lat="43.755165" lon="11.3443348"><ele>184.0</ele><time>2026-05-03T10:50:19.011Z</time></trkpt><trkpt lat="43.7552901" lon="11.3443689"><ele>184.0</ele><time>2026-05-03T10:50:20.012Z</time></trkpt><trkpt lat="43.7553976" lon="11.3444096"><ele>183.0</ele><time>2026-05-03T10:50:21.011Z</time></trkpt><trkpt lat="43.7554698" lon="11.3444159"><ele>182.0</ele><time>2026-05-03T10:50:22.012Z</time></trkpt><trkpt lat="43.7555518" lon="11.3444213"><ele>181.0</ele><time>2026-05-03T10:50:23.011Z</time></trkpt><trkpt lat="43.7556377" lon="11.3444128"><ele>180.0</ele><time>2026-05-03T10:50:24.011Z</time></trkpt><trkpt lat="43.7557189" lon="11.3443372"><ele>179.0</ele><time>2026-05-03T10:50:25.011Z</time></trkpt><trkpt lat="43.7558062" lon="11.3443063"><ele>178.0</ele><time>2026-05-03T10:50:26.011Z</time></trkpt><trkpt lat="43.7558994" lon="11.3442651"><ele>178.0</ele><time>2026-05-03T10:50:27.012Z</time></trkpt><trkpt lat="43.7559868" lon="11.344224"><ele>178.0</ele><time>2026-05-03T10:50:28.01Z</time></trkpt><trkpt lat="43.7560734" lon="11.3441914"><ele>178.0</ele><time>2026-05-03T10:50:29.011Z</time></trkpt><trkpt lat="43.7561497" lon="11.34417"><ele>178.0</ele><time>2026-05-03T10:50:30.012Z</time></trkpt><trkpt lat="43.7562179" lon="11.3441527"><ele>178.0</ele><time>2026-05-03T10:50:31.01Z</time></trkpt><trkpt lat="43.7562889" lon="11.3441376"><ele>178.0</ele><time>2026-05-03T10:50:32.011Z</time></trkpt><trkpt lat="43.7563566" lon="11.3441175"><ele>178.16666666666669</ele><time>2026-05-03T10:50:33.012Z</time></trkpt><trkpt lat="43.7564311" lon="11.3440983"><ele>178.33333333333334</ele><time>2026-05-03T10:50:34.011Z</time></trkpt><trkpt lat="43.7565177" lon="11.3440804"><ele>178.5</ele><time>2026-05-03T10:50:35.011Z</time></trkpt><trkpt lat="43.7566" lon="11.3440426"><ele>178.66666666666666</ele><time>2026-05-03T10:50:36.011Z</time></trkpt><trkpt lat="43.7566845" lon="11.3439732"><ele>178.83333333333331</ele><time>2026-05-03T10:50:37.012Z</time></trkpt><trkpt lat="43.7567669" lon="11.3438968"><ele>179.0</ele><time>2026-05-03T10:50:38.012Z</time></trkpt><trkpt lat="43.7568343" lon="11.3438383"><ele>178.0</ele><time>2026-05-03T10:50:39.012Z</time></trkpt><trkpt lat="43.7568852" lon="11.3437789"><ele>177.0</ele><time>2026-05-03T10:50:40.011Z</time></trkpt><trkpt lat="43.7569224" lon="11.343647"><ele>176.0</ele><time>2026-05-03T10:50:42.012Z</time></trkpt><trkpt lat="43.7568971" lon="11.3435249"><ele>175.0</ele><time>2026-05-03T10:50:44.012Z</time></trkpt><trkpt lat="43.7568754" lon="11.3434334"><ele>174.0</ele><time>2026-05-03T10:50:45.012Z</time></trkpt><trkpt lat="43.7568525" lon="11.3433151"><ele>173.0</ele><time>2026-05-03T10:50:46.012Z</time></trkpt><trkpt lat="43.7568295" lon="11.3431994"><ele>172.66666666666666</ele><time>2026-05-03T10:50:47.011Z</time></trkpt><trkpt lat="43.7568144" lon="11.3430904"><ele>172.33333333333331</ele><time>2026-05-03T10:50:48.012Z</time></trkpt><trkpt lat="43.7567995" lon="11.3429752"><ele>172.0</ele><time>2026-05-03T10:50:49.011Z</time></trkpt><trkpt lat="43.7567965" lon="11.3428657"><ele>171.66666666666666</ele><time>2026-05-03T10:50:50.012Z</time></trkpt><trkpt lat="43.7568073" lon="11.3427633"><ele>171.33333333333334</ele><time>2026-05-03T10:50:51.011Z</time></trkpt><trkpt lat="43.7568258" lon="11.3426407"><ele>171.0</ele><time>2026-05-03T10:50:52.01Z</time></trkpt><trkpt lat="43.7568482" lon="11.342498"><ele>168.75</ele><time>2026-05-03T10:50:53.011Z</time></trkpt><trkpt lat="43.7568685" lon="11.3423371"><ele>166.5</ele><time>2026-05-03T10:50:54.012Z</time></trkpt><trkpt lat="43.7568868" lon="11.3421783"><ele>164.25</ele><time>2026-05-03T10:50:55.012Z</time></trkpt><trkpt lat="43.7569097" lon="11.3420112"><ele>162.0</ele><time>2026-05-03T10:50:56.012Z</time></trkpt><trkpt lat="43.7569288" lon="11.3418462"><ele>159.2</ele><time>2026-05-03T10:50:57.011Z</time></trkpt><trkpt lat="43.7569496" lon="11.3416916"><ele>156.39999999999998</ele><time>2026-05-03T10:50:58.012Z</time></trkpt><trkpt lat="43.7569785" lon="11.3415477"><ele>153.60000000000002</ele><time>2026-05-03T10:50:59.012Z</time></trkpt><trkpt lat="43.7570082" lon="11.3414068"><ele>150.8</ele><time>2026-05-03T10:51:00.012Z</time></trkpt><trkpt lat="43.7570315" lon="11.3412717"><ele>148.0</ele><time>2026-05-03T10:51:01.012Z</time></trkpt><trkpt lat="43.7570344" lon="11.3411339"><ele>145.5</ele><time>2026-05-03T10:51:02.012Z</time></trkpt><trkpt lat="43.7570195" lon="11.3409941"><ele>143.0</ele><time>2026-05-03T10:51:03.011Z</time></trkpt><trkpt lat="43.7569968" lon="11.3408495"><ele>140.5</ele><time>2026-05-03T10:51:04.012Z</time></trkpt><trkpt lat="43.7569739" lon="11.3406819"><ele>138.0</ele><time>2026-05-03T10:51:05.012Z</time></trkpt><trkpt lat="43.7569229" lon="11.3402983"><ele>136.25</ele><time>2026-05-03T10:51:07.011Z</time></trkpt><trkpt lat="43.7568999" lon="11.3401076"><ele>134.5</ele><time>2026-05-03T10:51:08.01Z</time></trkpt><trkpt lat="43.7568737" lon="11.3399129"><ele>132.75</ele><time>2026-05-03T10:51:09.01Z</time></trkpt><trkpt lat="43.7568489" lon="11.3397281"><ele>131.0</ele><time>2026-05-03T10:51:10.011Z</time></trkpt><trkpt lat="43.7568183" lon="11.3395327"><ele>128.66666666666666</ele><time>2026-05-03T10:51:11.011Z</time></trkpt><trkpt lat="43.7567845" lon="11.3393231"><ele>126.33333333333334</ele><time>2026-05-03T10:51:12.012Z</time></trkpt><trkpt lat="43.7567556" lon="11.3391135"><ele>124.0</ele><time>2026-05-03T10:51:13.012Z</time></trkpt><trkpt lat="43.7567278" lon="11.3389155"><ele>122.25</ele><time>2026-05-03T10:51:14.012Z</time></trkpt><trkpt lat="43.7567044" lon="11.3387224"><ele>120.5</ele><time>2026-05-03T10:51:15.012Z</time></trkpt><trkpt lat="43.7566844" lon="11.3385324"><ele>118.75</ele><time>2026-05-03T10:51:16.011Z</time></trkpt><trkpt lat="43.7566672" lon="11.3383482"><ele>117.0</ele><time>2026-05-03T10:51:17.011Z</time></trkpt><trkpt lat="43.7566643" lon="11.338162"><ele>115.5</ele><time>2026-05-03T10:51:18.011Z</time></trkpt><trkpt lat="43.7566744" lon="11.3379754"><ele>114.0</ele><time>2026-05-03T10:51:19.012Z</time></trkpt><trkpt lat="43.7567052" lon="11.3377957"><ele>112.5</ele><time>2026-05-03T10:51:20.012Z</time></trkpt><trkpt lat="43.7567433" lon="11.3376034"><ele>111.0</ele><time>2026-05-03T10:51:21.011Z</time></trkpt><trkpt lat="43.7567833" lon="11.3374086"><ele>110.0</ele><time>2026-05-03T10:51:22.011Z</time></trkpt><trkpt lat="43.756822" lon="11.3372158"><ele>109.0</ele><time>2026-05-03T10:51:23.01Z</time></trkpt><trkpt lat="43.7568594" lon="11.3370188"><ele>108.0</ele><time>2026-05-03T10:51:24.011Z</time></trkpt><trkpt lat="43.7568978" lon="11.3368311"><ele>107.0</ele><time>2026-05-03T10:51:25.011Z</time></trkpt><trkpt lat="43.7569339" lon="11.3366399"><ele>106.0</ele><time>2026-05-03T10:51:26.011Z</time></trkpt><trkpt lat="43.7569702" lon="11.3364536"><ele>105.0</ele><time>2026-05-03T10:51:27.011Z</time></trkpt><trkpt lat="43.7570077" lon="11.33627"><ele>104.0</ele><time>2026-05-03T10:51:28.012Z</time></trkpt><trkpt lat="43.7570462" lon="11.3360873"><ele>103.0</ele><time>2026-05-03T10:51:29.01Z</time></trkpt><trkpt lat="43.7570894" lon="11.3359009"><ele>102.25</ele><time>2026-05-03T10:51:30.012Z</time></trkpt><trkpt lat="43.7571347" lon="11.3357136"><ele>101.5</ele><time>2026-05-03T10:51:31.012Z</time></trkpt><trkpt lat="43.7571753" lon="11.3355319"><ele>100.75</ele><time>2026-05-03T10:51:32.012Z</time></trkpt><trkpt lat="43.7572083" lon="11.33536"><ele>100.0</ele><time>2026-05-03T10:51:33.012Z</time></trkpt><trkpt lat="43.7572307" lon="11.3351923"><ele>99.25</ele><time>2026-05-03T10:51:34.01Z</time></trkpt><trkpt lat="43.7572505" lon="11.335033"><ele>98.5</ele><time>2026-05-03T10:51:35.011Z</time></trkpt><trkpt lat="43.7572811" lon="11.3348843"><ele>97.75</ele><time>2026-05-03T10:51:36.012Z</time></trkpt><trkpt lat="43.7573252" lon="11.334742"><ele>97.0</ele><time>2026-05-03T10:51:37.012Z</time></trkpt><trkpt lat="43.7573866" lon="11.3345941"><ele>95.75</ele><time>2026-05-03T10:51:38.012Z</time></trkpt><trkpt lat="43.7574604" lon="11.3344503"><ele>94.5</ele><time>2026-05-03T10:51:39.011Z</time></trkpt><trkpt lat="43.7575306" lon="11.3343206"><ele>93.25</ele><time>2026-05-03T10:51:40.01Z</time></trkpt><trkpt lat="43.7576005" lon="11.3341904"><ele>92.0</ele><time>2026-05-03T10:51:41.011Z</time></trkpt><trkpt lat="43.7576382" lon="11.334075"><ele>92.0</ele><time>2026-05-03T10:51:42.01Z</time></trkpt><trkpt lat="43.7576578" lon="11.333942"><ele>92.0</ele><time>2026-05-03T10:51:43.011Z</time></trkpt><trkpt lat="43.7576465" lon="11.3338062"><ele>92.0</ele><time>2026-05-03T10:51:44.01Z</time></trkpt><trkpt lat="43.757624" lon="11.333647"><ele>92.0</ele><time>2026-05-03T10:51:45.011Z</time></trkpt><trkpt lat="43.757601" lon="11.3334685"><ele>92.0</ele><time>2026-05-03T10:51:46.011Z</time></trkpt><trkpt lat="43.7575838" lon="11.3332865"><ele>90.25</ele><time>2026-05-03T10:51:47.011Z</time></trkpt><trkpt lat="43.75757" lon="11.3330949"><ele>88.5</ele><time>2026-05-03T10:51:48.01Z</time></trkpt><trkpt lat="43.7575709" lon="11.3329089"><ele>86.75</ele><time>2026-05-03T10:51:49.01Z</time></trkpt><trkpt lat="43.7575824" lon="11.3327293"><ele>85.0</ele><time>2026-05-03T10:51:50.011Z</time></trkpt><trkpt lat="43.7576035" lon="11.3325629"><ele>84.25</ele><time>2026-05-03T10:51:51.01Z</time></trkpt><trkpt lat="43.757626" lon="11.3323914"><ele>83.5</ele><time>2026-05-03T10:51:52.01Z</time></trkpt><trkpt lat="43.7576545" lon="11.3322162"><ele>82.75</ele><time>2026-05-03T10:51:53.011Z</time></trkpt><trkpt lat="43.7576797" lon="11.3320588"><ele>82.0</ele><time>2026-05-03T10:51:54.01Z</time></trkpt><trkpt lat="43.7577017" lon="11.3319152"><ele>81.0</ele><time>2026-05-03T10:51:55.011Z</time></trkpt><trkpt lat="43.7577251" lon="11.331787"><ele>80.0</ele><time>2026-05-03T10:51:56.011Z</time></trkpt><trkpt lat="43.757754" lon="11.3316784"><ele>79.0</ele><time>2026-05-03T10:51:57.011Z</time></trkpt><trkpt lat="43.7577921" lon="11.331558"><ele>78.0</ele><time>2026-05-03T10:51:58.011Z</time></trkpt><trkpt lat="43.7578527" lon="11.3314315"><ele>77.0</ele><time>2026-05-03T10:51:59.011Z</time></trkpt><trkpt lat="43.7579106" lon="11.3313012"><ele>77.0</ele><time>2026-05-03T10:52:00.011Z</time></trkpt><trkpt lat="43.7579659" lon="11.331179"><ele>77.0</ele><time>2026-05-03T10:52:01.011Z</time></trkpt><trkpt lat="43.7580175" lon="11.3310604"><ele>77.0</ele><time>2026-05-03T10:52:02.011Z</time></trkpt><trkpt lat="43.7580728" lon="11.3309381"><ele>77.0</ele><time>2026-05-03T10:52:03.011Z</time></trkpt><trkpt lat="43.7581221" lon="11.3308088"><ele>77.0</ele><time>2026-05-03T10:52:04.011Z</time></trkpt><trkpt lat="43.7581722" lon="11.3306663"><ele>77.0</ele><time>2026-05-03T10:52:05.011Z</time></trkpt><trkpt lat="43.7582188" lon="11.3305081"><ele>77.0</ele><time>2026-05-03T10:52:06.011Z</time></trkpt><trkpt lat="43.7582575" lon="11.3303443"><ele>77.0</ele><time>2026-05-03T10:52:07.01Z</time></trkpt><trkpt lat="43.7582882" lon="11.3301737"><ele>77.0</ele><time>2026-05-03T10:52:08.011Z</time></trkpt><trkpt lat="43.7583204" lon="11.3299971"><ele>77.0</ele><time>2026-05-03T10:52:09.011Z</time></trkpt><trkpt lat="43.7583509" lon="11.3298169"><ele>77.0</ele><time>2026-05-03T10:52:10.011Z</time></trkpt><trkpt lat="43.7583792" lon="11.3296398"><ele>77.0</ele><time>2026-05-03T10:52:11.01Z</time></trkpt><trkpt lat="43.7584063" lon="11.3294718"><ele>77.0</ele><time>2026-05-03T10:52:12.01Z</time></trkpt><trkpt lat="43.7584321" lon="11.3293161"><ele>76.4</ele><time>2026-05-03T10:52:13.011Z</time></trkpt><trkpt lat="43.7584545" lon="11.3291746"><ele>75.80000000000001</ele><time>2026-05-03T10:52:14.01Z</time></trkpt><trkpt lat="43.7584734" lon="11.3290405"><ele>75.2</ele><time>2026-05-03T10:52:15.011Z</time></trkpt><trkpt lat="43.758493" lon="11.3289176"><ele>74.60000000000001</ele><time>2026-05-03T10:52:16.011Z</time></trkpt><trkpt lat="43.7585099" lon="11.3287996"><ele>74.0</ele><time>2026-05-03T10:52:17.011Z</time></trkpt><trkpt lat="43.7585239" lon="11.3286866"><ele>73.0</ele><time>2026-05-03T10:52:18.01Z</time></trkpt><trkpt lat="43.7585396" lon="11.3285859"><ele>72.0</ele><time>2026-05-03T10:52:19.011Z</time></trkpt><trkpt lat="43.7585555" lon="11.328494"><ele>71.0</ele><time>2026-05-03T10:52:20.011Z</time></trkpt><trkpt lat="43.7585865" lon="11.3283467"><ele>70.0</ele><time>2026-05-03T10:52:22.009Z</time></trkpt><trkpt lat="43.758592" lon="11.328233"><ele>69.0</ele><time>2026-05-03T10:52:39.01Z</time></trkpt><trkpt lat="43.7586175" lon="11.328071"><ele>69.0</ele><time>2026-05-03T10:52:41.011Z</time></trkpt><trkpt lat="43.7586272" lon="11.3279652"><ele>69.0</ele><time>2026-05-03T10:52:42.01Z</time></trkpt><trkpt lat="43.7586468" lon="11.3278452"><ele>69.0</ele><time>2026-05-03T10:52:43.011Z</time></trkpt><trkpt lat="43.7586815" lon="11.3277249"><ele>69.0</ele><time>2026-05-03T10:52:44.011Z</time></trkpt><trkpt lat="43.758743" lon="11.3276059"><ele>69.0</ele><time>2026-05-03T10:52:45.01Z</time></trkpt><trkpt lat="43.7588258" lon="11.327489"><ele>69.0</ele><time>2026-05-03T10:52:46.01Z</time></trkpt><trkpt lat="43.7589178" lon="11.3273733"><ele>69.0</ele><time>2026-05-03T10:52:47.01Z</time></trkpt><trkpt lat="43.7590157" lon="11.3272545"><ele>69.0</ele><time>2026-05-03T10:52:48.011Z</time></trkpt><trkpt lat="43.7591097" lon="11.3271332"><ele>69.0</ele><time>2026-05-03T10:52:49.009Z</time></trkpt><trkpt lat="43.7592129" lon="11.3270375"><ele>69.0</ele><time>2026-05-03T10:52:50.011Z</time></trkpt><trkpt lat="43.7593294" lon="11.3269513"><ele>69.0</ele><time>2026-05-03T10:52:51.01Z</time></trkpt><trkpt lat="43.7594452" lon="11.3268798"><ele>69.0</ele><time>2026-05-03T10:52:52.01Z</time></trkpt><trkpt lat="43.7595609" lon="11.3268101"><ele>69.0</ele><time>2026-05-03T10:52:53.011Z</time></trkpt><trkpt lat="43.7596666" lon="11.3267353"><ele>69.0</ele><time>2026-05-03T10:52:54.01Z</time></trkpt><trkpt lat="43.7597548" lon="11.3266349"><ele>69.0</ele><time>2026-05-03T10:52:55.009Z</time></trkpt><trkpt lat="43.7598256" lon="11.3264974"><ele>69.0</ele><time>2026-05-03T10:52:56.011Z</time></trkpt><trkpt lat="43.7598814" lon="11.3263374"><ele>69.0</ele><time>2026-05-03T10:52:57.011Z</time></trkpt><trkpt lat="43.7599323" lon="11.3261592"><ele>68.5</ele><time>2026-05-03T10:52:58.01Z</time></trkpt><trkpt lat="43.7599784" lon="11.3259695"><ele>68.0</ele><time>2026-05-03T10:52:59.011Z</time></trkpt><trkpt lat="43.7600208" lon="11.3257655"><ele>67.5</ele><time>2026-05-03T10:53:00.01Z</time></trkpt><trkpt lat="43.7600531" lon="11.3255671"><ele>67.0</ele><time>2026-05-03T10:53:01.011Z</time></trkpt><trkpt lat="43.7600782" lon="11.3253641"><ele>66.5</ele><time>2026-05-03T10:53:02.011Z</time></trkpt><trkpt lat="43.7601016" lon="11.3251568"><ele>66.0</ele><time>2026-05-03T10:53:03.011Z</time></trkpt><trkpt lat="43.7601196" lon="11.3249552"><ele>65.5</ele><time>2026-05-03T10:53:04.011Z</time></trkpt><trkpt lat="43.7601309" lon="11.3247601"><ele>65.0</ele><time>2026-05-03T10:53:05.01Z</time></trkpt><trkpt lat="43.7601367" lon="11.324566"><ele>65.0</ele><time>2026-05-03T10:53:06.011Z</time></trkpt><trkpt lat="43.7601526" lon="11.3243774"><ele>65.0</ele><time>2026-05-03T10:53:07.01Z</time></trkpt><trkpt lat="43.7601834" lon="11.3241911"><ele>65.0</ele><time>2026-05-03T10:53:08.011Z</time></trkpt><trkpt lat="43.7602291" lon="11.3240114"><ele>65.0</ele><time>2026-05-03T10:53:09.01Z</time></trkpt><trkpt lat="43.760288" lon="11.3238301"><ele>64.75</ele><time>2026-05-03T10:53:10.011Z</time></trkpt><trkpt lat="43.7603519" lon="11.3236533"><ele>64.5</ele><time>2026-05-03T10:53:11.01Z</time></trkpt><trkpt lat="43.760428" lon="11.3234758"><ele>64.25</ele><time>2026-05-03T10:53:12.011Z</time></trkpt><trkpt lat="43.7605117" lon="11.3233061"><ele>64.0</ele><time>2026-05-03T10:53:13.009Z</time></trkpt><trkpt lat="43.7605958" lon="11.3231365"><ele>63.75</ele><time>2026-05-03T10:53:14.011Z</time></trkpt><trkpt lat="43.7606809" lon="11.3229676"><ele>63.5</ele><time>2026-05-03T10:53:15.011Z</time></trkpt><trkpt lat="43.7607641" lon="11.3227975"><ele>63.25</ele><time>2026-05-03T10:53:16.011Z</time></trkpt><trkpt lat="43.7608469" lon="11.3226302"><ele>63.0</ele><time>2026-05-03T10:53:17.01Z</time></trkpt><trkpt lat="43.760924" lon="11.3224715"><ele>63.0</ele><time>2026-05-03T10:53:18.01Z</time></trkpt><trkpt lat="43.7609963" lon="11.3223238"><ele>63.0</ele><time>2026-05-03T10:53:19.011Z</time></trkpt><trkpt lat="43.7610708" lon="11.3221724"><ele>63.0</ele><time>2026-05-03T10:53:20.011Z</time></trkpt><trkpt lat="43.761144" lon="11.3220228"><ele>63.0</ele><time>2026-05-03T10:53:21.009Z</time></trkpt><trkpt lat="43.7612109" lon="11.3218773"><ele>62.25</ele><time>2026-05-03T10:53:22.011Z</time></trkpt><trkpt lat="43.7612736" lon="11.3217398"><ele>61.5</ele><time>2026-05-03T10:53:23.011Z</time></trkpt><trkpt lat="43.7613306" lon="11.3215981"><ele>60.75</ele><time>2026-05-03T10:53:24.009Z</time></trkpt><trkpt lat="43.7613904" lon="11.3214484"><ele>60.0</ele><time>2026-05-03T10:53:25.01Z</time></trkpt><trkpt lat="43.7614568" lon="11.3212959"><ele>59.5</ele><time>2026-05-03T10:53:26.011Z</time></trkpt><trkpt lat="43.7615353" lon="11.3211418"><ele>59.0</ele><time>2026-05-03T10:53:27.011Z</time></trkpt><trkpt lat="43.7616176" lon="11.3209777"><ele>58.5</ele><time>2026-05-03T10:53:28.01Z</time></trkpt><trkpt lat="43.7617004" lon="11.320817"><ele>58.0</ele><time>2026-05-03T10:53:29.011Z</time></trkpt><trkpt lat="43.7617854" lon="11.3206561"><ele>58.25</ele><time>2026-05-03T10:53:30.011Z</time></trkpt><trkpt lat="43.7618698" lon="11.3204952"><ele>58.5</ele><time>2026-05-03T10:53:31.01Z</time></trkpt><trkpt lat="43.7619506" lon="11.3203431"><ele>58.75</ele><time>2026-05-03T10:53:32.011Z</time></trkpt><trkpt lat="43.7620264" lon="11.3202021"><ele>59.0</ele><time>2026-05-03T10:53:33.01Z</time></trkpt><trkpt lat="43.7620954" lon="11.320073"><ele>59.00000000000001</ele><time>2026-05-03T10:53:34.01Z</time></trkpt><trkpt lat="43.7621531" lon="11.3199649"><ele>59.0</ele><time>2026-05-03T10:53:35.01Z</time></trkpt><trkpt lat="43.7621921" lon="11.3198742"><ele>59.0</ele><time>2026-05-03T10:53:36.011Z</time></trkpt><trkpt lat="43.7622177" lon="11.3197943"><ele>59.0</ele><time>2026-05-03T10:53:37.011Z</time></trkpt><trkpt lat="43.7622419" lon="11.3197133"><ele>59.00000000000001</ele><time>2026-05-03T10:53:38.009Z</time></trkpt><trkpt lat="43.7622701" lon="11.3196082"><ele>59.0</ele><time>2026-05-03T10:53:39.011Z</time></trkpt><trkpt lat="43.7623048" lon="11.3194818"><ele>58.400000000000006</ele><time>2026-05-03T10:53:40.011Z</time></trkpt><trkpt lat="43.7623465" lon="11.3193464"><ele>57.800000000000004</ele><time>2026-05-03T10:53:41.01Z</time></trkpt><trkpt lat="43.7624015" lon="11.3192147"><ele>57.199999999999996</ele><time>2026-05-03T10:53:42.011Z</time></trkpt><trkpt lat="43.7624602" lon="11.3191007"><ele>56.599999999999994</ele><time>2026-05-03T10:53:43.011Z</time></trkpt><trkpt lat="43.7625124" lon="11.3189935"><ele>56.0</ele><time>2026-05-03T10:53:44.011Z</time></trkpt><trkpt lat="43.7625596" lon="11.3188947"><ele>56.0</ele><time>2026-05-03T10:53:45.011Z</time></trkpt><trkpt lat="43.7626002" lon="11.3187815"><ele>55.99999999999999</ele><time>2026-05-03T10:53:46.011Z</time></trkpt><trkpt lat="43.7626202" lon="11.3186505"><ele>55.99999999999999</ele><time>2026-05-03T10:53:47.011Z</time></trkpt><trkpt lat="43.7626351" lon="11.3185057"><ele>56.0</ele><time>2026-05-03T10:53:48.01Z</time></trkpt><trkpt lat="43.7626486" lon="11.3183505"><ele>56.0</ele><time>2026-05-03T10:53:49.01Z</time></trkpt><trkpt lat="43.7626511" lon="11.3181937"><ele>56.25</ele><time>2026-05-03T10:53:50.011Z</time></trkpt><trkpt lat="43.7626239" lon="11.3180416"><ele>56.5</ele><time>2026-05-03T10:53:51.011Z</time></trkpt><trkpt lat="43.762575" lon="11.3178888"><ele>56.75</ele><time>2026-05-03T10:53:52.011Z</time></trkpt><trkpt lat="43.7625164" lon="11.3177336"><ele>57.0</ele><time>2026-05-03T10:53:53.01Z</time></trkpt><trkpt lat="43.7624586" lon="11.3175968"><ele>57.0</ele><time>2026-05-03T10:53:54.009Z</time></trkpt><trkpt lat="43.7624016" lon="11.3174652"><ele>57.0</ele><time>2026-05-03T10:53:55.01Z</time></trkpt><trkpt lat="43.7623437" lon="11.3173238"><ele>57.0</ele><time>2026-05-03T10:53:56.011Z</time></trkpt><trkpt lat="43.7622939" lon="11.3171809"><ele>57.0</ele><time>2026-05-03T10:53:57.011Z</time></trkpt><trkpt lat="43.7622494" lon="11.3170327"><ele>55.5</ele><time>2026-05-03T10:53:58.011Z</time></trkpt><trkpt lat="43.7622011" lon="11.3168843"><ele>54.0</ele><time>2026-05-03T10:53:59.01Z</time></trkpt><trkpt lat="43.7621426" lon="11.316731"><ele>52.5</ele><time>2026-05-03T10:54:00.011Z</time></trkpt><trkpt lat="43.7620866" lon="11.3165733"><ele>51.0</ele><time>2026-05-03T10:54:01.011Z</time></trkpt><trkpt lat="43.7620294" lon="11.3164194"><ele>51.0</ele><time>2026-05-03T10:54:02.011Z</time></trkpt><trkpt lat="43.7619861" lon="11.3162772"><ele>51.0</ele><time>2026-05-03T10:54:03.011Z</time></trkpt><trkpt lat="43.7619543" lon="11.3161214"><ele>51.0</ele><time>2026-05-03T10:54:04.01Z</time></trkpt><trkpt lat="43.7619405" lon="11.3159471"><ele>51.0</ele><time>2026-05-03T10:54:05.011Z</time></trkpt><trkpt lat="43.7619322" lon="11.3157616"><ele>51.0</ele><time>2026-05-03T10:54:06.01Z</time></trkpt><trkpt lat="43.7619252" lon="11.3155629"><ele>51.0</ele><time>2026-05-03T10:54:07.011Z</time></trkpt><trkpt lat="43.7619194" lon="11.3153578"><ele>51.0</ele><time>2026-05-03T10:54:08.011Z</time></trkpt><trkpt lat="43.7619141" lon="11.3151508"><ele>51.0</ele><time>2026-05-03T10:54:09.009Z</time></trkpt><trkpt lat="43.7619088" lon="11.3149457"><ele>51.0</ele><time>2026-05-03T10:54:10.011Z</time></trkpt><trkpt lat="43.7619037" lon="11.3147447"><ele>51.0</ele><time>2026-05-03T10:54:11.01Z</time></trkpt><trkpt lat="43.7618999" lon="11.3145459"><ele>51.0</ele><time>2026-05-03T10:54:12.011Z</time></trkpt><trkpt lat="43.7619116" lon="11.314351"><ele>51.0</ele><time>2026-05-03T10:54:13.01Z</time></trkpt><trkpt lat="43.7619303" lon="11.3141568"><ele>51.0</ele><time>2026-05-03T10:54:14.011Z</time></trkpt><trkpt lat="43.7619486" lon="11.3139677"><ele>51.0</ele><time>2026-05-03T10:54:15.011Z</time></trkpt><trkpt lat="43.7619568" lon="11.3137796"><ele>51.0</ele><time>2026-05-03T10:54:16.011Z</time></trkpt><trkpt lat="43.7619539" lon="11.3135912"><ele>51.0</ele><time>2026-05-03T10:54:17.01Z</time></trkpt><trkpt lat="43.761942" lon="11.3134066"><ele>51.0</ele><time>2026-05-03T10:54:18.011Z</time></trkpt><trkpt lat="43.7619256" lon="11.3132324"><ele>51.0</ele><time>2026-05-03T10:54:19.011Z</time></trkpt><trkpt lat="43.7619103" lon="11.3130755"><ele>51.0</ele><time>2026-05-03T10:54:20.01Z</time></trkpt><trkpt lat="43.7618972" lon="11.3129149"><ele>51.0</ele><time>2026-05-03T10:54:21.011Z</time></trkpt><trkpt lat="43.7618821" lon="11.3127678"><ele>51.166666666666664</ele><time>2026-05-03T10:54:22.01Z</time></trkpt><trkpt lat="43.761868" lon="11.3126655"><ele>51.33333333333333</ele><time>2026-05-03T10:54:23.011Z</time></trkpt><trkpt lat="43.7618541" lon="11.3125665"><ele>51.5</ele><time>2026-05-03T10:54:25.011Z</time></trkpt><trkpt lat="43.7618423" lon="11.3124709"><ele>51.666666666666664</ele><time>2026-05-03T10:54:28.011Z</time></trkpt><trkpt lat="43.7618356" lon="11.3122955"><ele>51.83333333333333</ele><time>2026-05-03T10:54:30.011Z</time></trkpt><trkpt lat="43.7618352" lon="11.3121811"><ele>52.0</ele><time>2026-05-03T10:54:31.011Z</time></trkpt><trkpt lat="43.7618385" lon="11.3120657"><ele>52.49999999999999</ele><time>2026-05-03T10:54:32.011Z</time></trkpt><trkpt lat="43.761843" lon="11.311953"><ele>53.0</ele><time>2026-05-03T10:54:33.011Z</time></trkpt><trkpt lat="43.7618423" lon="11.3118326"><ele>53.5</ele><time>2026-05-03T10:54:34.011Z</time></trkpt><trkpt lat="43.7618392" lon="11.3117201"><ele>54.0</ele><time>2026-05-03T10:54:35.011Z</time></trkpt><trkpt lat="43.761838" lon="11.3116228"><ele>54.49999999999999</ele><time>2026-05-03T10:54:36.011Z</time></trkpt><trkpt lat="43.7618083" lon="11.3114687"><ele>55.0</ele><time>2026-05-03T10:54:38.01Z</time></trkpt><trkpt lat="43.7617732" lon="11.3113717"><ele>55.2</ele><time>2026-05-03T10:54:39.011Z</time></trkpt><trkpt lat="43.7617216" lon="11.3112486"><ele>55.4</ele><time>2026-05-03T10:54:40.01Z</time></trkpt><trkpt lat="43.7616908" lon="11.3110995"><ele>55.599999999999994</ele><time>2026-05-03T10:54:41.011Z</time></trkpt><trkpt lat="43.7616757" lon="11.3109653"><ele>55.8</ele><time>2026-05-03T10:54:42.011Z</time></trkpt><trkpt lat="43.7616696" lon="11.3108275"><ele>56.0</ele><time>2026-05-03T10:54:43.011Z</time></trkpt><trkpt lat="43.7616714" lon="11.3107049"><ele>56.0</ele><time>2026-05-03T10:54:44.011Z</time></trkpt><trkpt lat="43.7616708" lon="11.3105789"><ele>55.99999999999999</ele><time>2026-05-03T10:54:45.01Z</time></trkpt><trkpt lat="43.7616686" lon="11.3104535"><ele>55.99999999999999</ele><time>2026-05-03T10:54:46.009Z</time></trkpt><trkpt lat="43.7616635" lon="11.3103282"><ele>56.0</ele><time>2026-05-03T10:54:47.011Z</time></trkpt><trkpt lat="43.7616626" lon="11.3102035"><ele>56.0</ele><time>2026-05-03T10:54:48.011Z</time></trkpt><trkpt lat="43.761658" lon="11.3100778"><ele>55.833333333333336</ele><time>2026-05-03T10:54:49.01Z</time></trkpt><trkpt lat="43.7616528" lon="11.3099593"><ele>55.66666666666667</ele><time>2026-05-03T10:54:50.011Z</time></trkpt><trkpt lat="43.7616502" lon="11.3098454"><ele>55.5</ele><time>2026-05-03T10:54:51.011Z</time></trkpt><trkpt lat="43.7616444" lon="11.3097256"><ele>55.33333333333333</ele><time>2026-05-03T10:54:52.01Z</time></trkpt><trkpt lat="43.7616394" lon="11.3096075"><ele>55.166666666666664</ele><time>2026-05-03T10:54:53.011Z</time></trkpt><trkpt lat="43.7616321" lon="11.3094881"><ele>55.0</ele><time>2026-05-03T10:54:54.011Z</time></trkpt><trkpt lat="43.7616243" lon="11.3093693"><ele>54.99999999999999</ele><time>2026-05-03T10:54:55.01Z</time></trkpt><trkpt lat="43.7616183" lon="11.30927"><ele>55.0</ele><time>2026-05-03T10:54:56.01Z</time></trkpt><trkpt lat="43.7616135" lon="11.3091791"><ele>55.0</ele><time>2026-05-03T10:54:57.011Z</time></trkpt><trkpt lat="43.7616179" lon="11.3090173"><ele>55.0</ele><time>2026-05-03T10:54:59.01Z</time></trkpt><trkpt lat="43.7616201" lon="11.3088403"><ele>54.99999999999999</ele><time>2026-05-03T10:55:01.011Z</time></trkpt><trkpt lat="43.7616215" lon="11.3087486"><ele>55.0</ele><time>2026-05-03T10:55:02.011Z</time></trkpt><trkpt lat="43.7616207" lon="11.3086568"><ele>54.8</ele><time>2026-05-03T10:55:03.01Z</time></trkpt><trkpt lat="43.7616168" lon="11.3085645"><ele>54.6</ele><time>2026-05-03T10:55:04.01Z</time></trkpt><trkpt lat="43.7616085" lon="11.3083922"><ele>54.400000000000006</ele><time>2026-05-03T10:55:06.011Z</time></trkpt><trkpt lat="43.7616054" lon="11.3082787"><ele>54.2</ele><time>2026-05-03T10:55:07.01Z</time></trkpt><trkpt lat="43.7615958" lon="11.3081513"><ele>54.0</ele><time>2026-05-03T10:55:08.01Z</time></trkpt><trkpt lat="43.7615907" lon="11.3080197"><ele>54.0</ele><time>2026-05-03T10:55:09.011Z</time></trkpt><trkpt lat="43.7615819" lon="11.3078833"><ele>54.00000000000001</ele><time>2026-05-03T10:55:10.011Z</time></trkpt><trkpt lat="43.7615796" lon="11.3077448"><ele>54.00000000000001</ele><time>2026-05-03T10:55:11.011Z</time></trkpt><trkpt lat="43.7615853" lon="11.3076067"><ele>54.0</ele><time>2026-05-03T10:55:12.011Z</time></trkpt><trkpt lat="43.761593" lon="11.3074603"><ele>54.0</ele><time>2026-05-03T10:55:13.01Z</time></trkpt><trkpt lat="43.7616036" lon="11.3073152"><ele>53.800000000000004</ele><time>2026-05-03T10:55:14.009Z</time></trkpt><trkpt lat="43.7616169" lon="11.3071699"><ele>53.60000000000001</ele><time>2026-05-03T10:55:15.01Z</time></trkpt><trkpt lat="43.7616226" lon="11.3070269"><ele>53.4</ele><time>2026-05-03T10:55:16.011Z</time></trkpt><trkpt lat="43.7616312" lon="11.3068847"><ele>53.2</ele><time>2026-05-03T10:55:17.011Z</time></trkpt><trkpt lat="43.7616366" lon="11.306748"><ele>53.0</ele><time>2026-05-03T10:55:18.011Z</time></trkpt><trkpt lat="43.7616503" lon="11.3066115"><ele>53.0</ele><time>2026-05-03T10:55:19.011Z</time></trkpt><trkpt lat="43.76167" lon="11.3064894"><ele>53.0</ele><time>2026-05-03T10:55:20.01Z</time></trkpt><trkpt lat="43.7616865" lon="11.3063952"><ele>51.0</ele><time>2026-05-03T10:55:21.01Z</time></trkpt><trkpt lat="43.7617087" lon="11.306291"><ele>51.0</ele><time>2026-05-03T10:55:23.011Z</time></trkpt></trkseg></trk></gpx>